<?xml version='1.0' encoding='UTF-8'?><gpx version="1.1" creator="JPX - https://github.com/jenetics/jpx" xmlns="http://www.topografix.com/GPX/1/1"><trk><trkseg><trkpt lat="44.84504629568502" lon="0.911875275212572"><ele>70.0</ele><time>2026-05-01T07:16:52Z</time></trkpt><trkpt lat="44.84488890075921" lon="0.9117941630757925"><ele>70.0</ele><time>2026-05-01T07:16:54Z</time></trkpt><trkpt lat="44.844775931312775" lon="0.9116974385512663"><ele>70.0</ele><time>2026-05-01T07:16:55Z</time></trkpt><trkpt lat="44.84468989092821" lon="0.9116466918896243"><ele>70.0</ele><time>2026-05-01T07:16:56Z</time></trkpt><trkpt lat="44.84455108077748" lon="0.9115802245012077"><ele>69.75</ele><time>2026-05-01T07:16:57Z</time></trkpt><trkpt lat="44.84443252423132" lon="0.9115132898765271"><ele>69.5</ele><time>2026-05-01T07:16:58Z</time></trkpt><trkpt lat="44.8443205327998" lon="0.911451774090084"><ele>69.25</ele><time>2026-05-01T07:16:59Z</time></trkpt><trkpt lat="44.84421756029521" lon="0.9113931325010257"><ele>69.0</ele><time>2026-05-01T07:17:00Z</time></trkpt><trkpt lat="44.844116704855615" lon="0.9113319187581082"><ele>69.8</ele><time>2026-05-01T07:17:01Z</time></trkpt><trkpt lat="44.84401812508973" lon="0.9112734069476929"><ele>70.60000000000001</ele><time>2026-05-01T07:17:02Z</time></trkpt><trkpt lat="44.843924126196036" lon="0.9112229339851768"><ele>71.4</ele><time>2026-05-01T07:17:03Z</time></trkpt><trkpt lat="44.84381925805807" lon="0.911157383758942"><ele>72.2</ele><time>2026-05-01T07:17:04Z</time></trkpt><trkpt lat="44.843706229694206" lon="0.9110997962015353"><ele>73.0</ele><time>2026-05-01T07:17:05Z</time></trkpt><trkpt lat="44.84359297971215" lon="0.9110408704675325"><ele>73.0</ele><time>2026-05-01T07:17:06Z</time></trkpt><trkpt lat="44.84347740643982" lon="0.9109750274843408"><ele>73.0</ele><time>2026-05-01T07:17:07Z</time></trkpt><trkpt lat="44.84339263452982" lon="0.9109155556982989"><ele>73.0</ele><time>2026-05-01T07:17:08Z</time></trkpt><trkpt lat="44.84332062946514" lon="0.9108671635754928"><ele>73.0</ele><time>2026-05-01T07:17:09Z</time></trkpt><trkpt lat="44.84322853586204" lon="0.9108129295090012"><ele>73.0</ele><time>2026-05-01T07:17:10Z</time></trkpt><trkpt lat="44.84313842285167" lon="0.9109047688955874"><ele>74.0</ele><time>2026-05-01T07:17:12Z</time></trkpt><trkpt lat="44.84310985049344" lon="0.9111231636118613"><ele>75.0</ele><time>2026-05-01T07:17:14Z</time></trkpt><trkpt lat="44.843094184328244" lon="0.9112459543156965"><ele>76.0</ele><time>2026-05-01T07:17:15Z</time></trkpt><trkpt lat="44.843078604009975" lon="0.9113792155864303"><ele>77.0</ele><time>2026-05-01T07:17:16Z</time></trkpt><trkpt lat="44.84303641794832" lon="0.9115027736572449"><ele>78.0</ele><time>2026-05-01T07:17:17Z</time></trkpt><trkpt lat="44.84302127759748" lon="0.9116629453894537"><ele>77.75</ele><time>2026-05-01T07:17:18Z</time></trkpt><trkpt lat="44.842992634850184" lon="0.9118154715764"><ele>77.5</ele><time>2026-05-01T07:17:19Z</time></trkpt><trkpt lat="44.84295922494381" lon="0.9119573667993662"><ele>77.25</ele><time>2026-05-01T07:17:20Z</time></trkpt><trkpt lat="44.84291742545867" lon="0.9121189247246079"><ele>77.0</ele><time>2026-05-01T07:17:21Z</time></trkpt><trkpt lat="44.842859656263386" lon="0.912280425890265"><ele>77.0</ele><time>2026-05-01T07:17:22Z</time></trkpt><trkpt lat="44.84278208533241" lon="0.9124411638794572"><ele>77.0</ele><time>2026-05-01T07:17:23Z</time></trkpt><trkpt lat="44.842699696924235" lon="0.9125917377456328"><ele>77.0</ele><time>2026-05-01T07:17:24Z</time></trkpt><trkpt lat="44.84261394611938" lon="0.9127487340110095"><ele>77.0</ele><time>2026-05-01T07:17:25Z</time></trkpt><trkpt lat="44.842529460750114" lon="0.9129234952665787"><ele>77.66666666666667</ele><time>2026-05-01T07:17:26Z</time></trkpt><trkpt lat="44.84243637266744" lon="0.9131081091662452"><ele>78.33333333333333</ele><time>2026-05-01T07:17:27Z</time></trkpt><trkpt lat="44.84230867925957" lon="0.9133284721006564"><ele>79.0</ele><time>2026-05-01T07:17:28Z</time></trkpt><trkpt lat="44.84216904449902" lon="0.9135601784135726"><ele>79.0</ele><time>2026-05-01T07:17:29Z</time></trkpt><trkpt lat="44.84213406160312" lon="0.9136783228605899"><ele>79.0</ele><time>2026-05-01T07:17:30Z</time></trkpt><trkpt lat="44.8420437091263" lon="0.9138736768898046"><ele>79.0</ele><time>2026-05-01T07:17:31Z</time></trkpt><trkpt lat="44.84194289072742" lon="0.9140542876548333"><ele>79.0</ele><time>2026-05-01T07:17:32Z</time></trkpt><trkpt lat="44.84184432010549" lon="0.9142382525926309"><ele>80.33333333333333</ele><time>2026-05-01T07:17:33Z</time></trkpt><trkpt lat="44.84174722957638" lon="0.9144295881263147"><ele>81.66666666666667</ele><time>2026-05-01T07:17:34Z</time></trkpt><trkpt lat="44.84165608201938" lon="0.9146213426964168"><ele>83.0</ele><time>2026-05-01T07:17:35Z</time></trkpt><trkpt lat="44.84155902661511" lon="0.9148065797692729"><ele>83.0</ele><time>2026-05-01T07:17:36Z</time></trkpt><trkpt lat="44.84145359868326" lon="0.9150048078625717"><ele>83.0</ele><time>2026-05-01T07:17:37Z</time></trkpt><trkpt lat="44.84134441514981" lon="0.9152167803698809"><ele>83.0</ele><time>2026-05-01T07:17:38Z</time></trkpt><trkpt lat="44.841244314626586" lon="0.9154079844106349"><ele>83.33333333333334</ele><time>2026-05-01T07:17:39Z</time></trkpt><trkpt lat="44.84114801403806" lon="0.9155862927116966"><ele>83.66666666666667</ele><time>2026-05-01T07:17:40Z</time></trkpt><trkpt lat="44.84105675481293" lon="0.9157797708173261"><ele>84.0</ele><time>2026-05-01T07:17:41Z</time></trkpt><trkpt lat="44.840966478765274" lon="0.9159697660820815"><ele>82.75</ele><time>2026-05-01T07:17:42Z</time></trkpt><trkpt lat="44.84088971966149" lon="0.9161595392696704"><ele>81.5</ele><time>2026-05-01T07:17:43Z</time></trkpt><trkpt lat="44.84082391718386" lon="0.916339151560615"><ele>80.25</ele><time>2026-05-01T07:17:44Z</time></trkpt><trkpt lat="44.840756091630894" lon="0.9164967666883874"><ele>79.0</ele><time>2026-05-01T07:17:45Z</time></trkpt><trkpt lat="44.84068939479734" lon="0.9166476793743743"><ele>77.75</ele><time>2026-05-01T07:17:46Z</time></trkpt><trkpt lat="44.84062947867623" lon="0.9167872589424125"><ele>76.5</ele><time>2026-05-01T07:17:47Z</time></trkpt><trkpt lat="44.84055427640663" lon="0.916872309810443"><ele>75.25</ele><time>2026-05-01T07:17:48Z</time></trkpt><trkpt lat="44.84050328838212" lon="0.9170330569529066"><ele>74.0</ele><time>2026-05-01T07:17:49Z</time></trkpt><trkpt lat="44.84054193225664" lon="0.9172298810709416"><ele>74.0</ele><time>2026-05-01T07:17:50Z</time></trkpt><trkpt lat="44.840476805270136" lon="0.9173965122022174"><ele>74.0</ele><time>2026-05-01T07:17:51Z</time></trkpt><trkpt lat="44.84043848432741" lon="0.9175323159658829"><ele>74.0</ele><time>2026-05-01T07:17:52Z</time></trkpt><trkpt lat="44.84038304959003" lon="0.9176342830897701"><ele>74.0</ele><time>2026-05-01T07:17:53Z</time></trkpt><trkpt lat="44.840279803238786" lon="0.9176534741930871"><ele>74.0</ele><time>2026-05-01T07:17:54Z</time></trkpt><trkpt lat="44.84016532647999" lon="0.9176831036330895"><ele>72.5</ele><time>2026-05-01T07:17:55Z</time></trkpt><trkpt lat="44.84002865558764" lon="0.9177675086129691"><ele>71.0</ele><time>2026-05-01T07:17:56Z</time></trkpt><trkpt lat="44.83990727121904" lon="0.9178595463666274"><ele>69.5</ele><time>2026-05-01T07:17:57Z</time></trkpt><trkpt lat="44.83980048291251" lon="0.9179522784102638"><ele>68.0</ele><time>2026-05-01T07:17:58Z</time></trkpt><trkpt lat="44.83970760826877" lon="0.9180444390063266"><ele>68.0</ele><time>2026-05-01T07:17:59Z</time></trkpt><trkpt lat="44.839629317534055" lon="0.9181542658431454"><ele>68.0</ele><time>2026-05-01T07:18:00Z</time></trkpt><trkpt lat="44.83956605439273" lon="0.9182725385950142"><ele>68.0</ele><time>2026-05-01T07:18:01Z</time></trkpt><trkpt lat="44.839477386150314" lon="0.9185061617232056"><ele>68.0</ele><time>2026-05-01T07:18:03Z</time></trkpt><trkpt lat="44.83945884176696" lon="0.9186704311736519"><ele>69.4</ele><time>2026-05-01T07:18:04Z</time></trkpt><trkpt lat="44.839460116842666" lon="0.9188168831620946"><ele>70.8</ele><time>2026-05-01T07:18:05Z</time></trkpt><trkpt lat="44.839485254160074" lon="0.918968476797079"><ele>72.2</ele><time>2026-05-01T07:18:06Z</time></trkpt><trkpt lat="44.839497471659016" lon="0.919102108003867"><ele>73.6</ele><time>2026-05-01T07:18:07Z</time></trkpt><trkpt lat="44.83953215715583" lon="0.9191929496422587"><ele>75.0</ele><time>2026-05-01T07:18:08Z</time></trkpt><trkpt lat="44.83944768832146" lon="0.9192329880553919"><ele>75.0</ele><time>2026-05-01T07:18:11Z</time></trkpt><trkpt lat="44.8393545564271" lon="0.9192056194845537"><ele>75.0</ele><time>2026-05-01T07:18:12Z</time></trkpt><trkpt lat="44.83923504503498" lon="0.9191959580234189"><ele>75.0</ele><time>2026-05-01T07:18:13Z</time></trkpt><trkpt lat="44.8390962071385" lon="0.9192157906163251"><ele>75.0</ele><time>2026-05-01T07:18:14Z</time></trkpt><trkpt lat="44.8389563384598" lon="0.9192383285306871"><ele>80.0</ele><time>2026-05-01T07:18:15Z</time></trkpt><trkpt lat="44.83883173311767" lon="0.9192747786994839"><ele>85.0</ele><time>2026-05-01T07:18:16Z</time></trkpt><trkpt lat="44.83870430574344" lon="0.9193277483715416"><ele>90.0</ele><time>2026-05-01T07:18:17Z</time></trkpt><trkpt lat="44.8385958468951" lon="0.9193651951152597"><ele>95.0</ele><time>2026-05-01T07:18:18Z</time></trkpt><trkpt lat="44.83848846312857" lon="0.9194147618944221"><ele>93.0</ele><time>2026-05-01T07:18:19Z</time></trkpt><trkpt lat="44.83837623867658" lon="0.9194767742237588"><ele>91.0</ele><time>2026-05-01T07:18:20Z</time></trkpt><trkpt lat="44.83828248225468" lon="0.9195363247019008"><ele>89.0</ele><time>2026-05-01T07:18:21Z</time></trkpt><trkpt lat="44.83818044292152" lon="0.919607458890342"><ele>87.0</ele><time>2026-05-01T07:18:22Z</time></trkpt><trkpt lat="44.8380762560139" lon="0.919695885628779"><ele>87.0</ele><time>2026-05-01T07:18:23Z</time></trkpt><trkpt lat="44.837962311632886" lon="0.919776360969638"><ele>87.0</ele><time>2026-05-01T07:18:24Z</time></trkpt><trkpt lat="44.83787907306489" lon="0.9198447581215434"><ele>87.0</ele><time>2026-05-01T07:18:25Z</time></trkpt><trkpt lat="44.83781073297517" lon="0.9198798476604731"><ele>87.0</ele><time>2026-05-01T07:18:26Z</time></trkpt><trkpt lat="44.837716401592395" lon="0.9198738233124352"><ele>87.0</ele><time>2026-05-01T07:18:27Z</time></trkpt><trkpt lat="44.837646077885665" lon="0.9198830871505516"><ele>87.19999999999999</ele><time>2026-05-01T07:18:29Z</time></trkpt><trkpt lat="44.83763231655257" lon="0.9199756138294726"><ele>87.4</ele><time>2026-05-01T07:18:31Z</time></trkpt><trkpt lat="44.83755490583679" lon="0.9200938661132313"><ele>87.6</ele><time>2026-05-01T07:18:33Z</time></trkpt><trkpt lat="44.83750123160533" lon="0.9201871355799788"><ele>87.80000000000001</ele><time>2026-05-01T07:18:34Z</time></trkpt><trkpt lat="44.83743230010451" lon="0.9203135012736865"><ele>88.0</ele><time>2026-05-01T07:18:35Z</time></trkpt><trkpt lat="44.83736830526323" lon="0.920423985984901"><ele>88.0</ele><time>2026-05-01T07:18:36Z</time></trkpt><trkpt lat="44.83730418184172" lon="0.9205555785220303"><ele>88.0</ele><time>2026-05-01T07:18:37Z</time></trkpt><trkpt lat="44.8372379105323" lon="0.9207040733688419"><ele>88.0</ele><time>2026-05-01T07:18:38Z</time></trkpt><trkpt lat="44.83717800706292" lon="0.9208378799547366"><ele>88.0</ele><time>2026-05-01T07:18:39Z</time></trkpt><trkpt lat="44.8371215445811" lon="0.9209607057669185"><ele>87.16666666666666</ele><time>2026-05-01T07:18:40Z</time></trkpt><trkpt lat="44.83708025929113" lon="0.9210456553997503"><ele>86.33333333333333</ele><time>2026-05-01T07:18:41Z</time></trkpt><trkpt lat="44.83703096244767" lon="0.92111156546566"><ele>85.5</ele><time>2026-05-01T07:18:42Z</time></trkpt><trkpt lat="44.83699174623202" lon="0.921245769137869"><ele>84.66666666666667</ele><time>2026-05-01T07:18:44Z</time></trkpt><trkpt lat="44.83694129875695" lon="0.9213140724169991"><ele>83.83333333333334</ele><time>2026-05-01T07:18:57Z</time></trkpt><trkpt lat="44.8368994129759" lon="0.9213895665282568"><ele>83.0</ele><time>2026-05-01T07:18:59Z</time></trkpt><trkpt lat="44.83677835956099" lon="0.9214320270346941"><ele>83.0</ele><time>2026-05-01T07:19:01Z</time></trkpt><trkpt lat="44.83668879438668" lon="0.9213896665420256"><ele>83.0</ele><time>2026-05-01T07:19:02Z</time></trkpt><trkpt lat="44.8365940759448" lon="0.9213679304114252"><ele>83.0</ele><time>2026-05-01T07:19:03Z</time></trkpt><trkpt lat="44.83650817026136" lon="0.9213424089704199"><ele>83.0</ele><time>2026-05-01T07:19:04Z</time></trkpt><trkpt lat="44.83644884959761" lon="0.9213079385342723"><ele>83.0</ele><time>2026-05-01T07:19:05Z</time></trkpt><trkpt lat="44.83635656616585" lon="0.9212272927499222"><ele>83.0</ele><time>2026-05-01T07:19:07Z</time></trkpt><trkpt lat="44.836282429529554" lon="0.9212113298503862"><ele>83.0</ele><time>2026-05-01T07:19:08Z</time></trkpt><trkpt lat="44.83620214700592" lon="0.9212016622602819"><ele>83.0</ele><time>2026-05-01T07:19:09Z</time></trkpt><trkpt lat="44.83611246727547" lon="0.9211653329787609"><ele>83.0</ele><time>2026-05-01T07:19:10Z</time></trkpt><trkpt lat="44.83603811254777" lon="0.9211432364552098"><ele>83.0</ele><time>2026-05-01T07:19:11Z</time></trkpt><trkpt lat="44.83592431816434" lon="0.9211553266461993"><ele>83.0</ele><time>2026-05-01T07:19:12Z</time></trkpt><trkpt lat="44.835800092437594" lon="0.9211731946678475"><ele>83.80000000000001</ele><time>2026-05-01T07:19:13Z</time></trkpt><trkpt lat="44.83570247092449" lon="0.9211820032746466"><ele>84.6</ele><time>2026-05-01T07:19:14Z</time></trkpt><trkpt lat="44.83559007977058" lon="0.9211766027756371"><ele>85.4</ele><time>2026-05-01T07:19:15Z</time></trkpt><trkpt lat="44.83548484510918" lon="0.9211471363102879"><ele>86.19999999999999</ele><time>2026-05-01T07:19:16Z</time></trkpt><trkpt lat="44.83536095612701" lon="0.9211076122832969"><ele>87.0</ele><time>2026-05-01T07:19:17Z</time></trkpt><trkpt lat="44.83525889629188" lon="0.9210615623488957"><ele>87.0</ele><time>2026-05-01T07:19:18Z</time></trkpt><trkpt lat="44.835178341689165" lon="0.9210153728379422"><ele>87.0</ele><time>2026-05-01T07:19:19Z</time></trkpt><trkpt lat="44.83510733846444" lon="0.9209513433952574"><ele>87.0</ele><time>2026-05-01T07:19:20Z</time></trkpt><trkpt lat="44.835040520859735" lon="0.9208803230027335"><ele>87.0</ele><time>2026-05-01T07:19:21Z</time></trkpt><trkpt lat="44.834931275591785" lon="0.9208393125463852"><ele>87.0</ele><time>2026-05-01T07:19:23Z</time></trkpt><trkpt lat="44.83487749450372" lon="0.9209175057282732"><ele>87.0</ele><time>2026-05-01T07:19:25Z</time></trkpt><trkpt lat="44.834804895964666" lon="0.9209507980688209"><ele>87.5</ele><time>2026-05-01T07:19:27Z</time></trkpt><trkpt lat="44.834678292203655" lon="0.9210302271590807"><ele>88.0</ele><time>2026-05-01T07:19:29Z</time></trkpt><trkpt lat="44.83459249195494" lon="0.9210892565322624"><ele>88.5</ele><time>2026-05-01T07:19:30Z</time></trkpt><trkpt lat="44.834492370883204" lon="0.9211473432666326"><ele>89.0</ele><time>2026-05-01T07:19:31Z</time></trkpt><trkpt lat="44.834385575896604" lon="0.9211696971058877"><ele>90.4</ele><time>2026-05-01T07:19:32Z</time></trkpt><trkpt lat="44.83427485847569" lon="0.921196602153517"><ele>91.80000000000001</ele><time>2026-05-01T07:19:33Z</time></trkpt><trkpt lat="44.83419639767206" lon="0.921234635526744"><ele>93.19999999999999</ele><time>2026-05-01T07:19:34Z</time></trkpt><trkpt lat="44.834079700007464" lon="0.9212690434287666"><ele>94.6</ele><time>2026-05-01T07:19:35Z</time></trkpt><trkpt lat="44.833994267923366" lon="0.9212996454684582"><ele>96.0</ele><time>2026-05-01T07:19:36Z</time></trkpt><trkpt lat="44.83392942733519" lon="0.9212920759179088"><ele>96.0</ele><time>2026-05-01T07:19:37Z</time></trkpt><trkpt lat="44.83385254855271" lon="0.9212732758913164"><ele>96.0</ele><time>2026-05-01T07:19:38Z</time></trkpt><trkpt lat="44.8337719367579" lon="0.9212337469421997"><ele>96.0</ele><time>2026-05-01T07:19:39Z</time></trkpt><trkpt lat="44.83369350618721" lon="0.9212281294661744"><ele>96.0</ele><time>2026-05-01T07:19:40Z</time></trkpt><trkpt lat="44.833592713045164" lon="0.9213638873783503"><ele>96.0</ele><time>2026-05-01T07:19:42Z</time></trkpt><trkpt lat="44.83356429955083" lon="0.9214765614182048"><ele>96.0</ele><time>2026-05-01T07:19:43Z</time></trkpt><trkpt lat="44.83350873995464" lon="0.9215897475061318"><ele>96.0</ele><time>2026-05-01T07:19:45Z</time></trkpt><trkpt lat="44.83338524415373" lon="0.9215403695179009"><ele>96.0</ele><time>2026-05-01T07:19:47Z</time></trkpt><trkpt lat="44.83331417084826" lon="0.9214926937677649"><ele>96.0</ele><time>2026-05-01T07:19:48Z</time></trkpt><trkpt lat="44.83322133854786" lon="0.9214644419593232"><ele>96.0</ele><time>2026-05-01T07:19:50Z</time></trkpt><trkpt lat="44.83312370496059" lon="0.9214374547794948"><ele>96.8</ele><time>2026-05-01T07:19:51Z</time></trkpt><trkpt lat="44.83301821541994" lon="0.9213532485925633"><ele>97.6</ele><time>2026-05-01T07:19:52Z</time></trkpt><trkpt lat="44.83291165167736" lon="0.921280642703703"><ele>98.4</ele><time>2026-05-01T07:19:53Z</time></trkpt><trkpt lat="44.83280314326002" lon="0.9212389395083017"><ele>99.2</ele><time>2026-05-01T07:19:54Z</time></trkpt><trkpt lat="44.832715797314464" lon="0.9212004297789781"><ele>100.0</ele><time>2026-05-01T07:19:55Z</time></trkpt><trkpt lat="44.83263412291868" lon="0.92117178501714"><ele>100.83333333333334</ele><time>2026-05-01T07:19:57Z</time></trkpt><trkpt lat="44.83260897023484" lon="0.9212571185781362"><ele>101.66666666666667</ele><time>2026-05-01T07:19:59Z</time></trkpt><trkpt lat="44.83256536727743" lon="0.921331959375422"><ele>102.5</ele><time>2026-05-01T07:20:00Z</time></trkpt><trkpt lat="44.83252435899139" lon="0.9214157405568328"><ele>103.33333333333334</ele><time>2026-05-01T07:20:02Z</time></trkpt><trkpt lat="44.83249438055022" lon="0.9215198313910575"><ele>104.16666666666667</ele><time>2026-05-01T07:20:03Z</time></trkpt><trkpt lat="44.83243419490429" lon="0.9216305748727476"><ele>105.0</ele><time>2026-05-01T07:20:04Z</time></trkpt><trkpt lat="44.8323578164474" lon="0.9217580485408301"><ele>105.25</ele><time>2026-05-01T07:20:05Z</time></trkpt><trkpt lat="44.83224974328462" lon="0.9218846503084009"><ele>105.5</ele><time>2026-05-01T07:20:06Z</time></trkpt><trkpt lat="44.83213008252388" lon="0.9219975348977505"><ele>105.75</ele><time>2026-05-01T07:20:07Z</time></trkpt><trkpt lat="44.832012447507694" lon="0.9221152764919646"><ele>106.0</ele><time>2026-05-01T07:20:08Z</time></trkpt><trkpt lat="44.831891376980806" lon="0.9222344993948867"><ele>105.0</ele><time>2026-05-01T07:20:09Z</time></trkpt><trkpt lat="44.83177632525541" lon="0.922364116038122"><ele>104.0</ele><time>2026-05-01T07:20:10Z</time></trkpt><trkpt lat="44.8316561487232" lon="0.9224981520773223"><ele>103.0</ele><time>2026-05-01T07:20:11Z</time></trkpt><trkpt lat="44.83153625270493" lon="0.9226300983971059"><ele>102.33333333333334</ele><time>2026-05-01T07:20:12Z</time></trkpt><trkpt lat="44.83141800210791" lon="0.9227640182569221"><ele>101.66666666666666</ele><time>2026-05-01T07:20:13Z</time></trkpt><trkpt lat="44.83130274604832" lon="0.922897548012309"><ele>101.0</ele><time>2026-05-01T07:20:14Z</time></trkpt><trkpt lat="44.831184211559275" lon="0.9230349349016863"><ele>101.0</ele><time>2026-05-01T07:20:15Z</time></trkpt><trkpt lat="44.831065537646616" lon="0.9231739739808444"><ele>101.0</ele><time>2026-05-01T07:20:16Z</time></trkpt><trkpt lat="44.83095235543355" lon="0.9233100214037692"><ele>101.0</ele><time>2026-05-01T07:20:17Z</time></trkpt><trkpt lat="44.83084127067062" lon="0.9234406244151682"><ele>101.0</ele><time>2026-05-01T07:20:18Z</time></trkpt><trkpt lat="44.830736101119996" lon="0.9235620860516972"><ele>102.5</ele><time>2026-05-01T07:20:19Z</time></trkpt><trkpt lat="44.83060687392793" lon="0.9236555247661825"><ele>104.0</ele><time>2026-05-01T07:20:20Z</time></trkpt><trkpt lat="44.83050249045688" lon="0.9237752333566076"><ele>105.5</ele><time>2026-05-01T07:20:21Z</time></trkpt><trkpt lat="44.830402323649004" lon="0.9238935178723181"><ele>107.0</ele><time>2026-05-01T07:20:22Z</time></trkpt><trkpt lat="44.83034030484568" lon="0.9240045438757585"><ele>107.0</ele><time>2026-05-01T07:20:23Z</time></trkpt><trkpt lat="44.830273457950696" lon="0.9240943598836951"><ele>107.0</ele><time>2026-05-01T07:20:25Z</time></trkpt><trkpt lat="44.83040222340091" lon="0.9243079994280136"><ele>107.0</ele><time>2026-05-01T07:20:27Z</time></trkpt><trkpt lat="44.83050191026423" lon="0.9244033212161628"><ele>107.0</ele><time>2026-05-01T07:20:28Z</time></trkpt><trkpt lat="44.830611649661435" lon="0.9245042438355972"><ele>107.0</ele><time>2026-05-01T07:20:29Z</time></trkpt><trkpt lat="44.83072015553984" lon="0.9245994198644024"><ele>107.0</ele><time>2026-05-01T07:20:30Z</time></trkpt><trkpt lat="44.83082665286112" lon="0.9246916411797583"><ele>107.0</ele><time>2026-05-01T07:20:31Z</time></trkpt><trkpt lat="44.8309312723379" lon="0.9247839069427378"><ele>107.0</ele><time>2026-05-01T07:20:32Z</time></trkpt><trkpt lat="44.83102925499274" lon="0.9248593958292358"><ele>107.0</ele><time>2026-05-01T07:20:33Z</time></trkpt><trkpt lat="44.831128489133754" lon="0.9249443327012395"><ele>107.0</ele><time>2026-05-01T07:20:34Z</time></trkpt><trkpt lat="44.831227832724245" lon="0.9250414954887461"><ele>107.0</ele><time>2026-05-01T07:20:35Z</time></trkpt><trkpt lat="44.83132083454558" lon="0.9251367598632382"><ele>107.0</ele><time>2026-05-01T07:20:35.999Z</time></trkpt><trkpt lat="44.83141269651223" lon="0.9252229269855422"><ele>107.19999999999999</ele><time>2026-05-01T07:20:36.999Z</time></trkpt><trkpt lat="44.83149029712532" lon="0.9253221716578779"><ele>107.39999999999999</ele><time>2026-05-01T07:20:37.999Z</time></trkpt><trkpt lat="44.83156129035567" lon="0.9253918297685195"><ele>107.60000000000001</ele><time>2026-05-01T07:20:38.999Z</time></trkpt><trkpt lat="44.83163926104205" lon="0.9254432410789399"><ele>107.80000000000001</ele><time>2026-05-01T07:20:40Z</time></trkpt><trkpt lat="44.831690143235534" lon="0.9255352954399783"><ele>108.0</ele><time>2026-05-01T07:20:41Z</time></trkpt><trkpt lat="44.83174123459371" lon="0.9256440637037783"><ele>108.0</ele><time>2026-05-01T07:20:42Z</time></trkpt><trkpt lat="44.83177682979454" lon="0.9257480737057249"><ele>108.0</ele><time>2026-05-01T07:20:43Z</time></trkpt><trkpt lat="44.83182524296115" lon="0.9258529337396917"><ele>108.0</ele><time>2026-05-01T07:20:44Z</time></trkpt><trkpt lat="44.83185866747511" lon="0.925935124606852"><ele>108.0</ele><time>2026-05-01T07:20:45Z</time></trkpt><trkpt lat="44.8319330234025" lon="0.9260273542940537"><ele>108.0</ele><time>2026-05-01T07:20:47Z</time></trkpt><trkpt lat="44.83201785224066" lon="0.9260422401859953"><ele>108.0</ele><time>2026-05-01T07:20:48Z</time></trkpt><trkpt lat="44.83211424396358" lon="0.9260737781529"><ele>105.5</ele><time>2026-05-01T07:20:49Z</time></trkpt><trkpt lat="44.83224507896367" lon="0.9261284117001399"><ele>103.0</ele><time>2026-05-01T07:20:50Z</time></trkpt><trkpt lat="44.83237875823055" lon="0.9261770283547204"><ele>100.5</ele><time>2026-05-01T07:20:51Z</time></trkpt><trkpt lat="44.83251235154363" lon="0.9262225623198157"><ele>98.0</ele><time>2026-05-01T07:20:52Z</time></trkpt><trkpt lat="44.832628825910874" lon="0.9262651217435688"><ele>96.75</ele><time>2026-05-01T07:20:53Z</time></trkpt><trkpt lat="44.83276684391616" lon="0.9263083670538593"><ele>95.5</ele><time>2026-05-01T07:20:54Z</time></trkpt><trkpt lat="44.83288594662776" lon="0.9263467551885036"><ele>94.25</ele><time>2026-05-01T07:20:55Z</time></trkpt><trkpt lat="44.833012309591346" lon="0.9264051025242771"><ele>93.0</ele><time>2026-05-01T07:20:56Z</time></trkpt><trkpt lat="44.833134279710116" lon="0.9264685748525362"><ele>93.0</ele><time>2026-05-01T07:20:57Z</time></trkpt><trkpt lat="44.833243732214825" lon="0.9265026519329204"><ele>93.0</ele><time>2026-05-01T07:20:58Z</time></trkpt><trkpt lat="44.833346680191184" lon="0.9265343045064637"><ele>93.0</ele><time>2026-05-01T07:20:59Z</time></trkpt><trkpt lat="44.83343957862947" lon="0.9265722643338951"><ele>93.0</ele><time>2026-05-01T07:21:00Z</time></trkpt><trkpt lat="44.833510156087044" lon="0.926618450623991"><ele>93.0</ele><time>2026-05-01T07:21:01Z</time></trkpt><trkpt lat="44.83356461705549" lon="0.9267220532305029"><ele>92.33333333333333</ele><time>2026-05-01T07:21:02Z</time></trkpt><trkpt lat="44.833631570076335" lon="0.9267673774236344"><ele>91.66666666666667</ele><time>2026-05-01T07:21:03Z</time></trkpt><trkpt lat="44.833688073159706" lon="0.9268384767557687"><ele>91.0</ele><time>2026-05-01T07:21:04Z</time></trkpt><trkpt lat="44.83374739755818" lon="0.9269171228917776"><ele>90.33333333333334</ele><time>2026-05-01T07:21:05Z</time></trkpt><trkpt lat="44.83380001272596" lon="0.9269874135745926"><ele>89.66666666666667</ele><time>2026-05-01T07:21:07Z</time></trkpt><trkpt lat="44.83377375128806" lon="0.927089557259497"><ele>89.0</ele><time>2026-05-01T07:21:10Z</time></trkpt><trkpt lat="44.833676118672045" lon="0.9271601475622795"><ele>89.0</ele><time>2026-05-01T07:21:12Z</time></trkpt><trkpt lat="44.833572408083874" lon="0.9271899450149109"><ele>89.0</ele><time>2026-05-01T07:21:14Z</time></trkpt><trkpt lat="44.83348638608017" lon="0.9272314869464989"><ele>89.0</ele><time>2026-05-01T07:21:16Z</time></trkpt><trkpt lat="44.83346855346503" lon="0.9273384060089326"><ele>89.0</ele><time>2026-05-01T07:21:17Z</time></trkpt><trkpt lat="44.833464992754564" lon="0.9274686573845218"><ele>89.0</ele><time>2026-05-01T07:21:18Z</time></trkpt><trkpt lat="44.833452396968205" lon="0.9275960939220054"><ele>89.33333333333334</ele><time>2026-05-01T07:21:19Z</time></trkpt><trkpt lat="44.83343023363133" lon="0.9277319337604828"><ele>89.66666666666667</ele><time>2026-05-01T07:21:20Z</time></trkpt><trkpt lat="44.83341284799804" lon="0.9278421479434955"><ele>90.0</ele><time>2026-05-01T07:21:21Z</time></trkpt><trkpt lat="44.83339084505437" lon="0.9279563581021154"><ele>90.33333333333333</ele><time>2026-05-01T07:21:22Z</time></trkpt><trkpt lat="44.83337614068474" lon="0.9280569776028279"><ele>90.66666666666666</ele><time>2026-05-01T07:21:23Z</time></trkpt><trkpt lat="44.83329118699598" lon="0.9281158677684299"><ele>91.0</ele><time>2026-05-01T07:21:25Z</time></trkpt><trkpt lat="44.83316451775716" lon="0.9281042065258552"><ele>91.0</ele><time>2026-05-01T07:21:27Z</time></trkpt><trkpt lat="44.83306950731551" lon="0.9281068159250979"><ele>91.0</ele><time>2026-05-01T07:21:28Z</time></trkpt><trkpt lat="44.832987164189326" lon="0.9281193143095323"><ele>91.0</ele><time>2026-05-01T07:21:29Z</time></trkpt><trkpt lat="44.83288597520876" lon="0.9281427907318028"><ele>91.0</ele><time>2026-05-01T07:21:30Z</time></trkpt><trkpt lat="44.832783759021254" lon="0.9281798128434553"><ele>91.0</ele><time>2026-05-01T07:21:31Z</time></trkpt><trkpt lat="44.83266553691243" lon="0.9282164273117469"><ele>92.5</ele><time>2026-05-01T07:21:32Z</time></trkpt><trkpt lat="44.83255070202417" lon="0.9282603170900272"><ele>94.0</ele><time>2026-05-01T07:21:33Z</time></trkpt><trkpt lat="44.83243388310385" lon="0.9283235412410799"><ele>95.5</ele><time>2026-05-01T07:21:34Z</time></trkpt><trkpt lat="44.83232377296921" lon="0.9283811977495464"><ele>97.0</ele><time>2026-05-01T07:21:35Z</time></trkpt><trkpt lat="44.83221887323171" lon="0.9284341317626439"><ele>97.6</ele><time>2026-05-01T07:21:36Z</time></trkpt><trkpt lat="44.83210265994492" lon="0.9284811156132559"><ele>98.19999999999999</ele><time>2026-05-01T07:21:37Z</time></trkpt><trkpt lat="44.83200265142728" lon="0.9285188067939367"><ele>98.8</ele><time>2026-05-01T07:21:38Z</time></trkpt><trkpt lat="44.831904968627214" lon="0.9285368287448088"><ele>99.4</ele><time>2026-05-01T07:21:39Z</time></trkpt><trkpt lat="44.831827850136804" lon="0.9285329224374566"><ele>100.0</ele><time>2026-05-01T07:21:40Z</time></trkpt><trkpt lat="44.831755328295614" lon="0.9285388668735498"><ele>100.2</ele><time>2026-05-01T07:21:41Z</time></trkpt><trkpt lat="44.831657870262354" lon="0.9285191491775696"><ele>100.4</ele><time>2026-05-01T07:21:42Z</time></trkpt><trkpt lat="44.831568317994446" lon="0.9284369772760181"><ele>100.6</ele><time>2026-05-01T07:21:43Z</time></trkpt><trkpt lat="44.83144676637028" lon="0.9284015495208443"><ele>100.8</ele><time>2026-05-01T07:21:44Z</time></trkpt><trkpt lat="44.831334460776674" lon="0.9283740183815046"><ele>101.0</ele><time>2026-05-01T07:21:45Z</time></trkpt><trkpt lat="44.831256530513045" lon="0.9283605330749948"><ele>100.99999999999999</ele><time>2026-05-01T07:21:46Z</time></trkpt><trkpt lat="44.83118548070337" lon="0.9283545604131074"><ele>101.0</ele><time>2026-05-01T07:21:47Z</time></trkpt><trkpt lat="44.831108797886586" lon="0.9283321169398824"><ele>101.0</ele><time>2026-05-01T07:21:48Z</time></trkpt><trkpt lat="44.83101206832958" lon="0.9283350612402358"><ele>101.0</ele><time>2026-05-01T07:21:49Z</time></trkpt><trkpt lat="44.83092706171615" lon="0.9283287863224822"><ele>100.99999999999999</ele><time>2026-05-01T07:21:50Z</time></trkpt><trkpt lat="44.830846072671655" lon="0.9283216232280557"><ele>101.0</ele><time>2026-05-01T07:21:51Z</time></trkpt><trkpt lat="44.830767841452605" lon="0.9283122885558848"><ele>101.19999999999999</ele><time>2026-05-01T07:21:52Z</time></trkpt><trkpt lat="44.83066403755495" lon="0.9282702917299673"><ele>101.39999999999999</ele><time>2026-05-01T07:21:54Z</time></trkpt><trkpt lat="44.83054189482975" lon="0.9282315116859644"><ele>101.6</ele><time>2026-05-01T07:21:56Z</time></trkpt><trkpt lat="44.830409426119616" lon="0.9282019222227547"><ele>101.8</ele><time>2026-05-01T07:21:58Z</time></trkpt><trkpt lat="44.8303301006457" lon="0.9281944517630243"><ele>102.0</ele><time>2026-05-01T07:21:59Z</time></trkpt><trkpt lat="44.83024597984592" lon="0.9281740416707811"><ele>102.0</ele><time>2026-05-01T07:22:00Z</time></trkpt><trkpt lat="44.83015453558869" lon="0.9281407741196072"><ele>102.0</ele><time>2026-05-01T07:22:01Z</time></trkpt><trkpt lat="44.83005749456136" lon="0.9281016310423652"><ele>102.0</ele><time>2026-05-01T07:22:02Z</time></trkpt><trkpt lat="44.829960306168886" lon="0.9280649092447261"><ele>102.0</ele><time>2026-05-01T07:22:03Z</time></trkpt><trkpt lat="44.82986916580415" lon="0.9280343153733671"><ele>102.0</ele><time>2026-05-01T07:22:04Z</time></trkpt><trkpt lat="44.82979153333868" lon="0.9280072417272806"><ele>102.83333333333333</ele><time>2026-05-01T07:22:05Z</time></trkpt><trkpt lat="44.82971809391017" lon="0.9279870854187906"><ele>103.66666666666666</ele><time>2026-05-01T07:22:06Z</time></trkpt><trkpt lat="44.829637018389754" lon="0.9279753692149084"><ele>104.5</ele><time>2026-05-01T07:22:07Z</time></trkpt><trkpt lat="44.8295561194475" lon="0.9279687436807889"><ele>105.33333333333333</ele><time>2026-05-01T07:22:08Z</time></trkpt><trkpt lat="44.829476888976856" lon="0.9279737684171522"><ele>106.16666666666666</ele><time>2026-05-01T07:22:09Z</time></trkpt><trkpt lat="44.829394335561716" lon="0.9279958347974344"><ele>107.0</ele><time>2026-05-01T07:22:10Z</time></trkpt><trkpt lat="44.82930965423708" lon="0.9279985886167973"><ele>107.33333333333333</ele><time>2026-05-01T07:22:11Z</time></trkpt><trkpt lat="44.82923286995071" lon="0.9280184027808538"><ele>107.66666666666666</ele><time>2026-05-01T07:22:12Z</time></trkpt><trkpt lat="44.829180053076264" lon="0.9280688792685237"><ele>108.0</ele><time>2026-05-01T07:22:13Z</time></trkpt><trkpt lat="44.82912187382206" lon="0.928142014853288"><ele>108.33333333333334</ele><time>2026-05-01T07:22:14Z</time></trkpt><trkpt lat="44.82906955931088" lon="0.928233291520465"><ele>108.66666666666667</ele><time>2026-05-01T07:22:15Z</time></trkpt><trkpt lat="44.82903884829345" lon="0.9283322883294409"><ele>109.0</ele><time>2026-05-01T07:22:16Z</time></trkpt><trkpt lat="44.82900117808526" lon="0.92844770566797"><ele>109.66666666666667</ele><time>2026-05-01T07:22:17Z</time></trkpt><trkpt lat="44.82898254436499" lon="0.9285506971434955"><ele>110.33333333333334</ele><time>2026-05-01T07:22:18Z</time></trkpt><trkpt lat="44.828955296566015" lon="0.928688889187405"><ele>111.0</ele><time>2026-05-01T07:22:19Z</time></trkpt><trkpt lat="44.82892728493047" lon="0.9288054795519364"><ele>111.66666666666666</ele><time>2026-05-01T07:22:20Z</time></trkpt><trkpt lat="44.828892508379894" lon="0.9289028108773858"><ele>112.33333333333333</ele><time>2026-05-01T07:22:21Z</time></trkpt><trkpt lat="44.82884043739231" lon="0.9290004560022604"><ele>113.0</ele><time>2026-05-01T07:22:22Z</time></trkpt><trkpt lat="44.828779629739834" lon="0.929066097065314"><ele>113.0</ele><time>2026-05-01T07:22:23Z</time></trkpt><trkpt lat="44.828742239028045" lon="0.9291380269233638"><ele>113.00000000000001</ele><time>2026-05-01T07:22:24Z</time></trkpt><trkpt lat="44.828608491461296" lon="0.9291951237983684"><ele>113.00000000000001</ele><time>2026-05-01T07:22:26Z</time></trkpt><trkpt lat="44.82850318117834" lon="0.9292659274002182"><ele>113.0</ele><time>2026-05-01T07:22:27Z</time></trkpt><trkpt lat="44.82839973796955" lon="0.9293211460902974"><ele>113.0</ele><time>2026-05-01T07:22:28Z</time></trkpt><trkpt lat="44.82830881143149" lon="0.9293712524443922"><ele>114.0</ele><time>2026-05-01T07:22:29Z</time></trkpt><trkpt lat="44.828215604328534" lon="0.9294268045961988"><ele>115.00000000000001</ele><time>2026-05-01T07:22:30Z</time></trkpt><trkpt lat="44.82811326597489" lon="0.929486445580022"><ele>116.00000000000001</ele><time>2026-05-01T07:22:31Z</time></trkpt><trkpt lat="44.828019821830964" lon="0.9295396763180864"><ele>117.0</ele><time>2026-05-01T07:22:32Z</time></trkpt><trkpt lat="44.82795080648529" lon="0.9295789908061266"><ele>118.0</ele><time>2026-05-01T07:22:33Z</time></trkpt><trkpt lat="44.827883879317504" lon="0.929648948420221"><ele>118.0</ele><time>2026-05-01T07:22:34Z</time></trkpt><trkpt lat="44.82781368721814" lon="0.9297031314817537"><ele>118.00000000000001</ele><time>2026-05-01T07:22:35Z</time></trkpt><trkpt lat="44.827754961972246" lon="0.9297614414967181"><ele>118.00000000000001</ele><time>2026-05-01T07:22:36Z</time></trkpt><trkpt lat="44.82767316631341" lon="0.9297676360360015"><ele>118.0</ele><time>2026-05-01T07:22:37Z</time></trkpt><trkpt lat="44.82756473352757" lon="0.9297717114956019"><ele>118.0</ele><time>2026-05-01T07:22:38Z</time></trkpt><trkpt lat="44.8274502293348" lon="0.9297723021446026"><ele>118.25</ele><time>2026-05-01T07:22:39Z</time></trkpt><trkpt lat="44.827324827580625" lon="0.9297729923537962"><ele>118.5</ele><time>2026-05-01T07:22:40Z</time></trkpt><trkpt lat="44.82717842861944" lon="0.9297793536092775"><ele>118.75</ele><time>2026-05-01T07:22:41Z</time></trkpt><trkpt lat="44.8270223860891" lon="0.9297748354214124"><ele>119.0</ele><time>2026-05-01T07:22:42Z</time></trkpt><trkpt lat="44.826871269699154" lon="0.929764266310745"><ele>119.75</ele><time>2026-05-01T07:22:43Z</time></trkpt><trkpt lat="44.82672316559993" lon="0.9297445422916442"><ele>120.5</ele><time>2026-05-01T07:22:44Z</time></trkpt><trkpt lat="44.82658106653273" lon="0.9297130556369511"><ele>121.25</ele><time>2026-05-01T07:22:45Z</time></trkpt><trkpt lat="44.82643846441649" lon="0.9296845046251535"><ele>122.0</ele><time>2026-05-01T07:22:46Z</time></trkpt><trkpt lat="44.82630031398535" lon="0.9296438953583247"><ele>122.0</ele><time>2026-05-01T07:22:47Z</time></trkpt><trkpt lat="44.82615622960478" lon="0.9296257522022476"><ele>122.0</ele><time>2026-05-01T07:22:48Z</time></trkpt><trkpt lat="44.8260226230014" lon="0.9295989153922432"><ele>122.0</ele><time>2026-05-01T07:22:49Z</time></trkpt><trkpt lat="44.82589429425145" lon="0.9295628202963092"><ele>122.0</ele><time>2026-05-01T07:22:50Z</time></trkpt><trkpt lat="44.82577007860245" lon="0.9295150790880148"><ele>122.75</ele><time>2026-05-01T07:22:51Z</time></trkpt><trkpt lat="44.82565988132202" lon="0.9294614711406864"><ele>123.5</ele><time>2026-05-01T07:22:52Z</time></trkpt><trkpt lat="44.82555142577032" lon="0.9293957844745748"><ele>124.25</ele><time>2026-05-01T07:22:53Z</time></trkpt><trkpt lat="44.82544888275543" lon="0.9293172306109864"><ele>125.0</ele><time>2026-05-01T07:22:54Z</time></trkpt><trkpt lat="44.825358402853475" lon="0.9292222045236433"><ele>125.0</ele><time>2026-05-01T07:22:55Z</time></trkpt><trkpt lat="44.825281878559274" lon="0.9291157866994623"><ele>125.0</ele><time>2026-05-01T07:22:56Z</time></trkpt><trkpt lat="44.82520810820164" lon="0.929027177749167"><ele>125.0</ele><time>2026-05-01T07:22:57Z</time></trkpt><trkpt lat="44.82512761633089" lon="0.9289702178462222"><ele>125.0</ele><time>2026-05-01T07:22:58Z</time></trkpt><trkpt lat="44.82504265113663" lon="0.928924958834863"><ele>125.0</ele><time>2026-05-01T07:22:59Z</time></trkpt><trkpt lat="44.824970407153074" lon="0.9288971625230017"><ele>126.2</ele><time>2026-05-01T07:23:00Z</time></trkpt><trkpt lat="44.82488210121186" lon="0.9288498567280966"><ele>127.4</ele><time>2026-05-01T07:23:02Z</time></trkpt><trkpt lat="44.82478024373965" lon="0.9288913687649872"><ele>128.6</ele><time>2026-05-01T07:23:04Z</time></trkpt><trkpt lat="44.824675464142594" lon="0.9289990029940453"><ele>129.8</ele><time>2026-05-01T07:23:06Z</time></trkpt><trkpt lat="44.824614235725385" lon="0.929061698104026"><ele>131.0</ele><time>2026-05-01T07:23:07Z</time></trkpt><trkpt lat="44.82454504102652" lon="0.929114758482556"><ele>131.0</ele><time>2026-05-01T07:23:08Z</time></trkpt><trkpt lat="44.824474437918454" lon="0.9291864636809498"><ele>131.0</ele><time>2026-05-01T07:23:09Z</time></trkpt><trkpt lat="44.82440547107234" lon="0.9292791486500945"><ele>131.0</ele><time>2026-05-01T07:23:10Z</time></trkpt><trkpt lat="44.8243454974573" lon="0.9293930072675007"><ele>131.0</ele><time>2026-05-01T07:23:11Z</time></trkpt><trkpt lat="44.82429725744648" lon="0.929521412847789"><ele>131.0</ele><time>2026-05-01T07:23:12Z</time></trkpt><trkpt lat="44.82426284066974" lon="0.9296629604136046"><ele>130.8</ele><time>2026-05-01T07:23:13Z</time></trkpt><trkpt lat="44.824236254063436" lon="0.929794859636655"><ele>130.6</ele><time>2026-05-01T07:23:14Z</time></trkpt><trkpt lat="44.82420174327962" lon="0.9299131100134491"><ele>130.4</ele><time>2026-05-01T07:23:15Z</time></trkpt><trkpt lat="44.82415662967614" lon="0.9300339534287506"><ele>130.2</ele><time>2026-05-01T07:23:16Z</time></trkpt><trkpt lat="44.82410902797254" lon="0.9301566182774411"><ele>130.0</ele><time>2026-05-01T07:23:17Z</time></trkpt><trkpt lat="44.82405985467586" lon="0.9302812800040692"><ele>130.0</ele><time>2026-05-01T07:23:18Z</time></trkpt><trkpt lat="44.824018452812545" lon="0.9304034774796882"><ele>130.0</ele><time>2026-05-01T07:23:19Z</time></trkpt><trkpt lat="44.82398124805166" lon="0.930527497400658"><ele>130.0</ele><time>2026-05-01T07:23:20Z</time></trkpt><trkpt lat="44.82393863501448" lon="0.9306575743860088"><ele>130.0</ele><time>2026-05-01T07:23:21Z</time></trkpt><trkpt lat="44.823901546228754" lon="0.9308003968538616"><ele>130.0</ele><time>2026-05-01T07:23:22Z</time></trkpt><trkpt lat="44.823873951594685" lon="0.9309399558368591"><ele>130.0</ele><time>2026-05-01T07:23:23Z</time></trkpt><trkpt lat="44.823817656824616" lon="0.9310691240176171"><ele>130.0</ele><time>2026-05-01T07:23:24Z</time></trkpt><trkpt lat="44.82378761915029" lon="0.9311873557417069"><ele>130.0</ele><time>2026-05-01T07:23:25Z</time></trkpt><trkpt lat="44.82376336844545" lon="0.9312825637324242"><ele>130.0</ele><time>2026-05-01T07:23:26Z</time></trkpt><trkpt lat="44.82375378748476" lon="0.9313882763031895"><ele>130.0</ele><time>2026-05-01T07:23:27Z</time></trkpt><trkpt lat="44.82371710484723" lon="0.9314641940849021"><ele>130.0</ele><time>2026-05-01T07:23:28Z</time></trkpt><trkpt lat="44.82368820361016" lon="0.9315808461942995"><ele>130.0</ele><time>2026-05-01T07:23:30Z</time></trkpt><trkpt lat="44.82367681698464" lon="0.9316682388252595"><ele>130.0</ele><time>2026-05-01T07:23:32Z</time></trkpt><trkpt lat="44.82350988046395" lon="0.9317065723743769"><ele>130.0</ele><time>2026-05-01T07:23:35Z</time></trkpt><trkpt lat="44.82343534092714" lon="0.9317172252478026"><ele>130.0</ele><time>2026-05-01T07:23:36Z</time></trkpt><trkpt lat="44.82335899677923" lon="0.9317362506274476"><ele>130.0</ele><time>2026-05-01T07:23:37Z</time></trkpt><trkpt lat="44.82328411735291" lon="0.9317529323722009"><ele>131.5</ele><time>2026-05-01T07:23:38Z</time></trkpt><trkpt lat="44.82317555504455" lon="0.9318070659147614"><ele>133.0</ele><time>2026-05-01T07:23:40Z</time></trkpt><trkpt lat="44.82312711460666" lon="0.9318748890724616"><ele>134.5</ele><time>2026-05-01T07:23:41Z</time></trkpt><trkpt lat="44.823095250929114" lon="0.9319834225321362"><ele>136.0</ele><time>2026-05-01T07:23:42Z</time></trkpt><trkpt lat="44.8230571977423" lon="0.9320791152192364"><ele>137.5</ele><time>2026-05-01T07:23:43Z</time></trkpt><trkpt lat="44.82300002386379" lon="0.932192109046893"><ele>139.0</ele><time>2026-05-01T07:23:44Z</time></trkpt><trkpt lat="44.82292333000104" lon="0.9322844646935051"><ele>139.0</ele><time>2026-05-01T07:23:45Z</time></trkpt><trkpt lat="44.8228483720774" lon="0.9323991172383341"><ele>139.0</ele><time>2026-05-01T07:23:46Z</time></trkpt><trkpt lat="44.82277511788804" lon="0.9325262918459258"><ele>139.0</ele><time>2026-05-01T07:23:47Z</time></trkpt><trkpt lat="44.82271264666538" lon="0.932662321029988"><ele>139.0</ele><time>2026-05-01T07:23:48Z</time></trkpt><trkpt lat="44.82262937762864" lon="0.9327801840420468"><ele>139.75</ele><time>2026-05-01T07:23:49Z</time></trkpt><trkpt lat="44.82256555373341" lon="0.9329217769727653"><ele>140.5</ele><time>2026-05-01T07:23:50Z</time></trkpt><trkpt lat="44.82249575690139" lon="0.9330584257593258"><ele>141.25</ele><time>2026-05-01T07:23:51Z</time></trkpt><trkpt lat="44.822417542769024" lon="0.9331745435398348"><ele>142.0</ele><time>2026-05-01T07:23:52Z</time></trkpt><trkpt lat="44.82235713463162" lon="0.9333118614573467"><ele>142.2</ele><time>2026-05-01T07:23:53Z</time></trkpt><trkpt lat="44.82229233016706" lon="0.9334316647848"><ele>142.39999999999998</ele><time>2026-05-01T07:23:54Z</time></trkpt><trkpt lat="44.82223002617896" lon="0.9335575082767527"><ele>142.60000000000002</ele><time>2026-05-01T07:23:55Z</time></trkpt><trkpt lat="44.822157411518724" lon="0.9336751684045385"><ele>142.8</ele><time>2026-05-01T07:23:56Z</time></trkpt><trkpt lat="44.82208731184284" lon="0.9337977378045087"><ele>143.0</ele><time>2026-05-01T07:23:57Z</time></trkpt><trkpt lat="44.82201438268718" lon="0.9339286813472992"><ele>143.0</ele><time>2026-05-01T07:23:58Z</time></trkpt><trkpt lat="44.82194103020978" lon="0.9340618361490525"><ele>143.0</ele><time>2026-05-01T07:23:59Z</time></trkpt><trkpt lat="44.821876172185604" lon="0.9341969402903137"><ele>143.0</ele><time>2026-05-01T07:24:00Z</time></trkpt><trkpt lat="44.82180380510588" lon="0.9343250056661297"><ele>143.0</ele><time>2026-05-01T07:24:01Z</time></trkpt><trkpt lat="44.82174593228835" lon="0.9344520529972342"><ele>144.25</ele><time>2026-05-01T07:24:02Z</time></trkpt><trkpt lat="44.82168013324895" lon="0.9345840138628805"><ele>145.5</ele><time>2026-05-01T07:24:03Z</time></trkpt><trkpt lat="44.82160334552983" lon="0.9347120771232565"><ele>146.75</ele><time>2026-05-01T07:24:04Z</time></trkpt><trkpt lat="44.82151758456831" lon="0.9348450405408018"><ele>148.0</ele><time>2026-05-01T07:24:05Z</time></trkpt><trkpt lat="44.8214322990585" lon="0.9349774848841693"><ele>148.0</ele><time>2026-05-01T07:24:06Z</time></trkpt><trkpt lat="44.82135576351318" lon="0.9351007893106352"><ele>148.0</ele><time>2026-05-01T07:24:07Z</time></trkpt><trkpt lat="44.82129019254133" lon="0.9352074270166658"><ele>148.0</ele><time>2026-05-01T07:24:08Z</time></trkpt><trkpt lat="44.82123425203278" lon="0.9353067864938913"><ele>148.0</ele><time>2026-05-01T07:24:09Z</time></trkpt><trkpt lat="44.82118759974174" lon="0.9353953338225136"><ele>148.0</ele><time>2026-05-01T07:24:10Z</time></trkpt><trkpt lat="44.82114389424268" lon="0.9354710414164762"><ele>148.0</ele><time>2026-05-01T07:24:11Z</time></trkpt><trkpt lat="44.82107832667396" lon="0.9355095597364731"><ele>148.0</ele><time>2026-05-01T07:24:12Z</time></trkpt><trkpt lat="44.82098412013767" lon="0.9355144335568684"><ele>148.0</ele><time>2026-05-01T07:24:13Z</time></trkpt><trkpt lat="44.820880211455396" lon="0.9354594501526395"><ele>148.0</ele><time>2026-05-01T07:24:14Z</time></trkpt><trkpt lat="44.820771063125605" lon="0.9353857290570251"><ele>148.0</ele><time>2026-05-01T07:24:15Z</time></trkpt><trkpt lat="44.82064621274073" lon="0.9353479007465431"><ele>147.5</ele><time>2026-05-01T07:24:16Z</time></trkpt><trkpt lat="44.820512461314806" lon="0.9353473965419113"><ele>147.0</ele><time>2026-05-01T07:24:17Z</time></trkpt><trkpt lat="44.82037559937938" lon="0.9353617028016972"><ele>146.5</ele><time>2026-05-01T07:24:18Z</time></trkpt><trkpt lat="44.820236091853516" lon="0.9353762571496902"><ele>146.0</ele><time>2026-05-01T07:24:19Z</time></trkpt><trkpt lat="44.82009441890308" lon="0.9353851370841952"><ele>145.0</ele><time>2026-05-01T07:24:20Z</time></trkpt><trkpt lat="44.81996782628906" lon="0.9353896319763421"><ele>144.0</ele><time>2026-05-01T07:24:21Z</time></trkpt><trkpt lat="44.81986481769802" lon="0.9353848779947238"><ele>143.0</ele><time>2026-05-01T07:24:22Z</time></trkpt><trkpt lat="44.81977170102722" lon="0.9353705306409601"><ele>142.0</ele><time>2026-05-01T07:24:23Z</time></trkpt><trkpt lat="44.81968771641329" lon="0.9353425472179018"><ele>141.0</ele><time>2026-05-01T07:24:24Z</time></trkpt><trkpt lat="44.81961721139771" lon="0.9353156431501517"><ele>141.0</ele><time>2026-05-01T07:24:25Z</time></trkpt><trkpt lat="44.8195452427716" lon="0.9352919628317127"><ele>141.0</ele><time>2026-05-01T07:24:26Z</time></trkpt><trkpt lat="44.8194742474091" lon="0.9352398806868671"><ele>141.0</ele><time>2026-05-01T07:24:27Z</time></trkpt><trkpt lat="44.8193953734554" lon="0.9351951750041219"><ele>141.0</ele><time>2026-05-01T07:24:28Z</time></trkpt><trkpt lat="44.819327302596164" lon="0.9351515721469542"><ele>141.0</ele><time>2026-05-01T07:24:29Z</time></trkpt><trkpt lat="44.81919991299722" lon="0.9350665783110835"><ele>142.8</ele><time>2026-05-01T07:24:31Z</time></trkpt><trkpt lat="44.81913208950704" lon="0.9350170068655062"><ele>144.6</ele><time>2026-05-01T07:24:32Z</time></trkpt><trkpt lat="44.819056860985015" lon="0.9349577028269356"><ele>146.4</ele><time>2026-05-01T07:24:33Z</time></trkpt><trkpt lat="44.818980153739986" lon="0.9348774444695874"><ele>148.2</ele><time>2026-05-01T07:24:34Z</time></trkpt><trkpt lat="44.81890312637727" lon="0.9347893696607784"><ele>150.0</ele><time>2026-05-01T07:24:35Z</time></trkpt><trkpt lat="44.81880534612652" lon="0.9347013528557961"><ele>150.0</ele><time>2026-05-01T07:24:36Z</time></trkpt><trkpt lat="44.81870280294317" lon="0.9346243547738471"><ele>150.0</ele><time>2026-05-01T07:24:37Z</time></trkpt><trkpt lat="44.81859465416214" lon="0.9345467277125221"><ele>150.0</ele><time>2026-05-01T07:24:38Z</time></trkpt><trkpt lat="44.818399880411626" lon="0.9348129391023238"><ele>147.83333333333334</ele><time>2026-05-01T07:24:39Z</time></trkpt><trkpt lat="44.818330753354694" lon="0.9347589655199432"><ele>145.66666666666666</ele><time>2026-05-01T07:24:40Z</time></trkpt><trkpt lat="44.81825942383276" lon="0.9347348002851628"><ele>143.5</ele><time>2026-05-01T07:24:41Z</time></trkpt><trkpt lat="44.818176901486275" lon="0.9347195603931299"><ele>141.33333333333331</ele><time>2026-05-01T07:24:42Z</time></trkpt><trkpt lat="44.81811217097412" lon="0.9347102917550073"><ele>139.16666666666666</ele><time>2026-05-01T07:24:43Z</time></trkpt><trkpt lat="44.81800290458936" lon="0.9346735258662032"><ele>137.0</ele><time>2026-05-01T07:24:44Z</time></trkpt><trkpt lat="44.81789699059708" lon="0.9346573153626787"><ele>137.0</ele><time>2026-05-01T07:24:45Z</time></trkpt><trkpt lat="44.81779623320038" lon="0.9346544549986908"><ele>137.0</ele><time>2026-05-01T07:24:46Z</time></trkpt><trkpt lat="44.817672757117286" lon="0.9346246518570454"><ele>137.0</ele><time>2026-05-01T07:24:47Z</time></trkpt><trkpt lat="44.81758997193736" lon="0.934623989515327"><ele>137.0</ele><time>2026-05-01T07:24:48Z</time></trkpt><trkpt lat="44.81749492893371" lon="0.9346251758836512"><ele>137.0</ele><time>2026-05-01T07:24:49Z</time></trkpt><trkpt lat="44.8174001714225" lon="0.934614982741854"><ele>134.6</ele><time>2026-05-01T07:24:50Z</time></trkpt><trkpt lat="44.8173091185661" lon="0.934597234913457"><ele>132.2</ele><time>2026-05-01T07:24:51Z</time></trkpt><trkpt lat="44.817210650299955" lon="0.934596053736111"><ele>129.8</ele><time>2026-05-01T07:24:52Z</time></trkpt><trkpt lat="44.817118833682244" lon="0.9345982743643537"><ele>127.4</ele><time>2026-05-01T07:24:53Z</time></trkpt><trkpt lat="44.817022711612985" lon="0.934592720136825"><ele>125.0</ele><time>2026-05-01T07:24:54Z</time></trkpt><trkpt lat="44.816937648881215" lon="0.934579192878996"><ele>124.99999999999999</ele><time>2026-05-01T07:24:55Z</time></trkpt><trkpt lat="44.8168627277185" lon="0.9345631599432637"><ele>125.0</ele><time>2026-05-01T07:24:56Z</time></trkpt><trkpt lat="44.81677209584509" lon="0.934512669847305"><ele>125.0</ele><time>2026-05-01T07:24:57Z</time></trkpt><trkpt lat="44.81667996769589" lon="0.9344775498078144"><ele>125.0</ele><time>2026-05-01T07:24:58Z</time></trkpt><trkpt lat="44.81659550476435" lon="0.9344352335044032"><ele>124.99999999999999</ele><time>2026-05-01T07:24:59Z</time></trkpt><trkpt lat="44.81651278294282" lon="0.9343859928656854"><ele>125.0</ele><time>2026-05-01T07:25:00Z</time></trkpt><trkpt lat="44.81644232708425" lon="0.9343365632073782"><ele>126.6</ele><time>2026-05-01T07:25:01Z</time></trkpt><trkpt lat="44.81636590735985" lon="0.9343175360615759"><ele>128.2</ele><time>2026-05-01T07:25:02Z</time></trkpt><trkpt lat="44.81631253839399" lon="0.9342444841355365"><ele>129.8</ele><time>2026-05-01T07:25:03Z</time></trkpt><trkpt lat="44.8162150002124" lon="0.9342204107512437"><ele>131.4</ele><time>2026-05-01T07:25:05Z</time></trkpt><trkpt lat="44.81611935322047" lon="0.9343027453977552"><ele>133.0</ele><time>2026-05-01T07:25:07Z</time></trkpt><trkpt lat="44.8160549288764" lon="0.9344242209115741"><ele>131.6</ele><time>2026-05-01T07:25:09Z</time></trkpt><trkpt lat="44.81597144750279" lon="0.9345431971606661"><ele>130.20000000000002</ele><time>2026-05-01T07:25:11Z</time></trkpt><trkpt lat="44.81592766622788" lon="0.9346153336522419"><ele>128.8</ele><time>2026-05-01T07:25:12Z</time></trkpt><trkpt lat="44.81588718908909" lon="0.9346876000955039"><ele>127.4</ele><time>2026-05-01T07:25:13Z</time></trkpt><trkpt lat="44.81585784982636" lon="0.9348344229065035"><ele>126.0</ele><time>2026-05-01T07:25:15Z</time></trkpt><trkpt lat="44.81591978020507" lon="0.9349747767974168"><ele>125.5</ele><time>2026-05-01T07:25:17Z</time></trkpt><trkpt lat="44.81597883862775" lon="0.9350730889594167"><ele>125.0</ele><time>2026-05-01T07:25:18Z</time></trkpt><trkpt lat="44.81602154186615" lon="0.9351696534856122"><ele>124.5</ele><time>2026-05-01T07:25:19Z</time></trkpt><trkpt lat="44.81607051800679" lon="0.935262606733279"><ele>124.0</ele><time>2026-05-01T07:25:20Z</time></trkpt><trkpt lat="44.816117409797634" lon="0.9353568084097575"><ele>123.5</ele><time>2026-05-01T07:25:21Z</time></trkpt><trkpt lat="44.816178389615715" lon="0.9354501230762109"><ele>123.0</ele><time>2026-05-01T07:25:22Z</time></trkpt><trkpt lat="44.81624286090248" lon="0.9355717767438462"><ele>123.0</ele><time>2026-05-01T07:25:23Z</time></trkpt><trkpt lat="44.81632628705943" lon="0.935686470815973"><ele>123.0</ele><time>2026-05-01T07:25:24Z</time></trkpt><trkpt lat="44.816404982794126" lon="0.9358278933279912"><ele>123.0</ele><time>2026-05-01T07:25:25Z</time></trkpt><trkpt lat="44.816478938019195" lon="0.9359556472317239"><ele>123.0</ele><time>2026-05-01T07:25:26Z</time></trkpt><trkpt lat="44.81653981587742" lon="0.9360820428015697"><ele>123.25</ele><time>2026-05-01T07:25:27Z</time></trkpt><trkpt lat="44.81662689445984" lon="0.9362091352730996"><ele>123.5</ele><time>2026-05-01T07:25:28Z</time></trkpt><trkpt lat="44.81670731791302" lon="0.9363210421644051"><ele>123.75</ele><time>2026-05-01T07:25:29Z</time></trkpt><trkpt lat="44.81677810845691" lon="0.9364602673740546"><ele>124.0</ele><time>2026-05-01T07:25:30Z</time></trkpt><trkpt lat="44.81684786454829" lon="0.9365926342531447"><ele>124.0</ele><time>2026-05-01T07:25:31Z</time></trkpt><trkpt lat="44.81690386286485" lon="0.9367155718447033"><ele>124.0</ele><time>2026-05-01T07:25:32Z</time></trkpt><trkpt lat="44.81695325291669" lon="0.9368270491494411"><ele>124.0</ele><time>2026-05-01T07:25:33Z</time></trkpt><trkpt lat="44.81700384132937" lon="0.9369221544020281"><ele>124.0</ele><time>2026-05-01T07:25:34Z</time></trkpt><trkpt lat="44.81706363459831" lon="0.937053439644138"><ele>124.0</ele><time>2026-05-01T07:25:36Z</time></trkpt><trkpt lat="44.8169725306897" lon="0.9370351487379315"><ele>126.6</ele><time>2026-05-01T07:25:49Z</time></trkpt><trkpt lat="44.81684440615853" lon="0.9369398291808512"><ele>129.2</ele><time>2026-05-01T07:25:51Z</time></trkpt><trkpt lat="44.81677553899101" lon="0.9368809115618697"><ele>131.79999999999998</ele><time>2026-05-01T07:25:52Z</time></trkpt><trkpt lat="44.816704187282795" lon="0.9368527257259799"><ele>134.4</ele><time>2026-05-01T07:25:53Z</time></trkpt><trkpt lat="44.81663040660296" lon="0.9368442211382214"><ele>137.0</ele><time>2026-05-01T07:25:54Z</time></trkpt><trkpt lat="44.81653079071475" lon="0.9368156031173502"><ele>138.66666666666666</ele><time>2026-05-01T07:25:55Z</time></trkpt><trkpt lat="44.81643608331974" lon="0.9367709760067489"><ele>140.33333333333331</ele><time>2026-05-01T07:25:57Z</time></trkpt><trkpt lat="44.81639411555044" lon="0.9368558734301278"><ele>142.0</ele><time>2026-05-01T07:25:59Z</time></trkpt><trkpt lat="44.816373634986014" lon="0.9370054314472127"><ele>143.66666666666666</ele><time>2026-05-01T07:26:01Z</time></trkpt><trkpt lat="44.81633813563108" lon="0.9371073009299848"><ele>145.33333333333334</ele><time>2026-05-01T07:26:02Z</time></trkpt><trkpt lat="44.8163017521058" lon="0.937207915970827"><ele>147.0</ele><time>2026-05-01T07:26:03Z</time></trkpt><trkpt lat="44.81627557995527" lon="0.9373370977208548"><ele>147.0</ele><time>2026-05-01T07:26:04Z</time></trkpt><trkpt lat="44.81622149090248" lon="0.9374780548880771"><ele>147.0</ele><time>2026-05-01T07:26:05Z</time></trkpt><trkpt lat="44.816179738715505" lon="0.9376290587881722"><ele>147.0</ele><time>2026-05-01T07:26:06Z</time></trkpt><trkpt lat="44.81612695430059" lon="0.937773524345491"><ele>147.0</ele><time>2026-05-01T07:26:07Z</time></trkpt><trkpt lat="44.81607796954161" lon="0.9378926139918039"><ele>147.0</ele><time>2026-05-01T07:26:08Z</time></trkpt><trkpt lat="44.81604777475633" lon="0.9379871945642243"><ele>147.6</ele><time>2026-05-01T07:26:09Z</time></trkpt><trkpt lat="44.81600153812519" lon="0.9380804407921126"><ele>148.2</ele><time>2026-05-01T07:26:11Z</time></trkpt><trkpt lat="44.81595057182918" lon="0.9380236920577325"><ele>148.8</ele><time>2026-05-01T07:26:13Z</time></trkpt><trkpt lat="44.81583536226636" lon="0.9379265432243477"><ele>149.4</ele><time>2026-05-01T07:26:15Z</time></trkpt><trkpt lat="44.815741137837136" lon="0.9379074443147656"><ele>150.0</ele><time>2026-05-01T07:26:16Z</time></trkpt><trkpt lat="44.81562018412586" lon="0.9378801317931733"><ele>151.75</ele><time>2026-05-01T07:26:17Z</time></trkpt><trkpt lat="44.81549164149965" lon="0.9378460052381058"><ele>153.5</ele><time>2026-05-01T07:26:18Z</time></trkpt><trkpt lat="44.81535237782264" lon="0.937799429884459"><ele>155.25</ele><time>2026-05-01T07:26:19Z</time></trkpt><trkpt lat="44.81522004315816" lon="0.937761314574603"><ele>157.0</ele><time>2026-05-01T07:26:20Z</time></trkpt><trkpt lat="44.8151039530306" lon="0.937732783427501"><ele>157.75</ele><time>2026-05-01T07:26:21Z</time></trkpt><trkpt lat="44.8149811345542" lon="0.9376975847386196"><ele>158.5</ele><time>2026-05-01T07:26:22Z</time></trkpt><trkpt lat="44.81485793177095" lon="0.9376487595774569"><ele>159.25</ele><time>2026-05-01T07:26:23Z</time></trkpt><trkpt lat="44.81474094760845" lon="0.9375777396367252"><ele>160.0</ele><time>2026-05-01T07:26:24Z</time></trkpt><trkpt lat="44.81462973900872" lon="0.9374882210115271"><ele>161.25</ele><time>2026-05-01T07:26:25Z</time></trkpt><trkpt lat="44.814521027844336" lon="0.937392171389664"><ele>162.5</ele><time>2026-05-01T07:26:26Z</time></trkpt><trkpt lat="44.81440747656921" lon="0.9372973679168304"><ele>163.75</ele><time>2026-05-01T07:26:27Z</time></trkpt><trkpt lat="44.81429193788841" lon="0.9371991729341926"><ele>165.0</ele><time>2026-05-01T07:26:28Z</time></trkpt><trkpt lat="44.81417344321953" lon="0.9370927074014608"><ele>166.0</ele><time>2026-05-01T07:26:29Z</time></trkpt><trkpt lat="44.814056796699695" lon="0.9369947097891238"><ele>167.0</ele><time>2026-05-01T07:26:30Z</time></trkpt><trkpt lat="44.81393897572202" lon="0.9368968691555271"><ele>168.0</ele><time>2026-05-01T07:26:31Z</time></trkpt><trkpt lat="44.81382966178584" lon="0.9368089282464155"><ele>169.0</ele><time>2026-05-01T07:26:32Z</time></trkpt><trkpt lat="44.813719739557634" lon="0.9367141753652211"><ele>169.5</ele><time>2026-05-01T07:26:33Z</time></trkpt><trkpt lat="44.81360770455629" lon="0.9366405248434976"><ele>170.0</ele><time>2026-05-01T07:26:34Z</time></trkpt><trkpt lat="44.81350240975762" lon="0.9365758630345044"><ele>170.5</ele><time>2026-05-01T07:26:35Z</time></trkpt><trkpt lat="44.81338865407739" lon="0.9365239755263569"><ele>171.0</ele><time>2026-05-01T07:26:36Z</time></trkpt><trkpt lat="44.81327233351424" lon="0.9364792160591395"><ele>172.60000000000002</ele><time>2026-05-01T07:26:37Z</time></trkpt><trkpt lat="44.81316867624794" lon="0.9364399749148251"><ele>174.2</ele><time>2026-05-01T07:26:38Z</time></trkpt><trkpt lat="44.813072676468686" lon="0.9364167617124377"><ele>175.8</ele><time>2026-05-01T07:26:39Z</time></trkpt><trkpt lat="44.812971933809166" lon="0.9364010084483892"><ele>177.39999999999998</ele><time>2026-05-01T07:26:40Z</time></trkpt><trkpt lat="44.81288460060636" lon="0.9363929572309163"><ele>179.0</ele><time>2026-05-01T07:26:41Z</time></trkpt><trkpt lat="44.81279252549169" lon="0.9363787588437991"><ele>179.0</ele><time>2026-05-01T07:26:42Z</time></trkpt><trkpt lat="44.812705122098876" lon="0.9363530649607158"><ele>179.0</ele><time>2026-05-01T07:26:43Z</time></trkpt><trkpt lat="44.81263118543386" lon="0.936338526159816"><ele>179.0</ele><time>2026-05-01T07:26:44Z</time></trkpt><trkpt lat="44.812532758880394" lon="0.9363315143875173"><ele>179.0</ele><time>2026-05-01T07:26:45Z</time></trkpt><trkpt lat="44.81243181743484" lon="0.9363021870610204"><ele>179.0</ele><time>2026-05-01T07:26:46Z</time></trkpt><trkpt lat="44.81232466070548" lon="0.9362744359618921"><ele>179.25</ele><time>2026-05-01T07:26:47Z</time></trkpt><trkpt lat="44.8122171655365" lon="0.9362414363543919"><ele>179.5</ele><time>2026-05-01T07:26:48Z</time></trkpt><trkpt lat="44.8121079159575" lon="0.9362129354494282"><ele>179.75</ele><time>2026-05-01T07:26:49Z</time></trkpt><trkpt lat="44.811995646298946" lon="0.936182849294504"><ele>180.0</ele><time>2026-05-01T07:26:50Z</time></trkpt><trkpt lat="44.81187833300188" lon="0.9361522517749831"><ele>180.5</ele><time>2026-05-01T07:26:51Z</time></trkpt><trkpt lat="44.811755385894934" lon="0.9361225350490057"><ele>181.0</ele><time>2026-05-01T07:26:52Z</time></trkpt><trkpt lat="44.81163132153732" lon="0.9360871808744962"><ele>181.5</ele><time>2026-05-01T07:26:53Z</time></trkpt><trkpt lat="44.81150040810767" lon="0.9360577879806535"><ele>182.0</ele><time>2026-05-01T07:26:54Z</time></trkpt><trkpt lat="44.81137858453958" lon="0.9360176101745695"><ele>182.0</ele><time>2026-05-01T07:26:55Z</time></trkpt><trkpt lat="44.81126254151931" lon="0.935979550425816"><ele>182.0</ele><time>2026-05-01T07:26:56Z</time></trkpt><trkpt lat="44.81115899838075" lon="0.9359551371491788"><ele>182.0</ele><time>2026-05-01T07:26:57Z</time></trkpt><trkpt lat="44.811052313827076" lon="0.9359103006649251"><ele>182.0</ele><time>2026-05-01T07:26:58Z</time></trkpt><trkpt lat="44.81096004698656" lon="0.9358724921614745"><ele>182.0</ele><time>2026-05-01T07:26:59Z</time></trkpt><trkpt lat="44.81086445779128" lon="0.9358299163970017"><ele>181.8</ele><time>2026-05-01T07:27:00Z</time></trkpt><trkpt lat="44.81078359293247" lon="0.9357891326416575"><ele>181.6</ele><time>2026-05-01T07:27:01Z</time></trkpt><trkpt lat="44.810708352481086" lon="0.9357460758265955"><ele>181.4</ele><time>2026-05-01T07:27:02Z</time></trkpt><trkpt lat="44.81062548837293" lon="0.9357054301741332"><ele>181.20000000000002</ele><time>2026-05-01T07:27:03Z</time></trkpt><trkpt lat="44.81058568031721" lon="0.9355009365167026"><ele>181.0</ele><time>2026-05-01T07:27:04Z</time></trkpt><trkpt lat="44.81051599334344" lon="0.935432774227188"><ele>181.0</ele><time>2026-05-01T07:27:05Z</time></trkpt><trkpt lat="44.81043440687579" lon="0.9353736608201976"><ele>181.0</ele><time>2026-05-01T07:27:06Z</time></trkpt><trkpt lat="44.81034691140936" lon="0.9353450243748328"><ele>181.0</ele><time>2026-05-01T07:27:07Z</time></trkpt><trkpt lat="44.8102469520908" lon="0.935344928956636"><ele>181.0</ele><time>2026-05-01T07:27:08Z</time></trkpt><trkpt lat="44.81014991690793" lon="0.9353258334456739"><ele>181.0</ele><time>2026-05-01T07:27:09Z</time></trkpt><trkpt lat="44.81004098078241" lon="0.9352767770924704"><ele>181.75</ele><time>2026-05-01T07:27:10Z</time></trkpt><trkpt lat="44.80993447334042" lon="0.9352201560650922"><ele>182.5</ele><time>2026-05-01T07:27:11Z</time></trkpt><trkpt lat="44.80982874355012" lon="0.9351688421209904"><ele>183.25</ele><time>2026-05-01T07:27:12Z</time></trkpt><trkpt lat="44.80971071920477" lon="0.9351209030020643"><ele>184.0</ele><time>2026-05-01T07:27:13Z</time></trkpt><trkpt lat="44.80959629565522" lon="0.93505853985063"><ele>185.0</ele><time>2026-05-01T07:27:14Z</time></trkpt><trkpt lat="44.80950319174094" lon="0.935023780516312"><ele>186.0</ele><time>2026-05-01T07:27:15Z</time></trkpt><trkpt lat="44.80938341626018" lon="0.9350144483756987"><ele>187.0</ele><time>2026-05-01T07:27:16Z</time></trkpt><trkpt lat="44.80927798605584" lon="0.9350238904528506"><ele>188.0</ele><time>2026-05-01T07:27:17Z</time></trkpt><trkpt lat="44.809168878438165" lon="0.9350249744702258"><ele>189.0</ele><time>2026-05-01T07:27:18Z</time></trkpt><trkpt lat="44.80906918452066" lon="0.9350302992885522"><ele>189.79999999999998</ele><time>2026-05-01T07:27:19Z</time></trkpt><trkpt lat="44.80897134154273" lon="0.9350278059342143"><ele>190.6</ele><time>2026-05-01T07:27:20Z</time></trkpt><trkpt lat="44.80886182526498" lon="0.9350139313028157"><ele>191.4</ele><time>2026-05-01T07:27:21Z</time></trkpt><trkpt lat="44.80876624167868" lon="0.9350027183336872"><ele>192.2</ele><time>2026-05-01T07:27:22Z</time></trkpt><trkpt lat="44.80866711332716" lon="0.9349906449890801"><ele>193.0</ele><time>2026-05-01T07:27:23Z</time></trkpt><trkpt lat="44.80860151238398" lon="0.9350099265638683"><ele>193.0</ele><time>2026-05-01T07:27:24Z</time></trkpt><trkpt lat="44.80850500247725" lon="0.9350308838764135"><ele>193.0</ele><time>2026-05-01T07:27:26Z</time></trkpt><trkpt lat="44.80841381194423" lon="0.9350330427344696"><ele>193.0</ele><time>2026-05-01T07:27:28Z</time></trkpt><trkpt lat="44.808303545761" lon="0.9350625047807909"><ele>193.0</ele><time>2026-05-01T07:27:30Z</time></trkpt><trkpt lat="44.80821867269509" lon="0.935038403071603"><ele>193.0</ele><time>2026-05-01T07:27:32Z</time></trkpt><trkpt lat="44.80813166326406" lon="0.9350025804072151"><ele>193.49999999999997</ele><time>2026-05-01T07:27:34Z</time></trkpt><trkpt lat="44.80806194329313" lon="0.9349916967443176"><ele>194.0</ele><time>2026-05-01T07:27:35Z</time></trkpt><trkpt lat="44.80799253706793" lon="0.9349854021238188"><ele>194.5</ele><time>2026-05-01T07:27:36Z</time></trkpt><trkpt lat="44.80790265762644" lon="0.9349731466935696"><ele>195.0</ele><time>2026-05-01T07:27:37Z</time></trkpt><trkpt lat="44.80779387394253" lon="0.9349526463182134"><ele>195.49999999999997</ele><time>2026-05-01T07:27:38Z</time></trkpt><trkpt lat="44.80768718331956" lon="0.9349199617826872"><ele>196.0</ele><time>2026-05-01T07:27:39Z</time></trkpt><trkpt lat="44.80758438769161" lon="0.93488943248834"><ele>196.25</ele><time>2026-05-01T07:27:40Z</time></trkpt><trkpt lat="44.80747792711249" lon="0.9348751911938152"><ele>196.5</ele><time>2026-05-01T07:27:41Z</time></trkpt><trkpt lat="44.80735463778147" lon="0.9348475157204418"><ele>196.75</ele><time>2026-05-01T07:27:42Z</time></trkpt><trkpt lat="44.80722744142346" lon="0.9348161650247215"><ele>197.0</ele><time>2026-05-01T07:27:43Z</time></trkpt><trkpt lat="44.80710416694413" lon="0.9348023105296241"><ele>197.0</ele><time>2026-05-01T07:27:44Z</time></trkpt><trkpt lat="44.80699102245434" lon="0.9348016202429138"><ele>197.0</ele><time>2026-05-01T07:27:45Z</time></trkpt><trkpt lat="44.8068955708024" lon="0.9348044528829391"><ele>197.0</ele><time>2026-05-01T07:27:46Z</time></trkpt><trkpt lat="44.80681719696483" lon="0.934790200613216"><ele>197.0</ele><time>2026-05-01T07:27:47Z</time></trkpt><trkpt lat="44.80670474022066" lon="0.9347625220385326"><ele>197.0</ele><time>2026-05-01T07:27:48Z</time></trkpt><trkpt lat="44.80658934900336" lon="0.9347216904932344"><ele>197.0</ele><time>2026-05-01T07:27:49Z</time></trkpt><trkpt lat="44.806495642298984" lon="0.9347003343106005"><ele>197.0</ele><time>2026-05-01T07:27:50Z</time></trkpt><trkpt lat="44.806407845482795" lon="0.9347138379324201"><ele>197.0</ele><time>2026-05-01T07:27:51Z</time></trkpt><trkpt lat="44.80630211960704" lon="0.9347094840534216"><ele>197.0</ele><time>2026-05-01T07:27:52Z</time></trkpt><trkpt lat="44.80617939984376" lon="0.9346767059802861"><ele>197.0</ele><time>2026-05-01T07:27:53Z</time></trkpt><trkpt lat="44.8060608222023" lon="0.9346511624077327"><ele>198.8</ele><time>2026-05-01T07:27:54Z</time></trkpt><trkpt lat="44.805939546565426" lon="0.9346324310908403"><ele>200.6</ele><time>2026-05-01T07:27:55Z</time></trkpt><trkpt lat="44.80583623495919" lon="0.9346058590840496"><ele>202.4</ele><time>2026-05-01T07:27:56Z</time></trkpt><trkpt lat="44.80574771685649" lon="0.9345776042446257"><ele>204.20000000000002</ele><time>2026-05-01T07:27:57Z</time></trkpt><trkpt lat="44.80566459892998" lon="0.9345260045399071"><ele>206.0</ele><time>2026-05-01T07:27:58Z</time></trkpt><trkpt lat="44.805583097643165" lon="0.9344556639445056"><ele>206.0</ele><time>2026-05-01T07:27:59Z</time></trkpt><trkpt lat="44.80549981884988" lon="0.9344267978274267"><ele>206.0</ele><time>2026-05-01T07:28:00Z</time></trkpt><trkpt lat="44.80542292929551" lon="0.9344105561399308"><ele>206.0</ele><time>2026-05-01T07:28:01Z</time></trkpt><trkpt lat="44.80527238590324" lon="0.9344123838075358"><ele>206.0</ele><time>2026-05-01T07:28:03Z</time></trkpt><trkpt lat="44.80516157065401" lon="0.9344114033201258"><ele>206.0</ele><time>2026-05-01T07:28:04Z</time></trkpt><trkpt lat="44.805063715711924" lon="0.9344123300530293"><ele>205.4</ele><time>2026-05-01T07:28:05Z</time></trkpt><trkpt lat="44.804974802997464" lon="0.9344140539838055"><ele>204.8</ele><time>2026-05-01T07:28:06Z</time></trkpt><trkpt lat="44.80488176662161" lon="0.9344032961627597"><ele>204.20000000000002</ele><time>2026-05-01T07:28:07Z</time></trkpt><trkpt lat="44.804785813732515" lon="0.9343943861898351"><ele>203.60000000000002</ele><time>2026-05-01T07:28:08Z</time></trkpt><trkpt lat="44.80469467834862" lon="0.9343966867094083"><ele>203.0</ele><time>2026-05-01T07:28:09Z</time></trkpt><trkpt lat="44.804592686934" lon="0.9343797177224377"><ele>203.0</ele><time>2026-05-01T07:28:10Z</time></trkpt><trkpt lat="44.804471642283474" lon="0.9343684303549461"><ele>203.0</ele><time>2026-05-01T07:28:11Z</time></trkpt><trkpt lat="44.80436155990873" lon="0.9343504191134542"><ele>203.0</ele><time>2026-05-01T07:28:12Z</time></trkpt><trkpt lat="44.80428027156662" lon="0.9343273811391077"><ele>203.0</ele><time>2026-05-01T07:28:13Z</time></trkpt><trkpt lat="44.804185711914755" lon="0.9342981285897269"><ele>203.0</ele><time>2026-05-01T07:28:14Z</time></trkpt><trkpt lat="44.804087042848934" lon="0.9342700175619987"><ele>204.0</ele><time>2026-05-01T07:28:15Z</time></trkpt><trkpt lat="44.804008889598535" lon="0.9342776201216236"><ele>205.0</ele><time>2026-05-01T07:28:16Z</time></trkpt><trkpt lat="44.80393899352901" lon="0.9343022943718662"><ele>206.0</ele><time>2026-05-01T07:28:17Z</time></trkpt><trkpt lat="44.803845792398576" lon="0.9343258036851585"><ele>207.0</ele><time>2026-05-01T07:28:18Z</time></trkpt><trkpt lat="44.803735550720646" lon="0.9343145328915813"><ele>208.0</ele><time>2026-05-01T07:28:19Z</time></trkpt><trkpt lat="44.80363853792951" lon="0.9342950873606675"><ele>208.0</ele><time>2026-05-01T07:28:20Z</time></trkpt><trkpt lat="44.803539943281656" lon="0.9342766022025286"><ele>208.0</ele><time>2026-05-01T07:28:21Z</time></trkpt><trkpt lat="44.803438818159755" lon="0.9342619777593641"><ele>208.0</ele><time>2026-05-01T07:28:22Z</time></trkpt><trkpt lat="44.80335134790751" lon="0.9342282529676816"><ele>208.0</ele><time>2026-05-01T07:28:23Z</time></trkpt><trkpt lat="44.80328031389416" lon="0.934176110070882"><ele>208.0</ele><time>2026-05-01T07:28:24Z</time></trkpt><trkpt lat="44.80321411207612" lon="0.934113196206421"><ele>209.99999999999997</ele><time>2026-05-01T07:28:25Z</time></trkpt><trkpt lat="44.80318724848166" lon="0.9340220586005478"><ele>212.0</ele><time>2026-05-01T07:28:26Z</time></trkpt><trkpt lat="44.80316061492797" lon="0.9339186017685082"><ele>214.0</ele><time>2026-05-01T07:28:27Z</time></trkpt><trkpt lat="44.80311857347106" lon="0.9338145867265031"><ele>216.0</ele><time>2026-05-01T07:28:28Z</time></trkpt><trkpt lat="44.803093413913444" lon="0.9337104087335254"><ele>217.99999999999997</ele><time>2026-05-01T07:28:29Z</time></trkpt><trkpt lat="44.80306813628373" lon="0.9335618162692134"><ele>220.0</ele><time>2026-05-01T07:28:30Z</time></trkpt><trkpt lat="44.80303427912427" lon="0.9333922591963562"><ele>221.0</ele><time>2026-05-01T07:28:31Z</time></trkpt><trkpt lat="44.803004052406685" lon="0.9332226782508309"><ele>222.0</ele><time>2026-05-01T07:28:32Z</time></trkpt><trkpt lat="44.8029742658272" lon="0.9331018277472143"><ele>223.0</ele><time>2026-05-01T07:28:33Z</time></trkpt><trkpt lat="44.802946311342524" lon="0.9329648354805651"><ele>224.0</ele><time>2026-05-01T07:28:34Z</time></trkpt><trkpt lat="44.802942640211675" lon="0.9328172466511233"><ele>225.0</ele><time>2026-05-01T07:28:35Z</time></trkpt><trkpt lat="44.80292336251784" lon="0.9326641938231888"><ele>224.6</ele><time>2026-05-01T07:28:36Z</time></trkpt><trkpt lat="44.80292116840466" lon="0.932512634683927"><ele>224.2</ele><time>2026-05-01T07:28:37Z</time></trkpt><trkpt lat="44.80290562196509" lon="0.9323776494478224"><ele>223.8</ele><time>2026-05-01T07:28:38Z</time></trkpt><trkpt lat="44.802895454467" lon="0.9322359323936107"><ele>223.4</ele><time>2026-05-01T07:28:39Z</time></trkpt><trkpt lat="44.80288349268567" lon="0.9320604289661215"><ele>223.0</ele><time>2026-05-01T07:28:40Z</time></trkpt><trkpt lat="44.802868019709564" lon="0.9318892720803663"><ele>222.25</ele><time>2026-05-01T07:28:41Z</time></trkpt><trkpt lat="44.80283103168225" lon="0.931722717484386"><ele>221.5</ele><time>2026-05-01T07:28:42Z</time></trkpt><trkpt lat="44.80281409431264" lon="0.9315656520073856"><ele>220.75</ele><time>2026-05-01T07:28:43Z</time></trkpt><trkpt lat="44.80279043541305" lon="0.9314011087560102"><ele>220.0</ele><time>2026-05-01T07:28:44Z</time></trkpt><trkpt lat="44.802779259446396" lon="0.9312424485587095"><ele>219.99999999999997</ele><time>2026-05-01T07:28:45Z</time></trkpt><trkpt lat="44.80277337089169" lon="0.9310984009402753"><ele>220.0</ele><time>2026-05-01T07:28:46Z</time></trkpt><trkpt lat="44.80277309508976" lon="0.9309844018038163"><ele>220.0</ele><time>2026-05-01T07:28:47Z</time></trkpt><trkpt lat="44.802753826015284" lon="0.9308765706053896"><ele>220.0</ele><time>2026-05-01T07:28:48Z</time></trkpt><trkpt lat="44.80272563538603" lon="0.930758031670702"><ele>219.99999999999997</ele><time>2026-05-01T07:28:49Z</time></trkpt><trkpt lat="44.80267657775841" lon="0.9306709340390678"><ele>220.0</ele><time>2026-05-01T07:28:50Z</time></trkpt><trkpt lat="44.80260711245189" lon="0.9305666476132041"><ele>217.2</ele><time>2026-05-01T07:28:51Z</time></trkpt><trkpt lat="44.80252510253322" lon="0.9304625205725052"><ele>214.4</ele><time>2026-05-01T07:28:52Z</time></trkpt><trkpt lat="44.80245374116266" lon="0.930367443075697"><ele>211.60000000000002</ele><time>2026-05-01T07:28:53Z</time></trkpt><trkpt lat="44.802370484961614" lon="0.9302616986750691"><ele>208.8</ele><time>2026-05-01T07:28:54Z</time></trkpt><trkpt lat="44.802307251392655" lon="0.9301801471314637"><ele>206.0</ele><time>2026-05-01T07:28:55Z</time></trkpt><trkpt lat="44.80225348093131" lon="0.9301148216398881"><ele>206.0</ele><time>2026-05-01T07:28:56Z</time></trkpt><trkpt lat="44.80220650240118" lon="0.9300513241522308"><ele>206.0</ele><time>2026-05-01T07:28:57Z</time></trkpt><trkpt lat="44.802150995197586" lon="0.9299662858268241"><ele>206.0</ele><time>2026-05-01T07:28:58Z</time></trkpt><trkpt lat="44.8020633310706" lon="0.9297936212249878"><ele>206.0</ele><time>2026-05-01T07:29:00Z</time></trkpt><trkpt lat="44.80195542244476" lon="0.9296934866922607"><ele>206.0</ele><time>2026-05-01T07:29:01Z</time></trkpt><trkpt lat="44.80184392550768" lon="0.929607232495793"><ele>205.20000000000002</ele><time>2026-05-01T07:29:02Z</time></trkpt><trkpt lat="44.80177916630697" lon="0.9295047241477117"><ele>204.4</ele><time>2026-05-01T07:29:03Z</time></trkpt><trkpt lat="44.80169304381393" lon="0.9293987657796173"><ele>203.6</ele><time>2026-05-01T07:29:04Z</time></trkpt><trkpt lat="44.8016235967676" lon="0.9292697281729715"><ele>202.8</ele><time>2026-05-01T07:29:05Z</time></trkpt><trkpt lat="44.801515096293734" lon="0.9291894258856347"><ele>202.0</ele><time>2026-05-01T07:29:06Z</time></trkpt><trkpt lat="44.80145013706015" lon="0.9290769564804257"><ele>202.0</ele><time>2026-05-01T07:29:07Z</time></trkpt><trkpt lat="44.801351776623335" lon="0.9289772455368257"><ele>202.0</ele><time>2026-05-01T07:29:08Z</time></trkpt><trkpt lat="44.80125227805989" lon="0.92895486538178"><ele>202.0</ele><time>2026-05-01T07:29:09Z</time></trkpt><trkpt lat="44.80116740098452" lon="0.9289177349185485"><ele>202.0</ele><time>2026-05-01T07:29:10Z</time></trkpt><trkpt lat="44.801083330057374" lon="0.9288778085549705"><ele>202.0</ele><time>2026-05-01T07:29:11Z</time></trkpt><trkpt lat="44.80099671230273" lon="0.9288357046024651"><ele>201.83333333333331</ele><time>2026-05-01T07:29:12Z</time></trkpt><trkpt lat="44.80093906907884" lon="0.9287943556247172"><ele>201.66666666666666</ele><time>2026-05-01T07:29:13Z</time></trkpt><trkpt lat="44.80087916911431" lon="0.9287204033453741"><ele>201.5</ele><time>2026-05-01T07:29:14Z</time></trkpt><trkpt lat="44.80080909062861" lon="0.9286499410597884"><ele>201.33333333333331</ele><time>2026-05-01T07:29:15Z</time></trkpt><trkpt lat="44.800735943653955" lon="0.9285720411096544"><ele>201.16666666666666</ele><time>2026-05-01T07:29:16Z</time></trkpt><trkpt lat="44.800659691060254" lon="0.9284792514924192"><ele>201.0</ele><time>2026-05-01T07:29:17Z</time></trkpt><trkpt lat="44.80059041400274" lon="0.9283695744014107"><ele>201.0</ele><time>2026-05-01T07:29:18Z</time></trkpt><trkpt lat="44.8005116377443" lon="0.9282600124729024"><ele>201.0</ele><time>2026-05-01T07:29:19Z</time></trkpt><trkpt lat="44.800462768063944" lon="0.928119714491292"><ele>201.0</ele><time>2026-05-01T07:29:20Z</time></trkpt><trkpt lat="44.80042393928061" lon="0.9279532510713939"><ele>201.0</ele><time>2026-05-01T07:29:21Z</time></trkpt><trkpt lat="44.80039827993447" lon="0.9277776237171227"><ele>201.0</ele><time>2026-05-01T07:29:22Z</time></trkpt><trkpt lat="44.800369592784755" lon="0.927600892684413"><ele>201.0</ele><time>2026-05-01T07:29:23Z</time></trkpt><trkpt lat="44.800332931159744" lon="0.9273963686442814"><ele>201.0</ele><time>2026-05-01T07:29:24Z</time></trkpt><trkpt lat="44.80029252689624" lon="0.9272089662898576"><ele>201.0</ele><time>2026-05-01T07:29:25Z</time></trkpt><trkpt lat="44.80023056281679" lon="0.9270491863531142"><ele>204.0</ele><time>2026-05-01T07:29:26Z</time></trkpt><trkpt lat="44.80014190993126" lon="0.9269426542833572"><ele>207.0</ele><time>2026-05-01T07:29:27Z</time></trkpt><trkpt lat="44.800023692938474" lon="0.9268666791557004"><ele>210.0</ele><time>2026-05-01T07:29:28Z</time></trkpt><trkpt lat="44.79990370868889" lon="0.9268111078450769"><ele>213.0</ele><time>2026-05-01T07:29:29Z</time></trkpt><trkpt lat="44.79978474496381" lon="0.9267336884994375"><ele>212.25</ele><time>2026-05-01T07:29:30Z</time></trkpt><trkpt lat="44.79967995400246" lon="0.9266019596687917"><ele>211.5</ele><time>2026-05-01T07:29:31Z</time></trkpt><trkpt lat="44.79959381393792" lon="0.926455357327786"><ele>210.75</ele><time>2026-05-01T07:29:32Z</time></trkpt><trkpt lat="44.799492139462444" lon="0.9262984955113054"><ele>210.0</ele><time>2026-05-01T07:29:33Z</time></trkpt><trkpt lat="44.79937193042111" lon="0.926191343573139"><ele>211.2</ele><time>2026-05-01T07:29:34Z</time></trkpt><trkpt lat="44.799269405497085" lon="0.9260840441175359"><ele>212.4</ele><time>2026-05-01T07:29:35Z</time></trkpt><trkpt lat="44.799171778975726" lon="0.9260038863280662"><ele>213.60000000000002</ele><time>2026-05-01T07:29:36Z</time></trkpt><trkpt lat="44.799081375373575" lon="0.9259434692494214"><ele>214.8</ele><time>2026-05-01T07:29:37Z</time></trkpt><trkpt lat="44.799035124502204" lon="0.9258301584965103"><ele>216.0</ele><time>2026-05-01T07:29:38Z</time></trkpt><trkpt lat="44.79901795150159" lon="0.9257312934424966"><ele>216.0</ele><time>2026-05-01T07:29:39Z</time></trkpt><trkpt lat="44.79885350134068" lon="0.9257581380320732"><ele>216.0</ele><time>2026-05-01T07:29:43Z</time></trkpt><trkpt lat="44.798841124071956" lon="0.9258460284780495"><ele>216.0</ele><time>2026-05-01T07:29:44Z</time></trkpt><trkpt lat="44.79883852511618" lon="0.9259847759252503"><ele>216.0</ele><time>2026-05-01T07:29:45Z</time></trkpt><trkpt lat="44.79882286906763" lon="0.9261641146150632"><ele>216.5</ele><time>2026-05-01T07:29:46Z</time></trkpt><trkpt lat="44.79879485201673" lon="0.9263043682736943"><ele>217.0</ele><time>2026-05-01T07:29:47Z</time></trkpt><trkpt lat="44.79877588181614" lon="0.9264268040091215"><ele>217.5</ele><time>2026-05-01T07:29:48Z</time></trkpt><trkpt lat="44.79877274738556" lon="0.9265479190610184"><ele>218.0</ele><time>2026-05-01T07:29:49Z</time></trkpt><trkpt lat="44.7987822632561" lon="0.9266549907236084"><ele>218.5</ele><time>2026-05-01T07:29:50Z</time></trkpt><trkpt lat="44.798801683036935" lon="0.9267416508846461"><ele>219.0</ele><time>2026-05-01T07:29:51Z</time></trkpt><trkpt lat="44.79883766445" lon="0.9269139129590834"><ele>219.0</ele><time>2026-05-01T07:29:53Z</time></trkpt><trkpt lat="44.798830645694174" lon="0.9270447793521733"><ele>218.99999999999997</ele><time>2026-05-01T07:29:54Z</time></trkpt><trkpt lat="44.798797682721805" lon="0.9271644094504398"><ele>218.99999999999997</ele><time>2026-05-01T07:29:55Z</time></trkpt><trkpt lat="44.798738263993" lon="0.9273047437465367"><ele>219.0</ele><time>2026-05-01T07:29:56Z</time></trkpt><trkpt lat="44.79869472978788" lon="0.9274362009713396"><ele>219.0</ele><time>2026-05-01T07:29:57Z</time></trkpt><trkpt lat="44.798661450246755" lon="0.9275457602610808"><ele>217.39999999999998</ele><time>2026-05-01T07:29:58Z</time></trkpt><trkpt lat="44.79862553804531" lon="0.9276674924374356"><ele>215.79999999999998</ele><time>2026-05-01T07:29:59Z</time></trkpt><trkpt lat="44.79860971023983" lon="0.9277782417928119"><ele>214.2</ele><time>2026-05-01T07:30:00Z</time></trkpt><trkpt lat="44.79859933347483" lon="0.9279314648667568"><ele>212.60000000000002</ele><time>2026-05-01T07:30:01Z</time></trkpt><trkpt lat="44.79856183639476" lon="0.9280592982925213"><ele>211.0</ele><time>2026-05-01T07:30:02Z</time></trkpt><trkpt lat="44.79851615322837" lon="0.9282120077518737"><ele>211.4</ele><time>2026-05-01T07:30:03Z</time></trkpt><trkpt lat="44.79848399465999" lon="0.928346561111309"><ele>211.8</ele><time>2026-05-01T07:30:04Z</time></trkpt><trkpt lat="44.798453846860504" lon="0.9284818057091074"><ele>212.20000000000002</ele><time>2026-05-01T07:30:05Z</time></trkpt><trkpt lat="44.79844200070809" lon="0.9286201038283328"><ele>212.60000000000002</ele><time>2026-05-01T07:30:06Z</time></trkpt><trkpt lat="44.798427610354004" lon="0.9287817464651693"><ele>213.0</ele><time>2026-05-01T07:30:07Z</time></trkpt><trkpt lat="44.79841143602787" lon="0.9289438724508591"><ele>213.2</ele><time>2026-05-01T07:30:08Z</time></trkpt><trkpt lat="44.79840306408529" lon="0.9290961808238634"><ele>213.4</ele><time>2026-05-01T07:30:09Z</time></trkpt><trkpt lat="44.79838895772544" lon="0.9292496892630145"><ele>213.59999999999997</ele><time>2026-05-01T07:30:10Z</time></trkpt><trkpt lat="44.79838088444573" lon="0.9294035460028496"><ele>213.79999999999998</ele><time>2026-05-01T07:30:11Z</time></trkpt><trkpt lat="44.79837357263849" lon="0.9295284745210405"><ele>214.0</ele><time>2026-05-01T07:30:12Z</time></trkpt><trkpt lat="44.79831957530154" lon="0.9296405548614199"><ele>214.2</ele><time>2026-05-01T07:30:13Z</time></trkpt><trkpt lat="44.79825415771124" lon="0.9297603905210319"><ele>214.39999999999998</ele><time>2026-05-01T07:30:14Z</time></trkpt><trkpt lat="44.798181757198336" lon="0.9298236110390768"><ele>214.6</ele><time>2026-05-01T07:30:15Z</time></trkpt><trkpt lat="44.798115218685766" lon="0.9298599250024662"><ele>214.8</ele><time>2026-05-01T07:30:16Z</time></trkpt><trkpt lat="44.79800146563975" lon="0.9299219537167073"><ele>215.0</ele><time>2026-05-01T07:30:18Z</time></trkpt><trkpt lat="44.79792645149142" lon="0.9300285557260141"><ele>214.6</ele><time>2026-05-01T07:30:20Z</time></trkpt><trkpt lat="44.79782807781517" lon="0.9301775331537991"><ele>214.2</ele><time>2026-05-01T07:30:22Z</time></trkpt><trkpt lat="44.79776360956509" lon="0.9302147202630865"><ele>213.8</ele><time>2026-05-01T07:30:23Z</time></trkpt><trkpt lat="44.797641381866235" lon="0.9302271631642568"><ele>213.4</ele><time>2026-05-01T07:30:25Z</time></trkpt><trkpt lat="44.797594761782086" lon="0.9303617738900436"><ele>213.0</ele><time>2026-05-01T07:30:27Z</time></trkpt><trkpt lat="44.797561079892375" lon="0.9304810144834466"><ele>213.0</ele><time>2026-05-01T07:30:28Z</time></trkpt><trkpt lat="44.797494428263924" lon="0.9305984597846239"><ele>213.0</ele><time>2026-05-01T07:30:29Z</time></trkpt><trkpt lat="44.79743874541029" lon="0.930746330366313"><ele>213.0</ele><time>2026-05-01T07:30:30Z</time></trkpt><trkpt lat="44.797391019995516" lon="0.9308932055235377"><ele>213.0</ele><time>2026-05-01T07:30:31Z</time></trkpt><trkpt lat="44.79734870093162" lon="0.9310355614257977"><ele>212.83333333333334</ele><time>2026-05-01T07:30:32Z</time></trkpt><trkpt lat="44.79730872143312" lon="0.9311773774252026"><ele>212.66666666666669</ele><time>2026-05-01T07:30:33Z</time></trkpt><trkpt lat="44.797265100998814" lon="0.9312684037822044"><ele>212.5</ele><time>2026-05-01T07:30:34Z</time></trkpt><trkpt lat="44.79720415049386" lon="0.931364759210002"><ele>212.33333333333334</ele><time>2026-05-01T07:30:35Z</time></trkpt><trkpt lat="44.79714523986347" lon="0.931451061519992"><ele>212.16666666666669</ele><time>2026-05-01T07:30:36Z</time></trkpt><trkpt lat="44.79709387946892" lon="0.9315145603334414"><ele>212.0</ele><time>2026-05-01T07:30:37Z</time></trkpt><trkpt lat="44.79703670083294" lon="0.9315802472445226"><ele>212.0</ele><time>2026-05-01T07:30:38Z</time></trkpt><trkpt lat="44.7969190117266" lon="0.9316811933989371"><ele>212.0</ele><time>2026-05-01T07:30:40Z</time></trkpt><trkpt lat="44.79685708189594" lon="0.9317166359453891"><ele>212.0</ele><time>2026-05-01T07:30:41Z</time></trkpt><trkpt lat="44.79681553795939" lon="0.9317848530420366"><ele>212.0</ele><time>2026-05-01T07:30:42Z</time></trkpt><trkpt lat="44.79677966856074" lon="0.9319245729389213"><ele>212.0</ele><time>2026-05-01T07:30:44Z</time></trkpt><trkpt lat="44.796754235031784" lon="0.9320328113149501"><ele>209.83333333333334</ele><time>2026-05-01T07:30:45Z</time></trkpt><trkpt lat="44.7967485336945" lon="0.9321635778682444"><ele>207.66666666666669</ele><time>2026-05-01T07:30:46Z</time></trkpt><trkpt lat="44.796754529197216" lon="0.9322724511149795"><ele>205.5</ele><time>2026-05-01T07:30:47Z</time></trkpt><trkpt lat="44.79676467453833" lon="0.9323618301287612"><ele>203.33333333333331</ele><time>2026-05-01T07:30:48Z</time></trkpt><trkpt lat="44.79678803671421" lon="0.9325121485454452"><ele>201.16666666666666</ele><time>2026-05-01T07:30:50Z</time></trkpt><trkpt lat="44.796768353637674" lon="0.9326063363259619"><ele>199.0</ele><time>2026-05-01T07:30:52Z</time></trkpt><trkpt lat="44.79680844162559" lon="0.9326793787836776"><ele>198.33333333333331</ele><time>2026-05-01T07:30:55Z</time></trkpt><trkpt lat="44.796881716019065" lon="0.9327672013161419"><ele>197.66666666666666</ele><time>2026-05-01T07:30:57Z</time></trkpt><trkpt lat="44.79690908639973" lon="0.9328492079936427"><ele>197.0</ele><time>2026-05-01T07:30:58Z</time></trkpt><trkpt lat="44.796944429233385" lon="0.9329377215603337"><ele>196.33333333333331</ele><time>2026-05-01T07:30:59Z</time></trkpt><trkpt lat="44.79699501256479" lon="0.9330413502107532"><ele>195.66666666666666</ele><time>2026-05-01T07:31:00Z</time></trkpt><trkpt lat="44.79702542033315" lon="0.9331302367875006"><ele>195.0</ele><time>2026-05-01T07:31:01Z</time></trkpt><trkpt lat="44.79705263655101" lon="0.9332655178548511"><ele>191.8</ele><time>2026-05-01T07:31:03Z</time></trkpt><trkpt lat="44.79707501738125" lon="0.9334345201560694"><ele>188.6</ele><time>2026-05-01T07:31:05Z</time></trkpt><trkpt lat="44.79710445960152" lon="0.9335503509651695"><ele>185.39999999999998</ele><time>2026-05-01T07:31:06Z</time></trkpt><trkpt lat="44.79718575157888" lon="0.9336585895995599"><ele>182.2</ele><time>2026-05-01T07:31:08Z</time></trkpt><trkpt lat="44.797243464547996" lon="0.9336992212130847"><ele>179.0</ele><time>2026-05-01T07:31:09Z</time></trkpt><trkpt lat="44.79730275790019" lon="0.9337609951053344"><ele>179.0</ele><time>2026-05-01T07:31:10Z</time></trkpt><trkpt lat="44.797335911697076" lon="0.9338390735885362"><ele>179.0</ele><time>2026-05-01T07:31:11Z</time></trkpt><trkpt lat="44.79737739793746" lon="0.9339059995862963"><ele>179.0</ele><time>2026-05-01T07:31:12Z</time></trkpt><trkpt lat="44.79747105011752" lon="0.9339574430376548"><ele>179.0</ele><time>2026-05-01T07:31:13Z</time></trkpt><trkpt lat="44.797441879851405" lon="0.9340533307220035"><ele>179.0</ele><time>2026-05-01T07:31:17Z</time></trkpt><trkpt lat="44.7973672647318" lon="0.934087487224473"><ele>179.0</ele><time>2026-05-01T07:31:19Z</time></trkpt><trkpt lat="44.79729702241047" lon="0.9341318049317987"><ele>179.0</ele><time>2026-05-01T07:31:21Z</time></trkpt><trkpt lat="44.79724646666757" lon="0.9342125980025722"><ele>179.0</ele><time>2026-05-01T07:31:24Z</time></trkpt><trkpt lat="44.79722610202449" lon="0.9343548840912738"><ele>179.0</ele><time>2026-05-01T07:31:26Z</time></trkpt><trkpt lat="44.79719226585767" lon="0.9345329717677097"><ele>179.0</ele><time>2026-05-01T07:31:28Z</time></trkpt><trkpt lat="44.797195836819014" lon="0.9346338393324861"><ele>179.0</ele><time>2026-05-01T07:31:29Z</time></trkpt><trkpt lat="44.79717806311976" lon="0.9347712732977033"><ele>177.66666666666666</ele><time>2026-05-01T07:31:31Z</time></trkpt><trkpt lat="44.797156948459694" lon="0.9348648388251741"><ele>176.33333333333331</ele><time>2026-05-01T07:31:32Z</time></trkpt><trkpt lat="44.79715884954396" lon="0.9349570140895974"><ele>175.0</ele><time>2026-05-01T07:31:33Z</time></trkpt><trkpt lat="44.79715279777911" lon="0.93505697535101"><ele>173.66666666666666</ele><time>2026-05-01T07:31:34Z</time></trkpt><trkpt lat="44.79712836664404" lon="0.935154231272925"><ele>172.33333333333334</ele><time>2026-05-01T07:31:35Z</time></trkpt><trkpt lat="44.79706590979562" lon="0.9353092568167852"><ele>171.0</ele><time>2026-05-01T07:31:37Z</time></trkpt><trkpt lat="44.79703596175487" lon="0.9354249285407605"><ele>170.33333333333334</ele><time>2026-05-01T07:31:38Z</time></trkpt><trkpt lat="44.796994667321826" lon="0.9354977680685351"><ele>169.66666666666666</ele><time>2026-05-01T07:31:39Z</time></trkpt><trkpt lat="44.79695487562441" lon="0.9355700750810062"><ele>169.0</ele><time>2026-05-01T07:31:40Z</time></trkpt><trkpt lat="44.79688802931301" lon="0.9357181802240231"><ele>168.33333333333331</ele><time>2026-05-01T07:31:42Z</time></trkpt><trkpt lat="44.79687693889138" lon="0.9358807828294976"><ele>167.66666666666666</ele><time>2026-05-01T07:31:44Z</time></trkpt><trkpt lat="44.796835861378945" lon="0.9359561566569345"><ele>167.0</ele><time>2026-05-01T07:31:45Z</time></trkpt><trkpt lat="44.796769503371465" lon="0.9360165829242264"><ele>164.75</ele><time>2026-05-01T07:31:46Z</time></trkpt><trkpt lat="44.79670707111601" lon="0.9361648755765133"><ele>162.5</ele><time>2026-05-01T07:31:48Z</time></trkpt><trkpt lat="44.79663283720289" lon="0.936282057227467"><ele>160.25</ele><time>2026-05-01T07:31:50Z</time></trkpt><trkpt lat="44.79657910070204" lon="0.9364151110849401"><ele>158.0</ele><time>2026-05-01T07:31:52Z</time></trkpt><trkpt lat="44.79650981397849" lon="0.9365525144445443"><ele>156.75</ele><time>2026-05-01T07:31:54Z</time></trkpt><trkpt lat="44.796480319546255" lon="0.9367280527332755"><ele>155.5</ele><time>2026-05-01T07:31:56Z</time></trkpt><trkpt lat="44.79649734594856" lon="0.9368820260392374"><ele>154.25</ele><time>2026-05-01T07:31:58Z</time></trkpt><trkpt lat="44.796475781812774" lon="0.937030946766166"><ele>153.0</ele><time>2026-05-01T07:32:00Z</time></trkpt><trkpt lat="44.79650858134302" lon="0.937186545266491"><ele>153.0</ele><time>2026-05-01T07:32:02Z</time></trkpt><trkpt lat="44.7965351941145" lon="0.9373005430337042"><ele>153.0</ele><time>2026-05-01T07:32:03Z</time></trkpt><trkpt lat="44.796553707735455" lon="0.9374025988040187"><ele>153.0</ele><time>2026-05-01T07:32:04Z</time></trkpt><trkpt lat="44.79654972993669" lon="0.9374979428102147"><ele>153.0</ele><time>2026-05-01T07:32:05Z</time></trkpt><trkpt lat="44.79656026163449" lon="0.937594557441213"><ele>153.0</ele><time>2026-05-01T07:32:06Z</time></trkpt><trkpt lat="44.796561766545416" lon="0.9376873797861358"><ele>153.0</ele><time>2026-05-01T07:32:08Z</time></trkpt><trkpt lat="44.79653470168262" lon="0.9378533396591571"><ele>150.66666666666666</ele><time>2026-05-01T07:32:10Z</time></trkpt><trkpt lat="44.796525284625424" lon="0.9379463363629399"><ele>148.33333333333334</ele><time>2026-05-01T07:32:11Z</time></trkpt><trkpt lat="44.79651520111061" lon="0.938044097414449"><ele>146.0</ele><time>2026-05-01T07:32:13Z</time></trkpt><trkpt lat="44.79653394368209" lon="0.9381458087411227"><ele>143.66666666666669</ele><time>2026-05-01T07:32:16Z</time></trkpt><trkpt lat="44.796438515177215" lon="0.9381287678215432"><ele>141.33333333333334</ele><time>2026-05-01T07:32:18Z</time></trkpt><trkpt lat="44.796375284136246" lon="0.9381160633079308"><ele>139.0</ele><time>2026-05-01T07:32:19Z</time></trkpt><trkpt lat="44.796286473853755" lon="0.93816373045348"><ele>139.0</ele><time>2026-05-01T07:32:21Z</time></trkpt><trkpt lat="44.79626612981073" lon="0.9382576914248675"><ele>139.0</ele><time>2026-05-01T07:32:22Z</time></trkpt><trkpt lat="44.79622942479983" lon="0.938338067660931"><ele>139.0</ele><time>2026-05-01T07:32:23Z</time></trkpt><trkpt lat="44.79619468203548" lon="0.938430076228605"><ele>139.0</ele><time>2026-05-01T07:32:24Z</time></trkpt><trkpt lat="44.7961727508273" lon="0.9385319128960644"><ele>139.0</ele><time>2026-05-01T07:32:25Z</time></trkpt><trkpt lat="44.79613077156324" lon="0.9386650839148559"><ele>139.0</ele><time>2026-05-01T07:32:26Z</time></trkpt><trkpt lat="44.79608260002922" lon="0.9387511068010106"><ele>138.8</ele><time>2026-05-01T07:32:28Z</time></trkpt><trkpt lat="44.79598471271123" lon="0.9387985088421565"><ele>138.60000000000002</ele><time>2026-05-01T07:32:30Z</time></trkpt><trkpt lat="44.79591250434021" lon="0.9388009104974989"><ele>138.4</ele><time>2026-05-01T07:32:32Z</time></trkpt><trkpt lat="44.79587581379298" lon="0.9387230421220618"><ele>138.20000000000002</ele><time>2026-05-01T07:32:34Z</time></trkpt><trkpt lat="44.795786054985456" lon="0.9386362292214855"><ele>138.0</ele><time>2026-05-01T07:32:36Z</time></trkpt><trkpt lat="44.795689805780306" lon="0.9385834062025337"><ele>138.0</ele><time>2026-05-01T07:32:37Z</time></trkpt><trkpt lat="44.795560299776064" lon="0.9385095187751151"><ele>138.0</ele><time>2026-05-01T07:32:38Z</time></trkpt><trkpt lat="44.79548083396522" lon="0.9384457415751656"><ele>138.0</ele><time>2026-05-01T07:32:39Z</time></trkpt><trkpt lat="44.79541286803813" lon="0.9383428090591527"><ele>138.0</ele><time>2026-05-01T07:32:40Z</time></trkpt><trkpt lat="44.79529982602736" lon="0.9383001883127869"><ele>138.0</ele><time>2026-05-01T07:32:41Z</time></trkpt><trkpt lat="44.79518527118114" lon="0.9382357892640936"><ele>138.5</ele><time>2026-05-01T07:32:42Z</time></trkpt><trkpt lat="44.795114847016904" lon="0.9382083594421249"><ele>139.0</ele><time>2026-05-01T07:32:43Z</time></trkpt><trkpt lat="44.795048884920746" lon="0.9381753903280798"><ele>139.5</ele><time>2026-05-01T07:32:44Z</time></trkpt><trkpt lat="44.79495841482084" lon="0.9381293783090714"><ele>140.0</ele><time>2026-05-01T07:32:45Z</time></trkpt><trkpt lat="44.79487611406813" lon="0.9380750854898394"><ele>140.5</ele><time>2026-05-01T07:32:46Z</time></trkpt><trkpt lat="44.794808979789885" lon="0.9380168277867321"><ele>141.0</ele><time>2026-05-01T07:32:47Z</time></trkpt><trkpt lat="44.7947394476406" lon="0.937985584846779"><ele>141.0</ele><time>2026-05-01T07:32:48Z</time></trkpt><trkpt lat="44.79464519856625" lon="0.9379400196904283"><ele>141.0</ele><time>2026-05-01T07:32:50Z</time></trkpt><trkpt lat="44.794539460775574" lon="0.9379251492729535"><ele>141.0</ele><time>2026-05-01T07:32:53Z</time></trkpt><trkpt lat="44.79442575101502" lon="0.9378183145184258"><ele>141.0</ele><time>2026-05-01T07:32:55Z</time></trkpt><trkpt lat="44.79431803680058" lon="0.9377812833505629"><ele>140.6</ele><time>2026-05-01T07:32:56Z</time></trkpt><trkpt lat="44.79423573780422" lon="0.9377271689158919"><ele>140.2</ele><time>2026-05-01T07:32:57Z</time></trkpt><trkpt lat="44.79416262046571" lon="0.9377075439866875"><ele>139.8</ele><time>2026-05-01T07:32:58Z</time></trkpt><trkpt lat="44.794080168421075" lon="0.9376523832593014"><ele>139.4</ele><time>2026-05-01T07:32:59Z</time></trkpt><trkpt lat="44.793972300568086" lon="0.9375737474654674"><ele>139.0</ele><time>2026-05-01T07:33:00Z</time></trkpt><trkpt lat="44.79390369591268" lon="0.9375338693070083"><ele>139.0</ele><time>2026-05-01T07:33:01Z</time></trkpt><trkpt lat="44.79382955521387" lon="0.9374792377300738"><ele>139.0</ele><time>2026-05-01T07:33:02Z</time></trkpt><trkpt lat="44.79374822201339" lon="0.9374292068899602"><ele>139.0</ele><time>2026-05-01T07:33:03Z</time></trkpt><trkpt lat="44.793676825425" lon="0.9373994112346091"><ele>139.0</ele><time>2026-05-01T07:33:04Z</time></trkpt><trkpt lat="44.79358564111391" lon="0.9373866491314465"><ele>139.0</ele><time>2026-05-01T07:33:05Z</time></trkpt><trkpt lat="44.793517147206316" lon="0.937365868932385"><ele>139.0</ele><time>2026-05-01T07:33:06Z</time></trkpt><trkpt lat="44.79341756055913" lon="0.9373448015780215"><ele>139.33333333333334</ele><time>2026-05-01T07:33:07Z</time></trkpt><trkpt lat="44.79334794406278" lon="0.9373141845255937"><ele>139.66666666666669</ele><time>2026-05-01T07:33:08Z</time></trkpt><trkpt lat="44.79327045788001" lon="0.9373076701188315"><ele>140.0</ele><time>2026-05-01T07:33:09Z</time></trkpt><trkpt lat="44.79317401961512" lon="0.9373371808831683"><ele>140.33333333333334</ele><time>2026-05-01T07:33:11Z</time></trkpt><trkpt lat="44.79310283801358" lon="0.937326404085199"><ele>140.66666666666666</ele><time>2026-05-01T07:33:15Z</time></trkpt><trkpt lat="44.79302375044817" lon="0.9373196667810039"><ele>141.0</ele><time>2026-05-01T07:33:18Z</time></trkpt><trkpt lat="44.792961452029694" lon="0.9372467775747001"><ele>141.0</ele><time>2026-05-01T07:33:19Z</time></trkpt><trkpt lat="44.79288255729605" lon="0.9371619886032221"><ele>141.0</ele><time>2026-05-01T07:33:20Z</time></trkpt><trkpt lat="44.7928092998215" lon="0.9370757469564283"><ele>141.0</ele><time>2026-05-01T07:33:21Z</time></trkpt><trkpt lat="44.79274688268101" lon="0.9369857580450146"><ele>141.0</ele><time>2026-05-01T07:33:22Z</time></trkpt><trkpt lat="44.79268132282401" lon="0.9369015243541484"><ele>141.0</ele><time>2026-05-01T07:33:23Z</time></trkpt><trkpt lat="44.792616378114026" lon="0.9368006796520257"><ele>141.16666666666666</ele><time>2026-05-01T07:33:24Z</time></trkpt><trkpt lat="44.79254295783695" lon="0.9367070698867304"><ele>141.33333333333334</ele><time>2026-05-01T07:33:25Z</time></trkpt><trkpt lat="44.792471725120194" lon="0.9366394186396485"><ele>141.5</ele><time>2026-05-01T07:33:26Z</time></trkpt><trkpt lat="44.79239624247164" lon="0.9366421506995924"><ele>141.66666666666669</ele><time>2026-05-01T07:33:30Z</time></trkpt><trkpt lat="44.79230495226715" lon="0.9366606917422089"><ele>141.83333333333334</ele><time>2026-05-01T07:33:32Z</time></trkpt><trkpt lat="44.79224548682757" lon="0.9366993428599385"><ele>142.0</ele><time>2026-05-01T07:33:33Z</time></trkpt><trkpt lat="44.79215582067874" lon="0.9367175062407279"><ele>142.0</ele><time>2026-05-01T07:33:34Z</time></trkpt><trkpt lat="44.79207209922458" lon="0.9367744925228118"><ele>142.0</ele><time>2026-05-01T07:33:35Z</time></trkpt><trkpt lat="44.79199315500294" lon="0.9368511930753579"><ele>142.0</ele><time>2026-05-01T07:33:36Z</time></trkpt><trkpt lat="44.7918861883929" lon="0.9368588542665688"><ele>142.0</ele><time>2026-05-01T07:33:38Z</time></trkpt><trkpt lat="44.79189203882602" lon="0.9367655905851242"><ele>142.0</ele><time>2026-05-01T07:33:41Z</time></trkpt><trkpt lat="44.79195178301272" lon="0.9366438760924201"><ele>142.0</ele><time>2026-05-01T07:33:43Z</time></trkpt><trkpt lat="44.791991797626395" lon="0.9365678416635562"><ele>142.0</ele><time>2026-05-01T07:33:44Z</time></trkpt><trkpt lat="44.792022359822184" lon="0.9364542519893186"><ele>142.0</ele><time>2026-05-01T07:33:45Z</time></trkpt><trkpt lat="44.792053178668546" lon="0.9363441118928638"><ele>142.0</ele><time>2026-05-01T07:33:46Z</time></trkpt><trkpt lat="44.79205819932311" lon="0.9362540709699302"><ele>142.0</ele><time>2026-05-01T07:33:47Z</time></trkpt><trkpt lat="44.79199530299544" lon="0.9361701467220682"><ele>142.0</ele><time>2026-05-01T07:33:49Z</time></trkpt><trkpt lat="44.79193407912694" lon="0.9361061575830277"><ele>142.0</ele><time>2026-05-01T07:33:50Z</time></trkpt><trkpt lat="44.791880330234854" lon="0.9360037640902464"><ele>142.0</ele><time>2026-05-01T07:33:51Z</time></trkpt><trkpt lat="44.791846100692624" lon="0.9358736621441907"><ele>142.0</ele><time>2026-05-01T07:33:52Z</time></trkpt><trkpt lat="44.79180568996693" lon="0.935772286711572"><ele>142.0</ele><time>2026-05-01T07:33:53Z</time></trkpt><trkpt lat="44.7917544423752" lon="0.9356743506901742"><ele>142.0</ele><time>2026-05-01T07:33:54Z</time></trkpt><trkpt lat="44.791700986459304" lon="0.9355497592416995"><ele>144.79999999999998</ele><time>2026-05-01T07:33:55Z</time></trkpt><trkpt lat="44.79166088752629" lon="0.9354420218654905"><ele>147.6</ele><time>2026-05-01T07:33:56Z</time></trkpt><trkpt lat="44.79162870440547" lon="0.9353162649897757"><ele>150.39999999999998</ele><time>2026-05-01T07:33:57Z</time></trkpt><trkpt lat="44.79159876278784" lon="0.9352014377544172"><ele>153.2</ele><time>2026-05-01T07:33:58Z</time></trkpt><trkpt lat="44.791579843604545" lon="0.9350945279378006"><ele>156.0</ele><time>2026-05-01T07:33:59Z</time></trkpt><trkpt lat="44.79151963637117" lon="0.9349189638530366"><ele>156.0</ele><time>2026-05-01T07:34:00Z</time></trkpt><trkpt lat="44.79146877775052" lon="0.9347307890327973"><ele>156.0</ele><time>2026-05-01T07:34:01Z</time></trkpt><trkpt lat="44.79143552533217" lon="0.9345744529958029"><ele>156.0</ele><time>2026-05-01T07:34:02Z</time></trkpt><trkpt lat="44.79138590652278" lon="0.9343939043728682"><ele>156.0</ele><time>2026-05-01T07:34:03Z</time></trkpt><trkpt lat="44.791325306242925" lon="0.9341984556265617"><ele>156.25</ele><time>2026-05-01T07:34:04Z</time></trkpt><trkpt lat="44.79125527260078" lon="0.9340126907303544"><ele>156.5</ele><time>2026-05-01T07:34:05Z</time></trkpt><trkpt lat="44.79119786600213" lon="0.9338220566030098"><ele>156.75</ele><time>2026-05-01T07:34:06Z</time></trkpt><trkpt lat="44.7911641008585" lon="0.9336880023838368"><ele>157.0</ele><time>2026-05-01T07:34:07Z</time></trkpt><trkpt lat="44.79111922038553" lon="0.9335724473722697"><ele>157.0</ele><time>2026-05-01T07:34:08Z</time></trkpt><trkpt lat="44.79106103479097" lon="0.9334653271691603"><ele>157.0</ele><time>2026-05-01T07:34:09Z</time></trkpt><trkpt lat="44.7909778073936" lon="0.933327315460285"><ele>157.0</ele><time>2026-05-01T07:34:10Z</time></trkpt><trkpt lat="44.79089936258731" lon="0.9332408690195875"><ele>157.0</ele><time>2026-05-01T07:34:11Z</time></trkpt><trkpt lat="44.790837947193566" lon="0.9331881776156371"><ele>157.0</ele><time>2026-05-01T07:34:12Z</time></trkpt><trkpt lat="44.790759587837236" lon="0.9331392935627421"><ele>159.5</ele><time>2026-05-01T07:34:13Z</time></trkpt><trkpt lat="44.790708601612145" lon="0.9330754077762549"><ele>162.0</ele><time>2026-05-01T07:34:14Z</time></trkpt><trkpt lat="44.790674015892264" lon="0.9329951148574029"><ele>164.5</ele><time>2026-05-01T07:34:15Z</time></trkpt><trkpt lat="44.79064532102544" lon="0.9328874062735051"><ele>167.0</ele><time>2026-05-01T07:34:17Z</time></trkpt><trkpt lat="44.79060634163612" lon="0.9327729303353778"><ele>169.5</ele><time>2026-05-01T07:34:19Z</time></trkpt><trkpt lat="44.79059588393612" lon="0.932661017264574"><ele>172.0</ele><time>2026-05-01T07:34:21Z</time></trkpt><trkpt lat="44.790606913096696" lon="0.9325378542303497"><ele>173.0</ele><time>2026-05-01T07:34:23Z</time></trkpt><trkpt lat="44.79059348327042" lon="0.9324094031675358"><ele>174.0</ele><time>2026-05-01T07:34:24Z</time></trkpt><trkpt lat="44.790576788420815" lon="0.9323136967872064"><ele>175.0</ele><time>2026-05-01T07:34:25Z</time></trkpt><trkpt lat="44.790579436359735" lon="0.9321858635121076"><ele>176.0</ele><time>2026-05-01T07:34:27Z</time></trkpt><trkpt lat="44.79058760953373" lon="0.9320665099336208"><ele>177.0</ele><time>2026-05-01T07:34:29Z</time></trkpt><trkpt lat="44.79055184431381" lon="0.931960591332721"><ele>178.0</ele><time>2026-05-01T07:34:31Z</time></trkpt><trkpt lat="44.790537935365926" lon="0.9318532720041937"><ele>180.33333333333334</ele><time>2026-05-01T07:34:33Z</time></trkpt><trkpt lat="44.79054730600092" lon="0.9317081492509981"><ele>182.66666666666669</ele><time>2026-05-01T07:34:35Z</time></trkpt><trkpt lat="44.790597320029974" lon="0.9316422841118145"><ele>185.0</ele><time>2026-05-01T07:34:37Z</time></trkpt><trkpt lat="44.79056947278356" lon="0.9315491133992141"><ele>187.33333333333334</ele><time>2026-05-01T07:34:39Z</time></trkpt><trkpt lat="44.790559100935475" lon="0.9314364060539707"><ele>189.66666666666666</ele><time>2026-05-01T07:34:41Z</time></trkpt><trkpt lat="44.79054826358887" lon="0.9313396714635794"><ele>192.0</ele><time>2026-05-01T07:34:43Z</time></trkpt><trkpt lat="44.790553466252874" lon="0.9312377873489922"><ele>192.0</ele><time>2026-05-01T07:34:46Z</time></trkpt><trkpt lat="44.79056643543631" lon="0.9311105819103215"><ele>192.0</ele><time>2026-05-01T07:34:48Z</time></trkpt><trkpt lat="44.790572564545" lon="0.931000830519479"><ele>192.0</ele><time>2026-05-01T07:34:50Z</time></trkpt><trkpt lat="44.79062768900531" lon="0.9309534069934344"><ele>192.0</ele><time>2026-05-01T07:34:54Z</time></trkpt><trkpt lat="44.7906184595602" lon="0.9308456007870889"><ele>192.0</ele><time>2026-05-01T07:34:57Z</time></trkpt><trkpt lat="44.790541756749064" lon="0.9307535641252122"><ele>192.0</ele><time>2026-05-01T07:35:06Z</time></trkpt><trkpt lat="44.79054023098655" lon="0.9306220954516821"><ele>193.83333333333334</ele><time>2026-05-01T07:35:08Z</time></trkpt><trkpt lat="44.79054310601935" lon="0.9305278066813646"><ele>195.66666666666669</ele><time>2026-05-01T07:35:10Z</time></trkpt><trkpt lat="44.790642670291795" lon="0.9304664317107044"><ele>197.5</ele><time>2026-05-01T07:35:13Z</time></trkpt><trkpt lat="44.790692311749424" lon="0.9303702218851475"><ele>199.33333333333334</ele><time>2026-05-01T07:35:15Z</time></trkpt><trkpt lat="44.790730383692775" lon="0.9302667984374705"><ele>201.16666666666669</ele><time>2026-05-01T07:35:16Z</time></trkpt><trkpt lat="44.790762225058906" lon="0.9301686360198059"><ele>203.0</ele><time>2026-05-01T07:35:18Z</time></trkpt><trkpt lat="44.790752371715506" lon="0.9300697460497702"><ele>204.16666666666669</ele><time>2026-05-01T07:35:19Z</time></trkpt><trkpt lat="44.79075734568497" lon="0.9299674811574402"><ele>205.33333333333334</ele><time>2026-05-01T07:35:20Z</time></trkpt><trkpt lat="44.79078703988602" lon="0.9298663590662207"><ele>206.5</ele><time>2026-05-01T07:35:21Z</time></trkpt><trkpt lat="44.790809537566986" lon="0.9297783558593071"><ele>207.66666666666669</ele><time>2026-05-01T07:35:22Z</time></trkpt><trkpt lat="44.79083681409474" lon="0.9296530753241076"><ele>208.83333333333334</ele><time>2026-05-01T07:35:24Z</time></trkpt><trkpt lat="44.79085197425409" lon="0.9295177917963838"><ele>210.0</ele><time>2026-05-01T07:35:26Z</time></trkpt><trkpt lat="44.79074759463498" lon="0.9294612081575395"><ele>210.0</ele><time>2026-05-01T07:35:29Z</time></trkpt><trkpt lat="44.79066264272326" lon="0.9294661832582852"><ele>210.0</ele><time>2026-05-01T07:35:30Z</time></trkpt><trkpt lat="44.79058883694895" lon="0.9294342249008324"><ele>210.0</ele><time>2026-05-01T07:35:31Z</time></trkpt><trkpt lat="44.790506732911965" lon="0.9293772772230321"><ele>210.0</ele><time>2026-05-01T07:35:32Z</time></trkpt><trkpt lat="44.79042260684782" lon="0.92932967064014"><ele>210.0</ele><time>2026-05-01T07:35:33Z</time></trkpt><trkpt lat="44.790338783017326" lon="0.9292575337055148"><ele>210.0</ele><time>2026-05-01T07:35:34Z</time></trkpt><trkpt lat="44.790268122747925" lon="0.9291983808941785"><ele>210.33333333333334</ele><time>2026-05-01T07:35:35Z</time></trkpt><trkpt lat="44.79019048265947" lon="0.9291249370947083"><ele>210.66666666666669</ele><time>2026-05-01T07:35:36Z</time></trkpt><trkpt lat="44.790119155520145" lon="0.9290782163810294"><ele>211.0</ele><time>2026-05-01T07:35:37Z</time></trkpt><trkpt lat="44.79005423943131" lon="0.9290604542869366"><ele>211.33333333333334</ele><time>2026-05-01T07:35:38Z</time></trkpt><trkpt lat="44.78996416498842" lon="0.9290479588583315"><ele>211.66666666666669</ele><time>2026-05-01T07:35:39Z</time></trkpt><trkpt lat="44.78988792122583" lon="0.9290191813365343"><ele>212.0</ele><time>2026-05-01T07:35:40Z</time></trkpt><trkpt lat="44.789805681025335" lon="0.9289421197877066"><ele>213.8</ele><time>2026-05-01T07:35:42Z</time></trkpt><trkpt lat="44.78971717064808" lon="0.9289220549492455"><ele>215.6</ele><time>2026-05-01T07:35:44Z</time></trkpt><trkpt lat="44.789627605111036" lon="0.9289899566181249"><ele>217.40000000000003</ele><time>2026-05-01T07:35:46Z</time></trkpt><trkpt lat="44.78954313726324" lon="0.9289983945469231"><ele>219.20000000000002</ele><time>2026-05-01T07:35:47Z</time></trkpt><trkpt lat="44.789427432681855" lon="0.9290509008824597"><ele>221.0</ele><time>2026-05-01T07:35:49Z</time></trkpt><trkpt lat="44.78935741785544" lon="0.929102333667924"><ele>223.0</ele><time>2026-05-01T07:35:50Z</time></trkpt><trkpt lat="44.789283871475945" lon="0.9290965653431161"><ele>225.00000000000003</ele><time>2026-05-01T07:35:51Z</time></trkpt><trkpt lat="44.78922376655439" lon="0.9290443871175476"><ele>227.00000000000003</ele><time>2026-05-01T07:35:52Z</time></trkpt><trkpt lat="44.78910178818361" lon="0.9290016104747373"><ele>229.0</ele><time>2026-05-01T07:35:54Z</time></trkpt><trkpt lat="44.789023252833864" lon="0.9289914975709438"><ele>231.0</ele><time>2026-05-01T07:35:55Z</time></trkpt><trkpt lat="44.788901708411125" lon="0.929064062556701"><ele>231.0</ele><time>2026-05-01T07:35:57Z</time></trkpt><trkpt lat="44.78881167975756" lon="0.9291188340690987"><ele>231.00000000000003</ele><time>2026-05-01T07:35:58Z</time></trkpt><trkpt lat="44.78873200115671" lon="0.9291653432942323"><ele>231.00000000000003</ele><time>2026-05-01T07:35:59Z</time></trkpt><trkpt lat="44.788620304403935" lon="0.9292088491673947"><ele>231.0</ele><time>2026-05-01T07:36:00Z</time></trkpt><trkpt lat="44.78852709737645" lon="0.9292665009416692"><ele>231.0</ele><time>2026-05-01T07:36:01Z</time></trkpt><trkpt lat="44.78846497331761" lon="0.9293421987747968"><ele>231.33333333333334</ele><time>2026-05-01T07:36:02Z</time></trkpt><trkpt lat="44.78837684270869" lon="0.9294110504771531"><ele>231.66666666666669</ele><time>2026-05-01T07:36:04Z</time></trkpt><trkpt lat="44.78832254508269" lon="0.9295575502416752"><ele>232.0</ele><time>2026-05-01T07:36:06Z</time></trkpt><trkpt lat="44.78829262570408" lon="0.9296506537168961"><ele>232.33333333333334</ele><time>2026-05-01T07:36:08Z</time></trkpt><trkpt lat="44.78822678579977" lon="0.9296998470058843"><ele>232.66666666666669</ele><time>2026-05-01T07:36:10Z</time></trkpt><trkpt lat="44.78816127787813" lon="0.9296463095463474"><ele>233.0</ele><time>2026-05-01T07:36:12Z</time></trkpt><trkpt lat="44.7880744264633" lon="0.9294990112189243"><ele>233.0</ele><time>2026-05-01T07:36:14Z</time></trkpt><trkpt lat="44.788029831857706" lon="0.9293960309308775"><ele>233.0</ele><time>2026-05-01T07:36:15Z</time></trkpt><trkpt lat="44.787936827474475" lon="0.9292935152223464"><ele>233.0</ele><time>2026-05-01T07:36:16Z</time></trkpt><trkpt lat="44.78783608703318" lon="0.9292017856641942"><ele>233.0</ele><time>2026-05-01T07:36:17Z</time></trkpt><trkpt lat="44.787765378812296" lon="0.9291567086710789"><ele>233.0</ele><time>2026-05-01T07:36:18Z</time></trkpt><trkpt lat="44.78766230416088" lon="0.9290328048415193"><ele>234.0</ele><time>2026-05-01T07:36:19Z</time></trkpt><trkpt lat="44.78757869059946" lon="0.9289237229004135"><ele>235.0</ele><time>2026-05-01T07:36:20Z</time></trkpt><trkpt lat="44.78750755581723" lon="0.9288489413202571"><ele>236.0</ele><time>2026-05-01T07:36:21Z</time></trkpt><trkpt lat="44.78742601858837" lon="0.9288155211690993"><ele>237.0</ele><time>2026-05-01T07:36:22Z</time></trkpt><trkpt lat="44.787357325546104" lon="0.9287885851576425"><ele>238.0</ele><time>2026-05-01T07:36:23Z</time></trkpt><trkpt lat="44.78726727189875" lon="0.928600716379788"><ele>237.99999999999997</ele><time>2026-05-01T07:36:25Z</time></trkpt><trkpt lat="44.787213657620576" lon="0.928527386906595"><ele>238.0</ele><time>2026-05-01T07:36:26Z</time></trkpt><trkpt lat="44.787148573870056" lon="0.9284560696368664"><ele>238.0</ele><time>2026-05-01T07:36:27Z</time></trkpt><trkpt lat="44.7870955340297" lon="0.9283972066255582"><ele>238.0</ele><time>2026-05-01T07:36:28Z</time></trkpt><trkpt lat="44.787018003931294" lon="0.9284154479213392"><ele>237.99999999999997</ele><time>2026-05-01T07:36:32Z</time></trkpt><trkpt lat="44.786976008567216" lon="0.928569141217755"><ele>238.0</ele><time>2026-05-01T07:36:34Z</time></trkpt><trkpt lat="44.786948433929446" lon="0.928653338906709"><ele>237.99999999999997</ele><time>2026-05-01T07:36:35Z</time></trkpt><trkpt lat="44.78691337761389" lon="0.9287535086910265"><ele>238.0</ele><time>2026-05-01T07:36:36Z</time></trkpt><trkpt lat="44.78688404741162" lon="0.9288558433659987"><ele>238.0</ele><time>2026-05-01T07:36:37Z</time></trkpt><trkpt lat="44.78684952219545" lon="0.9289563477985486"><ele>238.0</ele><time>2026-05-01T07:36:38Z</time></trkpt><trkpt lat="44.78681798679124" lon="0.9290660257700389"><ele>237.99999999999997</ele><time>2026-05-01T07:36:39Z</time></trkpt><trkpt lat="44.78678700439469" lon="0.9291525633137245"><ele>238.0</ele><time>2026-05-01T07:36:40Z</time></trkpt><trkpt lat="44.78674099802634" lon="0.9292899428660375"><ele>237.49999999999997</ele><time>2026-05-01T07:36:42Z</time></trkpt><trkpt lat="44.786714174893184" lon="0.9293733909661728"><ele>237.0</ele><time>2026-05-01T07:36:44Z</time></trkpt><trkpt lat="44.78665144419552" lon="0.9293920327006142"><ele>236.5</ele><time>2026-05-01T07:38:01Z</time></trkpt><trkpt lat="44.78655454067428" lon="0.9293509690974283"><ele>236.0</ele><time>2026-05-01T07:38:07Z</time></trkpt><trkpt lat="44.78647711950221" lon="0.9292773865462091"><ele>235.49999999999997</ele><time>2026-05-01T07:38:09Z</time></trkpt><trkpt lat="44.78641714886343" lon="0.9292438503261392"><ele>235.0</ele><time>2026-05-01T07:38:10Z</time></trkpt><trkpt lat="44.7863433232004" lon="0.9291992376165427"><ele>235.0</ele><time>2026-05-01T07:38:11Z</time></trkpt><trkpt lat="44.78625795439833" lon="0.9291520714858601"><ele>235.0</ele><time>2026-05-01T07:38:12Z</time></trkpt><trkpt lat="44.78615320253242" lon="0.9290987515870368"><ele>235.0</ele><time>2026-05-01T07:38:13Z</time></trkpt><trkpt lat="44.78605420799021" lon="0.9290376151804001"><ele>235.0</ele><time>2026-05-01T07:38:14Z</time></trkpt><trkpt lat="44.78595233087575" lon="0.9289788803012795"><ele>235.0</ele><time>2026-05-01T07:38:15Z</time></trkpt><trkpt lat="44.7858550942156" lon="0.9289245221778224"><ele>234.6</ele><time>2026-05-01T07:38:16Z</time></trkpt><trkpt lat="44.78575222596708" lon="0.9288672820377958"><ele>234.2</ele><time>2026-05-01T07:38:17Z</time></trkpt><trkpt lat="44.785650821390675" lon="0.9288107478983622"><ele>233.8</ele><time>2026-05-01T07:38:18Z</time></trkpt><trkpt lat="44.78554767592082" lon="0.928756044300806"><ele>233.4</ele><time>2026-05-01T07:38:19Z</time></trkpt><trkpt lat="44.78545505992669" lon="0.9286926174045191"><ele>233.0</ele><time>2026-05-01T07:38:20Z</time></trkpt><trkpt lat="44.78536387578721" lon="0.9286463866482617"><ele>233.00000000000003</ele><time>2026-05-01T07:38:21Z</time></trkpt><trkpt lat="44.785281324450466" lon="0.9285876880132916"><ele>233.0</ele><time>2026-05-01T07:38:22Z</time></trkpt><trkpt lat="44.78522388502908" lon="0.9285406029983484"><ele>233.0</ele><time>2026-05-01T07:38:23Z</time></trkpt><trkpt lat="44.78514479524663" lon="0.9285052353070513"><ele>233.0</ele><time>2026-05-01T07:38:24Z</time></trkpt><trkpt lat="44.78508349092503" lon="0.928470460032477"><ele>233.00000000000003</ele><time>2026-05-01T07:38:25Z</time></trkpt><trkpt lat="44.78496797267248" lon="0.928397621820319"><ele>233.0</ele><time>2026-05-01T07:38:27Z</time></trkpt><trkpt lat="44.784910217908156" lon="0.9283593073315719"><ele>233.2</ele><time>2026-05-01T07:38:28Z</time></trkpt><trkpt lat="44.78478586050103" lon="0.9283019997328981"><ele>233.4</ele><time>2026-05-01T07:38:30Z</time></trkpt><trkpt lat="44.784697824197536" lon="0.9282548185327687"><ele>233.59999999999997</ele><time>2026-05-01T07:38:31Z</time></trkpt><trkpt lat="44.78461685829443" lon="0.9282094741850377"><ele>233.79999999999998</ele><time>2026-05-01T07:38:32Z</time></trkpt><trkpt lat="44.7845447774856" lon="0.9281830199387006"><ele>234.0</ele><time>2026-05-01T07:38:33Z</time></trkpt><trkpt lat="44.78446359445315" lon="0.9281364475539884"><ele>234.0</ele><time>2026-05-01T07:38:34Z</time></trkpt><trkpt lat="44.78437694704676" lon="0.9280930939911413"><ele>233.99999999999997</ele><time>2026-05-01T07:38:35Z</time></trkpt><trkpt lat="44.78427698332215" lon="0.9280427736769492"><ele>233.99999999999997</ele><time>2026-05-01T07:38:36Z</time></trkpt><trkpt lat="44.78418132065324" lon="0.9279921015057307"><ele>234.0</ele><time>2026-05-01T07:38:37Z</time></trkpt><trkpt lat="44.78408254936617" lon="0.9279338071004591"><ele>234.0</ele><time>2026-05-01T07:38:38Z</time></trkpt><trkpt lat="44.783993890698234" lon="0.9278832728929898"><ele>234.0</ele><time>2026-05-01T07:38:39Z</time></trkpt><trkpt lat="44.78390025364513" lon="0.9278317448200804"><ele>233.99999999999997</ele><time>2026-05-01T07:38:40Z</time></trkpt><trkpt lat="44.783804321977556" lon="0.9277934119236756"><ele>233.99999999999997</ele><time>2026-05-01T07:38:41Z</time></trkpt><trkpt lat="44.78371264011924" lon="0.9277337268149957"><ele>234.0</ele><time>2026-05-01T07:38:42Z</time></trkpt><trkpt lat="44.7836236264349" lon="0.9276839144136865"><ele>234.0</ele><time>2026-05-01T07:38:43Z</time></trkpt><trkpt lat="44.783562032422864" lon="0.9276476453959234"><ele>234.0</ele><time>2026-05-01T07:38:44Z</time></trkpt><trkpt lat="44.78349021237982" lon="0.927613431150689"><ele>234.0</ele><time>2026-05-01T07:38:45Z</time></trkpt><trkpt lat="44.783408312635636" lon="0.9275693547671727"><ele>234.0</ele><time>2026-05-01T07:38:46Z</time></trkpt><trkpt lat="44.783349502203755" lon="0.9275286881675849"><ele>234.0</ele><time>2026-05-01T07:38:47Z</time></trkpt><trkpt lat="44.78330847021754" lon="0.927623588964415"><ele>234.0</ele><time>2026-05-01T07:38:51Z</time></trkpt><trkpt lat="44.783289062591415" lon="0.9277212132010622"><ele>234.0</ele><time>2026-05-01T07:38:52Z</time></trkpt><trkpt lat="44.78325881225794" lon="0.9278187025010258"><ele>233.79999999999998</ele><time>2026-05-01T07:38:53Z</time></trkpt><trkpt lat="44.78321976028181" lon="0.9279153454307528"><ele>233.59999999999997</ele><time>2026-05-01T07:38:54Z</time></trkpt><trkpt lat="44.783169667112524" lon="0.9280219591999246"><ele>233.4</ele><time>2026-05-01T07:38:55Z</time></trkpt><trkpt lat="44.78311228715517" lon="0.9281389060549802"><ele>233.2</ele><time>2026-05-01T07:38:56Z</time></trkpt><trkpt lat="44.783046065835734" lon="0.9282692161984183"><ele>233.0</ele><time>2026-05-01T07:38:57Z</time></trkpt><trkpt lat="44.78296874786587" lon="0.9284015210896087"><ele>232.8</ele><time>2026-05-01T07:38:58Z</time></trkpt><trkpt lat="44.78289825816727" lon="0.9285442147800835"><ele>232.60000000000002</ele><time>2026-05-01T07:38:59Z</time></trkpt><trkpt lat="44.78283824788449" lon="0.9286707280453395"><ele>232.39999999999998</ele><time>2026-05-01T07:39:00Z</time></trkpt><trkpt lat="44.782794707168435" lon="0.9287801364979512"><ele>232.2</ele><time>2026-05-01T07:39:01Z</time></trkpt><trkpt lat="44.78274569677261" lon="0.9288772298982902"><ele>232.0</ele><time>2026-05-01T07:39:02Z</time></trkpt><trkpt lat="44.78271220819654" lon="0.9289864754119433"><ele>231.83333333333331</ele><time>2026-05-01T07:39:03Z</time></trkpt><trkpt lat="44.78266666232538" lon="0.9290810287595553"><ele>231.66666666666666</ele><time>2026-05-01T07:39:04Z</time></trkpt><trkpt lat="44.78262009855259" lon="0.9291632925552714"><ele>231.5</ele><time>2026-05-01T07:39:05Z</time></trkpt><trkpt lat="44.78257387575375" lon="0.9292587539603587"><ele>231.33333333333331</ele><time>2026-05-01T07:39:06Z</time></trkpt><trkpt lat="44.78252711849229" lon="0.9293590289032547"><ele>231.16666666666666</ele><time>2026-05-01T07:39:07Z</time></trkpt><trkpt lat="44.78249077416147" lon="0.929440166174882"><ele>231.0</ele><time>2026-05-01T07:39:08Z</time></trkpt><trkpt lat="44.78245420019435" lon="0.9295153049034072"><ele>230.8</ele><time>2026-05-01T07:39:09Z</time></trkpt><trkpt lat="44.78240135467844" lon="0.9296345597473602"><ele>230.60000000000002</ele><time>2026-05-01T07:39:11Z</time></trkpt><trkpt lat="44.7823390135931" lon="0.9297619411005874"><ele>230.4</ele><time>2026-05-01T07:39:14Z</time></trkpt><trkpt lat="44.782306922668546" lon="0.9298393881171059"><ele>230.2</ele><time>2026-05-01T07:39:15Z</time></trkpt><trkpt lat="44.782242218790444" lon="0.9299692307721219"><ele>230.0</ele><time>2026-05-01T07:39:17Z</time></trkpt><trkpt lat="44.782170867777815" lon="0.9300948143769036"><ele>229.6</ele><time>2026-05-01T07:39:19Z</time></trkpt><trkpt lat="44.78211538481601" lon="0.9302260815439999"><ele>229.2</ele><time>2026-05-01T07:39:21Z</time></trkpt><trkpt lat="44.782062101835365" lon="0.930365280855151"><ele>228.8</ele><time>2026-05-01T07:39:23Z</time></trkpt><trkpt lat="44.78201445302313" lon="0.9304755356480322"><ele>228.4</ele><time>2026-05-01T07:39:25Z</time></trkpt><trkpt lat="44.78196172281888" lon="0.9305849511767836"><ele>228.0</ele><time>2026-05-01T07:39:27Z</time></trkpt><trkpt lat="44.78190914554112" lon="0.9306755808561371"><ele>228.4</ele><time>2026-05-01T07:39:29Z</time></trkpt><trkpt lat="44.78184792678866" lon="0.930796362978289"><ele>228.8</ele><time>2026-05-01T07:39:31Z</time></trkpt><trkpt lat="44.781773759294154" lon="0.9309400877701615"><ele>229.2</ele><time>2026-05-01T07:39:33Z</time></trkpt><trkpt lat="44.78172791434108" lon="0.9310275240530411"><ele>229.6</ele><time>2026-05-01T07:39:34Z</time></trkpt><trkpt lat="44.7816737548516" lon="0.9311204488066062"><ele>230.0</ele><time>2026-05-01T07:39:35Z</time></trkpt><trkpt lat="44.781622725831554" lon="0.931231241423604"><ele>229.33333333333334</ele><time>2026-05-01T07:39:36Z</time></trkpt><trkpt lat="44.78157451394237" lon="0.9313379607458728"><ele>228.66666666666669</ele><time>2026-05-01T07:39:37Z</time></trkpt><trkpt lat="44.781538906085686" lon="0.9314236484788246"><ele>228.0</ele><time>2026-05-01T07:39:38Z</time></trkpt><trkpt lat="44.78150352760705" lon="0.9314979999098882"><ele>227.33333333333331</ele><time>2026-05-01T07:39:39Z</time></trkpt><trkpt lat="44.78145375402429" lon="0.9316364051745174"><ele>226.66666666666666</ele><time>2026-05-01T07:39:41Z</time></trkpt><trkpt lat="44.78139910556035" lon="0.9317111707489961"><ele>226.0</ele><time>2026-05-01T07:39:43Z</time></trkpt><trkpt lat="44.781294490391005" lon="0.9317290011676916"><ele>225.75</ele><time>2026-05-01T07:39:45Z</time></trkpt><trkpt lat="44.78118718570919" lon="0.9317306928308844"><ele>225.5</ele><time>2026-05-01T07:39:46Z</time></trkpt><trkpt lat="44.781072330305605" lon="0.9317336466148857"><ele>225.25</ele><time>2026-05-01T07:39:47Z</time></trkpt><trkpt lat="44.78095664975985" lon="0.9317353370681264"><ele>225.0</ele><time>2026-05-01T07:39:48Z</time></trkpt><trkpt lat="44.780835710112115" lon="0.9317385385583931"><ele>225.0</ele><time>2026-05-01T07:39:49Z</time></trkpt><trkpt lat="44.780715612192054" lon="0.9317530612244207"><ele>225.0</ele><time>2026-05-01T07:39:50Z</time></trkpt><trkpt lat="44.780594209682576" lon="0.9317189790332968"><ele>225.0</ele><time>2026-05-01T07:39:51Z</time></trkpt><trkpt lat="44.78046882614537" lon="0.9316900606078067"><ele>225.0</ele><time>2026-05-01T07:39:52Z</time></trkpt><trkpt lat="44.78033742440835" lon="0.931658356072227"><ele>225.0</ele><time>2026-05-01T07:39:53Z</time></trkpt><trkpt lat="44.780214628707796" lon="0.9316238496119751"><ele>225.0</ele><time>2026-05-01T07:39:54Z</time></trkpt><trkpt lat="44.78009524007982" lon="0.9315949510009145"><ele>225.0</ele><time>2026-05-01T07:39:55Z</time></trkpt><trkpt lat="44.779989032333695" lon="0.9315593573971925"><ele>225.0</ele><time>2026-05-01T07:39:56Z</time></trkpt><trkpt lat="44.77987421114815" lon="0.9315279214123634"><ele>224.6</ele><time>2026-05-01T07:39:57Z</time></trkpt><trkpt lat="44.779771283750506" lon="0.9315107382158777"><ele>224.2</ele><time>2026-05-01T07:39:58Z</time></trkpt><trkpt lat="44.77968277107883" lon="0.9314983978168596"><ele>223.8</ele><time>2026-05-01T07:39:59Z</time></trkpt><trkpt lat="44.779600507419296" lon="0.931482605649133"><ele>223.4</ele><time>2026-05-01T07:40:00Z</time></trkpt><trkpt lat="44.77955369414491" lon="0.9313967394845377"><ele>223.0</ele><time>2026-05-01T07:40:03Z</time></trkpt><trkpt lat="44.7796011064537" lon="0.9312530589337292"><ele>223.0</ele><time>2026-05-01T07:40:05Z</time></trkpt><trkpt lat="44.779640934921716" lon="0.9311530659077354"><ele>223.0</ele><time>2026-05-01T07:40:06Z</time></trkpt><trkpt lat="44.77968038746607" lon="0.9310201245473813"><ele>223.0</ele><time>2026-05-01T07:40:07Z</time></trkpt><trkpt lat="44.77970299473245" lon="0.930848126565812"><ele>223.0</ele><time>2026-05-01T07:40:08Z</time></trkpt><trkpt lat="44.77971046961877" lon="0.9306770872980665"><ele>223.0</ele><time>2026-05-01T07:40:09Z</time></trkpt><trkpt lat="44.779727391600304" lon="0.9305130034014436"><ele>222.8</ele><time>2026-05-01T07:40:10Z</time></trkpt><trkpt lat="44.77973078597554" lon="0.9303552981276348"><ele>222.60000000000002</ele><time>2026-05-01T07:40:11Z</time></trkpt><trkpt lat="44.77972643222695" lon="0.930197501061308"><ele>222.39999999999998</ele><time>2026-05-01T07:40:12Z</time></trkpt><trkpt lat="44.77973193694614" lon="0.9300400578876707"><ele>222.2</ele><time>2026-05-01T07:40:13Z</time></trkpt><trkpt lat="44.77974020826094" lon="0.929885578007425"><ele>222.0</ele><time>2026-05-01T07:40:14Z</time></trkpt><trkpt lat="44.77976657579753" lon="0.9297329067157278"><ele>222.0</ele><time>2026-05-01T07:40:15Z</time></trkpt><trkpt lat="44.77979201963091" lon="0.9295709120040708"><ele>222.0</ele><time>2026-05-01T07:40:16Z</time></trkpt><trkpt lat="44.779849017486015" lon="0.9294291293594801"><ele>222.0</ele><time>2026-05-01T07:40:17Z</time></trkpt><trkpt lat="44.77985170642997" lon="0.9293184526125573"><ele>222.0</ele><time>2026-05-01T07:40:18Z</time></trkpt><trkpt lat="44.77987781806814" lon="0.9291732931837765"><ele>222.0</ele><time>2026-05-01T07:40:19Z</time></trkpt><trkpt lat="44.77994153395634" lon="0.9290479538129369"><ele>222.25</ele><time>2026-05-01T07:40:20Z</time></trkpt><trkpt lat="44.77998579734828" lon="0.9289392480938675"><ele>222.5</ele><time>2026-05-01T07:40:21Z</time></trkpt><trkpt lat="44.780019111618316" lon="0.9288058239736084"><ele>222.75</ele><time>2026-05-01T07:40:22Z</time></trkpt><trkpt lat="44.78002136152472" lon="0.9285969499846715"><ele>223.0</ele><time>2026-05-01T07:40:23Z</time></trkpt><trkpt lat="44.78003777629576" lon="0.9284362883394268"><ele>223.2</ele><time>2026-05-01T07:40:24Z</time></trkpt><trkpt lat="44.78003183687262" lon="0.9282747523013797"><ele>223.4</ele><time>2026-05-01T07:40:25Z</time></trkpt><trkpt lat="44.7800125449095" lon="0.9281384139411086"><ele>223.59999999999997</ele><time>2026-05-01T07:40:26Z</time></trkpt><trkpt lat="44.779989934487595" lon="0.9279941120309383"><ele>223.79999999999998</ele><time>2026-05-01T07:40:27Z</time></trkpt><trkpt lat="44.77997746891157" lon="0.9278293241420265"><ele>224.0</ele><time>2026-05-01T07:40:28Z</time></trkpt><trkpt lat="44.77995649894435" lon="0.9276863613128076"><ele>224.0</ele><time>2026-05-01T07:40:29Z</time></trkpt><trkpt lat="44.779962267043906" lon="0.9275815936203854"><ele>223.99999999999997</ele><time>2026-05-01T07:40:30Z</time></trkpt><trkpt lat="44.77994416528666" lon="0.9274814150048809"><ele>223.99999999999997</ele><time>2026-05-01T07:40:31Z</time></trkpt><trkpt lat="44.779890376204" lon="0.9273383419602373"><ele>224.0</ele><time>2026-05-01T07:40:33Z</time></trkpt><trkpt lat="44.7797774627539" lon="0.9272883795343407"><ele>224.0</ele><time>2026-05-01T07:40:35Z</time></trkpt><trkpt lat="44.77969694391027" lon="0.9272503440702301"><ele>224.14285714285714</ele><time>2026-05-01T07:40:36Z</time></trkpt><trkpt lat="44.77962062190626" lon="0.9272481350490959"><ele>224.28571428571428</ele><time>2026-05-01T07:40:37Z</time></trkpt><trkpt lat="44.779555638232" lon="0.9272706339104453"><ele>224.42857142857144</ele><time>2026-05-01T07:40:38Z</time></trkpt><trkpt lat="44.77949107304252" lon="0.9272880418392214"><ele>224.57142857142858</ele><time>2026-05-01T07:40:39Z</time></trkpt><trkpt lat="44.7794195682839" lon="0.9272879433526101"><ele>224.71428571428572</ele><time>2026-05-01T07:40:40Z</time></trkpt><trkpt lat="44.77934784980443" lon="0.927243478258047"><ele>224.8571428571429</ele><time>2026-05-01T07:40:41Z</time></trkpt><trkpt lat="44.779269953514884" lon="0.9271828660975857"><ele>225.00000000000003</ele><time>2026-05-01T07:40:42Z</time></trkpt><trkpt lat="44.77917567899654" lon="0.927130300880425"><ele>225.0</ele><time>2026-05-01T07:40:43Z</time></trkpt><trkpt lat="44.77908048068062" lon="0.927084257635235"><ele>225.0</ele><time>2026-05-01T07:40:44Z</time></trkpt><trkpt lat="44.778999347510855" lon="0.9270443621714078"><ele>225.0</ele><time>2026-05-01T07:40:45Z</time></trkpt><trkpt lat="44.778847467140416" lon="0.9269869304254402"><ele>225.0</ele><time>2026-05-01T07:40:47Z</time></trkpt><trkpt lat="44.778767011372345" lon="0.9270156539792841"><ele>225.0</ele><time>2026-05-01T07:40:48Z</time></trkpt><trkpt lat="44.778699948748184" lon="0.927030701332894"><ele>225.0</ele><time>2026-05-01T07:40:49Z</time></trkpt><trkpt lat="44.778626984977436" lon="0.9270286456189992"><ele>225.0</ele><time>2026-05-01T07:40:50Z</time></trkpt><trkpt lat="44.77858529434056" lon="0.9269614073568572"><ele>225.0</ele><time>2026-05-01T07:40:51Z</time></trkpt><trkpt lat="44.778526618158125" lon="0.9268859831939125"><ele>225.0</ele><time>2026-05-01T07:40:52Z</time></trkpt><trkpt lat="44.77848741766491" lon="0.9268130471884758"><ele>225.0</ele><time>2026-05-01T07:40:53Z</time></trkpt><trkpt lat="44.77843299205401" lon="0.9267286630234679"><ele>225.0</ele><time>2026-05-01T07:40:54Z</time></trkpt><trkpt lat="44.778336623356246" lon="0.9267004959667078"><ele>224.16666666666666</ele><time>2026-05-01T07:40:57Z</time></trkpt><trkpt lat="44.778258203620325" lon="0.9266854588877959"><ele>223.33333333333331</ele><time>2026-05-01T07:40:59Z</time></trkpt><trkpt lat="44.77819441352246" lon="0.9266944168206619"><ele>222.5</ele><time>2026-05-01T07:41:01Z</time></trkpt><trkpt lat="44.77813448637405" lon="0.9267836580787897"><ele>221.66666666666666</ele><time>2026-05-01T07:41:03Z</time></trkpt><trkpt lat="44.77807422548625" lon="0.9268903366135356"><ele>220.83333333333331</ele><time>2026-05-01T07:41:05Z</time></trkpt><trkpt lat="44.77807292460348" lon="0.9270036875124062"><ele>220.0</ele><time>2026-05-01T07:41:07Z</time></trkpt><trkpt lat="44.7780503478502" lon="0.9271387985038608"><ele>219.6</ele><time>2026-05-01T07:41:09Z</time></trkpt><trkpt lat="44.777962065262486" lon="0.9272470386109157"><ele>219.2</ele><time>2026-05-01T07:41:11Z</time></trkpt><trkpt lat="44.77789708981058" lon="0.9273177877839897"><ele>218.8</ele><time>2026-05-01T07:41:13Z</time></trkpt><trkpt lat="44.77784080590518" lon="0.9274057509600777"><ele>218.4</ele><time>2026-05-01T07:41:15Z</time></trkpt><trkpt lat="44.77780446027649" lon="0.9275205997404625"><ele>218.0</ele><time>2026-05-01T07:41:17Z</time></trkpt><trkpt lat="44.77779394680721" lon="0.9276549824518465"><ele>217.50000000000003</ele><time>2026-05-01T07:41:19Z</time></trkpt><trkpt lat="44.7778126269098" lon="0.9278148835252639"><ele>217.0</ele><time>2026-05-01T07:41:21Z</time></trkpt><trkpt lat="44.777831223135294" lon="0.9279053287728433"><ele>216.5</ele><time>2026-05-01T07:41:24Z</time></trkpt><trkpt lat="44.77776539418497" lon="0.9279369172698475"><ele>216.0</ele><time>2026-05-01T07:41:30Z</time></trkpt><trkpt lat="44.77768372606956" lon="0.9279371898773022"><ele>215.50000000000003</ele><time>2026-05-01T07:41:38Z</time></trkpt><trkpt lat="44.7776641469614" lon="0.9280686870217352"><ele>215.0</ele><time>2026-05-01T07:41:41Z</time></trkpt><trkpt lat="44.77759979704137" lon="0.9281880182070087"><ele>214.6</ele><time>2026-05-01T07:41:43Z</time></trkpt><trkpt lat="44.77752749202574" lon="0.9282816309394226"><ele>214.2</ele><time>2026-05-01T07:41:45Z</time></trkpt><trkpt lat="44.777441276729434" lon="0.9283910642997232"><ele>213.8</ele><time>2026-05-01T07:41:47Z</time></trkpt><trkpt lat="44.777402837588916" lon="0.9284848452540756"><ele>213.4</ele><time>2026-05-01T07:41:48Z</time></trkpt><trkpt lat="44.77734750099571" lon="0.9285903882469825"><ele>213.0</ele><time>2026-05-01T07:41:49Z</time></trkpt><trkpt lat="44.77729217552923" lon="0.92870048747809"><ele>213.66666666666666</ele><time>2026-05-01T07:41:50Z</time></trkpt><trkpt lat="44.777231690563326" lon="0.9288439085457825"><ele>214.33333333333331</ele><time>2026-05-01T07:41:52Z</time></trkpt><trkpt lat="44.77718891340613" lon="0.928921731663466"><ele>215.0</ele><time>2026-05-01T07:41:53Z</time></trkpt><trkpt lat="44.7771241678388" lon="0.9289981519249506"><ele>215.66666666666666</ele><time>2026-05-01T07:41:54Z</time></trkpt><trkpt lat="44.777062410825366" lon="0.9290936521020488"><ele>216.33333333333331</ele><time>2026-05-01T07:41:55Z</time></trkpt><trkpt lat="44.777015487515115" lon="0.92917545208012"><ele>217.0</ele><time>2026-05-01T07:41:56Z</time></trkpt><trkpt lat="44.776962835738395" lon="0.9292810637461641"><ele>217.83333333333331</ele><time>2026-05-01T07:41:57Z</time></trkpt><trkpt lat="44.776901059979785" lon="0.9293753743652177"><ele>218.66666666666666</ele><time>2026-05-01T07:41:58Z</time></trkpt><trkpt lat="44.776848206908554" lon="0.9294792726878713"><ele>219.5</ele><time>2026-05-01T07:41:59Z</time></trkpt><trkpt lat="44.77680978864466" lon="0.9295684682371687"><ele>220.33333333333331</ele><time>2026-05-01T07:42:00Z</time></trkpt><trkpt lat="44.77676860939273" lon="0.929679436660609"><ele>221.16666666666666</ele><time>2026-05-01T07:42:01Z</time></trkpt><trkpt lat="44.77670688087599" lon="0.92979651244262"><ele>222.0</ele><time>2026-05-01T07:42:02Z</time></trkpt><trkpt lat="44.776645303694046" lon="0.9298794016067174"><ele>222.6</ele><time>2026-05-01T07:42:03Z</time></trkpt><trkpt lat="44.77658059680163" lon="0.9299767179951123"><ele>223.2</ele><time>2026-05-01T07:42:04Z</time></trkpt><trkpt lat="44.77650713071453" lon="0.9301094777432329"><ele>223.8</ele><time>2026-05-01T07:42:06Z</time></trkpt><trkpt lat="44.77641377597415" lon="0.930198455944134"><ele>224.4</ele><time>2026-05-01T07:42:08Z</time></trkpt><trkpt lat="44.776299795111605" lon="0.9302017254613388"><ele>225.0</ele><time>2026-05-01T07:42:10Z</time></trkpt><trkpt lat="44.77621913561097" lon="0.9301550139347472"><ele>225.0</ele><time>2026-05-01T07:42:12Z</time></trkpt><trkpt lat="44.77607198045879" lon="0.9300891658287825"><ele>225.0</ele><time>2026-05-01T07:42:14Z</time></trkpt><trkpt lat="44.77598929534916" lon="0.9300647910340077"><ele>225.0</ele><time>2026-05-01T07:42:15Z</time></trkpt><trkpt lat="44.7758877771702" lon="0.9300386674087315"><ele>225.0</ele><time>2026-05-01T07:42:16Z</time></trkpt><trkpt lat="44.77578778968449" lon="0.9300152318314164"><ele>225.0</ele><time>2026-05-01T07:42:17Z</time></trkpt><trkpt lat="44.775694753428304" lon="0.9299937276280162"><ele>225.5</ele><time>2026-05-01T07:42:18Z</time></trkpt><trkpt lat="44.77558408986031" lon="0.9299731055913534"><ele>226.0</ele><time>2026-05-01T07:42:19Z</time></trkpt><trkpt lat="44.775449027852034" lon="0.9299433697629589"><ele>226.5</ele><time>2026-05-01T07:42:20Z</time></trkpt><trkpt lat="44.77532486131939" lon="0.9299175980677805"><ele>227.0</ele><time>2026-05-01T07:42:21Z</time></trkpt><trkpt lat="44.77519436327788" lon="0.929900051551213"><ele>227.5</ele><time>2026-05-01T07:42:22Z</time></trkpt><trkpt lat="44.775072466194395" lon="0.9298576232395588"><ele>228.0</ele><time>2026-05-01T07:42:23Z</time></trkpt><trkpt lat="44.77495356965982" lon="0.9298186802952252"><ele>228.5</ele><time>2026-05-01T07:42:24Z</time></trkpt><trkpt lat="44.774829512640615" lon="0.9297494153985663"><ele>229.0</ele><time>2026-05-01T07:42:25Z</time></trkpt><trkpt lat="44.77471737671721" lon="0.9296686859543913"><ele>229.0</ele><time>2026-05-01T07:42:26Z</time></trkpt><trkpt lat="44.774595900091555" lon="0.9295926217959187"><ele>229.0</ele><time>2026-05-01T07:42:27Z</time></trkpt><trkpt lat="44.77447288826152" lon="0.9294984713768492"><ele>229.0</ele><time>2026-05-01T07:42:28Z</time></trkpt><trkpt lat="44.77434514483539" lon="0.9293959806865787"><ele>229.0</ele><time>2026-05-01T07:42:29Z</time></trkpt><trkpt lat="44.77422088765538" lon="0.9292778535733925"><ele>228.0</ele><time>2026-05-01T07:42:30Z</time></trkpt><trkpt lat="44.77409403723296" lon="0.9291758038738155"><ele>227.0</ele><time>2026-05-01T07:42:31Z</time></trkpt><trkpt lat="44.77396735961212" lon="0.929084614190994"><ele>226.0</ele><time>2026-05-01T07:42:32Z</time></trkpt><trkpt lat="44.77383776808311" lon="0.928997969096713"><ele>225.0</ele><time>2026-05-01T07:42:33Z</time></trkpt><trkpt lat="44.773716959021264" lon="0.9289295402880619"><ele>225.0</ele><time>2026-05-01T07:42:34Z</time></trkpt><trkpt lat="44.77359677219805" lon="0.928852921118072"><ele>225.0</ele><time>2026-05-01T07:42:35Z</time></trkpt><trkpt lat="44.77346893417175" lon="0.9287966520350388"><ele>225.0</ele><time>2026-05-01T07:42:36Z</time></trkpt><trkpt lat="44.773342741815775" lon="0.9287668045997945"><ele>225.0</ele><time>2026-05-01T07:42:37Z</time></trkpt><trkpt lat="44.77321505324867" lon="0.9287278330858959"><ele>225.25</ele><time>2026-05-01T07:42:38Z</time></trkpt><trkpt lat="44.7730818788871" lon="0.9286960201191523"><ele>225.5</ele><time>2026-05-01T07:42:39Z</time></trkpt><trkpt lat="44.772951166080006" lon="0.9286378366324148"><ele>225.75</ele><time>2026-05-01T07:42:40Z</time></trkpt><trkpt lat="44.7728113950363" lon="0.928610640106677"><ele>226.0</ele><time>2026-05-01T07:42:41Z</time></trkpt><trkpt lat="44.77268390221091" lon="0.9285617286557167"><ele>225.5</ele><time>2026-05-01T07:42:42Z</time></trkpt><trkpt lat="44.77255239291999" lon="0.9285199511733545"><ele>225.0</ele><time>2026-05-01T07:42:43Z</time></trkpt><trkpt lat="44.7724343079567" lon="0.928484701319487"><ele>224.5</ele><time>2026-05-01T07:42:44Z</time></trkpt><trkpt lat="44.77231863123233" lon="0.9284544905813789"><ele>224.0</ele><time>2026-05-01T07:42:45Z</time></trkpt><trkpt lat="44.7721904008175" lon="0.9284303040081893"><ele>224.0</ele><time>2026-05-01T07:42:46Z</time></trkpt><trkpt lat="44.77205278996856" lon="0.9284074412810235"><ele>224.0</ele><time>2026-05-01T07:42:47Z</time></trkpt><trkpt lat="44.77191403627469" lon="0.9284077040558208"><ele>224.0</ele><time>2026-05-01T07:42:48Z</time></trkpt><trkpt lat="44.77176743875824" lon="0.9283971815949497"><ele>224.0</ele><time>2026-05-01T07:42:49Z</time></trkpt><trkpt lat="44.77162547810317" lon="0.9283886268883705"><ele>223.75</ele><time>2026-05-01T07:42:50Z</time></trkpt><trkpt lat="44.77147951133325" lon="0.9283537532402528"><ele>223.5</ele><time>2026-05-01T07:42:51Z</time></trkpt><trkpt lat="44.7713374359915" lon="0.9283376283107262"><ele>223.25</ele><time>2026-05-01T07:42:52Z</time></trkpt><trkpt lat="44.771186600815824" lon="0.9283171261083202"><ele>223.0</ele><time>2026-05-01T07:42:53Z</time></trkpt><trkpt lat="44.77104410375627" lon="0.9283214436856362"><ele>222.5</ele><time>2026-05-01T07:42:54Z</time></trkpt><trkpt lat="44.770909569434174" lon="0.9283051948158468"><ele>222.0</ele><time>2026-05-01T07:42:55Z</time></trkpt><trkpt lat="44.770780254975406" lon="0.9282684399150801"><ele>221.5</ele><time>2026-05-01T07:42:56Z</time></trkpt><trkpt lat="44.770656674924844" lon="0.9282764937337752"><ele>221.0</ele><time>2026-05-01T07:42:57Z</time></trkpt><trkpt lat="44.770539955992234" lon="0.9282377386684522"><ele>221.0</ele><time>2026-05-01T07:42:58Z</time></trkpt><trkpt lat="44.77042597377179" lon="0.9282357312745102"><ele>221.00000000000003</ele><time>2026-05-01T07:42:59Z</time></trkpt><trkpt lat="44.770310609551686" lon="0.9282402152265962"><ele>221.00000000000003</ele><time>2026-05-01T07:43:00Z</time></trkpt><trkpt lat="44.77022454489871" lon="0.9282433356712538"><ele>221.0</ele><time>2026-05-01T07:43:01Z</time></trkpt><trkpt lat="44.77014093091512" lon="0.9282367702935089"><ele>221.0</ele><time>2026-05-01T07:43:02Z</time></trkpt><trkpt lat="44.77006401058339" lon="0.9282258200615616"><ele>220.4</ele><time>2026-05-01T07:43:03Z</time></trkpt><trkpt lat="44.769994509469136" lon="0.9282463974653763"><ele>219.8</ele><time>2026-05-01T07:43:04Z</time></trkpt><trkpt lat="44.76986991316829" lon="0.9282332897568119"><ele>219.20000000000002</ele><time>2026-05-01T07:43:06Z</time></trkpt><trkpt lat="44.76979350950408" lon="0.928224448689531"><ele>218.60000000000002</ele><time>2026-05-01T07:43:07Z</time></trkpt><trkpt lat="44.76971623361934" lon="0.9282049454880252"><ele>218.0</ele><time>2026-05-01T07:43:08Z</time></trkpt><trkpt lat="44.76962517463835" lon="0.9282966613726954"><ele>218.0</ele><time>2026-05-01T07:43:09Z</time></trkpt><trkpt lat="44.769550462864345" lon="0.928270689717051"><ele>218.0</ele><time>2026-05-01T07:43:10Z</time></trkpt><trkpt lat="44.76945345918813" lon="0.9282636490577522"><ele>218.0</ele><time>2026-05-01T07:43:13Z</time></trkpt><trkpt lat="44.76940663608479" lon="0.9284487768980181"><ele>218.0</ele><time>2026-05-01T07:43:14Z</time></trkpt><trkpt lat="44.769383713261966" lon="0.928570653308267"><ele>218.0</ele><time>2026-05-01T07:43:15Z</time></trkpt><trkpt lat="44.769354026406184" lon="0.9287169400397265"><ele>217.75</ele><time>2026-05-01T07:43:16Z</time></trkpt><trkpt lat="44.76931643614338" lon="0.92889386142496"><ele>217.5</ele><time>2026-05-01T07:43:17Z</time></trkpt><trkpt lat="44.76926932805396" lon="0.9290868123453434"><ele>217.25</ele><time>2026-05-01T07:43:18Z</time></trkpt><trkpt lat="44.76921708399496" lon="0.929293589700212"><ele>217.0</ele><time>2026-05-01T07:43:19Z</time></trkpt><trkpt lat="44.76916666713108" lon="0.9294931352040562"><ele>217.66666666666666</ele><time>2026-05-01T07:43:20Z</time></trkpt><trkpt lat="44.76911610988193" lon="0.9296932362652509"><ele>218.33333333333331</ele><time>2026-05-01T07:43:21Z</time></trkpt><trkpt lat="44.76906412138913" lon="0.9299037869753484"><ele>219.0</ele><time>2026-05-01T07:43:22Z</time></trkpt><trkpt lat="44.76903152836489" lon="0.9301124721447342"><ele>219.25</ele><time>2026-05-01T07:43:23Z</time></trkpt><trkpt lat="44.76896417786689" lon="0.9302881758153976"><ele>219.5</ele><time>2026-05-01T07:43:24Z</time></trkpt><trkpt lat="44.76891395181382" lon="0.9304912724696681"><ele>219.75</ele><time>2026-05-01T07:43:25Z</time></trkpt><trkpt lat="44.768822324552765" lon="0.9306456391589051"><ele>220.0</ele><time>2026-05-01T07:43:26Z</time></trkpt><trkpt lat="44.768737883208196" lon="0.9308135365410602"><ele>220.0</ele><time>2026-05-01T07:43:27Z</time></trkpt><trkpt lat="44.76866331521866" lon="0.9310076620103624"><ele>220.0</ele><time>2026-05-01T07:43:28Z</time></trkpt><trkpt lat="44.76857965876009" lon="0.9311889384002272"><ele>220.0</ele><time>2026-05-01T07:43:29Z</time></trkpt><trkpt lat="44.768499970975526" lon="0.9313689666710598"><ele>220.0</ele><time>2026-05-01T07:43:30Z</time></trkpt><trkpt lat="44.76843401861269" lon="0.9315299741375357"><ele>220.0</ele><time>2026-05-01T07:43:31Z</time></trkpt><trkpt lat="44.76838776894409" lon="0.9316549479282824"><ele>220.0</ele><time>2026-05-01T07:43:32Z</time></trkpt><trkpt lat="44.76833503936976" lon="0.9317490847266777"><ele>220.0</ele><time>2026-05-01T07:43:33Z</time></trkpt><trkpt lat="44.7682921371916" lon="0.9318596691378397"><ele>220.0</ele><time>2026-05-01T07:43:34Z</time></trkpt><trkpt lat="44.76825676374285" lon="0.9319520191574413"><ele>221.0</ele><time>2026-05-01T07:43:35Z</time></trkpt><trkpt lat="44.76820342916671" lon="0.9320912609689392"><ele>222.0</ele><time>2026-05-01T07:43:36Z</time></trkpt><trkpt lat="44.76814436887417" lon="0.9322521284776805"><ele>223.0</ele><time>2026-05-01T07:43:37Z</time></trkpt><trkpt lat="44.76808849655909" lon="0.9324036883445902"><ele>224.0</ele><time>2026-05-01T07:43:38Z</time></trkpt><trkpt lat="44.76803497118127" lon="0.9325415027053222"><ele>225.0</ele><time>2026-05-01T07:43:39Z</time></trkpt><trkpt lat="44.76799203522067" lon="0.932684406020367"><ele>225.99999999999997</ele><time>2026-05-01T07:43:40Z</time></trkpt><trkpt lat="44.76794151168298" lon="0.9327974744938391"><ele>226.99999999999997</ele><time>2026-05-01T07:43:41Z</time></trkpt><trkpt lat="44.76788668953437" lon="0.9329088800609798"><ele>228.0</ele><time>2026-05-01T07:43:42Z</time></trkpt><trkpt lat="44.76783714939803" lon="0.9330329767829947"><ele>229.0</ele><time>2026-05-01T07:43:43Z</time></trkpt><trkpt lat="44.76788156833713" lon="0.9332435666575214"><ele>229.25</ele><time>2026-05-01T07:43:44Z</time></trkpt><trkpt lat="44.76787665740463" lon="0.9334227413415427"><ele>229.5</ele><time>2026-05-01T07:43:45Z</time></trkpt><trkpt lat="44.76786374700454" lon="0.933614911947911"><ele>229.75</ele><time>2026-05-01T07:43:46Z</time></trkpt><trkpt lat="44.76785317977163" lon="0.9338164064284167"><ele>230.0</ele><time>2026-05-01T07:43:47Z</time></trkpt><trkpt lat="44.767842305204134" lon="0.9339962486067902"><ele>230.0</ele><time>2026-05-01T07:43:48Z</time></trkpt><trkpt lat="44.76783437278384" lon="0.9342157021984476"><ele>230.0</ele><time>2026-05-01T07:43:49Z</time></trkpt><trkpt lat="44.76782738373346" lon="0.9344218667500143"><ele>230.0</ele><time>2026-05-01T07:43:50Z</time></trkpt><trkpt lat="44.767835994200645" lon="0.9346089571944971"><ele>230.0</ele><time>2026-05-01T07:43:51Z</time></trkpt><trkpt lat="44.76785550533774" lon="0.9347886638790388"><ele>230.25</ele><time>2026-05-01T07:43:52Z</time></trkpt><trkpt lat="44.767869489094245" lon="0.9349807962236475"><ele>230.5</ele><time>2026-05-01T07:43:53Z</time></trkpt><trkpt lat="44.767877123109024" lon="0.93518985220951"><ele>230.75</ele><time>2026-05-01T07:43:54Z</time></trkpt><trkpt lat="44.76788103661429" lon="0.9353670115031348"><ele>231.0</ele><time>2026-05-01T07:43:55Z</time></trkpt><trkpt lat="44.76787969221699" lon="0.9355702517981693"><ele>231.0</ele><time>2026-05-01T07:43:56Z</time></trkpt><trkpt lat="44.767880584997556" lon="0.9357609151377327"><ele>231.0</ele><time>2026-05-01T07:43:57Z</time></trkpt><trkpt lat="44.76788222071961" lon="0.9359526897037848"><ele>231.0</ele><time>2026-05-01T07:43:58Z</time></trkpt><trkpt lat="44.76788832209616" lon="0.9361531740357552"><ele>231.0</ele><time>2026-05-01T07:43:59Z</time></trkpt><trkpt lat="44.7679150591901" lon="0.9363541419417736"><ele>231.5</ele><time>2026-05-01T07:44:00Z</time></trkpt><trkpt lat="44.76792915951189" lon="0.9365360862157937"><ele>232.0</ele><time>2026-05-01T07:44:01Z</time></trkpt><trkpt lat="44.76795865498545" lon="0.9367184179915645"><ele>232.5</ele><time>2026-05-01T07:44:02Z</time></trkpt><trkpt lat="44.76797170652087" lon="0.9368714101364535"><ele>233.0</ele><time>2026-05-01T07:44:03Z</time></trkpt><trkpt lat="44.76798650974558" lon="0.9370181503165892"><ele>233.0</ele><time>2026-05-01T07:44:04Z</time></trkpt><trkpt lat="44.76799729630896" lon="0.9371688649523058"><ele>233.0</ele><time>2026-05-01T07:44:05Z</time></trkpt><trkpt lat="44.767990579174956" lon="0.9373211721458289"><ele>233.0</ele><time>2026-05-01T07:44:06Z</time></trkpt><trkpt lat="44.767969129085564" lon="0.9374663039345861"><ele>233.0</ele><time>2026-05-01T07:44:07Z</time></trkpt><trkpt lat="44.767952904324396" lon="0.9376236700390619"><ele>233.0</ele><time>2026-05-01T07:44:08Z</time></trkpt><trkpt lat="44.767936482026386" lon="0.9377698618163324"><ele>231.75</ele><time>2026-05-01T07:44:09Z</time></trkpt><trkpt lat="44.767926043783504" lon="0.9379211219505782"><ele>230.5</ele><time>2026-05-01T07:44:10Z</time></trkpt><trkpt lat="44.76792146515749" lon="0.9380842189981845"><ele>229.25</ele><time>2026-05-01T07:44:11Z</time></trkpt><trkpt lat="44.76792275452538" lon="0.9382594820665643"><ele>228.0</ele><time>2026-05-01T07:44:12Z</time></trkpt><trkpt lat="44.767925989840364" lon="0.9384207227300709"><ele>226.8</ele><time>2026-05-01T07:44:13Z</time></trkpt><trkpt lat="44.76793640886698" lon="0.9385685862650209"><ele>225.60000000000002</ele><time>2026-05-01T07:44:14Z</time></trkpt><trkpt lat="44.76794867077054" lon="0.9387148364998691"><ele>224.39999999999998</ele><time>2026-05-01T07:44:15Z</time></trkpt><trkpt lat="44.76795724223526" lon="0.9388659996300547"><ele>223.2</ele><time>2026-05-01T07:44:16Z</time></trkpt><trkpt lat="44.767969857624784" lon="0.9390125390922482"><ele>222.0</ele><time>2026-05-01T07:44:17Z</time></trkpt><trkpt lat="44.76797308275154" lon="0.9391730399783487"><ele>221.0</ele><time>2026-05-01T07:44:18Z</time></trkpt><trkpt lat="44.76796134203977" lon="0.9393540400417972"><ele>220.0</ele><time>2026-05-01T07:44:19Z</time></trkpt><trkpt lat="44.767957884351965" lon="0.9395345023917069"><ele>219.0</ele><time>2026-05-01T07:44:20Z</time></trkpt><trkpt lat="44.76795546044923" lon="0.9396927231175559"><ele>218.0</ele><time>2026-05-01T07:44:21Z</time></trkpt><trkpt lat="44.767958574598566" lon="0.9398379307048969"><ele>218.00000000000003</ele><time>2026-05-01T07:44:22Z</time></trkpt><trkpt lat="44.76796332598428" lon="0.9399717023241684"><ele>218.0</ele><time>2026-05-01T07:44:23Z</time></trkpt><trkpt lat="44.76795928590894" lon="0.9400881582539684"><ele>218.0</ele><time>2026-05-01T07:44:24Z</time></trkpt><trkpt lat="44.76796319003422" lon="0.9401914735028458"><ele>218.0</ele><time>2026-05-01T07:44:25Z</time></trkpt><trkpt lat="44.767955435002044" lon="0.9403289202027653"><ele>218.00000000000003</ele><time>2026-05-01T07:44:27Z</time></trkpt><trkpt lat="44.767890898670096" lon="0.94037309083169"><ele>218.0</ele><time>2026-05-01T07:44:29Z</time></trkpt><trkpt lat="44.76777836203812" lon="0.9403150677323958"><ele>215.8</ele><time>2026-05-01T07:44:31Z</time></trkpt><trkpt lat="44.76768902806548" lon="0.9402950446954275"><ele>213.60000000000002</ele><time>2026-05-01T07:44:32Z</time></trkpt><trkpt lat="44.767579115629026" lon="0.9402988114932103"><ele>211.39999999999998</ele><time>2026-05-01T07:44:33Z</time></trkpt><trkpt lat="44.76747567226963" lon="0.9403332641370212"><ele>209.2</ele><time>2026-05-01T07:44:34Z</time></trkpt><trkpt lat="44.76738706660878" lon="0.9403694784403319"><ele>207.0</ele><time>2026-05-01T07:44:35Z</time></trkpt><trkpt lat="44.767328152378504" lon="0.9404047879866725"><ele>207.0</ele><time>2026-05-01T07:44:36Z</time></trkpt><trkpt lat="44.76725791946017" lon="0.9404661591546202"><ele>207.0</ele><time>2026-05-01T07:44:37Z</time></trkpt><trkpt lat="44.76721689935427" lon="0.9405438992776631"><ele>207.0</ele><time>2026-05-01T07:44:38Z</time></trkpt><trkpt lat="44.767119590178424" lon="0.9406170602211769"><ele>207.0</ele><time>2026-05-01T07:44:40Z</time></trkpt><trkpt lat="44.76703792821559" lon="0.940497019670824"><ele>207.0</ele><time>2026-05-01T07:44:42Z</time></trkpt><trkpt lat="44.7670116706635" lon="0.9404011615577027"><ele>207.0</ele><time>2026-05-01T07:44:43Z</time></trkpt><trkpt lat="44.7669931043343" lon="0.9402932973400883"><ele>207.0</ele><time>2026-05-01T07:44:44Z</time></trkpt><trkpt lat="44.766976277344575" lon="0.9401663855927501"><ele>207.0</ele><time>2026-05-01T07:44:45Z</time></trkpt><trkpt lat="44.76699484366578" lon="0.9399884070217627"><ele>207.0</ele><time>2026-05-01T07:44:46Z</time></trkpt><trkpt lat="44.76697867286956" lon="0.9398630738842104"><ele>207.0</ele><time>2026-05-01T07:44:47Z</time></trkpt><trkpt lat="44.7669845620044" lon="0.939731378732235"><ele>207.0</ele><time>2026-05-01T07:44:48Z</time></trkpt><trkpt lat="44.76696122555633" lon="0.9395903509578588"><ele>207.0</ele><time>2026-05-01T07:44:49Z</time></trkpt><trkpt lat="44.76691264706289" lon="0.9394884865633701"><ele>207.0</ele><time>2026-05-01T07:44:50Z</time></trkpt><trkpt lat="44.766846669672944" lon="0.9393844646359559"><ele>207.0</ele><time>2026-05-01T07:44:51Z</time></trkpt><trkpt lat="44.76676086145325" lon="0.9392635587288883"><ele>207.0</ele><time>2026-05-01T07:44:52Z</time></trkpt><trkpt lat="44.76665959660112" lon="0.939159023227178"><ele>207.0</ele><time>2026-05-01T07:44:53Z</time></trkpt><trkpt lat="44.76655178523317" lon="0.9390564483370418"><ele>207.0</ele><time>2026-05-01T07:44:54Z</time></trkpt><trkpt lat="44.766467645982594" lon="0.9389635828353712"><ele>207.0</ele><time>2026-05-01T07:44:55Z</time></trkpt><trkpt lat="44.76639190831708" lon="0.9388693931424166"><ele>207.0</ele><time>2026-05-01T07:44:56Z</time></trkpt><trkpt lat="44.76630324099569" lon="0.9387814895024117"><ele>207.0</ele><time>2026-05-01T07:44:57Z</time></trkpt><trkpt lat="44.76620072398483" lon="0.9386902591688654"><ele>207.0</ele><time>2026-05-01T07:44:58Z</time></trkpt><trkpt lat="44.76609620128173" lon="0.9385988918776293"><ele>207.0</ele><time>2026-05-01T07:44:59Z</time></trkpt><trkpt lat="44.766003953306125" lon="0.9385174510963352"><ele>207.0</ele><time>2026-05-01T07:45:00Z</time></trkpt><trkpt lat="44.765913777206386" lon="0.9384409042422506"><ele>207.0</ele><time>2026-05-01T07:45:01Z</time></trkpt><trkpt lat="44.76582496539762" lon="0.9383851420356479"><ele>207.0</ele><time>2026-05-01T07:45:02Z</time></trkpt><trkpt lat="44.765720901047935" lon="0.9383277063151761"><ele>206.6</ele><time>2026-05-01T07:45:03Z</time></trkpt><trkpt lat="44.76562564667056" lon="0.9382491209591813"><ele>206.2</ele><time>2026-05-01T07:45:04Z</time></trkpt><trkpt lat="44.76555131442263" lon="0.9381637446341059"><ele>205.8</ele><time>2026-05-01T07:45:05Z</time></trkpt><trkpt lat="44.76547630015547" lon="0.9381210801186178"><ele>205.4</ele><time>2026-05-01T07:45:06Z</time></trkpt><trkpt lat="44.765379561051866" lon="0.9380776108766221"><ele>205.0</ele><time>2026-05-01T07:45:07Z</time></trkpt><trkpt lat="44.76527816636879" lon="0.9380119691037055"><ele>205.0</ele><time>2026-05-01T07:45:08Z</time></trkpt><trkpt lat="44.765215721857395" lon="0.937939711151804"><ele>205.0</ele><time>2026-05-01T07:45:09Z</time></trkpt><trkpt lat="44.76515373574196" lon="0.9378418571311955"><ele>205.0</ele><time>2026-05-01T07:45:10Z</time></trkpt><trkpt lat="44.76506252913591" lon="0.9376942008000635"><ele>205.0</ele><time>2026-05-01T07:45:11Z</time></trkpt><trkpt lat="44.76498658177185" lon="0.9375729986289775"><ele>205.0</ele><time>2026-05-01T07:45:12Z</time></trkpt><trkpt lat="44.76491439212502" lon="0.9374834432953127"><ele>204.5</ele><time>2026-05-01T07:45:13Z</time></trkpt><trkpt lat="44.76483327997929" lon="0.9373715429348469"><ele>204.0</ele><time>2026-05-01T07:45:14Z</time></trkpt><trkpt lat="44.764731913945845" lon="0.937296031971136"><ele>203.5</ele><time>2026-05-01T07:45:15Z</time></trkpt><trkpt lat="44.764632801483906" lon="0.9371913717188511"><ele>203.0</ele><time>2026-05-01T07:45:16Z</time></trkpt><trkpt lat="44.764518379946736" lon="0.937137356804398"><ele>203.0</ele><time>2026-05-01T07:45:17Z</time></trkpt><trkpt lat="44.76438147416388" lon="0.9371162992010944"><ele>203.0</ele><time>2026-05-01T07:45:18Z</time></trkpt><trkpt lat="44.76426503127612" lon="0.9370806235667113"><ele>203.0</ele><time>2026-05-01T07:45:19Z</time></trkpt><trkpt lat="44.76415690266747" lon="0.9370126919230609"><ele>203.0</ele><time>2026-05-01T07:45:20Z</time></trkpt><trkpt lat="44.764050173521106" lon="0.9369215273394439"><ele>204.0</ele><time>2026-05-01T07:45:21Z</time></trkpt><trkpt lat="44.76395002636676" lon="0.9368437280029366"><ele>205.0</ele><time>2026-05-01T07:45:22Z</time></trkpt><trkpt lat="44.76385812215331" lon="0.9367943094160467"><ele>206.0</ele><time>2026-05-01T07:45:23Z</time></trkpt><trkpt lat="44.7637631837445" lon="0.9367489093820096"><ele>207.0</ele><time>2026-05-01T07:45:24Z</time></trkpt><trkpt lat="44.763682347415006" lon="0.9367132884280936"><ele>208.0</ele><time>2026-05-01T07:45:25Z</time></trkpt><trkpt lat="44.76357336918885" lon="0.9367141141792424"><ele>208.8</ele><time>2026-05-01T07:45:27Z</time></trkpt><trkpt lat="44.76345450623247" lon="0.9367494554473411"><ele>209.60000000000002</ele><time>2026-05-01T07:45:29Z</time></trkpt><trkpt lat="44.76336657226439" lon="0.9367451139190569"><ele>210.39999999999998</ele><time>2026-05-01T07:45:30Z</time></trkpt><trkpt lat="44.76328056133618" lon="0.9367562706085547"><ele>211.2</ele><time>2026-05-01T07:45:31Z</time></trkpt><trkpt lat="44.76320859477153" lon="0.9367758521440417"><ele>212.0</ele><time>2026-05-01T07:45:32Z</time></trkpt><trkpt lat="44.7631211088027" lon="0.9368227322205808"><ele>212.0</ele><time>2026-05-01T07:45:33Z</time></trkpt><trkpt lat="44.76302173949459" lon="0.9368723237935648"><ele>212.0</ele><time>2026-05-01T07:45:34Z</time></trkpt><trkpt lat="44.76293067127795" lon="0.936922934632778"><ele>212.0</ele><time>2026-05-01T07:45:35Z</time></trkpt><trkpt lat="44.76284618443306" lon="0.9369829772710087"><ele>212.0</ele><time>2026-05-01T07:45:36Z</time></trkpt><trkpt lat="44.76277415936742" lon="0.9370298110099692"><ele>212.0</ele><time>2026-05-01T07:45:37Z</time></trkpt><trkpt lat="44.76269590819404" lon="0.937058785039705"><ele>209.8</ele><time>2026-05-01T07:45:38Z</time></trkpt><trkpt lat="44.762611470534495" lon="0.9371081032414604"><ele>207.6</ele><time>2026-05-01T07:45:39Z</time></trkpt><trkpt lat="44.762535194848375" lon="0.9371777341916031"><ele>205.4</ele><time>2026-05-01T07:45:40Z</time></trkpt><trkpt lat="44.76247111078475" lon="0.9372696092432705"><ele>203.20000000000002</ele><time>2026-05-01T07:45:41Z</time></trkpt><trkpt lat="44.76239640332306" lon="0.9373690057906964"><ele>201.0</ele><time>2026-05-01T07:45:42Z</time></trkpt><trkpt lat="44.76231496977541" lon="0.9374441324820066"><ele>201.0</ele><time>2026-05-01T07:45:43Z</time></trkpt><trkpt lat="44.76223405333501" lon="0.9375395958884484"><ele>201.0</ele><time>2026-05-01T07:45:44Z</time></trkpt><trkpt lat="44.76215478776778" lon="0.9376332151512683"><ele>201.0</ele><time>2026-05-01T07:45:45Z</time></trkpt><trkpt lat="44.762082873757585" lon="0.9377331294184749"><ele>201.0</ele><time>2026-05-01T07:45:46Z</time></trkpt><trkpt lat="44.762011453231516" lon="0.9378154513940424"><ele>201.0</ele><time>2026-05-01T07:45:47Z</time></trkpt><trkpt lat="44.76195899125786" lon="0.937872358335032"><ele>201.0</ele><time>2026-05-01T07:45:48Z</time></trkpt><trkpt lat="44.761893931885346" lon="0.9379351242855061"><ele>201.0</ele><time>2026-05-01T07:45:49Z</time></trkpt><trkpt lat="44.76183495920705" lon="0.9380104087212874"><ele>201.0</ele><time>2026-05-01T07:45:50Z</time></trkpt><trkpt lat="44.76176907738154" lon="0.9381085197755973"><ele>201.0</ele><time>2026-05-01T07:45:51Z</time></trkpt><trkpt lat="44.76169826758063" lon="0.9381942696346284"><ele>201.0</ele><time>2026-05-01T07:45:52Z</time></trkpt><trkpt lat="44.76161320268846" lon="0.9382988783642027"><ele>202.4</ele><time>2026-05-01T07:45:53Z</time></trkpt><trkpt lat="44.76154039575803" lon="0.9383989814411821"><ele>203.8</ele><time>2026-05-01T07:45:54Z</time></trkpt><trkpt lat="44.76145829912909" lon="0.9385073790263948"><ele>205.20000000000002</ele><time>2026-05-01T07:45:55Z</time></trkpt><trkpt lat="44.76137124562844" lon="0.9385939196366478"><ele>206.60000000000002</ele><time>2026-05-01T07:45:56Z</time></trkpt><trkpt lat="44.7612819870276" lon="0.9386760676478157"><ele>208.0</ele><time>2026-05-01T07:45:57Z</time></trkpt><trkpt lat="44.76121309956361" lon="0.9387269435806513"><ele>207.99999999999997</ele><time>2026-05-01T07:45:58Z</time></trkpt><trkpt lat="44.761127818074755" lon="0.9387872771306899"><ele>208.0</ele><time>2026-05-01T07:45:59Z</time></trkpt><trkpt lat="44.7610548251526" lon="0.9388492623769481"><ele>208.0</ele><time>2026-05-01T07:46:00Z</time></trkpt><trkpt lat="44.76099359638951" lon="0.938909245206035"><ele>208.0</ele><time>2026-05-01T07:46:01Z</time></trkpt><trkpt lat="44.76092378408566" lon="0.9389690297017647"><ele>207.99999999999997</ele><time>2026-05-01T07:46:02Z</time></trkpt><trkpt lat="44.76086509073751" lon="0.9390145270891995"><ele>208.0</ele><time>2026-05-01T07:46:03Z</time></trkpt><trkpt lat="44.7608126572625" lon="0.9390787684938133"><ele>208.8</ele><time>2026-05-01T07:46:04Z</time></trkpt><trkpt lat="44.760747497639905" lon="0.9391534359654559"><ele>209.60000000000002</ele><time>2026-05-01T07:46:05Z</time></trkpt><trkpt lat="44.7606867115712" lon="0.9392257512005008"><ele>210.39999999999998</ele><time>2026-05-01T07:46:06Z</time></trkpt><trkpt lat="44.76061143179003" lon="0.9392963053623954"><ele>211.2</ele><time>2026-05-01T07:46:07Z</time></trkpt><trkpt lat="44.76052580548889" lon="0.9393674446656012"><ele>212.0</ele><time>2026-05-01T07:46:08Z</time></trkpt><trkpt lat="44.76043147356541" lon="0.9394459222824849"><ele>212.0</ele><time>2026-05-01T07:46:09Z</time></trkpt><trkpt lat="44.76035192698749" lon="0.9395144434848025"><ele>212.0</ele><time>2026-05-01T07:46:10Z</time></trkpt><trkpt lat="44.760268520321056" lon="0.9396058124077584"><ele>212.0</ele><time>2026-05-01T07:46:11Z</time></trkpt><trkpt lat="44.76019365248014" lon="0.9397055772781824"><ele>212.0</ele><time>2026-05-01T07:46:12Z</time></trkpt><trkpt lat="44.76012669823111" lon="0.9398054109978323"><ele>212.0</ele><time>2026-05-01T07:46:13Z</time></trkpt><trkpt lat="44.76005197723447" lon="0.93992099144133"><ele>212.0</ele><time>2026-05-01T07:46:14Z</time></trkpt><trkpt lat="44.75997449832857" lon="0.9400293648947853"><ele>212.0</ele><time>2026-05-01T07:46:15Z</time></trkpt><trkpt lat="44.75991019672789" lon="0.940116538515051"><ele>212.0</ele><time>2026-05-01T07:46:16Z</time></trkpt><trkpt lat="44.759861054764215" lon="0.9401950842398646"><ele>212.0</ele><time>2026-05-01T07:46:17Z</time></trkpt><trkpt lat="44.75982373870309" lon="0.9402688213603025"><ele>212.0</ele><time>2026-05-01T07:46:18Z</time></trkpt><trkpt lat="44.7597786114262" lon="0.9404455343142237"><ele>212.00000000000003</ele><time>2026-05-01T07:46:20Z</time></trkpt><trkpt lat="44.75975395405617" lon="0.9405561721763531"><ele>212.0</ele><time>2026-05-01T07:46:21Z</time></trkpt><trkpt lat="44.75973404568416" lon="0.940666804787318"><ele>212.0</ele><time>2026-05-01T07:46:22Z</time></trkpt><trkpt lat="44.7597365838157" lon="0.94081811227443"><ele>212.0</ele><time>2026-05-01T07:46:24Z</time></trkpt><trkpt lat="44.75974919363634" lon="0.9409143204468744"><ele>212.00000000000003</ele><time>2026-05-01T07:46:25Z</time></trkpt><trkpt lat="44.7597530905503" lon="0.9410184047348553"><ele>212.0</ele><time>2026-05-01T07:46:26Z</time></trkpt><trkpt lat="44.75974513617469" lon="0.941107274433203"><ele>212.8</ele><time>2026-05-01T07:46:27Z</time></trkpt><trkpt lat="44.75968760762053" lon="0.9412365249787817"><ele>213.6</ele><time>2026-05-01T07:46:29Z</time></trkpt><trkpt lat="44.75964948808811" lon="0.9413908262085864"><ele>214.40000000000003</ele><time>2026-05-01T07:46:31Z</time></trkpt><trkpt lat="44.75962800582559" lon="0.9415563810254003"><ele>215.20000000000002</ele><time>2026-05-01T07:46:33Z</time></trkpt><trkpt lat="44.75960465637799" lon="0.9416791946349968"><ele>216.0</ele><time>2026-05-01T07:46:34Z</time></trkpt><trkpt lat="44.75958417685224" lon="0.9417740874122928"><ele>216.0</ele><time>2026-05-01T07:46:35Z</time></trkpt><trkpt lat="44.7595273735745" lon="0.941895276596001"><ele>216.00000000000003</ele><time>2026-05-01T07:46:37Z</time></trkpt><trkpt lat="44.75949145843449" lon="0.9419774070047262"><ele>216.00000000000003</ele><time>2026-05-01T07:46:38Z</time></trkpt><trkpt lat="44.75945582910519" lon="0.9421440563315612"><ele>216.0</ele><time>2026-05-01T07:46:40Z</time></trkpt><trkpt lat="44.759433371166615" lon="0.9422723294486989"><ele>216.0</ele><time>2026-05-01T07:46:41Z</time></trkpt><trkpt lat="44.7594124224387" lon="0.9424044179379325"><ele>216.0</ele><time>2026-05-01T07:46:42Z</time></trkpt><trkpt lat="44.75938495211974" lon="0.9425387913023022"><ele>216.00000000000003</ele><time>2026-05-01T07:46:43Z</time></trkpt><trkpt lat="44.75936546841814" lon="0.9426738017807863"><ele>216.00000000000003</ele><time>2026-05-01T07:46:44Z</time></trkpt><trkpt lat="44.75934810544274" lon="0.9428105409478998"><ele>216.0</ele><time>2026-05-01T07:46:45Z</time></trkpt><trkpt lat="44.75932449463525" lon="0.9429407368084425"><ele>216.0</ele><time>2026-05-01T07:46:46Z</time></trkpt><trkpt lat="44.75930414624613" lon="0.9430732580748884"><ele>214.5</ele><time>2026-05-01T07:46:47Z</time></trkpt><trkpt lat="44.75929010903173" lon="0.9431874977756882"><ele>213.0</ele><time>2026-05-01T07:46:48Z</time></trkpt><trkpt lat="44.7592706589818" lon="0.9433017543247604"><ele>211.5</ele><time>2026-05-01T07:46:49Z</time></trkpt><trkpt lat="44.75925417420123" lon="0.9434134335256461"><ele>210.0</ele><time>2026-05-01T07:46:50Z</time></trkpt><trkpt lat="44.75922716816039" lon="0.94354191038665"><ele>208.5</ele><time>2026-05-01T07:46:51Z</time></trkpt><trkpt lat="44.75920926948784" lon="0.9436458327868534"><ele>207.0</ele><time>2026-05-01T07:46:52Z</time></trkpt><trkpt lat="44.759192908767545" lon="0.9437729065859471"><ele>206.8</ele><time>2026-05-01T07:46:53Z</time></trkpt><trkpt lat="44.759171699993" lon="0.9438929503098161"><ele>206.6</ele><time>2026-05-01T07:46:54Z</time></trkpt><trkpt lat="44.759160183596755" lon="0.9440831830772585"><ele>206.4</ele><time>2026-05-01T07:46:56Z</time></trkpt><trkpt lat="44.75915770223131" lon="0.9441773342093662"><ele>206.20000000000002</ele><time>2026-05-01T07:46:57Z</time></trkpt><trkpt lat="44.759135277818274" lon="0.9442752110953159"><ele>206.0</ele><time>2026-05-01T07:46:58Z</time></trkpt><trkpt lat="44.75905273418499" lon="0.9443794434048443"><ele>205.50000000000003</ele><time>2026-05-01T07:47:00Z</time></trkpt><trkpt lat="44.75899597038307" lon="0.9444430978689782"><ele>205.0</ele><time>2026-05-01T07:47:01Z</time></trkpt><trkpt lat="44.7589263120554" lon="0.9445208381324758"><ele>204.5</ele><time>2026-05-01T07:47:02Z</time></trkpt><trkpt lat="44.758870436914904" lon="0.9445639920293397"><ele>204.0</ele><time>2026-05-01T07:47:03Z</time></trkpt><trkpt lat="44.75877132565999" lon="0.9446292093814744"><ele>203.50000000000003</ele><time>2026-05-01T07:47:05Z</time></trkpt><trkpt lat="44.75872214715579" lon="0.9446921913254707"><ele>203.0</ele><time>2026-05-01T07:47:06Z</time></trkpt><trkpt lat="44.75867504318797" lon="0.9447745780577433"><ele>203.0</ele><time>2026-05-01T07:47:07Z</time></trkpt><trkpt lat="44.758640105747176" lon="0.944878490826545"><ele>203.0</ele><time>2026-05-01T07:47:08Z</time></trkpt><trkpt lat="44.75859911780309" lon="0.945005012121197"><ele>203.0</ele><time>2026-05-01T07:47:09Z</time></trkpt><trkpt lat="44.75855343447548" lon="0.9451295587771192"><ele>203.0</ele><time>2026-05-01T07:47:10Z</time></trkpt><trkpt lat="44.758507648215655" lon="0.9452600703851454"><ele>203.0</ele><time>2026-05-01T07:47:11Z</time></trkpt><trkpt lat="44.75846831383804" lon="0.9454017726372852"><ele>200.60000000000002</ele><time>2026-05-01T07:47:12Z</time></trkpt><trkpt lat="44.75843682090092" lon="0.9455376985523467"><ele>198.20000000000002</ele><time>2026-05-01T07:47:13Z</time></trkpt><trkpt lat="44.75841017160622" lon="0.9456783881973919"><ele>195.8</ele><time>2026-05-01T07:47:14Z</time></trkpt><trkpt lat="44.75838729996428" lon="0.945823794769248"><ele>193.4</ele><time>2026-05-01T07:47:15Z</time></trkpt><trkpt lat="44.75837316402497" lon="0.9459569550354858"><ele>191.0</ele><time>2026-05-01T07:47:16Z</time></trkpt><trkpt lat="44.75836111575113" lon="0.9460745788375984"><ele>191.0</ele><time>2026-05-01T07:47:17Z</time></trkpt><trkpt lat="44.75834411294354" lon="0.9461950207648603"><ele>191.0</ele><time>2026-05-01T07:47:18Z</time></trkpt><trkpt lat="44.758323458185515" lon="0.9463254775266439"><ele>191.0</ele><time>2026-05-01T07:47:19Z</time></trkpt><trkpt lat="44.758303045696934" lon="0.9464765185080075"><ele>191.0</ele><time>2026-05-01T07:47:20Z</time></trkpt><trkpt lat="44.75824312149825" lon="0.9466113742702853"><ele>191.0</ele><time>2026-05-01T07:47:21Z</time></trkpt><trkpt lat="44.758231050740996" lon="0.9467399625850629"><ele>191.16666666666666</ele><time>2026-05-01T07:47:22Z</time></trkpt><trkpt lat="44.758227404012565" lon="0.9468539413593245"><ele>191.33333333333331</ele><time>2026-05-01T07:47:23Z</time></trkpt><trkpt lat="44.75822793381528" lon="0.9469597815519442"><ele>191.5</ele><time>2026-05-01T07:47:24Z</time></trkpt><trkpt lat="44.75823160714463" lon="0.9470554929658228"><ele>191.66666666666666</ele><time>2026-05-01T07:47:25Z</time></trkpt><trkpt lat="44.75824776314606" lon="0.9472095330665556"><ele>191.83333333333334</ele><time>2026-05-01T07:47:27Z</time></trkpt><trkpt lat="44.75825630413532" lon="0.9473686025270482"><ele>192.0</ele><time>2026-05-01T07:47:29Z</time></trkpt><trkpt lat="44.758284048477265" lon="0.9474800885754684"><ele>191.2</ele><time>2026-05-01T07:47:30Z</time></trkpt><trkpt lat="44.75832376136727" lon="0.9475994942387078"><ele>190.39999999999998</ele><time>2026-05-01T07:47:31Z</time></trkpt><trkpt lat="44.75835551463822" lon="0.9476868560284151"><ele>189.60000000000002</ele><time>2026-05-01T07:47:32Z</time></trkpt><trkpt lat="44.75838975540612" lon="0.9477714459934979"><ele>188.8</ele><time>2026-05-01T07:47:33Z</time></trkpt><trkpt lat="44.758441503651056" lon="0.9479223028252133"><ele>188.0</ele><time>2026-05-01T07:47:35Z</time></trkpt><trkpt lat="44.75812203718442" lon="0.9483262476155255"><ele>187.2</ele><time>2026-05-01T07:47:36Z</time></trkpt><trkpt lat="44.75812294431229" lon="0.9484798521677659"><ele>186.4</ele><time>2026-05-01T07:47:37Z</time></trkpt><trkpt lat="44.75810035000041" lon="0.9485879019825547"><ele>185.6</ele><time>2026-05-01T07:47:38Z</time></trkpt><trkpt lat="44.75809137645724" lon="0.948701249943121"><ele>184.79999999999998</ele><time>2026-05-01T07:47:39Z</time></trkpt><trkpt lat="44.7580813296657" lon="0.9488238076980207"><ele>184.0</ele><time>2026-05-01T07:47:40Z</time></trkpt><trkpt lat="44.75807254446557" lon="0.9489582435731836"><ele>184.0</ele><time>2026-05-01T07:47:41Z</time></trkpt><trkpt lat="44.75808104145807" lon="0.9491435187095422"><ele>184.0</ele><time>2026-05-01T07:47:42Z</time></trkpt><trkpt lat="44.75807221015639" lon="0.94931176500692"><ele>184.0</ele><time>2026-05-01T07:47:43Z</time></trkpt><trkpt lat="44.75806033238712" lon="0.9494534554776611"><ele>184.0</ele><time>2026-05-01T07:47:44Z</time></trkpt><trkpt lat="44.758037746330785" lon="0.9495750900843851"><ele>184.0</ele><time>2026-05-01T07:47:45Z</time></trkpt><trkpt lat="44.75803903020099" lon="0.9496805504094404"><ele>184.0</ele><time>2026-05-01T07:47:46Z</time></trkpt><trkpt lat="44.75803572381602" lon="0.9498191126942109"><ele>184.0</ele><time>2026-05-01T07:47:47Z</time></trkpt><trkpt lat="44.758007579292055" lon="0.9499650964975149"><ele>184.0</ele><time>2026-05-01T07:47:48Z</time></trkpt><trkpt lat="44.75797203416711" lon="0.9500551756988121"><ele>184.0</ele><time>2026-05-01T07:47:49Z</time></trkpt><trkpt lat="44.75791701847654" lon="0.9501283168204615"><ele>184.0</ele><time>2026-05-01T07:47:50Z</time></trkpt><trkpt lat="44.7578647864539" lon="0.9502442731224531"><ele>184.0</ele><time>2026-05-01T07:47:51Z</time></trkpt><trkpt lat="44.75779350601508" lon="0.9503392300224496"><ele>184.0</ele><time>2026-05-01T07:47:52Z</time></trkpt><trkpt lat="44.75771544195297" lon="0.9504064150037278"><ele>184.0</ele><time>2026-05-01T07:47:53Z</time></trkpt><trkpt lat="44.757650653393604" lon="0.9504825215860531"><ele>184.0</ele><time>2026-05-01T07:47:54Z</time></trkpt><trkpt lat="44.75760329919426" lon="0.95056700724902"><ele>184.0</ele><time>2026-05-01T07:47:55Z</time></trkpt><trkpt lat="44.75754913840576" lon="0.9506852356706975"><ele>183.0</ele><time>2026-05-01T07:47:56Z</time></trkpt><trkpt lat="44.75750311435202" lon="0.9508621767893538"><ele>182.0</ele><time>2026-05-01T07:47:57Z</time></trkpt><trkpt lat="44.75746126678851" lon="0.9509934450403251"><ele>181.0</ele><time>2026-05-01T07:47:58Z</time></trkpt><trkpt lat="44.757420905164345" lon="0.9511370626396768"><ele>180.0</ele><time>2026-05-01T07:47:59Z</time></trkpt><trkpt lat="44.757397645781424" lon="0.9512682834451278"><ele>179.0</ele><time>2026-05-01T07:48:00Z</time></trkpt><trkpt lat="44.75737054755586" lon="0.9513940948671027"><ele>178.6</ele><time>2026-05-01T07:48:01Z</time></trkpt><trkpt lat="44.75733455343097" lon="0.9515219216865182"><ele>178.2</ele><time>2026-05-01T07:48:02Z</time></trkpt><trkpt lat="44.75732529172875" lon="0.9516706259060955"><ele>177.79999999999998</ele><time>2026-05-01T07:48:03Z</time></trkpt><trkpt lat="44.757297999379226" lon="0.951808808268854"><ele>177.39999999999998</ele><time>2026-05-01T07:48:04Z</time></trkpt><trkpt lat="44.757320710523445" lon="0.9519227977863267"><ele>177.0</ele><time>2026-05-01T07:48:05Z</time></trkpt><trkpt lat="44.75733405415757" lon="0.952047243225389"><ele>176.83333333333334</ele><time>2026-05-01T07:48:06Z</time></trkpt><trkpt lat="44.757337051666" lon="0.9521691437156921"><ele>176.66666666666666</ele><time>2026-05-01T07:48:07Z</time></trkpt><trkpt lat="44.757356115930044" lon="0.9522738084962901"><ele>176.5</ele><time>2026-05-01T07:48:08Z</time></trkpt><trkpt lat="44.757354540477714" lon="0.9523699656256663"><ele>176.33333333333331</ele><time>2026-05-01T07:48:09Z</time></trkpt><trkpt lat="44.75735471029972" lon="0.9524666611123339"><ele>176.16666666666666</ele><time>2026-05-01T07:48:10Z</time></trkpt><trkpt lat="44.75735934281154" lon="0.9525739789738692"><ele>176.0</ele><time>2026-05-01T07:48:11Z</time></trkpt><trkpt lat="44.75737530838526" lon="0.9527015067214336"><ele>176.0</ele><time>2026-05-01T07:48:12Z</time></trkpt><trkpt lat="44.757388913494694" lon="0.9528479253067488"><ele>176.0</ele><time>2026-05-01T07:48:13Z</time></trkpt><trkpt lat="44.75740688851759" lon="0.9529957088063298"><ele>176.0</ele><time>2026-05-01T07:48:14Z</time></trkpt><trkpt lat="44.75741714159355" lon="0.9531295916251369"><ele>176.0</ele><time>2026-05-01T07:48:15Z</time></trkpt><trkpt lat="44.75741901673938" lon="0.9532656532801568"><ele>176.0</ele><time>2026-05-01T07:48:16Z</time></trkpt><trkpt lat="44.75740973051771" lon="0.9534119495128903"><ele>176.60000000000002</ele><time>2026-05-01T07:48:17Z</time></trkpt><trkpt lat="44.757404006608176" lon="0.9535616960043715"><ele>177.2</ele><time>2026-05-01T07:48:18Z</time></trkpt><trkpt lat="44.75740373350266" lon="0.9536988462215544"><ele>177.8</ele><time>2026-05-01T07:48:19Z</time></trkpt><trkpt lat="44.757411237232496" lon="0.9538191334891908"><ele>178.39999999999998</ele><time>2026-05-01T07:48:20Z</time></trkpt><trkpt lat="44.75740664963505" lon="0.9539491275120551"><ele>179.0</ele><time>2026-05-01T07:48:21Z</time></trkpt><trkpt lat="44.75742393670861" lon="0.9540825935009002"><ele>179.0</ele><time>2026-05-01T07:48:22Z</time></trkpt><trkpt lat="44.757426788498975" lon="0.9541990275487079"><ele>179.0</ele><time>2026-05-01T07:48:23Z</time></trkpt><trkpt lat="44.757414830274655" lon="0.9543280039597967"><ele>179.0</ele><time>2026-05-01T07:48:24Z</time></trkpt><trkpt lat="44.75741818122795" lon="0.9544398663763559"><ele>179.0</ele><time>2026-05-01T07:48:25Z</time></trkpt><trkpt lat="44.75744388209854" lon="0.9545968171150784"><ele>179.0</ele><time>2026-05-01T07:48:27Z</time></trkpt><trkpt lat="44.75748447712434" lon="0.9546734908121355"><ele>179.0</ele><time>2026-05-01T07:48:28Z</time></trkpt><trkpt lat="44.75754741737143" lon="0.9547146526604045"><ele>179.2</ele><time>2026-05-01T07:48:29Z</time></trkpt><trkpt lat="44.75762801796304" lon="0.9547904558945095"><ele>179.39999999999998</ele><time>2026-05-01T07:48:30Z</time></trkpt><trkpt lat="44.75768509215156" lon="0.9548649953081966"><ele>179.6</ele><time>2026-05-01T07:48:31Z</time></trkpt><trkpt lat="44.757757114662745" lon="0.9549629734352971"><ele>179.8</ele><time>2026-05-01T07:48:32Z</time></trkpt><trkpt lat="44.75782775874589" lon="0.9550685841397629"><ele>180.0</ele><time>2026-05-01T07:48:33Z</time></trkpt><trkpt lat="44.75789964808565" lon="0.9551760502890058"><ele>181.0</ele><time>2026-05-01T07:48:34Z</time></trkpt><trkpt lat="44.75796228385339" lon="0.9552865214309618"><ele>182.0</ele><time>2026-05-01T07:48:35Z</time></trkpt><trkpt lat="44.75802668018786" lon="0.9553808484470985"><ele>183.0</ele><time>2026-05-01T07:48:36Z</time></trkpt><trkpt lat="44.758085674608004" lon="0.9554692798537875"><ele>184.0</ele><time>2026-05-01T07:48:37Z</time></trkpt><trkpt lat="44.758135973579236" lon="0.9555595689340266"><ele>185.0</ele><time>2026-05-01T07:48:38Z</time></trkpt><trkpt lat="44.75818323499484" lon="0.9556785510419976"><ele>185.0</ele><time>2026-05-01T07:48:39Z</time></trkpt><trkpt lat="44.75826833614156" lon="0.9557741997700805"><ele>185.0</ele><time>2026-05-01T07:48:40Z</time></trkpt><trkpt lat="44.75834218866967" lon="0.9558689856255842"><ele>185.0</ele><time>2026-05-01T07:48:41Z</time></trkpt><trkpt lat="44.758407412279105" lon="0.9559651365017229"><ele>185.0</ele><time>2026-05-01T07:48:42Z</time></trkpt><trkpt lat="44.758484552495105" lon="0.9560703622562602"><ele>185.0</ele><time>2026-05-01T07:48:43Z</time></trkpt><trkpt lat="44.75855480072672" lon="0.9561780979738399"><ele>186.16666666666666</ele><time>2026-05-01T07:48:44Z</time></trkpt><trkpt lat="44.75860712175184" lon="0.9562659898970981"><ele>187.33333333333331</ele><time>2026-05-01T07:48:45Z</time></trkpt><trkpt lat="44.75865699025116" lon="0.9563560124902059"><ele>188.5</ele><time>2026-05-01T07:48:46Z</time></trkpt><trkpt lat="44.75870646509165" lon="0.9564353809136436"><ele>189.66666666666666</ele><time>2026-05-01T07:48:47Z</time></trkpt><trkpt lat="44.75875442647461" lon="0.956508797169887"><ele>190.83333333333334</ele><time>2026-05-01T07:48:48Z</time></trkpt><trkpt lat="44.75877951482158" lon="0.9565970651323696"><ele>192.0</ele><time>2026-05-01T07:48:49Z</time></trkpt><trkpt lat="44.75883012256179" lon="0.9566828590772836"><ele>191.6</ele><time>2026-05-01T07:48:50Z</time></trkpt><trkpt lat="44.75888943634692" lon="0.9567777200857134"><ele>191.2</ele><time>2026-05-01T07:48:51Z</time></trkpt><trkpt lat="44.75894593285652" lon="0.9568644665760213"><ele>190.8</ele><time>2026-05-01T07:48:52Z</time></trkpt><trkpt lat="44.75899146032759" lon="0.9569756232750711"><ele>190.4</ele><time>2026-05-01T07:48:53Z</time></trkpt><trkpt lat="44.75905891100314" lon="0.9570894091513541"><ele>190.0</ele><time>2026-05-01T07:48:54Z</time></trkpt><trkpt lat="44.75911845306287" lon="0.957234124232455"><ele>190.0</ele><time>2026-05-01T07:48:55Z</time></trkpt><trkpt lat="44.75917598293341" lon="0.9573666694578589"><ele>190.0</ele><time>2026-05-01T07:48:56Z</time></trkpt><trkpt lat="44.7592461648524" lon="0.9574933880244118"><ele>190.0</ele><time>2026-05-01T07:48:57Z</time></trkpt><trkpt lat="44.75930361870765" lon="0.9576150957130868"><ele>190.0</ele><time>2026-05-01T07:48:58Z</time></trkpt><trkpt lat="44.75936519941138" lon="0.9577291982910269"><ele>190.0</ele><time>2026-05-01T07:48:59Z</time></trkpt><trkpt lat="44.75942227690286" lon="0.9578348074141738"><ele>191.16666666666669</ele><time>2026-05-01T07:49:00Z</time></trkpt><trkpt lat="44.759477989509975" lon="0.9579344921915091"><ele>192.33333333333334</ele><time>2026-05-01T07:49:01Z</time></trkpt><trkpt lat="44.75954050632352" lon="0.958024264687527"><ele>193.5</ele><time>2026-05-01T07:49:02Z</time></trkpt><trkpt lat="44.759592760648395" lon="0.9580997681012171"><ele>194.66666666666669</ele><time>2026-05-01T07:49:03Z</time></trkpt><trkpt lat="44.75964829790284" lon="0.9581719908137596"><ele>195.83333333333334</ele><time>2026-05-01T07:49:04Z</time></trkpt><trkpt lat="44.759727342866306" lon="0.9582908594600624"><ele>197.0</ele><time>2026-05-01T07:49:06Z</time></trkpt><trkpt lat="44.759793188901234" lon="0.95836753759515"><ele>197.5</ele><time>2026-05-01T07:49:07Z</time></trkpt><trkpt lat="44.75988876593721" lon="0.9584230918389816"><ele>198.0</ele><time>2026-05-01T07:49:08Z</time></trkpt><trkpt lat="44.76000027049196" lon="0.9584712562022135"><ele>198.5</ele><time>2026-05-01T07:49:09Z</time></trkpt><trkpt lat="44.76011240995287" lon="0.9585260798690496"><ele>199.0</ele><time>2026-05-01T07:49:10Z</time></trkpt><trkpt lat="44.76022847303438" lon="0.9585949400030961"><ele>199.6</ele><time>2026-05-01T07:49:11Z</time></trkpt><trkpt lat="44.76033346838518" lon="0.958669078153043"><ele>200.2</ele><time>2026-05-01T07:49:12Z</time></trkpt><trkpt lat="44.760414524964055" lon="0.9587223656740467"><ele>200.79999999999998</ele><time>2026-05-01T07:49:13Z</time></trkpt><trkpt lat="44.76048581018129" lon="0.9587461594539957"><ele>201.39999999999998</ele><time>2026-05-01T07:49:14Z</time></trkpt><trkpt lat="44.76056714994151" lon="0.9587660093809095"><ele>202.0</ele><time>2026-05-01T07:49:16Z</time></trkpt><trkpt lat="44.76051937287886" lon="0.9588719411643195"><ele>202.0</ele><time>2026-05-01T07:49:18Z</time></trkpt><trkpt lat="44.76041186169118" lon="0.9589324935124819"><ele>202.0</ele><time>2026-05-01T07:49:20Z</time></trkpt><trkpt lat="44.76030352455587" lon="0.9590044001281979"><ele>202.0</ele><time>2026-05-01T07:49:22Z</time></trkpt><trkpt lat="44.76018615644899" lon="0.9591060494957179"><ele>202.0</ele><time>2026-05-01T07:49:24Z</time></trkpt><trkpt lat="44.7601179852923" lon="0.9591723463708092"><ele>200.6</ele><time>2026-05-01T07:49:25Z</time></trkpt><trkpt lat="44.76004356922367" lon="0.959230035962657"><ele>199.2</ele><time>2026-05-01T07:49:26Z</time></trkpt><trkpt lat="44.75997830378269" lon="0.9592922777697097"><ele>197.8</ele><time>2026-05-01T07:49:27Z</time></trkpt><trkpt lat="44.75990844777436" lon="0.9593631193698379"><ele>196.4</ele><time>2026-05-01T07:49:28Z</time></trkpt><trkpt lat="44.75982400998548" lon="0.9594452618080636"><ele>195.0</ele><time>2026-05-01T07:49:29Z</time></trkpt><trkpt lat="44.75974363130042" lon="0.9595379965366526"><ele>195.0</ele><time>2026-05-01T07:49:30Z</time></trkpt><trkpt lat="44.759637936101065" lon="0.9596461863197567"><ele>195.0</ele><time>2026-05-01T07:49:31Z</time></trkpt><trkpt lat="44.75950643505402" lon="0.9597623624343403"><ele>195.0</ele><time>2026-05-01T07:49:32Z</time></trkpt><trkpt lat="44.75938187249838" lon="0.9598899710963368"><ele>195.0</ele><time>2026-05-01T07:49:33Z</time></trkpt><trkpt lat="44.759263834600475" lon="0.9599882815274091"><ele>194.5</ele><time>2026-05-01T07:49:34Z</time></trkpt><trkpt lat="44.759149007628366" lon="0.9600707115344556"><ele>194.0</ele><time>2026-05-01T07:49:35Z</time></trkpt><trkpt lat="44.75904110841383" lon="0.9601538330476944"><ele>193.5</ele><time>2026-05-01T07:49:36Z</time></trkpt><trkpt lat="44.75893254738167" lon="0.9602290402238204"><ele>193.0</ele><time>2026-05-01T07:49:37Z</time></trkpt><trkpt lat="44.75883252850579" lon="0.9602781092047438"><ele>193.0</ele><time>2026-05-01T07:49:38Z</time></trkpt><trkpt lat="44.75871486867351" lon="0.9603150675918377"><ele>193.0</ele><time>2026-05-01T07:49:39Z</time></trkpt><trkpt lat="44.758600977926775" lon="0.9603347300368902"><ele>193.0</ele><time>2026-05-01T07:49:40Z</time></trkpt><trkpt lat="44.75847602446908" lon="0.9603367341893251"><ele>193.0</ele><time>2026-05-01T07:49:41Z</time></trkpt><trkpt lat="44.75835119142791" lon="0.96034463535385"><ele>192.5</ele><time>2026-05-01T07:49:42Z</time></trkpt><trkpt lat="44.75822894708934" lon="0.9603597968586893"><ele>192.0</ele><time>2026-05-01T07:49:43Z</time></trkpt><trkpt lat="44.75810610785884" lon="0.9603789569960192"><ele>191.5</ele><time>2026-05-01T07:49:44Z</time></trkpt><trkpt lat="44.75798227294572" lon="0.9604094005619703"><ele>191.0</ele><time>2026-05-01T07:49:45Z</time></trkpt><trkpt lat="44.75785516497256" lon="0.9604318754968867"><ele>191.0</ele><time>2026-05-01T07:49:46Z</time></trkpt><trkpt lat="44.75771919139722" lon="0.9604646386378453"><ele>191.0</ele><time>2026-05-01T07:49:47Z</time></trkpt><trkpt lat="44.75758709099253" lon="0.9604903576859415"><ele>191.0</ele><time>2026-05-01T07:49:48Z</time></trkpt><trkpt lat="44.75746502305049" lon="0.9605170936010781"><ele>191.0</ele><time>2026-05-01T07:49:49Z</time></trkpt><trkpt lat="44.757346732658064" lon="0.9605417935694226"><ele>190.75</ele><time>2026-05-01T07:49:50Z</time></trkpt><trkpt lat="44.75722292167869" lon="0.9605404864054831"><ele>190.5</ele><time>2026-05-01T07:49:51Z</time></trkpt><trkpt lat="44.75711449371414" lon="0.9605626848015025"><ele>190.25</ele><time>2026-05-01T07:49:52Z</time></trkpt><trkpt lat="44.75700669660548" lon="0.9605456775528755"><ele>190.0</ele><time>2026-05-01T07:49:53Z</time></trkpt><trkpt lat="44.75689800931298" lon="0.9605389919570274"><ele>189.0</ele><time>2026-05-01T07:49:54Z</time></trkpt><trkpt lat="44.756780094135394" lon="0.960526062742134"><ele>188.0</ele><time>2026-05-01T07:49:55Z</time></trkpt><trkpt lat="44.756652511570664" lon="0.9605338416367354"><ele>187.0</ele><time>2026-05-01T07:49:56Z</time></trkpt><trkpt lat="44.75652660117087" lon="0.9605225919572061"><ele>186.0</ele><time>2026-05-01T07:49:57Z</time></trkpt><trkpt lat="44.756409858397255" lon="0.9605326671977541"><ele>186.0</ele><time>2026-05-01T07:49:58Z</time></trkpt><trkpt lat="44.756294570187976" lon="0.9605455549772078"><ele>186.0</ele><time>2026-05-01T07:49:59Z</time></trkpt><trkpt lat="44.75617832859339" lon="0.9605559332463146"><ele>186.0</ele><time>2026-05-01T07:50:00Z</time></trkpt><trkpt lat="44.75606370343509" lon="0.9605576874168815"><ele>186.0</ele><time>2026-05-01T07:50:01Z</time></trkpt><trkpt lat="44.75593889922336" lon="0.9605605503702319"><ele>184.60000000000002</ele><time>2026-05-01T07:50:02Z</time></trkpt><trkpt lat="44.75582769242969" lon="0.9605617399327585"><ele>183.2</ele><time>2026-05-01T07:50:03Z</time></trkpt><trkpt lat="44.75571844380796" lon="0.9605412514197086"><ele>181.8</ele><time>2026-05-01T07:50:04Z</time></trkpt><trkpt lat="44.75561403248186" lon="0.9605404697483315"><ele>180.39999999999998</ele><time>2026-05-01T07:50:05Z</time></trkpt><trkpt lat="44.755505075322766" lon="0.9605577657595422"><ele>179.0</ele><time>2026-05-01T07:50:06Z</time></trkpt><trkpt lat="44.75538568572522" lon="0.9605509032359872"><ele>179.0</ele><time>2026-05-01T07:50:07Z</time></trkpt><trkpt lat="44.755267476449745" lon="0.9605499634886282"><ele>179.0</ele><time>2026-05-01T07:50:08Z</time></trkpt><trkpt lat="44.7551673985381" lon="0.9605554867545655"><ele>179.0</ele><time>2026-05-01T07:50:09Z</time></trkpt><trkpt lat="44.755062316045546" lon="0.9605639869203887"><ele>179.0</ele><time>2026-05-01T07:50:10Z</time></trkpt><trkpt lat="44.75495320773578" lon="0.9605586299530112"><ele>179.0</ele><time>2026-05-01T07:50:11Z</time></trkpt><trkpt lat="44.75484731753039" lon="0.9605599646809122"><ele>179.6</ele><time>2026-05-01T07:50:12Z</time></trkpt><trkpt lat="44.75474801581522" lon="0.9605637360423962"><ele>180.2</ele><time>2026-05-01T07:50:13Z</time></trkpt><trkpt lat="44.754661685649296" lon="0.9605539781406935"><ele>180.79999999999998</ele><time>2026-05-01T07:50:14Z</time></trkpt><trkpt lat="44.754550414351904" lon="0.9605673877778071"><ele>181.39999999999998</ele><time>2026-05-01T07:50:15Z</time></trkpt><trkpt lat="44.754448471680526" lon="0.9605729221682803"><ele>182.0</ele><time>2026-05-01T07:50:16Z</time></trkpt><trkpt lat="44.75435750484824" lon="0.9605668008800754"><ele>182.25</ele><time>2026-05-01T07:50:17Z</time></trkpt><trkpt lat="44.754255579315" lon="0.9605878953584113"><ele>182.5</ele><time>2026-05-01T07:50:18Z</time></trkpt><trkpt lat="44.754140142457615" lon="0.960625840770457"><ele>182.75</ele><time>2026-05-01T07:50:19Z</time></trkpt><trkpt lat="44.754031047894216" lon="0.9606787412159005"><ele>183.0</ele><time>2026-05-01T07:50:20Z</time></trkpt><trkpt lat="44.75390907695614" lon="0.9607467570948942"><ele>183.0</ele><time>2026-05-01T07:50:21Z</time></trkpt><trkpt lat="44.75378748243047" lon="0.9607881119070191"><ele>183.0</ele><time>2026-05-01T07:50:22Z</time></trkpt><trkpt lat="44.753672250553784" lon="0.9608195063517235"><ele>183.0</ele><time>2026-05-01T07:50:23Z</time></trkpt><trkpt lat="44.75355778060521" lon="0.9608758065930828"><ele>183.0</ele><time>2026-05-01T07:50:24Z</time></trkpt><trkpt lat="44.753451668044626" lon="0.9609087971833622"><ele>182.60000000000002</ele><time>2026-05-01T07:50:25Z</time></trkpt><trkpt lat="44.753348264078554" lon="0.9609495007910741"><ele>182.20000000000002</ele><time>2026-05-01T07:50:26Z</time></trkpt><trkpt lat="44.753251805968304" lon="0.9610091634114959"><ele>181.8</ele><time>2026-05-01T07:50:27Z</time></trkpt><trkpt lat="44.753131031736494" lon="0.9610731134063305"><ele>181.4</ele><time>2026-05-01T07:50:28Z</time></trkpt><trkpt lat="44.753040955440014" lon="0.9611256201266133"><ele>181.0</ele><time>2026-05-01T07:50:29Z</time></trkpt><trkpt lat="44.75293750631816" lon="0.9611301941971553"><ele>181.0</ele><time>2026-05-01T07:50:30Z</time></trkpt><trkpt lat="44.752829472044134" lon="0.9611467225841949"><ele>181.0</ele><time>2026-05-01T07:50:31Z</time></trkpt><trkpt lat="44.752735195592784" lon="0.9611552498230337"><ele>181.0</ele><time>2026-05-01T07:50:32Z</time></trkpt><trkpt lat="44.75264555726159" lon="0.9611656738784717"><ele>181.0</ele><time>2026-05-01T07:50:33Z</time></trkpt><trkpt lat="44.752568900309456" lon="0.9611708473886692"><ele>181.0</ele><time>2026-05-01T07:50:34Z</time></trkpt><trkpt lat="44.75248528404871" lon="0.9611722132626906"><ele>180.0</ele><time>2026-05-01T07:50:35Z</time></trkpt><trkpt lat="44.75240644412155" lon="0.9611838078908085"><ele>179.0</ele><time>2026-05-01T07:50:36Z</time></trkpt><trkpt lat="44.752335316547786" lon="0.9611792050636705"><ele>178.0</ele><time>2026-05-01T07:50:37Z</time></trkpt><trkpt lat="44.7522607918622" lon="0.961170150782856"><ele>177.0</ele><time>2026-05-01T07:50:38Z</time></trkpt><trkpt lat="44.752189838876085" lon="0.9611402000190381"><ele>176.0</ele><time>2026-05-01T07:50:39Z</time></trkpt><trkpt lat="44.75211267518561" lon="0.9611037381260201"><ele>175.0</ele><time>2026-05-01T07:50:40Z</time></trkpt><trkpt lat="44.752032898521726" lon="0.9610790105191087"><ele>175.0</ele><time>2026-05-01T07:50:41Z</time></trkpt><trkpt lat="44.751953410945355" lon="0.9610812278850349"><ele>175.0</ele><time>2026-05-01T07:50:42Z</time></trkpt><trkpt lat="44.75187340892702" lon="0.9610476914910632"><ele>175.0</ele><time>2026-05-01T07:50:43Z</time></trkpt><trkpt lat="44.75179305423578" lon="0.9610336544578694"><ele>175.0</ele><time>2026-05-01T07:50:44Z</time></trkpt><trkpt lat="44.75172180801931" lon="0.9610425638652687"><ele>175.0</ele><time>2026-05-01T07:50:45Z</time></trkpt><trkpt lat="44.751613564157324" lon="0.9610211050177658"><ele>175.0</ele><time>2026-05-01T07:50:47Z</time></trkpt><trkpt lat="44.75150211062477" lon="0.9609996042266882"><ele>175.5</ele><time>2026-05-01T07:50:49Z</time></trkpt><trkpt lat="44.751434998932446" lon="0.960978556459543"><ele>176.0</ele><time>2026-05-01T07:50:51Z</time></trkpt><trkpt lat="44.751362361510665" lon="0.9609958183863506"><ele>176.5</ele><time>2026-05-01T07:50:53Z</time></trkpt><trkpt lat="44.751302578295096" lon="0.9611021258840103"><ele>177.0</ele><time>2026-05-01T07:50:55Z</time></trkpt><trkpt lat="44.75129587092759" lon="0.9612113640687383"><ele>177.5</ele><time>2026-05-01T07:50:57Z</time></trkpt><trkpt lat="44.75122482496498" lon="0.9613209086193449"><ele>178.0</ele><time>2026-05-01T07:50:59Z</time></trkpt><trkpt lat="44.75111956086677" lon="0.9614454019583182"><ele>178.0</ele><time>2026-05-01T07:51:01Z</time></trkpt><trkpt lat="44.75106203872638" lon="0.961508353316716"><ele>178.0</ele><time>2026-05-01T07:51:02Z</time></trkpt><trkpt lat="44.751058577021624" lon="0.9616095156802085"><ele>178.0</ele><time>2026-05-01T07:51:05Z</time></trkpt><trkpt lat="44.7511513681211" lon="0.961644193534238"><ele>178.0</ele><time>2026-05-01T07:51:07Z</time></trkpt><trkpt lat="44.75120881402794" lon="0.9617203933762442"><ele>178.0</ele><time>2026-05-01T07:51:08Z</time></trkpt><trkpt lat="44.75125216418694" lon="0.9618191574281473"><ele>178.0</ele><time>2026-05-01T07:51:09Z</time></trkpt><trkpt lat="44.751293338032326" lon="0.9619204620693345"><ele>177.8</ele><time>2026-05-01T07:51:10Z</time></trkpt><trkpt lat="44.75133218221606" lon="0.962025277101075"><ele>177.60000000000002</ele><time>2026-05-01T07:51:11Z</time></trkpt><trkpt lat="44.751345491240315" lon="0.9621427322350475"><ele>177.39999999999998</ele><time>2026-05-01T07:51:12Z</time></trkpt><trkpt lat="44.751351062554214" lon="0.9622818344574001"><ele>177.2</ele><time>2026-05-01T07:51:13Z</time></trkpt><trkpt lat="44.75138769600577" lon="0.9624208318882417"><ele>177.0</ele><time>2026-05-01T07:51:14Z</time></trkpt><trkpt lat="44.75144597669525" lon="0.9625187490353385"><ele>177.0</ele><time>2026-05-01T07:51:15Z</time></trkpt><trkpt lat="44.751479527456226" lon="0.9626320878420096"><ele>177.0</ele><time>2026-05-01T07:51:16Z</time></trkpt><trkpt lat="44.75149436355258" lon="0.9628135298474788"><ele>177.0</ele><time>2026-05-01T07:51:17Z</time></trkpt><trkpt lat="44.75150371896921" lon="0.9629657980130811"><ele>177.0</ele><time>2026-05-01T07:51:18Z</time></trkpt><trkpt lat="44.75153858382901" lon="0.9631220138738145"><ele>177.0</ele><time>2026-05-01T07:51:19Z</time></trkpt><trkpt lat="44.751575842209924" lon="0.9632454930543618"><ele>177.0</ele><time>2026-05-01T07:51:20Z</time></trkpt><trkpt lat="44.75159124091995" lon="0.9633803944339603"><ele>177.0</ele><time>2026-05-01T07:51:21Z</time></trkpt><trkpt lat="44.75161175322371" lon="0.9635125629172925"><ele>177.0</ele><time>2026-05-01T07:51:22Z</time></trkpt><trkpt lat="44.751604498963985" lon="0.9636129721523079"><ele>177.0</ele><time>2026-05-01T07:51:23Z</time></trkpt><trkpt lat="44.75160916422271" lon="0.9637130262064703"><ele>177.0</ele><time>2026-05-01T07:51:24Z</time></trkpt><trkpt lat="44.75161633737348" lon="0.9638443154757336"><ele>177.0</ele><time>2026-05-01T07:51:26Z</time></trkpt><trkpt lat="44.75160477581965" lon="0.9639659564465465"><ele>177.0</ele><time>2026-05-01T07:51:29Z</time></trkpt><trkpt lat="44.7516320629079" lon="0.9641278383708036"><ele>177.0</ele><time>2026-05-01T07:51:31Z</time></trkpt><trkpt lat="44.7516985423652" lon="0.9642504473983677"><ele>177.0</ele><time>2026-05-01T07:51:33Z</time></trkpt><trkpt lat="44.75180853098421" lon="0.964225743807463"><ele>177.0</ele><time>2026-05-01T07:51:35Z</time></trkpt><trkpt lat="44.75191676272554" lon="0.9641687526938441"><ele>176.8</ele><time>2026-05-01T07:51:37Z</time></trkpt><trkpt lat="44.75198005789729" lon="0.9641497455163609"><ele>176.6</ele><time>2026-05-01T07:51:38Z</time></trkpt><trkpt lat="44.75209038353888" lon="0.9641984356552563"><ele>176.4</ele><time>2026-05-01T07:51:40Z</time></trkpt><trkpt lat="44.752135853248085" lon="0.9643639470153993"><ele>176.20000000000002</ele><time>2026-05-01T07:51:42Z</time></trkpt><trkpt lat="44.752126727528236" lon="0.9645298506853918"><ele>176.0</ele><time>2026-05-01T07:51:44Z</time></trkpt><trkpt lat="44.75211455013956" lon="0.9646985831846837"><ele>176.0</ele><time>2026-05-01T07:51:46Z</time></trkpt><trkpt lat="44.75211134539978" lon="0.9648229179705273"><ele>176.0</ele><time>2026-05-01T07:51:47Z</time></trkpt><trkpt lat="44.75208846859244" lon="0.9649208834513833"><ele>176.0</ele><time>2026-05-01T07:51:48Z</time></trkpt><trkpt lat="44.75204992976303" lon="0.9650161038790074"><ele>176.0</ele><time>2026-05-01T07:51:49Z</time></trkpt><trkpt lat="44.75200455037329" lon="0.9651235259595019"><ele>176.0</ele><time>2026-05-01T07:51:50Z</time></trkpt><trkpt lat="44.751955920233385" lon="0.9652630417168009"><ele>176.0</ele><time>2026-05-01T07:51:51Z</time></trkpt><trkpt lat="44.75189847142745" lon="0.9653844853268309"><ele>176.20000000000002</ele><time>2026-05-01T07:51:52Z</time></trkpt><trkpt lat="44.75183029380801" lon="0.9655039683585348"><ele>176.4</ele><time>2026-05-01T07:51:53Z</time></trkpt><trkpt lat="44.7517829102186" lon="0.9655994832977122"><ele>176.6</ele><time>2026-05-01T07:51:54Z</time></trkpt><trkpt lat="44.75174401491702" lon="0.9657147343409064"><ele>176.8</ele><time>2026-05-01T07:51:55Z</time></trkpt><trkpt lat="44.75172540486189" lon="0.9658601556796864"><ele>177.0</ele><time>2026-05-01T07:51:56Z</time></trkpt><trkpt lat="44.75169582283161" lon="0.9660016341240163"><ele>177.0</ele><time>2026-05-01T07:51:57Z</time></trkpt><trkpt lat="44.751656619943255" lon="0.9661345689795477"><ele>177.0</ele><time>2026-05-01T07:51:58Z</time></trkpt><trkpt lat="44.75161787473131" lon="0.9662700483185487"><ele>177.0</ele><time>2026-05-01T07:51:59Z</time></trkpt><trkpt lat="44.751605819409484" lon="0.9663807664756436"><ele>177.0</ele><time>2026-05-01T07:52:00Z</time></trkpt><trkpt lat="44.75160280786429" lon="0.9664997118381334"><ele>177.0</ele><time>2026-05-01T07:52:01Z</time></trkpt><trkpt lat="44.75164741190794" lon="0.966618277667717"><ele>177.5</ele><time>2026-05-01T07:52:03Z</time></trkpt><trkpt lat="44.75165039763666" lon="0.9667492066807254"><ele>178.0</ele><time>2026-05-01T07:52:05Z</time></trkpt><trkpt lat="44.75163055750976" lon="0.9668410999027375"><ele>178.5</ele><time>2026-05-01T07:52:06Z</time></trkpt><trkpt lat="44.75158738631553" lon="0.9669110215895766"><ele>179.0</ele><time>2026-05-01T07:52:07Z</time></trkpt><trkpt lat="44.7514761461322" lon="0.966900778084984"><ele>179.5</ele><time>2026-05-01T07:52:09Z</time></trkpt><trkpt lat="44.751380642063346" lon="0.9669569437027459"><ele>180.0</ele><time>2026-05-01T07:52:11Z</time></trkpt><trkpt lat="44.75134846673717" lon="0.9670501293584679"><ele>180.0</ele><time>2026-05-01T07:52:12Z</time></trkpt><trkpt lat="44.75130360986201" lon="0.9671409004410935"><ele>180.0</ele><time>2026-05-01T07:52:13Z</time></trkpt><trkpt lat="44.75125054143888" lon="0.9672231738392372"><ele>180.0</ele><time>2026-05-01T07:52:14Z</time></trkpt><trkpt lat="44.75119977968193" lon="0.9672852751841903"><ele>180.0</ele><time>2026-05-01T07:52:15Z</time></trkpt><trkpt lat="44.75112922215534" lon="0.9673037287503699"><ele>180.0</ele><time>2026-05-01T07:52:16Z</time></trkpt><trkpt lat="44.751057393544556" lon="0.9673098064659936"><ele>180.0</ele><time>2026-05-01T07:52:17Z</time></trkpt><trkpt lat="44.75098927319092" lon="0.9673080470216986"><ele>180.0</ele><time>2026-05-01T07:52:18Z</time></trkpt><trkpt lat="44.750928182397146" lon="0.9674587754604016"><ele>180.2</ele><time>2026-05-01T07:52:20Z</time></trkpt><trkpt lat="44.750956623177935" lon="0.9675563832461678"><ele>180.4</ele><time>2026-05-01T07:52:21Z</time></trkpt><trkpt lat="44.7509634563373" lon="0.9676488265354255"><ele>180.60000000000002</ele><time>2026-05-01T07:52:22Z</time></trkpt><trkpt lat="44.75084331825745" lon="0.967720704935765"><ele>180.8</ele><time>2026-05-01T07:52:24Z</time></trkpt><trkpt lat="44.750715788661886" lon="0.9678199873908898"><ele>181.0</ele><time>2026-05-01T07:52:26Z</time></trkpt><trkpt lat="44.75061296709782" lon="0.9678926279694388"><ele>181.0</ele><time>2026-05-01T07:52:27Z</time></trkpt><trkpt lat="44.75053015316469" lon="0.9679817119514207"><ele>181.0</ele><time>2026-05-01T07:52:28Z</time></trkpt><trkpt lat="44.750453528466466" lon="0.9680240105551905"><ele>181.0</ele><time>2026-05-01T07:52:29Z</time></trkpt><trkpt lat="44.750402694801494" lon="0.9680870195055452"><ele>181.0</ele><time>2026-05-01T07:52:30Z</time></trkpt><trkpt lat="44.75031894880405" lon="0.968066559672201"><ele>181.0</ele><time>2026-05-01T07:52:32Z</time></trkpt><trkpt lat="44.75027742266879" lon="0.9679805742606067"><ele>181.0</ele><time>2026-05-01T07:52:33Z</time></trkpt><trkpt lat="44.75019774584705" lon="0.9678669848229251"><ele>181.5</ele><time>2026-05-01T07:52:35Z</time></trkpt><trkpt lat="44.75010383553286" lon="0.9679165193353717"><ele>182.0</ele><time>2026-05-01T07:52:37Z</time></trkpt><trkpt lat="44.75007078445812" lon="0.9680036317777159"><ele>182.5</ele><time>2026-05-01T07:52:38Z</time></trkpt><trkpt lat="44.75002630536438" lon="0.9680853152344828"><ele>183.0</ele><time>2026-05-01T07:52:39Z</time></trkpt><trkpt lat="44.74997248714375" lon="0.9681542186973996"><ele>183.5</ele><time>2026-05-01T07:52:40Z</time></trkpt><trkpt lat="44.74991117140063" lon="0.9682165183931786"><ele>184.0</ele><time>2026-05-01T07:52:41Z</time></trkpt><trkpt lat="44.749795343277455" lon="0.9683528751182092"><ele>183.39999999999998</ele><time>2026-05-01T07:52:43Z</time></trkpt><trkpt lat="44.74971925676393" lon="0.9684302145880581"><ele>182.8</ele><time>2026-05-01T07:52:45Z</time></trkpt><trkpt lat="44.749665252084064" lon="0.968500586974909"><ele>182.2</ele><time>2026-05-01T07:52:46Z</time></trkpt><trkpt lat="44.74960131977242" lon="0.9685789874983686"><ele>181.60000000000002</ele><time>2026-05-01T07:52:47Z</time></trkpt><trkpt lat="44.749516561026745" lon="0.9686590853074724"><ele>181.0</ele><time>2026-05-01T07:52:48Z</time></trkpt><trkpt lat="44.7494333174211" lon="0.9687370677707672"><ele>182.4</ele><time>2026-05-01T07:52:49Z</time></trkpt><trkpt lat="44.7493356961374" lon="0.9688080860293962"><ele>183.8</ele><time>2026-05-01T07:52:50Z</time></trkpt><trkpt lat="44.74925449959853" lon="0.9688828054756179"><ele>185.20000000000002</ele><time>2026-05-01T07:52:51Z</time></trkpt><trkpt lat="44.74916213509493" lon="0.9689544917896316"><ele>186.60000000000002</ele><time>2026-05-01T07:52:52Z</time></trkpt><trkpt lat="44.749086112336386" lon="0.9689968803006354"><ele>188.0</ele><time>2026-05-01T07:52:53Z</time></trkpt><trkpt lat="44.749001317585574" lon="0.9690415463984794"><ele>188.0</ele><time>2026-05-01T07:52:54Z</time></trkpt><trkpt lat="44.748896103101714" lon="0.9691169738216541"><ele>188.0</ele><time>2026-05-01T07:52:55Z</time></trkpt><trkpt lat="44.748788119862795" lon="0.9692058188815521"><ele>188.0</ele><time>2026-05-01T07:52:56Z</time></trkpt><trkpt lat="44.74869804366139" lon="0.9693279128289595"><ele>188.0</ele><time>2026-05-01T07:52:57Z</time></trkpt><trkpt lat="44.748608844982925" lon="0.9694506853310831"><ele>187.75</ele><time>2026-05-01T07:52:58Z</time></trkpt><trkpt lat="44.74851393486234" lon="0.9695952235055022"><ele>187.5</ele><time>2026-05-01T07:52:59Z</time></trkpt><trkpt lat="44.74841485764101" lon="0.969748687155848"><ele>187.25</ele><time>2026-05-01T07:53:00Z</time></trkpt><trkpt lat="44.74830962812311" lon="0.9699093081470361"><ele>187.0</ele><time>2026-05-01T07:53:01Z</time></trkpt><trkpt lat="44.748197799009304" lon="0.9700682460523162"><ele>187.0</ele><time>2026-05-01T07:53:02Z</time></trkpt><trkpt lat="44.74810153770406" lon="0.9702301686925813"><ele>187.0</ele><time>2026-05-01T07:53:03Z</time></trkpt><trkpt lat="44.747994429208845" lon="0.9703883311841429"><ele>187.0</ele><time>2026-05-01T07:53:04Z</time></trkpt><trkpt lat="44.74788997719577" lon="0.9705332409055971"><ele>187.0</ele><time>2026-05-01T07:53:05Z</time></trkpt><trkpt lat="44.74778074176036" lon="0.9706452082316225"><ele>187.0</ele><time>2026-05-01T07:53:06Z</time></trkpt><trkpt lat="44.74768468747451" lon="0.9707336612038949"><ele>187.0</ele><time>2026-05-01T07:53:07Z</time></trkpt><trkpt lat="44.74757823859507" lon="0.9708001714897749"><ele>187.0</ele><time>2026-05-01T07:53:08Z</time></trkpt><trkpt lat="44.74748820960152" lon="0.9708506728209715"><ele>188.33333333333334</ele><time>2026-05-01T07:53:09Z</time></trkpt><trkpt lat="44.747424234805344" lon="0.9708648751034799"><ele>189.66666666666669</ele><time>2026-05-01T07:53:10Z</time></trkpt><trkpt lat="44.747368635541896" lon="0.9709290216872755"><ele>191.0</ele><time>2026-05-01T07:53:11Z</time></trkpt><trkpt lat="44.747303861687264" lon="0.9710473869148428"><ele>192.33333333333334</ele><time>2026-05-01T07:53:13Z</time></trkpt><trkpt lat="44.74725616760337" lon="0.9711334116036502"><ele>193.66666666666666</ele><time>2026-05-01T07:53:14Z</time></trkpt><trkpt lat="44.7471968022919" lon="0.9712573906980954"><ele>195.0</ele><time>2026-05-01T07:53:15Z</time></trkpt><trkpt lat="44.74712477824246" lon="0.9713779891622997"><ele>195.0</ele><time>2026-05-01T07:53:16Z</time></trkpt><trkpt lat="44.747048132798675" lon="0.9714716024996232"><ele>195.0</ele><time>2026-05-01T07:53:17Z</time></trkpt><trkpt lat="44.74694809874156" lon="0.9715527218821179"><ele>195.0</ele><time>2026-05-01T07:53:18Z</time></trkpt><trkpt lat="44.74684523205865" lon="0.97162634046075"><ele>195.0</ele><time>2026-05-01T07:53:19Z</time></trkpt><trkpt lat="44.74674834833103" lon="0.9717059677461414"><ele>195.0</ele><time>2026-05-01T07:53:20Z</time></trkpt><trkpt lat="44.74666121628718" lon="0.9717887900013596"><ele>195.5</ele><time>2026-05-01T07:53:21Z</time></trkpt><trkpt lat="44.74656125945943" lon="0.9719005441164612"><ele>196.0</ele><time>2026-05-01T07:53:22Z</time></trkpt><trkpt lat="44.74645836541707" lon="0.9720099517178783"><ele>196.5</ele><time>2026-05-01T07:53:23Z</time></trkpt><trkpt lat="44.746348814203074" lon="0.9721137144803722"><ele>197.0</ele><time>2026-05-01T07:53:24Z</time></trkpt><trkpt lat="44.74624275465537" lon="0.9722151350866164"><ele>197.0</ele><time>2026-05-01T07:53:25Z</time></trkpt><trkpt lat="44.74613985169204" lon="0.9723218751512838"><ele>197.0</ele><time>2026-05-01T07:53:26Z</time></trkpt><trkpt lat="44.74603326506077" lon="0.9724320870154249"><ele>197.0</ele><time>2026-05-01T07:53:27Z</time></trkpt><trkpt lat="44.745925098074764" lon="0.9725450790723332"><ele>197.0</ele><time>2026-05-01T07:53:28Z</time></trkpt><trkpt lat="44.74582240634272" lon="0.9726594437343774"><ele>198.0</ele><time>2026-05-01T07:53:29Z</time></trkpt><trkpt lat="44.74572538666346" lon="0.9727661757425217"><ele>199.0</ele><time>2026-05-01T07:53:30Z</time></trkpt><trkpt lat="44.74562284108618" lon="0.9728783753049945"><ele>200.0</ele><time>2026-05-01T07:53:31Z</time></trkpt><trkpt lat="44.745522274026264" lon="0.9729732390900766"><ele>201.0</ele><time>2026-05-01T07:53:32Z</time></trkpt><trkpt lat="44.745417731211084" lon="0.9730830860796618"><ele>201.0</ele><time>2026-05-01T07:53:33Z</time></trkpt><trkpt lat="44.74531402306818" lon="0.9731838970678764"><ele>201.0</ele><time>2026-05-01T07:53:34Z</time></trkpt><trkpt lat="44.745224981680465" lon="0.9732943763947037"><ele>201.0</ele><time>2026-05-01T07:53:35Z</time></trkpt><trkpt lat="44.74514511824995" lon="0.9734255998342736"><ele>201.0</ele><time>2026-05-01T07:53:36Z</time></trkpt><trkpt lat="44.745077235528406" lon="0.9735505686551365"><ele>201.20000000000002</ele><time>2026-05-01T07:53:37Z</time></trkpt><trkpt lat="44.745005274497835" lon="0.9736693240351412"><ele>201.4</ele><time>2026-05-01T07:53:38Z</time></trkpt><trkpt lat="44.74494544253449" lon="0.9737834474098819"><ele>201.6</ele><time>2026-05-01T07:53:39Z</time></trkpt><trkpt lat="44.74489490907219" lon="0.9739173760971026"><ele>201.8</ele><time>2026-05-01T07:53:40Z</time></trkpt><trkpt lat="44.744856388202074" lon="0.9740518352413072"><ele>202.0</ele><time>2026-05-01T07:53:41Z</time></trkpt><trkpt lat="44.74480936870274" lon="0.9742143920916451"><ele>201.99999999999997</ele><time>2026-05-01T07:53:42Z</time></trkpt><trkpt lat="44.744768663030534" lon="0.9743513872496825"><ele>202.0</ele><time>2026-05-01T07:53:43Z</time></trkpt><trkpt lat="44.744721765818575" lon="0.9744451423722825"><ele>202.0</ele><time>2026-05-01T07:53:44Z</time></trkpt><trkpt lat="44.74470905760785" lon="0.9745346751574698"><ele>202.0</ele><time>2026-05-01T07:53:45Z</time></trkpt><trkpt lat="44.74468310120548" lon="0.974688582757848"><ele>201.99999999999997</ele><time>2026-05-01T07:53:47Z</time></trkpt><trkpt lat="44.744695850171745" lon="0.9748043320741859"><ele>202.0</ele><time>2026-05-01T07:53:48Z</time></trkpt><trkpt lat="44.74469339948169" lon="0.9749662738994456"><ele>202.2</ele><time>2026-05-01T07:53:49Z</time></trkpt><trkpt lat="44.744686925971244" lon="0.9751151690665004"><ele>202.39999999999998</ele><time>2026-05-01T07:53:50Z</time></trkpt><trkpt lat="44.744690040127054" lon="0.9752750340053528"><ele>202.60000000000002</ele><time>2026-05-01T07:53:51Z</time></trkpt><trkpt lat="44.74467317887555" lon="0.9754119424690364"><ele>202.8</ele><time>2026-05-01T07:53:52Z</time></trkpt><trkpt lat="44.74462419392465" lon="0.975558471518292"><ele>203.0</ele><time>2026-05-01T07:53:54Z</time></trkpt><trkpt lat="44.744623752551945" lon="0.9756546540450506"><ele>203.0</ele><time>2026-05-01T07:53:55Z</time></trkpt><trkpt lat="44.74466599427883" lon="0.9757442221009157"><ele>203.0</ele><time>2026-05-01T07:53:56Z</time></trkpt><trkpt lat="44.74472593455116" lon="0.9758595286134527"><ele>203.0</ele><time>2026-05-01T07:53:57Z</time></trkpt><trkpt lat="44.74476063900789" lon="0.9759531865567701"><ele>203.0</ele><time>2026-05-01T07:53:58Z</time></trkpt><trkpt lat="44.744717805520644" lon="0.9761186449451785"><ele>203.0</ele><time>2026-05-01T07:54:00Z</time></trkpt><trkpt lat="44.74464989829205" lon="0.9762032394267312"><ele>203.50000000000003</ele><time>2026-05-01T07:54:01Z</time></trkpt><trkpt lat="44.74457465274985" lon="0.9762706213831891"><ele>204.0</ele><time>2026-05-01T07:54:02Z</time></trkpt><trkpt lat="44.74450952358121" lon="0.9763492920279725"><ele>204.5</ele><time>2026-05-01T07:54:03Z</time></trkpt><trkpt lat="44.744458652629476" lon="0.9764205600417892"><ele>205.0</ele><time>2026-05-01T07:54:04Z</time></trkpt><trkpt lat="44.74440701431069" lon="0.9764908899135497"><ele>205.50000000000003</ele><time>2026-05-01T07:54:05Z</time></trkpt><trkpt lat="44.74433693956053" lon="0.9765578570080292"><ele>206.0</ele><time>2026-05-01T07:54:06Z</time></trkpt><trkpt lat="44.74429336326043" lon="0.9766352901482162"><ele>207.20000000000002</ele><time>2026-05-01T07:54:08Z</time></trkpt><trkpt lat="44.7442148329817" lon="0.9767081838488666"><ele>208.4</ele><time>2026-05-01T07:54:09Z</time></trkpt><trkpt lat="44.74414705432381" lon="0.9767905923529431"><ele>209.6</ele><time>2026-05-01T07:54:10Z</time></trkpt><trkpt lat="44.744071735217034" lon="0.9768825889931126"><ele>210.8</ele><time>2026-05-01T07:54:11Z</time></trkpt><trkpt lat="44.743992794924914" lon="0.9769734934969748"><ele>212.0</ele><time>2026-05-01T07:54:12Z</time></trkpt><trkpt lat="44.74390878884475" lon="0.9770714920304567"><ele>212.0</ele><time>2026-05-01T07:54:13Z</time></trkpt><trkpt lat="44.74383131725706" lon="0.9771789389521999"><ele>212.0</ele><time>2026-05-01T07:54:14Z</time></trkpt><trkpt lat="44.743760871478685" lon="0.9772770861505803"><ele>212.0</ele><time>2026-05-01T07:54:15Z</time></trkpt><trkpt lat="44.74368274981226" lon="0.977352909624315"><ele>212.0</ele><time>2026-05-01T07:54:16Z</time></trkpt><trkpt lat="44.74359501955405" lon="0.9774068430257513"><ele>212.0</ele><time>2026-05-01T07:54:17Z</time></trkpt><trkpt lat="44.743497400289" lon="0.9774483175304471"><ele>212.0</ele><time>2026-05-01T07:54:18Z</time></trkpt><trkpt lat="44.74341254640125" lon="0.9774804747533412"><ele>212.0</ele><time>2026-05-01T07:54:19Z</time></trkpt><trkpt lat="44.74333146612081" lon="0.9775055045084023"><ele>212.0</ele><time>2026-05-01T07:54:20Z</time></trkpt><trkpt lat="44.743232927269815" lon="0.9775020834167338"><ele>212.0</ele><time>2026-05-01T07:54:21Z</time></trkpt><trkpt lat="44.743114607796976" lon="0.9775238181584437"><ele>212.0</ele><time>2026-05-01T07:54:22Z</time></trkpt><trkpt lat="44.74300413578829" lon="0.9775486624625115"><ele>212.0</ele><time>2026-05-01T07:54:23Z</time></trkpt><trkpt lat="44.7429192898741" lon="0.9775652318968656"><ele>212.0</ele><time>2026-05-01T07:54:24Z</time></trkpt><trkpt lat="44.74283794293635" lon="0.9775962884156071"><ele>212.0</ele><time>2026-05-01T07:54:25Z</time></trkpt><trkpt lat="44.74273853444688" lon="0.9776364484954743"><ele>212.0</ele><time>2026-05-01T07:54:26Z</time></trkpt><trkpt lat="44.74262685242372" lon="0.9776798029797742"><ele>212.0</ele><time>2026-05-01T07:54:27Z</time></trkpt><trkpt lat="44.74250780471234" lon="0.9777106566060013"><ele>212.0</ele><time>2026-05-01T07:54:28Z</time></trkpt><trkpt lat="44.74239490651141" lon="0.9777346475049297"><ele>212.0</ele><time>2026-05-01T07:54:29Z</time></trkpt><trkpt lat="44.7422752240871" lon="0.9777517492434529"><ele>212.0</ele><time>2026-05-01T07:54:30Z</time></trkpt><trkpt lat="44.74215090771241" lon="0.9777679795257755"><ele>212.0</ele><time>2026-05-01T07:54:31Z</time></trkpt><trkpt lat="44.742009716475664" lon="0.9778075842678952"><ele>212.0</ele><time>2026-05-01T07:54:32Z</time></trkpt><trkpt lat="44.741892280168095" lon="0.9778289921781055"><ele>212.0</ele><time>2026-05-01T07:54:33Z</time></trkpt><trkpt lat="44.74180451866156" lon="0.977854133458477"><ele>212.0</ele><time>2026-05-01T07:54:34Z</time></trkpt><trkpt lat="44.741676554408144" lon="0.977841116242627"><ele>212.0</ele><time>2026-05-01T07:54:35Z</time></trkpt><trkpt lat="44.74155102850275" lon="0.9778250729282169"><ele>212.50000000000003</ele><time>2026-05-01T07:54:36Z</time></trkpt><trkpt lat="44.74145565096992" lon="0.9778178254670057"><ele>213.0</ele><time>2026-05-01T07:54:37Z</time></trkpt><trkpt lat="44.741386723330834" lon="0.9778117128100264"><ele>213.5</ele><time>2026-05-01T07:54:38Z</time></trkpt><trkpt lat="44.74131247025516" lon="0.9778719870019068"><ele>214.0</ele><time>2026-05-01T07:54:40Z</time></trkpt><trkpt lat="44.741324641544225" lon="0.9780026307523122"><ele>214.50000000000003</ele><time>2026-05-01T07:54:42Z</time></trkpt><trkpt lat="44.741368032879265" lon="0.9780858679264162"><ele>215.0</ele><time>2026-05-01T07:54:43Z</time></trkpt><trkpt lat="44.741430759976105" lon="0.9782024379528595"><ele>215.0</ele><time>2026-05-01T07:54:44Z</time></trkpt><trkpt lat="44.74150229987949" lon="0.978341920606292"><ele>215.0</ele><time>2026-05-01T07:54:45Z</time></trkpt><trkpt lat="44.741577897973194" lon="0.9784949582041438"><ele>215.0</ele><time>2026-05-01T07:54:46Z</time></trkpt><trkpt lat="44.74164941483568" lon="0.9786223638790937"><ele>215.0</ele><time>2026-05-01T07:54:47Z</time></trkpt><trkpt lat="44.741730915356804" lon="0.978753018108911"><ele>213.25</ele><time>2026-05-01T07:54:48Z</time></trkpt><trkpt lat="44.74181134838209" lon="0.9788769909601233"><ele>211.5</ele><time>2026-05-01T07:54:49Z</time></trkpt><trkpt lat="44.74189930598091" lon="0.979006127728908"><ele>209.75</ele><time>2026-05-01T07:54:50Z</time></trkpt><trkpt lat="44.74199938944257" lon="0.9791452653763176"><ele>208.0</ele><time>2026-05-01T07:54:51Z</time></trkpt><trkpt lat="44.742088418784725" lon="0.9792771124513043"><ele>203.75</ele><time>2026-05-01T07:54:52Z</time></trkpt><trkpt lat="44.742177738319455" lon="0.9793976445111907"><ele>199.5</ele><time>2026-05-01T07:54:53Z</time></trkpt><trkpt lat="44.742270378873414" lon="0.97952952392797"><ele>195.25</ele><time>2026-05-01T07:54:54Z</time></trkpt><trkpt lat="44.7423529767787" lon="0.9796581384299502"><ele>191.0</ele><time>2026-05-01T07:54:55Z</time></trkpt><trkpt lat="44.74242770247485" lon="0.9797787274793224"><ele>191.0</ele><time>2026-05-01T07:54:56Z</time></trkpt><trkpt lat="44.74250079348265" lon="0.9798777130595268"><ele>191.0</ele><time>2026-05-01T07:54:57Z</time></trkpt><trkpt lat="44.74255588548714" lon="0.9799811996064478"><ele>191.0</ele><time>2026-05-01T07:54:58Z</time></trkpt><trkpt lat="44.74262720845573" lon="0.9800444853604567"><ele>191.0</ele><time>2026-05-01T07:54:59Z</time></trkpt><trkpt lat="44.74270822730607" lon="0.9801163743689274"><ele>191.0</ele><time>2026-05-01T07:55:00Z</time></trkpt><trkpt lat="44.74279186482521" lon="0.9801905869314708"><ele>188.75</ele><time>2026-05-01T07:55:01Z</time></trkpt><trkpt lat="44.74287639350831" lon="0.98026559026476"><ele>186.5</ele><time>2026-05-01T07:55:02Z</time></trkpt><trkpt lat="44.74296823382041" lon="0.9803475143683885"><ele>184.25</ele><time>2026-05-01T07:55:03Z</time></trkpt><trkpt lat="44.74307822802867" lon="0.9804298110039554"><ele>182.0</ele><time>2026-05-01T07:55:04Z</time></trkpt><trkpt lat="44.74320536150473" lon="0.9805397678861791"><ele>182.0</ele><time>2026-05-01T07:55:05Z</time></trkpt><trkpt lat="44.74332691564145" lon="0.9806796924613418"><ele>182.0</ele><time>2026-05-01T07:55:06Z</time></trkpt><trkpt lat="44.743427921461056" lon="0.9807760743242819"><ele>182.0</ele><time>2026-05-01T07:55:07Z</time></trkpt><trkpt lat="44.743532918244426" lon="0.980872387868583"><ele>182.0</ele><time>2026-05-01T07:55:08Z</time></trkpt><trkpt lat="44.743627622134554" lon="0.9809765296666257"><ele>179.5</ele><time>2026-05-01T07:55:09Z</time></trkpt><trkpt lat="44.74373050499363" lon="0.9811048596064574"><ele>177.0</ele><time>2026-05-01T07:55:10Z</time></trkpt><trkpt lat="44.743833426102604" lon="0.9812152312902791"><ele>174.5</ele><time>2026-05-01T07:55:11Z</time></trkpt><trkpt lat="44.74394587294884" lon="0.9813362187066665"><ele>172.0</ele><time>2026-05-01T07:55:12Z</time></trkpt><trkpt lat="44.74406142344758" lon="0.9814345493833838"><ele>172.0</ele><time>2026-05-01T07:55:13Z</time></trkpt><trkpt lat="44.744166694779295" lon="0.9815505507639884"><ele>172.0</ele><time>2026-05-01T07:55:14Z</time></trkpt><trkpt lat="44.74429018619138" lon="0.9816769423447961"><ele>172.0</ele><time>2026-05-01T07:55:15Z</time></trkpt><trkpt lat="44.74439887863497" lon="0.9818030074716116"><ele>172.0</ele><time>2026-05-01T07:55:16Z</time></trkpt><trkpt lat="44.74452152613444" lon="0.9819407168395727"><ele>171.0</ele><time>2026-05-01T07:55:17Z</time></trkpt><trkpt lat="44.74462032111362" lon="0.982051238452723"><ele>170.0</ele><time>2026-05-01T07:55:18Z</time></trkpt><trkpt lat="44.744738703135106" lon="0.9821581351896626"><ele>169.0</ele><time>2026-05-01T07:55:19Z</time></trkpt><trkpt lat="44.74485084622528" lon="0.9822393140627041"><ele>168.0</ele><time>2026-05-01T07:55:20Z</time></trkpt><trkpt lat="44.74496896887908" lon="0.9823102626654592"><ele>168.0</ele><time>2026-05-01T07:55:21Z</time></trkpt><trkpt lat="44.74507541767529" lon="0.982403151187761"><ele>168.0</ele><time>2026-05-01T07:55:22Z</time></trkpt><trkpt lat="44.745192232373604" lon="0.982508083895189"><ele>168.0</ele><time>2026-05-01T07:55:23Z</time></trkpt><trkpt lat="44.745295547665314" lon="0.982622967548832"><ele>168.0</ele><time>2026-05-01T07:55:24Z</time></trkpt><trkpt lat="44.74540394029262" lon="0.9827387964319265"><ele>166.5</ele><time>2026-05-01T07:55:25Z</time></trkpt><trkpt lat="44.745488701282696" lon="0.9828560038577633"><ele>165.0</ele><time>2026-05-01T07:55:26Z</time></trkpt><trkpt lat="44.745583003439506" lon="0.9829655216380382"><ele>163.5</ele><time>2026-05-01T07:55:27Z</time></trkpt><trkpt lat="44.74567925530172" lon="0.9830822205620201"><ele>162.0</ele><time>2026-05-01T07:55:28Z</time></trkpt><trkpt lat="44.745783317486705" lon="0.983167268585064"><ele>162.0</ele><time>2026-05-01T07:55:29Z</time></trkpt><trkpt lat="44.745893684768134" lon="0.9832336428224173"><ele>162.0</ele><time>2026-05-01T07:55:30Z</time></trkpt><trkpt lat="44.74599249674769" lon="0.9832919246165418"><ele>162.0</ele><time>2026-05-01T07:55:31Z</time></trkpt><trkpt lat="44.746068595002235" lon="0.9833882380430098"><ele>162.0</ele><time>2026-05-01T07:55:32Z</time></trkpt><trkpt lat="44.74615451494426" lon="0.9835139503313934"><ele>160.75</ele><time>2026-05-01T07:55:33Z</time></trkpt><trkpt lat="44.74621550754322" lon="0.9836239599271795"><ele>159.5</ele><time>2026-05-01T07:55:34Z</time></trkpt><trkpt lat="44.746291173984474" lon="0.983718955130308"><ele>158.25</ele><time>2026-05-01T07:55:35Z</time></trkpt><trkpt lat="44.74635843109533" lon="0.9838622183491679"><ele>157.0</ele><time>2026-05-01T07:55:36Z</time></trkpt><trkpt lat="44.746423546277654" lon="0.9840202532548183"><ele>157.0</ele><time>2026-05-01T07:55:37Z</time></trkpt><trkpt lat="44.74649551023671" lon="0.9841632989852839"><ele>157.0</ele><time>2026-05-01T07:55:38Z</time></trkpt><trkpt lat="44.74656796681312" lon="0.9842871233553986"><ele>157.0</ele><time>2026-05-01T07:55:39Z</time></trkpt><trkpt lat="44.74665044339052" lon="0.9843979984230439"><ele>157.0</ele><time>2026-05-01T07:55:40Z</time></trkpt><trkpt lat="44.74673343526002" lon="0.9844796372877153"><ele>156.5</ele><time>2026-05-01T07:55:41Z</time></trkpt><trkpt lat="44.746821095916744" lon="0.9845595426573837"><ele>156.0</ele><time>2026-05-01T07:55:42Z</time></trkpt><trkpt lat="44.74689262991659" lon="0.9846248653082309"><ele>155.5</ele><time>2026-05-01T07:55:43Z</time></trkpt><trkpt lat="44.74694648112677" lon="0.9846790716318135"><ele>155.0</ele><time>2026-05-01T07:55:44Z</time></trkpt><trkpt lat="44.74695623393808" lon="0.9848052875490787"><ele>154.5</ele><time>2026-05-01T07:55:46Z</time></trkpt><trkpt lat="44.746893541326585" lon="0.9849205062957243"><ele>154.0</ele><time>2026-05-01T07:55:48Z</time></trkpt><trkpt lat="44.746855255754426" lon="0.9850267705853921"><ele>153.66666666666669</ele><time>2026-05-01T07:55:50Z</time></trkpt><trkpt lat="44.74682764828949" lon="0.985183392745356"><ele>153.33333333333334</ele><time>2026-05-01T07:55:53Z</time></trkpt><trkpt lat="44.7468308385302" lon="0.9853017653656437"><ele>153.0</ele><time>2026-05-01T07:55:55Z</time></trkpt><trkpt lat="44.746784235137774" lon="0.9854114493000461"><ele>152.66666666666666</ele><time>2026-05-01T07:55:57Z</time></trkpt><trkpt lat="44.746754504828644" lon="0.9855026827138219"><ele>152.33333333333331</ele><time>2026-05-01T07:55:58Z</time></trkpt><trkpt lat="44.74673882985333" lon="0.9856006210953833"><ele>152.0</ele><time>2026-05-01T07:55:59Z</time></trkpt><trkpt lat="44.74670517334231" lon="0.9857025769412454"><ele>152.0</ele><time>2026-05-01T07:56:00Z</time></trkpt><trkpt lat="44.746673491283225" lon="0.9858107249342803"><ele>152.0</ele><time>2026-05-01T07:56:01Z</time></trkpt><trkpt lat="44.746635797076024" lon="0.985909932739733"><ele>152.0</ele><time>2026-05-01T07:56:02Z</time></trkpt><trkpt lat="44.746574383001196" lon="0.9860133920909119"><ele>152.0</ele><time>2026-05-01T07:56:03Z</time></trkpt><trkpt lat="44.7465109237948" lon="0.9860821084160121"><ele>152.0</ele><time>2026-05-01T07:56:04Z</time></trkpt><trkpt lat="44.74642309189369" lon="0.9861225664365071"><ele>152.0</ele><time>2026-05-01T07:56:05Z</time></trkpt><trkpt lat="44.74632751553892" lon="0.9861371059098734"><ele>152.6</ele><time>2026-05-01T07:56:06Z</time></trkpt><trkpt lat="44.74626521887702" lon="0.9862120076136198"><ele>153.2</ele><time>2026-05-01T07:56:07Z</time></trkpt><trkpt lat="44.74618581665794" lon="0.986325242395486"><ele>153.8</ele><time>2026-05-01T07:56:08Z</time></trkpt><trkpt lat="44.74610572723082" lon="0.9864512135084723"><ele>154.4</ele><time>2026-05-01T07:56:09Z</time></trkpt><trkpt lat="44.74602679248098" lon="0.9865584559529381"><ele>155.0</ele><time>2026-05-01T07:56:10Z</time></trkpt><trkpt lat="44.7459428009673" lon="0.9866259990394769"><ele>155.2</ele><time>2026-05-01T07:56:11Z</time></trkpt><trkpt lat="44.7458753579328" lon="0.9866830280976275"><ele>155.4</ele><time>2026-05-01T07:56:12Z</time></trkpt><trkpt lat="44.74584522432859" lon="0.9867743385636532"><ele>155.6</ele><time>2026-05-01T07:56:13Z</time></trkpt><trkpt lat="44.74581898760596" lon="0.9868968313901452"><ele>155.8</ele><time>2026-05-01T07:56:14Z</time></trkpt><trkpt lat="44.745771855940674" lon="0.9870630562179274"><ele>156.0</ele><time>2026-05-01T07:56:15Z</time></trkpt><trkpt lat="44.745785607687154" lon="0.9871792801051672"><ele>156.0</ele><time>2026-05-01T07:56:16Z</time></trkpt><trkpt lat="44.745812541306464" lon="0.9872935192712962"><ele>156.0</ele><time>2026-05-01T07:56:17Z</time></trkpt><trkpt lat="44.74582374382466" lon="0.987399705098297"><ele>156.0</ele><time>2026-05-01T07:56:18Z</time></trkpt><trkpt lat="44.74580217240953" lon="0.9874983638469943"><ele>156.0</ele><time>2026-05-01T07:56:19Z</time></trkpt><trkpt lat="44.74571524062151" lon="0.9875766385957424"><ele>156.0</ele><time>2026-05-01T07:56:21Z</time></trkpt><trkpt lat="44.745614731032404" lon="0.9875422942116749"><ele>156.0</ele><time>2026-05-01T07:56:23Z</time></trkpt><trkpt lat="44.74555446672603" lon="0.9874963896149597"><ele>156.0</ele><time>2026-05-01T07:56:24Z</time></trkpt><trkpt lat="44.74549615811649" lon="0.9874436766379002"><ele>156.0</ele><time>2026-05-01T07:56:25Z</time></trkpt><trkpt lat="44.74542326164967" lon="0.9873980479626963"><ele>156.0</ele><time>2026-05-01T07:56:26Z</time></trkpt><trkpt lat="44.7453360983067" lon="0.9873621872240698"><ele>156.0</ele><time>2026-05-01T07:56:27Z</time></trkpt><trkpt lat="44.7452353683234" lon="0.9873435969942242"><ele>156.0</ele><time>2026-05-01T07:56:28Z</time></trkpt><trkpt lat="44.74514968040762" lon="0.9872773179802801"><ele>156.0</ele><time>2026-05-01T07:56:29Z</time></trkpt><trkpt lat="44.74505032115669" lon="0.9872344904942544"><ele>156.25</ele><time>2026-05-01T07:56:30Z</time></trkpt><trkpt lat="44.74495795767936" lon="0.9871699777392455"><ele>156.5</ele><time>2026-05-01T07:56:31Z</time></trkpt><trkpt lat="44.74485581540062" lon="0.9871124657933078"><ele>156.75</ele><time>2026-05-01T07:56:32Z</time></trkpt><trkpt lat="44.74475022530281" lon="0.9870408144151659"><ele>157.0</ele><time>2026-05-01T07:56:33Z</time></trkpt><trkpt lat="44.74464001071924" lon="0.9869626347905354"><ele>157.0</ele><time>2026-05-01T07:56:34Z</time></trkpt><trkpt lat="44.74454152743122" lon="0.9869033671159577"><ele>157.0</ele><time>2026-05-01T07:56:35Z</time></trkpt><trkpt lat="44.74444944629336" lon="0.986870090963094"><ele>157.0</ele><time>2026-05-01T07:56:36Z</time></trkpt><trkpt lat="44.74435265455255" lon="0.9868657893364654"><ele>157.0</ele><time>2026-05-01T07:56:37Z</time></trkpt><trkpt lat="44.744269578706316" lon="0.9868811961937123"><ele>157.0</ele><time>2026-05-01T07:56:38Z</time></trkpt><trkpt lat="44.74424813162298" lon="0.9869960741319276"><ele>155.83333333333334</ele><time>2026-05-01T07:56:41Z</time></trkpt><trkpt lat="44.74426988761368" lon="0.9870914516396648"><ele>154.66666666666669</ele><time>2026-05-01T07:56:42Z</time></trkpt><trkpt lat="44.74427861420177" lon="0.9871940744081991"><ele>153.5</ele><time>2026-05-01T07:56:43Z</time></trkpt><trkpt lat="44.74426508809907" lon="0.9873009608772163"><ele>152.33333333333334</ele><time>2026-05-01T07:56:44Z</time></trkpt><trkpt lat="44.744268389209694" lon="0.9874018519742251"><ele>151.16666666666666</ele><time>2026-05-01T07:56:45Z</time></trkpt><trkpt lat="44.74427933467637" lon="0.9875020739276111"><ele>150.0</ele><time>2026-05-01T07:56:46Z</time></trkpt><trkpt lat="44.744272999219596" lon="0.9876783403521161"><ele>150.0</ele><time>2026-05-01T07:56:47Z</time></trkpt><trkpt lat="44.74424521178357" lon="0.9878067427831311"><ele>150.0</ele><time>2026-05-01T07:56:48Z</time></trkpt><trkpt lat="44.744226074465885" lon="0.9879471216256326"><ele>150.0</ele><time>2026-05-01T07:56:49Z</time></trkpt><trkpt lat="44.74421112306502" lon="0.9881131563133241"><ele>150.0</ele><time>2026-05-01T07:56:50Z</time></trkpt><trkpt lat="44.744188101741265" lon="0.9882492601899746"><ele>150.0</ele><time>2026-05-01T07:56:51Z</time></trkpt><trkpt lat="44.74417440675719" lon="0.9883702676418039"><ele>150.4</ele><time>2026-05-01T07:56:52Z</time></trkpt><trkpt lat="44.74416659605333" lon="0.9884640734548996"><ele>150.8</ele><time>2026-05-01T07:56:53Z</time></trkpt><trkpt lat="44.74424348878651" lon="0.9885982347468529"><ele>151.2</ele><time>2026-05-01T07:56:55Z</time></trkpt><trkpt lat="44.74429638460195" lon="0.988674510714811"><ele>151.6</ele><time>2026-05-01T07:56:56Z</time></trkpt><trkpt lat="44.74435877605327" lon="0.9887542924142549"><ele>152.0</ele><time>2026-05-01T07:56:57Z</time></trkpt><trkpt lat="44.744427629215394" lon="0.9888605766876195"><ele>152.0</ele><time>2026-05-01T07:56:58Z</time></trkpt><trkpt lat="44.74448485683579" lon="0.9889584752283754"><ele>152.0</ele><time>2026-05-01T07:56:59Z</time></trkpt><trkpt lat="44.7445593520789" lon="0.9890277568919478"><ele>152.0</ele><time>2026-05-01T07:57:00Z</time></trkpt><trkpt lat="44.74459904688673" lon="0.989153648836554"><ele>152.0</ele><time>2026-05-01T07:57:01Z</time></trkpt><trkpt lat="44.744646453368674" lon="0.9892756167434571"><ele>152.0</ele><time>2026-05-01T07:57:02Z</time></trkpt><trkpt lat="44.744711693964675" lon="0.9893874316407834"><ele>151.6</ele><time>2026-05-01T07:57:03Z</time></trkpt><trkpt lat="44.744771713995945" lon="0.9894621576934141"><ele>151.2</ele><time>2026-05-01T07:57:04Z</time></trkpt><trkpt lat="44.744827526957515" lon="0.9895409033564269"><ele>150.8</ele><time>2026-05-01T07:57:05Z</time></trkpt><trkpt lat="44.744862862241234" lon="0.9896472264100946"><ele>150.4</ele><time>2026-05-01T07:57:06Z</time></trkpt><trkpt lat="44.74493035512355" lon="0.9897871885567846"><ele>150.0</ele><time>2026-05-01T07:57:07Z</time></trkpt><trkpt lat="44.74499592959345" lon="0.9899496720517065"><ele>150.0</ele><time>2026-05-01T07:57:08Z</time></trkpt><trkpt lat="44.745050960845795" lon="0.9901084965238314"><ele>150.0</ele><time>2026-05-01T07:57:10Z</time></trkpt><trkpt lat="44.74510214008702" lon="0.990200950220736"><ele>150.0</ele><time>2026-05-01T07:57:11Z</time></trkpt><trkpt lat="44.745142176813154" lon="0.9902755330797486"><ele>150.0</ele><time>2026-05-01T07:57:12Z</time></trkpt><trkpt lat="44.7451957912597" lon="0.9903964961594468"><ele>150.0</ele><time>2026-05-01T07:57:14Z</time></trkpt><trkpt lat="44.74517531916271" lon="0.990500857339848"><ele>150.0</ele><time>2026-05-01T07:57:15Z</time></trkpt><trkpt lat="44.74517457310613" lon="0.9906105934910536"><ele>150.0</ele><time>2026-05-01T07:57:16Z</time></trkpt><trkpt lat="44.74518665822308" lon="0.9907500267716113"><ele>150.0</ele><time>2026-05-01T07:57:18Z</time></trkpt><trkpt lat="44.74515223472779" lon="0.9908371014148386"><ele>150.0</ele><time>2026-05-01T07:57:20Z</time></trkpt><trkpt lat="44.7451034156904" lon="0.9909215652302302"><ele>150.0</ele><time>2026-05-01T07:57:22Z</time></trkpt><trkpt lat="44.74503716646514" lon="0.9909884671960231"><ele>150.0</ele><time>2026-05-01T07:57:25Z</time></trkpt><trkpt lat="44.74498901179615" lon="0.9910651396137404"><ele>150.42857142857142</ele><time>2026-05-01T07:57:37Z</time></trkpt><trkpt lat="44.74500785782295" lon="0.9911503771394107"><ele>150.85714285714286</ele><time>2026-05-01T07:57:40Z</time></trkpt><trkpt lat="44.745000095754705" lon="0.9912402185434461"><ele>151.28571428571428</ele><time>2026-05-01T07:57:55Z</time></trkpt><trkpt lat="44.744947531895235" lon="0.9912937931725764"><ele>151.71428571428572</ele><time>2026-05-01T07:57:57Z</time></trkpt><trkpt lat="44.74490789834013" lon="0.9913637853341845"><ele>152.14285714285714</ele><time>2026-05-01T07:57:59Z</time></trkpt><trkpt lat="44.74483298397776" lon="0.9914679085532062"><ele>152.57142857142856</ele><time>2026-05-01T07:58:01Z</time></trkpt><trkpt lat="44.74478414641408" lon="0.9915400315902037"><ele>153.0</ele><time>2026-05-01T07:58:04Z</time></trkpt><trkpt lat="44.744752674768684" lon="0.9916546174943571"><ele>153.66666666666666</ele><time>2026-05-01T07:58:07Z</time></trkpt><trkpt lat="44.744756640202034" lon="0.9917814184459262"><ele>154.33333333333334</ele><time>2026-05-01T07:58:09Z</time></trkpt><trkpt lat="44.74474453764364" lon="0.9919386854343719"><ele>155.0</ele><time>2026-05-01T07:58:11Z</time></trkpt><trkpt lat="44.744764890388005" lon="0.9920316368489458"><ele>155.66666666666669</ele><time>2026-05-01T07:58:13Z</time></trkpt><trkpt lat="44.744779684613235" lon="0.9921495119166303"><ele>156.33333333333334</ele><time>2026-05-01T07:58:15Z</time></trkpt><trkpt lat="44.74473047550066" lon="0.9922417166649351"><ele>157.0</ele><time>2026-05-01T07:58:17Z</time></trkpt><trkpt lat="44.74468329120979" lon="0.9923116734463339"><ele>156.99999999999997</ele><time>2026-05-01T07:58:18Z</time></trkpt><trkpt lat="44.744643916441674" lon="0.9923929316766703"><ele>157.0</ele><time>2026-05-01T07:58:19Z</time></trkpt><trkpt lat="44.74459979639844" lon="0.9924863046853821"><ele>157.0</ele><time>2026-05-01T07:58:20Z</time></trkpt><trkpt lat="44.74455451720863" lon="0.9925756230114114"><ele>157.0</ele><time>2026-05-01T07:58:21Z</time></trkpt><trkpt lat="44.744540117271406" lon="0.9926727392253334"><ele>157.0</ele><time>2026-05-01T07:58:22Z</time></trkpt><trkpt lat="44.74452818806426" lon="0.9927720708988458"><ele>156.99999999999997</ele><time>2026-05-01T07:58:23Z</time></trkpt><trkpt lat="44.74449075284794" lon="0.9928642147020613"><ele>157.0</ele><time>2026-05-01T07:58:24Z</time></trkpt><trkpt lat="44.74443885637357" lon="0.9929380237018433"><ele>157.2</ele><time>2026-05-01T07:58:25Z</time></trkpt><trkpt lat="44.74438674237396" lon="0.9929971026370142"><ele>157.39999999999998</ele><time>2026-05-01T07:58:26Z</time></trkpt><trkpt lat="44.74429630986206" lon="0.9930514675672335"><ele>157.60000000000002</ele><time>2026-05-01T07:58:28Z</time></trkpt><trkpt lat="44.74428060594056" lon="0.9931881692239202"><ele>157.8</ele><time>2026-05-01T07:58:30Z</time></trkpt><trkpt lat="44.744265022462706" lon="0.9932986282801967"><ele>158.0</ele><time>2026-05-01T07:58:31Z</time></trkpt><trkpt lat="44.74425632330905" lon="0.9934955311364153"><ele>159.0</ele><time>2026-05-01T07:58:33Z</time></trkpt><trkpt lat="44.744239410641725" lon="0.9935824950093025"><ele>160.0</ele><time>2026-05-01T07:58:34Z</time></trkpt><trkpt lat="44.74418772966988" lon="0.9936633174407898"><ele>161.0</ele><time>2026-05-01T07:58:35Z</time></trkpt><trkpt lat="44.74415153087376" lon="0.9937600155326171"><ele>162.0</ele><time>2026-05-01T07:58:37Z</time></trkpt><trkpt lat="44.74425370101246" lon="0.9938770970654984"><ele>163.0</ele><time>2026-05-01T07:58:40Z</time></trkpt><trkpt lat="44.74431623903703" lon="0.993893355064802"><ele>164.0</ele><time>2026-05-01T07:58:41Z</time></trkpt><trkpt lat="44.74438841328479" lon="0.9939365811340215"><ele>164.0</ele><time>2026-05-01T07:58:42Z</time></trkpt><trkpt lat="44.74444246370854" lon="0.9940881554602338"><ele>164.0</ele><time>2026-05-01T07:58:44Z</time></trkpt><trkpt lat="44.74442714420263" lon="0.9941806886030199"><ele>164.0</ele><time>2026-05-01T07:58:45Z</time></trkpt><trkpt lat="44.74444032868326" lon="0.9942824531317793"><ele>164.0</ele><time>2026-05-01T07:58:46Z</time></trkpt><trkpt lat="44.74439515211573" lon="0.9943800777721852"><ele>164.0</ele><time>2026-05-01T07:58:47Z</time></trkpt><trkpt lat="44.744336621266775" lon="0.9944559903801845"><ele>164.0</ele><time>2026-05-01T07:58:48Z</time></trkpt><trkpt lat="44.74426571318698" lon="0.9945533763463771"><ele>165.0</ele><time>2026-05-01T07:58:49Z</time></trkpt><trkpt lat="44.74417506244226" lon="0.994672226568656"><ele>166.0</ele><time>2026-05-01T07:58:50Z</time></trkpt><trkpt lat="44.74408257076386" lon="0.99475219815931"><ele>167.0</ele><time>2026-05-01T07:58:51Z</time></trkpt><trkpt lat="44.74398982094969" lon="0.9948260018492742"><ele>168.0</ele><time>2026-05-01T07:58:52Z</time></trkpt><trkpt lat="44.74389317397939" lon="0.9948733343040395"><ele>169.0</ele><time>2026-05-01T07:58:53Z</time></trkpt><trkpt lat="44.74381304390184" lon="0.9949585309000034"><ele>169.0</ele><time>2026-05-01T07:58:54Z</time></trkpt><trkpt lat="44.74374744938389" lon="0.9950198736808242"><ele>169.0</ele><time>2026-05-01T07:58:55Z</time></trkpt><trkpt lat="44.74368648133702" lon="0.9950593196385501"><ele>169.0</ele><time>2026-05-01T07:58:57Z</time></trkpt><trkpt lat="44.743624616730635" lon="0.9950343784987369"><ele>169.0</ele><time>2026-05-01T07:58:58Z</time></trkpt><trkpt lat="44.743549787557434" lon="0.9950416613179044"><ele>169.0</ele><time>2026-05-01T07:58:59Z</time></trkpt><trkpt lat="44.74343889829016" lon="0.9951006872629251"><ele>169.0</ele><time>2026-05-01T07:59:01Z</time></trkpt><trkpt lat="44.74334564688694" lon="0.9951913240305518"><ele>168.2</ele><time>2026-05-01T07:59:02Z</time></trkpt><trkpt lat="44.74321861424125" lon="0.9952733179305008"><ele>167.39999999999998</ele><time>2026-05-01T07:59:03Z</time></trkpt><trkpt lat="44.74314501922788" lon="0.995354961569315"><ele>166.6</ele><time>2026-05-01T07:59:04Z</time></trkpt><trkpt lat="44.743087344300854" lon="0.995431401156569"><ele>165.8</ele><time>2026-05-01T07:59:05Z</time></trkpt><trkpt lat="44.743042645861955" lon="0.9955161180352937"><ele>165.0</ele><time>2026-05-01T07:59:06Z</time></trkpt><trkpt lat="44.74301418952895" lon="0.9956161693831006"><ele>165.0</ele><time>2026-05-01T07:59:07Z</time></trkpt><trkpt lat="44.743037916903326" lon="0.9957148786215128"><ele>165.0</ele><time>2026-05-01T07:59:09Z</time></trkpt><trkpt lat="44.74302593000913" lon="0.9958356419864561"><ele>165.0</ele><time>2026-05-01T07:59:11Z</time></trkpt><trkpt lat="44.742952090375525" lon="0.9958486326744728"><ele>165.0</ele><time>2026-05-01T07:59:13Z</time></trkpt><trkpt lat="44.7428529971622" lon="0.9958296550418646"><ele>165.0</ele><time>2026-05-01T07:59:15Z</time></trkpt><trkpt lat="44.74277825580037" lon="0.995755836750545"><ele>165.0</ele><time>2026-05-01T07:59:17Z</time></trkpt><trkpt lat="44.7427242954331" lon="0.9956774187325752"><ele>164.8</ele><time>2026-05-01T07:59:19Z</time></trkpt><trkpt lat="44.742663525526524" lon="0.9956184208937398"><ele>164.6</ele><time>2026-05-01T07:59:21Z</time></trkpt><trkpt lat="44.74256241743288" lon="0.9955311224251434"><ele>164.39999999999998</ele><time>2026-05-01T07:59:23Z</time></trkpt><trkpt lat="44.742500192220085" lon="0.9955064803884306"><ele>164.2</ele><time>2026-05-01T07:59:24Z</time></trkpt><trkpt lat="44.742411962291335" lon="0.995463232193346"><ele>164.0</ele><time>2026-05-01T07:59:26Z</time></trkpt><trkpt lat="44.7422981448366" lon="0.9954616416605071"><ele>164.0</ele><time>2026-05-01T07:59:28Z</time></trkpt><trkpt lat="44.7421657634432" lon="0.9954338508647986"><ele>164.0</ele><time>2026-05-01T07:59:30Z</time></trkpt><trkpt lat="44.74210051174915" lon="0.9954062205938436"><ele>164.0</ele><time>2026-05-01T07:59:31Z</time></trkpt><trkpt lat="44.74196789021323" lon="0.9953581120449798"><ele>164.0</ele><time>2026-05-01T07:59:33Z</time></trkpt><trkpt lat="44.74187683504248" lon="0.9953313766846837"><ele>164.0</ele><time>2026-05-01T07:59:34Z</time></trkpt><trkpt lat="44.74179898580795" lon="0.995323981522083"><ele>164.83333333333331</ele><time>2026-05-01T07:59:35Z</time></trkpt><trkpt lat="44.74172678327313" lon="0.9953041138726849"><ele>165.66666666666666</ele><time>2026-05-01T07:59:36Z</time></trkpt><trkpt lat="44.74164162479502" lon="0.9952745179938919"><ele>166.5</ele><time>2026-05-01T07:59:37Z</time></trkpt><trkpt lat="44.741558006560865" lon="0.9952252207800579"><ele>167.33333333333334</ele><time>2026-05-01T07:59:38Z</time></trkpt><trkpt lat="44.74149402248447" lon="0.9951750582900496"><ele>168.16666666666669</ele><time>2026-05-01T07:59:39Z</time></trkpt><trkpt lat="44.74142245024326" lon="0.9951316753498388"><ele>169.0</ele><time>2026-05-01T07:59:40Z</time></trkpt><trkpt lat="44.741361871936014" lon="0.9950648547534486"><ele>169.0</ele><time>2026-05-01T07:59:41Z</time></trkpt><trkpt lat="44.741296398329304" lon="0.9950056156603021"><ele>169.0</ele><time>2026-05-01T07:59:42Z</time></trkpt><trkpt lat="44.7412313186094" lon="0.994942658294692"><ele>169.0</ele><time>2026-05-01T07:59:43Z</time></trkpt><trkpt lat="44.74116321055775" lon="0.9948748664687955"><ele>169.0</ele><time>2026-05-01T07:59:44Z</time></trkpt><trkpt lat="44.74111074177299" lon="0.9948151064719452"><ele>169.0</ele><time>2026-05-01T07:59:45Z</time></trkpt><trkpt lat="44.7410324931474" lon="0.9947537205461747"><ele>169.0</ele><time>2026-05-01T07:59:46Z</time></trkpt><trkpt lat="44.740962128021934" lon="0.9946762368272861"><ele>169.5</ele><time>2026-05-01T07:59:47Z</time></trkpt><trkpt lat="44.74088368924431" lon="0.9945625066733653"><ele>170.0</ele><time>2026-05-01T07:59:49Z</time></trkpt><trkpt lat="44.740799096092594" lon="0.9944351194991573"><ele>170.5</ele><time>2026-05-01T07:59:51Z</time></trkpt><trkpt lat="44.74075523207016" lon="0.9943670878397336"><ele>171.0</ele><time>2026-05-01T07:59:52Z</time></trkpt><trkpt lat="44.74072424296987" lon="0.9942842068870791"><ele>171.5</ele><time>2026-05-01T07:59:53Z</time></trkpt><trkpt lat="44.7407004076362" lon="0.994197137517639"><ele>172.0</ele><time>2026-05-01T07:59:54Z</time></trkpt><trkpt lat="44.740649059062285" lon="0.994121154805069"><ele>172.00000000000003</ele><time>2026-05-01T07:59:57Z</time></trkpt><trkpt lat="44.740595862228204" lon="0.9940434794805157"><ele>172.0</ele><time>2026-05-01T08:00:00Z</time></trkpt><trkpt lat="44.74053626817534" lon="0.9939612364519336"><ele>172.0</ele><time>2026-05-01T08:00:29Z</time></trkpt><trkpt lat="44.7404705162163" lon="0.9939207561809255"><ele>172.0</ele><time>2026-05-01T08:03:04Z</time></trkpt><trkpt lat="44.740412958275805" lon="0.993856618092907"><ele>172.0</ele><time>2026-05-01T08:04:48Z</time></trkpt><trkpt lat="44.74035846958318" lon="0.9938098698194626"><ele>172.00000000000003</ele><time>2026-05-01T08:06:58Z</time></trkpt><trkpt lat="44.74028536845371" lon="0.9937636582121648"><ele>172.0</ele><time>2026-05-01T08:07:31Z</time></trkpt><trkpt lat="44.74021429154036" lon="0.9936932208566965"><ele>172.00000000000003</ele><time>2026-05-01T08:07:33Z</time></trkpt><trkpt lat="44.74016086518735" lon="0.9936429052923381"><ele>172.0</ele><time>2026-05-01T08:07:38Z</time></trkpt><trkpt lat="44.74010042334714" lon="0.9936031618976937"><ele>172.0</ele><time>2026-05-01T08:08:02Z</time></trkpt><trkpt lat="44.740159147070294" lon="0.9935542204383058"><ele>172.0</ele><time>2026-05-01T08:08:48Z</time></trkpt><trkpt lat="44.74020825603476" lon="0.9934651451788077"><ele>172.0</ele><time>2026-05-01T08:08:52Z</time></trkpt><trkpt lat="44.74024814811576" lon="0.9933865833301885"><ele>172.00000000000003</ele><time>2026-05-01T08:08:53Z</time></trkpt><trkpt lat="44.74029686537007" lon="0.9932996711205571"><ele>172.0</ele><time>2026-05-01T08:08:55Z</time></trkpt><trkpt lat="44.740339911273075" lon="0.9931584711532522"><ele>172.5</ele><time>2026-05-01T08:08:57Z</time></trkpt><trkpt lat="44.74039271813963" lon="0.9930235870778986"><ele>173.0</ele><time>2026-05-01T08:08:58Z</time></trkpt><trkpt lat="44.7404623475432" lon="0.9928643685079991"><ele>173.5</ele><time>2026-05-01T08:08:59Z</time></trkpt><trkpt lat="44.74053445467104" lon="0.9926902053821672"><ele>174.0</ele><time>2026-05-01T08:09:00Z</time></trkpt><trkpt lat="44.74059429816869" lon="0.992549648192154"><ele>174.25</ele><time>2026-05-01T08:09:01Z</time></trkpt><trkpt lat="44.74066193617266" lon="0.9924162549183588"><ele>174.5</ele><time>2026-05-01T08:09:02Z</time></trkpt><trkpt lat="44.74071472918604" lon="0.9922523948228615"><ele>174.75</ele><time>2026-05-01T08:09:03Z</time></trkpt><trkpt lat="44.74077271904767" lon="0.9921093725866439"><ele>175.0</ele><time>2026-05-01T08:09:04Z</time></trkpt><trkpt lat="44.740807856550084" lon="0.9919676016988795"><ele>175.0</ele><time>2026-05-01T08:09:05Z</time></trkpt><trkpt lat="44.74085253860384" lon="0.9918585886272816"><ele>175.0</ele><time>2026-05-01T08:09:06Z</time></trkpt><trkpt lat="44.74092558241512" lon="0.9917064126392082"><ele>175.0</ele><time>2026-05-01T08:09:08Z</time></trkpt><trkpt lat="44.74091634525358" lon="0.9916170353429606"><ele>175.0</ele><time>2026-05-01T08:09:09Z</time></trkpt><trkpt lat="44.74086928741734" lon="0.9915210544402958"><ele>175.0</ele><time>2026-05-01T08:09:10Z</time></trkpt><trkpt lat="44.74081990851187" lon="0.991438311845411"><ele>175.0</ele><time>2026-05-01T08:09:11Z</time></trkpt><trkpt lat="44.740769640365954" lon="0.9913659985855782"><ele>174.6</ele><time>2026-05-01T08:09:12Z</time></trkpt><trkpt lat="44.74072204950652" lon="0.9911819977637737"><ele>174.2</ele><time>2026-05-01T08:09:14Z</time></trkpt><trkpt lat="44.740738480246485" lon="0.9909821025968627"><ele>173.8</ele><time>2026-05-01T08:09:16Z</time></trkpt><trkpt lat="44.74079855343696" lon="0.9909511983771144"><ele>173.4</ele><time>2026-05-01T08:09:17Z</time></trkpt><trkpt lat="44.74086614953322" lon="0.9908819025217824"><ele>173.0</ele><time>2026-05-01T08:09:18Z</time></trkpt><trkpt lat="44.74092880163659" lon="0.9908194688682769"><ele>172.57142857142856</ele><time>2026-05-01T08:09:19Z</time></trkpt><trkpt lat="44.74097504213198" lon="0.9907462071689224"><ele>172.14285714285717</ele><time>2026-05-01T08:09:20Z</time></trkpt><trkpt lat="44.74099178365698" lon="0.9906517451087492"><ele>171.71428571428572</ele><time>2026-05-01T08:09:21Z</time></trkpt><trkpt lat="44.74099113618087" lon="0.9905544496935126"><ele>171.28571428571428</ele><time>2026-05-01T08:09:22Z</time></trkpt><trkpt lat="44.74097586884288" lon="0.9904280933602563"><ele>170.85714285714283</ele><time>2026-05-01T08:09:23Z</time></trkpt><trkpt lat="44.74094171965125" lon="0.9903479059797797"><ele>170.42857142857144</ele><time>2026-05-01T08:09:24Z</time></trkpt><trkpt lat="44.7408890147135" lon="0.990293620369931"><ele>170.0</ele><time>2026-05-01T08:09:25Z</time></trkpt><trkpt lat="44.74082023059483" lon="0.9902416149287198"><ele>170.0</ele><time>2026-05-01T08:09:26Z</time></trkpt><trkpt lat="44.740760537662695" lon="0.9901678147794084"><ele>170.0</ele><time>2026-05-01T08:09:27Z</time></trkpt><trkpt lat="44.740726274597904" lon="0.9900795536393073"><ele>170.0</ele><time>2026-05-01T08:09:28Z</time></trkpt><trkpt lat="44.740699057912344" lon="0.989973171060564"><ele>170.0</ele><time>2026-05-01T08:09:29Z</time></trkpt><trkpt lat="44.74065149682264" lon="0.989815009385327"><ele>170.0</ele><time>2026-05-01T08:09:30Z</time></trkpt><trkpt lat="44.740595993792425" lon="0.9897004314954333"><ele>169.2</ele><time>2026-05-01T08:09:31Z</time></trkpt><trkpt lat="44.74057678222003" lon="0.9895614753139537"><ele>168.4</ele><time>2026-05-01T08:09:32Z</time></trkpt><trkpt lat="44.74052710866954" lon="0.9894341979497515"><ele>167.60000000000002</ele><time>2026-05-01T08:09:33Z</time></trkpt><trkpt lat="44.74046461197573" lon="0.9892954059321905"><ele>166.8</ele><time>2026-05-01T08:09:34Z</time></trkpt><trkpt lat="44.74041027029625" lon="0.9891723750083085"><ele>166.0</ele><time>2026-05-01T08:09:35Z</time></trkpt><trkpt lat="44.74038467160156" lon="0.9890296534143316"><ele>165.0</ele><time>2026-05-01T08:09:36Z</time></trkpt><trkpt lat="44.7403444205455" lon="0.9888576639680211"><ele>164.0</ele><time>2026-05-01T08:09:37Z</time></trkpt><trkpt lat="44.74028912125765" lon="0.9886863417571959"><ele>163.0</ele><time>2026-05-01T08:09:38Z</time></trkpt><trkpt lat="44.74024481772799" lon="0.9885195064600599"><ele>162.0</ele><time>2026-05-01T08:09:39Z</time></trkpt><trkpt lat="44.74021472433288" lon="0.9883552193449293"><ele>162.39999999999998</ele><time>2026-05-01T08:09:40Z</time></trkpt><trkpt lat="44.740171340500744" lon="0.9882274269647526"><ele>162.79999999999998</ele><time>2026-05-01T08:09:41Z</time></trkpt><trkpt lat="44.74011154455417" lon="0.9880942642373648"><ele>163.2</ele><time>2026-05-01T08:09:42Z</time></trkpt><trkpt lat="44.74007605733773" lon="0.9879815227046976"><ele>163.6</ele><time>2026-05-01T08:09:43Z</time></trkpt><trkpt lat="44.74003009525461" lon="0.9878727484968298"><ele>164.0</ele><time>2026-05-01T08:09:44Z</time></trkpt><trkpt lat="44.7399613315044" lon="0.9877344962815713"><ele>164.0</ele><time>2026-05-01T08:09:45Z</time></trkpt><trkpt lat="44.739892083960555" lon="0.9875889302768031"><ele>164.0</ele><time>2026-05-01T08:09:46Z</time></trkpt><trkpt lat="44.739860109588015" lon="0.9874769765596914"><ele>164.0</ele><time>2026-05-01T08:09:47Z</time></trkpt><trkpt lat="44.73981175691572" lon="0.9873862465522182"><ele>164.0</ele><time>2026-05-01T08:09:48Z</time></trkpt><trkpt lat="44.73973583260611" lon="0.9872979268737803"><ele>164.0</ele><time>2026-05-01T08:09:50Z</time></trkpt><trkpt lat="44.73963794469282" lon="0.9873330357070025"><ele>163.25</ele><time>2026-05-01T08:09:52Z</time></trkpt><trkpt lat="44.73956278838857" lon="0.9873633869464116"><ele>162.5</ele><time>2026-05-01T08:09:53Z</time></trkpt><trkpt lat="44.739469549147586" lon="0.9873952544890164"><ele>161.75</ele><time>2026-05-01T08:09:54Z</time></trkpt><trkpt lat="44.73933538360039" lon="0.9874322352329733"><ele>161.0</ele><time>2026-05-01T08:09:55Z</time></trkpt><trkpt lat="44.739194419095746" lon="0.9874765782459766"><ele>162.20000000000002</ele><time>2026-05-01T08:09:56Z</time></trkpt><trkpt lat="44.739079962426274" lon="0.9875419363213273"><ele>163.4</ele><time>2026-05-01T08:09:57Z</time></trkpt><trkpt lat="44.73899413937784" lon="0.9876008572766707"><ele>164.6</ele><time>2026-05-01T08:09:58Z</time></trkpt><trkpt lat="44.73892351407852" lon="0.9876584814201916"><ele>165.8</ele><time>2026-05-01T08:09:59Z</time></trkpt><trkpt lat="44.73884764843499" lon="0.9877100920903228"><ele>167.0</ele><time>2026-05-01T08:10:00Z</time></trkpt><trkpt lat="44.73877158781742" lon="0.9877564493383364"><ele>167.0</ele><time>2026-05-01T08:10:01Z</time></trkpt><trkpt lat="44.73867541117844" lon="0.9878355868587478"><ele>167.0</ele><time>2026-05-01T08:10:02Z</time></trkpt><trkpt lat="44.73857289530939" lon="0.9879281952805407"><ele>167.0</ele><time>2026-05-01T08:10:03Z</time></trkpt><trkpt lat="44.73849488454098" lon="0.9879810452043137"><ele>167.0</ele><time>2026-05-01T08:10:04Z</time></trkpt><trkpt lat="44.73836957273301" lon="0.9880194073357693"><ele>167.0</ele><time>2026-05-01T08:10:05Z</time></trkpt><trkpt lat="44.73828363665008" lon="0.9880359196907634"><ele>167.66666666666666</ele><time>2026-05-01T08:10:06Z</time></trkpt><trkpt lat="44.73818964941276" lon="0.9880598505353062"><ele>168.33333333333331</ele><time>2026-05-01T08:10:08Z</time></trkpt><trkpt lat="44.73813315121095" lon="0.9880163640339401"><ele>169.0</ele><time>2026-05-01T08:10:18Z</time></trkpt><trkpt lat="44.73802800280064" lon="0.987985416245944"><ele>169.66666666666666</ele><time>2026-05-01T08:10:20Z</time></trkpt><trkpt lat="44.73796438773208" lon="0.9879732388317737"><ele>170.33333333333334</ele><time>2026-05-01T08:10:21Z</time></trkpt><trkpt lat="44.73786901392475" lon="0.9879892322235599"><ele>171.0</ele><time>2026-05-01T08:10:22Z</time></trkpt><trkpt lat="44.73778957955005" lon="0.9880148042362371"><ele>172.0</ele><time>2026-05-01T08:10:23Z</time></trkpt><trkpt lat="44.73771168725373" lon="0.9880705275992335"><ele>173.0</ele><time>2026-05-01T08:10:24Z</time></trkpt><trkpt lat="44.7376407203682" lon="0.9881765231429609"><ele>174.0</ele><time>2026-05-01T08:10:26Z</time></trkpt><trkpt lat="44.73759895475299" lon="0.9882860945708274"><ele>175.0</ele><time>2026-05-01T08:10:28Z</time></trkpt><trkpt lat="44.737550268453546" lon="0.9883943276174793"><ele>176.0</ele><time>2026-05-01T08:10:30Z</time></trkpt><trkpt lat="44.73755871533852" lon="0.9885560788800158"><ele>176.0</ele><time>2026-05-01T08:10:33Z</time></trkpt><trkpt lat="44.737516273089646" lon="0.9886541940045493"><ele>176.0</ele><time>2026-05-01T08:10:35Z</time></trkpt><trkpt lat="44.73741352435679" lon="0.9887029112501269"><ele>176.0</ele><time>2026-05-01T08:10:37Z</time></trkpt><trkpt lat="44.73731075638508" lon="0.988689427774997"><ele>176.0</ele><time>2026-05-01T08:10:40Z</time></trkpt><trkpt lat="44.737183532682685" lon="0.9886279262140656"><ele>176.0</ele><time>2026-05-01T08:10:42Z</time></trkpt><trkpt lat="44.73710124059287" lon="0.9886581036120342"><ele>176.0</ele><time>2026-05-01T08:10:43Z</time></trkpt><trkpt lat="44.737041778026516" lon="0.9887112088928381"><ele>176.0</ele><time>2026-05-01T08:10:44Z</time></trkpt><trkpt lat="44.73700899251313" lon="0.98882652443798"><ele>176.0</ele><time>2026-05-01T08:10:46Z</time></trkpt><trkpt lat="44.73709706596449" lon="0.988918379936863"><ele>176.0</ele><time>2026-05-01T08:10:48Z</time></trkpt><trkpt lat="44.73716676424916" lon="0.9889744129902739"><ele>176.0</ele><time>2026-05-01T08:10:49Z</time></trkpt><trkpt lat="44.73720827305041" lon="0.9890604561202985"><ele>176.0</ele><time>2026-05-01T08:10:50Z</time></trkpt><trkpt lat="44.737204755243326" lon="0.9891649253961383"><ele>176.0</ele><time>2026-05-01T08:10:51Z</time></trkpt><trkpt lat="44.737206501618275" lon="0.9892972644952887"><ele>176.0</ele><time>2026-05-01T08:10:53Z</time></trkpt><trkpt lat="44.73712660458039" lon="0.9892985230404108"><ele>176.0</ele><time>2026-05-01T08:11:04Z</time></trkpt><trkpt lat="44.73704823407692" lon="0.9892495912011502"><ele>176.0</ele><time>2026-05-01T08:11:07Z</time></trkpt><trkpt lat="44.73696785158085" lon="0.9892148204646689"><ele>176.0</ele><time>2026-05-01T08:11:09Z</time></trkpt><trkpt lat="44.73689681110045" lon="0.989108334019816"><ele>176.0</ele><time>2026-05-01T08:11:11Z</time></trkpt><trkpt lat="44.73680986707395" lon="0.9890100742262409"><ele>177.16666666666666</ele><time>2026-05-01T08:11:13Z</time></trkpt><trkpt lat="44.736734304481146" lon="0.9889743760766093"><ele>178.33333333333331</ele><time>2026-05-01T08:11:15Z</time></trkpt><trkpt lat="44.73667194104257" lon="0.9889962067255361"><ele>179.5</ele><time>2026-05-01T08:11:17Z</time></trkpt><trkpt lat="44.736595010030726" lon="0.9889152822353205"><ele>180.66666666666666</ele><time>2026-05-01T08:11:19Z</time></trkpt><trkpt lat="44.73657161473453" lon="0.9890740964106836"><ele>181.83333333333334</ele><time>2026-05-01T08:11:23Z</time></trkpt><trkpt lat="44.73658538015543" lon="0.9891938866460687"><ele>183.0</ele><time>2026-05-01T08:11:24Z</time></trkpt><trkpt lat="44.73659240017568" lon="0.9893140615887934"><ele>183.0</ele><time>2026-05-01T08:11:25Z</time></trkpt><trkpt lat="44.73659345802748" lon="0.9894474980855308"><ele>183.0</ele><time>2026-05-01T08:11:26Z</time></trkpt><trkpt lat="44.73659996819464" lon="0.9895461623845586"><ele>183.0</ele><time>2026-05-01T08:11:27Z</time></trkpt><trkpt lat="44.73658523445328" lon="0.9896791958773942"><ele>183.0</ele><time>2026-05-01T08:11:29Z</time></trkpt><trkpt lat="44.73663782891287" lon="0.9897731211657937"><ele>183.0</ele><time>2026-05-01T08:11:34Z</time></trkpt><trkpt lat="44.73667025031716" lon="0.9898522216169269"><ele>183.0</ele><time>2026-05-01T08:11:35Z</time></trkpt><trkpt lat="44.7367430713498" lon="0.98997884818099"><ele>183.33333333333334</ele><time>2026-05-01T08:11:37Z</time></trkpt><trkpt lat="44.736802694016994" lon="0.9900219974041556"><ele>183.66666666666666</ele><time>2026-05-01T08:11:38Z</time></trkpt><trkpt lat="44.73686069930552" lon="0.9900733235906137"><ele>184.0</ele><time>2026-05-01T08:11:39Z</time></trkpt><trkpt lat="44.73694853634599" lon="0.9901392657984035"><ele>184.33333333333331</ele><time>2026-05-01T08:11:41Z</time></trkpt><trkpt lat="44.73696778655878" lon="0.9902421094277711"><ele>184.66666666666666</ele><time>2026-05-01T08:11:57Z</time></trkpt><trkpt lat="44.73693187742195" lon="0.9903984147123043"><ele>185.0</ele><time>2026-05-01T08:11:59Z</time></trkpt><trkpt lat="44.73688975782361" lon="0.9904718208967713"><ele>185.0</ele><time>2026-05-01T08:12:00Z</time></trkpt><trkpt lat="44.73683627912167" lon="0.9905404012443415"><ele>185.0</ele><time>2026-05-01T08:12:01Z</time></trkpt><trkpt lat="44.73675766602588" lon="0.9906827848118948"><ele>185.0</ele><time>2026-05-01T08:12:02Z</time></trkpt><trkpt lat="44.73668230944039" lon="0.9908327713503691"><ele>185.0</ele><time>2026-05-01T08:12:03Z</time></trkpt><trkpt lat="44.73661122905171" lon="0.9909841689535248"><ele>186.0</ele><time>2026-05-01T08:12:04Z</time></trkpt><trkpt lat="44.73654228782957" lon="0.9911136397236094"><ele>187.0</ele><time>2026-05-01T08:12:05Z</time></trkpt><trkpt lat="44.73647732089926" lon="0.9912075096670259"><ele>188.0</ele><time>2026-05-01T08:12:06Z</time></trkpt><trkpt lat="44.73641729975477" lon="0.9913151415360831"><ele>189.0</ele><time>2026-05-01T08:12:08Z</time></trkpt><trkpt lat="44.73641519824166" lon="0.9914912537836941"><ele>190.0</ele><time>2026-05-01T08:12:10Z</time></trkpt><trkpt lat="44.73641239624581" lon="0.9916066003779849"><ele>190.4</ele><time>2026-05-01T08:12:11Z</time></trkpt><trkpt lat="44.73640825755811" lon="0.9917167450733013"><ele>190.8</ele><time>2026-05-01T08:12:12Z</time></trkpt><trkpt lat="44.73642538998897" lon="0.9918024805658274"><ele>191.2</ele><time>2026-05-01T08:12:13Z</time></trkpt><trkpt lat="44.73651770731245" lon="0.9919444372249406"><ele>191.6</ele><time>2026-05-01T08:12:15Z</time></trkpt><trkpt lat="44.736562603236955" lon="0.9920508567084048"><ele>192.0</ele><time>2026-05-01T08:12:16Z</time></trkpt><trkpt lat="44.73654212228101" lon="0.992206094890622"><ele>192.0</ele><time>2026-05-01T08:12:18Z</time></trkpt><trkpt lat="44.736513608842365" lon="0.9923392093455669"><ele>192.0</ele><time>2026-05-01T08:12:19Z</time></trkpt><trkpt lat="44.736487361334305" lon="0.9925027017344296"><ele>192.0</ele><time>2026-05-01T08:12:20Z</time></trkpt><trkpt lat="44.73649644823596" lon="0.9926169451648212"><ele>192.0</ele><time>2026-05-01T08:12:21Z</time></trkpt><trkpt lat="44.73649243805627" lon="0.9927355487546204"><ele>192.0</ele><time>2026-05-01T08:12:22Z</time></trkpt><trkpt lat="44.73651632788163" lon="0.992872738331201"><ele>192.75</ele><time>2026-05-01T08:12:23Z</time></trkpt><trkpt lat="44.73653957070661" lon="0.9930370312797584"><ele>193.5</ele><time>2026-05-01T08:12:24Z</time></trkpt><trkpt lat="44.736542553996394" lon="0.9931668630147706"><ele>194.25</ele><time>2026-05-01T08:12:25Z</time></trkpt><trkpt lat="44.7365010769668" lon="0.9933481017979598"><ele>195.0</ele><time>2026-05-01T08:12:27Z</time></trkpt><trkpt lat="44.73645156235667" lon="0.9935044897410021"><ele>196.0</ele><time>2026-05-01T08:12:28Z</time></trkpt><trkpt lat="44.73641020040309" lon="0.9936421829000436"><ele>197.0</ele><time>2026-05-01T08:12:29Z</time></trkpt><trkpt lat="44.73637849334679" lon="0.9937566125041369"><ele>198.0</ele><time>2026-05-01T08:12:30Z</time></trkpt><trkpt lat="44.73632315411208" lon="0.9939012484766537"><ele>199.0</ele><time>2026-05-01T08:12:31Z</time></trkpt><trkpt lat="44.73628839997811" lon="0.9940440394149647"><ele>200.0</ele><time>2026-05-01T08:12:33Z</time></trkpt><trkpt lat="44.736328490522844" lon="0.9941329571933871"><ele>201.16666666666669</ele><time>2026-05-01T08:12:35Z</time></trkpt><trkpt lat="44.73639142170835" lon="0.9941820160725499"><ele>202.33333333333334</ele><time>2026-05-01T08:12:36Z</time></trkpt><trkpt lat="44.73645767196147" lon="0.9942606085326433"><ele>203.5</ele><time>2026-05-01T08:12:37Z</time></trkpt><trkpt lat="44.73650539052806" lon="0.9943779235756889"><ele>204.66666666666669</ele><time>2026-05-01T08:12:39Z</time></trkpt><trkpt lat="44.73652532006801" lon="0.994475771518213"><ele>205.83333333333334</ele><time>2026-05-01T08:12:41Z</time></trkpt><trkpt lat="44.736563666200716" lon="0.9946257074769503"><ele>207.0</ele><time>2026-05-01T08:12:46Z</time></trkpt><trkpt lat="44.73659620770428" lon="0.9947327645148314"><ele>207.00000000000003</ele><time>2026-05-01T08:12:47Z</time></trkpt><trkpt lat="44.736630965107345" lon="0.9948324387265729"><ele>207.0</ele><time>2026-05-01T08:12:48Z</time></trkpt><trkpt lat="44.736670651311" lon="0.9949270663669046"><ele>207.0</ele><time>2026-05-01T08:12:49Z</time></trkpt><trkpt lat="44.73670462922945" lon="0.9950084332274904"><ele>207.0</ele><time>2026-05-01T08:12:50Z</time></trkpt><trkpt lat="44.73673805758452" lon="0.9951142829776309"><ele>207.0</ele><time>2026-05-01T08:12:51Z</time></trkpt><trkpt lat="44.736763668571484" lon="0.9952112553099545"><ele>207.00000000000003</ele><time>2026-05-01T08:12:52Z</time></trkpt><trkpt lat="44.73679841226385" lon="0.9952890807466374"><ele>207.0</ele><time>2026-05-01T08:12:53Z</time></trkpt><trkpt lat="44.73685317796015" lon="0.9954508083640223"><ele>205.0</ele><time>2026-05-01T08:12:55Z</time></trkpt><trkpt lat="44.73689392669733" lon="0.9956332486247611"><ele>203.0</ele><time>2026-05-01T08:12:57Z</time></trkpt><trkpt lat="44.73692454708421" lon="0.9957143819111997"><ele>201.0</ele><time>2026-05-01T08:12:58Z</time></trkpt><trkpt lat="44.73694710395337" lon="0.9958361165578008"><ele>199.0</ele><time>2026-05-01T08:12:59Z</time></trkpt><trkpt lat="44.736969213778494" lon="0.9959585607730946"><ele>197.0</ele><time>2026-05-01T08:13:00Z</time></trkpt><trkpt lat="44.7369871492482" lon="0.9961163509975073"><ele>197.00000000000003</ele><time>2026-05-01T08:13:01Z</time></trkpt><trkpt lat="44.73700778667529" lon="0.996271499738009"><ele>197.0</ele><time>2026-05-01T08:13:02Z</time></trkpt><trkpt lat="44.73703553225651" lon="0.9964038085784747"><ele>197.0</ele><time>2026-05-01T08:13:03Z</time></trkpt><trkpt lat="44.737066941986114" lon="0.9964808626186523"><ele>197.0</ele><time>2026-05-01T08:13:04Z</time></trkpt><trkpt lat="44.73708502428928" lon="0.9965664421483221"><ele>197.00000000000003</ele><time>2026-05-01T08:13:05Z</time></trkpt><trkpt lat="44.73709886655784" lon="0.9966861141782065"><ele>197.0</ele><time>2026-05-01T08:13:07Z</time></trkpt><trkpt lat="44.73700776463855" lon="0.9967162134521383"><ele>197.0</ele><time>2026-05-01T08:13:10Z</time></trkpt><trkpt lat="44.73692549104319" lon="0.9967753789989142"><ele>197.0</ele><time>2026-05-01T08:13:13Z</time></trkpt><trkpt lat="44.736865593451846" lon="0.9968159917303935"><ele>197.0</ele><time>2026-05-01T08:13:14Z</time></trkpt><trkpt lat="44.73677071380443" lon="0.9968527228004515"><ele>197.0</ele><time>2026-05-01T08:13:16Z</time></trkpt><trkpt lat="44.73668479392186" lon="0.9969657003199712"><ele>197.0</ele><time>2026-05-01T08:13:20Z</time></trkpt><trkpt lat="44.73660918975013" lon="0.997066411745097"><ele>198.2</ele><time>2026-05-01T08:13:21Z</time></trkpt><trkpt lat="44.736538422961836" lon="0.9971647603219339"><ele>199.39999999999998</ele><time>2026-05-01T08:13:22Z</time></trkpt><trkpt lat="44.736449876089814" lon="0.9973083635953074"><ele>200.60000000000002</ele><time>2026-05-01T08:13:23Z</time></trkpt><trkpt lat="44.73637494329358" lon="0.9974169166987692"><ele>201.8</ele><time>2026-05-01T08:13:24Z</time></trkpt><trkpt lat="44.73631987598812" lon="0.997482753016025"><ele>203.0</ele><time>2026-05-01T08:13:25Z</time></trkpt><trkpt lat="44.73627060400476" lon="0.997567861405804"><ele>203.0</ele><time>2026-05-01T08:13:27Z</time></trkpt><trkpt lat="44.736333407726406" lon="0.9976048117313211"><ele>203.0</ele><time>2026-05-01T08:13:29Z</time></trkpt><trkpt lat="44.73642867055939" lon="0.9975334705106083"><ele>203.0</ele><time>2026-05-01T08:13:31Z</time></trkpt><trkpt lat="44.73650642676438" lon="0.997391498111651"><ele>203.0</ele><time>2026-05-01T08:13:33Z</time></trkpt><trkpt lat="44.73654624032159" lon="0.9972847720399213"><ele>203.0</ele><time>2026-05-01T08:13:34Z</time></trkpt><trkpt lat="44.73659090330173" lon="0.9971726496929567"><ele>203.33333333333334</ele><time>2026-05-01T08:13:35Z</time></trkpt><trkpt lat="44.73663754662977" lon="0.9971028402728946"><ele>203.66666666666669</ele><time>2026-05-01T08:13:36Z</time></trkpt><trkpt lat="44.73668768413822" lon="0.9970222492268509"><ele>204.0</ele><time>2026-05-01T08:13:37Z</time></trkpt><trkpt lat="44.73673636469887" lon="0.9969519934638376"><ele>204.33333333333331</ele><time>2026-05-01T08:13:38Z</time></trkpt><trkpt lat="44.73679734923244" lon="0.9968980533754054"><ele>204.66666666666666</ele><time>2026-05-01T08:13:39Z</time></trkpt><trkpt lat="44.7368923087146" lon="0.9969530526163255"><ele>205.0</ele><time>2026-05-01T08:13:41Z</time></trkpt><trkpt lat="44.73689901487145" lon="0.9970497265969351"><ele>205.0</ele><time>2026-05-01T08:13:42Z</time></trkpt><trkpt lat="44.73685948573343" lon="0.9971652816577046"><ele>205.0</ele><time>2026-05-01T08:13:44Z</time></trkpt><trkpt lat="44.73676162471362" lon="0.9972476383093598"><ele>205.0</ele><time>2026-05-01T08:13:46Z</time></trkpt><trkpt lat="44.736683695573674" lon="0.9973092166360579"><ele>205.0</ele><time>2026-05-01T08:13:48Z</time></trkpt><trkpt lat="44.73662879352148" lon="0.9973699399200464"><ele>205.0</ele><time>2026-05-01T08:13:50Z</time></trkpt><trkpt lat="44.7365436160904" lon="0.997473383679674"><ele>204.66666666666666</ele><time>2026-05-01T08:13:57Z</time></trkpt><trkpt lat="44.73650080894952" lon="0.9975455260692693"><ele>204.33333333333331</ele><time>2026-05-01T08:13:58Z</time></trkpt><trkpt lat="44.73648177901173" lon="0.9976841973241489"><ele>204.0</ele><time>2026-05-01T08:14:00Z</time></trkpt><trkpt lat="44.736513356707974" lon="0.9977950407331546"><ele>203.66666666666669</ele><time>2026-05-01T08:14:01Z</time></trkpt><trkpt lat="44.73654361746908" lon="0.9978858091287229"><ele>203.33333333333334</ele><time>2026-05-01T08:14:02Z</time></trkpt><trkpt lat="44.73653296190064" lon="0.998048002145104"><ele>203.0</ele><time>2026-05-01T08:14:04Z</time></trkpt><trkpt lat="44.7365196384467" lon="0.9981897030469674"><ele>203.0</ele><time>2026-05-01T08:14:06Z</time></trkpt><trkpt lat="44.73646140970794" lon="0.9983202465486388"><ele>203.0</ele><time>2026-05-01T08:14:08Z</time></trkpt><trkpt lat="44.736403529720064" lon="0.9983594180733177"><ele>203.0</ele><time>2026-05-01T08:14:09Z</time></trkpt><trkpt lat="44.73633351454488" lon="0.9984306800574227"><ele>203.0</ele><time>2026-05-01T08:14:11Z</time></trkpt><trkpt lat="44.73634701582465" lon="0.9986098363932346"><ele>203.0</ele><time>2026-05-01T08:14:13Z</time></trkpt><trkpt lat="44.73635776511893" lon="0.9987038508096422"><ele>201.50000000000003</ele><time>2026-05-01T08:14:14Z</time></trkpt><trkpt lat="44.736375511643836" lon="0.9988215869088979"><ele>200.0</ele><time>2026-05-01T08:14:16Z</time></trkpt><trkpt lat="44.736283938957826" lon="0.9988811218360409"><ele>198.5</ele><time>2026-05-01T08:14:18Z</time></trkpt><trkpt lat="44.7362045922838" lon="0.998909457442973"><ele>197.0</ele><time>2026-05-01T08:14:19Z</time></trkpt><trkpt lat="44.73614206764771" lon="0.9989299202192118"><ele>195.50000000000003</ele><time>2026-05-01T08:14:20Z</time></trkpt><trkpt lat="44.736060838235815" lon="0.9989742182647866"><ele>194.0</ele><time>2026-05-01T08:14:21Z</time></trkpt><trkpt lat="44.73598650985286" lon="0.999002054418183"><ele>193.50000000000003</ele><time>2026-05-01T08:14:22Z</time></trkpt><trkpt lat="44.73589197017774" lon="0.9990220487613165"><ele>193.0</ele><time>2026-05-01T08:14:23Z</time></trkpt><trkpt lat="44.73581419471239" lon="0.9990580368012735"><ele>192.5</ele><time>2026-05-01T08:14:24Z</time></trkpt><trkpt lat="44.735735190688565" lon="0.99908261116568"><ele>192.0</ele><time>2026-05-01T08:14:25Z</time></trkpt><trkpt lat="44.73567121610343" lon="0.9991111350277503"><ele>191.5</ele><time>2026-05-01T08:14:26Z</time></trkpt><trkpt lat="44.73560481037015" lon="0.9991313200891792"><ele>191.0</ele><time>2026-05-01T08:14:27Z</time></trkpt><trkpt lat="44.735525432540115" lon="0.9991194110782793"><ele>191.0</ele><time>2026-05-01T08:14:28Z</time></trkpt><trkpt lat="44.73545742321605" lon="0.9991073004983494"><ele>191.0</ele><time>2026-05-01T08:14:29Z</time></trkpt><trkpt lat="44.73539574074261" lon="0.9991389982948404"><ele>191.0</ele><time>2026-05-01T08:14:32Z</time></trkpt><trkpt lat="44.73544559102848" lon="0.9992272515612834"><ele>191.0</ele><time>2026-05-01T08:14:34Z</time></trkpt><trkpt lat="44.73556018878077" lon="0.9993177830520518"><ele>191.0</ele><time>2026-05-01T08:14:36Z</time></trkpt><trkpt lat="44.73565244961983" lon="0.9993490131299125"><ele>191.0</ele><time>2026-05-01T08:14:37Z</time></trkpt><trkpt lat="44.73572176210115" lon="0.9993515112867937"><ele>187.16666666666666</ele><time>2026-05-01T08:14:38Z</time></trkpt><trkpt lat="44.735791997271214" lon="0.999316372018657"><ele>183.33333333333331</ele><time>2026-05-01T08:14:40Z</time></trkpt><trkpt lat="44.73571940962173" lon="0.9994054670405649"><ele>179.5</ele><time>2026-05-01T08:14:43Z</time></trkpt><trkpt lat="44.73563820459727" lon="0.9994539190536132"><ele>175.66666666666666</ele><time>2026-05-01T08:14:45Z</time></trkpt><trkpt lat="44.7355706483698" lon="0.9994858615038089"><ele>171.83333333333334</ele><time>2026-05-01T08:14:47Z</time></trkpt><trkpt lat="44.73550830326454" lon="0.999527943367995"><ele>168.0</ele><time>2026-05-01T08:14:54Z</time></trkpt><trkpt lat="44.73550005126992" lon="0.9996175475636423"><ele>168.0</ele><time>2026-05-01T08:14:57Z</time></trkpt><trkpt lat="44.735616438126655" lon="0.9996595710307675"><ele>168.0</ele><time>2026-05-01T08:14:59Z</time></trkpt><trkpt lat="44.73569964329921" lon="0.9996804680956719"><ele>168.0</ele><time>2026-05-01T08:15:00Z</time></trkpt><trkpt lat="44.735763624784994" lon="0.999713474173812"><ele>168.0</ele><time>2026-05-01T08:15:01Z</time></trkpt><trkpt lat="44.73590510515246" lon="0.9997891772897497"><ele>168.0</ele><time>2026-05-01T08:15:03Z</time></trkpt><trkpt lat="44.73599706845807" lon="0.9998193268669239"><ele>168.0</ele><time>2026-05-01T08:15:04Z</time></trkpt><trkpt lat="44.73608945160294" lon="0.999784534108828"><ele>168.0</ele><time>2026-05-01T08:15:05Z</time></trkpt><trkpt lat="44.73616569718805" lon="0.9998686565147386"><ele>168.0</ele><time>2026-05-01T08:15:07Z</time></trkpt><trkpt lat="44.736172937822374" lon="0.9999572620268041"><ele>168.0</ele><time>2026-05-01T08:15:12Z</time></trkpt><trkpt lat="44.73607096323125" lon="0.9999840724838417"><ele>168.0</ele><time>2026-05-01T08:15:14Z</time></trkpt><trkpt lat="44.735975733187075" lon="1.0000043831785796"><ele>168.0</ele><time>2026-05-01T08:15:16Z</time></trkpt><trkpt lat="44.735864458851694" lon="1.0000665335807422"><ele>168.0</ele><time>2026-05-01T08:15:18Z</time></trkpt><trkpt lat="44.73579809006639" lon="1.0001633234948837"><ele>168.0</ele><time>2026-05-01T08:15:20Z</time></trkpt><trkpt lat="44.73573901453917" lon="1.0002569353483444"><ele>168.0</ele><time>2026-05-01T08:15:22Z</time></trkpt><trkpt lat="44.735662256141794" lon="1.0003408911415115"><ele>168.0</ele><time>2026-05-01T08:15:24Z</time></trkpt><trkpt lat="44.735617282925176" lon="1.0004325973301318"><ele>168.0</ele><time>2026-05-01T08:15:26Z</time></trkpt><trkpt lat="44.735495898660574" lon="1.0004859406524729"><ele>168.0</ele><time>2026-05-01T08:15:28Z</time></trkpt><trkpt lat="44.73542452868294" lon="1.0004756667426953"><ele>168.0</ele><time>2026-05-01T08:15:29Z</time></trkpt><trkpt lat="44.73534949712707" lon="1.0005311728564914"><ele>168.0</ele><time>2026-05-01T08:15:31Z</time></trkpt><trkpt lat="44.73527681630787" lon="1.0005487243554074"><ele>168.0</ele><time>2026-05-01T08:15:33Z</time></trkpt><trkpt lat="44.735218473060506" lon="1.0006431232725934"><ele>168.0</ele><time>2026-05-01T08:15:35Z</time></trkpt><trkpt lat="44.735204905970726" lon="1.0007417438666646"><ele>168.0</ele><time>2026-05-01T08:15:37Z</time></trkpt><trkpt lat="44.73529086719788" lon="1.0007520859361956"><ele>168.0</ele><time>2026-05-01T08:15:41Z</time></trkpt><trkpt lat="44.735440515508444" lon="1.0007223825081173"><ele>168.0</ele><time>2026-05-01T08:15:43Z</time></trkpt><trkpt lat="44.73552900878793" lon="1.0006867934566068"><ele>168.0</ele><time>2026-05-01T08:15:44Z</time></trkpt><trkpt lat="44.735602393164655" lon="1.0006492198421328"><ele>168.0</ele><time>2026-05-01T08:15:45Z</time></trkpt><trkpt lat="44.73567726803605" lon="1.0006532290189303"><ele>168.0</ele><time>2026-05-01T08:15:46Z</time></trkpt><trkpt lat="44.73581712899184" lon="1.0007242131282144"><ele>168.0</ele><time>2026-05-01T08:15:48Z</time></trkpt><trkpt lat="44.735893989315684" lon="1.0007520220724861"><ele>168.0</ele><time>2026-05-01T08:15:49Z</time></trkpt><trkpt lat="44.73602645098096" lon="1.0007736066810482"><ele>168.0</ele><time>2026-05-01T08:15:51Z</time></trkpt><trkpt lat="44.73609811490388" lon="1.0007967075575943"><ele>168.0</ele><time>2026-05-01T08:15:52Z</time></trkpt><trkpt lat="44.7361965172507" lon="1.0008363468352839"><ele>165.16666666666666</ele><time>2026-05-01T08:15:54Z</time></trkpt><trkpt lat="44.73626512682043" lon="1.00085708113237"><ele>162.33333333333334</ele><time>2026-05-01T08:16:03Z</time></trkpt><trkpt lat="44.736345388331344" lon="1.0008712004219142"><ele>159.5</ele><time>2026-05-01T08:16:05Z</time></trkpt><trkpt lat="44.73646468506482" lon="1.000871993840945"><ele>156.66666666666669</ele><time>2026-05-01T08:16:07Z</time></trkpt><trkpt lat="44.73654167001695" lon="1.000873402997754"><ele>153.83333333333334</ele><time>2026-05-01T08:16:08Z</time></trkpt><trkpt lat="44.736610144821285" lon="1.000888939950676"><ele>151.0</ele><time>2026-05-01T08:16:09Z</time></trkpt><trkpt lat="44.73671915985189" lon="1.0009448803911325"><ele>151.0</ele><time>2026-05-01T08:16:11Z</time></trkpt><trkpt lat="44.73678200605375" lon="1.000970683701753"><ele>151.0</ele><time>2026-05-01T08:16:13Z</time></trkpt><trkpt lat="44.73684641124799" lon="1.0009736769690514"><ele>151.0</ele><time>2026-05-01T08:16:21Z</time></trkpt><trkpt lat="44.73691730169594" lon="1.0010754340342898"><ele>151.0</ele><time>2026-05-01T08:16:31Z</time></trkpt><trkpt lat="44.73701214930936" lon="1.001179437418878"><ele>151.0</ele><time>2026-05-01T08:16:33Z</time></trkpt><trkpt lat="44.73711241450334" lon="1.0012729431297314"><ele>151.4</ele><time>2026-05-01T08:16:35Z</time></trkpt><trkpt lat="44.73718814385348" lon="1.0013720552348815"><ele>151.8</ele><time>2026-05-01T08:16:37Z</time></trkpt><trkpt lat="44.73724453744751" lon="1.0014658383220365"><ele>152.20000000000002</ele><time>2026-05-01T08:16:38Z</time></trkpt><trkpt lat="44.73729473990665" lon="1.0015714381641523"><ele>152.6</ele><time>2026-05-01T08:16:39Z</time></trkpt><trkpt lat="44.73737428338417" lon="1.0016736001298776"><ele>153.0</ele><time>2026-05-01T08:16:41Z</time></trkpt><trkpt lat="44.737412965112775" lon="1.0017484829313679"><ele>153.0</ele><time>2026-05-01T08:16:42Z</time></trkpt><trkpt lat="44.73749633131233" lon="1.0018780173706066"><ele>153.0</ele><time>2026-05-01T08:16:44Z</time></trkpt><trkpt lat="44.73755049482343" lon="1.0019395796826298"><ele>153.0</ele><time>2026-05-01T08:16:45Z</time></trkpt><trkpt lat="44.73761532228014" lon="1.0020316903238238"><ele>153.0</ele><time>2026-05-01T08:16:46Z</time></trkpt><trkpt lat="44.73766044568558" lon="1.0021303984250205"><ele>153.0</ele><time>2026-05-01T08:16:47Z</time></trkpt><trkpt lat="44.73769193112039" lon="1.002230836826533"><ele>153.0</ele><time>2026-05-01T08:16:48Z</time></trkpt><trkpt lat="44.73766465226493" lon="1.0024168579783332"><ele>152.0</ele><time>2026-05-01T08:16:50Z</time></trkpt><trkpt lat="44.73763180497457" lon="1.002540884208404"><ele>151.0</ele><time>2026-05-01T08:16:51Z</time></trkpt><trkpt lat="44.73760969946005" lon="1.002642309652012"><ele>150.0</ele><time>2026-05-01T08:16:52Z</time></trkpt><trkpt lat="44.73760543249463" lon="1.0027775582406304"><ele>149.0</ele><time>2026-05-01T08:16:53Z</time></trkpt><trkpt lat="44.73760533125322" lon="1.0028690641762479"><ele>148.0</ele><time>2026-05-01T08:16:54Z</time></trkpt><trkpt lat="44.737634503582015" lon="1.0029686985477435"><ele>147.0</ele><time>2026-05-01T08:16:55Z</time></trkpt><trkpt lat="44.73768117285119" lon="1.0031269988534153"><ele>151.39999999999998</ele><time>2026-05-01T08:16:56Z</time></trkpt><trkpt lat="44.73773276952865" lon="1.003237253056413"><ele>155.79999999999998</ele><time>2026-05-01T08:16:57Z</time></trkpt><trkpt lat="44.73779380877468" lon="1.0033804731674314"><ele>160.2</ele><time>2026-05-01T08:16:58Z</time></trkpt><trkpt lat="44.73784916890459" lon="1.0034770771211112"><ele>164.6</ele><time>2026-05-01T08:16:59Z</time></trkpt><trkpt lat="44.737901017444706" lon="1.0035768207855804"><ele>169.0</ele><time>2026-05-01T08:17:00Z</time></trkpt><trkpt lat="44.737941485280786" lon="1.0036459133688092"><ele>169.0</ele><time>2026-05-01T08:17:01Z</time></trkpt><trkpt lat="44.73799503364208" lon="1.0037889810419818"><ele>169.0</ele><time>2026-05-01T08:17:03Z</time></trkpt><trkpt lat="44.73801697284123" lon="1.00390142028343"><ele>169.0</ele><time>2026-05-01T08:17:04Z</time></trkpt><trkpt lat="44.73804481760516" lon="1.0040058488860284"><ele>169.0</ele><time>2026-05-01T08:17:05Z</time></trkpt><trkpt lat="44.73808855070104" lon="1.0041030104956155"><ele>169.0</ele><time>2026-05-01T08:17:06Z</time></trkpt><trkpt lat="44.73811395069252" lon="1.0041972450035235"><ele>169.0</ele><time>2026-05-01T08:17:07Z</time></trkpt><trkpt lat="44.73821938949877" lon="1.0043202164046303"><ele>166.0</ele><time>2026-05-01T08:17:09Z</time></trkpt><trkpt lat="44.73826747712613" lon="1.0044582109533533"><ele>163.0</ele><time>2026-05-01T08:17:11Z</time></trkpt><trkpt lat="44.73831684636942" lon="1.0045582406317637"><ele>160.0</ele><time>2026-05-01T08:17:12Z</time></trkpt><trkpt lat="44.738352212930245" lon="1.0047147824098528"><ele>157.0</ele><time>2026-05-01T08:17:14Z</time></trkpt><trkpt lat="44.73839298714259" lon="1.004870793868246"><ele>154.0</ele><time>2026-05-01T08:17:16Z</time></trkpt><trkpt lat="44.7384394313724" lon="1.0050144998750425"><ele>151.8</ele><time>2026-05-01T08:17:18Z</time></trkpt><trkpt lat="44.73843766044824" lon="1.0051117228861155"><ele>149.60000000000002</ele><time>2026-05-01T08:17:19Z</time></trkpt><trkpt lat="44.738459515038144" lon="1.0052675064373844"><ele>147.4</ele><time>2026-05-01T08:17:21Z</time></trkpt><trkpt lat="44.738434152031274" lon="1.005410490926642"><ele>145.20000000000002</ele><time>2026-05-01T08:17:23Z</time></trkpt><trkpt lat="44.738323001102486" lon="1.0055230550003893"><ele>143.0</ele><time>2026-05-01T08:17:25Z</time></trkpt><trkpt lat="44.73823035636737" lon="1.005607479949721"><ele>143.0</ele><time>2026-05-01T08:17:27Z</time></trkpt><trkpt lat="44.73814409145527" lon="1.0055863539067267"><ele>143.0</ele><time>2026-05-01T08:17:29Z</time></trkpt><trkpt lat="44.73805544326134" lon="1.005480075397013"><ele>143.0</ele><time>2026-05-01T08:17:31Z</time></trkpt><trkpt lat="44.738000810138864" lon="1.0054048525187382"><ele>143.0</ele><time>2026-05-01T08:17:32Z</time></trkpt><trkpt lat="44.73795323318386" lon="1.005341447186018"><ele>143.0</ele><time>2026-05-01T08:17:33Z</time></trkpt><trkpt lat="44.73792750274793" lon="1.0052211426724627"><ele>143.0</ele><time>2026-05-01T08:17:34Z</time></trkpt><trkpt lat="44.73784034588594" lon="1.005165265023256"><ele>143.0</ele><time>2026-05-01T08:17:36Z</time></trkpt><trkpt lat="44.73778771093707" lon="1.0050959776688602"><ele>143.0</ele><time>2026-05-01T08:17:39Z</time></trkpt><trkpt lat="44.73775902035651" lon="1.005008974081755"><ele>143.0</ele><time>2026-05-01T08:17:43Z</time></trkpt><trkpt lat="44.73768647351878" lon="1.004900518536075"><ele>143.0</ele><time>2026-05-01T08:17:45Z</time></trkpt><trkpt lat="44.73762110772578" lon="1.0048318034793113"><ele>143.0</ele><time>2026-05-01T08:17:46Z</time></trkpt><trkpt lat="44.737542230684824" lon="1.0047705940627216"><ele>143.0</ele><time>2026-05-01T08:17:47Z</time></trkpt><trkpt lat="44.737454094033374" lon="1.0046685681678298"><ele>143.0</ele><time>2026-05-01T08:17:48Z</time></trkpt><trkpt lat="44.73742453379373" lon="1.0045836250786837"><ele>143.0</ele><time>2026-05-01T08:17:49Z</time></trkpt><trkpt lat="44.73738253502842" lon="1.0044240370389736"><ele>143.0</ele><time>2026-05-01T08:17:51Z</time></trkpt><trkpt lat="44.7373748694156" lon="1.0043088092459755"><ele>143.0</ele><time>2026-05-01T08:17:53Z</time></trkpt><trkpt lat="44.73732197554205" lon="1.0042006415446036"><ele>143.0</ele><time>2026-05-01T08:17:58Z</time></trkpt><trkpt lat="44.73725173517651" lon="1.0040175463856633"><ele>143.0</ele><time>2026-05-01T08:18:00Z</time></trkpt><trkpt lat="44.73720939734623" lon="1.0039023215093086"><ele>143.0</ele><time>2026-05-01T08:18:01Z</time></trkpt><trkpt lat="44.737173152467406" lon="1.0037693108467907"><ele>143.0</ele><time>2026-05-01T08:18:02Z</time></trkpt><trkpt lat="44.73713916059276" lon="1.0036365400496274"><ele>143.0</ele><time>2026-05-01T08:18:03Z</time></trkpt><trkpt lat="44.73709881623325" lon="1.003529566397509"><ele>143.0</ele><time>2026-05-01T08:18:04Z</time></trkpt><trkpt lat="44.73706838604318" lon="1.0034179745992804"><ele>143.8</ele><time>2026-05-01T08:18:05Z</time></trkpt><trkpt lat="44.73707797358631" lon="1.003268825621803"><ele>144.60000000000002</ele><time>2026-05-01T08:18:06Z</time></trkpt><trkpt lat="44.73709591486005" lon="1.003118530156806"><ele>145.39999999999998</ele><time>2026-05-01T08:18:07Z</time></trkpt><trkpt lat="44.73710802623196" lon="1.0029681740410115"><ele>146.2</ele><time>2026-05-01T08:18:08Z</time></trkpt><trkpt lat="44.73707714948516" lon="1.002815562141491"><ele>147.0</ele><time>2026-05-01T08:18:09Z</time></trkpt><trkpt lat="44.73707145354935" lon="1.0026900928290354"><ele>147.0</ele><time>2026-05-01T08:18:10Z</time></trkpt><trkpt lat="44.73707956645496" lon="1.0025612655315252"><ele>147.0</ele><time>2026-05-01T08:18:11Z</time></trkpt><trkpt lat="44.73707509675546" lon="1.0024485038612814"><ele>147.0</ele><time>2026-05-01T08:18:12Z</time></trkpt><trkpt lat="44.737094133984435" lon="1.0023481043373321"><ele>147.0</ele><time>2026-05-01T08:18:14Z</time></trkpt><trkpt lat="44.73710050323804" lon="1.0022256438159876"><ele>147.0</ele><time>2026-05-01T08:18:16Z</time></trkpt><trkpt lat="44.73701121286016" lon="1.0021100469689417"><ele>146.33333333333334</ele><time>2026-05-01T08:18:18Z</time></trkpt><trkpt lat="44.73696918990826" lon="1.0020120699389867"><ele>145.66666666666666</ele><time>2026-05-01T08:18:19Z</time></trkpt><trkpt lat="44.73690584014248" lon="1.0019469421048566"><ele>145.0</ele><time>2026-05-01T08:18:22Z</time></trkpt><trkpt lat="44.73682244598171" lon="1.0019128877357941"><ele>144.33333333333331</ele><time>2026-05-01T08:18:24Z</time></trkpt><trkpt lat="44.736757648134244" lon="1.0019221872426207"><ele>143.66666666666666</ele><time>2026-05-01T08:18:26Z</time></trkpt><trkpt lat="44.73667683567257" lon="1.0019277763023648"><ele>143.0</ele><time>2026-05-01T08:18:28Z</time></trkpt><trkpt lat="44.73659218113038" lon="1.0019215021594192"><ele>143.0</ele><time>2026-05-01T08:18:30Z</time></trkpt><trkpt lat="44.73651801576421" lon="1.0018366342630938"><ele>143.0</ele><time>2026-05-01T08:18:32Z</time></trkpt><trkpt lat="44.7364384758448" lon="1.001798049219969"><ele>143.0</ele><time>2026-05-01T08:18:33Z</time></trkpt><trkpt lat="44.73633140836618" lon="1.0017587877514986"><ele>143.0</ele><time>2026-05-01T08:18:34Z</time></trkpt><trkpt lat="44.73624906748682" lon="1.0017222635125684"><ele>143.0</ele><time>2026-05-01T08:18:35Z</time></trkpt><trkpt lat="44.73618134419498" lon="1.0017030994559677"><ele>143.0</ele><time>2026-05-01T08:18:37Z</time></trkpt><trkpt lat="44.736150711475595" lon="1.0015891812854534"><ele>143.66666666666666</ele><time>2026-05-01T08:18:53Z</time></trkpt><trkpt lat="44.73610096841763" lon="1.0014875282311715"><ele>144.33333333333331</ele><time>2026-05-01T08:18:55Z</time></trkpt><trkpt lat="44.736072740533245" lon="1.0013864356729176"><ele>145.0</ele><time>2026-05-01T08:18:56Z</time></trkpt><trkpt lat="44.73597342952466" lon="1.0012705050842212"><ele>145.66666666666666</ele><time>2026-05-01T08:18:58Z</time></trkpt><trkpt lat="44.73590722511028" lon="1.0012992263724996"><ele>146.33333333333334</ele><time>2026-05-01T08:18:59Z</time></trkpt><trkpt lat="44.73583942905053" lon="1.0013258491612689"><ele>147.0</ele><time>2026-05-01T08:19:00Z</time></trkpt><trkpt lat="44.73573525967527" lon="1.0013549038805487"><ele>147.0</ele><time>2026-05-01T08:19:01Z</time></trkpt><trkpt lat="44.735628376045206" lon="1.0013106095293847"><ele>147.0</ele><time>2026-05-01T08:19:02Z</time></trkpt><trkpt lat="44.735547504091016" lon="1.0013204691273438"><ele>147.0</ele><time>2026-05-01T08:19:03Z</time></trkpt><trkpt lat="44.735455962500865" lon="1.0013274583201652"><ele>147.0</ele><time>2026-05-01T08:19:05Z</time></trkpt><trkpt lat="44.735441660929624" lon="1.0014207215360083"><ele>147.0</ele><time>2026-05-01T08:19:07Z</time></trkpt><trkpt lat="44.735376580823235" lon="1.0015300786687347"><ele>147.0</ele><time>2026-05-01T08:19:09Z</time></trkpt><trkpt lat="44.73528998294491" lon="1.0014883187102912"><ele>147.0</ele><time>2026-05-01T08:19:11Z</time></trkpt><trkpt lat="44.735168567043566" lon="1.001476971899807"><ele>147.0</ele><time>2026-05-01T08:19:12Z</time></trkpt><trkpt lat="44.73505714989518" lon="1.001454385288101"><ele>147.0</ele><time>2026-05-01T08:19:13Z</time></trkpt><trkpt lat="44.734944122691836" lon="1.0014503950802223"><ele>147.0</ele><time>2026-05-01T08:19:14Z</time></trkpt><trkpt lat="44.73480537271824" lon="1.0014546418667893"><ele>148.25</ele><time>2026-05-01T08:19:15Z</time></trkpt><trkpt lat="44.73466691379228" lon="1.001459353227682"><ele>149.5</ele><time>2026-05-01T08:19:16Z</time></trkpt><trkpt lat="44.7345425824357" lon="1.0014551556342093"><ele>150.75</ele><time>2026-05-01T08:19:17Z</time></trkpt><trkpt lat="44.73443987010829" lon="1.0014572699608422"><ele>152.0</ele><time>2026-05-01T08:19:18Z</time></trkpt><trkpt lat="44.73434572930212" lon="1.001457174471405"><ele>152.5</ele><time>2026-05-01T08:19:19Z</time></trkpt><trkpt lat="44.734262753243996" lon="1.0014540174078868"><ele>153.0</ele><time>2026-05-01T08:19:20Z</time></trkpt><trkpt lat="44.73418864560132" lon="1.0014411968422283"><ele>153.5</ele><time>2026-05-01T08:19:21Z</time></trkpt><trkpt lat="44.73410120746237" lon="1.001423274103578"><ele>154.0</ele><time>2026-05-01T08:19:23Z</time></trkpt><trkpt lat="44.73403556282961" lon="1.0014040222327185"><ele>154.5</ele><time>2026-05-01T08:19:25Z</time></trkpt><trkpt lat="44.733954104663894" lon="1.0013910596784594"><ele>155.0</ele><time>2026-05-01T08:19:27Z</time></trkpt><trkpt lat="44.73389134918957" lon="1.0013994297014777"><ele>155.0</ele><time>2026-05-01T08:19:30Z</time></trkpt><trkpt lat="44.733784655339235" lon="1.0014110153521791"><ele>155.0</ele><time>2026-05-01T08:19:32Z</time></trkpt><trkpt lat="44.73369856048039" lon="1.0013924245180033"><ele>155.0</ele><time>2026-05-01T08:19:33Z</time></trkpt><trkpt lat="44.733592053422505" lon="1.0013663120127343"><ele>155.0</ele><time>2026-05-01T08:19:34Z</time></trkpt><trkpt lat="44.7334601110488" lon="1.0013183913155055"><ele>155.0</ele><time>2026-05-01T08:19:35Z</time></trkpt><trkpt lat="44.73334869262831" lon="1.001287441276961"><ele>154.75</ele><time>2026-05-01T08:19:36Z</time></trkpt><trkpt lat="44.733240846885494" lon="1.001185193056636"><ele>154.5</ele><time>2026-05-01T08:19:37Z</time></trkpt><trkpt lat="44.73313067331653" lon="1.001099011077272"><ele>154.25</ele><time>2026-05-01T08:19:38Z</time></trkpt><trkpt lat="44.73302652086607" lon="1.00101700586612"><ele>154.0</ele><time>2026-05-01T08:19:39Z</time></trkpt><trkpt lat="44.732937142881" lon="1.0009321472331794"><ele>154.0</ele><time>2026-05-01T08:19:40Z</time></trkpt><trkpt lat="44.7328683249278" lon="1.0008661884655208"><ele>154.0</ele><time>2026-05-01T08:19:41Z</time></trkpt><trkpt lat="44.73277207773804" lon="1.0007738996939164"><ele>154.0</ele><time>2026-05-01T08:19:42Z</time></trkpt><trkpt lat="44.732662798273985" lon="1.0006592503149179"><ele>154.0</ele><time>2026-05-01T08:19:43Z</time></trkpt><trkpt lat="44.73258238293621" lon="1.000523305995189"><ele>153.8</ele><time>2026-05-01T08:19:44Z</time></trkpt><trkpt lat="44.7325055244653" lon="1.0004641416288182"><ele>153.60000000000002</ele><time>2026-05-01T08:19:45Z</time></trkpt><trkpt lat="44.73240730994589" lon="1.000350907696879"><ele>153.4</ele><time>2026-05-01T08:19:46Z</time></trkpt><trkpt lat="44.73232237561479" lon="1.0003039872342696"><ele>153.20000000000002</ele><time>2026-05-01T08:19:47Z</time></trkpt><trkpt lat="44.732218852129236" lon="1.0002435669776255"><ele>153.0</ele><time>2026-05-01T08:19:48Z</time></trkpt><trkpt lat="44.732113627281095" lon="1.0002202391857231"><ele>153.0</ele><time>2026-05-01T08:19:49Z</time></trkpt><trkpt lat="44.732057086834985" lon="1.0001787844087722"><ele>153.0</ele><time>2026-05-01T08:19:50Z</time></trkpt><trkpt lat="44.73199410173244" lon="1.000101484787749"><ele>153.0</ele><time>2026-05-01T08:19:51Z</time></trkpt><trkpt lat="44.73192887335105" lon="1.0000178572139238"><ele>153.0</ele><time>2026-05-01T08:19:52Z</time></trkpt><trkpt lat="44.731849556147864" lon="0.9999372772072064"><ele>153.0</ele><time>2026-05-01T08:19:53Z</time></trkpt><trkpt lat="44.73177106601046" lon="0.9998516243349073"><ele>153.0</ele><time>2026-05-01T08:19:54Z</time></trkpt><trkpt lat="44.73170318087583" lon="0.999780282801622"><ele>154.5</ele><time>2026-05-01T08:19:55Z</time></trkpt><trkpt lat="44.73164297437995" lon="0.9997528959376222"><ele>156.0</ele><time>2026-05-01T08:19:56Z</time></trkpt><trkpt lat="44.73157970199018" lon="0.9997011618381875"><ele>157.5</ele><time>2026-05-01T08:19:57Z</time></trkpt><trkpt lat="44.731517856385906" lon="0.9996264940844489"><ele>159.0</ele><time>2026-05-01T08:19:58Z</time></trkpt><trkpt lat="44.7314440261651" lon="0.9995081401489061"><ele>160.5</ele><time>2026-05-01T08:19:59Z</time></trkpt><trkpt lat="44.73137737884284" lon="0.999392557109071"><ele>162.0</ele><time>2026-05-01T08:20:00Z</time></trkpt><trkpt lat="44.73129888452477" lon="0.9992658384075473"><ele>160.83333333333334</ele><time>2026-05-01T08:20:01Z</time></trkpt><trkpt lat="44.731228878047716" lon="0.9991628437234293"><ele>159.66666666666666</ele><time>2026-05-01T08:20:02Z</time></trkpt><trkpt lat="44.73117291048021" lon="0.9990714922101138"><ele>158.5</ele><time>2026-05-01T08:20:03Z</time></trkpt><trkpt lat="44.73112834151951" lon="0.99897671868932"><ele>157.33333333333331</ele><time>2026-05-01T08:20:04Z</time></trkpt><trkpt lat="44.731076426178895" lon="0.998887596640222"><ele>156.16666666666666</ele><time>2026-05-01T08:20:05Z</time></trkpt><trkpt lat="44.73104584546379" lon="0.9988087341655469"><ele>155.0</ele><time>2026-05-01T08:20:06Z</time></trkpt><trkpt lat="44.731014209902746" lon="0.9987139700089994"><ele>156.8</ele><time>2026-05-01T08:20:08Z</time></trkpt><trkpt lat="44.730948775237316" lon="0.9986204281143194"><ele>158.6</ele><time>2026-05-01T08:20:10Z</time></trkpt><trkpt lat="44.73089300316337" lon="0.9984998434176028"><ele>160.39999999999998</ele><time>2026-05-01T08:20:11Z</time></trkpt><trkpt lat="44.73083933793903" lon="0.9983767632372559"><ele>162.2</ele><time>2026-05-01T08:20:13Z</time></trkpt><trkpt lat="44.73077022321786" lon="0.9982762866129581"><ele>164.0</ele><time>2026-05-01T08:20:15Z</time></trkpt><trkpt lat="44.73072922114629" lon="0.9981308263229127"><ele>164.0</ele><time>2026-05-01T08:20:17Z</time></trkpt><trkpt lat="44.730709793212796" lon="0.9980419206833087"><ele>164.0</ele><time>2026-05-01T08:20:18Z</time></trkpt><trkpt lat="44.73067848626916" lon="0.9979604913593825"><ele>164.0</ele><time>2026-05-01T08:20:20Z</time></trkpt><trkpt lat="44.730609426857036" lon="0.9978435514372531"><ele>164.0</ele><time>2026-05-01T08:20:24Z</time></trkpt><trkpt lat="44.73054578323638" lon="0.9977126920397873"><ele>164.0</ele><time>2026-05-01T08:20:26Z</time></trkpt><trkpt lat="44.7305103102798" lon="0.99763273964655"><ele>164.0</ele><time>2026-05-01T08:20:27Z</time></trkpt><trkpt lat="44.73047479792207" lon="0.9975441046835666"><ele>163.39999999999998</ele><time>2026-05-01T08:20:28Z</time></trkpt><trkpt lat="44.73046827612788" lon="0.9974421898639266"><ele>162.8</ele><time>2026-05-01T08:20:29Z</time></trkpt><trkpt lat="44.730457468251394" lon="0.9973265707230499"><ele>162.2</ele><time>2026-05-01T08:20:30Z</time></trkpt><trkpt lat="44.73044755956198" lon="0.99715471126972"><ele>161.60000000000002</ele><time>2026-05-01T08:20:31Z</time></trkpt><trkpt lat="44.730442923771484" lon="0.9969649321284951"><ele>161.0</ele><time>2026-05-01T08:20:32Z</time></trkpt><trkpt lat="44.730444259565004" lon="0.9967577924629979"><ele>162.66666666666666</ele><time>2026-05-01T08:20:33Z</time></trkpt><trkpt lat="44.73045413638304" lon="0.9965835072521219"><ele>164.33333333333334</ele><time>2026-05-01T08:20:34Z</time></trkpt><trkpt lat="44.73046480398434" lon="0.9963550325510302"><ele>166.0</ele><time>2026-05-01T08:20:35Z</time></trkpt><trkpt lat="44.73047419845682" lon="0.996086394820993"><ele>166.0</ele><time>2026-05-01T08:20:36Z</time></trkpt><trkpt lat="44.73050027170894" lon="0.9959633092499927"><ele>166.0</ele><time>2026-05-01T08:20:37Z</time></trkpt><trkpt lat="44.730516059788854" lon="0.9958084449139708"><ele>166.0</ele><time>2026-05-01T08:20:38Z</time></trkpt><trkpt lat="44.73050597741985" lon="0.9956437246511141"><ele>166.0</ele><time>2026-05-01T08:20:39Z</time></trkpt><trkpt lat="44.730505550741796" lon="0.9954780712589381"><ele>166.0</ele><time>2026-05-01T08:20:40Z</time></trkpt><trkpt lat="44.73048843959293" lon="0.9953184483510721"><ele>166.20000000000002</ele><time>2026-05-01T08:20:41Z</time></trkpt><trkpt lat="44.73044509442856" lon="0.9951581374657688"><ele>166.4</ele><time>2026-05-01T08:20:42Z</time></trkpt><trkpt lat="44.730394845925666" lon="0.99501383421577"><ele>166.6</ele><time>2026-05-01T08:20:43Z</time></trkpt><trkpt lat="44.73033994648726" lon="0.9948837244797863"><ele>166.8</ele><time>2026-05-01T08:20:44Z</time></trkpt><trkpt lat="44.73028532806387" lon="0.9947697054956857"><ele>167.0</ele><time>2026-05-01T08:20:45Z</time></trkpt><trkpt lat="44.73025447478998" lon="0.9946678974030607"><ele>165.5</ele><time>2026-05-01T08:20:46Z</time></trkpt><trkpt lat="44.730174684121295" lon="0.9945454758364864"><ele>164.0</ele><time>2026-05-01T08:20:48Z</time></trkpt><trkpt lat="44.730065034527385" lon="0.994474335004648"><ele>162.5</ele><time>2026-05-01T08:20:50Z</time></trkpt><trkpt lat="44.72997882343164" lon="0.9943998190509895"><ele>161.0</ele><time>2026-05-01T08:20:51Z</time></trkpt><trkpt lat="44.72988182812658" lon="0.9942877142798149"><ele>161.0</ele><time>2026-05-01T08:20:52Z</time></trkpt><trkpt lat="44.72977734282068" lon="0.9941767359813"><ele>161.0</ele><time>2026-05-01T08:20:53Z</time></trkpt><trkpt lat="44.72968949389584" lon="0.9940345786887343"><ele>161.0</ele><time>2026-05-01T08:20:54Z</time></trkpt><trkpt lat="44.72959428018529" lon="0.9939122452127884"><ele>161.0</ele><time>2026-05-01T08:20:55Z</time></trkpt><trkpt lat="44.729532866746354" lon="0.9937584904011679"><ele>161.0</ele><time>2026-05-01T08:20:56Z</time></trkpt><trkpt lat="44.72946599793329" lon="0.9935924192792399"><ele>161.0</ele><time>2026-05-01T08:20:57Z</time></trkpt><trkpt lat="44.72941161876153" lon="0.9934478189816804"><ele>161.0</ele><time>2026-05-01T08:20:58Z</time></trkpt><trkpt lat="44.729365241387676" lon="0.993350425345286"><ele>161.0</ele><time>2026-05-01T08:20:59Z</time></trkpt><trkpt lat="44.7292883581428" lon="0.9932672028954739"><ele>161.0</ele><time>2026-05-01T08:21:00Z</time></trkpt><trkpt lat="44.72919925459182" lon="0.9932113668674512"><ele>160.8</ele><time>2026-05-01T08:21:01Z</time></trkpt><trkpt lat="44.72910433152803" lon="0.9931762283808124"><ele>160.60000000000002</ele><time>2026-05-01T08:21:02Z</time></trkpt><trkpt lat="44.72900793849398" lon="0.9931224470748117"><ele>160.4</ele><time>2026-05-01T08:21:03Z</time></trkpt><trkpt lat="44.728917876985726" lon="0.9930681020573121"><ele>160.2</ele><time>2026-05-01T08:21:04Z</time></trkpt><trkpt lat="44.7288392028167" lon="0.9930168859122699"><ele>160.0</ele><time>2026-05-01T08:21:05Z</time></trkpt><trkpt lat="44.7287821583864" lon="0.9929517465637635"><ele>160.0</ele><time>2026-05-01T08:21:06Z</time></trkpt><trkpt lat="44.72876234779744" lon="0.9927821821909858"><ele>160.0</ele><time>2026-05-01T08:21:08Z</time></trkpt><trkpt lat="44.72875060725325" lon="0.9926543732167366"><ele>160.0</ele><time>2026-05-01T08:21:09Z</time></trkpt><trkpt lat="44.728736548803816" lon="0.9925441484918938"><ele>160.0</ele><time>2026-05-01T08:21:10Z</time></trkpt><trkpt lat="44.72865663630007" lon="0.9923969192011525"><ele>160.0</ele><time>2026-05-01T08:21:12Z</time></trkpt><trkpt lat="44.72859859263013" lon="0.992328558448105"><ele>161.16666666666669</ele><time>2026-05-01T08:21:13Z</time></trkpt><trkpt lat="44.72853339139566" lon="0.9922568375054116"><ele>162.33333333333334</ele><time>2026-05-01T08:21:14Z</time></trkpt><trkpt lat="44.728497699834065" lon="0.9921384338780413"><ele>163.5</ele><time>2026-05-01T08:21:15Z</time></trkpt><trkpt lat="44.7284885916151" lon="0.992043600290464"><ele>164.66666666666666</ele><time>2026-05-01T08:21:16Z</time></trkpt><trkpt lat="44.72850643490172" lon="0.991923115440492"><ele>165.83333333333331</ele><time>2026-05-01T08:21:17Z</time></trkpt><trkpt lat="44.728501848510035" lon="0.9918244140771195"><ele>167.0</ele><time>2026-05-01T08:21:18Z</time></trkpt><trkpt lat="44.72851242946043" lon="0.9917363865234188"><ele>167.6</ele><time>2026-05-01T08:21:19Z</time></trkpt><trkpt lat="44.728444448840165" lon="0.9916435019673088"><ele>168.2</ele><time>2026-05-01T08:21:21Z</time></trkpt><trkpt lat="44.72838504968365" lon="0.991613407120135"><ele>168.8</ele><time>2026-05-01T08:21:23Z</time></trkpt><trkpt lat="44.72830331022844" lon="0.9915660227781878"><ele>169.4</ele><time>2026-05-01T08:21:25Z</time></trkpt><trkpt lat="44.728182666412636" lon="0.9914823551021772"><ele>170.0</ele><time>2026-05-01T08:21:27Z</time></trkpt><trkpt lat="44.72809778816363" lon="0.9914210634833872"><ele>170.0</ele><time>2026-05-01T08:21:28Z</time></trkpt><trkpt lat="44.72799327612044" lon="0.9913576993371731"><ele>170.0</ele><time>2026-05-01T08:21:29Z</time></trkpt><trkpt lat="44.72789111527615" lon="0.9912761219202226"><ele>170.0</ele><time>2026-05-01T08:21:30Z</time></trkpt><trkpt lat="44.72778940600315" lon="0.9911855963466615"><ele>170.0</ele><time>2026-05-01T08:21:31Z</time></trkpt><trkpt lat="44.72768699594287" lon="0.9910841081304888"><ele>171.2</ele><time>2026-05-01T08:21:32Z</time></trkpt><trkpt lat="44.72759579690614" lon="0.9910166018435772"><ele>172.4</ele><time>2026-05-01T08:21:33Z</time></trkpt><trkpt lat="44.72750875867196" lon="0.9909566005180561"><ele>173.60000000000002</ele><time>2026-05-01T08:21:34Z</time></trkpt><trkpt lat="44.72738965667616" lon="0.9909518810889862"><ele>174.8</ele><time>2026-05-01T08:21:36Z</time></trkpt><trkpt lat="44.72727976315518" lon="0.9908967006004508"><ele>176.0</ele><time>2026-05-01T08:21:38Z</time></trkpt><trkpt lat="44.72720439488646" lon="0.9908065088484203"><ele>176.5</ele><time>2026-05-01T08:21:39Z</time></trkpt><trkpt lat="44.727130335473404" lon="0.9907043172728472"><ele>177.0</ele><time>2026-05-01T08:21:40Z</time></trkpt><trkpt lat="44.72701110207353" lon="0.9906118217035398"><ele>177.5</ele><time>2026-05-01T08:21:41Z</time></trkpt><trkpt lat="44.72688271126207" lon="0.990529309611606"><ele>178.0</ele><time>2026-05-01T08:21:42Z</time></trkpt><trkpt lat="44.726755088873105" lon="0.9904426736163603"><ele>178.25</ele><time>2026-05-01T08:21:43Z</time></trkpt><trkpt lat="44.72662788301743" lon="0.9903687123300433"><ele>178.5</ele><time>2026-05-01T08:21:44Z</time></trkpt><trkpt lat="44.72650666400928" lon="0.9902816251638303"><ele>178.75</ele><time>2026-05-01T08:21:45Z</time></trkpt><trkpt lat="44.72639946915011" lon="0.9902221993731914"><ele>179.0</ele><time>2026-05-01T08:21:46Z</time></trkpt><trkpt lat="44.72626300743703" lon="0.9901797470815568"><ele>179.0</ele><time>2026-05-01T08:21:47Z</time></trkpt><trkpt lat="44.72613763210871" lon="0.9901334229966401"><ele>179.0</ele><time>2026-05-01T08:21:48Z</time></trkpt><trkpt lat="44.72602152689892" lon="0.9900975115121409"><ele>179.0</ele><time>2026-05-01T08:21:49Z</time></trkpt><trkpt lat="44.72593570728874" lon="0.9900194099741129"><ele>179.0</ele><time>2026-05-01T08:21:50Z</time></trkpt><trkpt lat="44.72586723201594" lon="0.9899667709467449"><ele>179.0</ele><time>2026-05-01T08:21:51Z</time></trkpt><trkpt lat="44.725791112393374" lon="0.9898589279689265"><ele>178.83333333333331</ele><time>2026-05-01T08:21:52Z</time></trkpt><trkpt lat="44.72573260590156" lon="0.9897924237109107"><ele>178.66666666666666</ele><time>2026-05-01T08:21:53Z</time></trkpt><trkpt lat="44.72565196996921" lon="0.989743133913893"><ele>178.5</ele><time>2026-05-01T08:21:55Z</time></trkpt><trkpt lat="44.725622310609126" lon="0.9896429412126432"><ele>178.33333333333334</ele><time>2026-05-01T08:21:57Z</time></trkpt><trkpt lat="44.72556065987045" lon="0.9894943428195496"><ele>178.16666666666669</ele><time>2026-05-01T08:21:58Z</time></trkpt><trkpt lat="44.725524058354374" lon="0.9893872082995894"><ele>178.0</ele><time>2026-05-01T08:21:59Z</time></trkpt><trkpt lat="44.72544533266232" lon="0.9893559744847834"><ele>178.0</ele><time>2026-05-01T08:22:11Z</time></trkpt><trkpt lat="44.725365957260735" lon="0.9893402690159863"><ele>178.0</ele><time>2026-05-01T08:22:17Z</time></trkpt><trkpt lat="44.72529992582059" lon="0.9892730097006166"><ele>178.0</ele><time>2026-05-01T08:22:19Z</time></trkpt><trkpt lat="44.72529889153767" lon="0.9891618336202268"><ele>178.0</ele><time>2026-05-01T08:22:42Z</time></trkpt><trkpt lat="44.725316332018934" lon="0.9890416638707342"><ele>178.0</ele><time>2026-05-01T08:22:45Z</time></trkpt><trkpt lat="44.725236793239254" lon="0.9890208940681464"><ele>178.0</ele><time>2026-05-01T08:22:47Z</time></trkpt><trkpt lat="44.72516354860303" lon="0.9890840833642583"><ele>178.16666666666669</ele><time>2026-05-01T08:22:50Z</time></trkpt><trkpt lat="44.725090690189134" lon="0.9890660289413359"><ele>178.33333333333334</ele><time>2026-05-01T08:22:53Z</time></trkpt><trkpt lat="44.7250791491332" lon="0.988915963941956"><ele>178.5</ele><time>2026-05-01T08:22:56Z</time></trkpt><trkpt lat="44.725130929137144" lon="0.9887699585804887"><ele>178.66666666666666</ele><time>2026-05-01T08:22:58Z</time></trkpt><trkpt lat="44.725173941931295" lon="0.9886899402232132"><ele>178.83333333333331</ele><time>2026-05-01T08:22:59Z</time></trkpt><trkpt lat="44.725204996733474" lon="0.9885982668482486"><ele>179.0</ele><time>2026-05-01T08:23:00Z</time></trkpt><trkpt lat="44.72516618096119" lon="0.9884136182015586"><ele>179.6</ele><time>2026-05-01T08:23:01Z</time></trkpt><trkpt lat="44.72513033744831" lon="0.9882842309450779"><ele>180.2</ele><time>2026-05-01T08:23:03Z</time></trkpt><trkpt lat="44.72505453448257" lon="0.9881494279980529"><ele>180.79999999999998</ele><time>2026-05-01T08:23:05Z</time></trkpt><trkpt lat="44.72495336149576" lon="0.9881554223525412"><ele>181.39999999999998</ele><time>2026-05-01T08:23:07Z</time></trkpt><trkpt lat="44.724872102788474" lon="0.9882366170450578"><ele>182.0</ele><time>2026-05-01T08:23:09Z</time></trkpt><trkpt lat="44.724779671265836" lon="0.9882419342771367"><ele>182.0</ele><time>2026-05-01T08:23:11Z</time></trkpt><trkpt lat="44.72464157235792" lon="0.988163814577429"><ele>182.0</ele><time>2026-05-01T08:23:13Z</time></trkpt><trkpt lat="44.72455996901221" lon="0.9881210733862912"><ele>182.0</ele><time>2026-05-01T08:23:14Z</time></trkpt><trkpt lat="44.724435085385885" lon="0.9880696915270405"><ele>182.0</ele><time>2026-05-01T08:23:16Z</time></trkpt><trkpt lat="44.724371654937876" lon="0.9880410623226654"><ele>182.0</ele><time>2026-05-01T08:23:17Z</time></trkpt><trkpt lat="44.72427906544873" lon="0.9880275743367815"><ele>182.6</ele><time>2026-05-01T08:23:18Z</time></trkpt><trkpt lat="44.72416888880496" lon="0.9880069407540025"><ele>183.2</ele><time>2026-05-01T08:23:19Z</time></trkpt><trkpt lat="44.724073283236365" lon="0.9879731967762557"><ele>183.8</ele><time>2026-05-01T08:23:20Z</time></trkpt><trkpt lat="44.723994945761845" lon="0.98791338780313"><ele>184.4</ele><time>2026-05-01T08:23:21Z</time></trkpt><trkpt lat="44.72391133550079" lon="0.9878746429214312"><ele>185.0</ele><time>2026-05-01T08:23:22Z</time></trkpt><trkpt lat="44.72382121488269" lon="0.9878224543345775"><ele>184.99999999999997</ele><time>2026-05-01T08:23:23Z</time></trkpt><trkpt lat="44.723755548052345" lon="0.9877841302417252"><ele>185.0</ele><time>2026-05-01T08:23:24Z</time></trkpt><trkpt lat="44.72367534428234" lon="0.9877196948825929"><ele>185.0</ele><time>2026-05-01T08:23:25Z</time></trkpt><trkpt lat="44.723611680902444" lon="0.987643862697432"><ele>185.0</ele><time>2026-05-01T08:23:26Z</time></trkpt><trkpt lat="44.72355293693541" lon="0.9875943464560171"><ele>185.0</ele><time>2026-05-01T08:23:27Z</time></trkpt><trkpt lat="44.723498688368956" lon="0.9875479970869508"><ele>184.99999999999997</ele><time>2026-05-01T08:23:28Z</time></trkpt><trkpt lat="44.72346225209911" lon="0.9874704724675912"><ele>185.0</ele><time>2026-05-01T08:23:31Z</time></trkpt><trkpt lat="44.72342725184563" lon="0.9873100953255469"><ele>185.28571428571428</ele><time>2026-05-01T08:23:36Z</time></trkpt><trkpt lat="44.72340954086826" lon="0.9871880240746741"><ele>185.57142857142856</ele><time>2026-05-01T08:23:37Z</time></trkpt><trkpt lat="44.72339755538531" lon="0.9870983557473418"><ele>185.85714285714283</ele><time>2026-05-01T08:23:38Z</time></trkpt><trkpt lat="44.72339519049145" lon="0.9869943163908279"><ele>186.14285714285714</ele><time>2026-05-01T08:23:39Z</time></trkpt><trkpt lat="44.72339946388452" lon="0.9868913588731831"><ele>186.42857142857144</ele><time>2026-05-01T08:23:40Z</time></trkpt><trkpt lat="44.72338646586807" lon="0.9867958861404552"><ele>186.7142857142857</ele><time>2026-05-01T08:23:41Z</time></trkpt><trkpt lat="44.72336216191977" lon="0.9866997933127202"><ele>187.0</ele><time>2026-05-01T08:23:42Z</time></trkpt><trkpt lat="44.72334232026703" lon="0.9865958019488656"><ele>187.33333333333334</ele><time>2026-05-01T08:23:43Z</time></trkpt><trkpt lat="44.72330794793243" lon="0.9864895346477162"><ele>187.66666666666669</ele><time>2026-05-01T08:23:44Z</time></trkpt><trkpt lat="44.72327268073308" lon="0.9864006801920961"><ele>188.0</ele><time>2026-05-01T08:23:45Z</time></trkpt><trkpt lat="44.723237789576636" lon="0.9862986674932092"><ele>188.33333333333334</ele><time>2026-05-01T08:23:46Z</time></trkpt><trkpt lat="44.7231955556254" lon="0.9861954529991926"><ele>188.66666666666666</ele><time>2026-05-01T08:23:47Z</time></trkpt><trkpt lat="44.72316434241064" lon="0.9860883098053926"><ele>189.0</ele><time>2026-05-01T08:23:48Z</time></trkpt><trkpt lat="44.723107513640095" lon="0.9859421460920288"><ele>190.0</ele><time>2026-05-01T08:23:49Z</time></trkpt><trkpt lat="44.723056239464654" lon="0.9858124318387201"><ele>191.0</ele><time>2026-05-01T08:23:50Z</time></trkpt><trkpt lat="44.72301661414359" lon="0.9856898268159038"><ele>192.0</ele><time>2026-05-01T08:23:51Z</time></trkpt><trkpt lat="44.72299094865955" lon="0.9855604704181282"><ele>193.0</ele><time>2026-05-01T08:23:52Z</time></trkpt><trkpt lat="44.72297438513092" lon="0.9854149770664565"><ele>194.0</ele><time>2026-05-01T08:23:53Z</time></trkpt><trkpt lat="44.72296876914558" lon="0.9853236151011507"><ele>194.0</ele><time>2026-05-01T08:23:54Z</time></trkpt><trkpt lat="44.72293711959154" lon="0.9850975775953617"><ele>194.0</ele><time>2026-05-01T08:23:56Z</time></trkpt><trkpt lat="44.72292207704924" lon="0.9849863196258871"><ele>194.0</ele><time>2026-05-01T08:23:57Z</time></trkpt><trkpt lat="44.72286152799827" lon="0.9848946041025572"><ele>194.0</ele><time>2026-05-01T08:23:58Z</time></trkpt><trkpt lat="44.72279494798149" lon="0.9848257896413006"><ele>194.0</ele><time>2026-05-01T08:23:59Z</time></trkpt><trkpt lat="44.7227215828942" lon="0.9847404312850703"><ele>194.16666666666669</ele><time>2026-05-01T08:24:00Z</time></trkpt><trkpt lat="44.72263997247955" lon="0.9846093857506751"><ele>194.33333333333334</ele><time>2026-05-01T08:24:01Z</time></trkpt><trkpt lat="44.722592747399545" lon="0.9844954592758108"><ele>194.5</ele><time>2026-05-01T08:24:02Z</time></trkpt><trkpt lat="44.72257841858321" lon="0.9843929946876425"><ele>194.66666666666669</ele><time>2026-05-01T08:24:03Z</time></trkpt><trkpt lat="44.72256296606371" lon="0.9842989694727229"><ele>194.83333333333334</ele><time>2026-05-01T08:24:04Z</time></trkpt><trkpt lat="44.722570633903594" lon="0.9841797468595493"><ele>195.0</ele><time>2026-05-01T08:24:05Z</time></trkpt><trkpt lat="44.72256907591054" lon="0.9840559194415094"><ele>195.0</ele><time>2026-05-01T08:24:07Z</time></trkpt><trkpt lat="44.72250395796532" lon="0.9839548822915738"><ele>195.0</ele><time>2026-05-01T08:24:10Z</time></trkpt><trkpt lat="44.7224617111833" lon="0.9838821579058766"><ele>195.0</ele><time>2026-05-01T08:24:11Z</time></trkpt><trkpt lat="44.72240341532986" lon="0.9838020219815904"><ele>195.0</ele><time>2026-05-01T08:24:12Z</time></trkpt><trkpt lat="44.72235576508084" lon="0.9837176234093361"><ele>195.0</ele><time>2026-05-01T08:24:13Z</time></trkpt><trkpt lat="44.72229673351796" lon="0.9836537944855569"><ele>195.0</ele><time>2026-05-01T08:24:14Z</time></trkpt><trkpt lat="44.72220938613939" lon="0.9835814434331495"><ele>195.0</ele><time>2026-05-01T08:24:15Z</time></trkpt><trkpt lat="44.72213617952269" lon="0.9835035134197285"><ele>195.0</ele><time>2026-05-01T08:24:16Z</time></trkpt><trkpt lat="44.722037491020714" lon="0.9834210720494724"><ele>195.0</ele><time>2026-05-01T08:24:17Z</time></trkpt><trkpt lat="44.721947223618315" lon="0.9833302710177327"><ele>195.0</ele><time>2026-05-01T08:24:18Z</time></trkpt><trkpt lat="44.72186417268931" lon="0.983243806102898"><ele>195.0</ele><time>2026-05-01T08:24:19Z</time></trkpt><trkpt lat="44.72180342967229" lon="0.9831230374382781"><ele>195.4</ele><time>2026-05-01T08:24:20Z</time></trkpt><trkpt lat="44.72177611582955" lon="0.9829640949338379"><ele>195.8</ele><time>2026-05-01T08:24:21Z</time></trkpt><trkpt lat="44.721734719380734" lon="0.9828332997978146"><ele>196.2</ele><time>2026-05-01T08:24:22Z</time></trkpt><trkpt lat="44.72167924579589" lon="0.9827050407107777"><ele>196.6</ele><time>2026-05-01T08:24:23Z</time></trkpt><trkpt lat="44.7216460017076" lon="0.9825876784415153"><ele>197.0</ele><time>2026-05-01T08:24:24Z</time></trkpt><trkpt lat="44.72157272420153" lon="0.9824998122761003"><ele>197.2</ele><time>2026-05-01T08:24:26Z</time></trkpt><trkpt lat="44.7214665308338" lon="0.9824937558603222"><ele>197.39999999999998</ele><time>2026-05-01T08:24:28Z</time></trkpt><trkpt lat="44.72140162805236" lon="0.9824221297101366"><ele>197.60000000000002</ele><time>2026-05-01T08:24:29Z</time></trkpt><trkpt lat="44.7213396421653" lon="0.9823299125470996"><ele>197.8</ele><time>2026-05-01T08:24:30Z</time></trkpt><trkpt lat="44.72129466875412" lon="0.9822147680445461"><ele>198.0</ele><time>2026-05-01T08:24:31Z</time></trkpt><trkpt lat="44.721246810402164" lon="0.9820746818947025"><ele>198.0</ele><time>2026-05-01T08:24:32Z</time></trkpt><trkpt lat="44.721185977394846" lon="0.981920469930353"><ele>198.0</ele><time>2026-05-01T08:24:33Z</time></trkpt><trkpt lat="44.72115609143118" lon="0.9817776348210497"><ele>198.0</ele><time>2026-05-01T08:24:34Z</time></trkpt><trkpt lat="44.72114809240285" lon="0.9816866955139569"><ele>198.0</ele><time>2026-05-01T08:24:35Z</time></trkpt><trkpt lat="44.72109534375489" lon="0.9816018346291709"><ele>198.0</ele><time>2026-05-01T08:24:36Z</time></trkpt><trkpt lat="44.72098141686916" lon="0.9816014194963352"><ele>198.5</ele><time>2026-05-01T08:24:38Z</time></trkpt><trkpt lat="44.72090914276243" lon="0.9816294507952837"><ele>199.0</ele><time>2026-05-01T08:24:39Z</time></trkpt><trkpt lat="44.72083333491959" lon="0.981564175506285"><ele>199.5</ele><time>2026-05-01T08:24:40Z</time></trkpt><trkpt lat="44.72075988802558" lon="0.9815175748836898"><ele>200.0</ele><time>2026-05-01T08:24:41Z</time></trkpt><trkpt lat="44.720689408076936" lon="0.9815017731745357"><ele>200.5</ele><time>2026-05-01T08:24:42Z</time></trkpt><trkpt lat="44.720605886802375" lon="0.981406804759241"><ele>201.0</ele><time>2026-05-01T08:24:44Z</time></trkpt><trkpt lat="44.72055170517343" lon="0.981337426089132"><ele>201.0</ele><time>2026-05-01T08:24:45Z</time></trkpt><trkpt lat="44.72047208508375" lon="0.9812954387310718"><ele>201.0</ele><time>2026-05-01T08:24:46Z</time></trkpt><trkpt lat="44.72038512758158" lon="0.9812675656258796"><ele>201.0</ele><time>2026-05-01T08:24:47Z</time></trkpt><trkpt lat="44.7202852193746" lon="0.981207522824769"><ele>201.0</ele><time>2026-05-01T08:24:48Z</time></trkpt><trkpt lat="44.72017776335588" lon="0.9811662724536575"><ele>201.0</ele><time>2026-05-01T08:24:49Z</time></trkpt><trkpt lat="44.72010090521191" lon="0.9810725017759365"><ele>202.0</ele><time>2026-05-01T08:24:50Z</time></trkpt><trkpt lat="44.71993973420352" lon="0.9810344439679184"><ele>203.0</ele><time>2026-05-01T08:24:52Z</time></trkpt><trkpt lat="44.71983763829663" lon="0.9810010097594225"><ele>204.0</ele><time>2026-05-01T08:24:53Z</time></trkpt><trkpt lat="44.71970880035355" lon="0.9809391474750383"><ele>205.0</ele><time>2026-05-01T08:24:54Z</time></trkpt><trkpt lat="44.71959424620189" lon="0.9808486589792708"><ele>205.0</ele><time>2026-05-01T08:24:55Z</time></trkpt><trkpt lat="44.71949730431459" lon="0.9807814632608313"><ele>205.0</ele><time>2026-05-01T08:24:56Z</time></trkpt><trkpt lat="44.71939072810987" lon="0.9807013102477861"><ele>205.0</ele><time>2026-05-01T08:24:57Z</time></trkpt><trkpt lat="44.719287470899424" lon="0.9806568732619849"><ele>205.0</ele><time>2026-05-01T08:24:58Z</time></trkpt><trkpt lat="44.719178304407755" lon="0.9805873788169526"><ele>206.0</ele><time>2026-05-01T08:24:59Z</time></trkpt><trkpt lat="44.71907422102157" lon="0.9805226073061568"><ele>207.0</ele><time>2026-05-01T08:25:00Z</time></trkpt><trkpt lat="44.71896511808969" lon="0.9804559907138612"><ele>208.0</ele><time>2026-05-01T08:25:01Z</time></trkpt><trkpt lat="44.71880571495637" lon="0.9803793064796006"><ele>209.0</ele><time>2026-05-01T08:25:02Z</time></trkpt><trkpt lat="44.718700806003" lon="0.9803017817311352"><ele>209.00000000000003</ele><time>2026-05-01T08:25:03Z</time></trkpt><trkpt lat="44.71860299217036" lon="0.9802309976007748"><ele>209.0</ele><time>2026-05-01T08:25:04Z</time></trkpt><trkpt lat="44.7185093329229" lon="0.9801644916480714"><ele>209.0</ele><time>2026-05-01T08:25:05Z</time></trkpt><trkpt lat="44.71843990374893" lon="0.9801334692509999"><ele>209.0</ele><time>2026-05-01T08:25:06Z</time></trkpt><trkpt lat="44.71838186984581" lon="0.9800891577559608"><ele>209.00000000000003</ele><time>2026-05-01T08:25:07Z</time></trkpt><trkpt lat="44.71831646894208" lon="0.9800174930162596"><ele>209.0</ele><time>2026-05-01T08:25:09Z</time></trkpt><trkpt lat="44.71824661550584" lon="0.9799904802490438"><ele>209.5</ele><time>2026-05-01T08:25:12Z</time></trkpt><trkpt lat="44.718151266131194" lon="0.9799890501397923"><ele>210.0</ele><time>2026-05-01T08:25:14Z</time></trkpt><trkpt lat="44.71808566920969" lon="0.9799403509581073"><ele>210.5</ele><time>2026-05-01T08:25:15Z</time></trkpt><trkpt lat="44.71794944756977" lon="0.9799739946810269"><ele>211.0</ele><time>2026-05-01T08:25:17Z</time></trkpt><trkpt lat="44.717801252928034" lon="0.979972749589543"><ele>210.83333333333331</ele><time>2026-05-01T08:25:18Z</time></trkpt><trkpt lat="44.71771689033626" lon="0.9799818258951005"><ele>210.66666666666666</ele><time>2026-05-01T08:25:19Z</time></trkpt><trkpt lat="44.717649841967436" lon="0.9800088181854607"><ele>210.5</ele><time>2026-05-01T08:25:20Z</time></trkpt><trkpt lat="44.717571197130795" lon="0.9800769194272567"><ele>210.33333333333331</ele><time>2026-05-01T08:25:22Z</time></trkpt><trkpt lat="44.71750574829778" lon="0.9800867141967446"><ele>210.16666666666666</ele><time>2026-05-01T08:25:24Z</time></trkpt><trkpt lat="44.71744640098926" lon="0.9801686900813383"><ele>210.0</ele><time>2026-05-01T08:25:27Z</time></trkpt><trkpt lat="44.71738791512062" lon="0.9802178647633953"><ele>210.66666666666666</ele><time>2026-05-01T08:25:28Z</time></trkpt><trkpt lat="44.717329459898274" lon="0.9802580693519434"><ele>211.33333333333331</ele><time>2026-05-01T08:25:29Z</time></trkpt><trkpt lat="44.71721855719542" lon="0.9803335123081318"><ele>212.0</ele><time>2026-05-01T08:25:31Z</time></trkpt><trkpt lat="44.717133439086716" lon="0.9803280273742707"><ele>212.66666666666666</ele><time>2026-05-01T08:25:33Z</time></trkpt><trkpt lat="44.71708404215711" lon="0.9803883340514732"><ele>213.33333333333331</ele><time>2026-05-01T08:29:46Z</time></trkpt><trkpt lat="44.71712832185663" lon="0.9804604086630782"><ele>214.0</ele><time>2026-05-01T08:30:05Z</time></trkpt><trkpt lat="44.71712033571497" lon="0.980578255925524"><ele>214.0</ele><time>2026-05-01T08:30:07Z</time></trkpt><trkpt lat="44.717135857368035" lon="0.9807878155504347"><ele>213.99999999999997</ele><time>2026-05-01T08:30:10Z</time></trkpt><trkpt lat="44.71715556779913" lon="0.9809036063302232"><ele>213.99999999999997</ele><time>2026-05-01T08:30:11Z</time></trkpt><trkpt lat="44.71716010792686" lon="0.9810323981920402"><ele>214.0</ele><time>2026-05-01T08:30:12Z</time></trkpt><trkpt lat="44.717136191676786" lon="0.9811507486498514"><ele>214.0</ele><time>2026-05-01T08:30:13Z</time></trkpt><trkpt lat="44.71714522433382" lon="0.9812480644052429"><ele>215.66666666666666</ele><time>2026-05-01T08:30:14Z</time></trkpt><trkpt lat="44.71715317502002" lon="0.9813404059247358"><ele>217.33333333333331</ele><time>2026-05-01T08:30:15Z</time></trkpt><trkpt lat="44.71716023605708" lon="0.9814487478823799"><ele>219.0</ele><time>2026-05-01T08:30:16Z</time></trkpt><trkpt lat="44.71716385751871" lon="0.9816271762031175"><ele>220.66666666666669</ele><time>2026-05-01T08:30:18Z</time></trkpt><trkpt lat="44.717163166377645" lon="0.9817370686549209"><ele>222.33333333333334</ele><time>2026-05-01T08:30:19Z</time></trkpt><trkpt lat="44.71715745414518" lon="0.9818621671321222"><ele>224.0</ele><time>2026-05-01T08:30:20Z</time></trkpt><trkpt lat="44.717148862616945" lon="0.9820167920334975"><ele>224.0</ele><time>2026-05-01T08:30:21Z</time></trkpt><trkpt lat="44.71714218797804" lon="0.982150686552909"><ele>223.99999999999997</ele><time>2026-05-01T08:30:22Z</time></trkpt><trkpt lat="44.71713273473342" lon="0.982289484740445"><ele>223.99999999999997</ele><time>2026-05-01T08:30:23Z</time></trkpt><trkpt lat="44.71711167621869" lon="0.9824443834604664"><ele>224.0</ele><time>2026-05-01T08:30:24Z</time></trkpt><trkpt lat="44.71709274793358" lon="0.9825993745101436"><ele>224.0</ele><time>2026-05-01T08:30:25Z</time></trkpt><trkpt lat="44.71705701850016" lon="0.9827320529412106"><ele>222.39999999999998</ele><time>2026-05-01T08:30:26Z</time></trkpt><trkpt lat="44.71705435520658" lon="0.9828887791975749"><ele>220.79999999999998</ele><time>2026-05-01T08:30:27Z</time></trkpt><trkpt lat="44.71704577211475" lon="0.9830452641831315"><ele>219.20000000000002</ele><time>2026-05-01T08:30:28Z</time></trkpt><trkpt lat="44.7170312152184" lon="0.9832006645026093"><ele>217.60000000000002</ele><time>2026-05-01T08:30:29Z</time></trkpt><trkpt lat="44.71702009307315" lon="0.9833611850401041"><ele>216.0</ele><time>2026-05-01T08:30:30Z</time></trkpt><trkpt lat="44.717001772701764" lon="0.9835317439952838"><ele>216.25</ele><time>2026-05-01T08:30:31Z</time></trkpt><trkpt lat="44.71698343263712" lon="0.9837107475154633"><ele>216.5</ele><time>2026-05-01T08:30:32Z</time></trkpt><trkpt lat="44.71695571822336" lon="0.98389323099552"><ele>216.75</ele><time>2026-05-01T08:30:33Z</time></trkpt><trkpt lat="44.71692033266927" lon="0.9840685550407228"><ele>217.0</ele><time>2026-05-01T08:30:34Z</time></trkpt><trkpt lat="44.71687738379071" lon="0.984240752202475"><ele>217.0</ele><time>2026-05-01T08:30:35Z</time></trkpt><trkpt lat="44.716820420923455" lon="0.9844190255343199"><ele>217.0</ele><time>2026-05-01T08:30:36Z</time></trkpt><trkpt lat="44.7167588466232" lon="0.984587739567982"><ele>217.0</ele><time>2026-05-01T08:30:37Z</time></trkpt><trkpt lat="44.71669239495333" lon="0.9847537448544069"><ele>217.0</ele><time>2026-05-01T08:30:38Z</time></trkpt><trkpt lat="44.71662209315446" lon="0.9849234301912593"><ele>217.75</ele><time>2026-05-01T08:30:39Z</time></trkpt><trkpt lat="44.71655368316904" lon="0.9850866562837569"><ele>218.5</ele><time>2026-05-01T08:30:40Z</time></trkpt><trkpt lat="44.71647998772262" lon="0.9852400268218408"><ele>219.25</ele><time>2026-05-01T08:30:41Z</time></trkpt><trkpt lat="44.71640993669321" lon="0.9853873421753339"><ele>220.0</ele><time>2026-05-01T08:30:42Z</time></trkpt><trkpt lat="44.71633353477243" lon="0.9855363428389308"><ele>220.0</ele><time>2026-05-01T08:30:43Z</time></trkpt><trkpt lat="44.7162492752549" lon="0.9856811218726894"><ele>220.0</ele><time>2026-05-01T08:30:44Z</time></trkpt><trkpt lat="44.71615766176966" lon="0.985838678701196"><ele>220.0</ele><time>2026-05-01T08:30:45Z</time></trkpt><trkpt lat="44.716068058886464" lon="0.9859994142130849"><ele>220.0</ele><time>2026-05-01T08:30:46Z</time></trkpt><trkpt lat="44.71597685657336" lon="0.9861660526072353"><ele>221.25</ele><time>2026-05-01T08:30:47Z</time></trkpt><trkpt lat="44.71589122107699" lon="0.9863266336874318"><ele>222.5</ele><time>2026-05-01T08:30:48Z</time></trkpt><trkpt lat="44.715808926196914" lon="0.9864993517284405"><ele>223.75</ele><time>2026-05-01T08:30:49Z</time></trkpt><trkpt lat="44.71572899603861" lon="0.9866750408383468"><ele>225.0</ele><time>2026-05-01T08:30:50Z</time></trkpt><trkpt lat="44.715662803763166" lon="0.986835184893544"><ele>226.25</ele><time>2026-05-01T08:30:51Z</time></trkpt><trkpt lat="44.71559598637236" lon="0.9869973091516522"><ele>227.5</ele><time>2026-05-01T08:30:52Z</time></trkpt><trkpt lat="44.71553762788807" lon="0.9871567312516493"><ele>228.75</ele><time>2026-05-01T08:30:53Z</time></trkpt><trkpt lat="44.715483899815005" lon="0.9873156007640606"><ele>230.0</ele><time>2026-05-01T08:30:54Z</time></trkpt><trkpt lat="44.71544452170549" lon="0.9874438032281884"><ele>230.2</ele><time>2026-05-01T08:30:55Z</time></trkpt><trkpt lat="44.71541419196077" lon="0.987563166134426"><ele>230.4</ele><time>2026-05-01T08:30:56Z</time></trkpt><trkpt lat="44.715396151318565" lon="0.9876953755729724"><ele>230.60000000000002</ele><time>2026-05-01T08:30:57Z</time></trkpt><trkpt lat="44.715372591018806" lon="0.9878415880617305"><ele>230.8</ele><time>2026-05-01T08:30:58Z</time></trkpt><trkpt lat="44.71534987691741" lon="0.9879961568857378"><ele>231.0</ele><time>2026-05-01T08:30:59Z</time></trkpt><trkpt lat="44.71532518991497" lon="0.9881457314482918"><ele>231.0</ele><time>2026-05-01T08:31:00Z</time></trkpt><trkpt lat="44.71529797668196" lon="0.988293493089537"><ele>231.0</ele><time>2026-05-01T08:31:01Z</time></trkpt><trkpt lat="44.71527300622346" lon="0.9884478801784927"><ele>231.0</ele><time>2026-05-01T08:31:02Z</time></trkpt><trkpt lat="44.71525155637247" lon="0.9886189336587842"><ele>231.0</ele><time>2026-05-01T08:31:03Z</time></trkpt><trkpt lat="44.71521897479386" lon="0.9887964887920228"><ele>227.0</ele><time>2026-05-01T08:31:04Z</time></trkpt><trkpt lat="44.71519678463767" lon="0.9889764253602908"><ele>223.0</ele><time>2026-05-01T08:31:05Z</time></trkpt><trkpt lat="44.71518077151625" lon="0.9891616533837119"><ele>219.0</ele><time>2026-05-01T08:31:06Z</time></trkpt><trkpt lat="44.71515600462801" lon="0.9893364155472153"><ele>215.0</ele><time>2026-05-01T08:31:07Z</time></trkpt><trkpt lat="44.71513339496392" lon="0.989515894254348"><ele>213.25</ele><time>2026-05-01T08:31:08Z</time></trkpt><trkpt lat="44.71511756344555" lon="0.9896891013933057"><ele>211.5</ele><time>2026-05-01T08:31:09Z</time></trkpt><trkpt lat="44.71508759076249" lon="0.9898646333632969"><ele>209.75</ele><time>2026-05-01T08:31:10Z</time></trkpt><trkpt lat="44.71509073530377" lon="0.9900392609594263"><ele>208.0</ele><time>2026-05-01T08:31:11Z</time></trkpt><trkpt lat="44.71510112635808" lon="0.9902149388837237"><ele>206.5</ele><time>2026-05-01T08:31:12Z</time></trkpt><trkpt lat="44.71512687114014" lon="0.9903768271033213"><ele>205.0</ele><time>2026-05-01T08:31:13Z</time></trkpt><trkpt lat="44.715158440980076" lon="0.9905359340268358"><ele>203.5</ele><time>2026-05-01T08:31:14Z</time></trkpt><trkpt lat="44.7151739116179" lon="0.9906963581115923"><ele>202.0</ele><time>2026-05-01T08:31:15Z</time></trkpt><trkpt lat="44.71519755535481" lon="0.990843669289337"><ele>200.6</ele><time>2026-05-01T08:31:16Z</time></trkpt><trkpt lat="44.71520236894984" lon="0.9909982467888969"><ele>199.2</ele><time>2026-05-01T08:31:17Z</time></trkpt><trkpt lat="44.71518329458143" lon="0.9911443190460053"><ele>197.8</ele><time>2026-05-01T08:31:18Z</time></trkpt><trkpt lat="44.7151542361009" lon="0.9912993354561201"><ele>196.4</ele><time>2026-05-01T08:31:19Z</time></trkpt><trkpt lat="44.715118555701174" lon="0.9914587937938826"><ele>195.0</ele><time>2026-05-01T08:31:20Z</time></trkpt><trkpt lat="44.71509356539091" lon="0.9916149600800753"><ele>193.8</ele><time>2026-05-01T08:31:21Z</time></trkpt><trkpt lat="44.71507024052556" lon="0.9917715079715419"><ele>192.6</ele><time>2026-05-01T08:31:22Z</time></trkpt><trkpt lat="44.71503695974552" lon="0.991920338782454"><ele>191.39999999999998</ele><time>2026-05-01T08:31:23Z</time></trkpt><trkpt lat="44.71501250610236" lon="0.9920478518363532"><ele>190.2</ele><time>2026-05-01T08:31:24Z</time></trkpt><trkpt lat="44.714980825182174" lon="0.9921963554003143"><ele>189.0</ele><time>2026-05-01T08:31:25Z</time></trkpt><trkpt lat="44.71493541948906" lon="0.9923274679204602"><ele>189.0</ele><time>2026-05-01T08:31:26Z</time></trkpt><trkpt lat="44.71489785359535" lon="0.9924409304507366"><ele>189.0</ele><time>2026-05-01T08:31:28Z</time></trkpt><trkpt lat="44.71488133242915" lon="0.9925665809573435"><ele>189.0</ele><time>2026-05-01T08:31:30Z</time></trkpt><trkpt lat="44.71479639951043" lon="0.99267739954184"><ele>189.0</ele><time>2026-05-01T08:31:32Z</time></trkpt><trkpt lat="44.71475100385126" lon="0.9927471967023009"><ele>189.0</ele><time>2026-05-01T08:31:33Z</time></trkpt><trkpt lat="44.7146941027527" lon="0.9928420820477962"><ele>190.39999999999998</ele><time>2026-05-01T08:31:34Z</time></trkpt><trkpt lat="44.71463572751415" lon="0.9929373772796046"><ele>191.8</ele><time>2026-05-01T08:31:35Z</time></trkpt><trkpt lat="44.714587549136645" lon="0.9930318637662348"><ele>193.2</ele><time>2026-05-01T08:31:36Z</time></trkpt><trkpt lat="44.714540554805204" lon="0.9931306617902904"><ele>194.60000000000002</ele><time>2026-05-01T08:31:37Z</time></trkpt><trkpt lat="44.71450486775862" lon="0.9932197303217808"><ele>196.0</ele><time>2026-05-01T08:31:38Z</time></trkpt><trkpt lat="44.714839360034816" lon="0.9937266400408743"><ele>198.5</ele><time>2026-05-01T08:31:39Z</time></trkpt><trkpt lat="44.714853142730654" lon="0.9938689304512079"><ele>201.0</ele><time>2026-05-01T08:31:40Z</time></trkpt><trkpt lat="44.714859919346644" lon="0.9940210206772409"><ele>203.5</ele><time>2026-05-01T08:31:41Z</time></trkpt><trkpt lat="44.714857620948884" lon="0.9941952428386731"><ele>206.0</ele><time>2026-05-01T08:31:42Z</time></trkpt><trkpt lat="44.71487392908294" lon="0.9943867391793992"><ele>206.75</ele><time>2026-05-01T08:31:43Z</time></trkpt><trkpt lat="44.71493505611506" lon="0.9945866422705658"><ele>207.5</ele><time>2026-05-01T08:31:44Z</time></trkpt><trkpt lat="44.71498366672633" lon="0.9947664036733422"><ele>208.25</ele><time>2026-05-01T08:31:45Z</time></trkpt><trkpt lat="44.715006455258816" lon="0.9949252611835957"><ele>209.0</ele><time>2026-05-01T08:31:46Z</time></trkpt><trkpt lat="44.7150503144339" lon="0.9950669167065124"><ele>209.25</ele><time>2026-05-01T08:31:47Z</time></trkpt><trkpt lat="44.71504710911924" lon="0.995259172608148"><ele>209.5</ele><time>2026-05-01T08:31:48Z</time></trkpt><trkpt lat="44.715065111928574" lon="0.995426355194177"><ele>209.75</ele><time>2026-05-01T08:31:49Z</time></trkpt><trkpt lat="44.71509418568126" lon="0.9955871035491771"><ele>210.0</ele><time>2026-05-01T08:31:50Z</time></trkpt><trkpt lat="44.71512250347826" lon="0.9957469995622571"><ele>211.5</ele><time>2026-05-01T08:31:51Z</time></trkpt><trkpt lat="44.7151563243725" lon="0.9958970960754686"><ele>213.0</ele><time>2026-05-01T08:31:52Z</time></trkpt><trkpt lat="44.71520971297599" lon="0.9960680251238809"><ele>214.5</ele><time>2026-05-01T08:31:53Z</time></trkpt><trkpt lat="44.71525402033332" lon="0.9962304545731648"><ele>216.0</ele><time>2026-05-01T08:31:54Z</time></trkpt><trkpt lat="44.71529994865277" lon="0.9964054015704223"><ele>217.75</ele><time>2026-05-01T08:31:55Z</time></trkpt><trkpt lat="44.71534645607556" lon="0.9965727245750029"><ele>219.5</ele><time>2026-05-01T08:31:56Z</time></trkpt><trkpt lat="44.71539915924471" lon="0.9967443594546102"><ele>221.25</ele><time>2026-05-01T08:31:57Z</time></trkpt><trkpt lat="44.71545361306368" lon="0.9968978082309329"><ele>223.0</ele><time>2026-05-01T08:31:58Z</time></trkpt><trkpt lat="44.71550714586046" lon="0.9970313352291207"><ele>224.33333333333331</ele><time>2026-05-01T08:31:59Z</time></trkpt><trkpt lat="44.715563052004235" lon="0.9971492810489623"><ele>225.66666666666666</ele><time>2026-05-01T08:32:00Z</time></trkpt><trkpt lat="44.71560233626781" lon="0.9972430078119412"><ele>227.0</ele><time>2026-05-01T08:32:01Z</time></trkpt><trkpt lat="44.715628351814104" lon="0.9973384161607405"><ele>228.33333333333331</ele><time>2026-05-01T08:32:02Z</time></trkpt><trkpt lat="44.71557844848146" lon="0.9974463737414004"><ele>229.66666666666666</ele><time>2026-05-01T08:32:04Z</time></trkpt><trkpt lat="44.715523226472605" lon="0.9974996380829746"><ele>231.0</ele><time>2026-05-01T08:32:05Z</time></trkpt><trkpt lat="44.7154365754381" lon="0.997589802003352"><ele>230.75</ele><time>2026-05-01T08:32:06Z</time></trkpt><trkpt lat="44.71536608700677" lon="0.9976608666742389"><ele>230.5</ele><time>2026-05-01T08:32:07Z</time></trkpt><trkpt lat="44.71525556701176" lon="0.9977692936581406"><ele>230.25</ele><time>2026-05-01T08:32:08Z</time></trkpt><trkpt lat="44.71515735440873" lon="0.9979187497590086"><ele>230.0</ele><time>2026-05-01T08:32:09Z</time></trkpt><trkpt lat="44.7150708667334" lon="0.9980556086720209"><ele>230.0</ele><time>2026-05-01T08:32:10Z</time></trkpt><trkpt lat="44.714994657846326" lon="0.9981771426909243"><ele>230.0</ele><time>2026-05-01T08:32:11Z</time></trkpt><trkpt lat="44.71493215937569" lon="0.9983296036244107"><ele>230.0</ele><time>2026-05-01T08:32:12Z</time></trkpt><trkpt lat="44.71483735480036" lon="0.9984420101950819"><ele>230.0</ele><time>2026-05-01T08:32:13Z</time></trkpt><trkpt lat="44.714756918794635" lon="0.9985413466184461"><ele>231.16666666666669</ele><time>2026-05-01T08:32:14Z</time></trkpt><trkpt lat="44.71471004896803" lon="0.9986143994575445"><ele>232.33333333333334</ele><time>2026-05-01T08:32:15Z</time></trkpt><trkpt lat="44.71469701247944" lon="0.9987582017122417"><ele>233.5</ele><time>2026-05-01T08:32:17Z</time></trkpt><trkpt lat="44.7147424590242" lon="0.9988518877991434"><ele>234.66666666666669</ele><time>2026-05-01T08:32:18Z</time></trkpt><trkpt lat="44.71475830713035" lon="0.9989821305238297"><ele>235.83333333333334</ele><time>2026-05-01T08:32:19Z</time></trkpt><trkpt lat="44.71477358493826" lon="0.9991116081291899"><ele>237.0</ele><time>2026-05-01T08:32:20Z</time></trkpt><trkpt lat="44.71477862396032" lon="0.9992705399343714"><ele>237.0</ele><time>2026-05-01T08:32:21Z</time></trkpt><trkpt lat="44.71478524874628" lon="0.9994214472250165"><ele>237.0</ele><time>2026-05-01T08:32:22Z</time></trkpt><trkpt lat="44.714809014445215" lon="0.9995476570477484"><ele>237.0</ele><time>2026-05-01T08:32:23Z</time></trkpt><trkpt lat="44.71483373041284" lon="0.9996532654503156"><ele>237.0</ele><time>2026-05-01T08:32:24Z</time></trkpt><trkpt lat="44.714852880451296" lon="0.9997743273242282"><ele>237.0</ele><time>2026-05-01T08:32:26Z</time></trkpt><trkpt lat="44.71478346025712" lon="0.9998396634237331"><ele>237.0</ele><time>2026-05-01T08:32:39Z</time></trkpt><trkpt lat="44.714675006513225" lon="0.9998541662184064"><ele>237.0</ele><time>2026-05-01T08:32:41Z</time></trkpt><trkpt lat="44.714595361033815" lon="0.9998660316116017"><ele>237.0</ele><time>2026-05-01T08:32:42Z</time></trkpt><trkpt lat="44.714512428767314" lon="0.9998806216734667"><ele>237.0</ele><time>2026-05-01T08:32:43Z</time></trkpt><trkpt lat="44.714415623313165" lon="0.9999095586603404"><ele>237.0</ele><time>2026-05-01T08:32:44Z</time></trkpt><trkpt lat="44.714320795770725" lon="0.9999265257344861"><ele>237.2</ele><time>2026-05-01T08:32:45Z</time></trkpt><trkpt lat="44.7142247310712" lon="0.9999593696914739"><ele>237.39999999999998</ele><time>2026-05-01T08:32:46Z</time></trkpt><trkpt lat="44.71413653018668" lon="0.9999801121571462"><ele>237.60000000000002</ele><time>2026-05-01T08:32:47Z</time></trkpt><trkpt lat="44.714041208403245" lon="1.0000067753926558"><ele>237.8</ele><time>2026-05-01T08:32:48Z</time></trkpt><trkpt lat="44.713940045687444" lon="1.0000333620545698"><ele>238.0</ele><time>2026-05-01T08:32:49Z</time></trkpt><trkpt lat="44.713833946292674" lon="1.000053165131354"><ele>238.0</ele><time>2026-05-01T08:32:50Z</time></trkpt><trkpt lat="44.71373492149632" lon="1.0000798316018245"><ele>238.0</ele><time>2026-05-01T08:32:51Z</time></trkpt><trkpt lat="44.71363625061312" lon="1.0001061501252173"><ele>238.0</ele><time>2026-05-01T08:32:52Z</time></trkpt><trkpt lat="44.713535245445364" lon="1.0001294313512812"><ele>238.0</ele><time>2026-05-01T08:32:53Z</time></trkpt><trkpt lat="44.7134444867716" lon="1.0001479775306419"><ele>238.0</ele><time>2026-05-01T08:32:54Z</time></trkpt><trkpt lat="44.7133373011627" lon="1.00015310294377"><ele>238.0</ele><time>2026-05-01T08:32:55Z</time></trkpt><trkpt lat="44.713235974176634" lon="1.0001698731134152"><ele>238.0</ele><time>2026-05-01T08:32:56Z</time></trkpt><trkpt lat="44.71313439826106" lon="1.0001755993998827"><ele>238.0</ele><time>2026-05-01T08:32:57Z</time></trkpt><trkpt lat="44.713029816889204" lon="1.0001740381104083"><ele>238.0</ele><time>2026-05-01T08:32:58Z</time></trkpt><trkpt lat="44.712921497749875" lon="1.0001767124229946"><ele>238.0</ele><time>2026-05-01T08:32:59Z</time></trkpt><trkpt lat="44.71280281480627" lon="1.0001804525583224"><ele>237.25</ele><time>2026-05-01T08:33:00Z</time></trkpt><trkpt lat="44.712682579980715" lon="1.0001721922773883"><ele>236.5</ele><time>2026-05-01T08:33:01Z</time></trkpt><trkpt lat="44.71256453413651" lon="1.0001644124832163"><ele>235.75</ele><time>2026-05-01T08:33:02Z</time></trkpt><trkpt lat="44.71243843659564" lon="1.0001505401054804"><ele>235.0</ele><time>2026-05-01T08:33:03Z</time></trkpt><trkpt lat="44.71231754062707" lon="1.0001498189612719"><ele>235.0</ele><time>2026-05-01T08:33:04Z</time></trkpt><trkpt lat="44.71219558847299" lon="1.0001363847047802"><ele>235.0</ele><time>2026-05-01T08:33:05Z</time></trkpt><trkpt lat="44.712070983848214" lon="1.000129309926544"><ele>235.0</ele><time>2026-05-01T08:33:06Z</time></trkpt><trkpt lat="44.711945692724775" lon="1.0001402087494449"><ele>235.0</ele><time>2026-05-01T08:33:07Z</time></trkpt><trkpt lat="44.7118270204081" lon="1.0001665366678987"><ele>234.49999999999997</ele><time>2026-05-01T08:33:08Z</time></trkpt><trkpt lat="44.7117271161033" lon="1.0001934010538747"><ele>234.0</ele><time>2026-05-01T08:33:09Z</time></trkpt><trkpt lat="44.71165041925883" lon="1.0002181755600466"><ele>233.5</ele><time>2026-05-01T08:33:10Z</time></trkpt><trkpt lat="44.7115798264233" lon="1.0002408487428887"><ele>233.0</ele><time>2026-05-01T08:33:11Z</time></trkpt><trkpt lat="44.711514280709984" lon="1.000237809584381"><ele>232.49999999999997</ele><time>2026-05-01T08:33:12Z</time></trkpt><trkpt lat="44.71143351643772" lon="1.000171405142387"><ele>232.0</ele><time>2026-05-01T08:33:14Z</time></trkpt><trkpt lat="44.71143022740614" lon="0.9999919936663811"><ele>231.99999999999997</ele><time>2026-05-01T08:33:15Z</time></trkpt><trkpt lat="44.71139550703453" lon="0.9998997220833492"><ele>232.0</ele><time>2026-05-01T08:33:16Z</time></trkpt><trkpt lat="44.7113498497165" lon="0.9997900732824364"><ele>232.0</ele><time>2026-05-01T08:33:17Z</time></trkpt><trkpt lat="44.71130566687401" lon="0.9996839267130657"><ele>232.0</ele><time>2026-05-01T08:33:18Z</time></trkpt><trkpt lat="44.7112734062027" lon="0.999584148526949"><ele>231.99999999999997</ele><time>2026-05-01T08:33:19Z</time></trkpt><trkpt lat="44.711225997515214" lon="0.9994673834565042"><ele>232.0</ele><time>2026-05-01T08:33:20Z</time></trkpt><trkpt lat="44.71119732044946" lon="0.9993537251690598"><ele>231.99999999999997</ele><time>2026-05-01T08:33:21Z</time></trkpt><trkpt lat="44.71116803144065" lon="0.9992334192781994"><ele>232.0</ele><time>2026-05-01T08:33:22Z</time></trkpt><trkpt lat="44.71112489015141" lon="0.9991075399510612"><ele>232.0</ele><time>2026-05-01T08:33:23Z</time></trkpt><trkpt lat="44.711088047875364" lon="0.999010533619386"><ele>232.0</ele><time>2026-05-01T08:33:24Z</time></trkpt><trkpt lat="44.71104438804277" lon="0.9989130182504891"><ele>231.99999999999997</ele><time>2026-05-01T08:33:25Z</time></trkpt><trkpt lat="44.71100202117877" lon="0.9988157442230439"><ele>232.0</ele><time>2026-05-01T08:33:26Z</time></trkpt><trkpt lat="44.710962774757576" lon="0.998745490248367"><ele>231.16666666666666</ele><time>2026-05-01T08:33:27Z</time></trkpt><trkpt lat="44.7109217699851" lon="0.9986735405264899"><ele>230.33333333333331</ele><time>2026-05-01T08:33:28Z</time></trkpt><trkpt lat="44.71084360166088" lon="0.998620923193592"><ele>229.5</ele><time>2026-05-01T08:33:30Z</time></trkpt><trkpt lat="44.71078291773876" lon="0.998736287100205"><ele>228.66666666666669</ele><time>2026-05-01T08:33:32Z</time></trkpt><trkpt lat="44.71071971263422" lon="0.9987872391827641"><ele>227.83333333333334</ele><time>2026-05-01T08:33:33Z</time></trkpt><trkpt lat="44.71066399787797" lon="0.9988570246113723"><ele>227.0</ele><time>2026-05-01T08:33:34Z</time></trkpt><trkpt lat="44.71060319911149" lon="0.9989297073840702"><ele>227.0</ele><time>2026-05-01T08:33:35Z</time></trkpt><trkpt lat="44.710541393553534" lon="0.9990281979973217"><ele>227.0</ele><time>2026-05-01T08:33:36Z</time></trkpt><trkpt lat="44.710458866804544" lon="0.9991154945127761"><ele>227.0</ele><time>2026-05-01T08:33:37Z</time></trkpt><trkpt lat="44.71036699873164" lon="0.9992013785032895"><ele>227.0</ele><time>2026-05-01T08:33:38Z</time></trkpt><trkpt lat="44.710279286282" lon="0.9993032394000219"><ele>227.0</ele><time>2026-05-01T08:33:39Z</time></trkpt><trkpt lat="44.710189238731196" lon="0.9994072182825678"><ele>225.0</ele><time>2026-05-01T08:33:40Z</time></trkpt><trkpt lat="44.710105491402516" lon="0.9995261562030494"><ele>223.0</ele><time>2026-05-01T08:33:41Z</time></trkpt><trkpt lat="44.71001170555317" lon="0.9996425001017412"><ele>221.0</ele><time>2026-05-01T08:33:42Z</time></trkpt><trkpt lat="44.70993455773395" lon="0.9997709135888153"><ele>219.0</ele><time>2026-05-01T08:33:43Z</time></trkpt><trkpt lat="44.709846363004765" lon="0.9999016427230855"><ele>219.0</ele><time>2026-05-01T08:33:44Z</time></trkpt><trkpt lat="44.70977875375812" lon="1.0000254879330475"><ele>218.99999999999997</ele><time>2026-05-01T08:33:45Z</time></trkpt><trkpt lat="44.70974533547092" lon="1.0001328644412513"><ele>218.99999999999997</ele><time>2026-05-01T08:33:46Z</time></trkpt><trkpt lat="44.709705611294716" lon="1.0002480626148846"><ele>219.0</ele><time>2026-05-01T08:33:47Z</time></trkpt><trkpt lat="44.709666493702905" lon="1.0004662838886467"><ele>219.0</ele><time>2026-05-01T08:33:49Z</time></trkpt><trkpt lat="44.70969897813962" lon="1.0006159395286487"><ele>219.0</ele><time>2026-05-01T08:33:50Z</time></trkpt><trkpt lat="44.709713609721994" lon="1.0007696357427636"><ele>218.99999999999997</ele><time>2026-05-01T08:33:51Z</time></trkpt><trkpt lat="44.70972685668675" lon="1.000888020137175"><ele>218.99999999999997</ele><time>2026-05-01T08:33:52Z</time></trkpt><trkpt lat="44.70970537532949" lon="1.0009955623595785"><ele>219.0</ele><time>2026-05-01T08:33:53Z</time></trkpt><trkpt lat="44.709663177310745" lon="1.0011089155520212"><ele>219.0</ele><time>2026-05-01T08:33:54Z</time></trkpt><trkpt lat="44.70960158613593" lon="1.0012040939714155"><ele>217.79999999999998</ele><time>2026-05-01T08:33:55Z</time></trkpt><trkpt lat="44.709542871062816" lon="1.001303881830666"><ele>216.59999999999997</ele><time>2026-05-01T08:33:56Z</time></trkpt><trkpt lat="44.709523850799044" lon="1.001425993017662"><ele>215.4</ele><time>2026-05-01T08:33:57Z</time></trkpt><trkpt lat="44.709512608568474" lon="1.0015661802743892"><ele>214.2</ele><time>2026-05-01T08:33:58Z</time></trkpt><trkpt lat="44.709539575815036" lon="1.0017132266581419"><ele>213.0</ele><time>2026-05-01T08:33:59Z</time></trkpt><trkpt lat="44.709594929794086" lon="1.0018507274878066"><ele>211.66666666666666</ele><time>2026-05-01T08:34:00Z</time></trkpt><trkpt lat="44.70964542607388" lon="1.0019541503800538"><ele>210.33333333333331</ele><time>2026-05-01T08:34:01Z</time></trkpt><trkpt lat="44.70969140797019" lon="1.0020488761932267"><ele>209.0</ele><time>2026-05-01T08:34:02Z</time></trkpt><trkpt lat="44.709731686157035" lon="1.002124218128936"><ele>207.66666666666666</ele><time>2026-05-01T08:34:03Z</time></trkpt><trkpt lat="44.70977513831318" lon="1.0022000711954193"><ele>206.33333333333331</ele><time>2026-05-01T08:34:04Z</time></trkpt><trkpt lat="44.709832178030496" lon="1.002282470631494"><ele>205.0</ele><time>2026-05-01T08:34:05Z</time></trkpt><trkpt lat="44.709903987035226" lon="1.0023764874474477"><ele>205.0</ele><time>2026-05-01T08:34:06Z</time></trkpt><trkpt lat="44.710002938326234" lon="1.0024453288542585"><ele>205.0</ele><time>2026-05-01T08:34:07Z</time></trkpt><trkpt lat="44.71008397300249" lon="1.0025339011872612"><ele>205.0</ele><time>2026-05-01T08:34:08Z</time></trkpt><trkpt lat="44.710155848236916" lon="1.0026340192573047"><ele>205.0</ele><time>2026-05-01T08:34:09Z</time></trkpt><trkpt lat="44.71021021856692" lon="1.002767476370908"><ele>205.0</ele><time>2026-05-01T08:34:10Z</time></trkpt><trkpt lat="44.71024318925863" lon="1.002919368361395"><ele>203.4</ele><time>2026-05-01T08:34:11Z</time></trkpt><trkpt lat="44.71025823468173" lon="1.0031005221406009"><ele>201.8</ele><time>2026-05-01T08:34:12Z</time></trkpt><trkpt lat="44.71026478455259" lon="1.003261190383752"><ele>200.2</ele><time>2026-05-01T08:34:13Z</time></trkpt><trkpt lat="44.710268171026755" lon="1.0034022988757674"><ele>198.6</ele><time>2026-05-01T08:34:14Z</time></trkpt><trkpt lat="44.71026840007055" lon="1.0035307113927632"><ele>197.0</ele><time>2026-05-01T08:34:15Z</time></trkpt><trkpt lat="44.71025912459371" lon="1.0036340328862152"><ele>194.8</ele><time>2026-05-01T08:34:16Z</time></trkpt><trkpt lat="44.71026919735977" lon="1.0037401927938077"><ele>192.6</ele><time>2026-05-01T08:34:17Z</time></trkpt><trkpt lat="44.710309091469384" lon="1.0038360737179797"><ele>190.4</ele><time>2026-05-01T08:34:18Z</time></trkpt><trkpt lat="44.710378043100285" lon="1.0038931920702647"><ele>188.20000000000002</ele><time>2026-05-01T08:34:19Z</time></trkpt><trkpt lat="44.71050220252241" lon="1.0038563975150698"><ele>186.0</ele><time>2026-05-01T08:34:20Z</time></trkpt><trkpt lat="44.7105987174405" lon="1.0038411285963948"><ele>186.0</ele><time>2026-05-01T08:34:21Z</time></trkpt><trkpt lat="44.71070924632623" lon="1.0038499460345411"><ele>186.0</ele><time>2026-05-01T08:34:22Z</time></trkpt><trkpt lat="44.71081402733899" lon="1.0038570394097481"><ele>186.0</ele><time>2026-05-01T08:34:23Z</time></trkpt><trkpt lat="44.710919261105666" lon="1.003889395792138"><ele>186.0</ele><time>2026-05-01T08:34:24Z</time></trkpt><trkpt lat="44.71101347674829" lon="1.003961740855452"><ele>186.0</ele><time>2026-05-01T08:34:25Z</time></trkpt><trkpt lat="44.711087316965724" lon="1.0040588033342641"><ele>185.33333333333334</ele><time>2026-05-01T08:34:26Z</time></trkpt><trkpt lat="44.71113282545968" lon="1.004166855197952"><ele>184.66666666666666</ele><time>2026-05-01T08:34:27Z</time></trkpt><trkpt lat="44.71115182257668" lon="1.0042763195355928"><ele>184.0</ele><time>2026-05-01T08:34:28Z</time></trkpt><trkpt lat="44.71115265271086" lon="1.0043812449795875"><ele>183.33333333333331</ele><time>2026-05-01T08:34:29Z</time></trkpt><trkpt lat="44.711141222591316" lon="1.004492770954047"><ele>182.66666666666666</ele><time>2026-05-01T08:34:30Z</time></trkpt><trkpt lat="44.71112222526337" lon="1.0045892692872975"><ele>182.0</ele><time>2026-05-01T08:34:31Z</time></trkpt><trkpt lat="44.71106793321503" lon="1.0046940784801839"><ele>181.39999999999998</ele><time>2026-05-01T08:34:33Z</time></trkpt><trkpt lat="44.7109347756705" lon="1.0046354328412592"><ele>180.79999999999998</ele><time>2026-05-01T08:34:35Z</time></trkpt><trkpt lat="44.71085475678241" lon="1.0045899697958527"><ele>180.2</ele><time>2026-05-01T08:34:36Z</time></trkpt><trkpt lat="44.71075171838799" lon="1.0045641146926605"><ele>179.6</ele><time>2026-05-01T08:34:37Z</time></trkpt><trkpt lat="44.710646345934045" lon="1.0045339372618503"><ele>179.0</ele><time>2026-05-01T08:34:38Z</time></trkpt><trkpt lat="44.710547741857226" lon="1.0045009325014203"><ele>179.0</ele><time>2026-05-01T08:34:39Z</time></trkpt><trkpt lat="44.71041779182513" lon="1.0046312696957354"><ele>179.0</ele><time>2026-05-01T08:34:40Z</time></trkpt><trkpt lat="44.71030627921966" lon="1.0046706344726128"><ele>179.0</ele><time>2026-05-01T08:34:41Z</time></trkpt><trkpt lat="44.71018491470248" lon="1.004691545533261"><ele>179.0</ele><time>2026-05-01T08:34:42Z</time></trkpt><trkpt lat="44.71007043749589" lon="1.0046891772556403"><ele>179.25</ele><time>2026-05-01T08:34:43Z</time></trkpt><trkpt lat="44.7099508313074" lon="1.0046634233227059"><ele>179.5</ele><time>2026-05-01T08:34:44Z</time></trkpt><trkpt lat="44.709832098116394" lon="1.00462851722096"><ele>179.75</ele><time>2026-05-01T08:34:45Z</time></trkpt><trkpt lat="44.70971177190628" lon="1.004606519520729"><ele>180.0</ele><time>2026-05-01T08:34:46Z</time></trkpt><trkpt lat="44.70959657366529" lon="1.0045825261058192"><ele>180.0</ele><time>2026-05-01T08:34:47Z</time></trkpt><trkpt lat="44.70947889224625" lon="1.004555105292594"><ele>180.0</ele><time>2026-05-01T08:34:48Z</time></trkpt><trkpt lat="44.70936261513238" lon="1.0045257777693706"><ele>180.0</ele><time>2026-05-01T08:34:49Z</time></trkpt><trkpt lat="44.709242817235435" lon="1.0045010212564054"><ele>180.0</ele><time>2026-05-01T08:34:50Z</time></trkpt><trkpt lat="44.70912591317649" lon="1.0044770513143686"><ele>181.0</ele><time>2026-05-01T08:34:51Z</time></trkpt><trkpt lat="44.70899967403253" lon="1.0044578556725505"><ele>182.0</ele><time>2026-05-01T08:34:52Z</time></trkpt><trkpt lat="44.70887718694326" lon="1.0044378028178078"><ele>183.0</ele><time>2026-05-01T08:34:53Z</time></trkpt><trkpt lat="44.70875544345754" lon="1.0044189166092259"><ele>184.0</ele><time>2026-05-01T08:34:54Z</time></trkpt><trkpt lat="44.70864744933621" lon="1.0044059235146492"><ele>184.6</ele><time>2026-05-01T08:34:55Z</time></trkpt><trkpt lat="44.70855868764192" lon="1.004374334520093"><ele>185.2</ele><time>2026-05-01T08:34:56Z</time></trkpt><trkpt lat="44.70847933306199" lon="1.0043609674425276"><ele>185.79999999999998</ele><time>2026-05-01T08:34:57Z</time></trkpt><trkpt lat="44.708407270880635" lon="1.0043652022491463"><ele>186.39999999999998</ele><time>2026-05-01T08:34:58Z</time></trkpt><trkpt lat="44.70830690403558" lon="1.0043663521102046"><ele>187.0</ele><time>2026-05-01T08:34:59Z</time></trkpt><trkpt lat="44.70819472188184" lon="1.0044066139125523"><ele>187.0</ele><time>2026-05-01T08:35:00Z</time></trkpt><trkpt lat="44.708087704878864" lon="1.0044637173841136"><ele>187.0</ele><time>2026-05-01T08:35:01Z</time></trkpt><trkpt lat="44.70799257181015" lon="1.0045234517563575"><ele>187.0</ele><time>2026-05-01T08:35:02Z</time></trkpt><trkpt lat="44.707900269021195" lon="1.0046204017075655"><ele>187.0</ele><time>2026-05-01T08:35:03Z</time></trkpt><trkpt lat="44.70779721192739" lon="1.0047007228422522"><ele>186.25</ele><time>2026-05-01T08:35:04Z</time></trkpt><trkpt lat="44.707696874226684" lon="1.00478447664542"><ele>185.5</ele><time>2026-05-01T08:35:05Z</time></trkpt><trkpt lat="44.707589819235054" lon="1.004859362875116"><ele>184.75</ele><time>2026-05-01T08:35:06Z</time></trkpt><trkpt lat="44.70749074225691" lon="1.0049608910817234"><ele>184.0</ele><time>2026-05-01T08:35:07Z</time></trkpt><trkpt lat="44.707390062782444" lon="1.0050730093102145"><ele>186.0</ele><time>2026-05-01T08:35:08Z</time></trkpt><trkpt lat="44.7072934081714" lon="1.0052180858492936"><ele>188.0</ele><time>2026-05-01T08:35:09Z</time></trkpt><trkpt lat="44.70719592322867" lon="1.0053434588678174"><ele>190.0</ele><time>2026-05-01T08:35:10Z</time></trkpt><trkpt lat="44.70709396919282" lon="1.0054824532283122"><ele>192.0</ele><time>2026-05-01T08:35:11Z</time></trkpt><trkpt lat="44.706992831046165" lon="1.005616564726378"><ele>191.0</ele><time>2026-05-01T08:35:12Z</time></trkpt><trkpt lat="44.70690539867085" lon="1.0057643396449303"><ele>190.0</ele><time>2026-05-01T08:35:13Z</time></trkpt><trkpt lat="44.70680564530285" lon="1.0058968677059947"><ele>189.0</ele><time>2026-05-01T08:35:14Z</time></trkpt><trkpt lat="44.70673620836178" lon="1.0060562175096521"><ele>188.0</ele><time>2026-05-01T08:35:15Z</time></trkpt><trkpt lat="44.70665293687734" lon="1.0061822639814557"><ele>188.0</ele><time>2026-05-01T08:35:16Z</time></trkpt><trkpt lat="44.70657536592798" lon="1.006328060145809"><ele>188.0</ele><time>2026-05-01T08:35:17Z</time></trkpt><trkpt lat="44.70650866981606" lon="1.0064876291321445"><ele>188.0</ele><time>2026-05-01T08:35:18Z</time></trkpt><trkpt lat="44.70643335707779" lon="1.0066257120607842"><ele>188.0</ele><time>2026-05-01T08:35:19Z</time></trkpt><trkpt lat="44.706366858771084" lon="1.0067697387609564"><ele>189.25</ele><time>2026-05-01T08:35:20Z</time></trkpt><trkpt lat="44.706295081999386" lon="1.0069095847103802"><ele>190.5</ele><time>2026-05-01T08:35:21Z</time></trkpt><trkpt lat="44.7062276789002" lon="1.0070523864045267"><ele>191.75</ele><time>2026-05-01T08:35:22Z</time></trkpt><trkpt lat="44.706172946371254" lon="1.00719858279664"><ele>193.0</ele><time>2026-05-01T08:35:23Z</time></trkpt><trkpt lat="44.70611902449492" lon="1.0073397979275613"><ele>193.0</ele><time>2026-05-01T08:35:24Z</time></trkpt><trkpt lat="44.70607489533027" lon="1.0074883200003242"><ele>193.0</ele><time>2026-05-01T08:35:25Z</time></trkpt><trkpt lat="44.70603145792172" lon="1.0076384164824812"><ele>193.0</ele><time>2026-05-01T08:35:26Z</time></trkpt><trkpt lat="44.70598116117863" lon="1.0077791131447646"><ele>193.0</ele><time>2026-05-01T08:35:27Z</time></trkpt><trkpt lat="44.70594109564749" lon="1.0079357879471382"><ele>193.0</ele><time>2026-05-01T08:35:28Z</time></trkpt><trkpt lat="44.705911331527766" lon="1.0080770523865117"><ele>193.0</ele><time>2026-05-01T08:35:29Z</time></trkpt><trkpt lat="44.7058924471884" lon="1.0082331715733495"><ele>193.0</ele><time>2026-05-01T08:35:30Z</time></trkpt><trkpt lat="44.70588529325871" lon="1.0083618311199671"><ele>193.0</ele><time>2026-05-01T08:35:31Z</time></trkpt><trkpt lat="44.70583926076151" lon="1.0084845016591093"><ele>193.0</ele><time>2026-05-01T08:35:32Z</time></trkpt><trkpt lat="44.70578997071856" lon="1.0085967452026328"><ele>193.25</ele><time>2026-05-01T08:35:33Z</time></trkpt><trkpt lat="44.705746118598114" lon="1.00872014423813"><ele>193.5</ele><time>2026-05-01T08:35:34Z</time></trkpt><trkpt lat="44.705818781217744" lon="1.0089112285663588"><ele>193.75</ele><time>2026-05-01T08:35:35Z</time></trkpt><trkpt lat="44.705830709552075" lon="1.0090354848395635"><ele>194.0</ele><time>2026-05-01T08:35:36Z</time></trkpt><trkpt lat="44.70583252680361" lon="1.0092023867080522"><ele>194.25</ele><time>2026-05-01T08:35:37Z</time></trkpt><trkpt lat="44.705827659351876" lon="1.0093815731560014"><ele>194.5</ele><time>2026-05-01T08:35:38Z</time></trkpt><trkpt lat="44.70583074570631" lon="1.0095656546820195"><ele>194.75</ele><time>2026-05-01T08:35:39Z</time></trkpt><trkpt lat="44.70583094024197" lon="1.0097182407888117"><ele>195.0</ele><time>2026-05-01T08:35:40Z</time></trkpt><trkpt lat="44.70582783582147" lon="1.0098451476293708"><ele>195.0</ele><time>2026-05-01T08:35:41Z</time></trkpt><trkpt lat="44.70582675360383" lon="1.009963924504519"><ele>195.0</ele><time>2026-05-01T08:35:43Z</time></trkpt><trkpt lat="44.705900187970904" lon="1.0100049886805285"><ele>195.0</ele><time>2026-05-01T08:35:45Z</time></trkpt><trkpt lat="44.70596594404025" lon="1.0100344990359416"><ele>195.0</ele><time>2026-05-01T08:35:46Z</time></trkpt><trkpt lat="44.706022257792114" lon="1.0100807341525966"><ele>195.0</ele><time>2026-05-01T08:35:47Z</time></trkpt><trkpt lat="44.706064015870204" lon="1.01015060174073"><ele>195.0</ele><time>2026-05-01T08:35:48Z</time></trkpt><trkpt lat="44.706083715914644" lon="1.0102453961082933"><ele>195.0</ele><time>2026-05-01T08:35:49Z</time></trkpt><trkpt lat="44.70598778294082" lon="1.0103870577446932"><ele>195.6</ele><time>2026-05-01T08:35:51Z</time></trkpt><trkpt lat="44.70591684580744" lon="1.0104722510028856"><ele>196.2</ele><time>2026-05-01T08:35:52Z</time></trkpt><trkpt lat="44.70583788651816" lon="1.0105904694407386"><ele>196.8</ele><time>2026-05-01T08:35:53Z</time></trkpt><trkpt lat="44.705806632213324" lon="1.0107028491793928"><ele>197.4</ele><time>2026-05-01T08:35:54Z</time></trkpt><trkpt lat="44.7057388649711" lon="1.0108252849326416"><ele>198.0</ele><time>2026-05-01T08:35:55Z</time></trkpt><trkpt lat="44.705670093740345" lon="1.0109457859602702"><ele>200.2</ele><time>2026-05-01T08:35:56Z</time></trkpt><trkpt lat="44.705608547381594" lon="1.011044175965445"><ele>202.4</ele><time>2026-05-01T08:35:57Z</time></trkpt><trkpt lat="44.70554344910417" lon="1.0111848178685878"><ele>204.6</ele><time>2026-05-01T08:35:58Z</time></trkpt><trkpt lat="44.705465052974326" lon="1.0113300670394303"><ele>206.79999999999998</ele><time>2026-05-01T08:35:59Z</time></trkpt><trkpt lat="44.7053965684472" lon="1.0114177541636284"><ele>209.0</ele><time>2026-05-01T08:36:00Z</time></trkpt><trkpt lat="44.70531228666552" lon="1.0115318756667875"><ele>208.25</ele><time>2026-05-01T08:36:01Z</time></trkpt><trkpt lat="44.70521284557471" lon="1.0116358595951782"><ele>207.5</ele><time>2026-05-01T08:36:02Z</time></trkpt><trkpt lat="44.705103044803955" lon="1.0117616899575421"><ele>206.75</ele><time>2026-05-01T08:36:03Z</time></trkpt><trkpt lat="44.704998072004585" lon="1.0118754865661876"><ele>206.0</ele><time>2026-05-01T08:36:04Z</time></trkpt><trkpt lat="44.704914321373586" lon="1.011968096795868"><ele>206.0</ele><time>2026-05-01T08:36:05Z</time></trkpt><trkpt lat="44.70484522096689" lon="1.0120279903647267"><ele>206.0</ele><time>2026-05-01T08:36:06Z</time></trkpt><trkpt lat="44.70478479617015" lon="1.0121196408480098"><ele>206.0</ele><time>2026-05-01T08:36:07Z</time></trkpt><trkpt lat="44.70473196271849" lon="1.0122213813371441"><ele>206.0</ele><time>2026-05-01T08:36:08Z</time></trkpt><trkpt lat="44.7046672556595" lon="1.012336117489885"><ele>206.0</ele><time>2026-05-01T08:36:09Z</time></trkpt><trkpt lat="44.70459689084857" lon="1.0124771035005298"><ele>206.0</ele><time>2026-05-01T08:36:10Z</time></trkpt><trkpt lat="44.70451042395374" lon="1.012609429759536"><ele>206.0</ele><time>2026-05-01T08:36:11Z</time></trkpt><trkpt lat="44.70441367407522" lon="1.0127439120925341"><ele>206.0</ele><time>2026-05-01T08:36:12Z</time></trkpt><trkpt lat="44.70430912384018" lon="1.0128565750293488"><ele>206.0</ele><time>2026-05-01T08:36:13Z</time></trkpt><trkpt lat="44.70420320428028" lon="1.0129941773027953"><ele>206.0</ele><time>2026-05-01T08:36:14Z</time></trkpt><trkpt lat="44.704107785090756" lon="1.0131057358452067"><ele>206.0</ele><time>2026-05-01T08:36:15Z</time></trkpt><trkpt lat="44.70402831220893" lon="1.0132253346899667"><ele>206.0</ele><time>2026-05-01T08:36:16Z</time></trkpt><trkpt lat="44.70388751223353" lon="1.013337000082858"><ele>206.0</ele><time>2026-05-01T08:36:17Z</time></trkpt><trkpt lat="44.70379307644328" lon="1.0134376837591477"><ele>208.0</ele><time>2026-05-01T08:36:18Z</time></trkpt><trkpt lat="44.70367947664741" lon="1.0135333559939697"><ele>210.0</ele><time>2026-05-01T08:36:19Z</time></trkpt><trkpt lat="44.7036211479933" lon="1.0135750090325737"><ele>212.00000000000003</ele><time>2026-05-01T08:36:20Z</time></trkpt><trkpt lat="44.70352268602297" lon="1.0136421883834887"><ele>214.0</ele><time>2026-05-01T08:36:21Z</time></trkpt><trkpt lat="44.70344228866454" lon="1.013713292772309"><ele>216.0</ele><time>2026-05-01T08:36:22Z</time></trkpt><trkpt lat="44.7033401774576" lon="1.0137899931132224"><ele>216.60000000000002</ele><time>2026-05-01T08:36:23Z</time></trkpt><trkpt lat="44.703280713548324" lon="1.0138634040424541"><ele>217.20000000000002</ele><time>2026-05-01T08:36:24Z</time></trkpt><trkpt lat="44.703211187333814" lon="1.0138733827615347"><ele>217.79999999999998</ele><time>2026-05-01T08:36:25Z</time></trkpt><trkpt lat="44.70305652290745" lon="1.0138145676431147"><ele>218.39999999999998</ele><time>2026-05-01T08:36:27Z</time></trkpt><trkpt lat="44.70296428921621" lon="1.0137618795740502"><ele>219.0</ele><time>2026-05-01T08:36:28Z</time></trkpt><trkpt lat="44.702910911037556" lon="1.0136822912669459"><ele>219.0</ele><time>2026-05-01T08:36:29Z</time></trkpt><trkpt lat="44.70285318997836" lon="1.01362094420243"><ele>219.0</ele><time>2026-05-01T08:36:30Z</time></trkpt><trkpt lat="44.70279029809293" lon="1.0135748569209766"><ele>219.0</ele><time>2026-05-01T08:36:31Z</time></trkpt><trkpt lat="44.70270948886271" lon="1.0135348898469658"><ele>219.0</ele><time>2026-05-01T08:36:32Z</time></trkpt><trkpt lat="44.70257339257814" lon="1.0135523836381377"><ele>219.0</ele><time>2026-05-01T08:36:34Z</time></trkpt><trkpt lat="44.702505742575326" lon="1.0135771251495507"><ele>219.0</ele><time>2026-05-01T08:36:35Z</time></trkpt><trkpt lat="44.70243263058824" lon="1.0136024873334364"><ele>219.6</ele><time>2026-05-01T08:36:36Z</time></trkpt><trkpt lat="44.70236756420244" lon="1.0136637064854261"><ele>220.2</ele><time>2026-05-01T08:36:37Z</time></trkpt><trkpt lat="44.70225555869621" lon="1.013698255480639"><ele>220.79999999999998</ele><time>2026-05-01T08:36:38Z</time></trkpt><trkpt lat="44.702139153981264" lon="1.013710710021919"><ele>221.39999999999998</ele><time>2026-05-01T08:36:39Z</time></trkpt><trkpt lat="44.70201896454009" lon="1.0137584929983516"><ele>222.0</ele><time>2026-05-01T08:36:40Z</time></trkpt><trkpt lat="44.70191041127023" lon="1.0137973979437271"><ele>223.2</ele><time>2026-05-01T08:36:41Z</time></trkpt><trkpt lat="44.70180831771411" lon="1.0138139239685209"><ele>224.39999999999998</ele><time>2026-05-01T08:36:42Z</time></trkpt><trkpt lat="44.701716803333795" lon="1.0138432362935845"><ele>225.60000000000002</ele><time>2026-05-01T08:36:43Z</time></trkpt><trkpt lat="44.701617305556006" lon="1.0139134747218244"><ele>226.8</ele><time>2026-05-01T08:36:44Z</time></trkpt><trkpt lat="44.701526858889984" lon="1.0139541308042985"><ele>228.0</ele><time>2026-05-01T08:36:45Z</time></trkpt><trkpt lat="44.70141305028471" lon="1.013924876126148"><ele>228.0</ele><time>2026-05-01T08:36:47Z</time></trkpt><trkpt lat="44.701328390608275" lon="1.0140128030513462"><ele>228.0</ele><time>2026-05-01T08:36:49Z</time></trkpt><trkpt lat="44.70125563951028" lon="1.0141050048156661"><ele>228.0</ele><time>2026-05-01T08:36:50Z</time></trkpt><trkpt lat="44.7011749497079" lon="1.014170616471824"><ele>228.0</ele><time>2026-05-01T08:36:51Z</time></trkpt><trkpt lat="44.701070761571906" lon="1.014229975992523"><ele>228.0</ele><time>2026-05-01T08:36:52Z</time></trkpt><trkpt lat="44.70098626084" lon="1.0142822716767628"><ele>229.0</ele><time>2026-05-01T08:36:53Z</time></trkpt><trkpt lat="44.700922820272424" lon="1.0143499893483683"><ele>229.99999999999997</ele><time>2026-05-01T08:36:54Z</time></trkpt><trkpt lat="44.70086706278247" lon="1.0143984156609436"><ele>231.0</ele><time>2026-05-01T08:36:55Z</time></trkpt><trkpt lat="44.70085014068505" lon="1.0144935827502035"><ele>232.0</ele><time>2026-05-01T08:36:56Z</time></trkpt><trkpt lat="44.70084290631211" lon="1.0145964466670048"><ele>232.99999999999997</ele><time>2026-05-01T08:36:57Z</time></trkpt><trkpt lat="44.70084426241696" lon="1.0147014299864037"><ele>234.0</ele><time>2026-05-01T08:36:58Z</time></trkpt><trkpt lat="44.70080218358642" lon="1.014768500496346"><ele>235.0</ele><time>2026-05-01T08:37:00Z</time></trkpt><trkpt lat="44.70073125887569" lon="1.014674078119499"><ele>234.99999999999997</ele><time>2026-05-01T08:37:02Z</time></trkpt><trkpt lat="44.70073765149034" lon="1.0145831391591233"><ele>235.0</ele><time>2026-05-01T08:37:03Z</time></trkpt><trkpt lat="44.70077058240458" lon="1.014469896280772"><ele>235.0</ele><time>2026-05-01T08:37:04Z</time></trkpt><trkpt lat="44.70081203753027" lon="1.0143577109058788"><ele>235.0</ele><time>2026-05-01T08:37:05Z</time></trkpt><trkpt lat="44.7008562889996" lon="1.0142534095003566"><ele>234.99999999999997</ele><time>2026-05-01T08:37:06Z</time></trkpt><trkpt lat="44.70090468695549" lon="1.0141576636769525"><ele>235.0</ele><time>2026-05-01T08:37:07Z</time></trkpt><trkpt lat="44.70097870200523" lon="1.0140393206831948"><ele>235.5</ele><time>2026-05-01T08:37:08Z</time></trkpt><trkpt lat="44.70106340390455" lon="1.0139107445040894"><ele>236.0</ele><time>2026-05-01T08:37:09Z</time></trkpt><trkpt lat="44.701167252453125" lon="1.0137807931169485"><ele>236.5</ele><time>2026-05-01T08:37:10Z</time></trkpt><trkpt lat="44.701245009801696" lon="1.0136711648987147"><ele>237.0</ele><time>2026-05-01T08:37:11Z</time></trkpt><trkpt lat="44.70130485468728" lon="1.0135776827741543"><ele>237.0</ele><time>2026-05-01T08:37:12Z</time></trkpt><trkpt lat="44.70134871214942" lon="1.0134921053795107"><ele>237.0</ele><time>2026-05-01T08:37:13Z</time></trkpt><trkpt lat="44.7012953762412" lon="1.0133802763059965"><ele>237.0</ele><time>2026-05-01T08:37:15Z</time></trkpt><trkpt lat="44.70121693136961" lon="1.0133757286575975"><ele>237.0</ele><time>2026-05-01T08:37:16Z</time></trkpt><trkpt lat="44.70113533148742" lon="1.0134177645281874"><ele>237.0</ele><time>2026-05-01T08:37:17Z</time></trkpt><trkpt lat="44.7010456692206" lon="1.013521977271251"><ele>237.0</ele><time>2026-05-01T08:37:18Z</time></trkpt><trkpt lat="44.700946518621514" lon="1.0136334051428386"><ele>237.0</ele><time>2026-05-01T08:37:19Z</time></trkpt><trkpt lat="44.700871216008395" lon="1.0137097169098281"><ele>237.0</ele><time>2026-05-01T08:37:20Z</time></trkpt><trkpt lat="44.70077108756545" lon="1.0137647657496756"><ele>237.0</ele><time>2026-05-01T08:37:21Z</time></trkpt><trkpt lat="44.70066686733358" lon="1.013805563276837"><ele>237.0</ele><time>2026-05-01T08:37:22Z</time></trkpt><trkpt lat="44.70057570129048" lon="1.0138707876897342"><ele>237.0</ele><time>2026-05-01T08:37:23Z</time></trkpt><trkpt lat="44.70048327773841" lon="1.0139308314933306"><ele>237.0</ele><time>2026-05-01T08:37:24Z</time></trkpt><trkpt lat="44.70038956570459" lon="1.013962156426079"><ele>237.0</ele><time>2026-05-01T08:37:25Z</time></trkpt><trkpt lat="44.70031096379138" lon="1.0139690210299699"><ele>237.0</ele><time>2026-05-01T08:37:26Z</time></trkpt><trkpt lat="44.700215950075446" lon="1.0139492937685093"><ele>237.0</ele><time>2026-05-01T08:37:27Z</time></trkpt><trkpt lat="44.70013783030397" lon="1.0139171717343667"><ele>238.5</ele><time>2026-05-01T08:37:28Z</time></trkpt><trkpt lat="44.70005626375146" lon="1.0138715994816108"><ele>240.0</ele><time>2026-05-01T08:37:29Z</time></trkpt><trkpt lat="44.69996260577609" lon="1.013800661449497"><ele>241.5</ele><time>2026-05-01T08:37:30Z</time></trkpt><trkpt lat="44.69984564069132" lon="1.0137248637840315"><ele>243.0</ele><time>2026-05-01T08:37:31Z</time></trkpt><trkpt lat="44.69973504341398" lon="1.0136369669797334"><ele>243.0</ele><time>2026-05-01T08:37:32Z</time></trkpt><trkpt lat="44.69961115208783" lon="1.0135365830956415"><ele>243.0</ele><time>2026-05-01T08:37:33Z</time></trkpt><trkpt lat="44.69949404453533" lon="1.0134607982590877"><ele>243.0</ele><time>2026-05-01T08:37:34Z</time></trkpt><trkpt lat="44.69938920069373" lon="1.0133855105738758"><ele>243.0</ele><time>2026-05-01T08:37:35Z</time></trkpt><trkpt lat="44.69929094432366" lon="1.0132981370902134"><ele>243.2</ele><time>2026-05-01T08:37:36Z</time></trkpt><trkpt lat="44.699203907431794" lon="1.0132334538913366"><ele>243.4</ele><time>2026-05-01T08:37:37Z</time></trkpt><trkpt lat="44.699127850531774" lon="1.0131831144743473"><ele>243.59999999999997</ele><time>2026-05-01T08:37:38Z</time></trkpt><trkpt lat="44.69905587789475" lon="1.0131172438133311"><ele>243.79999999999998</ele><time>2026-05-01T08:37:39Z</time></trkpt><trkpt lat="44.69896487059443" lon="1.0130853513496247"><ele>244.0</ele><time>2026-05-01T08:37:41Z</time></trkpt><trkpt lat="44.698902966517274" lon="1.0132013059859368"><ele>244.0</ele><time>2026-05-01T08:37:44Z</time></trkpt><trkpt lat="44.698848060982115" lon="1.01331851384689"><ele>244.0</ele><time>2026-05-01T08:37:45Z</time></trkpt><trkpt lat="44.6988113810889" lon="1.0134566316990168"><ele>244.0</ele><time>2026-05-01T08:37:46Z</time></trkpt><trkpt lat="44.69875547422419" lon="1.0136011976192467"><ele>244.0</ele><time>2026-05-01T08:37:47Z</time></trkpt><trkpt lat="44.6986974133494" lon="1.0137629950132339"><ele>245.0</ele><time>2026-05-01T08:37:48Z</time></trkpt><trkpt lat="44.69866117772246" lon="1.0138934593505504"><ele>246.0</ele><time>2026-05-01T08:37:49Z</time></trkpt><trkpt lat="44.69860153607464" lon="1.0140520678717868"><ele>247.0</ele><time>2026-05-01T08:37:50Z</time></trkpt><trkpt lat="44.69854633386316" lon="1.0142178288981547"><ele>248.0</ele><time>2026-05-01T08:37:51Z</time></trkpt><trkpt lat="44.698483495686226" lon="1.0143572577740951"><ele>251.25</ele><time>2026-05-01T08:37:52Z</time></trkpt><trkpt lat="44.69842048411805" lon="1.0144866069641454"><ele>254.5</ele><time>2026-05-01T08:37:53Z</time></trkpt><trkpt lat="44.69834204669539" lon="1.0146376806631185"><ele>257.75</ele><time>2026-05-01T08:37:54Z</time></trkpt><trkpt lat="44.69826448620813" lon="1.0147714317091086"><ele>261.0</ele><time>2026-05-01T08:37:55Z</time></trkpt><trkpt lat="44.69821571120117" lon="1.0148742213774715"><ele>261.0</ele><time>2026-05-01T08:37:56Z</time></trkpt><trkpt lat="44.69816418687071" lon="1.0149704506381687"><ele>261.0</ele><time>2026-05-01T08:37:57Z</time></trkpt><trkpt lat="44.69810041214876" lon="1.0150770221787788"><ele>261.0</ele><time>2026-05-01T08:37:58Z</time></trkpt><trkpt lat="44.69802786679993" lon="1.0151675894480479"><ele>261.0</ele><time>2026-05-01T08:37:59Z</time></trkpt><trkpt lat="44.69796120190327" lon="1.0152791371290852"><ele>261.0</ele><time>2026-05-01T08:38:00Z</time></trkpt><trkpt lat="44.69789482047548" lon="1.0154075960210467"><ele>261.40000000000003</ele><time>2026-05-01T08:38:01Z</time></trkpt><trkpt lat="44.697844698625104" lon="1.0155039990826082"><ele>261.8</ele><time>2026-05-01T08:38:02Z</time></trkpt><trkpt lat="44.697804842828" lon="1.015631810295546"><ele>262.20000000000005</ele><time>2026-05-01T08:38:04Z</time></trkpt><trkpt lat="44.697811810945176" lon="1.0157199497423015"><ele>262.6</ele><time>2026-05-01T08:38:05Z</time></trkpt><trkpt lat="44.697762568280794" lon="1.0159549001404606"><ele>263.0</ele><time>2026-05-01T08:38:07Z</time></trkpt><trkpt lat="44.69773165590426" lon="1.0160645825186467"><ele>263.33333333333337</ele><time>2026-05-01T08:38:08Z</time></trkpt><trkpt lat="44.69768895648382" lon="1.0161990104156018"><ele>263.6666666666667</ele><time>2026-05-01T08:38:09Z</time></trkpt><trkpt lat="44.69765551545998" lon="1.0163084971393406"><ele>264.0</ele><time>2026-05-01T08:38:10Z</time></trkpt><trkpt lat="44.69761334883549" lon="1.0164026797297603"><ele>264.3333333333333</ele><time>2026-05-01T08:38:11Z</time></trkpt><trkpt lat="44.69755995624896" lon="1.016486870750598"><ele>264.66666666666663</ele><time>2026-05-01T08:38:12Z</time></trkpt><trkpt lat="44.69749917892041" lon="1.016589291438776"><ele>265.0</ele><time>2026-05-01T08:38:13Z</time></trkpt><trkpt lat="44.69744473186294" lon="1.0167017283748048"><ele>265.0</ele><time>2026-05-01T08:38:14Z</time></trkpt><trkpt lat="44.697405584250205" lon="1.0168065339161447"><ele>265.0</ele><time>2026-05-01T08:38:15Z</time></trkpt><trkpt lat="44.69735040527166" lon="1.0169296792751361"><ele>265.0</ele><time>2026-05-01T08:38:16Z</time></trkpt><trkpt lat="44.69729456309947" lon="1.017029124632493"><ele>265.0</ele><time>2026-05-01T08:38:17Z</time></trkpt><trkpt lat="44.697244532950265" lon="1.0171293853601127"><ele>265.0</ele><time>2026-05-01T08:38:18Z</time></trkpt><trkpt lat="44.697185296327845" lon="1.0172337930806583"><ele>265.0</ele><time>2026-05-01T08:38:19Z</time></trkpt><trkpt lat="44.697134549127504" lon="1.0173112037502248"><ele>265.0</ele><time>2026-05-01T08:38:20Z</time></trkpt><trkpt lat="44.69707413797534" lon="1.0174298640633976"><ele>265.0</ele><time>2026-05-01T08:38:21Z</time></trkpt><trkpt lat="44.69701459189" lon="1.0175450307909575"><ele>265.0</ele><time>2026-05-01T08:38:22Z</time></trkpt><trkpt lat="44.69697613106981" lon="1.0176512228215038"><ele>265.0</ele><time>2026-05-01T08:38:23Z</time></trkpt><trkpt lat="44.69692016845334" lon="1.0177809669490323"><ele>262.75</ele><time>2026-05-01T08:38:24Z</time></trkpt><trkpt lat="44.69688278639635" lon="1.0179263906011806"><ele>260.5</ele><time>2026-05-01T08:38:25Z</time></trkpt><trkpt lat="44.69683099996623" lon="1.0180661071524444"><ele>258.25</ele><time>2026-05-01T08:38:26Z</time></trkpt><trkpt lat="44.69679522951914" lon="1.0182212846222913"><ele>256.0</ele><time>2026-05-01T08:38:27Z</time></trkpt><trkpt lat="44.69674728902549" lon="1.0183645358792055"><ele>255.4</ele><time>2026-05-01T08:38:28Z</time></trkpt><trkpt lat="44.69669801486569" lon="1.0185454179498286"><ele>254.8</ele><time>2026-05-01T08:38:29Z</time></trkpt><trkpt lat="44.6966984150651" lon="1.0186819580771531"><ele>254.20000000000002</ele><time>2026-05-01T08:38:30Z</time></trkpt><trkpt lat="44.69666431222259" lon="1.0187876604919006"><ele>253.60000000000002</ele><time>2026-05-01T08:38:31Z</time></trkpt><trkpt lat="44.696630241851274" lon="1.0188741526447411"><ele>253.0</ele><time>2026-05-01T08:38:32Z</time></trkpt><trkpt lat="44.69659365242679" lon="1.0189560586043962"><ele>253.0</ele><time>2026-05-01T08:38:33Z</time></trkpt><trkpt lat="44.696547292795636" lon="1.019026013147066"><ele>253.0</ele><time>2026-05-01T08:38:34Z</time></trkpt><trkpt lat="44.69645826226452" lon="1.0191007780087333"><ele>253.0</ele><time>2026-05-01T08:38:36Z</time></trkpt><trkpt lat="44.69637299745809" lon="1.0191102170533675"><ele>253.0</ele><time>2026-05-01T08:38:37Z</time></trkpt><trkpt lat="44.69627554680938" lon="1.019079188165574"><ele>253.0</ele><time>2026-05-01T08:38:38Z</time></trkpt><trkpt lat="44.69617030057893" lon="1.0190438538603894"><ele>254.2</ele><time>2026-05-01T08:38:39Z</time></trkpt><trkpt lat="44.69606753392202" lon="1.0189975590654257"><ele>255.4</ele><time>2026-05-01T08:38:40Z</time></trkpt><trkpt lat="44.695978151912925" lon="1.0189295567805574"><ele>256.59999999999997</ele><time>2026-05-01T08:38:41Z</time></trkpt><trkpt lat="44.695877734879645" lon="1.0189077214377433"><ele>257.8</ele><time>2026-05-01T08:38:42Z</time></trkpt><trkpt lat="44.69578643646225" lon="1.0189047838517429"><ele>259.0</ele><time>2026-05-01T08:38:43Z</time></trkpt><trkpt lat="44.69567837166079" lon="1.0189052210121483"><ele>259.0</ele><time>2026-05-01T08:38:44Z</time></trkpt><trkpt lat="44.695564888638664" lon="1.018916345198359"><ele>259.0</ele><time>2026-05-01T08:38:45Z</time></trkpt><trkpt lat="44.69548076038051" lon="1.0188683387215842"><ele>259.0</ele><time>2026-05-01T08:38:46Z</time></trkpt><trkpt lat="44.69540448085179" lon="1.0188359246949492"><ele>259.0</ele><time>2026-05-01T08:38:47Z</time></trkpt><trkpt lat="44.695324819356344" lon="1.0187735020703756"><ele>259.0</ele><time>2026-05-01T08:38:48Z</time></trkpt><trkpt lat="44.69524032513761" lon="1.0187119765234134"><ele>260.0</ele><time>2026-05-01T08:38:49Z</time></trkpt><trkpt lat="44.69513600870871" lon="1.0186791496738903"><ele>261.0</ele><time>2026-05-01T08:38:50Z</time></trkpt><trkpt lat="44.6950346445708" lon="1.0186546907630534"><ele>262.0</ele><time>2026-05-01T08:38:51Z</time></trkpt><trkpt lat="44.69495168734147" lon="1.0186428375412715"><ele>263.0</ele><time>2026-05-01T08:38:52Z</time></trkpt><trkpt lat="44.69486781506387" lon="1.0186311863709785"><ele>264.0</ele><time>2026-05-01T08:38:53Z</time></trkpt><trkpt lat="44.694765955014525" lon="1.0186224246498654"><ele>264.0</ele><time>2026-05-01T08:38:54Z</time></trkpt><trkpt lat="44.69466477415733" lon="1.0186246462617339"><ele>264.0</ele><time>2026-05-01T08:38:55Z</time></trkpt><trkpt lat="44.69456048378042" lon="1.0186035694139282"><ele>264.0</ele><time>2026-05-01T08:38:56Z</time></trkpt><trkpt lat="44.69446337638318" lon="1.018604112724173"><ele>264.0</ele><time>2026-05-01T08:38:57Z</time></trkpt><trkpt lat="44.694381417645765" lon="1.0186463572643658"><ele>264.0</ele><time>2026-05-01T08:38:58Z</time></trkpt><trkpt lat="44.69428567948185" lon="1.0186979205800843"><ele>263.5</ele><time>2026-05-01T08:38:59Z</time></trkpt><trkpt lat="44.69418988024202" lon="1.0187530543478764"><ele>263.0</ele><time>2026-05-01T08:39:00Z</time></trkpt><trkpt lat="44.69410274611748" lon="1.0187886163996756"><ele>262.5</ele><time>2026-05-01T08:39:01Z</time></trkpt><trkpt lat="44.694035547825976" lon="1.0188048685092836"><ele>262.0</ele><time>2026-05-01T08:39:02Z</time></trkpt><trkpt lat="44.69397289731741" lon="1.0187893687674738"><ele>261.5</ele><time>2026-05-01T08:39:03Z</time></trkpt><trkpt lat="44.69390860600744" lon="1.0187609402827762"><ele>261.0</ele><time>2026-05-01T08:39:05Z</time></trkpt><trkpt lat="44.693821108631944" lon="1.0188207902508468"><ele>261.0</ele><time>2026-05-01T08:39:11Z</time></trkpt><trkpt lat="44.69375813101876" lon="1.0188304161835182"><ele>261.0</ele><time>2026-05-01T08:39:12Z</time></trkpt><trkpt lat="44.693675868242636" lon="1.018839802113848"><ele>261.0</ele><time>2026-05-01T08:39:13Z</time></trkpt><trkpt lat="44.69359387476221" lon="1.0188568063102148"><ele>261.0</ele><time>2026-05-01T08:39:14Z</time></trkpt><trkpt lat="44.693531128634376" lon="1.018879762666172"><ele>261.0</ele><time>2026-05-01T08:39:15Z</time></trkpt><trkpt lat="44.69345574359525" lon="1.0189290147502297"><ele>261.0</ele><time>2026-05-01T08:39:16Z</time></trkpt><trkpt lat="44.693381328711816" lon="1.0190340556012654"><ele>260.1666666666667</ele><time>2026-05-01T08:39:17Z</time></trkpt><trkpt lat="44.693320914975025" lon="1.0191040629676438"><ele>259.3333333333333</ele><time>2026-05-01T08:39:18Z</time></trkpt><trkpt lat="44.69325931798802" lon="1.0191394277154697"><ele>258.5</ele><time>2026-05-01T08:39:19Z</time></trkpt><trkpt lat="44.693184295239924" lon="1.019141948433441"><ele>257.66666666666663</ele><time>2026-05-01T08:39:20Z</time></trkpt><trkpt lat="44.693102850359985" lon="1.0191310705335765"><ele>256.8333333333333</ele><time>2026-05-01T08:39:21Z</time></trkpt><trkpt lat="44.69300826610611" lon="1.0191324561894193"><ele>256.0</ele><time>2026-05-01T08:39:22Z</time></trkpt><trkpt lat="44.69291871918575" lon="1.019163594296364"><ele>256.0</ele><time>2026-05-01T08:39:23Z</time></trkpt><trkpt lat="44.69276435175757" lon="1.0191799989406576"><ele>256.0</ele><time>2026-05-01T08:39:25Z</time></trkpt><trkpt lat="44.6926454586919" lon="1.0192326766431314"><ele>256.0</ele><time>2026-05-01T08:39:27Z</time></trkpt><trkpt lat="44.69257398698455" lon="1.0192499641551462"><ele>256.0</ele><time>2026-05-01T08:39:28Z</time></trkpt><trkpt lat="44.69244811401852" lon="1.0192409260351718"><ele>254.99999999999997</ele><time>2026-05-01T08:39:30Z</time></trkpt><trkpt lat="44.692372618266816" lon="1.0192384456420014"><ele>254.0</ele><time>2026-05-01T08:39:31Z</time></trkpt><trkpt lat="44.69229644806167" lon="1.0192597620372013"><ele>253.0</ele><time>2026-05-01T08:39:32Z</time></trkpt><trkpt lat="44.69223210621693" lon="1.019275145416245"><ele>252.0</ele><time>2026-05-01T08:39:33Z</time></trkpt><trkpt lat="44.692144844779385" lon="1.0192768987244971"><ele>250.99999999999997</ele><time>2026-05-01T08:39:34Z</time></trkpt><trkpt lat="44.69204505766227" lon="1.0193090196400307"><ele>250.0</ele><time>2026-05-01T08:39:35Z</time></trkpt><trkpt lat="44.691970031233005" lon="1.0193443636697548"><ele>249.4</ele><time>2026-05-01T08:39:36Z</time></trkpt><trkpt lat="44.69190689456027" lon="1.0193519897274799"><ele>248.8</ele><time>2026-05-01T08:39:37Z</time></trkpt><trkpt lat="44.69180845630046" lon="1.019344632675399"><ele>248.2</ele><time>2026-05-01T08:39:38Z</time></trkpt><trkpt lat="44.691715415910494" lon="1.0193474510485485"><ele>247.6</ele><time>2026-05-01T08:39:39Z</time></trkpt><trkpt lat="44.691642490677395" lon="1.0193629754126814"><ele>247.0</ele><time>2026-05-01T08:39:40Z</time></trkpt><trkpt lat="44.691538583071626" lon="1.0194511052133264"><ele>246.99999999999997</ele><time>2026-05-01T08:39:42Z</time></trkpt><trkpt lat="44.69147838122883" lon="1.0195379566381075"><ele>247.0</ele><time>2026-05-01T08:39:43Z</time></trkpt><trkpt lat="44.69138950907482" lon="1.0195823977647018"><ele>247.0</ele><time>2026-05-01T08:39:45Z</time></trkpt><trkpt lat="44.69127824512384" lon="1.019505341727681"><ele>247.0</ele><time>2026-05-01T08:39:47Z</time></trkpt><trkpt lat="44.691221430190204" lon="1.0194577303944639"><ele>246.99999999999997</ele><time>2026-05-01T08:39:48Z</time></trkpt><trkpt lat="44.691178867069326" lon="1.0193919956518311"><ele>247.0</ele><time>2026-05-01T08:39:49Z</time></trkpt><trkpt lat="44.69113238692895" lon="1.0193269187016094"><ele>246.0</ele><time>2026-05-01T08:39:50Z</time></trkpt><trkpt lat="44.69102167798971" lon="1.0193290350283435"><ele>245.0</ele><time>2026-05-01T08:39:52Z</time></trkpt><trkpt lat="44.690931933136966" lon="1.0193516330219574"><ele>244.0</ele><time>2026-05-01T08:39:54Z</time></trkpt><trkpt lat="44.69087424028234" lon="1.0192157999155629"><ele>243.0</ele><time>2026-05-01T08:39:56Z</time></trkpt><trkpt lat="44.69080775221487" lon="1.0192557808556943"><ele>242.0</ele><time>2026-05-01T08:39:59Z</time></trkpt><trkpt lat="44.690728751261446" lon="1.0194062943270286"><ele>242.0</ele><time>2026-05-01T08:40:01Z</time></trkpt><trkpt lat="44.690670637513435" lon="1.0195278243371417"><ele>242.0</ele><time>2026-05-01T08:40:02Z</time></trkpt><trkpt lat="44.690601700387646" lon="1.019629444422678"><ele>242.0</ele><time>2026-05-01T08:40:03Z</time></trkpt><trkpt lat="44.69053539433921" lon="1.019727183353976"><ele>242.0</ele><time>2026-05-01T08:40:04Z</time></trkpt><trkpt lat="44.69048637610011" lon="1.0198343337036295"><ele>242.0</ele><time>2026-05-01T08:40:05Z</time></trkpt><trkpt lat="44.690410641435015" lon="1.0199519557361298"><ele>241.8</ele><time>2026-05-01T08:40:06Z</time></trkpt><trkpt lat="44.69034046095313" lon="1.0200464002421394"><ele>241.6</ele><time>2026-05-01T08:40:07Z</time></trkpt><trkpt lat="44.690256775273184" lon="1.0201150889174584"><ele>241.40000000000003</ele><time>2026-05-01T08:40:08Z</time></trkpt><trkpt lat="44.69016494364513" lon="1.020181994888964"><ele>241.20000000000002</ele><time>2026-05-01T08:40:09Z</time></trkpt><trkpt lat="44.69006648899722" lon="1.020238128693547"><ele>241.0</ele><time>2026-05-01T08:40:10Z</time></trkpt><trkpt lat="44.68994625931792" lon="1.0202804572752753"><ele>241.0</ele><time>2026-05-01T08:40:11Z</time></trkpt><trkpt lat="44.68984011724475" lon="1.0203439881411553"><ele>241.0</ele><time>2026-05-01T08:40:12Z</time></trkpt><trkpt lat="44.68973860370833" lon="1.020394025781681"><ele>241.0</ele><time>2026-05-01T08:40:13Z</time></trkpt><trkpt lat="44.689625030136575" lon="1.020459230584571"><ele>241.0</ele><time>2026-05-01T08:40:14Z</time></trkpt><trkpt lat="44.68951757961268" lon="1.0205283272046421"><ele>240.0</ele><time>2026-05-01T08:40:15Z</time></trkpt><trkpt lat="44.68940344596277" lon="1.0205926925927569"><ele>239.0</ele><time>2026-05-01T08:40:16Z</time></trkpt><trkpt lat="44.689279767665795" lon="1.0206528153451095"><ele>238.0</ele><time>2026-05-01T08:40:17Z</time></trkpt><trkpt lat="44.68916294595411" lon="1.0207074534246767"><ele>237.0</ele><time>2026-05-01T08:40:18Z</time></trkpt><trkpt lat="44.68903965881041" lon="1.020744854028287"><ele>237.0</ele><time>2026-05-01T08:40:19Z</time></trkpt><trkpt lat="44.6889223155763" lon="1.020787041548615"><ele>237.0</ele><time>2026-05-01T08:40:20Z</time></trkpt><trkpt lat="44.688821922982335" lon="1.0208199461412233"><ele>237.0</ele><time>2026-05-01T08:40:21Z</time></trkpt><trkpt lat="44.68873305126391" lon="1.020860824883619"><ele>237.0</ele><time>2026-05-01T08:40:22Z</time></trkpt><trkpt lat="44.688649631736865" lon="1.0209228019671244"><ele>237.0</ele><time>2026-05-01T08:40:23Z</time></trkpt><trkpt lat="44.68856992803691" lon="1.0209913976113294"><ele>238.2</ele><time>2026-05-01T08:40:24Z</time></trkpt><trkpt lat="44.68848513832295" lon="1.0210788165114462"><ele>239.39999999999998</ele><time>2026-05-01T08:40:25Z</time></trkpt><trkpt lat="44.68842414491087" lon="1.0211490530714145"><ele>240.60000000000002</ele><time>2026-05-01T08:40:26Z</time></trkpt><trkpt lat="44.68835359198986" lon="1.021208676093368"><ele>241.8</ele><time>2026-05-01T08:40:27Z</time></trkpt><trkpt lat="44.68830554686051" lon="1.0212916389887063"><ele>243.0</ele><time>2026-05-01T08:40:28Z</time></trkpt><trkpt lat="44.68823319287113" lon="1.0214067200052854"><ele>243.0</ele><time>2026-05-01T08:40:29Z</time></trkpt><trkpt lat="44.68816719596747" lon="1.0215336989364612"><ele>243.0</ele><time>2026-05-01T08:40:30Z</time></trkpt><trkpt lat="44.68808165388704" lon="1.02165113644988"><ele>243.0</ele><time>2026-05-01T08:40:31Z</time></trkpt><trkpt lat="44.68799926705698" lon="1.0217615957566852"><ele>243.0</ele><time>2026-05-01T08:40:32Z</time></trkpt><trkpt lat="44.68788987340261" lon="1.0219097263157486"><ele>243.83333333333334</ele><time>2026-05-01T08:40:33Z</time></trkpt><trkpt lat="44.687812814036505" lon="1.0219849615432577"><ele>244.66666666666669</ele><time>2026-05-01T08:40:34Z</time></trkpt><trkpt lat="44.68777331048942" lon="1.022076247704338"><ele>245.5</ele><time>2026-05-01T08:40:35Z</time></trkpt><trkpt lat="44.68772024696313" lon="1.0221408172562845"><ele>246.33333333333334</ele><time>2026-05-01T08:40:36Z</time></trkpt><trkpt lat="44.68765923789396" lon="1.0222208913912176"><ele>247.16666666666669</ele><time>2026-05-01T08:40:38Z</time></trkpt><trkpt lat="44.687586137744944" lon="1.0221366199221023"><ele>248.0</ele><time>2026-05-01T08:40:40Z</time></trkpt><trkpt lat="44.68747264900586" lon="1.0220968739843035"><ele>248.00000000000003</ele><time>2026-05-01T08:40:42Z</time></trkpt><trkpt lat="44.687375405525174" lon="1.0220876348130326"><ele>248.0</ele><time>2026-05-01T08:40:44Z</time></trkpt><trkpt lat="44.68730066648341" lon="1.0220690465421463"><ele>248.0</ele><time>2026-05-01T08:40:46Z</time></trkpt><trkpt lat="44.68723476953093" lon="1.022057780171519"><ele>248.0</ele><time>2026-05-01T08:40:47Z</time></trkpt><trkpt lat="44.68716007216405" lon="1.0220792190807368"><ele>248.00000000000003</ele><time>2026-05-01T08:40:48Z</time></trkpt><trkpt lat="44.68707150980199" lon="1.0220717028272577"><ele>248.0</ele><time>2026-05-01T08:40:49Z</time></trkpt><trkpt lat="44.68698146366832" lon="1.0220599167592914"><ele>247.16666666666669</ele><time>2026-05-01T08:40:50Z</time></trkpt><trkpt lat="44.68690634855106" lon="1.0220544577550639"><ele>246.33333333333334</ele><time>2026-05-01T08:40:51Z</time></trkpt><trkpt lat="44.68684196268154" lon="1.022030644437327"><ele>245.5</ele><time>2026-05-01T08:40:52Z</time></trkpt><trkpt lat="44.68678185971117" lon="1.021977092530247"><ele>244.66666666666669</ele><time>2026-05-01T08:40:53Z</time></trkpt><trkpt lat="44.686715163278826" lon="1.0219171607287334"><ele>243.83333333333334</ele><time>2026-05-01T08:40:54Z</time></trkpt><trkpt lat="44.68663842626242" lon="1.0218701707520248"><ele>243.0</ele><time>2026-05-01T08:40:55Z</time></trkpt><trkpt lat="44.686533844338506" lon="1.0218058431549413"><ele>243.0</ele><time>2026-05-01T08:40:56Z</time></trkpt><trkpt lat="44.68645151141439" lon="1.021739440044365"><ele>243.0</ele><time>2026-05-01T08:40:57Z</time></trkpt><trkpt lat="44.68637692600342" lon="1.0216821173185247"><ele>243.0</ele><time>2026-05-01T08:40:58Z</time></trkpt><trkpt lat="44.68631927586494" lon="1.0216304134007708"><ele>243.0</ele><time>2026-05-01T08:40:59Z</time></trkpt><trkpt lat="44.68623202410729" lon="1.0215606067742402"><ele>243.0</ele><time>2026-05-01T08:41:00Z</time></trkpt><trkpt lat="44.68616752299845" lon="1.0215006330986693"><ele>243.0</ele><time>2026-05-01T08:41:01Z</time></trkpt><trkpt lat="44.68610955262466" lon="1.0214405254810037"><ele>240.66666666666666</ele><time>2026-05-01T08:41:02Z</time></trkpt><trkpt lat="44.686054512003615" lon="1.0213769656890166"><ele>238.33333333333331</ele><time>2026-05-01T08:41:03Z</time></trkpt><trkpt lat="44.68594739539574" lon="1.0213000922281015"><ele>236.0</ele><time>2026-05-01T08:41:05Z</time></trkpt><trkpt lat="44.68590571894227" lon="1.0212294163763105"><ele>233.66666666666666</ele><time>2026-05-01T08:41:06Z</time></trkpt><trkpt lat="44.68585239285978" lon="1.0211416154271686"><ele>231.33333333333331</ele><time>2026-05-01T08:41:07Z</time></trkpt><trkpt lat="44.68576928341903" lon="1.0210700908321528"><ele>229.0</ele><time>2026-05-01T08:41:08Z</time></trkpt><trkpt lat="44.68567682030546" lon="1.0209987848624704"><ele>228.99999999999997</ele><time>2026-05-01T08:41:09Z</time></trkpt><trkpt lat="44.685584664809205" lon="1.020922125651359"><ele>229.0</ele><time>2026-05-01T08:41:10Z</time></trkpt><trkpt lat="44.68551045676553" lon="1.020853876130337"><ele>229.0</ele><time>2026-05-01T08:41:11Z</time></trkpt><trkpt lat="44.68542792910262" lon="1.020803458361227"><ele>229.0</ele><time>2026-05-01T08:41:12Z</time></trkpt><trkpt lat="44.685355149950595" lon="1.0207521420948584"><ele>228.99999999999997</ele><time>2026-05-01T08:41:13Z</time></trkpt><trkpt lat="44.68529142444082" lon="1.0207070494614048"><ele>229.0</ele><time>2026-05-01T08:41:14Z</time></trkpt><trkpt lat="44.68522757639688" lon="1.020646174045867"><ele>227.14285714285714</ele><time>2026-05-01T08:41:15Z</time></trkpt><trkpt lat="44.68517555454535" lon="1.0205910792865416"><ele>225.2857142857143</ele><time>2026-05-01T08:41:16Z</time></trkpt><trkpt lat="44.68511015629905" lon="1.020530199930688"><ele>223.42857142857144</ele><time>2026-05-01T08:41:17Z</time></trkpt><trkpt lat="44.68504248841891" lon="1.0205116595302028"><ele>221.57142857142856</ele><time>2026-05-01T08:41:18Z</time></trkpt><trkpt lat="44.6849697819566" lon="1.0204829955408241"><ele>219.71428571428572</ele><time>2026-05-01T08:41:19Z</time></trkpt><trkpt lat="44.68490688648576" lon="1.0204570880622297"><ele>217.85714285714286</ele><time>2026-05-01T08:41:20Z</time></trkpt><trkpt lat="44.684833138104416" lon="1.0204410804217583"><ele>216.0</ele><time>2026-05-01T08:41:21Z</time></trkpt><trkpt lat="44.6847679260334" lon="1.0204515008006043"><ele>216.0</ele><time>2026-05-01T08:41:22Z</time></trkpt><trkpt lat="44.68468883290844" lon="1.0204210264387286"><ele>216.00000000000003</ele><time>2026-05-01T08:41:24Z</time></trkpt><trkpt lat="44.68461189019764" lon="1.020279631440933"><ele>216.00000000000003</ele><time>2026-05-01T08:41:26Z</time></trkpt><trkpt lat="44.68452838022112" lon="1.0202365291973894"><ele>216.0</ele><time>2026-05-01T08:41:27Z</time></trkpt><trkpt lat="44.684452958444034" lon="1.0202344603534004"><ele>216.0</ele><time>2026-05-01T08:41:28Z</time></trkpt><trkpt lat="44.68437100471476" lon="1.0201173372058003"><ele>215.60000000000002</ele><time>2026-05-01T08:41:30Z</time></trkpt><trkpt lat="44.68434944357034" lon="1.0199646820537513"><ele>215.20000000000002</ele><time>2026-05-01T08:41:32Z</time></trkpt><trkpt lat="44.6843448870761" lon="1.0198091946227439"><ele>214.79999999999998</ele><time>2026-05-01T08:41:34Z</time></trkpt><trkpt lat="44.6842934598204" lon="1.0197344845300687"><ele>214.39999999999998</ele><time>2026-05-01T08:41:40Z</time></trkpt><trkpt lat="44.68416281876776" lon="1.0197522344927186"><ele>214.0</ele><time>2026-05-01T08:41:42Z</time></trkpt><trkpt lat="44.684084422097754" lon="1.0197387134018023"><ele>214.0</ele><time>2026-05-01T08:41:43Z</time></trkpt><trkpt lat="44.68400421390214" lon="1.0197338712462793"><ele>213.99999999999997</ele><time>2026-05-01T08:41:44Z</time></trkpt><trkpt lat="44.68391555608186" lon="1.019730575724137"><ele>213.99999999999997</ele><time>2026-05-01T08:41:45Z</time></trkpt><trkpt lat="44.68382452293018" lon="1.0197159984133088"><ele>214.0</ele><time>2026-05-01T08:41:46Z</time></trkpt><trkpt lat="44.683721422937886" lon="1.0196912383992334"><ele>214.0</ele><time>2026-05-01T08:41:47Z</time></trkpt><trkpt lat="44.68362164719993" lon="1.0196603975191318"><ele>214.0</ele><time>2026-05-01T08:41:48Z</time></trkpt><trkpt lat="44.683516423461796" lon="1.0196195923911"><ele>214.0</ele><time>2026-05-01T08:41:49Z</time></trkpt><trkpt lat="44.683405380056385" lon="1.0195711178610976"><ele>214.0</ele><time>2026-05-01T08:41:50Z</time></trkpt><trkpt lat="44.68329142860704" lon="1.0195156908131955"><ele>214.0</ele><time>2026-05-01T08:41:51Z</time></trkpt><trkpt lat="44.68318138382129" lon="1.0194588317955968"><ele>214.0</ele><time>2026-05-01T08:41:52Z</time></trkpt><trkpt lat="44.68307222463475" lon="1.0194001899848153"><ele>214.0</ele><time>2026-05-01T08:41:53Z</time></trkpt><trkpt lat="44.68296312921841" lon="1.019335497643363"><ele>214.0</ele><time>2026-05-01T08:41:54Z</time></trkpt><trkpt lat="44.682849625582044" lon="1.0192662879503156"><ele>214.0</ele><time>2026-05-01T08:41:55Z</time></trkpt><trkpt lat="44.68273442658533" lon="1.0192112924869554"><ele>217.0</ele><time>2026-05-01T08:41:56Z</time></trkpt><trkpt lat="44.682618381665876" lon="1.0191448533450111"><ele>220.0</ele><time>2026-05-01T08:41:57Z</time></trkpt><trkpt lat="44.6825012204226" lon="1.0190974696451747"><ele>223.0</ele><time>2026-05-01T08:41:58Z</time></trkpt><trkpt lat="44.68238131208195" lon="1.019075295642487"><ele>226.0</ele><time>2026-05-01T08:41:59Z</time></trkpt><trkpt lat="44.682259776378196" lon="1.019066327362693"><ele>226.0</ele><time>2026-05-01T08:42:00Z</time></trkpt><trkpt lat="44.68213373785682" lon="1.0190666448927517"><ele>226.0</ele><time>2026-05-01T08:42:01Z</time></trkpt><trkpt lat="44.68200760064177" lon="1.0190778885930474"><ele>226.0</ele><time>2026-05-01T08:42:02Z</time></trkpt><trkpt lat="44.68188212318409" lon="1.01909353391956"><ele>226.0</ele><time>2026-05-01T08:42:03Z</time></trkpt><trkpt lat="44.68175492659744" lon="1.0191100732114378"><ele>225.75</ele><time>2026-05-01T08:42:04Z</time></trkpt><trkpt lat="44.68162893799796" lon="1.0191180820612744"><ele>225.5</ele><time>2026-05-01T08:42:05Z</time></trkpt><trkpt lat="44.68151070644636" lon="1.0191256550969399"><ele>225.25</ele><time>2026-05-01T08:42:06Z</time></trkpt><trkpt lat="44.6813843076255" lon="1.0191428765123849"><ele>225.0</ele><time>2026-05-01T08:42:07Z</time></trkpt><trkpt lat="44.68125925185711" lon="1.019154832875619"><ele>222.25</ele><time>2026-05-01T08:42:08Z</time></trkpt><trkpt lat="44.68113158768926" lon="1.0191670585168748"><ele>219.5</ele><time>2026-05-01T08:42:09Z</time></trkpt><trkpt lat="44.68100465774002" lon="1.0191712078331467"><ele>216.75</ele><time>2026-05-01T08:42:10Z</time></trkpt><trkpt lat="44.68087708436849" lon="1.0191805804052783"><ele>214.0</ele><time>2026-05-01T08:42:11Z</time></trkpt><trkpt lat="44.68074485595162" lon="1.0191965760082655"><ele>214.0</ele><time>2026-05-01T08:42:12Z</time></trkpt><trkpt lat="44.680614656222964" lon="1.019220187761796"><ele>214.0</ele><time>2026-05-01T08:42:13Z</time></trkpt><trkpt lat="44.68048455616295" lon="1.019248565175339"><ele>214.0</ele><time>2026-05-01T08:42:14Z</time></trkpt><trkpt lat="44.68035087144879" lon="1.0192858905423166"><ele>214.0</ele><time>2026-05-01T08:42:15Z</time></trkpt><trkpt lat="44.68022288919256" lon="1.0193329204466934"><ele>214.0</ele><time>2026-05-01T08:42:16Z</time></trkpt><trkpt lat="44.68009738359797" lon="1.0193945633847439"><ele>214.0</ele><time>2026-05-01T08:42:17Z</time></trkpt><trkpt lat="44.679970579310194" lon="1.019476601061496"><ele>214.0</ele><time>2026-05-01T08:42:18Z</time></trkpt><trkpt lat="44.67983473830227" lon="1.0195539668253175"><ele>214.0</ele><time>2026-05-01T08:42:19Z</time></trkpt><trkpt lat="44.67970798094323" lon="1.0196475059199792"><ele>214.0</ele><time>2026-05-01T08:42:20Z</time></trkpt><trkpt lat="44.67959107504468" lon="1.0197439848364895"><ele>214.0</ele><time>2026-05-01T08:42:21Z</time></trkpt><trkpt lat="44.67949055006088" lon="1.0198399712847903"><ele>214.0</ele><time>2026-05-01T08:42:22Z</time></trkpt><trkpt lat="44.67939944310732" lon="1.0199376330590733"><ele>214.0</ele><time>2026-05-01T08:42:23Z</time></trkpt><trkpt lat="44.67931155869218" lon="1.0200254463258194"><ele>213.16666666666666</ele><time>2026-05-01T08:42:24Z</time></trkpt><trkpt lat="44.67922583077554" lon="1.0201004669918738"><ele>212.33333333333331</ele><time>2026-05-01T08:42:25Z</time></trkpt><trkpt lat="44.67914586710688" lon="1.0201591166142179"><ele>211.5</ele><time>2026-05-01T08:42:26Z</time></trkpt><trkpt lat="44.679072416216265" lon="1.02022738616133"><ele>210.66666666666669</ele><time>2026-05-01T08:42:27Z</time></trkpt><trkpt lat="44.679005086341114" lon="1.020305521644043"><ele>209.83333333333334</ele><time>2026-05-01T08:42:28Z</time></trkpt><trkpt lat="44.67894004703593" lon="1.0203439672194592"><ele>209.0</ele><time>2026-05-01T08:42:29Z</time></trkpt><trkpt lat="44.67887866876976" lon="1.0203016250451993"><ele>209.0</ele><time>2026-05-01T08:42:30Z</time></trkpt><trkpt lat="44.67885478483395" lon="1.020104538677984"><ele>209.0</ele><time>2026-05-01T08:42:32Z</time></trkpt><trkpt lat="44.678856683472226" lon="1.0199747113065871"><ele>209.0</ele><time>2026-05-01T08:42:33Z</time></trkpt><trkpt lat="44.678872047741955" lon="1.0198417535135371"><ele>209.0</ele><time>2026-05-01T08:42:34Z</time></trkpt><trkpt lat="44.67888269344113" lon="1.0197419093014444"><ele>209.0</ele><time>2026-05-01T08:42:35Z</time></trkpt><trkpt lat="44.67887181322398" lon="1.019630943185198"><ele>210.25</ele><time>2026-05-01T08:42:37Z</time></trkpt><trkpt lat="44.67868387505546" lon="1.0197579885615404"><ele>211.5</ele><time>2026-05-01T08:42:40Z</time></trkpt><trkpt lat="44.678612685067876" lon="1.0198704418709255"><ele>212.75</ele><time>2026-05-01T08:42:41Z</time></trkpt><trkpt lat="44.67853594237984" lon="1.0199897492801178"><ele>214.0</ele><time>2026-05-01T08:42:42Z</time></trkpt><trkpt lat="44.678463175831126" lon="1.020101844549565"><ele>214.2</ele><time>2026-05-01T08:42:43Z</time></trkpt><trkpt lat="44.678398542746535" lon="1.0201990127637033"><ele>214.39999999999998</ele><time>2026-05-01T08:42:44Z</time></trkpt><trkpt lat="44.67832808519842" lon="1.0202875402962683"><ele>214.6</ele><time>2026-05-01T08:42:45Z</time></trkpt><trkpt lat="44.678248267957386" lon="1.020359948583081"><ele>214.8</ele><time>2026-05-01T08:42:46Z</time></trkpt><trkpt lat="44.678153429703386" lon="1.020419990606219"><ele>215.0</ele><time>2026-05-01T08:42:47Z</time></trkpt><trkpt lat="44.6780465309822" lon="1.0204637972913306"><ele>215.0</ele><time>2026-05-01T08:42:48Z</time></trkpt><trkpt lat="44.67793405007686" lon="1.0204832934649535"><ele>215.0</ele><time>2026-05-01T08:42:49Z</time></trkpt><trkpt lat="44.67784548395809" lon="1.0204780257185802"><ele>215.0</ele><time>2026-05-01T08:42:50Z</time></trkpt><trkpt lat="44.677768404485086" lon="1.0204413765107287"><ele>215.0</ele><time>2026-05-01T08:42:52Z</time></trkpt><trkpt lat="44.67768350612161" lon="1.0204085800026172"><ele>215.0</ele><time>2026-05-01T08:42:55Z</time></trkpt><trkpt lat="44.67756085782151" lon="1.0203259424812818"><ele>215.75</ele><time>2026-05-01T08:42:57Z</time></trkpt><trkpt lat="44.67747756508322" lon="1.020272737828597"><ele>216.5</ele><time>2026-05-01T08:42:58Z</time></trkpt><trkpt lat="44.6773777704933" lon="1.0202116823227487"><ele>217.25</ele><time>2026-05-01T08:42:59Z</time></trkpt><trkpt lat="44.67726025895177" lon="1.0201442974687283"><ele>218.0</ele><time>2026-05-01T08:43:00Z</time></trkpt><trkpt lat="44.677143741994605" lon="1.0200847173853287"><ele>218.0</ele><time>2026-05-01T08:43:01Z</time></trkpt><trkpt lat="44.677016506934976" lon="1.0200350494997517"><ele>218.0</ele><time>2026-05-01T08:43:02Z</time></trkpt><trkpt lat="44.67689883948642" lon="1.019994752462967"><ele>218.0</ele><time>2026-05-01T08:43:03Z</time></trkpt><trkpt lat="44.676779280587475" lon="1.019948685813822"><ele>218.0</ele><time>2026-05-01T08:43:04Z</time></trkpt><trkpt lat="44.676664497666856" lon="1.0198954366518846"><ele>219.0</ele><time>2026-05-01T08:43:05Z</time></trkpt><trkpt lat="44.676548630493954" lon="1.0198352726807527"><ele>220.0</ele><time>2026-05-01T08:43:06Z</time></trkpt><trkpt lat="44.67643468761951" lon="1.0197883708286202"><ele>221.0</ele><time>2026-05-01T08:43:07Z</time></trkpt><trkpt lat="44.67633385970532" lon="1.0197539363572299"><ele>222.0</ele><time>2026-05-01T08:43:08Z</time></trkpt><trkpt lat="44.67622271668847" lon="1.0197416488711852"><ele>219.5</ele><time>2026-05-01T08:43:09Z</time></trkpt><trkpt lat="44.6760814902804" lon="1.0197196520451322"><ele>217.0</ele><time>2026-05-01T08:43:10Z</time></trkpt><trkpt lat="44.67597502370975" lon="1.0196936250047262"><ele>214.5</ele><time>2026-05-01T08:43:11Z</time></trkpt><trkpt lat="44.675853961829645" lon="1.0196390537822877"><ele>212.0</ele><time>2026-05-01T08:43:12Z</time></trkpt><trkpt lat="44.6757515328947" lon="1.0196111566485595"><ele>212.0</ele><time>2026-05-01T08:43:13Z</time></trkpt><trkpt lat="44.67564791973341" lon="1.0195802355775703"><ele>212.0</ele><time>2026-05-01T08:43:14Z</time></trkpt><trkpt lat="44.67554130857954" lon="1.0195493175137689"><ele>212.0</ele><time>2026-05-01T08:43:15Z</time></trkpt><trkpt lat="44.67542658828029" lon="1.0195097508204205"><ele>212.0</ele><time>2026-05-01T08:43:16Z</time></trkpt><trkpt lat="44.67531402137844" lon="1.0194653736635604"><ele>211.0</ele><time>2026-05-01T08:43:17Z</time></trkpt><trkpt lat="44.675210596165435" lon="1.0194192045253996"><ele>210.0</ele><time>2026-05-01T08:43:18Z</time></trkpt><trkpt lat="44.67510812889337" lon="1.0193494063487882"><ele>209.0</ele><time>2026-05-01T08:43:19Z</time></trkpt><trkpt lat="44.675002244481334" lon="1.0192774005544714"><ele>208.0</ele><time>2026-05-01T08:43:20Z</time></trkpt><trkpt lat="44.6748881247146" lon="1.019193328381803"><ele>213.5</ele><time>2026-05-01T08:43:21Z</time></trkpt><trkpt lat="44.6747739771991" lon="1.0191335551988223"><ele>219.0</ele><time>2026-05-01T08:43:22Z</time></trkpt><trkpt lat="44.67465300373149" lon="1.019087398824362"><ele>224.5</ele><time>2026-05-01T08:43:23Z</time></trkpt><trkpt lat="44.674522161894025" lon="1.019067738714659"><ele>230.0</ele><time>2026-05-01T08:43:24Z</time></trkpt><trkpt lat="44.67438527975552" lon="1.0190595676065235"><ele>230.0</ele><time>2026-05-01T08:43:25Z</time></trkpt><trkpt lat="44.67425873737953" lon="1.01906818942195"><ele>230.0</ele><time>2026-05-01T08:43:26Z</time></trkpt><trkpt lat="44.67412739830575" lon="1.019055728276074"><ele>230.0</ele><time>2026-05-01T08:43:27Z</time></trkpt><trkpt lat="44.67399984302053" lon="1.0190622300176246"><ele>230.0</ele><time>2026-05-01T08:43:28Z</time></trkpt><trkpt lat="44.673856675481055" lon="1.0190503554125114"><ele>230.0</ele><time>2026-05-01T08:43:29Z</time></trkpt><trkpt lat="44.67372373288201" lon="1.019055908157947"><ele>230.0</ele><time>2026-05-01T08:43:30Z</time></trkpt><trkpt lat="44.67360471879387" lon="1.019050082229"><ele>230.0</ele><time>2026-05-01T08:43:31Z</time></trkpt><trkpt lat="44.67348863064522" lon="1.0190471942326715"><ele>230.0</ele><time>2026-05-01T08:43:32Z</time></trkpt><trkpt lat="44.67335675212401" lon="1.0190013343232034"><ele>229.5</ele><time>2026-05-01T08:43:33Z</time></trkpt><trkpt lat="44.67320901320168" lon="1.0189649231694689"><ele>229.0</ele><time>2026-05-01T08:43:34Z</time></trkpt><trkpt lat="44.67306273910738" lon="1.0189540260229886"><ele>228.5</ele><time>2026-05-01T08:43:35Z</time></trkpt><trkpt lat="44.67293728596797" lon="1.0189280250118529"><ele>228.0</ele><time>2026-05-01T08:43:36Z</time></trkpt><trkpt lat="44.67280501349478" lon="1.0189242234621292"><ele>226.25</ele><time>2026-05-01T08:43:37Z</time></trkpt><trkpt lat="44.672680309643376" lon="1.0188998211377533"><ele>224.5</ele><time>2026-05-01T08:43:38Z</time></trkpt><trkpt lat="44.67256406004394" lon="1.018874636006512"><ele>222.75</ele><time>2026-05-01T08:43:39Z</time></trkpt><trkpt lat="44.67244919795032" lon="1.0188555300166766"><ele>221.0</ele><time>2026-05-01T08:43:40Z</time></trkpt><trkpt lat="44.67235480886441" lon="1.018815714205109"><ele>221.0</ele><time>2026-05-01T08:43:41Z</time></trkpt><trkpt lat="44.67226130463661" lon="1.0187821903858918"><ele>221.00000000000003</ele><time>2026-05-01T08:43:42Z</time></trkpt><trkpt lat="44.672187770841205" lon="1.0187388883809194"><ele>221.00000000000003</ele><time>2026-05-01T08:43:43Z</time></trkpt><trkpt lat="44.672097670733436" lon="1.0186738114986416"><ele>221.0</ele><time>2026-05-01T08:43:44Z</time></trkpt><trkpt lat="44.67201078023666" lon="1.018579577844004"><ele>221.0</ele><time>2026-05-01T08:43:45Z</time></trkpt><trkpt lat="44.67192474425817" lon="1.0184686221883021"><ele>218.16666666666669</ele><time>2026-05-01T08:43:46Z</time></trkpt><trkpt lat="44.671835059444746" lon="1.0183794473160588"><ele>215.33333333333334</ele><time>2026-05-01T08:43:47Z</time></trkpt><trkpt lat="44.671751179851974" lon="1.0183271164674967"><ele>212.5</ele><time>2026-05-01T08:43:48Z</time></trkpt><trkpt lat="44.671679186536004" lon="1.0182775015938839"><ele>209.66666666666669</ele><time>2026-05-01T08:43:49Z</time></trkpt><trkpt lat="44.67161129154573" lon="1.0182354801781268"><ele>206.83333333333334</ele><time>2026-05-01T08:43:50Z</time></trkpt><trkpt lat="44.67154252045227" lon="1.018188452805793"><ele>204.0</ele><time>2026-05-01T08:43:51Z</time></trkpt><trkpt lat="44.67147204308558" lon="1.0180623079398017"><ele>204.0</ele><time>2026-05-01T08:43:53Z</time></trkpt><trkpt lat="44.671449553661866" lon="1.0179730680822427"><ele>204.0</ele><time>2026-05-01T08:43:54Z</time></trkpt><trkpt lat="44.67142500701055" lon="1.017856032430337"><ele>204.0</ele><time>2026-05-01T08:43:55Z</time></trkpt><trkpt lat="44.671399172043245" lon="1.017718127895691"><ele>204.0</ele><time>2026-05-01T08:43:56Z</time></trkpt><trkpt lat="44.67133823319441" lon="1.0175677842163444"><ele>204.0</ele><time>2026-05-01T08:43:57Z</time></trkpt><trkpt lat="44.6712817311511" lon="1.0174291733479177"><ele>204.0</ele><time>2026-05-01T08:43:58Z</time></trkpt><trkpt lat="44.67123111127507" lon="1.0173282750846906"><ele>204.0</ele><time>2026-05-01T08:43:59Z</time></trkpt><trkpt lat="44.6711951017365" lon="1.017190635625362"><ele>204.0</ele><time>2026-05-01T08:44:01Z</time></trkpt><trkpt lat="44.67123117538338" lon="1.0170096734035672"><ele>204.0</ele><time>2026-05-01T08:44:03Z</time></trkpt><trkpt lat="44.6712423516686" lon="1.0169156204872958"><ele>204.0</ele><time>2026-05-01T08:44:04Z</time></trkpt><trkpt lat="44.67125053333104" lon="1.0167885690670349"><ele>204.0</ele><time>2026-05-01T08:44:05Z</time></trkpt><trkpt lat="44.67124475490555" lon="1.0166885212147678"><ele>204.0</ele><time>2026-05-01T08:44:06Z</time></trkpt><trkpt lat="44.67124256091114" lon="1.016583247784569"><ele>204.0</ele><time>2026-05-01T08:44:07Z</time></trkpt><trkpt lat="44.67124844713586" lon="1.0164845643970646"><ele>204.0</ele><time>2026-05-01T08:44:08Z</time></trkpt><trkpt lat="44.67122594973566" lon="1.0163681633970827"><ele>204.0</ele><time>2026-05-01T08:44:09Z</time></trkpt><trkpt lat="44.67120736799504" lon="1.0162443535648358"><ele>204.0</ele><time>2026-05-01T08:44:10Z</time></trkpt><trkpt lat="44.67118378138221" lon="1.016153841898538"><ele>205.6</ele><time>2026-05-01T08:44:11Z</time></trkpt><trkpt lat="44.67111747431192" lon="1.0159678335925117"><ele>207.2</ele><time>2026-05-01T08:44:13Z</time></trkpt><trkpt lat="44.671085767202044" lon="1.0158708675287615"><ele>208.79999999999998</ele><time>2026-05-01T08:44:14Z</time></trkpt><trkpt lat="44.67104676115288" lon="1.0157526912634651"><ele>210.39999999999998</ele><time>2026-05-01T08:44:15Z</time></trkpt><trkpt lat="44.67100020869542" lon="1.015637864301122"><ele>212.0</ele><time>2026-05-01T08:44:16Z</time></trkpt><trkpt lat="44.67093464050177" lon="1.015547064839457"><ele>214.33333333333334</ele><time>2026-05-01T08:44:17Z</time></trkpt><trkpt lat="44.67085465380339" lon="1.0154905274829875"><ele>216.66666666666669</ele><time>2026-05-01T08:44:18Z</time></trkpt><trkpt lat="44.67076341059955" lon="1.0154619487076861"><ele>219.0</ele><time>2026-05-01T08:44:19Z</time></trkpt><trkpt lat="44.67068216966263" lon="1.0154268771279278"><ele>221.33333333333331</ele><time>2026-05-01T08:44:20Z</time></trkpt><trkpt lat="44.67060531923348" lon="1.0153891916399373"><ele>223.66666666666666</ele><time>2026-05-01T08:44:21Z</time></trkpt><trkpt lat="44.670530291245605" lon="1.01534588467027"><ele>226.0</ele><time>2026-05-01T08:44:22Z</time></trkpt><trkpt lat="44.67044263004244" lon="1.0153015270591106"><ele>226.0</ele><time>2026-05-01T08:44:23Z</time></trkpt><trkpt lat="44.67035853230847" lon="1.0152588558509794"><ele>226.00000000000003</ele><time>2026-05-01T08:44:24Z</time></trkpt><trkpt lat="44.67026188599052" lon="1.015234726238752"><ele>226.00000000000003</ele><time>2026-05-01T08:44:25Z</time></trkpt><trkpt lat="44.67016840819765" lon="1.015217270995007"><ele>226.0</ele><time>2026-05-01T08:44:26Z</time></trkpt><trkpt lat="44.670079239073104" lon="1.0151900922147525"><ele>226.0</ele><time>2026-05-01T08:44:27Z</time></trkpt><trkpt lat="44.669988235580824" lon="1.0151618138593093"><ele>227.4</ele><time>2026-05-01T08:44:28Z</time></trkpt><trkpt lat="44.66989755304228" lon="1.015128938533447"><ele>228.8</ele><time>2026-05-01T08:44:29Z</time></trkpt><trkpt lat="44.66979242035901" lon="1.0150847063002608"><ele>230.20000000000002</ele><time>2026-05-01T08:44:30Z</time></trkpt><trkpt lat="44.66968910273536" lon="1.0150548467873932"><ele>231.60000000000002</ele><time>2026-05-01T08:44:31Z</time></trkpt><trkpt lat="44.66959316693639" lon="1.015009264138605"><ele>233.0</ele><time>2026-05-01T08:44:32Z</time></trkpt><trkpt lat="44.669503261602564" lon="1.014951492804532"><ele>233.83333333333334</ele><time>2026-05-01T08:44:33Z</time></trkpt><trkpt lat="44.669406419324325" lon="1.0148936406944127"><ele>234.66666666666669</ele><time>2026-05-01T08:44:34Z</time></trkpt><trkpt lat="44.66931969300435" lon="1.0148149675406453"><ele>235.5</ele><time>2026-05-01T08:44:35Z</time></trkpt><trkpt lat="44.66925778375618" lon="1.0147301739262007"><ele>236.33333333333331</ele><time>2026-05-01T08:44:36Z</time></trkpt><trkpt lat="44.66921791458861" lon="1.014629324919237"><ele>237.16666666666666</ele><time>2026-05-01T08:44:37Z</time></trkpt><trkpt lat="44.66921668836898" lon="1.014538873338837"><ele>238.0</ele><time>2026-05-01T08:44:38Z</time></trkpt><trkpt lat="44.66923785246714" lon="1.0144492805017693"><ele>238.0</ele><time>2026-05-01T08:44:39Z</time></trkpt><trkpt lat="44.669253695018426" lon="1.0143469393377553"><ele>238.0</ele><time>2026-05-01T08:44:40Z</time></trkpt><trkpt lat="44.669258411801835" lon="1.014246214639501"><ele>238.0</ele><time>2026-05-01T08:44:41Z</time></trkpt><trkpt lat="44.669285987421055" lon="1.0141593369047455"><ele>238.0</ele><time>2026-05-01T08:44:42Z</time></trkpt><trkpt lat="44.66935471378564" lon="1.0141207200137978"><ele>238.0</ele><time>2026-05-01T08:44:43Z</time></trkpt><trkpt lat="44.669416581307544" lon="1.0140487059927268"><ele>238.0</ele><time>2026-05-01T08:44:44Z</time></trkpt><trkpt lat="44.669468228850775" lon="1.013963843477078"><ele>238.0</ele><time>2026-05-01T08:44:45Z</time></trkpt><trkpt lat="44.66952259250888" lon="1.013914065659659"><ele>238.2</ele><time>2026-05-01T08:44:46Z</time></trkpt><trkpt lat="44.66961175063186" lon="1.0137960563350905"><ele>238.4</ele><time>2026-05-01T08:44:48Z</time></trkpt><trkpt lat="44.66968326725234" lon="1.0137171733570167"><ele>238.59999999999997</ele><time>2026-05-01T08:44:49Z</time></trkpt><trkpt lat="44.66976803790986" lon="1.0136588478273414"><ele>238.79999999999998</ele><time>2026-05-01T08:44:50Z</time></trkpt><trkpt lat="44.66984696243289" lon="1.0135896988885575"><ele>239.0</ele><time>2026-05-01T08:44:51Z</time></trkpt><trkpt lat="44.66989616209329" lon="1.0135220828988476"><ele>239.00000000000003</ele><time>2026-05-01T08:44:52Z</time></trkpt><trkpt lat="44.66995969951257" lon="1.0134737419784936"><ele>239.0</ele><time>2026-05-01T08:44:53Z</time></trkpt><trkpt lat="44.670046352797925" lon="1.013405082267356"><ele>239.0</ele><time>2026-05-01T08:44:55Z</time></trkpt><trkpt lat="44.67010064387863" lon="1.0133323723667202"><ele>239.0</ele><time>2026-05-01T08:44:58Z</time></trkpt><trkpt lat="44.67013123314628" lon="1.0132295872357506"><ele>239.00000000000003</ele><time>2026-05-01T08:45:11Z</time></trkpt><trkpt lat="44.670136167295674" lon="1.013106613887483"><ele>239.0</ele><time>2026-05-01T08:45:13Z</time></trkpt><trkpt lat="44.670080980456575" lon="1.0129405013360988"><ele>239.00000000000003</ele><time>2026-05-01T08:45:15Z</time></trkpt><trkpt lat="44.67004006200792" lon="1.0128423258744756"><ele>239.0</ele><time>2026-05-01T08:45:16Z</time></trkpt><trkpt lat="44.6700129468772" lon="1.012742195430919"><ele>239.0</ele><time>2026-05-01T08:45:17Z</time></trkpt><trkpt lat="44.67000599143392" lon="1.012641313192429"><ele>239.0</ele><time>2026-05-01T08:45:18Z</time></trkpt><trkpt lat="44.67002677440412" lon="1.0125045418416647"><ele>239.00000000000003</ele><time>2026-05-01T08:45:19Z</time></trkpt><trkpt lat="44.6700489697191" lon="1.0123709040792463"><ele>239.0</ele><time>2026-05-01T08:45:20Z</time></trkpt><trkpt lat="44.670047295805226" lon="1.0122235703437048"><ele>239.39999999999998</ele><time>2026-05-01T08:45:21Z</time></trkpt><trkpt lat="44.67002967123323" lon="1.0120872685832787"><ele>239.79999999999998</ele><time>2026-05-01T08:45:22Z</time></trkpt><trkpt lat="44.66999565974434" lon="1.011936933018842"><ele>240.20000000000002</ele><time>2026-05-01T08:45:23Z</time></trkpt><trkpt lat="44.669951434628715" lon="1.0117974676725578"><ele>240.60000000000002</ele><time>2026-05-01T08:45:24Z</time></trkpt><trkpt lat="44.66991665291311" lon="1.0116595348608273"><ele>241.0</ele><time>2026-05-01T08:45:25Z</time></trkpt><trkpt lat="44.6698921334227" lon="1.0115269676154992"><ele>241.20000000000002</ele><time>2026-05-01T08:45:26Z</time></trkpt><trkpt lat="44.66985408052625" lon="1.0114071796433544"><ele>241.40000000000003</ele><time>2026-05-01T08:45:27Z</time></trkpt><trkpt lat="44.66983807878307" lon="1.0112957295465224"><ele>241.6</ele><time>2026-05-01T08:45:28Z</time></trkpt><trkpt lat="44.669819502206344" lon="1.011205315999553"><ele>241.8</ele><time>2026-05-01T08:45:29Z</time></trkpt><trkpt lat="44.669942269458545" lon="1.0111185407569427"><ele>242.0</ele><time>2026-05-01T08:45:30Z</time></trkpt><trkpt lat="44.67001901562216" lon="1.0110299959404296"><ele>242.0</ele><time>2026-05-01T08:45:31Z</time></trkpt><trkpt lat="44.670104987250305" lon="1.010954852373319"><ele>242.0</ele><time>2026-05-01T08:45:32Z</time></trkpt><trkpt lat="44.670189347207206" lon="1.0108725432384944"><ele>242.0</ele><time>2026-05-01T08:45:33Z</time></trkpt><trkpt lat="44.670266337928645" lon="1.0107917567891758"><ele>242.0</ele><time>2026-05-01T08:45:34Z</time></trkpt><trkpt lat="44.67034146460828" lon="1.0107115584780042"><ele>242.0</ele><time>2026-05-01T08:45:35Z</time></trkpt><trkpt lat="44.67041448619206" lon="1.0106350192481814"><ele>241.2</ele><time>2026-05-01T08:45:36Z</time></trkpt><trkpt lat="44.67048663519373" lon="1.0105508606143487"><ele>240.39999999999998</ele><time>2026-05-01T08:45:37Z</time></trkpt><trkpt lat="44.67056970492729" lon="1.0104625312383928"><ele>239.60000000000002</ele><time>2026-05-01T08:45:38Z</time></trkpt><trkpt lat="44.670656274440084" lon="1.0103799010712846"><ele>238.8</ele><time>2026-05-01T08:45:39Z</time></trkpt><trkpt lat="44.67073898926076" lon="1.0102927973978926"><ele>238.0</ele><time>2026-05-01T08:45:40Z</time></trkpt><trkpt lat="44.670820442736776" lon="1.0102004292404723"><ele>238.0</ele><time>2026-05-01T08:45:41Z</time></trkpt><trkpt lat="44.67090874112982" lon="1.0101172175082154"><ele>238.0</ele><time>2026-05-01T08:45:42Z</time></trkpt><trkpt lat="44.67098949091297" lon="1.010048462131335"><ele>238.0</ele><time>2026-05-01T08:45:43Z</time></trkpt><trkpt lat="44.67107526883008" lon="1.0099657982699939"><ele>238.0</ele><time>2026-05-01T08:45:44Z</time></trkpt><trkpt lat="44.671159678446" lon="1.0098943599845016"><ele>238.0</ele><time>2026-05-01T08:45:45Z</time></trkpt><trkpt lat="44.67124271432316" lon="1.0098313735691116"><ele>239.0</ele><time>2026-05-01T08:45:46Z</time></trkpt><trkpt lat="44.671326870440666" lon="1.0097684972871814"><ele>240.0</ele><time>2026-05-01T08:45:47Z</time></trkpt><trkpt lat="44.671408883020376" lon="1.0097059231093108"><ele>241.0</ele><time>2026-05-01T08:45:48Z</time></trkpt><trkpt lat="44.67149700143546" lon="1.0096387546990269"><ele>242.0</ele><time>2026-05-01T08:45:49Z</time></trkpt><trkpt lat="44.67158494628339" lon="1.0095745865679107"><ele>243.0</ele><time>2026-05-01T08:45:50Z</time></trkpt><trkpt lat="44.671665942954526" lon="1.0095109508673117"><ele>243.0</ele><time>2026-05-01T08:45:51Z</time></trkpt><trkpt lat="44.67174048907488" lon="1.0094403967176022"><ele>243.0</ele><time>2026-05-01T08:45:52Z</time></trkpt><trkpt lat="44.67182018765273" lon="1.0093691107691534"><ele>243.0</ele><time>2026-05-01T08:45:53Z</time></trkpt><trkpt lat="44.671889949545985" lon="1.0092829305172801"><ele>243.0</ele><time>2026-05-01T08:45:54Z</time></trkpt><trkpt lat="44.671961685138825" lon="1.0091912424188105"><ele>243.0</ele><time>2026-05-01T08:45:55Z</time></trkpt><trkpt lat="44.67203198993589" lon="1.009089651029044"><ele>242.4</ele><time>2026-05-01T08:45:56Z</time></trkpt><trkpt lat="44.6721061889828" lon="1.0090042370111314"><ele>241.8</ele><time>2026-05-01T08:45:57Z</time></trkpt><trkpt lat="44.67217685131463" lon="1.008927032375783"><ele>241.2</ele><time>2026-05-01T08:45:58Z</time></trkpt><trkpt lat="44.67225195009963" lon="1.008874120926362"><ele>240.6</ele><time>2026-05-01T08:45:59Z</time></trkpt><trkpt lat="44.67234432715244" lon="1.0088502125339127"><ele>240.0</ele><time>2026-05-01T08:46:00Z</time></trkpt><trkpt lat="44.67245240500928" lon="1.0088346828964077"><ele>240.0</ele><time>2026-05-01T08:46:01Z</time></trkpt><trkpt lat="44.67255828702609" lon="1.0087903184760116"><ele>240.0</ele><time>2026-05-01T08:46:02Z</time></trkpt><trkpt lat="44.6726681555918" lon="1.0087059327016543"><ele>240.0</ele><time>2026-05-01T08:46:03Z</time></trkpt><trkpt lat="44.67277108498109" lon="1.0085900270952346"><ele>240.0</ele><time>2026-05-01T08:46:04Z</time></trkpt><trkpt lat="44.672862058312425" lon="1.0084685675686518"><ele>238.25</ele><time>2026-05-01T08:46:05Z</time></trkpt><trkpt lat="44.67296121103208" lon="1.0083284387630544"><ele>236.5</ele><time>2026-05-01T08:46:06Z</time></trkpt><trkpt lat="44.67305179390358" lon="1.008180304739039"><ele>234.75</ele><time>2026-05-01T08:46:07Z</time></trkpt><trkpt lat="44.67312589968791" lon="1.0080334562103144"><ele>233.0</ele><time>2026-05-01T08:46:08Z</time></trkpt><trkpt lat="44.67319944668795" lon="1.0078738031082277"><ele>233.0</ele><time>2026-05-01T08:46:09Z</time></trkpt><trkpt lat="44.673266059680536" lon="1.0077077792636486"><ele>233.0</ele><time>2026-05-01T08:46:10Z</time></trkpt><trkpt lat="44.67332676275332" lon="1.007554124625973"><ele>233.0</ele><time>2026-05-01T08:46:11Z</time></trkpt><trkpt lat="44.6733946098023" lon="1.0073756702266166"><ele>233.0</ele><time>2026-05-01T08:46:12Z</time></trkpt><trkpt lat="44.67345660135993" lon="1.00721888075952"><ele>234.0</ele><time>2026-05-01T08:46:13Z</time></trkpt><trkpt lat="44.673514350285885" lon="1.0070627581953668"><ele>235.0</ele><time>2026-05-01T08:46:14Z</time></trkpt><trkpt lat="44.67357666680384" lon="1.0069309261178627"><ele>236.0</ele><time>2026-05-01T08:46:15Z</time></trkpt><trkpt lat="44.67365491775321" lon="1.006812819333729"><ele>237.0</ele><time>2026-05-01T08:46:16Z</time></trkpt><trkpt lat="44.67375356570566" lon="1.0067207346247076"><ele>239.25</ele><time>2026-05-01T08:46:17Z</time></trkpt><trkpt lat="44.67385030903157" lon="1.0066584384634036"><ele>241.5</ele><time>2026-05-01T08:46:18Z</time></trkpt><trkpt lat="44.67391938955372" lon="1.0066160232628696"><ele>243.75</ele><time>2026-05-01T08:46:19Z</time></trkpt><trkpt lat="44.67398613737313" lon="1.0065611815281899"><ele>246.0</ele><time>2026-05-01T08:46:21Z</time></trkpt><trkpt lat="44.67382825993712" lon="1.0062579479598215"><ele>246.0</ele><time>2026-05-01T08:46:40Z</time></trkpt><trkpt lat="44.673776072329915" lon="1.006151677750073"><ele>246.00000000000003</ele><time>2026-05-01T08:46:41Z</time></trkpt><trkpt lat="44.673721702799035" lon="1.006041547001327"><ele>246.00000000000003</ele><time>2026-05-01T08:46:42Z</time></trkpt><trkpt lat="44.673679634759175" lon="1.0059283814270352"><ele>246.0</ele><time>2026-05-01T08:46:43Z</time></trkpt><trkpt lat="44.673645510220965" lon="1.0058119194492454"><ele>246.0</ele><time>2026-05-01T08:46:44Z</time></trkpt><trkpt lat="44.67360069105961" lon="1.0056956248235054"><ele>245.0</ele><time>2026-05-01T08:46:45Z</time></trkpt><trkpt lat="44.67356713333741" lon="1.0055834589842354"><ele>244.00000000000003</ele><time>2026-05-01T08:46:46Z</time></trkpt><trkpt lat="44.67353194823791" lon="1.0054379174292098"><ele>243.00000000000003</ele><time>2026-05-01T08:46:47Z</time></trkpt><trkpt lat="44.67350664900058" lon="1.0052989958536924"><ele>242.0</ele><time>2026-05-01T08:46:48Z</time></trkpt><trkpt lat="44.67349087092242" lon="1.0051593752738295"><ele>241.0</ele><time>2026-05-01T08:46:49Z</time></trkpt><trkpt lat="44.67348007790356" lon="1.0050283571699443"><ele>241.16666666666666</ele><time>2026-05-01T08:46:50Z</time></trkpt><trkpt lat="44.67346001523646" lon="1.0049000271447053"><ele>241.33333333333331</ele><time>2026-05-01T08:46:51Z</time></trkpt><trkpt lat="44.67341442454159" lon="1.0047918977613346"><ele>241.5</ele><time>2026-05-01T08:46:52Z</time></trkpt><trkpt lat="44.67339230850734" lon="1.0046890455773514"><ele>241.66666666666669</ele><time>2026-05-01T08:46:53Z</time></trkpt><trkpt lat="44.673364367368734" lon="1.004547144897057"><ele>241.83333333333334</ele><time>2026-05-01T08:46:54Z</time></trkpt><trkpt lat="44.67334241865174" lon="1.0044347413182042"><ele>242.0</ele><time>2026-05-01T08:46:55Z</time></trkpt><trkpt lat="44.673328787580516" lon="1.00432916084807"><ele>242.0</ele><time>2026-05-01T08:46:56Z</time></trkpt><trkpt lat="44.67331886243672" lon="1.0042050361238903"><ele>242.0</ele><time>2026-05-01T08:46:57Z</time></trkpt><trkpt lat="44.673322045608096" lon="1.0040649149078928"><ele>242.0</ele><time>2026-05-01T08:46:58Z</time></trkpt><trkpt lat="44.67329442882964" lon="1.003933856051821"><ele>242.0</ele><time>2026-05-01T08:46:59Z</time></trkpt><trkpt lat="44.673253219898655" lon="1.003782628479071"><ele>242.0</ele><time>2026-05-01T08:47:00Z</time></trkpt><trkpt lat="44.6732211611006" lon="1.0036443248284428"><ele>242.6</ele><time>2026-05-01T08:47:01Z</time></trkpt><trkpt lat="44.67321217092342" lon="1.0035103124246325"><ele>243.2</ele><time>2026-05-01T08:47:02Z</time></trkpt><trkpt lat="44.673213332527965" lon="1.003317759720867"><ele>243.8</ele><time>2026-05-01T08:47:03Z</time></trkpt><trkpt lat="44.67320927545419" lon="1.00319938129761"><ele>244.4</ele><time>2026-05-01T08:47:04Z</time></trkpt><trkpt lat="44.67322293365135" lon="1.003078012702946"><ele>245.0</ele><time>2026-05-01T08:47:05Z</time></trkpt><trkpt lat="44.673242430184104" lon="1.0029587055865505"><ele>246.0</ele><time>2026-05-01T08:47:06Z</time></trkpt><trkpt lat="44.67322034146117" lon="1.0027825059260103"><ele>247.0</ele><time>2026-05-01T08:47:08Z</time></trkpt><trkpt lat="44.67318465754064" lon="1.002681442501148"><ele>248.0</ele><time>2026-05-01T08:47:09Z</time></trkpt><trkpt lat="44.673162491940325" lon="1.002539533603477"><ele>249.0</ele><time>2026-05-01T08:47:10Z</time></trkpt><trkpt lat="44.67314778113999" lon="1.0024191552420645"><ele>250.0</ele><time>2026-05-01T08:47:11Z</time></trkpt><trkpt lat="44.673145748669796" lon="1.002318067900242"><ele>251.2</ele><time>2026-05-01T08:47:12Z</time></trkpt><trkpt lat="44.67312656214844" lon="1.0021893663111665"><ele>252.4</ele><time>2026-05-01T08:47:13Z</time></trkpt><trkpt lat="44.67311158601647" lon="1.0020535515168305"><ele>253.60000000000002</ele><time>2026-05-01T08:47:14Z</time></trkpt><trkpt lat="44.67307951510999" lon="1.001938141652387"><ele>254.8</ele><time>2026-05-01T08:47:15Z</time></trkpt><trkpt lat="44.673047749823674" lon="1.0017812489499598"><ele>256.0</ele><time>2026-05-01T08:47:16Z</time></trkpt><trkpt lat="44.67301855648967" lon="1.0016234010700664"><ele>256.40000000000003</ele><time>2026-05-01T08:47:17Z</time></trkpt><trkpt lat="44.672983905928" lon="1.0014980229112105"><ele>256.8</ele><time>2026-05-01T08:47:18Z</time></trkpt><trkpt lat="44.67290603463934" lon="1.0014007527240554"><ele>257.20000000000005</ele><time>2026-05-01T08:47:20Z</time></trkpt><trkpt lat="44.67277502890518" lon="1.0014449605604017"><ele>257.6</ele><time>2026-05-01T08:47:22Z</time></trkpt><trkpt lat="44.67268236275945" lon="1.0015003071269613"><ele>258.0</ele><time>2026-05-01T08:47:23Z</time></trkpt><trkpt lat="44.67256390160332" lon="1.0015578816711102"><ele>258.0</ele><time>2026-05-01T08:47:24Z</time></trkpt><trkpt lat="44.672459887191465" lon="1.0015779942542369"><ele>258.0</ele><time>2026-05-01T08:47:25Z</time></trkpt><trkpt lat="44.67237969831295" lon="1.0015821631073412"><ele>258.0</ele><time>2026-05-01T08:47:26Z</time></trkpt><trkpt lat="44.67231407645777" lon="1.0014922737680056"><ele>258.0</ele><time>2026-05-01T08:47:28Z</time></trkpt><trkpt lat="44.67232693746608" lon="1.0013386594642373"><ele>258.0</ele><time>2026-05-01T08:47:30Z</time></trkpt><trkpt lat="44.67229466915818" lon="1.0012351264517074"><ele>258.0</ele><time>2026-05-01T08:47:31Z</time></trkpt><trkpt lat="44.67226290115123" lon="1.0011188522015904"><ele>258.0</ele><time>2026-05-01T08:47:32Z</time></trkpt><trkpt lat="44.67225249853532" lon="1.0010073318991277"><ele>258.0</ele><time>2026-05-01T08:47:33Z</time></trkpt><trkpt lat="44.67222502804923" lon="1.0009206184876505"><ele>258.0</ele><time>2026-05-01T08:47:34Z</time></trkpt><trkpt lat="44.67219285463703" lon="1.000831283915522"><ele>258.0</ele><time>2026-05-01T08:47:35Z</time></trkpt><trkpt lat="44.67215622970898" lon="1.0007342153680856"><ele>258.0</ele><time>2026-05-01T08:47:36Z</time></trkpt><trkpt lat="44.67204252087294" lon="1.0006704530307458"><ele>257.8</ele><time>2026-05-01T08:47:38Z</time></trkpt><trkpt lat="44.671972554027334" lon="1.0006446106618365"><ele>257.6</ele><time>2026-05-01T08:47:39Z</time></trkpt><trkpt lat="44.671896099230146" lon="1.0006544378380935"><ele>257.4</ele><time>2026-05-01T08:47:40Z</time></trkpt><trkpt lat="44.671785795119376" lon="1.0006409814620356"><ele>257.2</ele><time>2026-05-01T08:47:41Z</time></trkpt><trkpt lat="44.67169671520681" lon="1.00058320034328"><ele>257.0</ele><time>2026-05-01T08:47:42Z</time></trkpt><trkpt lat="44.671598350382865" lon="1.0005025845252642"><ele>257.0</ele><time>2026-05-01T08:47:43Z</time></trkpt><trkpt lat="44.67149929808938" lon="1.0004626822805174"><ele>257.0</ele><time>2026-05-01T08:47:44Z</time></trkpt><trkpt lat="44.67142878852295" lon="1.0004133749787592"><ele>257.0</ele><time>2026-05-01T08:47:45Z</time></trkpt><trkpt lat="44.6713637035185" lon="1.0003811414431487"><ele>257.0</ele><time>2026-05-01T08:47:46Z</time></trkpt><trkpt lat="44.671307157546195" lon="1.000286605508496"><ele>257.0</ele><time>2026-05-01T08:47:48Z</time></trkpt><trkpt lat="44.67131608840359" lon="1.0000844382458831"><ele>257.0</ele><time>2026-05-01T08:47:50Z</time></trkpt><trkpt lat="44.6713446933402" lon="0.9999322682772941"><ele>257.0</ele><time>2026-05-01T08:47:51Z</time></trkpt><trkpt lat="44.67136237897977" lon="0.9997702463008795"><ele>257.0</ele><time>2026-05-01T08:47:52Z</time></trkpt><trkpt lat="44.671363397219025" lon="0.9995993524326021"><ele>257.0</ele><time>2026-05-01T08:47:53Z</time></trkpt><trkpt lat="44.671353185296184" lon="0.9994428378736214"><ele>257.0</ele><time>2026-05-01T08:47:54Z</time></trkpt><trkpt lat="44.671331005211556" lon="0.9993005439784751"><ele>257.0</ele><time>2026-05-01T08:47:55Z</time></trkpt><trkpt lat="44.6713216029941" lon="0.9991364213595088"><ele>257.0</ele><time>2026-05-01T08:47:56Z</time></trkpt><trkpt lat="44.671297480653884" lon="0.998949284178603"><ele>257.0</ele><time>2026-05-01T08:47:57Z</time></trkpt><trkpt lat="44.67127464544863" lon="0.9987785447659047"><ele>256.75</ele><time>2026-05-01T08:47:58Z</time></trkpt><trkpt lat="44.67123352245443" lon="0.998625508056417"><ele>256.5</ele><time>2026-05-01T08:47:59Z</time></trkpt><trkpt lat="44.67118826800277" lon="0.9984764547991906"><ele>256.25</ele><time>2026-05-01T08:48:00Z</time></trkpt><trkpt lat="44.67112322523442" lon="0.9983553176547685"><ele>256.0</ele><time>2026-05-01T08:48:01Z</time></trkpt><trkpt lat="44.67107758998185" lon="0.9981796780297257"><ele>257.40000000000003</ele><time>2026-05-01T08:48:02Z</time></trkpt><trkpt lat="44.67103423640321" lon="0.9980707545960267"><ele>258.8</ele><time>2026-05-01T08:48:03Z</time></trkpt><trkpt lat="44.670994233414376" lon="0.9979482348769131"><ele>260.20000000000005</ele><time>2026-05-01T08:48:04Z</time></trkpt><trkpt lat="44.67094917811319" lon="0.9978381422611663"><ele>261.6</ele><time>2026-05-01T08:48:05Z</time></trkpt><trkpt lat="44.67093208135751" lon="0.9976965028167302"><ele>263.0</ele><time>2026-05-01T08:48:07Z</time></trkpt><trkpt lat="44.67083271950013" lon="0.9976959485592928"><ele>263.0</ele><time>2026-05-01T08:48:08Z</time></trkpt><trkpt lat="44.670741883488006" lon="0.9976319121170457"><ele>263.0</ele><time>2026-05-01T08:48:09Z</time></trkpt><trkpt lat="44.67066883611902" lon="0.9975986959976962"><ele>263.0</ele><time>2026-05-01T08:48:10Z</time></trkpt><trkpt lat="44.67059609010777" lon="0.9975241471993904"><ele>263.0</ele><time>2026-05-01T08:48:11Z</time></trkpt><trkpt lat="44.67051281040161" lon="0.9974866886723882"><ele>263.0</ele><time>2026-05-01T08:48:12Z</time></trkpt><trkpt lat="44.670430638145525" lon="0.9974326908733625"><ele>263.0</ele><time>2026-05-01T08:48:13Z</time></trkpt><trkpt lat="44.67034499043812" lon="0.9973958768320629"><ele>263.8</ele><time>2026-05-01T08:48:14Z</time></trkpt><trkpt lat="44.670251570821" lon="0.9973443823150645"><ele>264.6</ele><time>2026-05-01T08:48:15Z</time></trkpt><trkpt lat="44.67018007248936" lon="0.997316394402771"><ele>265.4</ele><time>2026-05-01T08:48:16Z</time></trkpt><trkpt lat="44.6700832709977" lon="0.9972866511034414"><ele>266.2</ele><time>2026-05-01T08:48:17Z</time></trkpt><trkpt lat="44.669988138555595" lon="0.9972470327903542"><ele>267.0</ele><time>2026-05-01T08:48:18Z</time></trkpt><trkpt lat="44.6699097960362" lon="0.9972438000813308"><ele>267.0</ele><time>2026-05-01T08:48:19Z</time></trkpt><trkpt lat="44.66981124133048" lon="0.9971723507936573"><ele>267.0</ele><time>2026-05-01T08:48:20Z</time></trkpt><trkpt lat="44.669741134914446" lon="0.9970969305780518"><ele>267.0</ele><time>2026-05-01T08:48:21Z</time></trkpt><trkpt lat="44.66964653894018" lon="0.9970829140811476"><ele>267.0</ele><time>2026-05-01T08:48:22Z</time></trkpt><trkpt lat="44.669563610319706" lon="0.9970751605346213"><ele>267.0</ele><time>2026-05-01T08:48:23Z</time></trkpt><trkpt lat="44.66948481697364" lon="0.9969990599314998"><ele>266.2</ele><time>2026-05-01T08:48:24Z</time></trkpt><trkpt lat="44.66941843308784" lon="0.996941184003568"><ele>265.4</ele><time>2026-05-01T08:48:25Z</time></trkpt><trkpt lat="44.66932906293781" lon="0.9968792271429938"><ele>264.6</ele><time>2026-05-01T08:48:26Z</time></trkpt><trkpt lat="44.6693038786053" lon="0.9967809525904952"><ele>263.8</ele><time>2026-05-01T08:48:28Z</time></trkpt><trkpt lat="44.66932435544381" lon="0.9965570240842581"><ele>263.0</ele><time>2026-05-01T08:48:30Z</time></trkpt><trkpt lat="44.669294932491965" lon="0.9964465316080667"><ele>263.0</ele><time>2026-05-01T08:48:31Z</time></trkpt><trkpt lat="44.669246247072145" lon="0.9963629939357129"><ele>263.0</ele><time>2026-05-01T08:48:32Z</time></trkpt><trkpt lat="44.66917747738798" lon="0.996279738436448"><ele>263.0</ele><time>2026-05-01T08:48:33Z</time></trkpt><trkpt lat="44.66911056889395" lon="0.9962109330340144"><ele>263.0</ele><time>2026-05-01T08:48:34Z</time></trkpt><trkpt lat="44.66897374849463" lon="0.9961924011861951"><ele>263.0</ele><time>2026-05-01T08:48:36Z</time></trkpt><trkpt lat="44.66888159563556" lon="0.996196471200867"><ele>263.0</ele><time>2026-05-01T08:48:37Z</time></trkpt><trkpt lat="44.66879789781157" lon="0.9962303411391584"><ele>263.0</ele><time>2026-05-01T08:48:38Z</time></trkpt><trkpt lat="44.66871512661927" lon="0.9962878607099284"><ele>263.0</ele><time>2026-05-01T08:48:39Z</time></trkpt><trkpt lat="44.66862822029626" lon="0.9963477471440284"><ele>263.0</ele><time>2026-05-01T08:48:40Z</time></trkpt><trkpt lat="44.668533753821926" lon="0.9963966553329967"><ele>263.0</ele><time>2026-05-01T08:48:41Z</time></trkpt><trkpt lat="44.66845097422642" lon="0.9964052853193217"><ele>263.8</ele><time>2026-05-01T08:48:42Z</time></trkpt><trkpt lat="44.668357115998816" lon="0.9963598743853304"><ele>264.6</ele><time>2026-05-01T08:48:44Z</time></trkpt><trkpt lat="44.66827064682066" lon="0.9962935479870431"><ele>265.4</ele><time>2026-05-01T08:48:45Z</time></trkpt><trkpt lat="44.66817425197566" lon="0.9962269401915467"><ele>266.2</ele><time>2026-05-01T08:48:46Z</time></trkpt><trkpt lat="44.66806609225547" lon="0.9961499086082081"><ele>267.0</ele><time>2026-05-01T08:48:47Z</time></trkpt><trkpt lat="44.66794118766386" lon="0.9960857695363228"><ele>267.0</ele><time>2026-05-01T08:48:48Z</time></trkpt><trkpt lat="44.66781027175344" lon="0.9960265978578083"><ele>267.0</ele><time>2026-05-01T08:48:49Z</time></trkpt><trkpt lat="44.66770675653828" lon="0.995941279856647"><ele>267.0</ele><time>2026-05-01T08:48:50Z</time></trkpt><trkpt lat="44.66763526604219" lon="0.9958811894179163"><ele>267.0</ele><time>2026-05-01T08:48:51Z</time></trkpt><trkpt lat="44.66754485963204" lon="0.995806064956135"><ele>267.0</ele><time>2026-05-01T08:48:52Z</time></trkpt><trkpt lat="44.66737936984336" lon="0.9957093939118039"><ele>268.0</ele><time>2026-05-01T08:48:53Z</time></trkpt><trkpt lat="44.66726538096504" lon="0.995653844557882"><ele>269.0</ele><time>2026-05-01T08:48:54Z</time></trkpt><trkpt lat="44.66717721928699" lon="0.9956127415386328"><ele>270.0</ele><time>2026-05-01T08:48:55Z</time></trkpt><trkpt lat="44.66710128943833" lon="0.9955452897289753"><ele>271.0</ele><time>2026-05-01T08:48:56Z</time></trkpt><trkpt lat="44.667029420961164" lon="0.9954909775110594"><ele>272.0</ele><time>2026-05-01T08:48:57Z</time></trkpt><trkpt lat="44.666949919925614" lon="0.9954614532302946"><ele>271.6</ele><time>2026-05-01T08:48:58Z</time></trkpt><trkpt lat="44.666862886745506" lon="0.9954265740630545"><ele>271.2</ele><time>2026-05-01T08:48:59Z</time></trkpt><trkpt lat="44.66677562186547" lon="0.9954243831929961"><ele>270.8</ele><time>2026-05-01T08:49:00Z</time></trkpt><trkpt lat="44.66668485578509" lon="0.9954528698365003"><ele>270.4</ele><time>2026-05-01T08:49:01Z</time></trkpt><trkpt lat="44.66659770407447" lon="0.9954447198696321"><ele>270.0</ele><time>2026-05-01T08:49:02Z</time></trkpt><trkpt lat="44.66650032254976" lon="0.9953983090433601"><ele>270.0</ele><time>2026-05-01T08:49:03Z</time></trkpt><trkpt lat="44.66643148432967" lon="0.9953485290982831"><ele>270.0</ele><time>2026-05-01T08:49:04Z</time></trkpt><trkpt lat="44.666368855447324" lon="0.9953379317258688"><ele>270.0</ele><time>2026-05-01T08:49:05Z</time></trkpt><trkpt lat="44.66628800997947" lon="0.9953908827597984"><ele>270.0</ele><time>2026-05-01T08:49:06Z</time></trkpt><trkpt lat="44.666211500459355" lon="0.995418100551024"><ele>270.0</ele><time>2026-05-01T08:49:07Z</time></trkpt><trkpt lat="44.66613157925422" lon="0.9954561743634665"><ele>270.0</ele><time>2026-05-01T08:49:08Z</time></trkpt><trkpt lat="44.6660382105588" lon="0.9954936654623017"><ele>269.0</ele><time>2026-05-01T08:49:09Z</time></trkpt><trkpt lat="44.66591490383197" lon="0.9955095453153904"><ele>268.0</ele><time>2026-05-01T08:49:10Z</time></trkpt><trkpt lat="44.665828722452126" lon="0.9955177745074465"><ele>267.0</ele><time>2026-05-01T08:49:11Z</time></trkpt><trkpt lat="44.66574613928655" lon="0.9955931670181484"><ele>266.0</ele><time>2026-05-01T08:49:13Z</time></trkpt><trkpt lat="44.66566072301997" lon="0.9956905320434748"><ele>265.0</ele><time>2026-05-01T08:49:15Z</time></trkpt><trkpt lat="44.665590435201615" lon="0.9957651850627248"><ele>265.0</ele><time>2026-05-01T08:49:16Z</time></trkpt><trkpt lat="44.665521023794675" lon="0.9957975793093549"><ele>265.0</ele><time>2026-05-01T08:49:17Z</time></trkpt><trkpt lat="44.665454462344286" lon="0.9958369653629711"><ele>265.0</ele><time>2026-05-01T08:49:18Z</time></trkpt><trkpt lat="44.66535810606786" lon="0.9959111664440249"><ele>265.0</ele><time>2026-05-01T08:49:19Z</time></trkpt><trkpt lat="44.66525587284211" lon="0.9959460184581981"><ele>265.0</ele><time>2026-05-01T08:49:20Z</time></trkpt><trkpt lat="44.66517301598876" lon="0.9959724608189283"><ele>265.0</ele><time>2026-05-01T08:49:21Z</time></trkpt><trkpt lat="44.66509313365825" lon="0.9960160263559689"><ele>263.8</ele><time>2026-05-01T08:49:22Z</time></trkpt><trkpt lat="44.66504155583659" lon="0.9961190791235557"><ele>262.6</ele><time>2026-05-01T08:49:24Z</time></trkpt><trkpt lat="44.66504719699557" lon="0.9963213066800923"><ele>261.4</ele><time>2026-05-01T08:49:26Z</time></trkpt><trkpt lat="44.66507241292115" lon="0.9964555324629308"><ele>260.2</ele><time>2026-05-01T08:49:27Z</time></trkpt><trkpt lat="44.66507336573124" lon="0.9965999473029631"><ele>259.0</ele><time>2026-05-01T08:49:28Z</time></trkpt><trkpt lat="44.66508109677097" lon="0.9967295274808271"><ele>259.0</ele><time>2026-05-01T08:49:29Z</time></trkpt><trkpt lat="44.6650760325804" lon="0.9968394234043998"><ele>259.0</ele><time>2026-05-01T08:49:30Z</time></trkpt><trkpt lat="44.66509647909044" lon="0.9969780653434095"><ele>259.0</ele><time>2026-05-01T08:49:32Z</time></trkpt><trkpt lat="44.66500905448715" lon="0.9970094599215054"><ele>259.0</ele><time>2026-05-01T08:49:35Z</time></trkpt><trkpt lat="44.664946452649815" lon="0.9969772566942156"><ele>259.0</ele><time>2026-05-01T08:49:36Z</time></trkpt><trkpt lat="44.664862032294636" lon="0.9969227171032746"><ele>259.0</ele><time>2026-05-01T08:49:37Z</time></trkpt><trkpt lat="44.66474491855374" lon="0.9968705741123757"><ele>259.0</ele><time>2026-05-01T08:49:38Z</time></trkpt><trkpt lat="44.66460755850291" lon="0.9968053186924585"><ele>259.0</ele><time>2026-05-01T08:49:39Z</time></trkpt><trkpt lat="44.66447480201335" lon="0.9967439420315903"><ele>259.0</ele><time>2026-05-01T08:49:40Z</time></trkpt><trkpt lat="44.66436063150656" lon="0.9966779081268293"><ele>259.0</ele><time>2026-05-01T08:49:41Z</time></trkpt><trkpt lat="44.664229578835155" lon="0.9966461736086922"><ele>258.4</ele><time>2026-05-01T08:49:42Z</time></trkpt><trkpt lat="44.66412285486772" lon="0.9965907334779813"><ele>257.79999999999995</ele><time>2026-05-01T08:49:43Z</time></trkpt><trkpt lat="44.66402722778875" lon="0.9965331741068725"><ele>257.20000000000005</ele><time>2026-05-01T08:49:44Z</time></trkpt><trkpt lat="44.66394827720173" lon="0.99644867768961"><ele>256.6</ele><time>2026-05-01T08:49:45Z</time></trkpt><trkpt lat="44.66387789542856" lon="0.996321786069972"><ele>256.0</ele><time>2026-05-01T08:49:46Z</time></trkpt><trkpt lat="44.66380418183774" lon="0.996169746226414"><ele>256.0</ele><time>2026-05-01T08:49:47Z</time></trkpt><trkpt lat="44.663722241207424" lon="0.9960134980771146"><ele>256.0</ele><time>2026-05-01T08:49:48Z</time></trkpt><trkpt lat="44.66364176921972" lon="0.9958606635799331"><ele>256.0</ele><time>2026-05-01T08:49:49Z</time></trkpt><trkpt lat="44.663561264294394" lon="0.9956875383937676"><ele>256.0</ele><time>2026-05-01T08:49:50Z</time></trkpt><trkpt lat="44.663478158431616" lon="0.9955334330029667"><ele>255.66666666666666</ele><time>2026-05-01T08:49:51Z</time></trkpt><trkpt lat="44.66339254808847" lon="0.9953698700517933"><ele>255.33333333333331</ele><time>2026-05-01T08:49:52Z</time></trkpt><trkpt lat="44.66329085016842" lon="0.9952037113940431"><ele>255.0</ele><time>2026-05-01T08:49:53Z</time></trkpt><trkpt lat="44.66317694812047" lon="0.9950339540647273"><ele>254.75</ele><time>2026-05-01T08:49:54Z</time></trkpt><trkpt lat="44.66306341689575" lon="0.994887065029659"><ele>254.5</ele><time>2026-05-01T08:49:55Z</time></trkpt><trkpt lat="44.662965752205565" lon="0.9947775720365237"><ele>254.25</ele><time>2026-05-01T08:49:56Z</time></trkpt><trkpt lat="44.66286588322951" lon="0.9946461871932171"><ele>254.0</ele><time>2026-05-01T08:49:57Z</time></trkpt><trkpt lat="44.66277504356984" lon="0.9945460715398249"><ele>253.0</ele><time>2026-05-01T08:49:58Z</time></trkpt><trkpt lat="44.662688776772804" lon="0.9944798889115336"><ele>251.99999999999997</ele><time>2026-05-01T08:49:59Z</time></trkpt><trkpt lat="44.662595407370524" lon="0.9944255213287895"><ele>250.99999999999997</ele><time>2026-05-01T08:50:00Z</time></trkpt><trkpt lat="44.66250879217143" lon="0.9943618138426027"><ele>250.0</ele><time>2026-05-01T08:50:01Z</time></trkpt><trkpt lat="44.66243433423889" lon="0.9943597073757238"><ele>249.0</ele><time>2026-05-01T08:50:02Z</time></trkpt><trkpt lat="44.66234561065746" lon="0.9943117315605621"><ele>249.0</ele><time>2026-05-01T08:50:04Z</time></trkpt><trkpt lat="44.66228591445526" lon="0.9943411765709467"><ele>248.99999999999997</ele><time>2026-05-01T08:50:28Z</time></trkpt><trkpt lat="44.66232378252134" lon="0.9942700824131919"><ele>249.0</ele><time>2026-05-01T08:52:59Z</time></trkpt><trkpt lat="44.66237306175046" lon="0.9941995628220152"><ele>249.0</ele><time>2026-05-01T08:53:01Z</time></trkpt><trkpt lat="44.66243304067462" lon="0.9941593515206472"><ele>248.99999999999997</ele><time>2026-05-01T08:53:09Z</time></trkpt><trkpt lat="44.66248917328896" lon="0.9940549375377998"><ele>249.0</ele><time>2026-05-01T08:53:11Z</time></trkpt><trkpt lat="44.662537646617274" lon="0.9939802992898736"><ele>249.0</ele><time>2026-05-01T08:53:12Z</time></trkpt><trkpt lat="44.66258625893668" lon="0.9938993915143103"><ele>249.33333333333334</ele><time>2026-05-01T08:53:13Z</time></trkpt><trkpt lat="44.66266046301304" lon="0.9938153665110161"><ele>249.66666666666669</ele><time>2026-05-01T08:53:14Z</time></trkpt><trkpt lat="44.662725149588944" lon="0.9937665140163244"><ele>250.0</ele><time>2026-05-01T08:53:15Z</time></trkpt><trkpt lat="44.66278521526828" lon="0.9936718887469697"><ele>250.33333333333334</ele><time>2026-05-01T08:53:16Z</time></trkpt><trkpt lat="44.66282035816485" lon="0.9935654584160655"><ele>250.66666666666669</ele><time>2026-05-01T08:53:17Z</time></trkpt><trkpt lat="44.66285481568506" lon="0.99345830170006"><ele>251.0</ele><time>2026-05-01T08:53:18Z</time></trkpt><trkpt lat="44.6628741991025" lon="0.9933608152077119"><ele>250.66666666666669</ele><time>2026-05-01T08:53:19Z</time></trkpt><trkpt lat="44.66288641775265" lon="0.9932686779075466"><ele>250.33333333333334</ele><time>2026-05-01T08:53:20Z</time></trkpt><trkpt lat="44.66290838262009" lon="0.9931731339870966"><ele>250.0</ele><time>2026-05-01T08:53:21Z</time></trkpt><trkpt lat="44.66296758242307" lon="0.993027336241946"><ele>249.66666666666669</ele><time>2026-05-01T08:53:23Z</time></trkpt><trkpt lat="44.662987558935995" lon="0.9928978210905638"><ele>249.33333333333334</ele><time>2026-05-01T08:53:24Z</time></trkpt><trkpt lat="44.66302438184921" lon="0.9927951652008987"><ele>249.0</ele><time>2026-05-01T08:53:25Z</time></trkpt><trkpt lat="44.66305621014406" lon="0.9926689603098885"><ele>249.0</ele><time>2026-05-01T08:53:26Z</time></trkpt><trkpt lat="44.663092835355926" lon="0.9925546981438554"><ele>248.99999999999997</ele><time>2026-05-01T08:53:27Z</time></trkpt><trkpt lat="44.66313103350666" lon="0.9924574760370991"><ele>249.0</ele><time>2026-05-01T08:53:28Z</time></trkpt><trkpt lat="44.663157140935475" lon="0.9923740421465853"><ele>249.0</ele><time>2026-05-01T08:53:29Z</time></trkpt><trkpt lat="44.66318656696547" lon="0.9922910475823528"><ele>248.99999999999997</ele><time>2026-05-01T08:53:30Z</time></trkpt><trkpt lat="44.66318329661226" lon="0.992176381997757"><ele>249.0</ele><time>2026-05-01T08:53:31Z</time></trkpt><trkpt lat="44.66319756978295" lon="0.9920840100773258"><ele>249.0</ele><time>2026-05-01T08:53:32Z</time></trkpt><trkpt lat="44.66323598034717" lon="0.9919714439347074"><ele>248.0</ele><time>2026-05-01T08:53:34Z</time></trkpt><trkpt lat="44.66331148658815" lon="0.9918293534839849"><ele>246.99999999999997</ele><time>2026-05-01T08:53:36Z</time></trkpt><trkpt lat="44.66331714593609" lon="0.9917374646767563"><ele>245.99999999999997</ele><time>2026-05-01T08:53:37Z</time></trkpt><trkpt lat="44.66333378440369" lon="0.991647342809408"><ele>245.0</ele><time>2026-05-01T08:53:38Z</time></trkpt><trkpt lat="44.66338404298419" lon="0.9914852135070215"><ele>244.0</ele><time>2026-05-01T08:53:40Z</time></trkpt><trkpt lat="44.66342844518772" lon="0.9913738889293155"><ele>243.6</ele><time>2026-05-01T08:53:42Z</time></trkpt><trkpt lat="44.66347375266196" lon="0.9912996266153102"><ele>243.2</ele><time>2026-05-01T08:53:44Z</time></trkpt><trkpt lat="44.6635558890709" lon="0.9912225973081406"><ele>242.79999999999998</ele><time>2026-05-01T08:53:46Z</time></trkpt><trkpt lat="44.66368388210675" lon="0.9911489060415375"><ele>242.39999999999998</ele><time>2026-05-01T08:53:48Z</time></trkpt><trkpt lat="44.663775424951844" lon="0.991114376457793"><ele>242.0</ele><time>2026-05-01T08:53:49Z</time></trkpt><trkpt lat="44.66386812718376" lon="0.9910838485647535"><ele>243.8</ele><time>2026-05-01T08:53:50Z</time></trkpt><trkpt lat="44.66396017741518" lon="0.9910638449543833"><ele>245.6</ele><time>2026-05-01T08:53:51Z</time></trkpt><trkpt lat="44.66406359635739" lon="0.9910865813418196"><ele>247.40000000000003</ele><time>2026-05-01T08:53:52Z</time></trkpt><trkpt lat="44.66416151394499" lon="0.9911090479249116"><ele>249.20000000000002</ele><time>2026-05-01T08:53:53Z</time></trkpt><trkpt lat="44.66426683359193" lon="0.991130027124918"><ele>251.0</ele><time>2026-05-01T08:53:54Z</time></trkpt><trkpt lat="44.664397743804734" lon="0.9911424344361622"><ele>251.16666666666669</ele><time>2026-05-01T08:53:55Z</time></trkpt><trkpt lat="44.66450331762329" lon="0.9911750925640688"><ele>251.33333333333334</ele><time>2026-05-01T08:53:56Z</time></trkpt><trkpt lat="44.66459652472855" lon="0.9911934518461498"><ele>251.5</ele><time>2026-05-01T08:53:57Z</time></trkpt><trkpt lat="44.664675813314055" lon="0.9912002676687343"><ele>251.66666666666669</ele><time>2026-05-01T08:53:58Z</time></trkpt><trkpt lat="44.6647466201248" lon="0.9911940586040009"><ele>251.83333333333334</ele><time>2026-05-01T08:53:59Z</time></trkpt><trkpt lat="44.66481875071631" lon="0.9911601061841018"><ele>252.0</ele><time>2026-05-01T08:54:00Z</time></trkpt><trkpt lat="44.66491234735075" lon="0.9911168708809517"><ele>252.0</ele><time>2026-05-01T08:54:01Z</time></trkpt><trkpt lat="44.664950430472445" lon="0.9909888182668739"><ele>252.0</ele><time>2026-05-01T08:54:03Z</time></trkpt><trkpt lat="44.66495284293051" lon="0.9908274700030062"><ele>252.0</ele><time>2026-05-01T08:54:05Z</time></trkpt><trkpt lat="44.664972180906396" lon="0.9906897475574153"><ele>252.0</ele><time>2026-05-01T08:54:06Z</time></trkpt><trkpt lat="44.6649790597685" lon="0.9905669410235431"><ele>252.0</ele><time>2026-05-01T08:54:07Z</time></trkpt><trkpt lat="44.66497569588182" lon="0.9904401864190943"><ele>251.8</ele><time>2026-05-01T08:54:08Z</time></trkpt><trkpt lat="44.664973258272774" lon="0.9903103537419404"><ele>251.6</ele><time>2026-05-01T08:54:09Z</time></trkpt><trkpt lat="44.66496698332624" lon="0.9901904898984326"><ele>251.40000000000003</ele><time>2026-05-01T08:54:10Z</time></trkpt><trkpt lat="44.66495561117669" lon="0.9900395401778507"><ele>251.20000000000002</ele><time>2026-05-01T08:54:11Z</time></trkpt><trkpt lat="44.66494931551854" lon="0.9898665000418548"><ele>251.0</ele><time>2026-05-01T08:54:12Z</time></trkpt><trkpt lat="44.664941092285055" lon="0.9896660829821048"><ele>252.0</ele><time>2026-05-01T08:54:13Z</time></trkpt><trkpt lat="44.6649288623889" lon="0.9894768077191011"><ele>253.0</ele><time>2026-05-01T08:54:14Z</time></trkpt><trkpt lat="44.66493377002891" lon="0.9892924412745366"><ele>254.0</ele><time>2026-05-01T08:54:15Z</time></trkpt><trkpt lat="44.664926742040905" lon="0.9890927770961141"><ele>255.0</ele><time>2026-05-01T08:54:16Z</time></trkpt><trkpt lat="44.66493002942838" lon="0.9889041809152691"><ele>255.25</ele><time>2026-05-01T08:54:17Z</time></trkpt><trkpt lat="44.66492491397742" lon="0.988716033246403"><ele>255.5</ele><time>2026-05-01T08:54:18Z</time></trkpt><trkpt lat="44.66492297744583" lon="0.9885236638963454"><ele>255.75</ele><time>2026-05-01T08:54:19Z</time></trkpt><trkpt lat="44.664918250519875" lon="0.9883340139122755"><ele>256.0</ele><time>2026-05-01T08:54:20Z</time></trkpt><trkpt lat="44.664918399599195" lon="0.9881389263262138"><ele>256.0</ele><time>2026-05-01T08:54:21Z</time></trkpt><trkpt lat="44.664918243841676" lon="0.9879457943831462"><ele>256.0</ele><time>2026-05-01T08:54:22Z</time></trkpt><trkpt lat="44.66491542843651" lon="0.9877480726928588"><ele>256.0</ele><time>2026-05-01T08:54:23Z</time></trkpt><trkpt lat="44.664915385154764" lon="0.9875508274016962"><ele>256.0</ele><time>2026-05-01T08:54:24Z</time></trkpt><trkpt lat="44.664909026790475" lon="0.9873663263862403"><ele>255.5</ele><time>2026-05-01T08:54:25Z</time></trkpt><trkpt lat="44.66490462870506" lon="0.9871864977381011"><ele>255.0</ele><time>2026-05-01T08:54:26Z</time></trkpt><trkpt lat="44.664894403951735" lon="0.9869964546387446"><ele>254.5</ele><time>2026-05-01T08:54:27Z</time></trkpt><trkpt lat="44.66489521337561" lon="0.9868125172724725"><ele>254.0</ele><time>2026-05-01T08:54:28Z</time></trkpt><trkpt lat="44.664893028328784" lon="0.9866301492919055"><ele>254.0</ele><time>2026-05-01T08:54:29Z</time></trkpt><trkpt lat="44.66489138773174" lon="0.9864497386444502"><ele>254.0</ele><time>2026-05-01T08:54:30Z</time></trkpt><trkpt lat="44.66488491961712" lon="0.9862696165184307"><ele>254.0</ele><time>2026-05-01T08:54:31Z</time></trkpt><trkpt lat="44.6648745456564" lon="0.9860851471978715"><ele>254.0</ele><time>2026-05-01T08:54:32Z</time></trkpt><trkpt lat="44.66486528360462" lon="0.9858948700215399"><ele>253.75</ele><time>2026-05-01T08:54:33Z</time></trkpt><trkpt lat="44.66485653955724" lon="0.9857041854810771"><ele>253.5</ele><time>2026-05-01T08:54:34Z</time></trkpt><trkpt lat="44.664857096773325" lon="0.9855204698014711"><ele>253.25</ele><time>2026-05-01T08:54:35Z</time></trkpt><trkpt lat="44.66485375462041" lon="0.9853404703485935"><ele>253.0</ele><time>2026-05-01T08:54:36Z</time></trkpt><trkpt lat="44.66484604051692" lon="0.9851428483529383"><ele>253.0</ele><time>2026-05-01T08:54:37Z</time></trkpt><trkpt lat="44.66483714081971" lon="0.9849217065825332"><ele>253.0</ele><time>2026-05-01T08:54:38Z</time></trkpt><trkpt lat="44.66483912478266" lon="0.9847033692471555"><ele>253.0</ele><time>2026-05-01T08:54:39Z</time></trkpt><trkpt lat="44.66483923049838" lon="0.9844870977948159"><ele>253.0</ele><time>2026-05-01T08:54:40Z</time></trkpt><trkpt lat="44.664839235650525" lon="0.9842412104693269"><ele>253.0</ele><time>2026-05-01T08:54:41Z</time></trkpt><trkpt lat="44.664838439918455" lon="0.9840713093277137"><ele>253.0</ele><time>2026-05-01T08:54:42Z</time></trkpt><trkpt lat="44.66483181674796" lon="0.9838999488597443"><ele>253.0</ele><time>2026-05-01T08:54:43Z</time></trkpt><trkpt lat="44.66483189856737" lon="0.9837442061259867"><ele>253.66666666666666</ele><time>2026-05-01T08:54:44Z</time></trkpt><trkpt lat="44.664811145736266" lon="0.9835915119225761"><ele>254.33333333333331</ele><time>2026-05-01T08:54:45Z</time></trkpt><trkpt lat="44.664762007781555" lon="0.9834717889352168"><ele>255.0</ele><time>2026-05-01T08:54:46Z</time></trkpt><trkpt lat="44.66472782238497" lon="0.9833904940834647"><ele>255.66666666666669</ele><time>2026-05-01T08:54:47Z</time></trkpt><trkpt lat="44.664708162171365" lon="0.9832985241535814"><ele>256.33333333333337</ele><time>2026-05-01T08:54:48Z</time></trkpt><trkpt lat="44.66463752542735" lon="0.9832484774555257"><ele>257.0</ele><time>2026-05-01T08:54:50Z</time></trkpt><trkpt lat="44.664507240825245" lon="0.9832734497555834"><ele>257.25</ele><time>2026-05-01T08:54:52Z</time></trkpt><trkpt lat="44.66438568590798" lon="0.9832618630348838"><ele>257.5</ele><time>2026-05-01T08:54:53Z</time></trkpt><trkpt lat="44.664240014203564" lon="0.9832293752288443"><ele>257.75</ele><time>2026-05-01T08:54:54Z</time></trkpt><trkpt lat="44.66410106933258" lon="0.9832107059900715"><ele>258.0</ele><time>2026-05-01T08:54:55Z</time></trkpt><trkpt lat="44.663959752491174" lon="0.9831653364000675"><ele>258.0</ele><time>2026-05-01T08:54:56Z</time></trkpt><trkpt lat="44.66381996943645" lon="0.9831544642886136"><ele>258.0</ele><time>2026-05-01T08:54:57Z</time></trkpt><trkpt lat="44.6636751537062" lon="0.9831591209020741"><ele>258.0</ele><time>2026-05-01T08:54:58Z</time></trkpt><trkpt lat="44.66353346342945" lon="0.9831587118144648"><ele>258.0</ele><time>2026-05-01T08:54:59Z</time></trkpt><trkpt lat="44.663388487421" lon="0.9831611230513211"><ele>258.3333333333333</ele><time>2026-05-01T08:55:00Z</time></trkpt><trkpt lat="44.66323049909999" lon="0.9831654029108025"><ele>258.66666666666663</ele><time>2026-05-01T08:55:01Z</time></trkpt><trkpt lat="44.663075820851866" lon="0.983163401407011"><ele>259.0</ele><time>2026-05-01T08:55:02Z</time></trkpt><trkpt lat="44.66292471078863" lon="0.9831654381829915"><ele>259.25</ele><time>2026-05-01T08:55:03Z</time></trkpt><trkpt lat="44.66277176814575" lon="0.9831465515195622"><ele>259.5</ele><time>2026-05-01T08:55:04Z</time></trkpt><trkpt lat="44.66262840231" lon="0.9831508774314375"><ele>259.75</ele><time>2026-05-01T08:55:05Z</time></trkpt><trkpt lat="44.66247840125121" lon="0.983151444427702"><ele>260.0</ele><time>2026-05-01T08:55:06Z</time></trkpt><trkpt lat="44.662347748837405" lon="0.983132779735684"><ele>260.0</ele><time>2026-05-01T08:55:07Z</time></trkpt><trkpt lat="44.66221209811163" lon="0.9831148899179715"><ele>260.0</ele><time>2026-05-01T08:55:08Z</time></trkpt><trkpt lat="44.66205706166683" lon="0.9831010579496029"><ele>260.0</ele><time>2026-05-01T08:55:09Z</time></trkpt><trkpt lat="44.66191027138385" lon="0.98305886176368"><ele>260.0</ele><time>2026-05-01T08:55:10Z</time></trkpt><trkpt lat="44.661774602847025" lon="0.9830125233839677"><ele>259.5</ele><time>2026-05-01T08:55:11Z</time></trkpt><trkpt lat="44.66162086161575" lon="0.9829792638950063"><ele>259.0</ele><time>2026-05-01T08:55:12Z</time></trkpt><trkpt lat="44.66148422843441" lon="0.9829577861883042"><ele>258.5</ele><time>2026-05-01T08:55:13Z</time></trkpt><trkpt lat="44.66138501395653" lon="0.9829213006365779"><ele>258.0</ele><time>2026-05-01T08:55:14Z</time></trkpt><trkpt lat="44.6612710843405" lon="0.9829046358248771"><ele>258.0</ele><time>2026-05-01T08:55:15Z</time></trkpt><trkpt lat="44.661150665904586" lon="0.9828754037268762"><ele>258.0</ele><time>2026-05-01T08:55:16Z</time></trkpt><trkpt lat="44.66102966119734" lon="0.9828425134651544"><ele>258.0</ele><time>2026-05-01T08:55:17Z</time></trkpt><trkpt lat="44.66090787094323" lon="0.9828171093792886"><ele>258.0</ele><time>2026-05-01T08:55:18Z</time></trkpt><trkpt lat="44.66078381857871" lon="0.9827959105743681"><ele>257.5</ele><time>2026-05-01T08:55:19Z</time></trkpt><trkpt lat="44.66066001261912" lon="0.9827731884155184"><ele>257.0</ele><time>2026-05-01T08:55:20Z</time></trkpt><trkpt lat="44.6605369651976" lon="0.9827287263071514"><ele>256.5</ele><time>2026-05-01T08:55:21Z</time></trkpt><trkpt lat="44.66040023680147" lon="0.9827231831459906"><ele>256.0</ele><time>2026-05-01T08:55:22Z</time></trkpt><trkpt lat="44.66027715614543" lon="0.9827190800005363"><ele>256.0</ele><time>2026-05-01T08:55:23Z</time></trkpt><trkpt lat="44.6601347260451" lon="0.9827238712827584"><ele>256.0</ele><time>2026-05-01T08:55:24Z</time></trkpt><trkpt lat="44.65999960514898" lon="0.9827189369832603"><ele>256.0</ele><time>2026-05-01T08:55:25Z</time></trkpt><trkpt lat="44.659863372454645" lon="0.9827235570764904"><ele>256.0</ele><time>2026-05-01T08:55:26Z</time></trkpt><trkpt lat="44.65973068443238" lon="0.9827225701413403"><ele>256.0</ele><time>2026-05-01T08:55:27Z</time></trkpt><trkpt lat="44.65959367365823" lon="0.9827242226012701"><ele>256.0</ele><time>2026-05-01T08:55:28Z</time></trkpt><trkpt lat="44.65946084627518" lon="0.9827333818561811"><ele>256.0</ele><time>2026-05-01T08:55:29Z</time></trkpt><trkpt lat="44.659332533243784" lon="0.9827470211434329"><ele>256.0</ele><time>2026-05-01T08:55:30Z</time></trkpt><trkpt lat="44.659208850566" lon="0.9827530122080391"><ele>257.25</ele><time>2026-05-01T08:55:31Z</time></trkpt><trkpt lat="44.659090773106314" lon="0.9827479054335932"><ele>258.5</ele><time>2026-05-01T08:55:32Z</time></trkpt><trkpt lat="44.65896227926054" lon="0.9827318123449846"><ele>259.75</ele><time>2026-05-01T08:55:33Z</time></trkpt><trkpt lat="44.658837938679056" lon="0.9826961300243138"><ele>261.0</ele><time>2026-05-01T08:55:34Z</time></trkpt><trkpt lat="44.65871169369679" lon="0.9826642485052013"><ele>261.75</ele><time>2026-05-01T08:55:35Z</time></trkpt><trkpt lat="44.65857941367171" lon="0.9825863829798492"><ele>262.5</ele><time>2026-05-01T08:55:36Z</time></trkpt><trkpt lat="44.65845560040397" lon="0.9824916525532646"><ele>263.25</ele><time>2026-05-01T08:55:37Z</time></trkpt><trkpt lat="44.65836646118397" lon="0.9823867531776753"><ele>264.0</ele><time>2026-05-01T08:55:38Z</time></trkpt><trkpt lat="44.65829002768304" lon="0.9822664455420188"><ele>264.5</ele><time>2026-05-01T08:55:39Z</time></trkpt><trkpt lat="44.65821872189031" lon="0.9821412156936341"><ele>265.0</ele><time>2026-05-01T08:55:40Z</time></trkpt><trkpt lat="44.658166543237414" lon="0.9819903162575"><ele>265.5</ele><time>2026-05-01T08:55:41Z</time></trkpt><trkpt lat="44.65813928349687" lon="0.9818271107276971"><ele>266.0</ele><time>2026-05-01T08:55:42Z</time></trkpt><trkpt lat="44.65807404650852" lon="0.9816847141393749"><ele>266.5</ele><time>2026-05-01T08:55:43Z</time></trkpt><trkpt lat="44.65800356089299" lon="0.9815696750330498"><ele>267.0</ele><time>2026-05-01T08:55:44Z</time></trkpt><trkpt lat="44.65792496001539" lon="0.9814615803598477"><ele>267.5</ele><time>2026-05-01T08:55:45Z</time></trkpt><trkpt lat="44.657826561621995" lon="0.9813648515384978"><ele>268.0</ele><time>2026-05-01T08:55:46Z</time></trkpt><trkpt lat="44.657712462340285" lon="0.9812825714161453"><ele>268.0</ele><time>2026-05-01T08:55:47Z</time></trkpt><trkpt lat="44.65758506072616" lon="0.9812003245061243"><ele>268.0</ele><time>2026-05-01T08:55:48Z</time></trkpt><trkpt lat="44.65745151514283" lon="0.9811127765198424"><ele>268.0</ele><time>2026-05-01T08:55:49Z</time></trkpt><trkpt lat="44.65732181646639" lon="0.9810354050276631"><ele>268.0</ele><time>2026-05-01T08:55:50Z</time></trkpt><trkpt lat="44.65717726123815" lon="0.9809825212559704"><ele>268.0</ele><time>2026-05-01T08:55:51Z</time></trkpt><trkpt lat="44.6570486275472" lon="0.9809246681694082"><ele>268.0</ele><time>2026-05-01T08:55:52Z</time></trkpt><trkpt lat="44.656912054412274" lon="0.9808825343249148"><ele>268.0</ele><time>2026-05-01T08:55:53Z</time></trkpt><trkpt lat="44.65677265580319" lon="0.980857969812383"><ele>268.0</ele><time>2026-05-01T08:55:54Z</time></trkpt><trkpt lat="44.65664311939089" lon="0.9808292564206174"><ele>266.4</ele><time>2026-05-01T08:55:55Z</time></trkpt><trkpt lat="44.65652554353921" lon="0.9808506580124321"><ele>264.8</ele><time>2026-05-01T08:55:56Z</time></trkpt><trkpt lat="44.656413392073304" lon="0.9809080312600654"><ele>263.2</ele><time>2026-05-01T08:55:57Z</time></trkpt><trkpt lat="44.65632261445497" lon="0.9809811457082528"><ele>261.6</ele><time>2026-05-01T08:55:58Z</time></trkpt><trkpt lat="44.65622680669776" lon="0.9810258475652074"><ele>260.0</ele><time>2026-05-01T08:55:59Z</time></trkpt><trkpt lat="44.656119329568874" lon="0.9810167156565829"><ele>259.0</ele><time>2026-05-01T08:56:00Z</time></trkpt><trkpt lat="44.65601223142823" lon="0.9810157895479451"><ele>258.0</ele><time>2026-05-01T08:56:01Z</time></trkpt><trkpt lat="44.6558860200638" lon="0.9810149140201895"><ele>257.0</ele><time>2026-05-01T08:56:02Z</time></trkpt><trkpt lat="44.65576770743164" lon="0.9810137751756723"><ele>256.0</ele><time>2026-05-01T08:56:03Z</time></trkpt><trkpt lat="44.65566410366648" lon="0.9810358926238455"><ele>256.0</ele><time>2026-05-01T08:56:04Z</time></trkpt><trkpt lat="44.65555339157889" lon="0.9810295018342445"><ele>256.0</ele><time>2026-05-01T08:56:05Z</time></trkpt><trkpt lat="44.65543023475484" lon="0.9810414153244227"><ele>256.0</ele><time>2026-05-01T08:56:06Z</time></trkpt><trkpt lat="44.65531059589904" lon="0.9810671607667335"><ele>256.0</ele><time>2026-05-01T08:56:07Z</time></trkpt><trkpt lat="44.65518434640359" lon="0.9811149623903886"><ele>254.75</ele><time>2026-05-01T08:56:08Z</time></trkpt><trkpt lat="44.655061303988184" lon="0.9811328124282327"><ele>253.5</ele><time>2026-05-01T08:56:09Z</time></trkpt><trkpt lat="44.65495869153202" lon="0.9811643107958748"><ele>252.25</ele><time>2026-05-01T08:56:10Z</time></trkpt><trkpt lat="44.65484890201977" lon="0.9811573713258609"><ele>251.0</ele><time>2026-05-01T08:56:11Z</time></trkpt><trkpt lat="44.65473962460936" lon="0.9811157238433437"><ele>251.0</ele><time>2026-05-01T08:56:12Z</time></trkpt><trkpt lat="44.65464831589572" lon="0.9810549942852953"><ele>251.00000000000003</ele><time>2026-05-01T08:56:13Z</time></trkpt><trkpt lat="44.654578326328654" lon="0.9810078841228418"><ele>251.00000000000003</ele><time>2026-05-01T08:56:14Z</time></trkpt><trkpt lat="44.6545006129134" lon="0.9809406427978488"><ele>251.0</ele><time>2026-05-01T08:56:16Z</time></trkpt><trkpt lat="44.65440809975672" lon="0.9809026800631474"><ele>251.0</ele><time>2026-05-01T08:56:18Z</time></trkpt><trkpt lat="44.65427404260179" lon="0.9808383716190359"><ele>251.0</ele><time>2026-05-01T08:56:20Z</time></trkpt><trkpt lat="44.654192883549456" lon="0.9807943008048092"><ele>251.00000000000003</ele><time>2026-05-01T08:56:21Z</time></trkpt><trkpt lat="44.65411750692097" lon="0.9807503377920761"><ele>251.00000000000003</ele><time>2026-05-01T08:56:22Z</time></trkpt><trkpt lat="44.65403030065388" lon="0.98069672046829"><ele>251.0</ele><time>2026-05-01T08:56:23Z</time></trkpt><trkpt lat="44.653925466688605" lon="0.9806423185356883"><ele>251.0</ele><time>2026-05-01T08:56:24Z</time></trkpt><trkpt lat="44.65382838181279" lon="0.9806080413262397"><ele>251.0</ele><time>2026-05-01T08:56:25Z</time></trkpt><trkpt lat="44.65371814176901" lon="0.980596658552598"><ele>251.0</ele><time>2026-05-01T08:56:26Z</time></trkpt><trkpt lat="44.65359439215852" lon="0.9805938468707465"><ele>251.0</ele><time>2026-05-01T08:56:27Z</time></trkpt><trkpt lat="44.65344754898793" lon="0.9805691390407294"><ele>251.0</ele><time>2026-05-01T08:56:28Z</time></trkpt><trkpt lat="44.65331593068112" lon="0.9805585061885271"><ele>251.0</ele><time>2026-05-01T08:56:29Z</time></trkpt><trkpt lat="44.65315473710517" lon="0.9805504218582997"><ele>251.0</ele><time>2026-05-01T08:56:30Z</time></trkpt><trkpt lat="44.65298961372546" lon="0.9805452274792831"><ele>251.0</ele><time>2026-05-01T08:56:31Z</time></trkpt><trkpt lat="44.65286767192193" lon="0.9805550766370976"><ele>251.0</ele><time>2026-05-01T08:56:32Z</time></trkpt><trkpt lat="44.6527521325009" lon="0.9805842036609693"><ele>251.0</ele><time>2026-05-01T08:56:33Z</time></trkpt><trkpt lat="44.6526026664623" lon="0.9806311079071388"><ele>251.0</ele><time>2026-05-01T08:56:34Z</time></trkpt><trkpt lat="44.65245010235848" lon="0.9806794171933574"><ele>251.0</ele><time>2026-05-01T08:56:35Z</time></trkpt><trkpt lat="44.652286188144366" lon="0.9807110851014802"><ele>251.0</ele><time>2026-05-01T08:56:36Z</time></trkpt><trkpt lat="44.65213224478327" lon="0.9807247793026587"><ele>251.0</ele><time>2026-05-01T08:56:37Z</time></trkpt><trkpt lat="44.65198209933206" lon="0.9807194500019871"><ele>251.0</ele><time>2026-05-01T08:56:38Z</time></trkpt><trkpt lat="44.65181983845288" lon="0.9807270192785813"><ele>251.0</ele><time>2026-05-01T08:56:39Z</time></trkpt><trkpt lat="44.651669420059044" lon="0.9807185820223673"><ele>251.0</ele><time>2026-05-01T08:56:40Z</time></trkpt><trkpt lat="44.65148791659939" lon="0.9807318147229737"><ele>251.0</ele><time>2026-05-01T08:56:41Z</time></trkpt><trkpt lat="44.65132538892611" lon="0.980727986774467"><ele>251.0</ele><time>2026-05-01T08:56:42Z</time></trkpt><trkpt lat="44.65121808946796" lon="0.9807469002532876"><ele>251.0</ele><time>2026-05-01T08:56:43Z</time></trkpt><trkpt lat="44.65107739596126" lon="0.9807746109759307"><ele>251.0</ele><time>2026-05-01T08:56:44Z</time></trkpt><trkpt lat="44.65091004042239" lon="0.9808163853937066"><ele>251.0</ele><time>2026-05-01T08:56:45Z</time></trkpt><trkpt lat="44.6507246827174" lon="0.9808699811881405"><ele>254.33333333333334</ele><time>2026-05-01T08:56:46Z</time></trkpt><trkpt lat="44.65050565080456" lon="0.980912731131641"><ele>257.6666666666667</ele><time>2026-05-01T08:56:47Z</time></trkpt><trkpt lat="44.65031641964634" lon="0.9809382053586811"><ele>261.0</ele><time>2026-05-01T08:56:48Z</time></trkpt><trkpt lat="44.65011839715204" lon="0.9809725122441396"><ele>262.0</ele><time>2026-05-01T08:56:49Z</time></trkpt><trkpt lat="44.64994061762452" lon="0.9810203156082035"><ele>263.0</ele><time>2026-05-01T08:56:50Z</time></trkpt><trkpt lat="44.6497851899894" lon="0.9810461650605625"><ele>264.0</ele><time>2026-05-01T08:56:51Z</time></trkpt><trkpt lat="44.6496260410583" lon="0.9810764594565264"><ele>264.0</ele><time>2026-05-01T08:56:52Z</time></trkpt><trkpt lat="44.64948964029262" lon="0.9810763063248124"><ele>264.0</ele><time>2026-05-01T08:56:53Z</time></trkpt><trkpt lat="44.64936222511184" lon="0.9810514763673639"><ele>264.0</ele><time>2026-05-01T08:56:54Z</time></trkpt><trkpt lat="44.64923566068421" lon="0.980999298472592"><ele>264.0</ele><time>2026-05-01T08:56:55Z</time></trkpt><trkpt lat="44.64910015067002" lon="0.9809780478541975"><ele>265.25</ele><time>2026-05-01T08:56:56Z</time></trkpt><trkpt lat="44.64895020526389" lon="0.9809439572747228"><ele>266.5</ele><time>2026-05-01T08:56:57Z</time></trkpt><trkpt lat="44.64882645513089" lon="0.9809028134815964"><ele>267.75</ele><time>2026-05-01T08:56:58Z</time></trkpt><trkpt lat="44.64870705901706" lon="0.9808432382614993"><ele>269.0</ele><time>2026-05-01T08:56:59Z</time></trkpt><trkpt lat="44.64860007660461" lon="0.9808324449545142"><ele>269.0</ele><time>2026-05-01T08:57:00Z</time></trkpt><trkpt lat="44.64848814904087" lon="0.9807960545360992"><ele>269.0</ele><time>2026-05-01T08:57:01Z</time></trkpt><trkpt lat="44.64836353680987" lon="0.9807609328296357"><ele>269.0</ele><time>2026-05-01T08:57:02Z</time></trkpt><trkpt lat="44.648239914707425" lon="0.9807270070802789"><ele>269.0</ele><time>2026-05-01T08:57:03Z</time></trkpt><trkpt lat="44.64810749548636" lon="0.9806912104609374"><ele>269.0</ele><time>2026-05-01T08:57:04Z</time></trkpt><trkpt lat="44.64795368212012" lon="0.9806467785676158"><ele>269.0</ele><time>2026-05-01T08:57:05Z</time></trkpt><trkpt lat="44.64781700188009" lon="0.9806159740683064"><ele>269.0</ele><time>2026-05-01T08:57:06Z</time></trkpt><trkpt lat="44.64768057873128" lon="0.9805975640626056"><ele>269.0</ele><time>2026-05-01T08:57:07Z</time></trkpt><trkpt lat="44.64753119389066" lon="0.9805893019981584"><ele>267.5</ele><time>2026-05-01T08:57:08Z</time></trkpt><trkpt lat="44.64740556669768" lon="0.9805901600043577"><ele>266.0</ele><time>2026-05-01T08:57:09Z</time></trkpt><trkpt lat="44.6472805194919" lon="0.9805876629933539"><ele>264.5</ele><time>2026-05-01T08:57:10Z</time></trkpt><trkpt lat="44.64716025689596" lon="0.9805739452368488"><ele>263.0</ele><time>2026-05-01T08:57:11Z</time></trkpt><trkpt lat="44.6470252423123" lon="0.980550674650154"><ele>262.5</ele><time>2026-05-01T08:57:12Z</time></trkpt><trkpt lat="44.64688464545759" lon="0.9805035813711537"><ele>262.0</ele><time>2026-05-01T08:57:13Z</time></trkpt><trkpt lat="44.64674952179949" lon="0.9804588137497078"><ele>261.5</ele><time>2026-05-01T08:57:14Z</time></trkpt><trkpt lat="44.64661313730524" lon="0.9804255401320907"><ele>261.0</ele><time>2026-05-01T08:57:15Z</time></trkpt><trkpt lat="44.64646514468121" lon="0.9803833499109756"><ele>261.0</ele><time>2026-05-01T08:57:16Z</time></trkpt><trkpt lat="44.64630830217115" lon="0.9803280196280456"><ele>261.0</ele><time>2026-05-01T08:57:17Z</time></trkpt><trkpt lat="44.64615757184657" lon="0.9802995316343308"><ele>261.0</ele><time>2026-05-01T08:57:18Z</time></trkpt><trkpt lat="44.64599427076365" lon="0.9803068195597265"><ele>261.0</ele><time>2026-05-01T08:57:19Z</time></trkpt><trkpt lat="44.64583309038038" lon="0.9802997451858309"><ele>261.0</ele><time>2026-05-01T08:57:20Z</time></trkpt><trkpt lat="44.645702025432165" lon="0.980303863069747"><ele>261.0</ele><time>2026-05-01T08:57:21Z</time></trkpt><trkpt lat="44.64553333233666" lon="0.9803265413210526"><ele>261.0</ele><time>2026-05-01T08:57:22Z</time></trkpt><trkpt lat="44.64539864839164" lon="0.9803634497830118"><ele>261.0</ele><time>2026-05-01T08:57:23Z</time></trkpt><trkpt lat="44.64526827259394" lon="0.9803902920019218"><ele>261.0</ele><time>2026-05-01T08:57:24Z</time></trkpt><trkpt lat="44.64512014863841" lon="0.9804353878136634"><ele>261.0</ele><time>2026-05-01T08:57:25Z</time></trkpt><trkpt lat="44.64494338343885" lon="0.9804873898997762"><ele>261.25</ele><time>2026-05-01T08:57:26Z</time></trkpt><trkpt lat="44.64478992108403" lon="0.9805344548738048"><ele>261.5</ele><time>2026-05-01T08:57:27Z</time></trkpt><trkpt lat="44.644639509832466" lon="0.9805756001465551"><ele>261.75</ele><time>2026-05-01T08:57:28Z</time></trkpt><trkpt lat="44.644505886255395" lon="0.9806251710785966"><ele>262.0</ele><time>2026-05-01T08:57:29Z</time></trkpt><trkpt lat="44.64435178137151" lon="0.9806422332772123"><ele>262.0</ele><time>2026-05-01T08:57:30Z</time></trkpt><trkpt lat="44.64421927192613" lon="0.9806780495836629"><ele>262.0</ele><time>2026-05-01T08:57:31Z</time></trkpt><trkpt lat="44.64406796179617" lon="0.9807189473672131"><ele>262.0</ele><time>2026-05-01T08:57:32Z</time></trkpt><trkpt lat="44.64392053989695" lon="0.9807663562985088"><ele>262.0</ele><time>2026-05-01T08:57:33Z</time></trkpt><trkpt lat="44.643778633847816" lon="0.9808254678358734"><ele>262.25</ele><time>2026-05-01T08:57:34Z</time></trkpt><trkpt lat="44.643647564438" lon="0.9808829531150037"><ele>262.5</ele><time>2026-05-01T08:57:35Z</time></trkpt><trkpt lat="44.643509820512534" lon="0.9809442520333668"><ele>262.75</ele><time>2026-05-01T08:57:36Z</time></trkpt><trkpt lat="44.643377747954645" lon="0.9810440672811725"><ele>263.0</ele><time>2026-05-01T08:57:37Z</time></trkpt><trkpt lat="44.64326159238437" lon="0.9811176347321049"><ele>263.5</ele><time>2026-05-01T08:57:38Z</time></trkpt><trkpt lat="44.64313822845834" lon="0.981199997157109"><ele>264.0</ele><time>2026-05-01T08:57:39Z</time></trkpt><trkpt lat="44.643033630789944" lon="0.9813049826033378"><ele>264.5</ele><time>2026-05-01T08:57:40Z</time></trkpt><trkpt lat="44.6429219900367" lon="0.9814019488377428"><ele>265.0</ele><time>2026-05-01T08:57:41Z</time></trkpt><trkpt lat="44.642802079942996" lon="0.9815091976715334"><ele>265.0</ele><time>2026-05-01T08:57:42Z</time></trkpt><trkpt lat="44.64268986014085" lon="0.9816221996637764"><ele>265.0</ele><time>2026-05-01T08:57:43Z</time></trkpt><trkpt lat="44.642565662337205" lon="0.9817267420343063"><ele>265.0</ele><time>2026-05-01T08:57:44Z</time></trkpt><trkpt lat="44.64243583081677" lon="0.9818255575793728"><ele>265.0</ele><time>2026-05-01T08:57:45Z</time></trkpt><trkpt lat="44.64229677845682" lon="0.9819057661811083"><ele>266.75</ele><time>2026-05-01T08:57:46Z</time></trkpt><trkpt lat="44.64216032600889" lon="0.9819896209743622"><ele>268.5</ele><time>2026-05-01T08:57:47Z</time></trkpt><trkpt lat="44.642033875372874" lon="0.9820750571623839"><ele>270.25</ele><time>2026-05-01T08:57:48Z</time></trkpt><trkpt lat="44.64190000325417" lon="0.9821793831139864"><ele>272.0</ele><time>2026-05-01T08:57:49Z</time></trkpt><trkpt lat="44.641765295835725" lon="0.9822995446822289"><ele>272.0</ele><time>2026-05-01T08:57:50Z</time></trkpt><trkpt lat="44.64163149036241" lon="0.9824360424568143"><ele>272.0</ele><time>2026-05-01T08:57:51Z</time></trkpt><trkpt lat="44.641509492275745" lon="0.9825789187760594"><ele>272.0</ele><time>2026-05-01T08:57:52Z</time></trkpt><trkpt lat="44.6413694383317" lon="0.9827255565329841"><ele>272.0</ele><time>2026-05-01T08:57:53Z</time></trkpt><trkpt lat="44.641240492053306" lon="0.9828656720405765"><ele>272.0</ele><time>2026-05-01T08:57:54Z</time></trkpt><trkpt lat="44.64113233103745" lon="0.9829822212464765"><ele>272.0</ele><time>2026-05-01T08:57:55Z</time></trkpt><trkpt lat="44.64103017892414" lon="0.983089198414695"><ele>272.0</ele><time>2026-05-01T08:57:56Z</time></trkpt><trkpt lat="44.64094410633858" lon="0.9831930015889083"><ele>270.33333333333337</ele><time>2026-05-01T08:57:57Z</time></trkpt><trkpt lat="44.64083426738928" lon="0.983352188342134"><ele>268.6666666666667</ele><time>2026-05-01T08:57:58Z</time></trkpt><trkpt lat="44.640725592103294" lon="0.9835056807675918"><ele>267.0</ele><time>2026-05-01T08:57:59Z</time></trkpt><trkpt lat="44.64060584918927" lon="0.983668008461486"><ele>267.0</ele><time>2026-05-01T08:58:00Z</time></trkpt><trkpt lat="44.64049347944717" lon="0.983827354897344"><ele>267.0</ele><time>2026-05-01T08:58:01Z</time></trkpt><trkpt lat="44.640394031313775" lon="0.9839933891140605"><ele>267.0</ele><time>2026-05-01T08:58:02Z</time></trkpt><trkpt lat="44.640293080701966" lon="0.9841673025845462"><ele>267.25</ele><time>2026-05-01T08:58:03Z</time></trkpt><trkpt lat="44.640198110008996" lon="0.9843238253774186"><ele>267.5</ele><time>2026-05-01T08:58:04Z</time></trkpt><trkpt lat="44.640120870199816" lon="0.9844798136280429"><ele>267.75</ele><time>2026-05-01T08:58:05Z</time></trkpt><trkpt lat="44.640034367952936" lon="0.9846484397952805"><ele>268.0</ele><time>2026-05-01T08:58:06Z</time></trkpt><trkpt lat="44.639959571130625" lon="0.9848135968488086"><ele>268.0</ele><time>2026-05-01T08:58:07Z</time></trkpt><trkpt lat="44.63986578400119" lon="0.9849604262178498"><ele>268.0</ele><time>2026-05-01T08:58:08Z</time></trkpt><trkpt lat="44.63979490704287" lon="0.985134661611507"><ele>268.0</ele><time>2026-05-01T08:58:09Z</time></trkpt><trkpt lat="44.63971638599446" lon="0.9852934138832317"><ele>268.0</ele><time>2026-05-01T08:58:10Z</time></trkpt><trkpt lat="44.63964318604647" lon="0.9854568959301642"><ele>268.25</ele><time>2026-05-01T08:58:11Z</time></trkpt><trkpt lat="44.639597320010985" lon="0.9856225340752781"><ele>268.5</ele><time>2026-05-01T08:58:12Z</time></trkpt><trkpt lat="44.63954450196211" lon="0.9858041631566368"><ele>268.75</ele><time>2026-05-01T08:58:13Z</time></trkpt><trkpt lat="44.639497733678915" lon="0.9859738954943615"><ele>269.0</ele><time>2026-05-01T08:58:14Z</time></trkpt><trkpt lat="44.639460106915514" lon="0.9861390246839286"><ele>269.0</ele><time>2026-05-01T08:58:15Z</time></trkpt><trkpt lat="44.639416423873215" lon="0.9863061137865131"><ele>269.0</ele><time>2026-05-01T08:58:16Z</time></trkpt><trkpt lat="44.63934591648653" lon="0.9864806668061585"><ele>269.0</ele><time>2026-05-01T08:58:17Z</time></trkpt><trkpt lat="44.6392919637338" lon="0.9866279173929242"><ele>269.0</ele><time>2026-05-01T08:58:18Z</time></trkpt><trkpt lat="44.63922147235506" lon="0.9868071441386402"><ele>269.2</ele><time>2026-05-01T08:58:19Z</time></trkpt><trkpt lat="44.63915322866717" lon="0.9869835554106915"><ele>269.4</ele><time>2026-05-01T08:58:20Z</time></trkpt><trkpt lat="44.63910312906347" lon="0.9871138472726969"><ele>269.6</ele><time>2026-05-01T08:58:21Z</time></trkpt><trkpt lat="44.63907431779363" lon="0.98721909268531"><ele>269.8</ele><time>2026-05-01T08:58:22Z</time></trkpt><trkpt lat="44.639012450985895" lon="0.9873496703375635"><ele>270.0</ele><time>2026-05-01T08:58:24Z</time></trkpt><trkpt lat="44.638979071510136" lon="0.9874364789715454"><ele>271.0</ele><time>2026-05-01T08:58:26Z</time></trkpt><trkpt lat="44.639163576983115" lon="0.9879378218552572"><ele>272.0</ele><time>2026-05-01T08:59:04Z</time></trkpt><trkpt lat="44.63919440070099" lon="0.9880623448085457"><ele>272.0</ele><time>2026-05-01T08:59:05Z</time></trkpt><trkpt lat="44.6392191203339" lon="0.988177323748084"><ele>272.0</ele><time>2026-05-01T08:59:06Z</time></trkpt><trkpt lat="44.63925323273503" lon="0.9882879291092196"><ele>272.0</ele><time>2026-05-01T08:59:07Z</time></trkpt><trkpt lat="44.63932379807047" lon="0.9883780280642103"><ele>272.0</ele><time>2026-05-01T08:59:08Z</time></trkpt><trkpt lat="44.63938882832226" lon="0.9884759219730946"><ele>272.0</ele><time>2026-05-01T08:59:09Z</time></trkpt><trkpt lat="44.63948484700859" lon="0.988576606708844"><ele>270.8</ele><time>2026-05-01T08:59:10Z</time></trkpt><trkpt lat="44.63955875587692" lon="0.9886860189027796"><ele>269.6</ele><time>2026-05-01T08:59:11Z</time></trkpt><trkpt lat="44.6396413291433" lon="0.9888011591071894"><ele>268.40000000000003</ele><time>2026-05-01T08:59:12Z</time></trkpt><trkpt lat="44.63971162900376" lon="0.9889225386404739"><ele>267.2</ele><time>2026-05-01T08:59:13Z</time></trkpt><trkpt lat="44.63977122965037" lon="0.9890583726037219"><ele>266.0</ele><time>2026-05-01T08:59:14Z</time></trkpt><trkpt lat="44.639832579315474" lon="0.9891609327049581"><ele>265.40000000000003</ele><time>2026-05-01T08:59:15Z</time></trkpt><trkpt lat="44.63991306277615" lon="0.9892466587410076"><ele>264.8</ele><time>2026-05-01T08:59:16Z</time></trkpt><trkpt lat="44.64002255202802" lon="0.9893445768494614"><ele>264.20000000000005</ele><time>2026-05-01T08:59:17Z</time></trkpt><trkpt lat="44.640110180710955" lon="0.9894152932526058"><ele>263.6</ele><time>2026-05-01T08:59:18Z</time></trkpt><trkpt lat="44.64020068584693" lon="0.9894900887291248"><ele>263.0</ele><time>2026-05-01T08:59:19Z</time></trkpt><trkpt lat="44.64029276466007" lon="0.9895389675871205"><ele>261.2</ele><time>2026-05-01T08:59:20Z</time></trkpt><trkpt lat="44.64039894670429" lon="0.9895812372029742"><ele>259.4</ele><time>2026-05-01T08:59:21Z</time></trkpt><trkpt lat="44.64049933822927" lon="0.9896416313796269"><ele>257.59999999999997</ele><time>2026-05-01T08:59:22Z</time></trkpt><trkpt lat="44.64059461179381" lon="0.9896997827765376"><ele>255.79999999999998</ele><time>2026-05-01T08:59:23Z</time></trkpt><trkpt lat="44.64070240716323" lon="0.989740197354214"><ele>254.0</ele><time>2026-05-01T08:59:24Z</time></trkpt><trkpt lat="44.64082839353913" lon="0.9897868117654091"><ele>254.0</ele><time>2026-05-01T08:59:25Z</time></trkpt><trkpt lat="44.640957677402724" lon="0.989843211352278"><ele>254.0</ele><time>2026-05-01T08:59:26Z</time></trkpt><trkpt lat="44.641092689782454" lon="0.9899165837094125"><ele>254.0</ele><time>2026-05-01T08:59:27Z</time></trkpt><trkpt lat="44.641196231601796" lon="0.9900040289615721"><ele>254.0</ele><time>2026-05-01T08:59:28Z</time></trkpt><trkpt lat="44.641286668899944" lon="0.99008480312667"><ele>253.50000000000003</ele><time>2026-05-01T08:59:29Z</time></trkpt><trkpt lat="44.64137269505009" lon="0.990175153746368"><ele>253.0</ele><time>2026-05-01T08:59:30Z</time></trkpt><trkpt lat="44.641441634838664" lon="0.9902681776294274"><ele>252.5</ele><time>2026-05-01T08:59:31Z</time></trkpt><trkpt lat="44.64152022733437" lon="0.9903320756079403"><ele>252.0</ele><time>2026-05-01T08:59:32Z</time></trkpt><trkpt lat="44.641594656684376" lon="0.9903412411688178"><ele>251.50000000000003</ele><time>2026-05-01T08:59:33Z</time></trkpt><trkpt lat="44.64167416678039" lon="0.9903277617743672"><ele>251.0</ele><time>2026-05-01T08:59:34Z</time></trkpt><trkpt lat="44.641780682817696" lon="0.9903391617523155"><ele>251.0</ele><time>2026-05-01T08:59:35Z</time></trkpt><trkpt lat="44.64190104652316" lon="0.9903566557699731"><ele>251.0</ele><time>2026-05-01T08:59:36Z</time></trkpt><trkpt lat="44.64201966764325" lon="0.9903979868469452"><ele>251.0</ele><time>2026-05-01T08:59:37Z</time></trkpt><trkpt lat="44.64211979520553" lon="0.9904237778985219"><ele>251.0</ele><time>2026-05-01T08:59:38Z</time></trkpt><trkpt lat="44.642248113120175" lon="0.9904551322676768"><ele>250.0</ele><time>2026-05-01T08:59:39Z</time></trkpt><trkpt lat="44.64236121707685" lon="0.9904950907138046"><ele>249.0</ele><time>2026-05-01T08:59:40Z</time></trkpt><trkpt lat="44.642483379682126" lon="0.9905779602202621"><ele>248.0</ele><time>2026-05-01T08:59:41Z</time></trkpt><trkpt lat="44.64257940145143" lon="0.9906248425061784"><ele>247.0</ele><time>2026-05-01T08:59:42Z</time></trkpt><trkpt lat="44.64268220821518" lon="0.990666114031631"><ele>247.0</ele><time>2026-05-01T08:59:44Z</time></trkpt><trkpt lat="44.642750263290246" lon="0.9907874909467432"><ele>247.0</ele><time>2026-05-01T08:59:45Z</time></trkpt><trkpt lat="44.64280252246671" lon="0.9909059497489198"><ele>247.0</ele><time>2026-05-01T08:59:46Z</time></trkpt><trkpt lat="44.64283820138039" lon="0.9910488224574329"><ele>247.0</ele><time>2026-05-01T08:59:47Z</time></trkpt><trkpt lat="44.64287870554556" lon="0.9911945232559111"><ele>247.0</ele><time>2026-05-01T08:59:48Z</time></trkpt><trkpt lat="44.642938210165056" lon="0.9913369532932819"><ele>246.5</ele><time>2026-05-01T08:59:49Z</time></trkpt><trkpt lat="44.64301227973547" lon="0.991459951334656"><ele>246.0</ele><time>2026-05-01T08:59:50Z</time></trkpt><trkpt lat="44.64308899346241" lon="0.9915861067957408"><ele>245.5</ele><time>2026-05-01T08:59:51Z</time></trkpt><trkpt lat="44.643155070187035" lon="0.9916989673107609"><ele>245.0</ele><time>2026-05-01T08:59:52Z</time></trkpt><trkpt lat="44.64326407679519" lon="0.9918226349631014"><ele>245.2</ele><time>2026-05-01T08:59:53Z</time></trkpt><trkpt lat="44.643394246760664" lon="0.9919438506051939"><ele>245.4</ele><time>2026-05-01T08:59:54Z</time></trkpt><trkpt lat="44.643478646934014" lon="0.9920075131844865"><ele>245.60000000000002</ele><time>2026-05-01T08:59:55Z</time></trkpt><trkpt lat="44.643557453601396" lon="0.9920931813236273"><ele>245.8</ele><time>2026-05-01T08:59:56Z</time></trkpt><trkpt lat="44.64360674613997" lon="0.9922077379427069"><ele>246.0</ele><time>2026-05-01T08:59:57Z</time></trkpt><trkpt lat="44.64368061070493" lon="0.9923030562692298"><ele>246.0</ele><time>2026-05-01T08:59:58Z</time></trkpt><trkpt lat="44.6437483542911" lon="0.9924159139749693"><ele>246.0</ele><time>2026-05-01T08:59:59Z</time></trkpt><trkpt lat="44.643834451605514" lon="0.9925275395758825"><ele>246.0</ele><time>2026-05-01T09:00:00Z</time></trkpt><trkpt lat="44.64391215886575" lon="0.9926284857641252"><ele>246.0</ele><time>2026-05-01T09:00:01Z</time></trkpt><trkpt lat="44.644050952020926" lon="0.9927740492660676"><ele>247.0</ele><time>2026-05-01T09:00:02Z</time></trkpt><trkpt lat="44.6441575365006" lon="0.992894322681655"><ele>248.0</ele><time>2026-05-01T09:00:03Z</time></trkpt><trkpt lat="44.64423931586232" lon="0.9929973697245504"><ele>249.0</ele><time>2026-05-01T09:00:04Z</time></trkpt><trkpt lat="44.644319970603235" lon="0.9931042246086318"><ele>250.0</ele><time>2026-05-01T09:00:05Z</time></trkpt><trkpt lat="44.644458093483884" lon="0.993174901124611"><ele>248.0</ele><time>2026-05-01T09:00:06Z</time></trkpt><trkpt lat="44.64457334050303" lon="0.9932524267175536"><ele>246.0</ele><time>2026-05-01T09:00:07Z</time></trkpt><trkpt lat="44.644689597067256" lon="0.993357375247524"><ele>244.0</ele><time>2026-05-01T09:00:08Z</time></trkpt><trkpt lat="44.644753119379814" lon="0.9934741034280824"><ele>242.0</ele><time>2026-05-01T09:00:09Z</time></trkpt><trkpt lat="44.644846825643505" lon="0.9935425885233667"><ele>242.0</ele><time>2026-05-01T09:00:10Z</time></trkpt><trkpt lat="44.64493370758552" lon="0.9936382064012034"><ele>242.0</ele><time>2026-05-01T09:00:11Z</time></trkpt><trkpt lat="44.64501922035218" lon="0.9937170097948129"><ele>242.0</ele><time>2026-05-01T09:00:12Z</time></trkpt><trkpt lat="44.645104585237625" lon="0.9938174409040627"><ele>242.0</ele><time>2026-05-01T09:00:13Z</time></trkpt><trkpt lat="44.64518287522594" lon="0.9939053065730515"><ele>242.0</ele><time>2026-05-01T09:00:14Z</time></trkpt><trkpt lat="44.64526283045341" lon="0.9939682658075931"><ele>240.8</ele><time>2026-05-01T09:00:15Z</time></trkpt><trkpt lat="44.64534034760334" lon="0.9939735311093876"><ele>239.6</ele><time>2026-05-01T09:00:16Z</time></trkpt><trkpt lat="44.64542784533613" lon="0.9940494254971144"><ele>238.40000000000003</ele><time>2026-05-01T09:00:17Z</time></trkpt><trkpt lat="44.64549561138271" lon="0.9941453975157263"><ele>237.20000000000002</ele><time>2026-05-01T09:00:18Z</time></trkpt><trkpt lat="44.645573145019796" lon="0.9942643019382719"><ele>236.0</ele><time>2026-05-01T09:00:19Z</time></trkpt><trkpt lat="44.64564414631317" lon="0.994397447260293"><ele>236.0</ele><time>2026-05-01T09:00:20Z</time></trkpt><trkpt lat="44.645736373934604" lon="0.9945165850298622"><ele>236.0</ele><time>2026-05-01T09:00:21Z</time></trkpt><trkpt lat="44.645845306549056" lon="0.994608657701492"><ele>236.0</ele><time>2026-05-01T09:00:22Z</time></trkpt><trkpt lat="44.6459489609201" lon="0.9947076389923682"><ele>236.0</ele><time>2026-05-01T09:00:23Z</time></trkpt><trkpt lat="44.64604887417734" lon="0.9947723210364415"><ele>235.20000000000002</ele><time>2026-05-01T09:00:24Z</time></trkpt><trkpt lat="44.64615514017271" lon="0.9948211257778328"><ele>234.40000000000003</ele><time>2026-05-01T09:00:25Z</time></trkpt><trkpt lat="44.646247982282205" lon="0.9949048276130436"><ele>233.6</ele><time>2026-05-01T09:00:26Z</time></trkpt><trkpt lat="44.64633151655111" lon="0.9949964622854881"><ele>232.8</ele><time>2026-05-01T09:00:27Z</time></trkpt><trkpt lat="44.64640736557965" lon="0.9950936736985477"><ele>232.0</ele><time>2026-05-01T09:00:28Z</time></trkpt><trkpt lat="44.64647361679435" lon="0.9951907314000598"><ele>232.0</ele><time>2026-05-01T09:00:29Z</time></trkpt><trkpt lat="44.646527579946465" lon="0.9953117737380069"><ele>232.0</ele><time>2026-05-01T09:00:30Z</time></trkpt><trkpt lat="44.646568726499616" lon="0.9954356832543204"><ele>232.0</ele><time>2026-05-01T09:00:31Z</time></trkpt><trkpt lat="44.64658294860391" lon="0.9955553749964484"><ele>232.0</ele><time>2026-05-01T09:00:32Z</time></trkpt><trkpt lat="44.64657110839712" lon="0.9956950311635057"><ele>232.0</ele><time>2026-05-01T09:00:33Z</time></trkpt><trkpt lat="44.646564395321136" lon="0.9958352911294497"><ele>231.6</ele><time>2026-05-01T09:00:34Z</time></trkpt><trkpt lat="44.646569515041" lon="0.9959762121487815"><ele>231.2</ele><time>2026-05-01T09:00:35Z</time></trkpt><trkpt lat="44.6465665612247" lon="0.9961167768910701"><ele>230.8</ele><time>2026-05-01T09:00:36Z</time></trkpt><trkpt lat="44.64658066015383" lon="0.9962767830284596"><ele>230.4</ele><time>2026-05-01T09:00:37Z</time></trkpt><trkpt lat="44.64657136325927" lon="0.9964337560375128"><ele>230.0</ele><time>2026-05-01T09:00:38Z</time></trkpt><trkpt lat="44.64656750339826" lon="0.9966025109039103"><ele>229.8</ele><time>2026-05-01T09:00:39Z</time></trkpt><trkpt lat="44.646555784563965" lon="0.9967466331419025"><ele>229.6</ele><time>2026-05-01T09:00:40Z</time></trkpt><trkpt lat="44.646557780463624" lon="0.9968865434507432"><ele>229.39999999999998</ele><time>2026-05-01T09:00:41Z</time></trkpt><trkpt lat="44.646562390890296" lon="0.9970230536338874"><ele>229.2</ele><time>2026-05-01T09:00:42Z</time></trkpt><trkpt lat="44.64656690956945" lon="0.9971696500669998"><ele>229.0</ele><time>2026-05-01T09:00:43Z</time></trkpt><trkpt lat="44.64656337909539" lon="0.9973008495443557"><ele>229.0</ele><time>2026-05-01T09:00:44Z</time></trkpt><trkpt lat="44.64657512865255" lon="0.9974395565034821"><ele>228.99999999999997</ele><time>2026-05-01T09:00:45Z</time></trkpt><trkpt lat="44.64660580234172" lon="0.9975325211861773"><ele>228.99999999999997</ele><time>2026-05-01T09:00:46Z</time></trkpt><trkpt lat="44.64660558445301" lon="0.9976896859649427"><ele>229.0</ele><time>2026-05-01T09:00:47Z</time></trkpt><trkpt lat="44.64664414260209" lon="0.9978268099636"><ele>229.0</ele><time>2026-05-01T09:00:48Z</time></trkpt><trkpt lat="44.64669260919225" lon="0.9979481811513093"><ele>228.99999999999997</ele><time>2026-05-01T09:00:49Z</time></trkpt><trkpt lat="44.646721545634314" lon="0.9980664326223294"><ele>229.0</ele><time>2026-05-01T09:00:50Z</time></trkpt><trkpt lat="44.64673873947272" lon="0.9981794278965364"><ele>229.0</ele><time>2026-05-01T09:00:51Z</time></trkpt><trkpt lat="44.64675666187777" lon="0.9982711589854505"><ele>229.0</ele><time>2026-05-01T09:00:52Z</time></trkpt><trkpt lat="44.646781629818825" lon="0.9983597484159907"><ele>228.99999999999997</ele><time>2026-05-01T09:00:53Z</time></trkpt><trkpt lat="44.64685473439201" lon="0.9984282886806173"><ele>229.0</ele><time>2026-05-01T09:00:54Z</time></trkpt><trkpt lat="44.64691058294522" lon="0.9984707044488849"><ele>228.2</ele><time>2026-05-01T09:00:55Z</time></trkpt><trkpt lat="44.647013247026706" lon="0.9985752245087067"><ele>227.39999999999998</ele><time>2026-05-01T09:00:57Z</time></trkpt><trkpt lat="44.64711441041667" lon="0.9986719001807859"><ele>226.6</ele><time>2026-05-01T09:00:59Z</time></trkpt><trkpt lat="44.647160307970275" lon="0.9987483826544895"><ele>225.8</ele><time>2026-05-01T09:01:01Z</time></trkpt><trkpt lat="44.64727096594725" lon="0.9987031304615102"><ele>225.0</ele><time>2026-05-01T09:01:04Z</time></trkpt><trkpt lat="44.64733444283017" lon="0.9986518982512992"><ele>225.0</ele><time>2026-05-01T09:01:05Z</time></trkpt><trkpt lat="44.64741398512529" lon="0.9985894783108759"><ele>225.0</ele><time>2026-05-01T09:01:06Z</time></trkpt><trkpt lat="44.64752067514264" lon="0.9984959529087076"><ele>225.0</ele><time>2026-05-01T09:01:07Z</time></trkpt><trkpt lat="44.64764611057968" lon="0.9983948028036086"><ele>225.0</ele><time>2026-05-01T09:01:08Z</time></trkpt><trkpt lat="44.64777551685482" lon="0.9983139102633974"><ele>221.66666666666669</ele><time>2026-05-01T09:01:09Z</time></trkpt><trkpt lat="44.64792624020857" lon="0.9982073638044331"><ele>218.33333333333334</ele><time>2026-05-01T09:01:10Z</time></trkpt><trkpt lat="44.648076582253935" lon="0.9980849486039741"><ele>215.0</ele><time>2026-05-01T09:01:11Z</time></trkpt><trkpt lat="44.64821416940066" lon="0.9979992718139008"><ele>215.0</ele><time>2026-05-01T09:01:12Z</time></trkpt><trkpt lat="44.64834951058613" lon="0.9979103658950014"><ele>215.0</ele><time>2026-05-01T09:01:13Z</time></trkpt><trkpt lat="44.64848625020279" lon="0.9978182363487206"><ele>215.0</ele><time>2026-05-01T09:01:14Z</time></trkpt><trkpt lat="44.648616621113135" lon="0.9977369776095372"><ele>215.0</ele><time>2026-05-01T09:01:15Z</time></trkpt><trkpt lat="44.64873923703474" lon="0.9976635080744374"><ele>213.83333333333334</ele><time>2026-05-01T09:01:16Z</time></trkpt><trkpt lat="44.64883356550103" lon="0.9975934600766307"><ele>212.66666666666669</ele><time>2026-05-01T09:01:17Z</time></trkpt><trkpt lat="44.64892571613585" lon="0.9975292127060236"><ele>211.5</ele><time>2026-05-01T09:01:18Z</time></trkpt><trkpt lat="44.64901228452314" lon="0.9974757454747021"><ele>210.33333333333331</ele><time>2026-05-01T09:01:19Z</time></trkpt><trkpt lat="44.64907024999188" lon="0.9974408235209509"><ele>209.16666666666666</ele><time>2026-05-01T09:01:20Z</time></trkpt><trkpt lat="44.649137515492974" lon="0.9974258114803788"><ele>208.0</ele><time>2026-05-01T09:01:22Z</time></trkpt><trkpt lat="44.64909423467744" lon="0.9974980163748809"><ele>208.0</ele><time>2026-05-01T09:01:26Z</time></trkpt><trkpt lat="44.649137480350056" lon="0.997761851432241"><ele>208.0</ele><time>2026-05-01T09:01:27Z</time></trkpt><trkpt lat="44.64914829660796" lon="0.9979337165282297"><ele>208.0</ele><time>2026-05-01T09:01:28Z</time></trkpt><trkpt lat="44.64915290141897" lon="0.9981168348144206"><ele>208.0</ele><time>2026-05-01T09:01:29Z</time></trkpt><trkpt lat="44.64915509015995" lon="0.9982868853729094"><ele>208.2</ele><time>2026-05-01T09:01:30Z</time></trkpt><trkpt lat="44.649158841496295" lon="0.9984200537951001"><ele>208.4</ele><time>2026-05-01T09:01:31Z</time></trkpt><trkpt lat="44.64915953889849" lon="0.9985549593105038"><ele>208.6</ele><time>2026-05-01T09:01:32Z</time></trkpt><trkpt lat="44.64919729293205" lon="0.9986985446054453"><ele>208.79999999999998</ele><time>2026-05-01T09:01:33Z</time></trkpt><trkpt lat="44.6492178449177" lon="0.9988192999276202"><ele>209.0</ele><time>2026-05-01T09:01:35Z</time></trkpt><trkpt lat="44.649274360436436" lon="0.9988643615861067"><ele>209.0</ele><time>2026-05-01T09:01:36Z</time></trkpt><trkpt lat="44.64932010838816" lon="0.9989290900284069"><ele>209.0</ele><time>2026-05-01T09:01:37Z</time></trkpt><trkpt lat="44.649431283308694" lon="0.9990213236612795"><ele>209.0</ele><time>2026-05-01T09:01:39Z</time></trkpt><trkpt lat="44.6495405876554" lon="0.9990124164036391"><ele>209.0</ele><time>2026-05-01T09:01:41Z</time></trkpt><trkpt lat="44.64960485795891" lon="0.9989632104465698"><ele>209.0</ele><time>2026-05-01T09:01:42Z</time></trkpt><trkpt lat="44.64971932610356" lon="0.9989017024523069"><ele>209.39999999999998</ele><time>2026-05-01T09:01:43Z</time></trkpt><trkpt lat="44.64979359444244" lon="0.9988367076491325"><ele>209.8</ele><time>2026-05-01T09:01:44Z</time></trkpt><trkpt lat="44.64988411125827" lon="0.9987921533931425"><ele>210.2</ele><time>2026-05-01T09:01:46Z</time></trkpt><trkpt lat="44.64995128782762" lon="0.9988683681032777"><ele>210.60000000000002</ele><time>2026-05-01T09:01:48Z</time></trkpt><trkpt lat="44.65000090307563" lon="0.9989531611794257"><ele>211.0</ele><time>2026-05-01T09:01:50Z</time></trkpt><trkpt lat="44.650045901342175" lon="0.9991202055245013"><ele>211.60000000000002</ele><time>2026-05-01T09:01:52Z</time></trkpt><trkpt lat="44.65009116738466" lon="0.9992739789213901"><ele>212.2</ele><time>2026-05-01T09:01:54Z</time></trkpt><trkpt lat="44.65017129088157" lon="0.9993007163302232"><ele>212.79999999999998</ele><time>2026-05-01T09:01:55Z</time></trkpt><trkpt lat="44.65023459385507" lon="0.9993331685152091"><ele>213.39999999999998</ele><time>2026-05-01T09:01:56Z</time></trkpt><trkpt lat="44.650304969103786" lon="0.9994069219491113"><ele>214.0</ele><time>2026-05-01T09:01:57Z</time></trkpt><trkpt lat="44.650384706732105" lon="0.9994977624016007"><ele>214.0</ele><time>2026-05-01T09:01:58Z</time></trkpt><trkpt lat="44.65046401539998" lon="0.9995432801918045"><ele>213.99999999999997</ele><time>2026-05-01T09:01:59Z</time></trkpt><trkpt lat="44.650580569283136" lon="0.9995952878950005"><ele>213.99999999999997</ele><time>2026-05-01T09:02:00Z</time></trkpt><trkpt lat="44.65067007671644" lon="0.9996940705988412"><ele>214.0</ele><time>2026-05-01T09:02:01Z</time></trkpt><trkpt lat="44.65074483383843" lon="0.9997280430576898"><ele>214.0</ele><time>2026-05-01T09:02:02Z</time></trkpt><trkpt lat="44.65082246979609" lon="0.9997674748290373"><ele>213.99999999999997</ele><time>2026-05-01T09:02:03Z</time></trkpt><trkpt lat="44.650893644140105" lon="0.9998117269366226"><ele>214.0</ele><time>2026-05-01T09:02:04Z</time></trkpt><trkpt lat="44.65094870813465" lon="0.9998753610775409"><ele>214.0</ele><time>2026-05-01T09:02:05Z</time></trkpt><trkpt lat="44.65100040946793" lon="0.9999755223221624"><ele>214.0</ele><time>2026-05-01T09:02:06Z</time></trkpt><trkpt lat="44.65105832299507" lon="1.0000450232780478"><ele>213.99999999999997</ele><time>2026-05-01T09:02:07Z</time></trkpt><trkpt lat="44.651120559996414" lon="1.0000864041736575"><ele>214.0</ele><time>2026-05-01T09:02:08Z</time></trkpt><trkpt lat="44.651163852384855" lon="1.0001600882840478"><ele>214.0</ele><time>2026-05-01T09:02:09Z</time></trkpt><trkpt lat="44.651096173985145" lon="1.0002252634540822"><ele>213.99999999999997</ele><time>2026-05-01T09:02:11Z</time></trkpt><trkpt lat="44.65113312195731" lon="1.000305783384206"><ele>213.99999999999997</ele><time>2026-05-01T09:02:13Z</time></trkpt><trkpt lat="44.65118863224018" lon="1.0004047190364218"><ele>214.0</ele><time>2026-05-01T09:02:22Z</time></trkpt><trkpt lat="44.651102802965035" lon="1.000554414052774"><ele>214.0</ele><time>2026-05-01T09:02:24Z</time></trkpt><trkpt lat="44.65105667286171" lon="1.000645843971217"><ele>214.0</ele><time>2026-05-01T09:02:25Z</time></trkpt><trkpt lat="44.65100740878316" lon="1.000761703380262"><ele>213.99999999999997</ele><time>2026-05-01T09:02:26Z</time></trkpt><trkpt lat="44.6509608868472" lon="1.0008466256717032"><ele>213.99999999999997</ele><time>2026-05-01T09:02:27Z</time></trkpt><trkpt lat="44.65088583933567" lon="1.000928785062161"><ele>214.0</ele><time>2026-05-01T09:02:28Z</time></trkpt><trkpt lat="44.65082712821916" lon="1.001004482933368"><ele>214.0</ele><time>2026-05-01T09:02:29Z</time></trkpt><trkpt lat="44.65076150328059" lon="1.0011208245627596"><ele>212.25</ele><time>2026-05-01T09:02:30Z</time></trkpt><trkpt lat="44.65067678383352" lon="1.0012087865353683"><ele>210.5</ele><time>2026-05-01T09:02:31Z</time></trkpt><trkpt lat="44.65059198310755" lon="1.001351599111197"><ele>208.75</ele><time>2026-05-01T09:02:32Z</time></trkpt><trkpt lat="44.650527079545256" lon="1.0014709237068355"><ele>207.0</ele><time>2026-05-01T09:02:33Z</time></trkpt><trkpt lat="44.650435903706075" lon="1.0015473196833011"><ele>207.0</ele><time>2026-05-01T09:02:34Z</time></trkpt><trkpt lat="44.650374945167755" lon="1.0016418991824976"><ele>207.0</ele><time>2026-05-01T09:02:35Z</time></trkpt><trkpt lat="44.65037396768002" lon="1.0017647017433915"><ele>207.0</ele><time>2026-05-01T09:02:36Z</time></trkpt><trkpt lat="44.65035325965655" lon="1.0019074759532511"><ele>207.0</ele><time>2026-05-01T09:02:37Z</time></trkpt><trkpt lat="44.650285228483924" lon="1.002025617153916"><ele>207.0</ele><time>2026-05-01T09:02:38Z</time></trkpt><trkpt lat="44.65027010365999" lon="1.0021903531680738"><ele>206.83333333333334</ele><time>2026-05-01T09:02:40Z</time></trkpt><trkpt lat="44.65027401085529" lon="1.0022849909688498"><ele>206.66666666666669</ele><time>2026-05-01T09:02:41Z</time></trkpt><trkpt lat="44.65026965137005" lon="1.0023915226016311"><ele>206.5</ele><time>2026-05-01T09:02:42Z</time></trkpt><trkpt lat="44.65028001693072" lon="1.0025144061264233"><ele>206.33333333333334</ele><time>2026-05-01T09:02:43Z</time></trkpt><trkpt lat="44.650299608006215" lon="1.0026537943668246"><ele>206.16666666666669</ele><time>2026-05-01T09:02:44Z</time></trkpt><trkpt lat="44.65035018077024" lon="1.0027332657225212"><ele>206.0</ele><time>2026-05-01T09:02:45Z</time></trkpt><trkpt lat="44.650402492936934" lon="1.0027905886736703"><ele>208.33333333333334</ele><time>2026-05-01T09:02:46Z</time></trkpt><trkpt lat="44.650473913571076" lon="1.0028938297414594"><ele>210.66666666666669</ele><time>2026-05-01T09:02:47Z</time></trkpt><trkpt lat="44.650528763188355" lon="1.0030181505776432"><ele>213.0</ele><time>2026-05-01T09:02:49Z</time></trkpt><trkpt lat="44.650496177927884" lon="1.003108072630475"><ele>215.33333333333331</ele><time>2026-05-01T09:02:53Z</time></trkpt><trkpt lat="44.650479539991316" lon="1.0032418562165348"><ele>217.66666666666666</ele><time>2026-05-01T09:02:55Z</time></trkpt><trkpt lat="44.65046549737089" lon="1.0033349208833309"><ele>220.0</ele><time>2026-05-01T09:03:01Z</time></trkpt><trkpt lat="44.650387610351196" lon="1.0033964052290185"><ele>220.33333333333331</ele><time>2026-05-01T09:03:03Z</time></trkpt><trkpt lat="44.65031325971133" lon="1.0034011411403732"><ele>220.66666666666666</ele><time>2026-05-01T09:03:04Z</time></trkpt><trkpt lat="44.65023193916701" lon="1.0033989785778088"><ele>221.0</ele><time>2026-05-01T09:03:05Z</time></trkpt><trkpt lat="44.6501502355417" lon="1.003421610663839"><ele>221.33333333333331</ele><time>2026-05-01T09:03:06Z</time></trkpt><trkpt lat="44.65005997827285" lon="1.0034600519886443"><ele>221.66666666666666</ele><time>2026-05-01T09:03:07Z</time></trkpt><trkpt lat="44.64995792976523" lon="1.003487535684168"><ele>222.0</ele><time>2026-05-01T09:03:08Z</time></trkpt><trkpt lat="44.64984300727893" lon="1.0035027837653856"><ele>218.0</ele><time>2026-05-01T09:03:09Z</time></trkpt><trkpt lat="44.649717281060184" lon="1.003501556647234"><ele>214.0</ele><time>2026-05-01T09:03:10Z</time></trkpt><trkpt lat="44.649591805060105" lon="1.0034806675316206"><ele>210.0</ele><time>2026-05-01T09:03:11Z</time></trkpt><trkpt lat="44.64946503763021" lon="1.0034524279042867"><ele>206.0</ele><time>2026-05-01T09:03:12Z</time></trkpt><trkpt lat="44.64934269177875" lon="1.0034209326493233"><ele>206.0</ele><time>2026-05-01T09:03:13Z</time></trkpt><trkpt lat="44.6492148942185" lon="1.0033941951649064"><ele>206.0</ele><time>2026-05-01T09:03:14Z</time></trkpt><trkpt lat="44.649104612977645" lon="1.0033788526920575"><ele>206.0</ele><time>2026-05-01T09:03:15Z</time></trkpt><trkpt lat="44.649004945899115" lon="1.0033684598643724"><ele>206.0</ele><time>2026-05-01T09:03:16Z</time></trkpt><trkpt lat="44.64891061264469" lon="1.0033624562391867"><ele>206.0</ele><time>2026-05-01T09:03:17Z</time></trkpt><trkpt lat="44.64881768798039" lon="1.0033734426442016"><ele>206.0</ele><time>2026-05-01T09:03:18Z</time></trkpt><trkpt lat="44.64871019819462" lon="1.0033906474931684"><ele>206.0</ele><time>2026-05-01T09:03:19Z</time></trkpt><trkpt lat="44.6486072632167" lon="1.0033763759253926"><ele>206.0</ele><time>2026-05-01T09:03:20Z</time></trkpt><trkpt lat="44.64850554238358" lon="1.0033272851029327"><ele>206.0</ele><time>2026-05-01T09:03:21Z</time></trkpt><trkpt lat="44.64841979027408" lon="1.0032490010583275"><ele>206.0</ele><time>2026-05-01T09:03:22Z</time></trkpt><trkpt lat="44.64836242551268" lon="1.0031652462190426"><ele>205.5</ele><time>2026-05-01T09:03:23Z</time></trkpt><trkpt lat="44.64829592655797" lon="1.0030997265093788"><ele>205.0</ele><time>2026-05-01T09:03:26Z</time></trkpt><trkpt lat="44.648207772851414" lon="1.0032976322356886"><ele>204.5</ele><time>2026-05-01T09:03:27Z</time></trkpt><trkpt lat="44.648173559113715" lon="1.0034061708380406"><ele>204.0</ele><time>2026-05-01T09:03:28Z</time></trkpt><trkpt lat="44.64811771011945" lon="1.0035558012157464"><ele>203.75</ele><time>2026-05-01T09:03:29Z</time></trkpt><trkpt lat="44.64805621644916" lon="1.003714634338065"><ele>203.5</ele><time>2026-05-01T09:03:30Z</time></trkpt><trkpt lat="44.64799519339777" lon="1.0038959719319303"><ele>203.25</ele><time>2026-05-01T09:03:31Z</time></trkpt><trkpt lat="44.64794188158441" lon="1.0040484966444838"><ele>203.0</ele><time>2026-05-01T09:03:32Z</time></trkpt><trkpt lat="44.64788697817421" lon="1.0041948358347002"><ele>202.60000000000002</ele><time>2026-05-01T09:03:33Z</time></trkpt><trkpt lat="44.64782949923297" lon="1.004316923820979"><ele>202.20000000000002</ele><time>2026-05-01T09:03:34Z</time></trkpt><trkpt lat="44.647754751298024" lon="1.0044231737226708"><ele>201.8</ele><time>2026-05-01T09:03:35Z</time></trkpt><trkpt lat="44.64766822809153" lon="1.0045274866864253"><ele>201.4</ele><time>2026-05-01T09:03:36Z</time></trkpt><trkpt lat="44.64758404164566" lon="1.0045556838584861"><ele>201.0</ele><time>2026-05-01T09:03:37Z</time></trkpt><trkpt lat="44.647475368961445" lon="1.0045865322395566"><ele>201.0</ele><time>2026-05-01T09:03:38Z</time></trkpt><trkpt lat="44.64734968601264" lon="1.004575356851594"><ele>201.0</ele><time>2026-05-01T09:03:39Z</time></trkpt><trkpt lat="44.647225512308296" lon="1.0045732147482183"><ele>201.0</ele><time>2026-05-01T09:03:40Z</time></trkpt><trkpt lat="44.64713672428984" lon="1.004589378439931"><ele>201.0</ele><time>2026-05-01T09:03:41Z</time></trkpt><trkpt lat="44.647055329519105" lon="1.0045908172162483"><ele>201.0</ele><time>2026-05-01T09:03:42Z</time></trkpt><trkpt lat="44.64695718723142" lon="1.0045694481415268"><ele>200.75</ele><time>2026-05-01T09:03:43Z</time></trkpt><trkpt lat="44.64683130592783" lon="1.004539504273825"><ele>200.5</ele><time>2026-05-01T09:03:44Z</time></trkpt><trkpt lat="44.64670237795572" lon="1.0045001577814956"><ele>200.25</ele><time>2026-05-01T09:03:45Z</time></trkpt><trkpt lat="44.646580991041525" lon="1.0044605891939085"><ele>200.0</ele><time>2026-05-01T09:03:46Z</time></trkpt><trkpt lat="44.646457847639624" lon="1.0044233615970242"><ele>200.0</ele><time>2026-05-01T09:03:47Z</time></trkpt><trkpt lat="44.64634532260523" lon="1.0043944430412006"><ele>200.0</ele><time>2026-05-01T09:03:48Z</time></trkpt><trkpt lat="44.64622787711255" lon="1.0043752442569476"><ele>200.0</ele><time>2026-05-01T09:03:49Z</time></trkpt><trkpt lat="44.64611269323" lon="1.0043584052314487"><ele>200.0</ele><time>2026-05-01T09:03:50Z</time></trkpt><trkpt lat="44.646016215578044" lon="1.0043569499046558"><ele>200.0</ele><time>2026-05-01T09:03:51Z</time></trkpt><trkpt lat="44.64591425288528" lon="1.0043871244204674"><ele>200.0</ele><time>2026-05-01T09:03:52Z</time></trkpt><trkpt lat="44.64581624281607" lon="1.0044378399304004"><ele>200.0</ele><time>2026-05-01T09:03:53Z</time></trkpt><trkpt lat="44.64567417528605" lon="1.0044981402675224"><ele>200.0</ele><time>2026-05-01T09:03:54Z</time></trkpt><trkpt lat="44.64556935923249" lon="1.0045476449535162"><ele>200.0</ele><time>2026-05-01T09:03:55Z</time></trkpt><trkpt lat="44.64548931079578" lon="1.0045822604452106"><ele>200.0</ele><time>2026-05-01T09:03:56Z</time></trkpt><trkpt lat="44.64537041060187" lon="1.0046720246230179"><ele>200.0</ele><time>2026-05-01T09:03:57Z</time></trkpt><trkpt lat="44.64519782182667" lon="1.0047889541084163"><ele>200.0</ele><time>2026-05-01T09:03:58Z</time></trkpt><trkpt lat="44.645022106351085" lon="1.004924812516182"><ele>200.0</ele><time>2026-05-01T09:03:59Z</time></trkpt><trkpt lat="44.64489693128634" lon="1.0050118124870924"><ele>200.0</ele><time>2026-05-01T09:04:00Z</time></trkpt><trkpt lat="44.644818484605295" lon="1.0051000281483504"><ele>200.0</ele><time>2026-05-01T09:04:02Z</time></trkpt><trkpt lat="44.644762362042826" lon="1.005161672034813"><ele>200.0</ele><time>2026-05-01T09:04:03Z</time></trkpt><trkpt lat="44.644711843703526" lon="1.0052610395767945"><ele>200.0</ele><time>2026-05-01T09:04:05Z</time></trkpt><trkpt lat="44.64474451404168" lon="1.0053943194932355"><ele>200.0</ele><time>2026-05-01T09:04:07Z</time></trkpt><trkpt lat="44.6447888139556" lon="1.005507416783525"><ele>200.0</ele><time>2026-05-01T09:04:08Z</time></trkpt><trkpt lat="44.644800884704566" lon="1.0056304012009576"><ele>200.0</ele><time>2026-05-01T09:04:09Z</time></trkpt><trkpt lat="44.6448190278758" lon="1.005774185152389"><ele>200.0</ele><time>2026-05-01T09:04:10Z</time></trkpt><trkpt lat="44.644826249325" lon="1.0059005711097317"><ele>200.0</ele><time>2026-05-01T09:04:11Z</time></trkpt><trkpt lat="44.64481394729711" lon="1.0060287736907831"><ele>200.0</ele><time>2026-05-01T09:04:12Z</time></trkpt><trkpt lat="44.64478193855193" lon="1.0061600525900762"><ele>199.25</ele><time>2026-05-01T09:04:13Z</time></trkpt><trkpt lat="44.64472526654573" lon="1.0062836096884316"><ele>198.5</ele><time>2026-05-01T09:04:14Z</time></trkpt><trkpt lat="44.64463439809033" lon="1.0063612792230134"><ele>197.75</ele><time>2026-05-01T09:04:15Z</time></trkpt><trkpt lat="44.64452247857236" lon="1.0064224061594949"><ele>197.0</ele><time>2026-05-01T09:04:16Z</time></trkpt><trkpt lat="44.64439295274477" lon="1.0064539170957965"><ele>197.0</ele><time>2026-05-01T09:04:17Z</time></trkpt><trkpt lat="44.64426415800292" lon="1.0064826317381588"><ele>197.0</ele><time>2026-05-01T09:04:18Z</time></trkpt><trkpt lat="44.64415292251506" lon="1.0064934183642902"><ele>197.0</ele><time>2026-05-01T09:04:19Z</time></trkpt><trkpt lat="44.64399345258298" lon="1.006518826055394"><ele>197.0</ele><time>2026-05-01T09:04:20Z</time></trkpt><trkpt lat="44.64384826400696" lon="1.0065485522339885"><ele>197.0</ele><time>2026-05-01T09:04:21Z</time></trkpt><trkpt lat="44.64369764536543" lon="1.0065916327402584"><ele>197.0</ele><time>2026-05-01T09:04:22Z</time></trkpt><trkpt lat="44.64356191598964" lon="1.0066662273361768"><ele>197.0</ele><time>2026-05-01T09:04:23Z</time></trkpt><trkpt lat="44.64342321627326" lon="1.0067320767641046"><ele>197.0</ele><time>2026-05-01T09:04:24Z</time></trkpt><trkpt lat="44.643277305740824" lon="1.0068051476541098"><ele>197.25</ele><time>2026-05-01T09:04:25Z</time></trkpt><trkpt lat="44.643132624105654" lon="1.0068746181757235"><ele>197.5</ele><time>2026-05-01T09:04:26Z</time></trkpt><trkpt lat="44.64300447391788" lon="1.0069416481723872"><ele>197.75</ele><time>2026-05-01T09:04:27Z</time></trkpt><trkpt lat="44.64286121723617" lon="1.007012949536101"><ele>198.0</ele><time>2026-05-01T09:04:28Z</time></trkpt><trkpt lat="44.64271285242458" lon="1.0070804819504076"><ele>198.25</ele><time>2026-05-01T09:04:29Z</time></trkpt><trkpt lat="44.64258601079368" lon="1.0071642282793296"><ele>198.5</ele><time>2026-05-01T09:04:30Z</time></trkpt><trkpt lat="44.642474911477215" lon="1.00726869752773"><ele>198.75</ele><time>2026-05-01T09:04:31Z</time></trkpt><trkpt lat="44.642365379440385" lon="1.007408161120113"><ele>199.0</ele><time>2026-05-01T09:04:32Z</time></trkpt><trkpt lat="44.642284597105395" lon="1.0075758108042105"><ele>199.0</ele><time>2026-05-01T09:04:33Z</time></trkpt><trkpt lat="44.64223438563077" lon="1.0077565759509701"><ele>199.0</ele><time>2026-05-01T09:04:34Z</time></trkpt><trkpt lat="44.64219549232315" lon="1.0079469106132242"><ele>199.0</ele><time>2026-05-01T09:04:35Z</time></trkpt><trkpt lat="44.642176547321526" lon="1.0081482941404023"><ele>199.0</ele><time>2026-05-01T09:04:36Z</time></trkpt><trkpt lat="44.64215565831865" lon="1.0083496244587076"><ele>200.39999999999998</ele><time>2026-05-01T09:04:37Z</time></trkpt><trkpt lat="44.64214343937009" lon="1.0085205653677582"><ele>201.8</ele><time>2026-05-01T09:04:38Z</time></trkpt><trkpt lat="44.64213981361533" lon="1.0086448676942428"><ele>203.2</ele><time>2026-05-01T09:04:39Z</time></trkpt><trkpt lat="44.64213750286141" lon="1.0087422844590692"><ele>204.60000000000002</ele><time>2026-05-01T09:04:40Z</time></trkpt><trkpt lat="44.642130114682004" lon="1.008842469473314"><ele>206.0</ele><time>2026-05-01T09:04:41Z</time></trkpt><trkpt lat="44.642152512963726" lon="1.0089824928969395"><ele>206.0</ele><time>2026-05-01T09:04:42Z</time></trkpt><trkpt lat="44.64219368740886" lon="1.0091349165893013"><ele>206.0</ele><time>2026-05-01T09:04:43Z</time></trkpt><trkpt lat="44.64223869737632" lon="1.0092655078055839"><ele>206.0</ele><time>2026-05-01T09:04:44Z</time></trkpt><trkpt lat="44.64227567090787" lon="1.0093888179005652"><ele>206.0</ele><time>2026-05-01T09:04:45Z</time></trkpt><trkpt lat="44.64232976648453" lon="1.0095628201253515"><ele>206.0</ele><time>2026-05-01T09:04:46Z</time></trkpt><trkpt lat="44.64237281852096" lon="1.0097214270798602"><ele>206.0</ele><time>2026-05-01T09:04:47Z</time></trkpt><trkpt lat="44.64242309942829" lon="1.0098723817551074"><ele>206.0</ele><time>2026-05-01T09:04:48Z</time></trkpt><trkpt lat="44.64247765099045" lon="1.0100353910828983"><ele>206.0</ele><time>2026-05-01T09:04:49Z</time></trkpt><trkpt lat="44.64251781966215" lon="1.0101736595359863"><ele>204.5</ele><time>2026-05-01T09:04:50Z</time></trkpt><trkpt lat="44.642577293466445" lon="1.0103065822320771"><ele>203.0</ele><time>2026-05-01T09:04:51Z</time></trkpt><trkpt lat="44.642658521238516" lon="1.0104533355232852"><ele>201.5</ele><time>2026-05-01T09:04:52Z</time></trkpt><trkpt lat="44.64274976375795" lon="1.0105949453841025"><ele>200.0</ele><time>2026-05-01T09:04:53Z</time></trkpt><trkpt lat="44.642839245965256" lon="1.0107478980040174"><ele>201.5</ele><time>2026-05-01T09:04:54Z</time></trkpt><trkpt lat="44.64292863680704" lon="1.0108916301182902"><ele>203.0</ele><time>2026-05-01T09:04:55Z</time></trkpt><trkpt lat="44.64302282387198" lon="1.0110347173402257"><ele>204.5</ele><time>2026-05-01T09:04:56Z</time></trkpt><trkpt lat="44.64311599221733" lon="1.0111817609851124"><ele>206.0</ele><time>2026-05-01T09:04:57Z</time></trkpt><trkpt lat="44.64320563560883" lon="1.011353743765826"><ele>206.0</ele><time>2026-05-01T09:04:58Z</time></trkpt><trkpt lat="44.64329907515407" lon="1.0115344298362496"><ele>206.0</ele><time>2026-05-01T09:04:59Z</time></trkpt><trkpt lat="44.643371285574545" lon="1.0116940475249792"><ele>206.0</ele><time>2026-05-01T09:05:00Z</time></trkpt><trkpt lat="44.64343880356696" lon="1.011837969490717"><ele>206.0</ele><time>2026-05-01T09:05:01Z</time></trkpt><trkpt lat="44.643514952465374" lon="1.0120080564657368"><ele>203.66666666666669</ele><time>2026-05-01T09:05:02Z</time></trkpt><trkpt lat="44.643580038665846" lon="1.0122041961909258"><ele>201.33333333333331</ele><time>2026-05-01T09:05:03Z</time></trkpt><trkpt lat="44.643627347202234" lon="1.0124014494726548"><ele>199.0</ele><time>2026-05-01T09:05:04Z</time></trkpt><trkpt lat="44.643666007464894" lon="1.0126153795265393"><ele>201.25</ele><time>2026-05-01T09:05:05Z</time></trkpt><trkpt lat="44.64371846258851" lon="1.0128232105064996"><ele>203.5</ele><time>2026-05-01T09:05:06Z</time></trkpt><trkpt lat="44.643731210172405" lon="1.0130300760070332"><ele>205.75</ele><time>2026-05-01T09:05:07Z</time></trkpt><trkpt lat="44.64377767034369" lon="1.0131965949073174"><ele>208.0</ele><time>2026-05-01T09:05:08Z</time></trkpt><trkpt lat="44.643825073800855" lon="1.0133921945521647"><ele>208.0</ele><time>2026-05-01T09:05:09Z</time></trkpt><trkpt lat="44.64386374943207" lon="1.013576405325172"><ele>208.0</ele><time>2026-05-01T09:05:10Z</time></trkpt><trkpt lat="44.64389380351439" lon="1.0137471817937065"><ele>208.0</ele><time>2026-05-01T09:05:11Z</time></trkpt><trkpt lat="44.64391610279888" lon="1.013900068241947"><ele>208.0</ele><time>2026-05-01T09:05:12Z</time></trkpt><trkpt lat="44.643935660537686" lon="1.0140595324113066"><ele>206.0</ele><time>2026-05-01T09:05:13Z</time></trkpt><trkpt lat="44.643946002925894" lon="1.0142238921233466"><ele>204.0</ele><time>2026-05-01T09:05:14Z</time></trkpt><trkpt lat="44.64394494854167" lon="1.014423250154621"><ele>202.0</ele><time>2026-05-01T09:05:15Z</time></trkpt><trkpt lat="44.64393819721097" lon="1.01462912225488"><ele>200.0</ele><time>2026-05-01T09:05:16Z</time></trkpt><trkpt lat="44.643929178880974" lon="1.0148284005830266"><ele>198.5</ele><time>2026-05-01T09:05:17Z</time></trkpt><trkpt lat="44.643921822239356" lon="1.0150205928732068"><ele>197.0</ele><time>2026-05-01T09:05:18Z</time></trkpt><trkpt lat="44.64391205713785" lon="1.0151916700367873"><ele>195.5</ele><time>2026-05-01T09:05:19Z</time></trkpt><trkpt lat="44.64389599155539" lon="1.015342748828157"><ele>194.0</ele><time>2026-05-01T09:05:20Z</time></trkpt><trkpt lat="44.64386099133284" lon="1.0154927643437293"><ele>194.0</ele><time>2026-05-01T09:05:21Z</time></trkpt><trkpt lat="44.64380701935008" lon="1.0156297778893062"><ele>194.0</ele><time>2026-05-01T09:05:22Z</time></trkpt><trkpt lat="44.64375243665375" lon="1.0157954817551904"><ele>194.0</ele><time>2026-05-01T09:05:23Z</time></trkpt><trkpt lat="44.64368692978722" lon="1.0159611559829569"><ele>194.0</ele><time>2026-05-01T09:05:24Z</time></trkpt><trkpt lat="44.643621746861335" lon="1.01612930039946"><ele>194.5</ele><time>2026-05-01T09:05:25Z</time></trkpt><trkpt lat="44.643546347868" lon="1.0163124517449318"><ele>195.0</ele><time>2026-05-01T09:05:26Z</time></trkpt><trkpt lat="44.643483180896695" lon="1.0164516419079515"><ele>195.5</ele><time>2026-05-01T09:05:27Z</time></trkpt><trkpt lat="44.64340859679788" lon="1.0165840913078112"><ele>196.0</ele><time>2026-05-01T09:05:28Z</time></trkpt><trkpt lat="44.64332350056904" lon="1.0167238847081517"><ele>196.0</ele><time>2026-05-01T09:05:29Z</time></trkpt><trkpt lat="44.64322476721839" lon="1.016853361108097"><ele>196.0</ele><time>2026-05-01T09:05:30Z</time></trkpt><trkpt lat="44.64310564642576" lon="1.0169465690666624"><ele>196.0</ele><time>2026-05-01T09:05:31Z</time></trkpt><trkpt lat="44.643003685432866" lon="1.017065776671967"><ele>196.0</ele><time>2026-05-01T09:05:32Z</time></trkpt><trkpt lat="44.64289289547234" lon="1.0171525878813636"><ele>194.8</ele><time>2026-05-01T09:05:33Z</time></trkpt><trkpt lat="44.642781740766125" lon="1.017228704437406"><ele>193.60000000000002</ele><time>2026-05-01T09:05:34Z</time></trkpt><trkpt lat="44.64268332973274" lon="1.0172843754958965"><ele>192.4</ele><time>2026-05-01T09:05:35Z</time></trkpt><trkpt lat="44.64258568862619" lon="1.0173185477379911"><ele>191.2</ele><time>2026-05-01T09:05:36Z</time></trkpt><trkpt lat="44.64249823347742" lon="1.017339905205677"><ele>190.0</ele><time>2026-05-01T09:05:37Z</time></trkpt><trkpt lat="44.64242983209774" lon="1.017352863493595"><ele>190.0</ele><time>2026-05-01T09:05:38Z</time></trkpt><trkpt lat="44.642365333560555" lon="1.0173758551358107"><ele>190.0</ele><time>2026-05-01T09:05:39Z</time></trkpt><trkpt lat="44.64224282293453" lon="1.0173948581000813"><ele>190.0</ele><time>2026-05-01T09:05:43Z</time></trkpt><trkpt lat="44.642171996733445" lon="1.0174138260268886"><ele>190.0</ele><time>2026-05-01T09:05:44Z</time></trkpt><trkpt lat="44.642110003094814" lon="1.0174595883795514"><ele>190.0</ele><time>2026-05-01T09:05:45Z</time></trkpt><trkpt lat="44.64204869323215" lon="1.0175048730391714"><ele>190.0</ele><time>2026-05-01T09:05:46Z</time></trkpt><trkpt lat="44.64195284161353" lon="1.0175910952016636"><ele>190.0</ele><time>2026-05-01T09:05:47Z</time></trkpt><trkpt lat="44.64204041608356" lon="1.0179182561013869"><ele>190.0</ele><time>2026-05-01T09:05:48Z</time></trkpt><trkpt lat="44.64191963933505" lon="1.01798350916116"><ele>190.0</ele><time>2026-05-01T09:05:50Z</time></trkpt><trkpt lat="44.64184507740474" lon="1.0180622804723318"><ele>190.0</ele><time>2026-05-01T09:05:52Z</time></trkpt><trkpt lat="44.64180034547688" lon="1.0182010745565242"><ele>190.0</ele><time>2026-05-01T09:05:54Z</time></trkpt><trkpt lat="44.6417595270236" lon="1.0183332229897506"><ele>190.0</ele><time>2026-05-01T09:05:56Z</time></trkpt><trkpt lat="44.64176196821894" lon="1.0184512346275243"><ele>190.0</ele><time>2026-05-01T09:05:58Z</time></trkpt><trkpt lat="44.641870190216615" lon="1.0185243453050938"><ele>190.0</ele><time>2026-05-01T09:06:00Z</time></trkpt><trkpt lat="44.64192971177164" lon="1.0185854136610102"><ele>194.5</ele><time>2026-05-01T09:06:01Z</time></trkpt><trkpt lat="44.642017137828674" lon="1.018666695233046"><ele>199.0</ele><time>2026-05-01T09:06:02Z</time></trkpt><trkpt lat="44.64211566610875" lon="1.0187664125603326"><ele>203.5</ele><time>2026-05-01T09:06:03Z</time></trkpt><trkpt lat="44.642220989498334" lon="1.018876424305516"><ele>208.0</ele><time>2026-05-01T09:06:04Z</time></trkpt><trkpt lat="44.642312164414214" lon="1.018974496283856"><ele>208.0</ele><time>2026-05-01T09:06:05Z</time></trkpt><trkpt lat="44.64237586455021" lon="1.0190309899024805"><ele>208.0</ele><time>2026-05-01T09:06:06Z</time></trkpt><trkpt lat="44.64249395081179" lon="1.0191786833258185"><ele>208.0</ele><time>2026-05-01T09:06:07Z</time></trkpt><trkpt lat="44.642593586869225" lon="1.019308881460775"><ele>208.0</ele><time>2026-05-01T09:06:08Z</time></trkpt><trkpt lat="44.64265769329931" lon="1.0193639652305633"><ele>208.0</ele><time>2026-05-01T09:06:09Z</time></trkpt><trkpt lat="44.642736301277644" lon="1.0194372748986913"><ele>215.0</ele><time>2026-05-01T09:06:10Z</time></trkpt><trkpt lat="44.64282840406748" lon="1.019513408937825"><ele>222.0</ele><time>2026-05-01T09:06:11Z</time></trkpt><trkpt lat="44.642925978359436" lon="1.0196080247965622"><ele>229.0</ele><time>2026-05-01T09:06:12Z</time></trkpt><trkpt lat="44.64300712892891" lon="1.0196871969636843"><ele>236.0</ele><time>2026-05-01T09:06:13Z</time></trkpt><trkpt lat="44.643092729999644" lon="1.019758432793124"><ele>243.0</ele><time>2026-05-01T09:06:15Z</time></trkpt><trkpt lat="44.64316265859141" lon="1.0198627199906236"><ele>243.0</ele><time>2026-05-01T09:06:16Z</time></trkpt><trkpt lat="44.643238254361044" lon="1.0199558860194604"><ele>243.0</ele><time>2026-05-01T09:06:17Z</time></trkpt><trkpt lat="44.64330863080644" lon="1.0199667603214881"><ele>243.0</ele><time>2026-05-01T09:06:18Z</time></trkpt><trkpt lat="44.64340138945609" lon="1.0200677736196049"><ele>243.0</ele><time>2026-05-01T09:06:19Z</time></trkpt><trkpt lat="44.64346914845976" lon="1.0201604085368268"><ele>243.0</ele><time>2026-05-01T09:06:20Z</time></trkpt><trkpt lat="44.643444705953414" lon="1.0202732843909872"><ele>245.60000000000002</ele><time>2026-05-01T09:06:25Z</time></trkpt><trkpt lat="44.64341995246161" lon="1.0204013311999152"><ele>248.20000000000002</ele><time>2026-05-01T09:06:27Z</time></trkpt><trkpt lat="44.643432642738" lon="1.0205371417553775"><ele>250.8</ele><time>2026-05-01T09:06:29Z</time></trkpt><trkpt lat="44.64346194628176" lon="1.0206502765429055"><ele>253.4</ele><time>2026-05-01T09:06:31Z</time></trkpt><trkpt lat="44.643553007506355" lon="1.0206918132097291"><ele>256.0</ele><time>2026-05-01T09:06:33Z</time></trkpt><trkpt lat="44.64357298825122" lon="1.0208091301853481"><ele>257.0</ele><time>2026-05-01T09:06:35Z</time></trkpt><trkpt lat="44.643495484454355" lon="1.0208957908983174"><ele>258.0</ele><time>2026-05-01T09:06:37Z</time></trkpt><trkpt lat="44.64344792847809" lon="1.0210171631615814"><ele>259.0</ele><time>2026-05-01T09:06:39Z</time></trkpt><trkpt lat="44.64342263172504" lon="1.0211000575291647"><ele>260.0</ele><time>2026-05-01T09:06:40Z</time></trkpt><trkpt lat="44.643393230840175" lon="1.021182209572322"><ele>261.0</ele><time>2026-05-01T09:06:41Z</time></trkpt><trkpt lat="44.64335782222792" lon="1.0212913366494045"><ele>262.0</ele><time>2026-05-01T09:06:42Z</time></trkpt><trkpt lat="44.64331870668483" lon="1.0214065890378836"><ele>262.0</ele><time>2026-05-01T09:06:43Z</time></trkpt><trkpt lat="44.64327936813406" lon="1.0215014139336145"><ele>262.0</ele><time>2026-05-01T09:06:44Z</time></trkpt><trkpt lat="44.64324911145308" lon="1.0215932314282177"><ele>262.0</ele><time>2026-05-01T09:06:45Z</time></trkpt><trkpt lat="44.643205645949436" lon="1.0216993343905747"><ele>262.0</ele><time>2026-05-01T09:06:46Z</time></trkpt><trkpt lat="44.64314608993658" lon="1.0218005771290843"><ele>262.0</ele><time>2026-05-01T09:06:47Z</time></trkpt><trkpt lat="44.64309917457841" lon="1.0219034665376086"><ele>262.0</ele><time>2026-05-01T09:06:48Z</time></trkpt><trkpt lat="44.64306454260988" lon="1.0219961590528397"><ele>262.0</ele><time>2026-05-01T09:06:49Z</time></trkpt><trkpt lat="44.643018481718336" lon="1.0221180086374624"><ele>262.0</ele><time>2026-05-01T09:06:51Z</time></trkpt><trkpt lat="44.64304568017889" lon="1.0222622800309413"><ele>262.0</ele><time>2026-05-01T09:06:53Z</time></trkpt><trkpt lat="44.64314480393593" lon="1.0223833546251462"><ele>262.0</ele><time>2026-05-01T09:06:55Z</time></trkpt><trkpt lat="44.64320332519112" lon="1.0224525645824174"><ele>262.0</ele><time>2026-05-01T09:06:56Z</time></trkpt><trkpt lat="44.643267190470496" lon="1.0225189074444703"><ele>262.0</ele><time>2026-05-01T09:06:57Z</time></trkpt><trkpt lat="44.64334333553522" lon="1.022617985737771"><ele>262.0</ele><time>2026-05-01T09:06:59Z</time></trkpt><trkpt lat="44.64340605363784" lon="1.0226029085471264"><ele>262.0</ele><time>2026-05-01T09:07:05Z</time></trkpt><trkpt lat="44.643480415778505" lon="1.0225071506806047"><ele>262.0</ele><time>2026-05-01T09:07:07Z</time></trkpt><trkpt lat="44.64359923709576" lon="1.0224071041545781"><ele>262.0</ele><time>2026-05-01T09:07:09Z</time></trkpt><trkpt lat="44.6436721134161" lon="1.0223871710266357"><ele>263.0</ele><time>2026-05-01T09:07:10Z</time></trkpt><trkpt lat="44.64374955676231" lon="1.0223983599059328"><ele>264.0</ele><time>2026-05-01T09:07:11Z</time></trkpt><trkpt lat="44.64385609512894" lon="1.0224508482056467"><ele>265.0</ele><time>2026-05-01T09:07:12Z</time></trkpt><trkpt lat="44.64395259133648" lon="1.022527889950853"><ele>266.0</ele><time>2026-05-01T09:07:13Z</time></trkpt><trkpt lat="44.64403714196214" lon="1.0226230681857256"><ele>267.0</ele><time>2026-05-01T09:07:14Z</time></trkpt><trkpt lat="44.64412040094158" lon="1.0227072067725074"><ele>264.8</ele><time>2026-05-01T09:07:15Z</time></trkpt><trkpt lat="44.64420464709603" lon="1.0227658950902412"><ele>262.6</ele><time>2026-05-01T09:07:16Z</time></trkpt><trkpt lat="44.64428640950147" lon="1.0228745996907016"><ele>260.40000000000003</ele><time>2026-05-01T09:07:17Z</time></trkpt><trkpt lat="44.644362992436314" lon="1.022977015942443"><ele>258.2</ele><time>2026-05-01T09:07:18Z</time></trkpt><trkpt lat="44.64443288773103" lon="1.0230783829594037"><ele>256.0</ele><time>2026-05-01T09:07:19Z</time></trkpt><trkpt lat="44.644497657452575" lon="1.023176975571488"><ele>254.99999999999997</ele><time>2026-05-01T09:07:20Z</time></trkpt><trkpt lat="44.64456321360459" lon="1.0232720688750496"><ele>254.0</ele><time>2026-05-01T09:07:21Z</time></trkpt><trkpt lat="44.64461092455293" lon="1.0233401073549528"><ele>253.0</ele><time>2026-05-01T09:07:22Z</time></trkpt><trkpt lat="44.644664495490034" lon="1.023430086857027"><ele>252.0</ele><time>2026-05-01T09:07:23Z</time></trkpt><trkpt lat="44.64470965649687" lon="1.0235461382723556"><ele>250.99999999999997</ele><time>2026-05-01T09:07:24Z</time></trkpt><trkpt lat="44.64475261672094" lon="1.0236263049202676"><ele>250.0</ele><time>2026-05-01T09:07:25Z</time></trkpt><trkpt lat="44.64479496267329" lon="1.0236993537800265"><ele>248.8</ele><time>2026-05-01T09:07:26Z</time></trkpt><trkpt lat="44.64487826054833" lon="1.023798264818253"><ele>247.6</ele><time>2026-05-01T09:07:27Z</time></trkpt><trkpt lat="44.64492391665181" lon="1.023905801678251"><ele>246.39999999999998</ele><time>2026-05-01T09:07:28Z</time></trkpt><trkpt lat="44.64498286383881" lon="1.0240083901569657"><ele>245.2</ele><time>2026-05-01T09:07:29Z</time></trkpt><trkpt lat="44.64505233499447" lon="1.0241202350001652"><ele>244.0</ele><time>2026-05-01T09:07:30Z</time></trkpt><trkpt lat="44.64510701529409" lon="1.0242257248798057"><ele>243.2</ele><time>2026-05-01T09:07:31Z</time></trkpt><trkpt lat="44.64517541780676" lon="1.0243205219191902"><ele>242.39999999999998</ele><time>2026-05-01T09:07:32Z</time></trkpt><trkpt lat="44.645232714878574" lon="1.0243599164794959"><ele>241.6</ele><time>2026-05-01T09:07:33Z</time></trkpt><trkpt lat="44.64530555647222" lon="1.0244099011744374"><ele>240.8</ele><time>2026-05-01T09:07:34Z</time></trkpt><trkpt lat="44.64536196272147" lon="1.0244757222197154"><ele>240.0</ele><time>2026-05-01T09:07:35Z</time></trkpt><trkpt lat="44.645498511458506" lon="1.0245620322023419"><ele>238.4</ele><time>2026-05-01T09:07:37Z</time></trkpt><trkpt lat="44.64560081852315" lon="1.0246440158280927"><ele>236.8</ele><time>2026-05-01T09:07:38Z</time></trkpt><trkpt lat="44.64566361413649" lon="1.0247327387931748"><ele>235.2</ele><time>2026-05-01T09:07:39Z</time></trkpt><trkpt lat="44.64573675700664" lon="1.0248326737632725"><ele>233.6</ele><time>2026-05-01T09:07:40Z</time></trkpt><trkpt lat="44.64579986732099" lon="1.0249037472271396"><ele>232.0</ele><time>2026-05-01T09:07:41Z</time></trkpt><trkpt lat="44.64587012656974" lon="1.0249657634630054"><ele>232.33333333333331</ele><time>2026-05-01T09:07:42Z</time></trkpt><trkpt lat="44.645936819332455" lon="1.02504017656583"><ele>232.66666666666666</ele><time>2026-05-01T09:07:43Z</time></trkpt><trkpt lat="44.646010356677465" lon="1.025118480254033"><ele>233.0</ele><time>2026-05-01T09:07:44Z</time></trkpt><trkpt lat="44.64606632950799" lon="1.0251923702217312"><ele>233.33333333333331</ele><time>2026-05-01T09:07:45Z</time></trkpt><trkpt lat="44.64613307218728" lon="1.025253914861395"><ele>233.66666666666666</ele><time>2026-05-01T09:07:46Z</time></trkpt><trkpt lat="44.646208430280694" lon="1.0253226384210836"><ele>234.0</ele><time>2026-05-01T09:07:47Z</time></trkpt><trkpt lat="44.64627393494896" lon="1.025363247753703"><ele>232.0</ele><time>2026-05-01T09:07:48Z</time></trkpt><trkpt lat="44.646354895440766" lon="1.02539151352856"><ele>230.0</ele><time>2026-05-01T09:07:49Z</time></trkpt><trkpt lat="44.64643478310067" lon="1.0254093525478778"><ele>228.0</ele><time>2026-05-01T09:07:50Z</time></trkpt><trkpt lat="44.64652850702092" lon="1.025409339663636"><ele>226.0</ele><time>2026-05-01T09:07:51Z</time></trkpt><trkpt lat="44.64663490484406" lon="1.0254270624665611"><ele>224.0</ele><time>2026-05-01T09:07:52Z</time></trkpt><trkpt lat="44.646701180070515" lon="1.0254251607158305"><ele>222.0</ele><time>2026-05-01T09:07:53Z</time></trkpt><trkpt lat="44.64677167782953" lon="1.0254346285977194"><ele>222.0</ele><time>2026-05-01T09:07:54Z</time></trkpt><trkpt lat="44.64689453980918" lon="1.0254246703191585"><ele>222.0</ele><time>2026-05-01T09:07:56Z</time></trkpt><trkpt lat="44.6469862668183" lon="1.0253721215311864"><ele>222.0</ele><time>2026-05-01T09:07:57Z</time></trkpt><trkpt lat="44.647074933989295" lon="1.0253171376297345"><ele>222.0</ele><time>2026-05-01T09:07:58Z</time></trkpt><trkpt lat="44.64716709621786" lon="1.0253119372728154"><ele>222.0</ele><time>2026-05-01T09:07:59Z</time></trkpt><trkpt lat="44.64724153065449" lon="1.0252795267817363"><ele>221.0</ele><time>2026-05-01T09:08:00Z</time></trkpt><trkpt lat="44.64732096366627" lon="1.0252004626863904"><ele>220.0</ele><time>2026-05-01T09:08:02Z</time></trkpt><trkpt lat="44.64737679658701" lon="1.0250961205801385"><ele>219.0</ele><time>2026-05-01T09:08:03Z</time></trkpt><trkpt lat="44.64740925184209" lon="1.024933476542815"><ele>218.0</ele><time>2026-05-01T09:08:05Z</time></trkpt><trkpt lat="44.647422853387326" lon="1.0248464335672625"><ele>217.0</ele><time>2026-05-01T09:08:06Z</time></trkpt><trkpt lat="44.647477626947" lon="1.024702271758172"><ele>216.99999999999997</ele><time>2026-05-01T09:08:08Z</time></trkpt><trkpt lat="44.647563734371204" lon="1.0246206132082085"><ele>217.0</ele><time>2026-05-01T09:08:10Z</time></trkpt><trkpt lat="44.64762796874963" lon="1.0245791035948875"><ele>217.0</ele><time>2026-05-01T09:08:12Z</time></trkpt><trkpt lat="44.64769751393367" lon="1.024610557506378"><ele>217.0</ele><time>2026-05-01T09:08:14Z</time></trkpt><trkpt lat="44.64774648728161" lon="1.0247175699705"><ele>216.99999999999997</ele><time>2026-05-01T09:08:16Z</time></trkpt><trkpt lat="44.647786188590224" lon="1.0247911611619118"><ele>217.0</ele><time>2026-05-01T09:08:17Z</time></trkpt><trkpt lat="44.64784664623923" lon="1.024827066437242"><ele>216.2</ele><time>2026-05-01T09:08:18Z</time></trkpt><trkpt lat="44.64796498623583" lon="1.024909517600883"><ele>215.39999999999998</ele><time>2026-05-01T09:08:20Z</time></trkpt><trkpt lat="44.64805437983892" lon="1.0249944480793325"><ele>214.60000000000002</ele><time>2026-05-01T09:08:22Z</time></trkpt><trkpt lat="44.648107940718496" lon="1.025061617802431"><ele>213.8</ele><time>2026-05-01T09:08:23Z</time></trkpt><trkpt lat="44.648155505887004" lon="1.0251293298110409"><ele>213.0</ele><time>2026-05-01T09:08:24Z</time></trkpt><trkpt lat="44.64819914215951" lon="1.025209559413042"><ele>210.4</ele><time>2026-05-01T09:08:25Z</time></trkpt><trkpt lat="44.64824315832896" lon="1.0252955018165437"><ele>207.8</ele><time>2026-05-01T09:08:26Z</time></trkpt><trkpt lat="44.648322518250524" lon="1.0253928033000779"><ele>205.2</ele><time>2026-05-01T09:08:27Z</time></trkpt><trkpt lat="44.648431986646" lon="1.0254726755070753"><ele>202.6</ele><time>2026-05-01T09:08:28Z</time></trkpt><trkpt lat="44.64855381769347" lon="1.025517813906685"><ele>200.0</ele><time>2026-05-01T09:08:29Z</time></trkpt><trkpt lat="44.64867908060041" lon="1.025576758697552"><ele>198.25</ele><time>2026-05-01T09:08:30Z</time></trkpt><trkpt lat="44.64881505364363" lon="1.025638388898069"><ele>196.5</ele><time>2026-05-01T09:08:31Z</time></trkpt><trkpt lat="44.64895803176247" lon="1.0257082288073271"><ele>194.75</ele><time>2026-05-01T09:08:32Z</time></trkpt><trkpt lat="44.649099703201294" lon="1.02576889122951"><ele>193.0</ele><time>2026-05-01T09:08:33Z</time></trkpt><trkpt lat="44.64924039567132" lon="1.0258477694710038"><ele>193.0</ele><time>2026-05-01T09:08:34Z</time></trkpt><trkpt lat="44.6493422299733" lon="1.0259040795223"><ele>193.0</ele><time>2026-05-01T09:08:35Z</time></trkpt><trkpt lat="44.64944954424703" lon="1.0259485554064682"><ele>193.0</ele><time>2026-05-01T09:08:36Z</time></trkpt><trkpt lat="44.64954043867911" lon="1.0259720463276754"><ele>193.0</ele><time>2026-05-01T09:08:37Z</time></trkpt><trkpt lat="44.64962932859704" lon="1.0259738483185716"><ele>193.0</ele><time>2026-05-01T09:08:38Z</time></trkpt><trkpt lat="44.64969607952966" lon="1.0259627120127663"><ele>192.60000000000002</ele><time>2026-05-01T09:08:39Z</time></trkpt><trkpt lat="44.64979598804784" lon="1.0260683132289619"><ele>192.20000000000002</ele><time>2026-05-01T09:08:41Z</time></trkpt><trkpt lat="44.649845347515324" lon="1.0261759207975323"><ele>191.8</ele><time>2026-05-01T09:08:42Z</time></trkpt><trkpt lat="44.64990642457657" lon="1.0262973874292611"><ele>191.4</ele><time>2026-05-01T09:08:43Z</time></trkpt><trkpt lat="44.649977147213086" lon="1.0264309412324333"><ele>191.0</ele><time>2026-05-01T09:08:44Z</time></trkpt><trkpt lat="44.65005033740188" lon="1.0265557375008088"><ele>190.8</ele><time>2026-05-01T09:08:45Z</time></trkpt><trkpt lat="44.650127944956466" lon="1.026669353543425"><ele>190.60000000000002</ele><time>2026-05-01T09:08:46Z</time></trkpt><trkpt lat="44.65019340284898" lon="1.0267762224108188"><ele>190.4</ele><time>2026-05-01T09:08:47Z</time></trkpt><trkpt lat="44.650250558234276" lon="1.0268807667551878"><ele>190.2</ele><time>2026-05-01T09:08:48Z</time></trkpt><trkpt lat="44.65026828368654" lon="1.027000421439708"><ele>190.0</ele><time>2026-05-01T09:08:49Z</time></trkpt><trkpt lat="44.650295071009545" lon="1.0271246019444433"><ele>188.6</ele><time>2026-05-01T09:08:50Z</time></trkpt><trkpt lat="44.650329944744364" lon="1.0272650857964662"><ele>187.2</ele><time>2026-05-01T09:08:51Z</time></trkpt><trkpt lat="44.650381193007924" lon="1.0274000617868528"><ele>185.8</ele><time>2026-05-01T09:08:52Z</time></trkpt><trkpt lat="44.65040399642114" lon="1.0275552019773075"><ele>184.4</ele><time>2026-05-01T09:08:53Z</time></trkpt><trkpt lat="44.65043163807688" lon="1.0276702305920162"><ele>183.0</ele><time>2026-05-01T09:08:54Z</time></trkpt><trkpt lat="44.65045948857783" lon="1.0278315426022415"><ele>181.0</ele><time>2026-05-01T09:08:55Z</time></trkpt><trkpt lat="44.65046031727997" lon="1.027976792697992"><ele>179.0</ele><time>2026-05-01T09:08:56Z</time></trkpt><trkpt lat="44.650434714350645" lon="1.028113738675623"><ele>177.0</ele><time>2026-05-01T09:08:57Z</time></trkpt><trkpt lat="44.65037753231667" lon="1.0282038543823824"><ele>175.0</ele><time>2026-05-01T09:08:58Z</time></trkpt><trkpt lat="44.65032624594248" lon="1.0283105274536346"><ele>173.0</ele><time>2026-05-01T09:08:59Z</time></trkpt><trkpt lat="44.650292197809186" lon="1.0284186340801194"><ele>172.8</ele><time>2026-05-01T09:09:00Z</time></trkpt><trkpt lat="44.65033541370498" lon="1.028558415329919"><ele>172.60000000000002</ele><time>2026-05-01T09:09:01Z</time></trkpt><trkpt lat="44.65036456134494" lon="1.0286865667096656"><ele>172.39999999999998</ele><time>2026-05-01T09:09:02Z</time></trkpt><trkpt lat="44.65041260024054" lon="1.0288141870130076"><ele>172.2</ele><time>2026-05-01T09:09:03Z</time></trkpt><trkpt lat="44.65045796658174" lon="1.0289208780893193"><ele>172.0</ele><time>2026-05-01T09:09:04Z</time></trkpt><trkpt lat="44.65051545647753" lon="1.0290161843459948"><ele>172.0</ele><time>2026-05-01T09:09:05Z</time></trkpt><trkpt lat="44.65054118246714" lon="1.02911738754944"><ele>172.0</ele><time>2026-05-01T09:09:06Z</time></trkpt><trkpt lat="44.65057838763989" lon="1.0292103715552658"><ele>172.0</ele><time>2026-05-01T09:09:07Z</time></trkpt><trkpt lat="44.65063378692882" lon="1.0293286510872333"><ele>172.0</ele><time>2026-05-01T09:09:09Z</time></trkpt><trkpt lat="44.65053386286202" lon="1.029425558453145"><ele>172.0</ele><time>2026-05-01T09:09:11Z</time></trkpt><trkpt lat="44.65044803491825" lon="1.0294688036700352"><ele>172.2</ele><time>2026-05-01T09:09:12Z</time></trkpt><trkpt lat="44.65034866954625" lon="1.029519139424662"><ele>172.39999999999998</ele><time>2026-05-01T09:09:13Z</time></trkpt><trkpt lat="44.650247331108595" lon="1.0295742835992032"><ele>172.60000000000002</ele><time>2026-05-01T09:09:14Z</time></trkpt><trkpt lat="44.65014215410744" lon="1.0296329634603612"><ele>172.8</ele><time>2026-05-01T09:09:15Z</time></trkpt><trkpt lat="44.650031789870695" lon="1.0296983065643932"><ele>173.0</ele><time>2026-05-01T09:09:16Z</time></trkpt><trkpt lat="44.649919243487105" lon="1.0297774111472435"><ele>173.0</ele><time>2026-05-01T09:09:17Z</time></trkpt><trkpt lat="44.649803072866774" lon="1.0298625870871907"><ele>173.0</ele><time>2026-05-01T09:09:18Z</time></trkpt><trkpt lat="44.64968576005595" lon="1.0299609657789135"><ele>173.0</ele><time>2026-05-01T09:09:19Z</time></trkpt><trkpt lat="44.64956321630371" lon="1.0300615810548843"><ele>173.0</ele><time>2026-05-01T09:09:20Z</time></trkpt><trkpt lat="44.64944483409717" lon="1.0301913972698826"><ele>172.75</ele><time>2026-05-01T09:09:21Z</time></trkpt><trkpt lat="44.64934477042009" lon="1.0303269497490857"><ele>172.5</ele><time>2026-05-01T09:09:22Z</time></trkpt><trkpt lat="44.64923171244877" lon="1.0304708286162134"><ele>172.25</ele><time>2026-05-01T09:09:23Z</time></trkpt><trkpt lat="44.64912766709664" lon="1.0306027058397573"><ele>172.0</ele><time>2026-05-01T09:09:24Z</time></trkpt><trkpt lat="44.64902904554978" lon="1.0307413601255662"><ele>172.0</ele><time>2026-05-01T09:09:25Z</time></trkpt><trkpt lat="44.6489236060373" lon="1.0308879084175773"><ele>172.0</ele><time>2026-05-01T09:09:26Z</time></trkpt><trkpt lat="44.64882092523738" lon="1.0310248785720466"><ele>172.0</ele><time>2026-05-01T09:09:27Z</time></trkpt><trkpt lat="44.6487181846055" lon="1.0311658578964336"><ele>172.0</ele><time>2026-05-01T09:09:28Z</time></trkpt><trkpt lat="44.648615300812914" lon="1.0313122181845953"><ele>172.0</ele><time>2026-05-01T09:09:29Z</time></trkpt><trkpt lat="44.64850817499729" lon="1.0314548505585934"><ele>172.0</ele><time>2026-05-01T09:09:30Z</time></trkpt><trkpt lat="44.648401977982566" lon="1.0315997569394013"><ele>172.0</ele><time>2026-05-01T09:09:31Z</time></trkpt><trkpt lat="44.64829661540712" lon="1.0317478565829334"><ele>172.0</ele><time>2026-05-01T09:09:32Z</time></trkpt><trkpt lat="44.64819085794421" lon="1.031885911112928"><ele>171.75</ele><time>2026-05-01T09:09:33Z</time></trkpt><trkpt lat="44.6480883125794" lon="1.0320327033766727"><ele>171.5</ele><time>2026-05-01T09:09:34Z</time></trkpt><trkpt lat="44.64797760331024" lon="1.032180557178176"><ele>171.25</ele><time>2026-05-01T09:09:35Z</time></trkpt><trkpt lat="44.64786276160259" lon="1.0323170664129278"><ele>171.0</ele><time>2026-05-01T09:09:36Z</time></trkpt><trkpt lat="44.64772947531605" lon="1.0324307133652368"><ele>170.33333333333334</ele><time>2026-05-01T09:09:37Z</time></trkpt><trkpt lat="44.64759706220994" lon="1.0325364031536741"><ele>169.66666666666669</ele><time>2026-05-01T09:09:38Z</time></trkpt><trkpt lat="44.64746503097348" lon="1.032628863782385"><ele>169.0</ele><time>2026-05-01T09:09:39Z</time></trkpt><trkpt lat="44.64732190231083" lon="1.032717946872443"><ele>169.0</ele><time>2026-05-01T09:09:40Z</time></trkpt><trkpt lat="44.647177225474465" lon="1.0327808805958894"><ele>169.0</ele><time>2026-05-01T09:09:41Z</time></trkpt><trkpt lat="44.64703273815065" lon="1.0328238364666429"><ele>169.0</ele><time>2026-05-01T09:09:42Z</time></trkpt><trkpt lat="44.646889344700675" lon="1.0328569462756958"><ele>169.0</ele><time>2026-05-01T09:09:43Z</time></trkpt><trkpt lat="44.64674314963821" lon="1.0328822385054781"><ele>169.0</ele><time>2026-05-01T09:09:44Z</time></trkpt><trkpt lat="44.64659851850913" lon="1.0329044226288877"><ele>169.0</ele><time>2026-05-01T09:09:45Z</time></trkpt><trkpt lat="44.646448245323974" lon="1.0329189017320908"><ele>169.0</ele><time>2026-05-01T09:09:46Z</time></trkpt><trkpt lat="44.646290610867304" lon="1.0329262272809907"><ele>169.0</ele><time>2026-05-01T09:09:47Z</time></trkpt><trkpt lat="44.646133962821146" lon="1.0329404972945575"><ele>169.0</ele><time>2026-05-01T09:09:48Z</time></trkpt><trkpt lat="44.64597126353188" lon="1.0329762187367495"><ele>169.0</ele><time>2026-05-01T09:09:49Z</time></trkpt><trkpt lat="44.64583062393578" lon="1.033025911473229"><ele>169.0</ele><time>2026-05-01T09:09:50Z</time></trkpt><trkpt lat="44.64569948597671" lon="1.0330992821633684"><ele>169.0</ele><time>2026-05-01T09:09:51Z</time></trkpt><trkpt lat="44.645576982435394" lon="1.0331614387439707"><ele>169.0</ele><time>2026-05-01T09:09:52Z</time></trkpt><trkpt lat="44.6454670489954" lon="1.0332216904481666"><ele>169.0</ele><time>2026-05-01T09:09:53Z</time></trkpt><trkpt lat="44.645348659980264" lon="1.0333106362751274"><ele>169.2</ele><time>2026-05-01T09:09:54Z</time></trkpt><trkpt lat="44.64524252532029" lon="1.0333965577864546"><ele>169.39999999999998</ele><time>2026-05-01T09:09:55Z</time></trkpt><trkpt lat="44.645147838505025" lon="1.0334777680134353"><ele>169.6</ele><time>2026-05-01T09:09:56Z</time></trkpt><trkpt lat="44.64506824882873" lon="1.0335610426614745"><ele>169.8</ele><time>2026-05-01T09:09:57Z</time></trkpt><trkpt lat="44.645003828834454" lon="1.0336290546755589"><ele>170.0</ele><time>2026-05-01T09:09:58Z</time></trkpt><trkpt lat="44.6449433199594" lon="1.0337182348829463"><ele>170.0</ele><time>2026-05-01T09:10:00Z</time></trkpt><trkpt lat="44.64509408548131" lon="1.0338161437921007"><ele>170.0</ele><time>2026-05-01T09:10:06Z</time></trkpt><trkpt lat="44.645179199864366" lon="1.033752380539494"><ele>170.0</ele><time>2026-05-01T09:10:08Z</time></trkpt><trkpt lat="44.64525199617997" lon="1.0336840381510206"><ele>170.0</ele><time>2026-05-01T09:10:10Z</time></trkpt><trkpt lat="44.64532978836445" lon="1.0336193522342578"><ele>170.0</ele><time>2026-05-01T09:10:12Z</time></trkpt><trkpt lat="44.64541683521591" lon="1.0335294587750408"><ele>169.83333333333331</ele><time>2026-05-01T09:10:14Z</time></trkpt><trkpt lat="44.645471389512394" lon="1.0334805719157818"><ele>169.66666666666666</ele><time>2026-05-01T09:10:15Z</time></trkpt><trkpt lat="44.645525236382845" lon="1.0334230863644993"><ele>169.5</ele><time>2026-05-01T09:10:16Z</time></trkpt><trkpt lat="44.64558452147705" lon="1.033375078352983"><ele>169.33333333333334</ele><time>2026-05-01T09:10:17Z</time></trkpt><trkpt lat="44.645656711646815" lon="1.0333301261215098"><ele>169.16666666666669</ele><time>2026-05-01T09:10:18Z</time></trkpt><trkpt lat="44.64573954596907" lon="1.033317593045393"><ele>169.0</ele><time>2026-05-01T09:10:19Z</time></trkpt><trkpt lat="44.6458273712059" lon="1.033287447873822"><ele>169.0</ele><time>2026-05-01T09:10:20Z</time></trkpt><trkpt lat="44.645920342997954" lon="1.0332908718425657"><ele>169.0</ele><time>2026-05-01T09:10:21Z</time></trkpt><trkpt lat="44.64600945593855" lon="1.0333071272845544"><ele>169.0</ele><time>2026-05-01T09:10:22Z</time></trkpt><trkpt lat="44.64610028649372" lon="1.0333292317605407"><ele>169.0</ele><time>2026-05-01T09:10:23Z</time></trkpt><trkpt lat="44.646189783876764" lon="1.0333864806069477"><ele>169.0</ele><time>2026-05-01T09:10:24Z</time></trkpt><trkpt lat="44.646235726201915" lon="1.0334838314308403"><ele>171.79999999999998</ele><time>2026-05-01T09:10:25Z</time></trkpt><trkpt lat="44.646254256938704" lon="1.033582033230622"><ele>174.6</ele><time>2026-05-01T09:10:26Z</time></trkpt><trkpt lat="44.64625572593316" lon="1.0337053866645756"><ele>177.4</ele><time>2026-05-01T09:10:27Z</time></trkpt><trkpt lat="44.646307078233185" lon="1.0338340130194217"><ele>180.2</ele><time>2026-05-01T09:10:28Z</time></trkpt><trkpt lat="44.646354767133964" lon="1.033957206774957"><ele>183.0</ele><time>2026-05-01T09:10:29Z</time></trkpt><trkpt lat="44.64642065890216" lon="1.0340622382887446"><ele>183.0</ele><time>2026-05-01T09:10:30Z</time></trkpt><trkpt lat="44.64651235664107" lon="1.0341320183770382"><ele>183.0</ele><time>2026-05-01T09:10:31Z</time></trkpt><trkpt lat="44.64658167238402" lon="1.0342115574141109"><ele>183.0</ele><time>2026-05-01T09:10:32Z</time></trkpt><trkpt lat="44.646653385740265" lon="1.0342871998667102"><ele>183.0</ele><time>2026-05-01T09:10:33Z</time></trkpt><trkpt lat="44.64673056598365" lon="1.0343816826854215"><ele>183.0</ele><time>2026-05-01T09:10:34Z</time></trkpt><trkpt lat="44.646797797454546" lon="1.0344673665922894"><ele>184.4</ele><time>2026-05-01T09:10:35Z</time></trkpt><trkpt lat="44.64687566462754" lon="1.0345583880595999"><ele>185.8</ele><time>2026-05-01T09:10:36Z</time></trkpt><trkpt lat="44.646915819618734" lon="1.034665747497884"><ele>187.2</ele><time>2026-05-01T09:10:37Z</time></trkpt><trkpt lat="44.64698160364761" lon="1.0347813888056876"><ele>188.6</ele><time>2026-05-01T09:10:38Z</time></trkpt><trkpt lat="44.64704356384066" lon="1.034891377199128"><ele>190.0</ele><time>2026-05-01T09:10:39Z</time></trkpt><trkpt lat="44.6471039131961" lon="1.034999705953449"><ele>191.8</ele><time>2026-05-01T09:10:40Z</time></trkpt><trkpt lat="44.647153122034545" lon="1.0351410997147281"><ele>193.6</ele><time>2026-05-01T09:10:41Z</time></trkpt><trkpt lat="44.64721454078742" lon="1.035256370927457"><ele>195.39999999999998</ele><time>2026-05-01T09:10:42Z</time></trkpt><trkpt lat="44.647266870705295" lon="1.0353932207969325"><ele>197.2</ele><time>2026-05-01T09:10:43Z</time></trkpt><trkpt lat="44.64732874672872" lon="1.0355253767875783"><ele>199.0</ele><time>2026-05-01T09:10:44Z</time></trkpt><trkpt lat="44.647378775598696" lon="1.0356664349283076"><ele>200.79999999999998</ele><time>2026-05-01T09:10:45Z</time></trkpt><trkpt lat="44.64741916851312" lon="1.0358095419388138"><ele>202.6</ele><time>2026-05-01T09:10:46Z</time></trkpt><trkpt lat="44.647458130148316" lon="1.0359423760786184"><ele>204.4</ele><time>2026-05-01T09:10:47Z</time></trkpt><trkpt lat="44.64750236648851" lon="1.0360800693195942"><ele>206.2</ele><time>2026-05-01T09:10:48Z</time></trkpt><trkpt lat="44.64754343124675" lon="1.036219226177775"><ele>208.0</ele><time>2026-05-01T09:10:49Z</time></trkpt><trkpt lat="44.647583550558245" lon="1.0363579351585295"><ele>208.0</ele><time>2026-05-01T09:10:50Z</time></trkpt><trkpt lat="44.6476228801717" lon="1.0365029166477557"><ele>208.0</ele><time>2026-05-01T09:10:51Z</time></trkpt><trkpt lat="44.647662882570756" lon="1.0366439423936606"><ele>208.0</ele><time>2026-05-01T09:10:52Z</time></trkpt><trkpt lat="44.647711666402294" lon="1.0367834918799017"><ele>208.0</ele><time>2026-05-01T09:10:53Z</time></trkpt><trkpt lat="44.64775619722571" lon="1.0369265079527854"><ele>208.0</ele><time>2026-05-01T09:10:54Z</time></trkpt><trkpt lat="44.647827364160776" lon="1.0370594596923683"><ele>208.75</ele><time>2026-05-01T09:10:55Z</time></trkpt><trkpt lat="44.647908060129524" lon="1.0371881313128677"><ele>209.5</ele><time>2026-05-01T09:10:56Z</time></trkpt><trkpt lat="44.64799473183194" lon="1.0373079424223925"><ele>210.25</ele><time>2026-05-01T09:10:57Z</time></trkpt><trkpt lat="44.648072902373485" lon="1.0374163420094384"><ele>211.0</ele><time>2026-05-01T09:10:58Z</time></trkpt><trkpt lat="44.64814126350106" lon="1.0375131130527693"><ele>210.99999999999997</ele><time>2026-05-01T09:10:59Z</time></trkpt><trkpt lat="44.64817732347774" lon="1.0376418215805614"><ele>211.0</ele><time>2026-05-01T09:11:00Z</time></trkpt><trkpt lat="44.64820017105285" lon="1.037758506431943"><ele>211.0</ele><time>2026-05-01T09:11:01Z</time></trkpt><trkpt lat="44.6482438542532" lon="1.0378483533068013"><ele>211.0</ele><time>2026-05-01T09:11:02Z</time></trkpt><trkpt lat="44.64825310522814" lon="1.037940666326708"><ele>210.99999999999997</ele><time>2026-05-01T09:11:03Z</time></trkpt><trkpt lat="44.648246500628275" lon="1.0380427076192356"><ele>211.0</ele><time>2026-05-01T09:11:04Z</time></trkpt><trkpt lat="44.64821291558005" lon="1.038146249247555"><ele>211.0</ele><time>2026-05-01T09:11:05Z</time></trkpt><trkpt lat="44.64818503889769" lon="1.0382708700287042"><ele>211.0</ele><time>2026-05-01T09:11:06Z</time></trkpt><trkpt lat="44.64814029277243" lon="1.0384049244866613"><ele>211.0</ele><time>2026-05-01T09:11:07Z</time></trkpt><trkpt lat="44.64807922368196" lon="1.038529087527065"><ele>211.0</ele><time>2026-05-01T09:11:08Z</time></trkpt><trkpt lat="44.64800401418708" lon="1.0386637739128046"><ele>211.0</ele><time>2026-05-01T09:11:09Z</time></trkpt><trkpt lat="44.6479154862458" lon="1.0388161243114982"><ele>211.66666666666666</ele><time>2026-05-01T09:11:10Z</time></trkpt><trkpt lat="44.64781839689117" lon="1.0389783690477905"><ele>212.33333333333331</ele><time>2026-05-01T09:11:11Z</time></trkpt><trkpt lat="44.647718590193826" lon="1.0391438667035202"><ele>213.0</ele><time>2026-05-01T09:11:12Z</time></trkpt><trkpt lat="44.647620122427256" lon="1.0393071441353856"><ele>217.0</ele><time>2026-05-01T09:11:13Z</time></trkpt><trkpt lat="44.64754740061889" lon="1.0394648263910535"><ele>221.0</ele><time>2026-05-01T09:11:14Z</time></trkpt><trkpt lat="44.647436909855344" lon="1.0396308234235416"><ele>225.0</ele><time>2026-05-01T09:11:15Z</time></trkpt><trkpt lat="44.64732765696206" lon="1.0397543785229137"><ele>229.0</ele><time>2026-05-01T09:11:16Z</time></trkpt><trkpt lat="44.64723202178421" lon="1.0398684643274059"><ele>228.39999999999998</ele><time>2026-05-01T09:11:17Z</time></trkpt><trkpt lat="44.647160418144665" lon="1.039993478477641"><ele>227.79999999999998</ele><time>2026-05-01T09:11:18Z</time></trkpt><trkpt lat="44.64708218836591" lon="1.0401305285842635"><ele>227.20000000000002</ele><time>2026-05-01T09:11:19Z</time></trkpt><trkpt lat="44.647028106849206" lon="1.0402487653154007"><ele>226.60000000000002</ele><time>2026-05-01T09:11:20Z</time></trkpt><trkpt lat="44.64700067577972" lon="1.040356680422763"><ele>226.0</ele><time>2026-05-01T09:11:21Z</time></trkpt><trkpt lat="44.64696544382458" lon="1.0404331981666173"><ele>228.66666666666666</ele><time>2026-05-01T09:11:22Z</time></trkpt><trkpt lat="44.646846284996485" lon="1.0403807180204618"><ele>231.33333333333331</ele><time>2026-05-01T09:11:25Z</time></trkpt><trkpt lat="44.646852847289175" lon="1.0402364650959708"><ele>234.0</ele><time>2026-05-01T09:11:26Z</time></trkpt><trkpt lat="44.6468390103469" lon="1.0401402895015266"><ele>236.66666666666669</ele><time>2026-05-01T09:11:27Z</time></trkpt><trkpt lat="44.64681501650516" lon="1.0400229391518887"><ele>239.33333333333334</ele><time>2026-05-01T09:11:28Z</time></trkpt><trkpt lat="44.64676703186498" lon="1.0399646860290235"><ele>242.0</ele><time>2026-05-01T09:11:29Z</time></trkpt><trkpt lat="44.646644252892536" lon="1.0399973807537206"><ele>242.0</ele><time>2026-05-01T09:11:31Z</time></trkpt><trkpt lat="44.64659734023864" lon="1.0400657962991335"><ele>242.0</ele><time>2026-05-01T09:11:32Z</time></trkpt><trkpt lat="44.64652677687833" lon="1.0401484593043948"><ele>242.0</ele><time>2026-05-01T09:11:33Z</time></trkpt><trkpt lat="44.64641089051239" lon="1.04022501076352"><ele>242.0</ele><time>2026-05-01T09:11:34Z</time></trkpt><trkpt lat="44.64632569699668" lon="1.0403516437246236"><ele>242.0</ele><time>2026-05-01T09:11:35Z</time></trkpt><trkpt lat="44.64626440839689" lon="1.0404851460148954"><ele>242.0</ele><time>2026-05-01T09:11:36Z</time></trkpt><trkpt lat="44.6462269808648" lon="1.0406450189617977"><ele>242.0</ele><time>2026-05-01T09:11:37Z</time></trkpt><trkpt lat="44.646199018523994" lon="1.0408169678137174"><ele>242.0</ele><time>2026-05-01T09:11:38Z</time></trkpt><trkpt lat="44.64616928903862" lon="1.0410153197535197"><ele>242.0</ele><time>2026-05-01T09:11:39Z</time></trkpt><trkpt lat="44.64614135086077" lon="1.0412350647562059"><ele>247.66666666666669</ele><time>2026-05-01T09:11:40Z</time></trkpt><trkpt lat="44.64610831885188" lon="1.0414441069402318"><ele>253.33333333333331</ele><time>2026-05-01T09:11:41Z</time></trkpt><trkpt lat="44.6460713941758" lon="1.0416888037092358"><ele>259.0</ele><time>2026-05-01T09:11:42Z</time></trkpt><trkpt lat="44.64604570969073" lon="1.0418897160562133"><ele>260.0</ele><time>2026-05-01T09:11:43Z</time></trkpt><trkpt lat="44.646036217634304" lon="1.0420821237012008"><ele>261.0</ele><time>2026-05-01T09:11:44Z</time></trkpt><trkpt lat="44.64602382211765" lon="1.042264080087523"><ele>262.0</ele><time>2026-05-01T09:11:45Z</time></trkpt><trkpt lat="44.64598099692108" lon="1.0424253756665482"><ele>263.0</ele><time>2026-05-01T09:11:46Z</time></trkpt><trkpt lat="44.64592270103556" lon="1.0426214074283031"><ele>263.6666666666667</ele><time>2026-05-01T09:11:47Z</time></trkpt><trkpt lat="44.64587254154237" lon="1.0428511657770623"><ele>264.3333333333333</ele><time>2026-05-01T09:11:48Z</time></trkpt><trkpt lat="44.6458232500734" lon="1.043031785188196"><ele>265.0</ele><time>2026-05-01T09:11:49Z</time></trkpt><trkpt lat="44.645746861501515" lon="1.0432413125501416"><ele>265.0</ele><time>2026-05-01T09:11:50Z</time></trkpt><trkpt lat="44.645686611566134" lon="1.0434390830809606"><ele>265.0</ele><time>2026-05-01T09:11:51Z</time></trkpt><trkpt lat="44.64561851015584" lon="1.043629989431793"><ele>265.0</ele><time>2026-05-01T09:11:52Z</time></trkpt><trkpt lat="44.64555888792279" lon="1.0438628912668304"><ele>265.0</ele><time>2026-05-01T09:11:53Z</time></trkpt><trkpt lat="44.645502127062315" lon="1.0440864997420574"><ele>265.0</ele><time>2026-05-01T09:11:54Z</time></trkpt><trkpt lat="44.64546223472771" lon="1.0442872659189806"><ele>265.0</ele><time>2026-05-01T09:11:55Z</time></trkpt><trkpt lat="44.645422836618486" lon="1.0444573090281803"><ele>265.0</ele><time>2026-05-01T09:11:56Z</time></trkpt><trkpt lat="44.64536704301244" lon="1.0446087497056582"><ele>264.8333333333333</ele><time>2026-05-01T09:11:57Z</time></trkpt><trkpt lat="44.64535095202214" lon="1.0447311482936399"><ele>264.66666666666663</ele><time>2026-05-01T09:11:58Z</time></trkpt><trkpt lat="44.64532450565069" lon="1.0448299200103204"><ele>264.5</ele><time>2026-05-01T09:11:59Z</time></trkpt><trkpt lat="44.64529836965035" lon="1.0449161404959797"><ele>264.3333333333333</ele><time>2026-05-01T09:12:01Z</time></trkpt><trkpt lat="44.64523962774945" lon="1.0448688587429105"><ele>264.1666666666667</ele><time>2026-05-01T09:12:04Z</time></trkpt><trkpt lat="44.64517889198129" lon="1.0447127535037932"><ele>264.0</ele><time>2026-05-01T09:12:06Z</time></trkpt><trkpt lat="44.6450819791666" lon="1.044632472710176"><ele>264.0</ele><time>2026-05-01T09:12:08Z</time></trkpt><trkpt lat="44.6449909609566" lon="1.04464067160769"><ele>264.0</ele><time>2026-05-01T09:12:10Z</time></trkpt><trkpt lat="44.644872842142135" lon="1.0446856467813868"><ele>264.0</ele><time>2026-05-01T09:12:12Z</time></trkpt><trkpt lat="44.64480578808686" lon="1.0447027656026997"><ele>264.0</ele><time>2026-05-01T09:12:13Z</time></trkpt><trkpt lat="44.644731841916844" lon="1.0447331697004238"><ele>264.0</ele><time>2026-05-01T09:12:14Z</time></trkpt><trkpt lat="44.64464839957726" lon="1.0447584056095904"><ele>264.0</ele><time>2026-05-01T09:12:15Z</time></trkpt><trkpt lat="44.64455956003126" lon="1.044775196078973"><ele>264.0</ele><time>2026-05-01T09:12:16Z</time></trkpt><trkpt lat="44.644468745452826" lon="1.044798853011277"><ele>264.0</ele><time>2026-05-01T09:12:17Z</time></trkpt><trkpt lat="44.64436124855483" lon="1.0448288560574175"><ele>264.0</ele><time>2026-05-01T09:12:18Z</time></trkpt><trkpt lat="44.6442189807772" lon="1.044880331027934"><ele>264.0</ele><time>2026-05-01T09:12:19Z</time></trkpt><trkpt lat="44.6441097554864" lon="1.0449006060969863"><ele>264.0</ele><time>2026-05-01T09:12:20Z</time></trkpt><trkpt lat="44.64400008066338" lon="1.0449171819072163"><ele>264.0</ele><time>2026-05-01T09:12:21Z</time></trkpt><trkpt lat="44.64388267453333" lon="1.044959223942089"><ele>264.0</ele><time>2026-05-01T09:12:22Z</time></trkpt><trkpt lat="44.64375638131699" lon="1.044996045573812"><ele>264.0</ele><time>2026-05-01T09:12:23Z</time></trkpt><trkpt lat="44.6436228323855" lon="1.0450127229700759"><ele>264.0</ele><time>2026-05-01T09:12:24Z</time></trkpt><trkpt lat="44.643481830307145" lon="1.0450151531007863"><ele>264.0</ele><time>2026-05-01T09:12:25Z</time></trkpt><trkpt lat="44.64334382271643" lon="1.0449248319093194"><ele>264.0</ele><time>2026-05-01T09:12:26Z</time></trkpt><trkpt lat="44.643172854506425" lon="1.0449203614869977"><ele>265.0</ele><time>2026-05-01T09:12:27Z</time></trkpt><trkpt lat="44.64304668227865" lon="1.0449249408871801"><ele>266.0</ele><time>2026-05-01T09:12:28Z</time></trkpt><trkpt lat="44.64292297514109" lon="1.0449341390914177"><ele>267.0</ele><time>2026-05-01T09:12:29Z</time></trkpt><trkpt lat="44.64276404677014" lon="1.0450087343389711"><ele>268.0</ele><time>2026-05-01T09:12:30Z</time></trkpt><trkpt lat="44.64256042402402" lon="1.0450773606310317"><ele>268.0</ele><time>2026-05-01T09:12:31Z</time></trkpt><trkpt lat="44.64242447779936" lon="1.0451056885061591"><ele>268.0</ele><time>2026-05-01T09:12:32Z</time></trkpt><trkpt lat="44.642268299223275" lon="1.0451503990420075"><ele>268.0</ele><time>2026-05-01T09:12:33Z</time></trkpt><trkpt lat="44.64213296239512" lon="1.0451803520876402"><ele>268.0</ele><time>2026-05-01T09:12:34Z</time></trkpt><trkpt lat="44.642008310462806" lon="1.0451970764408767"><ele>267.0</ele><time>2026-05-01T09:12:35Z</time></trkpt><trkpt lat="44.6418832367676" lon="1.0451814402534545"><ele>266.0</ele><time>2026-05-01T09:12:36Z</time></trkpt><trkpt lat="44.641728502436195" lon="1.0451618432396872"><ele>265.0</ele><time>2026-05-01T09:12:37Z</time></trkpt><trkpt lat="44.64160298258856" lon="1.0451193496323865"><ele>264.0</ele><time>2026-05-01T09:12:38Z</time></trkpt><trkpt lat="44.64144796249559" lon="1.045065914085375"><ele>264.0</ele><time>2026-05-01T09:12:39Z</time></trkpt><trkpt lat="44.641296397436754" lon="1.0450369839744866"><ele>264.0</ele><time>2026-05-01T09:12:40Z</time></trkpt><trkpt lat="44.64116415591288" lon="1.0449892047459937"><ele>264.0</ele><time>2026-05-01T09:12:41Z</time></trkpt><trkpt lat="44.64103140224959" lon="1.0449610351342042"><ele>264.0</ele><time>2026-05-01T09:12:42Z</time></trkpt><trkpt lat="44.64089601078597" lon="1.0449284705493063"><ele>262.75</ele><time>2026-05-01T09:12:43Z</time></trkpt><trkpt lat="44.64076866036384" lon="1.0448790487258794"><ele>261.5</ele><time>2026-05-01T09:12:44Z</time></trkpt><trkpt lat="44.6406606384391" lon="1.0448152588752504"><ele>260.25</ele><time>2026-05-01T09:12:45Z</time></trkpt><trkpt lat="44.64056438003361" lon="1.0447601463423382"><ele>259.0</ele><time>2026-05-01T09:12:46Z</time></trkpt><trkpt lat="44.64044926902595" lon="1.0447355848217845"><ele>259.0</ele><time>2026-05-01T09:12:47Z</time></trkpt><trkpt lat="44.64033644396266" lon="1.0447447837317705"><ele>259.0</ele><time>2026-05-01T09:12:48Z</time></trkpt><trkpt lat="44.64025171528886" lon="1.0447397382817352"><ele>259.0</ele><time>2026-05-01T09:12:49Z</time></trkpt><trkpt lat="44.64016452664494" lon="1.0446752085735778"><ele>259.0</ele><time>2026-05-01T09:12:50Z</time></trkpt><trkpt lat="44.64007839886697" lon="1.0445912925684295"><ele>259.0</ele><time>2026-05-01T09:12:51Z</time></trkpt><trkpt lat="44.640003871464806" lon="1.0445161968098533"><ele>259.16666666666663</ele><time>2026-05-01T09:12:52Z</time></trkpt><trkpt lat="44.639925241261686" lon="1.0444741869325898"><ele>259.3333333333333</ele><time>2026-05-01T09:12:53Z</time></trkpt><trkpt lat="44.63984557666215" lon="1.0444515216037962"><ele>259.5</ele><time>2026-05-01T09:12:54Z</time></trkpt><trkpt lat="44.63977066754195" lon="1.044427008535156"><ele>259.6666666666667</ele><time>2026-05-01T09:12:55Z</time></trkpt><trkpt lat="44.639679806172246" lon="1.0443989711012003"><ele>259.83333333333337</ele><time>2026-05-01T09:12:56Z</time></trkpt><trkpt lat="44.63957818349393" lon="1.0443914295760948"><ele>260.0</ele><time>2026-05-01T09:12:57Z</time></trkpt><trkpt lat="44.63946804212418" lon="1.044387561055995"><ele>258.4</ele><time>2026-05-01T09:12:58Z</time></trkpt><trkpt lat="44.63936317789086" lon="1.0443772965016258"><ele>256.8</ele><time>2026-05-01T09:12:59Z</time></trkpt><trkpt lat="44.639261463648324" lon="1.0443641371255146"><ele>255.2</ele><time>2026-05-01T09:13:00Z</time></trkpt><trkpt lat="44.639163221620315" lon="1.04434146908881"><ele>253.6</ele><time>2026-05-01T09:13:01Z</time></trkpt><trkpt lat="44.639060850561634" lon="1.044347442641864"><ele>252.0</ele><time>2026-05-01T09:13:02Z</time></trkpt><trkpt lat="44.638938552256775" lon="1.0443833369214761"><ele>252.0</ele><time>2026-05-01T09:13:03Z</time></trkpt><trkpt lat="44.63880876923264" lon="1.0444341629758653"><ele>252.0</ele><time>2026-05-01T09:13:04Z</time></trkpt><trkpt lat="44.63869291129803" lon="1.044503183999102"><ele>252.0</ele><time>2026-05-01T09:13:05Z</time></trkpt><trkpt lat="44.63860831468852" lon="1.0445478913699255"><ele>252.0</ele><time>2026-05-01T09:13:06Z</time></trkpt><trkpt lat="44.63850231791126" lon="1.0446088345171338"><ele>250.16666666666666</ele><time>2026-05-01T09:13:07Z</time></trkpt><trkpt lat="44.63842723025243" lon="1.0446992702106597"><ele>248.33333333333331</ele><time>2026-05-01T09:13:08Z</time></trkpt><trkpt lat="44.63837376543568" lon="1.0447692332143708"><ele>246.5</ele><time>2026-05-01T09:13:09Z</time></trkpt><trkpt lat="44.63830977139554" lon="1.0448633634619975"><ele>244.66666666666666</ele><time>2026-05-01T09:13:11Z</time></trkpt><trkpt lat="44.638288373078225" lon="1.0449542649114187"><ele>242.83333333333331</ele><time>2026-05-01T09:13:19Z</time></trkpt><trkpt lat="44.6382469659728" lon="1.045101930567442"><ele>241.0</ele><time>2026-05-01T09:13:21Z</time></trkpt><trkpt lat="44.63821612631294" lon="1.0451847776849013"><ele>241.0</ele><time>2026-05-01T09:13:22Z</time></trkpt><trkpt lat="44.63816134603889" lon="1.0452659204419916"><ele>241.00000000000003</ele><time>2026-05-01T09:13:23Z</time></trkpt><trkpt lat="44.63808614236193" lon="1.045336276648522"><ele>241.00000000000003</ele><time>2026-05-01T09:13:24Z</time></trkpt><trkpt lat="44.63798885232086" lon="1.0453717414353387"><ele>241.0</ele><time>2026-05-01T09:13:25Z</time></trkpt><trkpt lat="44.63788872271429" lon="1.045373434273536"><ele>241.0</ele><time>2026-05-01T09:13:26Z</time></trkpt><trkpt lat="44.63777825056877" lon="1.0453776947478275"><ele>238.5</ele><time>2026-05-01T09:13:27Z</time></trkpt><trkpt lat="44.63765241780846" lon="1.045378891861566"><ele>236.0</ele><time>2026-05-01T09:13:28Z</time></trkpt><trkpt lat="44.6375334926971" lon="1.0453922904370248"><ele>233.5</ele><time>2026-05-01T09:13:29Z</time></trkpt><trkpt lat="44.63741849030763" lon="1.0454116031343186"><ele>231.0</ele><time>2026-05-01T09:13:30Z</time></trkpt><trkpt lat="44.6372684744221" lon="1.0454336704131217"><ele>231.0</ele><time>2026-05-01T09:13:31Z</time></trkpt><trkpt lat="44.63713485167922" lon="1.0454747194998133"><ele>231.00000000000003</ele><time>2026-05-01T09:13:32Z</time></trkpt><trkpt lat="44.637023145515954" lon="1.0454981383745139"><ele>231.00000000000003</ele><time>2026-05-01T09:13:33Z</time></trkpt><trkpt lat="44.63691175082037" lon="1.0454891039082894"><ele>231.0</ele><time>2026-05-01T09:13:34Z</time></trkpt><trkpt lat="44.63682432189311" lon="1.045477754936556"><ele>231.0</ele><time>2026-05-01T09:13:35Z</time></trkpt><trkpt lat="44.63675571709376" lon="1.0454833484562593"><ele>230.20000000000002</ele><time>2026-05-01T09:13:36Z</time></trkpt><trkpt lat="44.636681892833344" lon="1.0455370378892659"><ele>229.40000000000003</ele><time>2026-05-01T09:13:37Z</time></trkpt><trkpt lat="44.636589040497626" lon="1.0456044918753153"><ele>228.6</ele><time>2026-05-01T09:13:38Z</time></trkpt><trkpt lat="44.63649389756241" lon="1.045688771200056"><ele>227.8</ele><time>2026-05-01T09:13:39Z</time></trkpt><trkpt lat="44.636395117749906" lon="1.0457744194765877"><ele>227.0</ele><time>2026-05-01T09:13:40Z</time></trkpt><trkpt lat="44.63628978907294" lon="1.045870403456751"><ele>227.0</ele><time>2026-05-01T09:13:41Z</time></trkpt><trkpt lat="44.63618749932481" lon="1.0459705988908041"><ele>227.0</ele><time>2026-05-01T09:13:42Z</time></trkpt><trkpt lat="44.63607362736684" lon="1.0460690166902296"><ele>227.0</ele><time>2026-05-01T09:13:43Z</time></trkpt><trkpt lat="44.63595520798815" lon="1.0461629440901257"><ele>227.0</ele><time>2026-05-01T09:13:44Z</time></trkpt><trkpt lat="44.63584268969941" lon="1.0462673478164766"><ele>226.25</ele><time>2026-05-01T09:13:45Z</time></trkpt><trkpt lat="44.635731973728944" lon="1.0463638856250523"><ele>225.5</ele><time>2026-05-01T09:13:46Z</time></trkpt><trkpt lat="44.63562105214721" lon="1.0464555129616566"><ele>224.75</ele><time>2026-05-01T09:13:47Z</time></trkpt><trkpt lat="44.635507962357146" lon="1.0465188377828905"><ele>224.0</ele><time>2026-05-01T09:13:48Z</time></trkpt><trkpt lat="44.635360007321516" lon="1.0465763719123518"><ele>223.5</ele><time>2026-05-01T09:13:49Z</time></trkpt><trkpt lat="44.635238894394085" lon="1.0466080907270006"><ele>223.0</ele><time>2026-05-01T09:13:50Z</time></trkpt><trkpt lat="44.6351126815356" lon="1.0466601555523953"><ele>222.5</ele><time>2026-05-01T09:13:51Z</time></trkpt><trkpt lat="44.63500380799716" lon="1.0467158431185353"><ele>222.0</ele><time>2026-05-01T09:13:52Z</time></trkpt><trkpt lat="44.634883992900505" lon="1.046764657829481"><ele>222.0</ele><time>2026-05-01T09:13:53Z</time></trkpt><trkpt lat="44.634773152334866" lon="1.0468056161875179"><ele>222.0</ele><time>2026-05-01T09:13:54Z</time></trkpt><trkpt lat="44.634681131626465" lon="1.0468325102952833"><ele>222.0</ele><time>2026-05-01T09:13:55Z</time></trkpt><trkpt lat="44.63460275212254" lon="1.0468578103399968"><ele>222.0</ele><time>2026-05-01T09:13:56Z</time></trkpt><trkpt lat="44.63453705371649" lon="1.0468718945465172"><ele>222.0</ele><time>2026-05-01T09:13:57Z</time></trkpt><trkpt lat="44.63444849052749" lon="1.0468706957536815"><ele>222.0</ele><time>2026-05-01T09:13:59Z</time></trkpt><trkpt lat="44.63441947854966" lon="1.0466488363896123"><ele>221.0</ele><time>2026-05-01T09:14:03Z</time></trkpt><trkpt lat="44.63444141014646" lon="1.0465489284459402"><ele>220.0</ele><time>2026-05-01T09:14:04Z</time></trkpt><trkpt lat="44.6344642431865" lon="1.0464191460202121"><ele>219.0</ele><time>2026-05-01T09:14:05Z</time></trkpt><trkpt lat="44.634482056697394" lon="1.0462747356508195"><ele>218.0</ele><time>2026-05-01T09:14:06Z</time></trkpt><trkpt lat="44.634507376682386" lon="1.0461353522580905"><ele>217.0</ele><time>2026-05-01T09:14:07Z</time></trkpt><trkpt lat="44.63451754376341" lon="1.0460035116772166"><ele>217.0</ele><time>2026-05-01T09:14:08Z</time></trkpt><trkpt lat="44.63455331821461" lon="1.0458927643387415"><ele>217.0</ele><time>2026-05-01T09:14:09Z</time></trkpt><trkpt lat="44.63461162099548" lon="1.045838071337858"><ele>217.0</ele><time>2026-05-01T09:14:10Z</time></trkpt><trkpt lat="44.63467261101521" lon="1.0456589158804155"><ele>217.0</ele><time>2026-05-01T09:14:12Z</time></trkpt><trkpt lat="44.63470158983738" lon="1.045514319228268"><ele>217.0</ele><time>2026-05-01T09:14:13Z</time></trkpt><trkpt lat="44.634739404763046" lon="1.0453652894299479"><ele>216.2</ele><time>2026-05-01T09:14:14Z</time></trkpt><trkpt lat="44.634790505343666" lon="1.0452299578780233"><ele>215.39999999999998</ele><time>2026-05-01T09:14:15Z</time></trkpt><trkpt lat="44.634822958851764" lon="1.0451204210912572"><ele>214.60000000000002</ele><time>2026-05-01T09:14:16Z</time></trkpt><trkpt lat="44.63484622106575" lon="1.0450158511162007"><ele>213.8</ele><time>2026-05-01T09:14:17Z</time></trkpt><trkpt lat="44.63486608294628" lon="1.0449165522877644"><ele>213.0</ele><time>2026-05-01T09:14:18Z</time></trkpt><trkpt lat="44.6349319147655" lon="1.0447758529711755"><ele>209.5</ele><time>2026-05-01T09:14:20Z</time></trkpt><trkpt lat="44.635002462074745" lon="1.0446728823151232"><ele>206.0</ele><time>2026-05-01T09:14:21Z</time></trkpt><trkpt lat="44.63508759063733" lon="1.0445492802454142"><ele>202.5</ele><time>2026-05-01T09:14:22Z</time></trkpt><trkpt lat="44.63517555007606" lon="1.0443852794486792"><ele>199.0</ele><time>2026-05-01T09:14:23Z</time></trkpt><trkpt lat="44.635253285128584" lon="1.044265583855651"><ele>197.5</ele><time>2026-05-01T09:14:24Z</time></trkpt><trkpt lat="44.63531923408438" lon="1.0441750336000806"><ele>196.0</ele><time>2026-05-01T09:14:25Z</time></trkpt><trkpt lat="44.63539708069858" lon="1.0440866303134362"><ele>194.5</ele><time>2026-05-01T09:14:26Z</time></trkpt><trkpt lat="44.63550600143313" lon="1.0439847886489781"><ele>193.0</ele><time>2026-05-01T09:14:27Z</time></trkpt><trkpt lat="44.63563737566353" lon="1.0438871023226333"><ele>193.0</ele><time>2026-05-01T09:14:28Z</time></trkpt><trkpt lat="44.63575853364512" lon="1.0438352073282602"><ele>193.0</ele><time>2026-05-01T09:14:29Z</time></trkpt><trkpt lat="44.63586488827438" lon="1.0437751940003552"><ele>193.0</ele><time>2026-05-01T09:14:30Z</time></trkpt><trkpt lat="44.63596718569185" lon="1.0437002988349136"><ele>193.0</ele><time>2026-05-01T09:14:31Z</time></trkpt><trkpt lat="44.63607014683334" lon="1.0436255146695672"><ele>194.5</ele><time>2026-05-01T09:14:32Z</time></trkpt><trkpt lat="44.63618625756298" lon="1.0435376902862907"><ele>196.0</ele><time>2026-05-01T09:14:33Z</time></trkpt><trkpt lat="44.636284472659675" lon="1.043479118141652"><ele>197.5</ele><time>2026-05-01T09:14:34Z</time></trkpt><trkpt lat="44.63641553984821" lon="1.0434483123158638"><ele>199.0</ele><time>2026-05-01T09:14:35Z</time></trkpt><trkpt lat="44.63656314692843" lon="1.0433915524173474"><ele>199.0</ele><time>2026-05-01T09:14:36Z</time></trkpt><trkpt lat="44.63669467011207" lon="1.0433207099038837"><ele>199.0</ele><time>2026-05-01T09:14:37Z</time></trkpt><trkpt lat="44.63683011815254" lon="1.0432566395048875"><ele>199.0</ele><time>2026-05-01T09:14:38Z</time></trkpt><trkpt lat="44.63695007321318" lon="1.04318310190284"><ele>199.0</ele><time>2026-05-01T09:14:39Z</time></trkpt><trkpt lat="44.63705488293995" lon="1.0431213833204818"><ele>195.75</ele><time>2026-05-01T09:14:40Z</time></trkpt><trkpt lat="44.637167274086266" lon="1.0430569463578094"><ele>192.5</ele><time>2026-05-01T09:14:41Z</time></trkpt><trkpt lat="44.637278485686814" lon="1.043016689066753"><ele>189.25</ele><time>2026-05-01T09:14:42Z</time></trkpt><trkpt lat="44.637382696962014" lon="1.0429525958462535"><ele>186.0</ele><time>2026-05-01T09:14:43Z</time></trkpt><trkpt lat="44.63747502147325" lon="1.0428370823702946"><ele>186.0</ele><time>2026-05-01T09:14:44Z</time></trkpt><trkpt lat="44.63757764349282" lon="1.042726273989602"><ele>186.0</ele><time>2026-05-01T09:14:45Z</time></trkpt><trkpt lat="44.63766230160641" lon="1.042617137865271"><ele>186.0</ele><time>2026-05-01T09:14:46Z</time></trkpt><trkpt lat="44.63770065450559" lon="1.042532053086482"><ele>186.0</ele><time>2026-05-01T09:14:47Z</time></trkpt><trkpt lat="44.63778542655422" lon="1.0424170582964054"><ele>186.0</ele><time>2026-05-01T09:14:48Z</time></trkpt><trkpt lat="44.63790255627474" lon="1.0422589015035364"><ele>188.60000000000002</ele><time>2026-05-01T09:14:49Z</time></trkpt><trkpt lat="44.637983145505444" lon="1.0421666294952328"><ele>191.2</ele><time>2026-05-01T09:14:50Z</time></trkpt><trkpt lat="44.63804716374796" lon="1.0420721471780496"><ele>193.8</ele><time>2026-05-01T09:14:51Z</time></trkpt><trkpt lat="44.638094684221414" lon="1.0419809090352794"><ele>196.39999999999998</ele><time>2026-05-01T09:14:52Z</time></trkpt><trkpt lat="44.638148644344504" lon="1.0418700374017626"><ele>199.0</ele><time>2026-05-01T09:14:54Z</time></trkpt><trkpt lat="44.6380998548607" lon="1.0417520801322673"><ele>198.99999999999997</ele><time>2026-05-01T09:14:56Z</time></trkpt><trkpt lat="44.63807130125188" lon="1.041648820432206"><ele>199.0</ele><time>2026-05-01T09:14:57Z</time></trkpt><trkpt lat="44.63805720471271" lon="1.0415401056373679"><ele>199.0</ele><time>2026-05-01T09:14:58Z</time></trkpt><trkpt lat="44.63805380694642" lon="1.0413925139185871"><ele>199.0</ele><time>2026-05-01T09:14:59Z</time></trkpt><trkpt lat="44.63807165849262" lon="1.0412632904500436"><ele>198.99999999999997</ele><time>2026-05-01T09:15:00Z</time></trkpt><trkpt lat="44.63807719486996" lon="1.0411335982092644"><ele>199.0</ele><time>2026-05-01T09:15:01Z</time></trkpt><trkpt lat="44.63809817156593" lon="1.0409923432562207"><ele>197.5</ele><time>2026-05-01T09:15:02Z</time></trkpt><trkpt lat="44.638132479184435" lon="1.0408392545470109"><ele>196.0</ele><time>2026-05-01T09:15:03Z</time></trkpt><trkpt lat="44.63817703913332" lon="1.0406737742886918"><ele>194.5</ele><time>2026-05-01T09:15:04Z</time></trkpt><trkpt lat="44.63822566505533" lon="1.0405005679812473"><ele>193.0</ele><time>2026-05-01T09:15:05Z</time></trkpt><trkpt lat="44.638272598792575" lon="1.040345838452246"><ele>189.25</ele><time>2026-05-01T09:15:06Z</time></trkpt><trkpt lat="44.63831804601729" lon="1.0401932912372824"><ele>185.5</ele><time>2026-05-01T09:15:07Z</time></trkpt><trkpt lat="44.638372279750286" lon="1.0400438313214666"><ele>181.75</ele><time>2026-05-01T09:15:08Z</time></trkpt><trkpt lat="44.638419279764356" lon="1.0398989793868998"><ele>178.0</ele><time>2026-05-01T09:15:09Z</time></trkpt><trkpt lat="44.63846123102185" lon="1.0397474307910723"><ele>175.8</ele><time>2026-05-01T09:15:10Z</time></trkpt><trkpt lat="44.63849779651775" lon="1.039613543556822"><ele>173.60000000000002</ele><time>2026-05-01T09:15:11Z</time></trkpt><trkpt lat="44.638537006420506" lon="1.0394902917407711"><ele>171.39999999999998</ele><time>2026-05-01T09:15:12Z</time></trkpt><trkpt lat="44.638575474592564" lon="1.0393822065023608"><ele>169.2</ele><time>2026-05-01T09:15:13Z</time></trkpt><trkpt lat="44.63857182648655" lon="1.039262222833078"><ele>167.0</ele><time>2026-05-01T09:15:14Z</time></trkpt><trkpt lat="44.63857427540347" lon="1.0391357160349457"><ele>166.33333333333331</ele><time>2026-05-01T09:15:15Z</time></trkpt><trkpt lat="44.6385842178374" lon="1.0390366579646708"><ele>165.66666666666666</ele><time>2026-05-01T09:15:16Z</time></trkpt><trkpt lat="44.63860381656571" lon="1.0389121195198607"><ele>165.0</ele><time>2026-05-01T09:15:17Z</time></trkpt><trkpt lat="44.638632968545274" lon="1.038828040072768"><ele>164.33333333333334</ele><time>2026-05-01T09:15:18Z</time></trkpt><trkpt lat="44.638684140120226" lon="1.0387345142411184"><ele>163.66666666666669</ele><time>2026-05-01T09:15:19Z</time></trkpt><trkpt lat="44.638743851447245" lon="1.0386512147315612"><ele>163.0</ele><time>2026-05-01T09:15:20Z</time></trkpt><trkpt lat="44.63879079281845" lon="1.0385711294947337"><ele>164.0</ele><time>2026-05-01T09:15:21Z</time></trkpt><trkpt lat="44.638870839274446" lon="1.0384401866934783"><ele>165.0</ele><time>2026-05-01T09:15:23Z</time></trkpt><trkpt lat="44.6389085651539" lon="1.0383577259643355"><ele>166.0</ele><time>2026-05-01T09:15:24Z</time></trkpt><trkpt lat="44.6389869253071" lon="1.0382103325953431"><ele>167.0</ele><time>2026-05-01T09:15:26Z</time></trkpt><trkpt lat="44.63903818943739" lon="1.0381036564096653"><ele>168.0</ele><time>2026-05-01T09:15:27Z</time></trkpt><trkpt lat="44.63909713379559" lon="1.037999321165571"><ele>168.0</ele><time>2026-05-01T09:15:28Z</time></trkpt><trkpt lat="44.639155197594" lon="1.0378977091955348"><ele>168.0</ele><time>2026-05-01T09:15:29Z</time></trkpt><trkpt lat="44.639197283561295" lon="1.0377886869710216"><ele>168.0</ele><time>2026-05-01T09:15:30Z</time></trkpt><trkpt lat="44.63923989437487" lon="1.0377034999981383"><ele>168.0</ele><time>2026-05-01T09:15:31Z</time></trkpt><trkpt lat="44.63927330396685" lon="1.0376127398074404"><ele>168.0</ele><time>2026-05-01T09:15:32Z</time></trkpt><trkpt lat="44.63930622287501" lon="1.0375222568081504"><ele>168.0</ele><time>2026-05-01T09:15:33Z</time></trkpt><trkpt lat="44.639388484336884" lon="1.0374019550838567"><ele>167.16666666666666</ele><time>2026-05-01T09:15:35Z</time></trkpt><trkpt lat="44.63944152044204" lon="1.0373469729424851"><ele>166.33333333333334</ele><time>2026-05-01T09:15:36Z</time></trkpt><trkpt lat="44.63954860392363" lon="1.0372855568013335"><ele>165.5</ele><time>2026-05-01T09:15:38Z</time></trkpt><trkpt lat="44.639603827709244" lon="1.0372048111729038"><ele>164.66666666666669</ele><time>2026-05-01T09:15:39Z</time></trkpt><trkpt lat="44.63967694400502" lon="1.037152967792949"><ele>163.83333333333334</ele><time>2026-05-01T09:15:40Z</time></trkpt><trkpt lat="44.639753358115144" lon="1.0371117764199231"><ele>163.0</ele><time>2026-05-01T09:15:41Z</time></trkpt><trkpt lat="44.63981615378568" lon="1.0370937235959121"><ele>163.0</ele><time>2026-05-01T09:15:42Z</time></trkpt><trkpt lat="44.639888544464746" lon="1.0370901563489512"><ele>163.0</ele><time>2026-05-01T09:15:44Z</time></trkpt><trkpt lat="44.639978399417764" lon="1.0370638482410868"><ele>163.0</ele><time>2026-05-01T09:15:50Z</time></trkpt><trkpt lat="44.640060352897805" lon="1.037033937669848"><ele>163.0</ele><time>2026-05-01T09:15:52Z</time></trkpt><trkpt lat="44.640122355543845" lon="1.0370106042470224"><ele>163.0</ele><time>2026-05-01T09:15:53Z</time></trkpt><trkpt lat="44.64022420220705" lon="1.0369666316750765"><ele>163.0</ele><time>2026-05-01T09:15:55Z</time></trkpt><trkpt lat="44.640303902763776" lon="1.036932395791827"><ele>163.0</ele><time>2026-05-01T09:15:57Z</time></trkpt><trkpt lat="44.640298689243586" lon="1.0368424469216893"><ele>163.0</ele><time>2026-05-01T09:15:59Z</time></trkpt><trkpt lat="44.64019475484558" lon="1.0367882749850101"><ele>163.0</ele><time>2026-05-01T09:16:01Z</time></trkpt><trkpt lat="44.64012005154351" lon="1.0367918469527548"><ele>163.0</ele><time>2026-05-01T09:16:02Z</time></trkpt><trkpt lat="44.64003338337929" lon="1.036789337016946"><ele>163.0</ele><time>2026-05-01T09:16:03Z</time></trkpt><trkpt lat="44.63994583869581" lon="1.0367759155204659"><ele>163.0</ele><time>2026-05-01T09:16:04Z</time></trkpt><trkpt lat="44.63985188031101" lon="1.0367770756339505"><ele>163.0</ele><time>2026-05-01T09:16:05Z</time></trkpt><trkpt lat="44.639751219293515" lon="1.0367953818230087"><ele>163.0</ele><time>2026-05-01T09:16:06Z</time></trkpt><trkpt lat="44.639646942590495" lon="1.0368221539506564"><ele>163.0</ele><time>2026-05-01T09:16:07Z</time></trkpt><trkpt lat="44.63955273623217" lon="1.0368523088286614"><ele>163.0</ele><time>2026-05-01T09:16:08Z</time></trkpt><trkpt lat="44.639453508109376" lon="1.036896588083805"><ele>163.0</ele><time>2026-05-01T09:16:09Z</time></trkpt><trkpt lat="44.63936076049805" lon="1.0369471030062418"><ele>162.8</ele><time>2026-05-01T09:16:10Z</time></trkpt><trkpt lat="44.63927267285927" lon="1.0370016704446994"><ele>162.60000000000002</ele><time>2026-05-01T09:16:11Z</time></trkpt><trkpt lat="44.63918735451957" lon="1.0370606475379407"><ele>162.39999999999998</ele><time>2026-05-01T09:16:12Z</time></trkpt><trkpt lat="44.63910137459044" lon="1.037117376084582"><ele>162.2</ele><time>2026-05-01T09:16:13Z</time></trkpt><trkpt lat="44.63901893806809" lon="1.037180074063099"><ele>162.0</ele><time>2026-05-01T09:16:14Z</time></trkpt><trkpt lat="44.638938420757114" lon="1.0372510929241918"><ele>162.0</ele><time>2026-05-01T09:16:15Z</time></trkpt><trkpt lat="44.638868072087746" lon="1.0373243110548493"><ele>162.0</ele><time>2026-05-01T09:16:16Z</time></trkpt><trkpt lat="44.638798160989495" lon="1.0374070496235221"><ele>162.0</ele><time>2026-05-01T09:16:17Z</time></trkpt><trkpt lat="44.63873177896476" lon="1.0374882845306588"><ele>162.0</ele><time>2026-05-01T09:16:18Z</time></trkpt><trkpt lat="44.63867036964801" lon="1.0375759040855563"><ele>162.0</ele><time>2026-05-01T09:16:19Z</time></trkpt><trkpt lat="44.638611528410415" lon="1.0376635150723206"><ele>162.0</ele><time>2026-05-01T09:16:20Z</time></trkpt><trkpt lat="44.63855818442998" lon="1.0377411488716866"><ele>161.83333333333334</ele><time>2026-05-01T09:16:21Z</time></trkpt><trkpt lat="44.638512665800626" lon="1.0378323440352153"><ele>161.66666666666666</ele><time>2026-05-01T09:16:22Z</time></trkpt><trkpt lat="44.63846183851265" lon="1.0379163178568085"><ele>161.5</ele><time>2026-05-01T09:16:23Z</time></trkpt><trkpt lat="44.63841076593906" lon="1.0380128910859434"><ele>161.33333333333331</ele><time>2026-05-01T09:16:24Z</time></trkpt><trkpt lat="44.63836145399558" lon="1.0380977130482332"><ele>161.16666666666666</ele><time>2026-05-01T09:16:25Z</time></trkpt><trkpt lat="44.638318552250766" lon="1.0382007117069059"><ele>161.0</ele><time>2026-05-01T09:16:26Z</time></trkpt><trkpt lat="44.63828015169703" lon="1.038290692682288"><ele>161.33333333333331</ele><time>2026-05-01T09:16:27Z</time></trkpt><trkpt lat="44.63822707291257" lon="1.038385710415549"><ele>161.66666666666666</ele><time>2026-05-01T09:16:28Z</time></trkpt><trkpt lat="44.63818501325677" lon="1.0384680708074068"><ele>162.0</ele><time>2026-05-01T09:16:29Z</time></trkpt><trkpt lat="44.63814585428953" lon="1.0385762163168946"><ele>162.33333333333334</ele><time>2026-05-01T09:16:30Z</time></trkpt><trkpt lat="44.638106195911575" lon="1.0386787477050488"><ele>162.66666666666669</ele><time>2026-05-01T09:16:31Z</time></trkpt><trkpt lat="44.638070495618464" lon="1.0387758883453582"><ele>163.0</ele><time>2026-05-01T09:16:32Z</time></trkpt><trkpt lat="44.6380339651856" lon="1.0388774107893646"><ele>163.0</ele><time>2026-05-01T09:16:33Z</time></trkpt><trkpt lat="44.637999143915174" lon="1.038975197897909"><ele>163.0</ele><time>2026-05-01T09:16:34Z</time></trkpt><trkpt lat="44.63796600630863" lon="1.0390660202494106"><ele>163.0</ele><time>2026-05-01T09:16:35Z</time></trkpt><trkpt lat="44.637934831671586" lon="1.0391507099779056"><ele>163.0</ele><time>2026-05-01T09:16:36Z</time></trkpt><trkpt lat="44.6379086491544" lon="1.0392353783281663"><ele>163.0</ele><time>2026-05-01T09:16:37Z</time></trkpt><trkpt lat="44.63785279955972" lon="1.0393859183699192"><ele>163.0</ele><time>2026-05-01T09:16:39Z</time></trkpt><trkpt lat="44.63782330901447" lon="1.0394665825545497"><ele>163.14285714285714</ele><time>2026-05-01T09:16:40Z</time></trkpt><trkpt lat="44.63779001340019" lon="1.039556299202774"><ele>163.28571428571428</ele><time>2026-05-01T09:16:41Z</time></trkpt><trkpt lat="44.63775487867173" lon="1.039646778873772"><ele>163.42857142857142</ele><time>2026-05-01T09:16:42Z</time></trkpt><trkpt lat="44.63771776327928" lon="1.0397377172963371"><ele>163.57142857142856</ele><time>2026-05-01T09:16:43Z</time></trkpt><trkpt lat="44.637679556803384" lon="1.0398319883520006"><ele>163.71428571428572</ele><time>2026-05-01T09:16:44Z</time></trkpt><trkpt lat="44.637637737004965" lon="1.0399249446680854"><ele>163.85714285714283</ele><time>2026-05-01T09:16:45Z</time></trkpt><trkpt lat="44.63760128257958" lon="1.0400061324858674"><ele>164.0</ele><time>2026-05-01T09:16:46Z</time></trkpt><trkpt lat="44.6375630579905" lon="1.040081282349487"><ele>163.99999999999997</ele><time>2026-05-01T09:16:47Z</time></trkpt><trkpt lat="44.63752778548046" lon="1.0401610574227047"><ele>164.0</ele><time>2026-05-01T09:16:48Z</time></trkpt><trkpt lat="44.637491051061595" lon="1.0402531145501588"><ele>164.0</ele><time>2026-05-01T09:16:49Z</time></trkpt><trkpt lat="44.63744933863805" lon="1.0403418305559802"><ele>164.0</ele><time>2026-05-01T09:16:50Z</time></trkpt><trkpt lat="44.6374041689613" lon="1.0404264278465771"><ele>164.0</ele><time>2026-05-01T09:16:51Z</time></trkpt><trkpt lat="44.6373615323972" lon="1.040512833819284"><ele>163.99999999999997</ele><time>2026-05-01T09:16:52Z</time></trkpt><trkpt lat="44.637315388755745" lon="1.0405962158019144"><ele>164.0</ele><time>2026-05-01T09:16:53Z</time></trkpt><trkpt lat="44.63726025120485" lon="1.0406856733660257"><ele>164.0</ele><time>2026-05-01T09:16:54Z</time></trkpt><trkpt lat="44.63720521858771" lon="1.040771064026636"><ele>164.0</ele><time>2026-05-01T09:16:55Z</time></trkpt><trkpt lat="44.637146245448605" lon="1.0408573098742708"><ele>164.0</ele><time>2026-05-01T09:16:56Z</time></trkpt><trkpt lat="44.63708111237024" lon="1.0409400962596025"><ele>164.0</ele><time>2026-05-01T09:16:57Z</time></trkpt><trkpt lat="44.63701024217376" lon="1.0410197449086966"><ele>164.0</ele><time>2026-05-01T09:16:58Z</time></trkpt><trkpt lat="44.63693652297853" lon="1.041104576482043"><ele>164.0</ele><time>2026-05-01T09:16:59Z</time></trkpt><trkpt lat="44.636860889917436" lon="1.0411974638321264"><ele>163.39999999999998</ele><time>2026-05-01T09:17:00Z</time></trkpt><trkpt lat="44.63678279048188" lon="1.0412795987755574"><ele>162.8</ele><time>2026-05-01T09:17:01Z</time></trkpt><trkpt lat="44.636697673601965" lon="1.0413546091606305"><ele>162.2</ele><time>2026-05-01T09:17:02Z</time></trkpt><trkpt lat="44.63660277531669" lon="1.0414224972812653"><ele>161.60000000000002</ele><time>2026-05-01T09:17:03Z</time></trkpt><trkpt lat="44.63650192944772" lon="1.0414922908853954"><ele>161.0</ele><time>2026-05-01T09:17:04Z</time></trkpt><trkpt lat="44.63639312847052" lon="1.0415687216639895"><ele>161.5</ele><time>2026-05-01T09:17:05Z</time></trkpt><trkpt lat="44.63628245485366" lon="1.041633258652553"><ele>162.0</ele><time>2026-05-01T09:17:06Z</time></trkpt><trkpt lat="44.6361643230702" lon="1.0416883543459874"><ele>162.5</ele><time>2026-05-01T09:17:07Z</time></trkpt><trkpt lat="44.63604319475623" lon="1.0417359022890746"><ele>163.0</ele><time>2026-05-01T09:17:08Z</time></trkpt><trkpt lat="44.63591985030684" lon="1.041774166308372"><ele>163.0</ele><time>2026-05-01T09:17:09Z</time></trkpt><trkpt lat="44.63579332580685" lon="1.0418108332953129"><ele>163.0</ele><time>2026-05-01T09:17:10Z</time></trkpt><trkpt lat="44.635670881281676" lon="1.0418389630849338"><ele>163.0</ele><time>2026-05-01T09:17:11Z</time></trkpt><trkpt lat="44.635545689026706" lon="1.0418636484974222"><ele>163.0</ele><time>2026-05-01T09:17:12Z</time></trkpt><trkpt lat="44.635423293677164" lon="1.0418858937783264"><ele>162.5</ele><time>2026-05-01T09:17:13Z</time></trkpt><trkpt lat="44.63529901733392" lon="1.0419136660744934"><ele>162.0</ele><time>2026-05-01T09:17:14Z</time></trkpt><trkpt lat="44.6351651757468" lon="1.0419343815784756"><ele>161.5</ele><time>2026-05-01T09:17:15Z</time></trkpt><trkpt lat="44.63502781285317" lon="1.0419588996674096"><ele>161.0</ele><time>2026-05-01T09:17:16Z</time></trkpt><trkpt lat="44.63488637330245" lon="1.0419868647224457"><ele>161.0</ele><time>2026-05-01T09:17:17Z</time></trkpt><trkpt lat="44.63474105119333" lon="1.0420118399117433"><ele>161.0</ele><time>2026-05-01T09:17:18Z</time></trkpt><trkpt lat="44.634594160068254" lon="1.042037560247907"><ele>161.0</ele><time>2026-05-01T09:17:19Z</time></trkpt><trkpt lat="44.63445286626383" lon="1.0420670647269241"><ele>161.0</ele><time>2026-05-01T09:17:20Z</time></trkpt><trkpt lat="44.6343056155661" lon="1.0421018132916247"><ele>161.25</ele><time>2026-05-01T09:17:21Z</time></trkpt><trkpt lat="44.63415493112003" lon="1.0421326861355706"><ele>161.5</ele><time>2026-05-01T09:17:22Z</time></trkpt><trkpt lat="44.63401857923766" lon="1.0421624786148966"><ele>161.75</ele><time>2026-05-01T09:17:23Z</time></trkpt><trkpt lat="44.63389035883952" lon="1.0422025933386916"><ele>162.0</ele><time>2026-05-01T09:17:24Z</time></trkpt><trkpt lat="44.63377972189786" lon="1.0422423143139186"><ele>162.0</ele><time>2026-05-01T09:17:25Z</time></trkpt><trkpt lat="44.63367319134814" lon="1.042280395696689"><ele>162.0</ele><time>2026-05-01T09:17:26Z</time></trkpt><trkpt lat="44.63357991967996" lon="1.0423232478356286"><ele>162.0</ele><time>2026-05-01T09:17:27Z</time></trkpt><trkpt lat="44.63349535917044" lon="1.042372760885291"><ele>162.0</ele><time>2026-05-01T09:17:28Z</time></trkpt><trkpt lat="44.63342276410545" lon="1.0424207713100495"><ele>162.0</ele><time>2026-05-01T09:17:29Z</time></trkpt><trkpt lat="44.63336522293574" lon="1.0424711616127047"><ele>162.0</ele><time>2026-05-01T09:17:30Z</time></trkpt><trkpt lat="44.63330293449793" lon="1.0425155500808485"><ele>161.4</ele><time>2026-05-01T09:17:32Z</time></trkpt><trkpt lat="44.63335042912029" lon="1.0427819041278192"><ele>160.79999999999998</ele><time>2026-05-01T09:17:39Z</time></trkpt><trkpt lat="44.63336460005556" lon="1.042868998932636"><ele>160.2</ele><time>2026-05-01T09:17:40Z</time></trkpt><trkpt lat="44.63338466063153" lon="1.0429611784736905"><ele>159.6</ele><time>2026-05-01T09:17:41Z</time></trkpt><trkpt lat="44.63340931016435" lon="1.0430534170780685"><ele>159.0</ele><time>2026-05-01T09:17:42Z</time></trkpt><trkpt lat="44.63343396003628" lon="1.0431368501277052"><ele>159.0</ele><time>2026-05-01T09:17:43Z</time></trkpt><trkpt lat="44.63345856731555" lon="1.0432186594119466"><ele>159.0</ele><time>2026-05-01T09:17:44Z</time></trkpt><trkpt lat="44.63350628940105" lon="1.0433719273261954"><ele>159.0</ele><time>2026-05-01T09:17:46Z</time></trkpt><trkpt lat="44.633554453200595" lon="1.0435248297781592"><ele>159.0</ele><time>2026-05-01T09:17:48Z</time></trkpt><trkpt lat="44.63360210262214" lon="1.0436643425620857"><ele>159.0</ele><time>2026-05-01T09:17:50Z</time></trkpt><trkpt lat="44.63364848529726" lon="1.0437938789466792"><ele>158.6</ele><time>2026-05-01T09:17:52Z</time></trkpt><trkpt lat="44.633665556714966" lon="1.0439616327970866"><ele>158.2</ele><time>2026-05-01T09:17:54Z</time></trkpt><trkpt lat="44.633665742913436" lon="1.0441349536127706"><ele>157.79999999999998</ele><time>2026-05-01T09:17:56Z</time></trkpt><trkpt lat="44.633654575375395" lon="1.0442264179736511"><ele>157.4</ele><time>2026-05-01T09:17:57Z</time></trkpt><trkpt lat="44.63363419748654" lon="1.0443273793401167"><ele>157.0</ele><time>2026-05-01T09:17:58Z</time></trkpt><trkpt lat="44.633608055563975" lon="1.0444141652615284"><ele>157.0</ele><time>2026-05-01T09:17:59Z</time></trkpt><trkpt lat="44.63357700715424" lon="1.0444920870998122"><ele>157.0</ele><time>2026-05-01T09:18:00Z</time></trkpt><trkpt lat="44.63352655592355" lon="1.0446359579057614"><ele>157.0</ele><time>2026-05-01T09:18:02Z</time></trkpt><trkpt lat="44.63345463373871" lon="1.0447633856452812"><ele>157.0</ele><time>2026-05-01T09:18:04Z</time></trkpt><trkpt lat="44.633410784688024" lon="1.0448396092401517"><ele>157.0</ele><time>2026-05-01T09:18:05Z</time></trkpt><trkpt lat="44.63335704605945" lon="1.04489986803622"><ele>157.0</ele><time>2026-05-01T09:18:06Z</time></trkpt><trkpt lat="44.633285924829686" lon="1.0449987088023946"><ele>158.16666666666669</ele><time>2026-05-01T09:18:08Z</time></trkpt><trkpt lat="44.633226729226294" lon="1.045067019253692"><ele>159.33333333333334</ele><time>2026-05-01T09:27:47Z</time></trkpt><trkpt lat="44.633171906657665" lon="1.0451240216559623"><ele>160.5</ele><time>2026-05-01T09:27:50Z</time></trkpt><trkpt lat="44.63309097477892" lon="1.0452115530755273"><ele>161.66666666666666</ele><time>2026-05-01T09:27:53Z</time></trkpt><trkpt lat="44.633016591792575" lon="1.0452733606879925"><ele>162.83333333333331</ele><time>2026-05-01T09:27:55Z</time></trkpt><trkpt lat="44.63293232463767" lon="1.0453261513806626"><ele>164.0</ele><time>2026-05-01T09:27:57Z</time></trkpt><trkpt lat="44.632840521443526" lon="1.0454011231632412"><ele>162.6</ele><time>2026-05-01T09:27:59Z</time></trkpt><trkpt lat="44.63274705316088" lon="1.0454686450360966"><ele>161.2</ele><time>2026-05-01T09:28:01Z</time></trkpt><trkpt lat="44.63265533972498" lon="1.0455268862636848"><ele>159.79999999999998</ele><time>2026-05-01T09:28:03Z</time></trkpt><trkpt lat="44.63255415215362" lon="1.0455927340348503"><ele>158.39999999999998</ele><time>2026-05-01T09:28:05Z</time></trkpt><trkpt lat="44.63244380259371" lon="1.0456437686290854"><ele>157.0</ele><time>2026-05-01T09:28:07Z</time></trkpt><trkpt lat="44.63234156379569" lon="1.0457005776602797"><ele>157.0</ele><time>2026-05-01T09:28:09Z</time></trkpt><trkpt lat="44.632238464649795" lon="1.045746400531205"><ele>157.0</ele><time>2026-05-01T09:28:11Z</time></trkpt><trkpt lat="44.63212870608287" lon="1.0457566450019902"><ele>157.0</ele><time>2026-05-01T09:28:13Z</time></trkpt><trkpt lat="44.63202330596324" lon="1.0457518605862692"><ele>157.0</ele><time>2026-05-01T09:28:15Z</time></trkpt><trkpt lat="44.63192708810015" lon="1.0457186910521354"><ele>157.0</ele><time>2026-05-01T09:28:17Z</time></trkpt><trkpt lat="44.63183195927131" lon="1.0456657659574138"><ele>157.0</ele><time>2026-05-01T09:28:19Z</time></trkpt><trkpt lat="44.63174781685833" lon="1.0456014363336812"><ele>157.0</ele><time>2026-05-01T09:28:21Z</time></trkpt><trkpt lat="44.631660436045685" lon="1.0455318037708787"><ele>157.0</ele><time>2026-05-01T09:28:23Z</time></trkpt><trkpt lat="44.63157410745586" lon="1.0454662624247562"><ele>157.0</ele><time>2026-05-01T09:28:25Z</time></trkpt><trkpt lat="44.63148255105793" lon="1.0454000917772652"><ele>157.0</ele><time>2026-05-01T09:28:27Z</time></trkpt><trkpt lat="44.631390544732895" lon="1.045368639479218"><ele>157.0</ele><time>2026-05-01T09:28:29Z</time></trkpt><trkpt lat="44.631301981747484" lon="1.0453362747967374"><ele>157.0</ele><time>2026-05-01T09:28:31Z</time></trkpt><trkpt lat="44.63122528705517" lon="1.0453319969310197"><ele>157.0</ele><time>2026-05-01T09:28:33Z</time></trkpt><trkpt lat="44.63127666236568" lon="1.0451796119381005"><ele>157.0</ele><time>2026-05-01T09:28:38Z</time></trkpt><trkpt lat="44.63132892197711" lon="1.0451096032521285"><ele>157.0</ele><time>2026-05-01T09:28:39Z</time></trkpt><trkpt lat="44.63138971676071" lon="1.0450280269071786"><ele>157.0</ele><time>2026-05-01T09:28:40Z</time></trkpt><trkpt lat="44.63146003283761" lon="1.044935400401076"><ele>157.5</ele><time>2026-05-01T09:28:41Z</time></trkpt><trkpt lat="44.63153408005755" lon="1.0448303211620493"><ele>158.0</ele><time>2026-05-01T09:28:42Z</time></trkpt><trkpt lat="44.631614645401754" lon="1.0447165041525242"><ele>158.5</ele><time>2026-05-01T09:28:43Z</time></trkpt><trkpt lat="44.63170438796602" lon="1.0445958522466074"><ele>159.0</ele><time>2026-05-01T09:28:44Z</time></trkpt><trkpt lat="44.63180048456191" lon="1.044470316384086"><ele>159.0</ele><time>2026-05-01T09:28:45Z</time></trkpt><trkpt lat="44.631890975195645" lon="1.044341495907275"><ele>159.0</ele><time>2026-05-01T09:28:45.999Z</time></trkpt><trkpt lat="44.63198181179587" lon="1.0442122945106123"><ele>159.0</ele><time>2026-05-01T09:28:46.999Z</time></trkpt><trkpt lat="44.63206914758284" lon="1.044081272376389"><ele>159.0</ele><time>2026-05-01T09:28:47.999Z</time></trkpt><trkpt lat="44.63216242363947" lon="1.0439568681927298"><ele>158.6</ele><time>2026-05-01T09:28:48.999Z</time></trkpt><trkpt lat="44.63224859109003" lon="1.0438473320672872"><ele>158.2</ele><time>2026-05-01T09:28:49.999Z</time></trkpt><trkpt lat="44.632326717168326" lon="1.0437340552596375"><ele>157.79999999999998</ele><time>2026-05-01T09:28:50.999Z</time></trkpt><trkpt lat="44.632402832219434" lon="1.0436315342987852"><ele>157.4</ele><time>2026-05-01T09:28:51.999Z</time></trkpt><trkpt lat="44.63246669686882" lon="1.0435416599811884"><ele>157.0</ele><time>2026-05-01T09:28:52.999Z</time></trkpt><trkpt lat="44.63251883907892" lon="1.0434671778211688"><ele>157.0</ele><time>2026-05-01T09:28:53.999Z</time></trkpt><trkpt lat="44.63231043096195" lon="1.0431373369943067"><ele>157.0</ele><time>2026-05-01T09:28:59.999Z</time></trkpt><trkpt lat="44.63225506005018" lon="1.043072215664145"><ele>157.0</ele><time>2026-05-01T09:29:01Z</time></trkpt><trkpt lat="44.632205663443415" lon="1.04300452550451"><ele>157.0</ele><time>2026-05-01T09:29:02Z</time></trkpt><trkpt lat="44.63215494329456" lon="1.04294515914399"><ele>157.0</ele><time>2026-05-01T09:29:03Z</time></trkpt><trkpt lat="44.63208904459425" lon="1.0428815669125633"><ele>157.0</ele><time>2026-05-01T09:29:04Z</time></trkpt><trkpt lat="44.63201966021821" lon="1.0428112948940647"><ele>157.0</ele><time>2026-05-01T09:29:05Z</time></trkpt><trkpt lat="44.631945769529096" lon="1.0427287181907272"><ele>157.0</ele><time>2026-05-01T09:29:06Z</time></trkpt><trkpt lat="44.63190868826198" lon="1.0426385827094755"><ele>157.0</ele><time>2026-05-01T09:29:07Z</time></trkpt><trkpt lat="44.631847891642025" lon="1.0425278901606232"><ele>159.8</ele><time>2026-05-01T09:29:08Z</time></trkpt><trkpt lat="44.63179851713737" lon="1.0423603278197293"><ele>162.6</ele><time>2026-05-01T09:29:09Z</time></trkpt><trkpt lat="44.63178503373162" lon="1.0422040937591563"><ele>165.4</ele><time>2026-05-01T09:29:10Z</time></trkpt><trkpt lat="44.63175473244346" lon="1.0420735415914462"><ele>168.20000000000002</ele><time>2026-05-01T09:29:11Z</time></trkpt><trkpt lat="44.63172315893187" lon="1.0419675508871067"><ele>171.0</ele><time>2026-05-01T09:29:12Z</time></trkpt><trkpt lat="44.63167724064489" lon="1.0418606282513994"><ele>171.0</ele><time>2026-05-01T09:29:13Z</time></trkpt><trkpt lat="44.631612861123386" lon="1.0417530442923888"><ele>171.0</ele><time>2026-05-01T09:29:14Z</time></trkpt><trkpt lat="44.631547640438384" lon="1.0417266480070864"><ele>171.0</ele><time>2026-05-01T09:29:15Z</time></trkpt><trkpt lat="44.63147834396242" lon="1.0416077528803909"><ele>171.0</ele><time>2026-05-01T09:29:16Z</time></trkpt><trkpt lat="44.63140008977562" lon="1.0415039958847347"><ele>171.0</ele><time>2026-05-01T09:29:17Z</time></trkpt><trkpt lat="44.63133732701723" lon="1.0413681293599506"><ele>173.33333333333334</ele><time>2026-05-01T09:29:18Z</time></trkpt><trkpt lat="44.63129530124268" lon="1.041294512734289"><ele>175.66666666666666</ele><time>2026-05-01T09:29:19Z</time></trkpt><trkpt lat="44.631396145678075" lon="1.0412631092629752"><ele>178.0</ele><time>2026-05-01T09:29:23Z</time></trkpt><trkpt lat="44.63147915109463" lon="1.0412863209194787"><ele>180.33333333333331</ele><time>2026-05-01T09:29:24Z</time></trkpt><trkpt lat="44.63154097968995" lon="1.0412573539000327"><ele>182.66666666666666</ele><time>2026-05-01T09:29:25Z</time></trkpt><trkpt lat="44.63160349788059" lon="1.0411898850619152"><ele>185.0</ele><time>2026-05-01T09:29:26Z</time></trkpt><trkpt lat="44.631670087259394" lon="1.041142044071043"><ele>185.0</ele><time>2026-05-01T09:29:27Z</time></trkpt><trkpt lat="44.63166288910224" lon="1.041024296686729"><ele>185.0</ele><time>2026-05-01T09:29:30Z</time></trkpt><trkpt lat="44.63154727933438" lon="1.0410186194418"><ele>185.0</ele><time>2026-05-01T09:29:32Z</time></trkpt><trkpt lat="44.63147373090082" lon="1.040910950527897"><ele>185.0</ele><time>2026-05-01T09:29:34Z</time></trkpt><trkpt lat="44.63143685992624" lon="1.0408305715275339"><ele>185.0</ele><time>2026-05-01T09:29:35Z</time></trkpt><trkpt lat="44.6314039534815" lon="1.0407264292889364"><ele>187.6</ele><time>2026-05-01T09:29:36Z</time></trkpt><trkpt lat="44.631375740038315" lon="1.0405689705545937"><ele>190.2</ele><time>2026-05-01T09:29:37Z</time></trkpt><trkpt lat="44.63134931726933" lon="1.0404466320781827"><ele>192.8</ele><time>2026-05-01T09:29:38Z</time></trkpt><trkpt lat="44.631377352709855" lon="1.0403554525423344"><ele>195.4</ele><time>2026-05-01T09:29:39Z</time></trkpt><trkpt lat="44.63142560415965" lon="1.0402699914517406"><ele>198.0</ele><time>2026-05-01T09:29:40Z</time></trkpt><trkpt lat="44.63146719873559" lon="1.0401265078301074"><ele>199.5</ele><time>2026-05-01T09:29:41Z</time></trkpt><trkpt lat="44.63149604043562" lon="1.0399457822723341"><ele>201.0</ele><time>2026-05-01T09:29:42Z</time></trkpt><trkpt lat="44.6314865068242" lon="1.0397613069475713"><ele>202.5</ele><time>2026-05-01T09:29:43Z</time></trkpt><trkpt lat="44.63150205962208" lon="1.0395935102744567"><ele>204.0</ele><time>2026-05-01T09:29:44Z</time></trkpt><trkpt lat="44.63157754529309" lon="1.0395489126930053"><ele>204.0</ele><time>2026-05-01T09:29:45Z</time></trkpt><trkpt lat="44.631619692126336" lon="1.0394518667451542"><ele>204.0</ele><time>2026-05-01T09:29:46Z</time></trkpt><trkpt lat="44.63163975012178" lon="1.0393197974320176"><ele>204.0</ele><time>2026-05-01T09:29:47Z</time></trkpt><trkpt lat="44.63165992103502" lon="1.0392053319644818"><ele>204.0</ele><time>2026-05-01T09:29:48Z</time></trkpt><trkpt lat="44.63169190094002" lon="1.0390854258040736"><ele>204.0</ele><time>2026-05-01T09:29:49Z</time></trkpt><trkpt lat="44.63173950630059" lon="1.0389655445715162"><ele>204.5</ele><time>2026-05-01T09:29:50Z</time></trkpt><trkpt lat="44.63179326762813" lon="1.0388480576666714"><ele>205.0</ele><time>2026-05-01T09:29:51Z</time></trkpt><trkpt lat="44.631838632374674" lon="1.0387215121416686"><ele>205.5</ele><time>2026-05-01T09:29:52Z</time></trkpt><trkpt lat="44.63187136242889" lon="1.0385912323527897"><ele>206.0</ele><time>2026-05-01T09:29:53Z</time></trkpt><trkpt lat="44.631880065451526" lon="1.0384813324199023"><ele>206.5</ele><time>2026-05-01T09:29:54Z</time></trkpt><trkpt lat="44.631892674332796" lon="1.0383854743954255"><ele>207.0</ele><time>2026-05-01T09:29:55Z</time></trkpt><trkpt lat="44.631971694122676" lon="1.0383340758783977"><ele>210.39999999999998</ele><time>2026-05-01T09:29:57Z</time></trkpt><trkpt lat="44.63208799954043" lon="1.0382827949815212"><ele>213.79999999999998</ele><time>2026-05-01T09:29:59Z</time></trkpt><trkpt lat="44.6321640175064" lon="1.038215783011701"><ele>217.2</ele><time>2026-05-01T09:30:00Z</time></trkpt><trkpt lat="44.63224391232028" lon="1.0381453708556374"><ele>220.6</ele><time>2026-05-01T09:30:01Z</time></trkpt><trkpt lat="44.6323348972552" lon="1.0380720751864458"><ele>224.0</ele><time>2026-05-01T09:30:02Z</time></trkpt><trkpt lat="44.63242548951031" lon="1.0380032014725697"><ele>224.0</ele><time>2026-05-01T09:30:03Z</time></trkpt><trkpt lat="44.632495939534394" lon="1.0379159746353432"><ele>223.99999999999997</ele><time>2026-05-01T09:30:04Z</time></trkpt><trkpt lat="44.632544209131034" lon="1.037810110773204"><ele>223.99999999999997</ele><time>2026-05-01T09:30:05Z</time></trkpt><trkpt lat="44.63257122127481" lon="1.0376861741988548"><ele>224.0</ele><time>2026-05-01T09:30:06Z</time></trkpt><trkpt lat="44.63259502820178" lon="1.0375633627236378"><ele>224.0</ele><time>2026-05-01T09:30:07Z</time></trkpt><trkpt lat="44.63259998691171" lon="1.0374452957168485"><ele>226.39999999999998</ele><time>2026-05-01T09:30:08Z</time></trkpt><trkpt lat="44.632596330220395" lon="1.0373204247255094"><ele>228.79999999999998</ele><time>2026-05-01T09:30:09Z</time></trkpt><trkpt lat="44.63260861695062" lon="1.0371665042872753"><ele>231.20000000000002</ele><time>2026-05-01T09:30:10Z</time></trkpt><trkpt lat="44.63260370366573" lon="1.0370425212642231"><ele>233.60000000000002</ele><time>2026-05-01T09:30:11Z</time></trkpt><trkpt lat="44.632600995989776" lon="1.0369109205838525"><ele>236.0</ele><time>2026-05-01T09:30:12Z</time></trkpt><trkpt lat="44.632610059512615" lon="1.0367678257888804"><ele>236.0</ele><time>2026-05-01T09:30:13Z</time></trkpt><trkpt lat="44.63261279060905" lon="1.0366497297027253"><ele>236.00000000000003</ele><time>2026-05-01T09:30:14Z</time></trkpt><trkpt lat="44.63261950539493" lon="1.0365124129044458"><ele>236.00000000000003</ele><time>2026-05-01T09:30:15Z</time></trkpt><trkpt lat="44.63260070551017" lon="1.0363405696037582"><ele>236.0</ele><time>2026-05-01T09:30:16Z</time></trkpt><trkpt lat="44.632587267664995" lon="1.0361956053574555"><ele>236.0</ele><time>2026-05-01T09:30:17Z</time></trkpt><trkpt lat="44.63259227654201" lon="1.036078435695866"><ele>236.66666666666669</ele><time>2026-05-01T09:30:18Z</time></trkpt><trkpt lat="44.632599036661844" lon="1.0359654208381697"><ele>237.33333333333334</ele><time>2026-05-01T09:30:19Z</time></trkpt><trkpt lat="44.63261492005501" lon="1.0358515665865118"><ele>238.0</ele><time>2026-05-01T09:30:20Z</time></trkpt><trkpt lat="44.63265737991297" lon="1.0357432407136977"><ele>238.66666666666669</ele><time>2026-05-01T09:30:21Z</time></trkpt><trkpt lat="44.63269096680884" lon="1.0356229899031686"><ele>239.33333333333334</ele><time>2026-05-01T09:30:22Z</time></trkpt><trkpt lat="44.63271087102866" lon="1.035498077588823"><ele>240.0</ele><time>2026-05-01T09:30:23Z</time></trkpt><trkpt lat="44.632732424344596" lon="1.035384892794412"><ele>240.2</ele><time>2026-05-01T09:30:24Z</time></trkpt><trkpt lat="44.632753615864026" lon="1.0352439679723284"><ele>240.4</ele><time>2026-05-01T09:30:25Z</time></trkpt><trkpt lat="44.63278757593494" lon="1.035086770312465"><ele>240.60000000000002</ele><time>2026-05-01T09:30:26Z</time></trkpt><trkpt lat="44.632824788154934" lon="1.034949427838159"><ele>240.8</ele><time>2026-05-01T09:30:27Z</time></trkpt><trkpt lat="44.63285731749687" lon="1.034799395066233"><ele>241.0</ele><time>2026-05-01T09:30:28Z</time></trkpt><trkpt lat="44.63289187951408" lon="1.0346943041173715"><ele>241.0</ele><time>2026-05-01T09:30:29Z</time></trkpt><trkpt lat="44.632930864404635" lon="1.0345880780121728"><ele>241.00000000000003</ele><time>2026-05-01T09:30:30Z</time></trkpt><trkpt lat="44.63296790867523" lon="1.034475298596779"><ele>241.00000000000003</ele><time>2026-05-01T09:30:31Z</time></trkpt><trkpt lat="44.633056832557656" lon="1.034350359814305"><ele>241.0</ele><time>2026-05-01T09:30:33Z</time></trkpt><trkpt lat="44.633125854473775" lon="1.0342373283282666"><ele>241.0</ele><time>2026-05-01T09:30:34Z</time></trkpt><trkpt lat="44.63319112874246" lon="1.0340955343101936"><ele>241.20000000000002</ele><time>2026-05-01T09:30:35Z</time></trkpt><trkpt lat="44.633219694694674" lon="1.0339952544093312"><ele>241.40000000000003</ele><time>2026-05-01T09:30:36Z</time></trkpt><trkpt lat="44.633271885420214" lon="1.0338779669552918"><ele>241.6</ele><time>2026-05-01T09:30:37Z</time></trkpt><trkpt lat="44.63335181178583" lon="1.0337384071581437"><ele>241.8</ele><time>2026-05-01T09:30:38Z</time></trkpt><trkpt lat="44.63344585941384" lon="1.0335827871582768"><ele>242.0</ele><time>2026-05-01T09:30:39Z</time></trkpt><trkpt lat="44.633485354555226" lon="1.033495634641751"><ele>242.0</ele><time>2026-05-01T09:30:40Z</time></trkpt><trkpt lat="44.6335426775244" lon="1.0333720103510013"><ele>242.0</ele><time>2026-05-01T09:30:42Z</time></trkpt><trkpt lat="44.63365738598796" lon="1.033276188818752"><ele>242.0</ele><time>2026-05-01T09:30:44Z</time></trkpt><trkpt lat="44.6337461262459" lon="1.0332132312951416"><ele>242.0</ele><time>2026-05-01T09:30:45Z</time></trkpt><trkpt lat="44.63381446693291" lon="1.03315681084737"><ele>242.0</ele><time>2026-05-01T09:30:46Z</time></trkpt><trkpt lat="44.6338777998323" lon="1.033076433922756"><ele>241.8</ele><time>2026-05-01T09:30:48Z</time></trkpt><trkpt lat="44.63378578117799" lon="1.0330027823411336"><ele>241.6</ele><time>2026-05-01T09:30:52.998Z</time></trkpt><trkpt lat="44.63371759457978" lon="1.0329636494767807"><ele>241.40000000000003</ele><time>2026-05-01T09:30:53.998Z</time></trkpt><trkpt lat="44.633635063089045" lon="1.0329154269353216"><ele>241.20000000000002</ele><time>2026-05-01T09:30:54.998Z</time></trkpt><trkpt lat="44.63356420565227" lon="1.0328642602135836"><ele>241.0</ele><time>2026-05-01T09:30:55.998Z</time></trkpt><trkpt lat="44.63347146468776" lon="1.0327605716198898"><ele>240.20000000000002</ele><time>2026-05-01T09:30:57.998Z</time></trkpt><trkpt lat="44.63333485648809" lon="1.0327761508415723"><ele>239.40000000000003</ele><time>2026-05-01T09:30:59.998Z</time></trkpt><trkpt lat="44.63324163371667" lon="1.0328254382191733"><ele>238.6</ele><time>2026-05-01T09:31:00.998Z</time></trkpt><trkpt lat="44.6331455635417" lon="1.0328668127364318"><ele>237.8</ele><time>2026-05-01T09:31:01.998Z</time></trkpt><trkpt lat="44.63306318450679" lon="1.0328777706501961"><ele>237.0</ele><time>2026-05-01T09:31:02.998Z</time></trkpt><trkpt lat="44.63298993083216" lon="1.032857041556358"><ele>237.0</ele><time>2026-05-01T09:31:03.998Z</time></trkpt><trkpt lat="44.632907985122976" lon="1.0328190974101341"><ele>237.0</ele><time>2026-05-01T09:31:04.999Z</time></trkpt><trkpt lat="44.63281509192643" lon="1.0328180996491403"><ele>237.0</ele><time>2026-05-01T09:31:05.999Z</time></trkpt><trkpt lat="44.632717836154654" lon="1.0328106929221543"><ele>237.0</ele><time>2026-05-01T09:31:06.999Z</time></trkpt><trkpt lat="44.63262974224887" lon="1.0328011118019627"><ele>237.0</ele><time>2026-05-01T09:31:07.999Z</time></trkpt><trkpt lat="44.63249789282353" lon="1.0328118577761654"><ele>237.2</ele><time>2026-05-01T09:31:08.999Z</time></trkpt><trkpt lat="44.63240809546611" lon="1.0328263318448925"><ele>237.39999999999998</ele><time>2026-05-01T09:31:09.999Z</time></trkpt><trkpt lat="44.63231632001823" lon="1.0328266732544742"><ele>237.60000000000002</ele><time>2026-05-01T09:31:10.999Z</time></trkpt><trkpt lat="44.63221827329527" lon="1.032823674862601"><ele>237.8</ele><time>2026-05-01T09:31:11.999Z</time></trkpt><trkpt lat="44.63210116567004" lon="1.0327777428957592"><ele>238.0</ele><time>2026-05-01T09:31:12.999Z</time></trkpt><trkpt lat="44.63200519255367" lon="1.0327644929501822"><ele>238.60000000000002</ele><time>2026-05-01T09:31:13.999Z</time></trkpt><trkpt lat="44.63188954397008" lon="1.0327295046841702"><ele>239.20000000000002</ele><time>2026-05-01T09:31:14.999Z</time></trkpt><trkpt lat="44.631783656166675" lon="1.0327042598269083"><ele>239.8</ele><time>2026-05-01T09:31:15.999Z</time></trkpt><trkpt lat="44.6317075837354" lon="1.032633582914262"><ele>240.4</ele><time>2026-05-01T09:31:16.999Z</time></trkpt><trkpt lat="44.63162986011812" lon="1.0326055744081544"><ele>241.0</ele><time>2026-05-01T09:31:17.999Z</time></trkpt><trkpt lat="44.63155965202954" lon="1.0324877968876482"><ele>241.8</ele><time>2026-05-01T09:31:19.999Z</time></trkpt><trkpt lat="44.631557494735326" lon="1.0323816511548563"><ele>242.60000000000002</ele><time>2026-05-01T09:31:20.999Z</time></trkpt><trkpt lat="44.6314868598572" lon="1.032236395923498"><ele>243.4</ele><time>2026-05-01T09:31:22.999Z</time></trkpt><trkpt lat="44.631455927192704" lon="1.032131448352179"><ele>244.2</ele><time>2026-05-01T09:31:23.999Z</time></trkpt><trkpt lat="44.6313733133596" lon="1.031992299093552"><ele>245.0</ele><time>2026-05-01T09:31:25.999Z</time></trkpt><trkpt lat="44.631362478047926" lon="1.031808066069922"><ele>245.00000000000003</ele><time>2026-05-01T09:31:26.999Z</time></trkpt><trkpt lat="44.631340844604935" lon="1.031667977785022"><ele>245.0</ele><time>2026-05-01T09:31:27.999Z</time></trkpt><trkpt lat="44.631293714240854" lon="1.0315819526352294"><ele>245.0</ele><time>2026-05-01T09:31:28.999Z</time></trkpt><trkpt lat="44.63126132372171" lon="1.0314733550899462"><ele>245.0</ele><time>2026-05-01T09:31:29.999Z</time></trkpt><trkpt lat="44.63124424117938" lon="1.0313842164872713"><ele>245.00000000000003</ele><time>2026-05-01T09:31:30.999Z</time></trkpt><trkpt lat="44.63118183591901" lon="1.0313144914089223"><ele>245.0</ele><time>2026-05-01T09:31:31.999Z</time></trkpt><trkpt lat="44.63117044743025" lon="1.0311814885380957"><ele>245.66666666666669</ele><time>2026-05-01T09:31:32.999Z</time></trkpt><trkpt lat="44.63113937081295" lon="1.0310821325567152"><ele>246.33333333333334</ele><time>2026-05-01T09:31:33.999Z</time></trkpt><trkpt lat="44.63111129311259" lon="1.0309767997449653"><ele>247.0</ele><time>2026-05-01T09:31:34.999Z</time></trkpt><trkpt lat="44.63108452865823" lon="1.0308805380938268"><ele>247.66666666666669</ele><time>2026-05-01T09:31:35.999Z</time></trkpt><trkpt lat="44.63106668255381" lon="1.030793165838443"><ele>248.33333333333334</ele><time>2026-05-01T09:31:36.999Z</time></trkpt><trkpt lat="44.63106529764404" lon="1.030691231920005"><ele>249.0</ele><time>2026-05-01T09:31:37.999Z</time></trkpt><trkpt lat="44.63105493272075" lon="1.0305647497479973"><ele>249.0</ele><time>2026-05-01T09:31:38.999Z</time></trkpt><trkpt lat="44.63104082161994" lon="1.0304213815313177"><ele>248.99999999999997</ele><time>2026-05-01T09:31:39.999Z</time></trkpt><trkpt lat="44.63102766760102" lon="1.03032540260045"><ele>248.99999999999997</ele><time>2026-05-01T09:31:40.999Z</time></trkpt><trkpt lat="44.631005295935395" lon="1.0301856328821533"><ele>249.0</ele><time>2026-05-01T09:31:42.999Z</time></trkpt><trkpt lat="44.6309863766905" lon="1.0300626307366822"><ele>249.0</ele><time>2026-05-01T09:31:44.999Z</time></trkpt><trkpt lat="44.63093870015312" lon="1.029910220255839"><ele>248.66666666666666</ele><time>2026-05-01T09:31:46.999Z</time></trkpt><trkpt lat="44.630930870480796" lon="1.02981582631973"><ele>248.33333333333331</ele><time>2026-05-01T09:31:47.999Z</time></trkpt><trkpt lat="44.63091010225929" lon="1.0297140730993362"><ele>248.0</ele><time>2026-05-01T09:31:48.999Z</time></trkpt><trkpt lat="44.630888591904004" lon="1.0296279061784055"><ele>247.66666666666666</ele><time>2026-05-01T09:31:49.999Z</time></trkpt><trkpt lat="44.63086864676423" lon="1.029531717199886"><ele>247.33333333333331</ele><time>2026-05-01T09:31:50.999Z</time></trkpt><trkpt lat="44.630837563195115" lon="1.0293837330788846"><ele>247.0</ele><time>2026-05-01T09:31:51.999Z</time></trkpt><trkpt lat="44.63081281957927" lon="1.0292235287160933"><ele>248.8</ele><time>2026-05-01T09:31:52.999Z</time></trkpt><trkpt lat="44.630782219279936" lon="1.0290738389245346"><ele>250.6</ele><time>2026-05-01T09:31:53.999Z</time></trkpt><trkpt lat="44.63071980062935" lon="1.0289246514693398"><ele>252.40000000000003</ele><time>2026-05-01T09:31:55.999Z</time></trkpt><trkpt lat="44.630664773407055" lon="1.0288284290471759"><ele>254.20000000000002</ele><time>2026-05-01T09:31:56.999Z</time></trkpt><trkpt lat="44.630599668481835" lon="1.028692272007518"><ele>256.0</ele><time>2026-05-01T09:31:57.999Z</time></trkpt><trkpt lat="44.63053925587083" lon="1.0285686958443356"><ele>256.0</ele><time>2026-05-01T09:31:58.999Z</time></trkpt><trkpt lat="44.630477358886615" lon="1.028483907637713"><ele>256.0</ele><time>2026-05-01T09:31:59.999Z</time></trkpt><trkpt lat="44.63039178856099" lon="1.0284418738787588"><ele>256.0</ele><time>2026-05-01T09:32:00.999Z</time></trkpt><trkpt lat="44.630289494065295" lon="1.0283981418193904"><ele>256.0</ele><time>2026-05-01T09:32:01.999Z</time></trkpt><trkpt lat="44.6301913650461" lon="1.0283365120119339"><ele>256.0</ele><time>2026-05-01T09:32:02.999Z</time></trkpt><trkpt lat="44.630096509970514" lon="1.0282687726380868"><ele>256.25</ele><time>2026-05-01T09:32:03.999Z</time></trkpt><trkpt lat="44.62997824486957" lon="1.0281934643260364"><ele>256.5</ele><time>2026-05-01T09:32:04.999Z</time></trkpt><trkpt lat="44.62986012389982" lon="1.0281419902508813"><ele>256.75</ele><time>2026-05-01T09:32:05.999Z</time></trkpt><trkpt lat="44.62975243623843" lon="1.0280854825838366"><ele>257.0</ele><time>2026-05-01T09:32:06.999Z</time></trkpt><trkpt lat="44.629671854857484" lon="1.0280697003397339"><ele>257.0</ele><time>2026-05-01T09:32:07.999Z</time></trkpt><trkpt lat="44.62959264702616" lon="1.0279931834001497"><ele>257.0</ele><time>2026-05-01T09:32:08.999Z</time></trkpt><trkpt lat="44.62953121839504" lon="1.0279426905441695"><ele>257.0</ele><time>2026-05-01T09:32:09.999Z</time></trkpt><trkpt lat="44.62947591832986" lon="1.0278629912429575"><ele>257.0</ele><time>2026-05-01T09:32:10.999Z</time></trkpt><trkpt lat="44.629418043298294" lon="1.0278175633580575"><ele>257.0</ele><time>2026-05-01T09:32:11.999Z</time></trkpt><trkpt lat="44.62934286978517" lon="1.0277896444312002"><ele>257.0</ele><time>2026-05-01T09:32:13.999Z</time></trkpt><trkpt lat="44.6292576226383" lon="1.0279066314822651"><ele>255.83333333333334</ele><time>2026-05-01T09:32:15.999Z</time></trkpt><trkpt lat="44.629216173513555" lon="1.0279855118074122"><ele>254.66666666666669</ele><time>2026-05-01T09:32:16.999Z</time></trkpt><trkpt lat="44.629160259074055" lon="1.0280668730116915"><ele>253.5</ele><time>2026-05-01T09:32:17.999Z</time></trkpt><trkpt lat="44.629094061349896" lon="1.0281593083265528"><ele>252.33333333333331</ele><time>2026-05-01T09:32:18.999Z</time></trkpt><trkpt lat="44.62902203617015" lon="1.0282408153539953"><ele>251.16666666666666</ele><time>2026-05-01T09:32:19.999Z</time></trkpt><trkpt lat="44.62893451268296" lon="1.0283227174123037"><ele>250.0</ele><time>2026-05-01T09:32:20.999Z</time></trkpt><trkpt lat="44.62884615448073" lon="1.0284142314722042"><ele>250.0</ele><time>2026-05-01T09:32:21.999Z</time></trkpt><trkpt lat="44.62875378442449" lon="1.0285038047828503"><ele>250.0</ele><time>2026-05-01T09:32:22.999Z</time></trkpt><trkpt lat="44.62865555606994" lon="1.028592765283822"><ele>250.0</ele><time>2026-05-01T09:32:23.999Z</time></trkpt><trkpt lat="44.6285512612251" lon="1.0286886158555095"><ele>250.0</ele><time>2026-05-01T09:32:24.999Z</time></trkpt><trkpt lat="44.628449232399234" lon="1.0287804564412566"><ele>248.5</ele><time>2026-05-01T09:32:25.999Z</time></trkpt><trkpt lat="44.628341883704856" lon="1.028881063326244"><ele>247.0</ele><time>2026-05-01T09:32:26.999Z</time></trkpt><trkpt lat="44.62822964971383" lon="1.0289764930043714"><ele>245.5</ele><time>2026-05-01T09:32:27.999Z</time></trkpt><trkpt lat="44.628115610668544" lon="1.0290693327558886"><ele>244.0</ele><time>2026-05-01T09:32:28.999Z</time></trkpt><trkpt lat="44.62799587818117" lon="1.0291505657997455"><ele>243.75</ele><time>2026-05-01T09:32:29.999Z</time></trkpt><trkpt lat="44.627893719005094" lon="1.0292274466277318"><ele>243.5</ele><time>2026-05-01T09:32:30.999Z</time></trkpt><trkpt lat="44.62779273800115" lon="1.0293145437447784"><ele>243.25</ele><time>2026-05-01T09:32:31.999Z</time></trkpt><trkpt lat="44.627681166855695" lon="1.0294059533036373"><ele>243.0</ele><time>2026-05-01T09:32:32.999Z</time></trkpt><trkpt lat="44.62757732034899" lon="1.0294868380208855"><ele>242.0</ele><time>2026-05-01T09:32:33.999Z</time></trkpt><trkpt lat="44.62748658430406" lon="1.0295557314304804"><ele>241.0</ele><time>2026-05-01T09:32:34.999Z</time></trkpt><trkpt lat="44.62740446874689" lon="1.0296215290969122"><ele>240.0</ele><time>2026-05-01T09:32:35.999Z</time></trkpt><trkpt lat="44.62733361830327" lon="1.0296816986600283"><ele>239.0</ele><time>2026-05-01T09:32:36.999Z</time></trkpt><trkpt lat="44.62727141006444" lon="1.0297387364796313"><ele>238.0</ele><time>2026-05-01T09:32:37.999Z</time></trkpt><trkpt lat="44.62721195257228" lon="1.0297756768577642"><ele>237.0</ele><time>2026-05-01T09:32:38.999Z</time></trkpt><trkpt lat="44.62717253974655" lon="1.0298448983268933"><ele>237.0</ele><time>2026-05-01T09:32:41.999Z</time></trkpt><trkpt lat="44.6271908578105" lon="1.029752759337675"><ele>237.0</ele><time>2026-05-01T09:32:50Z</time></trkpt><trkpt lat="44.627135812926916" lon="1.0296186441407453"><ele>237.0</ele><time>2026-05-01T09:32:51Z</time></trkpt><trkpt lat="44.627120563356755" lon="1.029459937538917"><ele>237.0</ele><time>2026-05-01T09:32:53Z</time></trkpt><trkpt lat="44.627123348400325" lon="1.0292834132182893"><ele>237.0</ele><time>2026-05-01T09:32:55Z</time></trkpt><trkpt lat="44.62712681251812" lon="1.0290891826674051"><ele>236.6</ele><time>2026-05-01T09:32:56.999Z</time></trkpt><trkpt lat="44.62711062107601" lon="1.0289384015413257"><ele>236.2</ele><time>2026-05-01T09:32:57.999Z</time></trkpt><trkpt lat="44.62711401417418" lon="1.0288362729164677"><ele>235.8</ele><time>2026-05-01T09:32:58.999Z</time></trkpt><trkpt lat="44.62708209231679" lon="1.028680180721265"><ele>235.4</ele><time>2026-05-01T09:33:00.999Z</time></trkpt><trkpt lat="44.627056499621936" lon="1.0285699057879663"><ele>235.0</ele><time>2026-05-01T09:33:03.999Z</time></trkpt><trkpt lat="44.627039836049214" lon="1.028419461269077"><ele>234.4</ele><time>2026-05-01T09:33:05.999Z</time></trkpt><trkpt lat="44.62703933218562" lon="1.0282699443092886"><ele>233.8</ele><time>2026-05-01T09:33:07.999Z</time></trkpt><trkpt lat="44.62706002739094" lon="1.0281669013763062"><ele>233.2</ele><time>2026-05-01T09:33:08.999Z</time></trkpt><trkpt lat="44.627007613425" lon="1.0280003105848037"><ele>232.6</ele><time>2026-05-01T09:33:10.999Z</time></trkpt><trkpt lat="44.626993559269884" lon="1.0278539517509566"><ele>232.0</ele><time>2026-05-01T09:33:11.999Z</time></trkpt><trkpt lat="44.62699137582391" lon="1.0277432324187152"><ele>232.0</ele><time>2026-05-01T09:33:12.999Z</time></trkpt><trkpt lat="44.62698430517388" lon="1.0276332432377981"><ele>232.0</ele><time>2026-05-01T09:33:13.999Z</time></trkpt><trkpt lat="44.626970414756435" lon="1.0275284768861792"><ele>232.0</ele><time>2026-05-01T09:33:14.999Z</time></trkpt><trkpt lat="44.62693297898254" lon="1.0272826182611678"><ele>232.0</ele><time>2026-05-01T09:33:17.999Z</time></trkpt><trkpt lat="44.62686719136419" lon="1.0271332212700697"><ele>229.6</ele><time>2026-05-01T09:33:19.999Z</time></trkpt><trkpt lat="44.62680284963674" lon="1.0271446802251192"><ele>227.2</ele><time>2026-05-01T09:33:21.999Z</time></trkpt><trkpt lat="44.626765405614215" lon="1.0270354486148052"><ele>224.8</ele><time>2026-05-01T09:33:23.999Z</time></trkpt><trkpt lat="44.62678488322528" lon="1.0268605380787996"><ele>222.4</ele><time>2026-05-01T09:33:25.999Z</time></trkpt><trkpt lat="44.62676438290658" lon="1.026664903213014"><ele>220.0</ele><time>2026-05-01T09:33:27.999Z</time></trkpt><trkpt lat="44.62674605895999" lon="1.0265508802361754"><ele>217.99999999999997</ele><time>2026-05-01T09:33:29Z</time></trkpt><trkpt lat="44.62673317390018" lon="1.026460712701511"><ele>216.0</ele><time>2026-05-01T09:33:30Z</time></trkpt><trkpt lat="44.62668171962933" lon="1.0262695389545846"><ele>214.0</ele><time>2026-05-01T09:33:32Z</time></trkpt><trkpt lat="44.626641764302214" lon="1.0261973213512834"><ele>212.0</ele><time>2026-05-01T09:33:33Z</time></trkpt><trkpt lat="44.62659001735657" lon="1.0261365979523551"><ele>209.99999999999997</ele><time>2026-05-01T09:33:34Z</time></trkpt><trkpt lat="44.62654255475555" lon="1.0260704080406784"><ele>208.0</ele><time>2026-05-01T09:33:35Z</time></trkpt><trkpt lat="44.626532753750226" lon="1.02596320905519"><ele>208.0</ele><time>2026-05-01T09:33:36Z</time></trkpt><trkpt lat="44.62646842962458" lon="1.025848516721711"><ele>208.0</ele><time>2026-05-01T09:33:38Z</time></trkpt><trkpt lat="44.626343825365396" lon="1.025768842214737"><ele>208.0</ele><time>2026-05-01T09:33:40Z</time></trkpt><trkpt lat="44.626285473829086" lon="1.0257271683755278"><ele>208.0</ele><time>2026-05-01T09:33:41Z</time></trkpt><trkpt lat="44.62622265815458" lon="1.0256563936996916"><ele>208.0</ele><time>2026-05-01T09:33:42Z</time></trkpt><trkpt lat="44.62617012654605" lon="1.025563437655159"><ele>207.0</ele><time>2026-05-01T09:33:44Z</time></trkpt><trkpt lat="44.626140743720796" lon="1.0254244013885792"><ele>206.0</ele><time>2026-05-01T09:33:46Z</time></trkpt><trkpt lat="44.626075774808655" lon="1.0253544588481194"><ele>205.0</ele><time>2026-05-01T09:33:47Z</time></trkpt><trkpt lat="44.62600967698146" lon="1.025335634572571"><ele>204.0</ele><time>2026-05-01T09:33:48Z</time></trkpt><trkpt lat="44.6259163718561" lon="1.0253433823103926"><ele>203.0</ele><time>2026-05-01T09:33:49Z</time></trkpt><trkpt lat="44.6257893067906" lon="1.0254081889794144"><ele>203.0</ele><time>2026-05-01T09:33:50Z</time></trkpt><trkpt lat="44.625719177236384" lon="1.025421619848728"><ele>203.0</ele><time>2026-05-01T09:33:51Z</time></trkpt><trkpt lat="44.62563729970547" lon="1.0255401818634686"><ele>203.0</ele><time>2026-05-01T09:33:53Z</time></trkpt><trkpt lat="44.62554755093456" lon="1.0256079794692738"><ele>203.0</ele><time>2026-05-01T09:33:54Z</time></trkpt><trkpt lat="44.625431630754434" lon="1.0256489921911156"><ele>203.0</ele><time>2026-05-01T09:33:55Z</time></trkpt><trkpt lat="44.62529222766965" lon="1.0257003360448567"><ele>203.25</ele><time>2026-05-01T09:33:56Z</time></trkpt><trkpt lat="44.62517873684303" lon="1.0257785027680626"><ele>203.5</ele><time>2026-05-01T09:33:57Z</time></trkpt><trkpt lat="44.62505473049117" lon="1.0258783960040019"><ele>203.75</ele><time>2026-05-01T09:33:58Z</time></trkpt><trkpt lat="44.624902923855714" lon="1.0259333121626335"><ele>204.0</ele><time>2026-05-01T09:33:59Z</time></trkpt><trkpt lat="44.62476543217634" lon="1.0260031415757787"><ele>203.39999999999998</ele><time>2026-05-01T09:34:00Z</time></trkpt><trkpt lat="44.62465821842213" lon="1.026055001683452"><ele>202.8</ele><time>2026-05-01T09:34:01Z</time></trkpt><trkpt lat="44.624562158502556" lon="1.0260739426396954"><ele>202.2</ele><time>2026-05-01T09:34:02Z</time></trkpt><trkpt lat="44.624472912511365" lon="1.0261249465260769"><ele>201.60000000000002</ele><time>2026-05-01T09:34:03Z</time></trkpt><trkpt lat="44.6243517411598" lon="1.0261672717470325"><ele>201.0</ele><time>2026-05-01T09:34:04Z</time></trkpt><trkpt lat="44.62424935677473" lon="1.026206034939164"><ele>200.20000000000002</ele><time>2026-05-01T09:34:05Z</time></trkpt><trkpt lat="44.624141061133805" lon="1.026233582011408"><ele>199.4</ele><time>2026-05-01T09:34:06Z</time></trkpt><trkpt lat="44.62404051609423" lon="1.0262951341849147"><ele>198.6</ele><time>2026-05-01T09:34:07Z</time></trkpt><trkpt lat="44.62396596603471" lon="1.0263416005578117"><ele>197.8</ele><time>2026-05-01T09:34:08Z</time></trkpt><trkpt lat="44.62388535333745" lon="1.0263688076114865"><ele>197.0</ele><time>2026-05-01T09:34:09Z</time></trkpt><trkpt lat="44.62380433826111" lon="1.0264286308252986"><ele>197.0</ele><time>2026-05-01T09:34:10Z</time></trkpt><trkpt lat="44.623682597537474" lon="1.026473381156621"><ele>197.0</ele><time>2026-05-01T09:34:12Z</time></trkpt><trkpt lat="44.62356316580548" lon="1.0264893884707322"><ele>197.0</ele><time>2026-05-01T09:34:13Z</time></trkpt><trkpt lat="44.623447873303434" lon="1.0264585908158597"><ele>197.0</ele><time>2026-05-01T09:34:14Z</time></trkpt><trkpt lat="44.62331834954177" lon="1.0264358026544163"><ele>196.39999999999998</ele><time>2026-05-01T09:34:15Z</time></trkpt><trkpt lat="44.62320092680683" lon="1.026377282695608"><ele>195.79999999999998</ele><time>2026-05-01T09:34:16Z</time></trkpt><trkpt lat="44.623099094179075" lon="1.0263545130086196"><ele>195.2</ele><time>2026-05-01T09:34:17Z</time></trkpt><trkpt lat="44.6229982800089" lon="1.0263457920698325"><ele>194.6</ele><time>2026-05-01T09:34:18Z</time></trkpt><trkpt lat="44.62289641659071" lon="1.0263559047828372"><ele>194.0</ele><time>2026-05-01T09:34:19Z</time></trkpt><trkpt lat="44.62279112799493" lon="1.0263311962993633"><ele>194.0</ele><time>2026-05-01T09:34:20Z</time></trkpt><trkpt lat="44.62266739273505" lon="1.0262710352254794"><ele>194.0</ele><time>2026-05-01T09:34:21Z</time></trkpt><trkpt lat="44.622540421189626" lon="1.0262017706352238"><ele>194.0</ele><time>2026-05-01T09:34:22Z</time></trkpt><trkpt lat="44.62242168215524" lon="1.0261630553129266"><ele>194.0</ele><time>2026-05-01T09:34:23Z</time></trkpt><trkpt lat="44.62232469570595" lon="1.026108595775244"><ele>194.0</ele><time>2026-05-01T09:34:24Z</time></trkpt><trkpt lat="44.62224997983673" lon="1.0260791748371363"><ele>194.0</ele><time>2026-05-01T09:34:25Z</time></trkpt><trkpt lat="44.622177455133695" lon="1.0260941516874653"><ele>194.0</ele><time>2026-05-01T09:34:26Z</time></trkpt><trkpt lat="44.62207520013548" lon="1.0261346897900228"><ele>194.0</ele><time>2026-05-01T09:34:27Z</time></trkpt><trkpt lat="44.621963676738645" lon="1.026206675165417"><ele>194.0</ele><time>2026-05-01T09:34:28Z</time></trkpt><trkpt lat="44.621823705959244" lon="1.026322588683541"><ele>195.75</ele><time>2026-05-01T09:34:29Z</time></trkpt><trkpt lat="44.62168848684736" lon="1.0264198149170967"><ele>197.5</ele><time>2026-05-01T09:34:30Z</time></trkpt><trkpt lat="44.621563654924564" lon="1.0264592969385067"><ele>199.25</ele><time>2026-05-01T09:34:31Z</time></trkpt><trkpt lat="44.62142703383731" lon="1.026486608359235"><ele>201.0</ele><time>2026-05-01T09:34:32Z</time></trkpt><trkpt lat="44.621304423125316" lon="1.0264752090499405"><ele>201.0</ele><time>2026-05-01T09:34:33Z</time></trkpt><trkpt lat="44.621158728877525" lon="1.026464363454116"><ele>201.0</ele><time>2026-05-01T09:34:34Z</time></trkpt><trkpt lat="44.62099851913635" lon="1.0264745907583894"><ele>201.0</ele><time>2026-05-01T09:34:35Z</time></trkpt><trkpt lat="44.62082496621567" lon="1.0264834714986502"><ele>200.33333333333331</ele><time>2026-05-01T09:34:36Z</time></trkpt><trkpt lat="44.62063424184445" lon="1.0265193069706187"><ele>199.66666666666666</ele><time>2026-05-01T09:34:37Z</time></trkpt><trkpt lat="44.620466069001125" lon="1.026503454645239"><ele>199.0</ele><time>2026-05-01T09:34:38Z</time></trkpt><trkpt lat="44.620308839870425" lon="1.0265137717533952"><ele>198.6</ele><time>2026-05-01T09:34:39Z</time></trkpt><trkpt lat="44.62017342098344" lon="1.0265021616841208"><ele>198.2</ele><time>2026-05-01T09:34:40Z</time></trkpt><trkpt lat="44.62004951122354" lon="1.0264945887424732"><ele>197.79999999999998</ele><time>2026-05-01T09:34:41Z</time></trkpt><trkpt lat="44.61996965528761" lon="1.0264741850278019"><ele>197.39999999999998</ele><time>2026-05-01T09:34:42Z</time></trkpt><trkpt lat="44.61989685243045" lon="1.0264519373637278"><ele>197.0</ele><time>2026-05-01T09:34:43Z</time></trkpt><trkpt lat="44.619861484255836" lon="1.0262936878122593"><ele>197.0</ele><time>2026-05-01T09:34:45Z</time></trkpt><trkpt lat="44.61984631914268" lon="1.0261996498798034"><ele>197.0</ele><time>2026-05-01T09:34:46Z</time></trkpt><trkpt lat="44.61975243234891" lon="1.0260912768103332"><ele>197.0</ele><time>2026-05-01T09:34:48Z</time></trkpt><trkpt lat="44.61967032703511" lon="1.0260992769939354"><ele>197.0</ele><time>2026-05-01T09:34:49Z</time></trkpt><trkpt lat="44.6195801061808" lon="1.026132276473403"><ele>197.0</ele><time>2026-05-01T09:34:50Z</time></trkpt><trkpt lat="44.6194926918374" lon="1.026218872552868"><ele>196.8</ele><time>2026-05-01T09:34:51Z</time></trkpt><trkpt lat="44.619400394741604" lon="1.0262282160926353"><ele>196.6</ele><time>2026-05-01T09:34:52Z</time></trkpt><trkpt lat="44.61929041511501" lon="1.0262510363841357"><ele>196.4</ele><time>2026-05-01T09:34:53Z</time></trkpt><trkpt lat="44.619187396241145" lon="1.0262998717207688"><ele>196.20000000000002</ele><time>2026-05-01T09:34:54Z</time></trkpt><trkpt lat="44.61909768222979" lon="1.0263890275006895"><ele>196.0</ele><time>2026-05-01T09:34:55Z</time></trkpt><trkpt lat="44.61902697003018" lon="1.0265226357548358"><ele>194.75</ele><time>2026-05-01T09:34:56Z</time></trkpt><trkpt lat="44.618974884099586" lon="1.0266638181641563"><ele>193.5</ele><time>2026-05-01T09:34:57Z</time></trkpt><trkpt lat="44.618919805495345" lon="1.0268459227911075"><ele>192.25</ele><time>2026-05-01T09:34:58Z</time></trkpt><trkpt lat="44.618871824347444" lon="1.027016162833892"><ele>191.0</ele><time>2026-05-01T09:34:59Z</time></trkpt><trkpt lat="44.61882260129999" lon="1.0271640226332044"><ele>191.0</ele><time>2026-05-01T09:35:00Z</time></trkpt><trkpt lat="44.61875565431827" lon="1.0272663361776082"><ele>191.0</ele><time>2026-05-01T09:35:01Z</time></trkpt><trkpt lat="44.61867530796125" lon="1.027357885263353"><ele>191.0</ele><time>2026-05-01T09:35:02Z</time></trkpt><trkpt lat="44.61857639363063" lon="1.0274469256702576"><ele>191.0</ele><time>2026-05-01T09:35:03Z</time></trkpt><trkpt lat="44.618484679414976" lon="1.0275458271579447"><ele>191.0</ele><time>2026-05-01T09:35:04Z</time></trkpt><trkpt lat="44.618389678754156" lon="1.0276557272139542"><ele>192.5</ele><time>2026-05-01T09:35:05Z</time></trkpt><trkpt lat="44.6182904326118" lon="1.027770391528157"><ele>194.0</ele><time>2026-05-01T09:35:06Z</time></trkpt><trkpt lat="44.618198577529576" lon="1.0278549742383072"><ele>195.5</ele><time>2026-05-01T09:35:07Z</time></trkpt><trkpt lat="44.61812000741849" lon="1.027976442007105"><ele>197.0</ele><time>2026-05-01T09:35:08Z</time></trkpt><trkpt lat="44.61802629120526" lon="1.0280972269707875"><ele>197.0</ele><time>2026-05-01T09:35:09Z</time></trkpt><trkpt lat="44.61791414419102" lon="1.0282523212974437"><ele>197.0</ele><time>2026-05-01T09:35:10Z</time></trkpt><trkpt lat="44.61780524063516" lon="1.0284155792770335"><ele>197.0</ele><time>2026-05-01T09:35:11Z</time></trkpt><trkpt lat="44.61770690412588" lon="1.0285716241551361"><ele>197.0</ele><time>2026-05-01T09:35:12Z</time></trkpt><trkpt lat="44.61762195094464" lon="1.0287203233380635"><ele>197.0</ele><time>2026-05-01T09:35:13Z</time></trkpt><trkpt lat="44.617549500250135" lon="1.028882430851359"><ele>197.0</ele><time>2026-05-01T09:35:14Z</time></trkpt><trkpt lat="44.617495549633716" lon="1.0290440217659784"><ele>197.0</ele><time>2026-05-01T09:35:15Z</time></trkpt><trkpt lat="44.61742768902739" lon="1.0291918235809543"><ele>194.75</ele><time>2026-05-01T09:35:16Z</time></trkpt><trkpt lat="44.61734589081578" lon="1.0293019736862683"><ele>192.5</ele><time>2026-05-01T09:35:17Z</time></trkpt><trkpt lat="44.617230737579206" lon="1.029427053791812"><ele>190.25</ele><time>2026-05-01T09:35:18Z</time></trkpt><trkpt lat="44.61713395610259" lon="1.0294927107112983"><ele>188.0</ele><time>2026-05-01T09:35:19Z</time></trkpt><trkpt lat="44.61704717452031" lon="1.0295295095003991"><ele>188.0</ele><time>2026-05-01T09:35:20Z</time></trkpt><trkpt lat="44.61696654987725" lon="1.029533428109601"><ele>188.0</ele><time>2026-05-01T09:35:21Z</time></trkpt><trkpt lat="44.616845087508054" lon="1.0295447329960334"><ele>188.0</ele><time>2026-05-01T09:35:22Z</time></trkpt><trkpt lat="44.6167438230471" lon="1.0295708233609184"><ele>188.0</ele><time>2026-05-01T09:35:23Z</time></trkpt><trkpt lat="44.616622002438156" lon="1.0296348862005293"><ele>188.0</ele><time>2026-05-01T09:35:24Z</time></trkpt><trkpt lat="44.61651927550749" lon="1.0297010911885418"><ele>188.0</ele><time>2026-05-01T09:35:25Z</time></trkpt><trkpt lat="44.61640437400204" lon="1.029754177943415"><ele>188.0</ele><time>2026-05-01T09:35:26Z</time></trkpt><trkpt lat="44.61631815774558" lon="1.0298221943401922"><ele>188.0</ele><time>2026-05-01T09:35:27Z</time></trkpt><trkpt lat="44.61624963370223" lon="1.029885081861955"><ele>188.0</ele><time>2026-05-01T09:35:28Z</time></trkpt><trkpt lat="44.61620412116765" lon="1.0300054169737038"><ele>188.0</ele><time>2026-05-01T09:35:29Z</time></trkpt><trkpt lat="44.61614364506927" lon="1.0301794246154437"><ele>187.75</ele><time>2026-05-01T09:35:30Z</time></trkpt><trkpt lat="44.61608299038122" lon="1.0303160019974853"><ele>187.5</ele><time>2026-05-01T09:35:31Z</time></trkpt><trkpt lat="44.616039688429865" lon="1.0305008234664617"><ele>187.25</ele><time>2026-05-01T09:35:32Z</time></trkpt><trkpt lat="44.616019966262705" lon="1.0306808756258132"><ele>187.0</ele><time>2026-05-01T09:35:33Z</time></trkpt><trkpt lat="44.61600423232566" lon="1.030834618527197"><ele>186.5</ele><time>2026-05-01T09:35:34Z</time></trkpt><trkpt lat="44.61597802926263" lon="1.0309697763831596"><ele>186.0</ele><time>2026-05-01T09:35:35Z</time></trkpt><trkpt lat="44.615926314548105" lon="1.0311191860473596"><ele>185.5</ele><time>2026-05-01T09:35:36Z</time></trkpt><trkpt lat="44.615849397876744" lon="1.0312680501865092"><ele>185.0</ele><time>2026-05-01T09:35:37Z</time></trkpt><trkpt lat="44.6157552936399" lon="1.0313741144908846"><ele>185.0</ele><time>2026-05-01T09:35:38Z</time></trkpt><trkpt lat="44.61566519738315" lon="1.0314854747710602"><ele>185.0</ele><time>2026-05-01T09:35:39Z</time></trkpt><trkpt lat="44.61559149106619" lon="1.0315845005767013"><ele>185.0</ele><time>2026-05-01T09:35:40Z</time></trkpt><trkpt lat="44.615542633347054" lon="1.0316861012183838"><ele>185.0</ele><time>2026-05-01T09:35:41Z</time></trkpt><trkpt lat="44.61551458764057" lon="1.031824020807313"><ele>185.0</ele><time>2026-05-01T09:35:42Z</time></trkpt><trkpt lat="44.6155254410874" lon="1.031982998211479"><ele>184.8</ele><time>2026-05-01T09:35:43Z</time></trkpt><trkpt lat="44.61551055503406" lon="1.0321404403388625"><ele>184.6</ele><time>2026-05-01T09:35:44Z</time></trkpt><trkpt lat="44.615481261319836" lon="1.0322923110392692"><ele>184.39999999999998</ele><time>2026-05-01T09:35:45Z</time></trkpt><trkpt lat="44.615473466750224" lon="1.0324063545778623"><ele>184.2</ele><time>2026-05-01T09:35:46Z</time></trkpt><trkpt lat="44.61546271845885" lon="1.0325217857751465"><ele>184.0</ele><time>2026-05-01T09:35:47Z</time></trkpt><trkpt lat="44.6154493243616" lon="1.0326231061386482"><ele>184.0</ele><time>2026-05-01T09:35:48Z</time></trkpt><trkpt lat="44.61539896996552" lon="1.0327825296436701"><ele>184.0</ele><time>2026-05-01T09:35:50Z</time></trkpt><trkpt lat="44.6153392826135" lon="1.032827892326736"><ele>184.0</ele><time>2026-05-01T09:35:51Z</time></trkpt><trkpt lat="44.615275485215825" lon="1.032849569534479"><ele>184.0</ele><time>2026-05-01T09:35:52Z</time></trkpt><trkpt lat="44.61520646822714" lon="1.0328395861355044"><ele>184.0</ele><time>2026-05-01T09:35:53Z</time></trkpt><trkpt lat="44.61512651609187" lon="1.0328016092165337"><ele>184.0</ele><time>2026-05-01T09:35:54Z</time></trkpt><trkpt lat="44.615015832596924" lon="1.0327648449811313"><ele>183.79999999999998</ele><time>2026-05-01T09:35:55Z</time></trkpt><trkpt lat="44.614953536819534" lon="1.0327284302093283"><ele>183.6</ele><time>2026-05-01T09:35:56Z</time></trkpt><trkpt lat="44.61490454633265" lon="1.0326403134868762"><ele>183.4</ele><time>2026-05-01T09:35:57Z</time></trkpt><trkpt lat="44.61487282736902" lon="1.0325157319969793"><ele>183.2</ele><time>2026-05-01T09:35:58Z</time></trkpt><trkpt lat="44.61484970648255" lon="1.032367842917745"><ele>183.0</ele><time>2026-05-01T09:35:59Z</time></trkpt><trkpt lat="44.61480419259561" lon="1.0322044696124169"><ele>183.0</ele><time>2026-05-01T09:36:00Z</time></trkpt><trkpt lat="44.6147498660144" lon="1.0320478072824009"><ele>183.0</ele><time>2026-05-01T09:36:01Z</time></trkpt><trkpt lat="44.614711768667064" lon="1.0319099045920008"><ele>183.0</ele><time>2026-05-01T09:36:02Z</time></trkpt><trkpt lat="44.61468417500996" lon="1.0318104963626054"><ele>183.0</ele><time>2026-05-01T09:36:03Z</time></trkpt><trkpt lat="44.61458231941869" lon="1.0317652534827426"><ele>183.0</ele><time>2026-05-01T09:36:05Z</time></trkpt><trkpt lat="44.614462804969655" lon="1.0318448634153778"><ele>182.60000000000002</ele><time>2026-05-01T09:36:07Z</time></trkpt><trkpt lat="44.61438435087675" lon="1.0319057979652713"><ele>182.20000000000002</ele><time>2026-05-01T09:36:08Z</time></trkpt><trkpt lat="44.614275103704884" lon="1.0319765666245853"><ele>181.8</ele><time>2026-05-01T09:36:09Z</time></trkpt><trkpt lat="44.61418304610017" lon="1.0320546103167587"><ele>181.4</ele><time>2026-05-01T09:36:10Z</time></trkpt><trkpt lat="44.614112532946564" lon="1.0321533126090114"><ele>181.0</ele><time>2026-05-01T09:36:11Z</time></trkpt><trkpt lat="44.61405062080238" lon="1.0322795164658156"><ele>181.0</ele><time>2026-05-01T09:36:12Z</time></trkpt><trkpt lat="44.614009092491095" lon="1.0323790990938209"><ele>181.0</ele><time>2026-05-01T09:36:13Z</time></trkpt><trkpt lat="44.61394395380391" lon="1.0324906872039066"><ele>181.0</ele><time>2026-05-01T09:36:14Z</time></trkpt><trkpt lat="44.61386086919143" lon="1.0325872630344994"><ele>181.0</ele><time>2026-05-01T09:36:15Z</time></trkpt><trkpt lat="44.61378943939767" lon="1.0326230190761514"><ele>181.0</ele><time>2026-05-01T09:36:16Z</time></trkpt><trkpt lat="44.61361068181925" lon="1.0326832491332487"><ele>178.8</ele><time>2026-05-01T09:36:17Z</time></trkpt><trkpt lat="44.613497620933856" lon="1.0327208858537842"><ele>176.60000000000002</ele><time>2026-05-01T09:36:18Z</time></trkpt><trkpt lat="44.61341217176385" lon="1.032712320704372"><ele>174.4</ele><time>2026-05-01T09:36:19Z</time></trkpt><trkpt lat="44.61334434411202" lon="1.0327071864574948"><ele>172.2</ele><time>2026-05-01T09:36:20Z</time></trkpt><trkpt lat="44.61330605477558" lon="1.0326031671017475"><ele>170.0</ele><time>2026-05-01T09:36:22Z</time></trkpt><trkpt lat="44.613198485950335" lon="1.0324952749111085"><ele>170.0</ele><time>2026-05-01T09:36:24Z</time></trkpt><trkpt lat="44.6131372109921" lon="1.0324490406250486"><ele>170.0</ele><time>2026-05-01T09:36:25Z</time></trkpt><trkpt lat="44.61304980916405" lon="1.0324344465062278"><ele>170.0</ele><time>2026-05-01T09:36:26Z</time></trkpt><trkpt lat="44.61297418030864" lon="1.032437381160192"><ele>170.0</ele><time>2026-05-01T09:36:27Z</time></trkpt><trkpt lat="44.612883063784125" lon="1.032481773549726"><ele>170.0</ele><time>2026-05-01T09:36:28Z</time></trkpt><trkpt lat="44.61279783447938" lon="1.0325441550475138"><ele>170.0</ele><time>2026-05-01T09:36:29Z</time></trkpt><trkpt lat="44.61268117510136" lon="1.0326249859767298"><ele>169.4</ele><time>2026-05-01T09:36:30Z</time></trkpt><trkpt lat="44.61255368957884" lon="1.0326828995382364"><ele>168.8</ele><time>2026-05-01T09:36:31Z</time></trkpt><trkpt lat="44.612456574279875" lon="1.0327433366774101"><ele>168.2</ele><time>2026-05-01T09:36:32Z</time></trkpt><trkpt lat="44.612370392212576" lon="1.0327850150547364"><ele>167.6</ele><time>2026-05-01T09:36:33Z</time></trkpt><trkpt lat="44.612292173334104" lon="1.0327824746223417"><ele>167.0</ele><time>2026-05-01T09:36:35Z</time></trkpt><trkpt lat="44.612245096253915" lon="1.0327224456354476"><ele>167.0</ele><time>2026-05-01T09:36:37Z</time></trkpt><trkpt lat="44.61225326801859" lon="1.0325652417380946"><ele>167.0</ele><time>2026-05-01T09:36:44Z</time></trkpt><trkpt lat="44.61222849321397" lon="1.0323922348311074"><ele>167.0</ele><time>2026-05-01T09:36:46Z</time></trkpt><trkpt lat="44.61217815204639" lon="1.032289290935421"><ele>167.0</ele><time>2026-05-01T09:36:47Z</time></trkpt><trkpt lat="44.612108470384" lon="1.032199999394454"><ele>167.0</ele><time>2026-05-01T09:36:48Z</time></trkpt><trkpt lat="44.61202682021076" lon="1.032084596363624"><ele>166.33333333333331</ele><time>2026-05-01T09:36:49.001Z</time></trkpt><trkpt lat="44.61194189343482" lon="1.0320046130556997"><ele>165.66666666666666</ele><time>2026-05-01T09:36:50.001Z</time></trkpt><trkpt lat="44.61187057388727" lon="1.031974710278208"><ele>165.0</ele><time>2026-05-01T09:36:51.001Z</time></trkpt><trkpt lat="44.611788051537495" lon="1.0319664824648518"><ele>164.33333333333334</ele><time>2026-05-01T09:36:52.001Z</time></trkpt><trkpt lat="44.611719297460596" lon="1.0320264819971383"><ele>163.66666666666669</ele><time>2026-05-01T09:36:53.001Z</time></trkpt><trkpt lat="44.61164205749077" lon="1.0320771514522182"><ele>163.0</ele><time>2026-05-01T09:36:54.001Z</time></trkpt><trkpt lat="44.61156157918372" lon="1.0321124720211163"><ele>163.0</ele><time>2026-05-01T09:36:55.001Z</time></trkpt><trkpt lat="44.611455417342746" lon="1.032103375167098"><ele>163.0</ele><time>2026-05-01T09:36:56.001Z</time></trkpt><trkpt lat="44.611347536553424" lon="1.0321077801410727"><ele>163.0</ele><time>2026-05-01T09:36:57.001Z</time></trkpt><trkpt lat="44.61123514146459" lon="1.0320803289346256"><ele>163.0</ele><time>2026-05-01T09:36:58.001Z</time></trkpt><trkpt lat="44.61111019968372" lon="1.0320470175836594"><ele>160.75</ele><time>2026-05-01T09:36:59.001Z</time></trkpt><trkpt lat="44.610984205079376" lon="1.0320209604637844"><ele>158.5</ele><time>2026-05-01T09:37:00.001Z</time></trkpt><trkpt lat="44.61086151043469" lon="1.0319760271352432"><ele>156.25</ele><time>2026-05-01T09:37:01.001Z</time></trkpt><trkpt lat="44.61074923432244" lon="1.0319388757429828"><ele>154.0</ele><time>2026-05-01T09:37:02.001Z</time></trkpt><trkpt lat="44.61065349401364" lon="1.0319029316576982"><ele>154.0</ele><time>2026-05-01T09:37:03.001Z</time></trkpt><trkpt lat="44.61054827201995" lon="1.0318753380213317"><ele>154.0</ele><time>2026-05-01T09:37:04.001Z</time></trkpt><trkpt lat="44.61045294452831" lon="1.0318585765222816"><ele>154.0</ele><time>2026-05-01T09:37:05.001Z</time></trkpt><trkpt lat="44.61036082121376" lon="1.0318720227894285"><ele>154.0</ele><time>2026-05-01T09:37:06.001Z</time></trkpt><trkpt lat="44.61026881437946" lon="1.0319143672157112"><ele>154.0</ele><time>2026-05-01T09:37:07.001Z</time></trkpt><trkpt lat="44.61017279510461" lon="1.0320148951729118"><ele>156.0</ele><time>2026-05-01T09:37:08.001Z</time></trkpt><trkpt lat="44.610054454872305" lon="1.0321349685775831"><ele>158.0</ele><time>2026-05-01T09:37:09Z</time></trkpt><trkpt lat="44.60994408825081" lon="1.0322282457249587"><ele>160.0</ele><time>2026-05-01T09:37:10Z</time></trkpt><trkpt lat="44.609820422556005" lon="1.0323295230100313"><ele>162.0</ele><time>2026-05-01T09:37:11Z</time></trkpt><trkpt lat="44.609727897753885" lon="1.032389806510222"><ele>162.0</ele><time>2026-05-01T09:37:12Z</time></trkpt><trkpt lat="44.6096386177369" lon="1.0324525905247968"><ele>162.0</ele><time>2026-05-01T09:37:13Z</time></trkpt><trkpt lat="44.60958198712499" lon="1.0325471972990239"><ele>162.0</ele><time>2026-05-01T09:37:14Z</time></trkpt><trkpt lat="44.6095408690176" lon="1.0326449603505594"><ele>162.0</ele><time>2026-05-01T09:37:15Z</time></trkpt><trkpt lat="44.60941713432946" lon="1.0326847547770197"><ele>162.0</ele><time>2026-05-01T09:37:17Z</time></trkpt><trkpt lat="44.60933075572739" lon="1.032689991682734"><ele>160.2</ele><time>2026-05-01T09:37:18Z</time></trkpt><trkpt lat="44.60923798299284" lon="1.0326938206268346"><ele>158.39999999999998</ele><time>2026-05-01T09:37:19Z</time></trkpt><trkpt lat="44.60912482873875" lon="1.0327125680107168"><ele>156.60000000000002</ele><time>2026-05-01T09:37:20Z</time></trkpt><trkpt lat="44.60900991867604" lon="1.0327316089541212"><ele>154.8</ele><time>2026-05-01T09:37:21Z</time></trkpt><trkpt lat="44.60889862840782" lon="1.032726236396886"><ele>153.0</ele><time>2026-05-01T09:37:22Z</time></trkpt><trkpt lat="44.608791541780136" lon="1.032719271280782"><ele>153.0</ele><time>2026-05-01T09:37:23Z</time></trkpt><trkpt lat="44.608700383923455" lon="1.032667072510916"><ele>153.0</ele><time>2026-05-01T09:37:24Z</time></trkpt><trkpt lat="44.608601281114545" lon="1.0325767711904288"><ele>153.0</ele><time>2026-05-01T09:37:25Z</time></trkpt><trkpt lat="44.608466981532914" lon="1.032483411811946"><ele>153.0</ele><time>2026-05-01T09:37:26Z</time></trkpt><trkpt lat="44.608308413532434" lon="1.0324397601710849"><ele>155.25</ele><time>2026-05-01T09:37:27Z</time></trkpt><trkpt lat="44.60816612513496" lon="1.032377322373543"><ele>157.5</ele><time>2026-05-01T09:37:28Z</time></trkpt><trkpt lat="44.60803609217347" lon="1.0322956348722225"><ele>159.75</ele><time>2026-05-01T09:37:29Z</time></trkpt><trkpt lat="44.60792059886286" lon="1.0321781051344343"><ele>162.0</ele><time>2026-05-01T09:37:30Z</time></trkpt><trkpt lat="44.60781248115415" lon="1.0321047179493499"><ele>162.0</ele><time>2026-05-01T09:37:31Z</time></trkpt><trkpt lat="44.6076960223282" lon="1.0320564066383597"><ele>162.0</ele><time>2026-05-01T09:37:32Z</time></trkpt><trkpt lat="44.607569521191586" lon="1.0320477610723915"><ele>162.0</ele><time>2026-05-01T09:37:33Z</time></trkpt><trkpt lat="44.60742347430103" lon="1.032058324977633"><ele>162.0</ele><time>2026-05-01T09:37:34Z</time></trkpt><trkpt lat="44.60728700974131" lon="1.0320970110202108"><ele>162.0</ele><time>2026-05-01T09:37:35Z</time></trkpt><trkpt lat="44.60717450633211" lon="1.0321164370763487"><ele>162.0</ele><time>2026-05-01T09:37:36Z</time></trkpt><trkpt lat="44.60707120675785" lon="1.0321334672650773"><ele>162.0</ele><time>2026-05-01T09:37:37Z</time></trkpt><trkpt lat="44.60696823930749" lon="1.032195436902148"><ele>162.0</ele><time>2026-05-01T09:37:38Z</time></trkpt><trkpt lat="44.60686260502701" lon="1.0323077842329258"><ele>162.0</ele><time>2026-05-01T09:37:39Z</time></trkpt><trkpt lat="44.60676826732619" lon="1.032443181035726"><ele>162.0</ele><time>2026-05-01T09:37:40Z</time></trkpt><trkpt lat="44.60669373273162" lon="1.0326104397090696"><ele>162.0</ele><time>2026-05-01T09:37:41Z</time></trkpt><trkpt lat="44.606621824591954" lon="1.0327971984403477"><ele>162.0</ele><time>2026-05-01T09:37:42Z</time></trkpt><trkpt lat="44.606559090011736" lon="1.0329661497847085"><ele>159.2</ele><time>2026-05-01T09:37:43Z</time></trkpt><trkpt lat="44.60649833218262" lon="1.033098146967188"><ele>156.39999999999998</ele><time>2026-05-01T09:37:44Z</time></trkpt><trkpt lat="44.60641377515166" lon="1.0332436390134436"><ele>153.60000000000002</ele><time>2026-05-01T09:37:45Z</time></trkpt><trkpt lat="44.606358271377644" lon="1.0333623042000513"><ele>150.8</ele><time>2026-05-01T09:37:46Z</time></trkpt><trkpt lat="44.60631491407588" lon="1.0334521433235861"><ele>148.0</ele><time>2026-05-01T09:37:47Z</time></trkpt><trkpt lat="44.60620606369404" lon="1.0335005902686782"><ele>146.0</ele><time>2026-05-01T09:37:48Z</time></trkpt><trkpt lat="44.60617005509554" lon="1.0336392720686232"><ele>144.0</ele><time>2026-05-01T09:37:50Z</time></trkpt><trkpt lat="44.60619845482721" lon="1.0337666922053457"><ele>142.0</ele><time>2026-05-01T09:37:51Z</time></trkpt><trkpt lat="44.60628303887663" lon="1.0338723150635545"><ele>140.0</ele><time>2026-05-01T09:37:52Z</time></trkpt><trkpt lat="44.60639780914463" lon="1.0339172097787737"><ele>138.0</ele><time>2026-05-01T09:37:53Z</time></trkpt><trkpt lat="44.606513727475466" lon="1.033934860731895"><ele>138.0</ele><time>2026-05-01T09:37:54Z</time></trkpt><trkpt lat="44.60661259917305" lon="1.0339408063158768"><ele>138.0</ele><time>2026-05-01T09:37:55Z</time></trkpt><trkpt lat="44.60668166965104" lon="1.0339641697456998"><ele>138.0</ele><time>2026-05-01T09:37:56Z</time></trkpt><trkpt lat="44.60670936366716" lon="1.0340514021687832"><ele>138.0</ele><time>2026-05-01T09:37:57Z</time></trkpt><trkpt lat="44.60669953237545" lon="1.0341405098931187"><ele>138.0</ele><time>2026-05-01T09:37:58Z</time></trkpt><trkpt lat="44.606575901862364" lon="1.0342166000024908"><ele>138.0</ele><time>2026-05-01T09:38:00Z</time></trkpt><trkpt lat="44.606512648394" lon="1.0342643631589288"><ele>138.0</ele><time>2026-05-01T09:38:01Z</time></trkpt><trkpt lat="44.60644456741654" lon="1.0343100113325372"><ele>138.0</ele><time>2026-05-01T09:38:02Z</time></trkpt><trkpt lat="44.60637543937213" lon="1.034358396311495"><ele>138.0</ele><time>2026-05-01T09:38:03Z</time></trkpt><trkpt lat="44.606296378693" lon="1.0343972310047227"><ele>138.0</ele><time>2026-05-01T09:38:04Z</time></trkpt><trkpt lat="44.606205507926504" lon="1.034416088203462"><ele>138.0</ele><time>2026-05-01T09:38:05Z</time></trkpt><trkpt lat="44.60610783449236" lon="1.034413407090656"><ele>138.0</ele><time>2026-05-01T09:38:06Z</time></trkpt><trkpt lat="44.60604383854633" lon="1.0343992726249613"><ele>138.0</ele><time>2026-05-01T09:38:07Z</time></trkpt><trkpt lat="44.605939927313294" lon="1.0343252619451748"><ele>138.0</ele><time>2026-05-01T09:38:09Z</time></trkpt><trkpt lat="44.605879152150315" lon="1.0342959702439918"><ele>138.0</ele><time>2026-05-01T09:38:10Z</time></trkpt><trkpt lat="44.60578840150458" lon="1.0343477789320774"><ele>138.0</ele><time>2026-05-01T09:38:13Z</time></trkpt><trkpt lat="44.60577435724801" lon="1.0344843029730666"><ele>138.0</ele><time>2026-05-01T09:38:19Z</time></trkpt><trkpt lat="44.60574784420369" lon="1.0346432986751306"><ele>138.0</ele><time>2026-05-01T09:38:21Z</time></trkpt><trkpt lat="44.60572061909704" lon="1.034746300036018"><ele>138.0</ele><time>2026-05-01T09:38:22Z</time></trkpt><trkpt lat="44.60567858817675" lon="1.034844607395155"><ele>138.0</ele><time>2026-05-01T09:38:23Z</time></trkpt><trkpt lat="44.605624273809106" lon="1.0349282826392496"><ele>138.0</ele><time>2026-05-01T09:38:24Z</time></trkpt><trkpt lat="44.605554492647656" lon="1.0350014588801237"><ele>138.0</ele><time>2026-05-01T09:38:25Z</time></trkpt><trkpt lat="44.6054615930223" lon="1.0350699451676584"><ele>138.0</ele><time>2026-05-01T09:38:26Z</time></trkpt><trkpt lat="44.60535691498081" lon="1.035125402220209"><ele>137.0</ele><time>2026-05-01T09:38:27Z</time></trkpt><trkpt lat="44.60524942836732" lon="1.0351748386163135"><ele>136.0</ele><time>2026-05-01T09:38:28Z</time></trkpt><trkpt lat="44.60514748893309" lon="1.035253880222136"><ele>135.0</ele><time>2026-05-01T09:38:29Z</time></trkpt><trkpt lat="44.60505060345027" lon="1.0353488974254161"><ele>134.0</ele><time>2026-05-01T09:38:30Z</time></trkpt><trkpt lat="44.604952152976374" lon="1.0354367905633273"><ele>134.0</ele><time>2026-05-01T09:38:31Z</time></trkpt><trkpt lat="44.60487098436424" lon="1.0355089831389854"><ele>134.0</ele><time>2026-05-01T09:38:32Z</time></trkpt><trkpt lat="44.60480855949581" lon="1.0355632668922394"><ele>134.0</ele><time>2026-05-01T09:38:33Z</time></trkpt><trkpt lat="44.60473219416312" lon="1.0356143505255488"><ele>134.0</ele><time>2026-05-01T09:38:35Z</time></trkpt><trkpt lat="44.60475782793075" lon="1.0354918246833547"><ele>134.0</ele><time>2026-05-01T09:38:48.001Z</time></trkpt><trkpt lat="44.604733830033624" lon="1.0352231067023034"><ele>134.0</ele><time>2026-05-01T09:38:49.001Z</time></trkpt><trkpt lat="44.60476902985583" lon="1.0350573900597448"><ele>134.0</ele><time>2026-05-01T09:38:50.001Z</time></trkpt><trkpt lat="44.60479149741188" lon="1.0349025716380282"><ele>134.0</ele><time>2026-05-01T09:38:51.001Z</time></trkpt><trkpt lat="44.6047867345289" lon="1.0347406069487912"><ele>134.0</ele><time>2026-05-01T09:38:52.001Z</time></trkpt><trkpt lat="44.60475265154902" lon="1.0345629737898183"><ele>134.0</ele><time>2026-05-01T09:38:53.001Z</time></trkpt><trkpt lat="44.60469031317216" lon="1.034373023982829"><ele>134.0</ele><time>2026-05-01T09:38:54.001Z</time></trkpt><trkpt lat="44.60465047912307" lon="1.0341946867393714"><ele>134.0</ele><time>2026-05-01T09:38:55.001Z</time></trkpt><trkpt lat="44.604632858847296" lon="1.034015299998725"><ele>134.0</ele><time>2026-05-01T09:38:56.001Z</time></trkpt><trkpt lat="44.60460893537965" lon="1.033861466957376"><ele>134.4</ele><time>2026-05-01T09:38:57.001Z</time></trkpt><trkpt lat="44.60459036733343" lon="1.0337161832540114"><ele>134.8</ele><time>2026-05-01T09:38:58.001Z</time></trkpt><trkpt lat="44.60458471119814" lon="1.0335696489782762"><ele>135.2</ele><time>2026-05-01T09:38:59.001Z</time></trkpt><trkpt lat="44.60460414798044" lon="1.0334115649444655"><ele>135.6</ele><time>2026-05-01T09:39:00.001Z</time></trkpt><trkpt lat="44.60462633711462" lon="1.0332551969998711"><ele>136.0</ele><time>2026-05-01T09:39:01.001Z</time></trkpt><trkpt lat="44.604607173494784" lon="1.0330899101083661"><ele>136.16666666666669</ele><time>2026-05-01T09:39:02.001Z</time></trkpt><trkpt lat="44.604590259146285" lon="1.0329655753819498"><ele>136.33333333333334</ele><time>2026-05-01T09:39:03.001Z</time></trkpt><trkpt lat="44.60455435458063" lon="1.0328489526575713"><ele>136.5</ele><time>2026-05-01T09:39:04.001Z</time></trkpt><trkpt lat="44.604508739895635" lon="1.0327699713621417"><ele>136.66666666666666</ele><time>2026-05-01T09:39:05.001Z</time></trkpt><trkpt lat="44.604389372774" lon="1.032725868619943"><ele>136.83333333333331</ele><time>2026-05-01T09:39:07.001Z</time></trkpt><trkpt lat="44.60432390908918" lon="1.0327396135805007"><ele>137.0</ele><time>2026-05-01T09:39:08.001Z</time></trkpt><trkpt lat="44.60423777553044" lon="1.0328025462977266"><ele>137.0</ele><time>2026-05-01T09:39:09.001Z</time></trkpt><trkpt lat="44.604145161217964" lon="1.032834657821764"><ele>137.0</ele><time>2026-05-01T09:39:10.001Z</time></trkpt><trkpt lat="44.60407455403634" lon="1.0327819122599964"><ele>137.0</ele><time>2026-05-01T09:39:11.001Z</time></trkpt><trkpt lat="44.60399692504603" lon="1.0326794824211931"><ele>137.0</ele><time>2026-05-01T09:39:12.001Z</time></trkpt><trkpt lat="44.603953638821984" lon="1.0325309583173863"><ele>137.0</ele><time>2026-05-01T09:39:13.001Z</time></trkpt><trkpt lat="44.60390834076035" lon="1.032353045536979"><ele>136.5</ele><time>2026-05-01T09:39:14.001Z</time></trkpt><trkpt lat="44.60384222231571" lon="1.0321590531374332"><ele>136.0</ele><time>2026-05-01T09:39:15Z</time></trkpt><trkpt lat="44.603762783363116" lon="1.0319833609786018"><ele>135.5</ele><time>2026-05-01T09:39:16Z</time></trkpt><trkpt lat="44.603696469583745" lon="1.0318106159980982"><ele>135.0</ele><time>2026-05-01T09:39:17Z</time></trkpt><trkpt lat="44.603650628187935" lon="1.0316363290570603"><ele>137.25</ele><time>2026-05-01T09:39:18Z</time></trkpt><trkpt lat="44.603605590257025" lon="1.0314615187093736"><ele>139.5</ele><time>2026-05-01T09:39:19Z</time></trkpt><trkpt lat="44.60355128595001" lon="1.0312887805943893"><ele>141.75</ele><time>2026-05-01T09:39:20Z</time></trkpt><trkpt lat="44.60349168849159" lon="1.0311350343701118"><ele>144.0</ele><time>2026-05-01T09:39:21Z</time></trkpt><trkpt lat="44.60346242598293" lon="1.0309847044505096"><ele>144.0</ele><time>2026-05-01T09:39:22Z</time></trkpt><trkpt lat="44.60340507521162" lon="1.0308629857624168"><ele>144.0</ele><time>2026-05-01T09:39:23Z</time></trkpt><trkpt lat="44.603353235495504" lon="1.0307490341490515"><ele>144.0</ele><time>2026-05-01T09:39:24Z</time></trkpt><trkpt lat="44.60332363776684" lon="1.0306499825196762"><ele>144.0</ele><time>2026-05-01T09:39:25Z</time></trkpt><trkpt lat="44.60327917119678" lon="1.0305779480040822"><ele>144.0</ele><time>2026-05-01T09:39:28Z</time></trkpt><trkpt lat="44.603234004852304" lon="1.030655306126297"><ele>144.0</ele><time>2026-05-01T09:39:30Z</time></trkpt><trkpt lat="44.603203009017854" lon="1.0307457774723643"><ele>144.0</ele><time>2026-05-01T09:39:31Z</time></trkpt><trkpt lat="44.603151263681184" lon="1.0308438462331464"><ele>144.0</ele><time>2026-05-01T09:39:32Z</time></trkpt><trkpt lat="44.603081214274994" lon="1.0309546635956643"><ele>144.0</ele><time>2026-05-01T09:39:33Z</time></trkpt><trkpt lat="44.60299254513618" lon="1.0310657756239616"><ele>144.0</ele><time>2026-05-01T09:39:34Z</time></trkpt><trkpt lat="44.60289539117504" lon="1.0311602334984387"><ele>144.0</ele><time>2026-05-01T09:39:35Z</time></trkpt><trkpt lat="44.60281272126301" lon="1.0312322775886569"><ele>146.16666666666666</ele><time>2026-05-01T09:39:36Z</time></trkpt><trkpt lat="44.60274048911596" lon="1.0312852728510682"><ele>148.33333333333334</ele><time>2026-05-01T09:39:37Z</time></trkpt><trkpt lat="44.60266184420698" lon="1.0312787127574912"><ele>150.5</ele><time>2026-05-01T09:39:38Z</time></trkpt><trkpt lat="44.60261200183169" lon="1.0312159462121335"><ele>152.66666666666669</ele><time>2026-05-01T09:39:39Z</time></trkpt><trkpt lat="44.602595060451556" lon="1.0311168833704139"><ele>154.83333333333334</ele><time>2026-05-01T09:39:40Z</time></trkpt><trkpt lat="44.6026064674157" lon="1.031009227082559"><ele>157.0</ele><time>2026-05-01T09:39:41Z</time></trkpt><trkpt lat="44.602657538196596" lon="1.0308847480348855"><ele>155.75</ele><time>2026-05-01T09:39:42Z</time></trkpt><trkpt lat="44.60273857906204" lon="1.030751540956705"><ele>154.5</ele><time>2026-05-01T09:39:43Z</time></trkpt><trkpt lat="44.602813547363745" lon="1.0306097452232517"><ele>153.25</ele><time>2026-05-01T09:39:44Z</time></trkpt><trkpt lat="44.602834948882105" lon="1.030457922882372"><ele>152.0</ele><time>2026-05-01T09:39:45Z</time></trkpt><trkpt lat="44.60280816798713" lon="1.0303074879121383"><ele>152.0</ele><time>2026-05-01T09:39:46Z</time></trkpt><trkpt lat="44.60273799453577" lon="1.0302000930361415"><ele>152.0</ele><time>2026-05-01T09:39:47Z</time></trkpt><trkpt lat="44.60266720141267" lon="1.0301484884186676"><ele>152.0</ele><time>2026-05-01T09:39:48Z</time></trkpt><trkpt lat="44.602592701841644" lon="1.0300621521664102"><ele>152.0</ele><time>2026-05-01T09:39:50Z</time></trkpt><trkpt lat="44.60254005774729" lon="1.0299988937666293"><ele>152.0</ele><time>2026-05-01T09:39:52Z</time></trkpt><trkpt lat="44.60241186672656" lon="1.0299342478663132"><ele>149.66666666666666</ele><time>2026-05-01T09:39:54Z</time></trkpt><trkpt lat="44.60234313428025" lon="1.0298928687943294"><ele>147.33333333333331</ele><time>2026-05-01T09:39:55Z</time></trkpt><trkpt lat="44.602262010631776" lon="1.0298647298121493"><ele>145.0</ele><time>2026-05-01T09:39:56Z</time></trkpt><trkpt lat="44.60217527015498" lon="1.0298566331929435"><ele>142.66666666666666</ele><time>2026-05-01T09:39:57Z</time></trkpt><trkpt lat="44.60208585462312" lon="1.0298474143225784"><ele>140.33333333333334</ele><time>2026-05-01T09:39:58Z</time></trkpt><trkpt lat="44.6020161438229" lon="1.0298515902555903"><ele>138.0</ele><time>2026-05-01T09:39:59Z</time></trkpt><trkpt lat="44.60194255212787" lon="1.029854065737194"><ele>137.33333333333334</ele><time>2026-05-01T09:40:00Z</time></trkpt><trkpt lat="44.601866657518876" lon="1.0298343461800363"><ele>136.66666666666666</ele><time>2026-05-01T09:40:01Z</time></trkpt><trkpt lat="44.60178457494068" lon="1.029836056887476"><ele>136.0</ele><time>2026-05-01T09:40:02Z</time></trkpt><trkpt lat="44.60169698278682" lon="1.02985076405937"><ele>135.33333333333331</ele><time>2026-05-01T09:40:03Z</time></trkpt><trkpt lat="44.60162769301359" lon="1.029871468882325"><ele>134.66666666666666</ele><time>2026-05-01T09:40:04Z</time></trkpt><trkpt lat="44.60153257701215" lon="1.029930074623194"><ele>134.0</ele><time>2026-05-01T09:40:05Z</time></trkpt><trkpt lat="44.60141794486536" lon="1.0300047840441744"><ele>135.75</ele><time>2026-05-01T09:40:06Z</time></trkpt><trkpt lat="44.60130764607024" lon="1.0300510843595225"><ele>137.5</ele><time>2026-05-01T09:40:07Z</time></trkpt><trkpt lat="44.601190712675965" lon="1.0301161739551135"><ele>139.25</ele><time>2026-05-01T09:40:08Z</time></trkpt><trkpt lat="44.60107428616639" lon="1.030145679843678"><ele>141.0</ele><time>2026-05-01T09:40:09Z</time></trkpt><trkpt lat="44.60097173702047" lon="1.0301771335954724"><ele>141.0</ele><time>2026-05-01T09:40:10Z</time></trkpt><trkpt lat="44.60085835919885" lon="1.0302020835618608"><ele>141.0</ele><time>2026-05-01T09:40:11Z</time></trkpt><trkpt lat="44.60075022435131" lon="1.0301953945984852"><ele>141.0</ele><time>2026-05-01T09:40:12Z</time></trkpt><trkpt lat="44.600639305136355" lon="1.0301973470597487"><ele>141.0</ele><time>2026-05-01T09:40:13Z</time></trkpt><trkpt lat="44.60054446098163" lon="1.0301885275606557"><ele>141.0</ele><time>2026-05-01T09:40:14Z</time></trkpt><trkpt lat="44.60044896527261" lon="1.0301386723811514"><ele>141.0</ele><time>2026-05-01T09:40:15Z</time></trkpt><trkpt lat="44.60034559441535" lon="1.0300937623752637"><ele>141.0</ele><time>2026-05-01T09:40:16Z</time></trkpt><trkpt lat="44.600264622799635" lon="1.030029438564845"><ele>141.0</ele><time>2026-05-01T09:40:17Z</time></trkpt><trkpt lat="44.600138477302835" lon="1.030002599981463"><ele>141.0</ele><time>2026-05-01T09:40:18Z</time></trkpt><trkpt lat="44.60001790196479" lon="1.029933514568901"><ele>138.25</ele><time>2026-05-01T09:40:19Z</time></trkpt><trkpt lat="44.5999024694673" lon="1.029842652332661"><ele>135.5</ele><time>2026-05-01T09:40:20Z</time></trkpt><trkpt lat="44.599794516326185" lon="1.0297781084117192"><ele>132.75</ele><time>2026-05-01T09:40:21Z</time></trkpt><trkpt lat="44.599683409472924" lon="1.0296972214213624"><ele>130.0</ele><time>2026-05-01T09:40:22Z</time></trkpt><trkpt lat="44.59957181482455" lon="1.0296345326553211"><ele>131.0</ele><time>2026-05-01T09:40:23Z</time></trkpt><trkpt lat="44.59945805192637" lon="1.0295801152229491"><ele>132.0</ele><time>2026-05-01T09:40:24Z</time></trkpt><trkpt lat="44.599341255782235" lon="1.0295493472895467"><ele>133.0</ele><time>2026-05-01T09:40:25Z</time></trkpt><trkpt lat="44.59924845269862" lon="1.0295682520544909"><ele>134.0</ele><time>2026-05-01T09:40:26Z</time></trkpt><trkpt lat="44.59915322184641" lon="1.0295473081543307"><ele>135.0</ele><time>2026-05-01T09:40:27Z</time></trkpt><trkpt lat="44.59906816419887" lon="1.029509336402427"><ele>135.0</ele><time>2026-05-01T09:40:28Z</time></trkpt><trkpt lat="44.599010271542326" lon="1.0294334509234577"><ele>135.0</ele><time>2026-05-01T09:40:30Z</time></trkpt><trkpt lat="44.598946225680486" lon="1.0293287314305322"><ele>135.0</ele><time>2026-05-01T09:40:31Z</time></trkpt><trkpt lat="44.59890925803069" lon="1.0292134290420694"><ele>135.0</ele><time>2026-05-01T09:40:32Z</time></trkpt><trkpt lat="44.59887946890512" lon="1.0291247385171165"><ele>135.0</ele><time>2026-05-01T09:40:33Z</time></trkpt><trkpt lat="44.59884098050212" lon="1.0290065543342988"><ele>135.0</ele><time>2026-05-01T09:40:34Z</time></trkpt><trkpt lat="44.59879497615219" lon="1.0289121785686666"><ele>134.0</ele><time>2026-05-01T09:40:35Z</time></trkpt><trkpt lat="44.59875733258951" lon="1.028799967241479"><ele>133.0</ele><time>2026-05-01T09:40:36.001Z</time></trkpt><trkpt lat="44.59872536091669" lon="1.028680752374789"><ele>132.0</ele><time>2026-05-01T09:40:37.001Z</time></trkpt><trkpt lat="44.59867949036492" lon="1.0285528605678318"><ele>131.0</ele><time>2026-05-01T09:40:38.001Z</time></trkpt><trkpt lat="44.598646326908224" lon="1.02840669201803"><ele>130.0</ele><time>2026-05-01T09:40:39.001Z</time></trkpt><trkpt lat="44.59862949340478" lon="1.0282496580463978"><ele>130.33333333333334</ele><time>2026-05-01T09:40:40.001Z</time></trkpt><trkpt lat="44.598608357538595" lon="1.0281103573768993"><ele>130.66666666666669</ele><time>2026-05-01T09:40:41.001Z</time></trkpt><trkpt lat="44.598605356436686" lon="1.0280103258423352"><ele>131.0</ele><time>2026-05-01T09:40:42.001Z</time></trkpt><trkpt lat="44.598615540439525" lon="1.0278877570524965"><ele>131.33333333333334</ele><time>2026-05-01T09:40:43.001Z</time></trkpt><trkpt lat="44.59862511269279" lon="1.0277817033233323"><ele>131.66666666666666</ele><time>2026-05-01T09:40:44.001Z</time></trkpt><trkpt lat="44.59864905064095" lon="1.0276911401877724"><ele>132.0</ele><time>2026-05-01T09:40:45.001Z</time></trkpt><trkpt lat="44.59871933055209" lon="1.0275595075565898"><ele>133.6</ele><time>2026-05-01T09:40:47.001Z</time></trkpt><trkpt lat="44.59876147366373" lon="1.027469551767755"><ele>135.2</ele><time>2026-05-01T09:40:48.001Z</time></trkpt><trkpt lat="44.59880800949269" lon="1.0273760781297594"><ele>136.8</ele><time>2026-05-01T09:40:49.001Z</time></trkpt><trkpt lat="44.59882756485701" lon="1.0272296371787886"><ele>138.4</ele><time>2026-05-01T09:40:51.001Z</time></trkpt><trkpt lat="44.59889219919299" lon="1.0270913046579957"><ele>140.0</ele><time>2026-05-01T09:40:53.001Z</time></trkpt><trkpt lat="44.598945722477694" lon="1.0269285380981736"><ele>140.0</ele><time>2026-05-01T09:40:55.001Z</time></trkpt><trkpt lat="44.59898166974723" lon="1.026811639350386"><ele>140.0</ele><time>2026-05-01T09:40:56.001Z</time></trkpt><trkpt lat="44.599005574455965" lon="1.026663080992071"><ele>140.0</ele><time>2026-05-01T09:40:57.001Z</time></trkpt><trkpt lat="44.59905166442143" lon="1.0265782777572767"><ele>140.0</ele><time>2026-05-01T09:40:58.001Z</time></trkpt><trkpt lat="44.599107164604234" lon="1.0264498549155654"><ele>140.0</ele><time>2026-05-01T09:40:59.001Z</time></trkpt><trkpt lat="44.59915581169519" lon="1.0263182772834807"><ele>140.16666666666666</ele><time>2026-05-01T09:41:00.001Z</time></trkpt><trkpt lat="44.59919899330712" lon="1.02619118971611"><ele>140.33333333333331</ele><time>2026-05-01T09:41:01.001Z</time></trkpt><trkpt lat="44.59924960690561" lon="1.0261075052226922"><ele>140.5</ele><time>2026-05-01T09:41:02.001Z</time></trkpt><trkpt lat="44.599297411233835" lon="1.0260257274467242"><ele>140.66666666666666</ele><time>2026-05-01T09:41:03.001Z</time></trkpt><trkpt lat="44.59934449458385" lon="1.0259641044254104"><ele>140.83333333333334</ele><time>2026-05-01T09:41:04.001Z</time></trkpt><trkpt lat="44.59937613616814" lon="1.0258663401725598"><ele>141.0</ele><time>2026-05-01T09:41:05.001Z</time></trkpt><trkpt lat="44.59941576659557" lon="1.0257484621545652"><ele>141.0</ele><time>2026-05-01T09:41:06.001Z</time></trkpt><trkpt lat="44.599459895550154" lon="1.0256246129266904"><ele>141.0</ele><time>2026-05-01T09:41:07.001Z</time></trkpt><trkpt lat="44.59947058533708" lon="1.025507135687204"><ele>141.0</ele><time>2026-05-01T09:41:08.001Z</time></trkpt><trkpt lat="44.599503059288125" lon="1.0253713844797512"><ele>141.0</ele><time>2026-05-01T09:41:10.001Z</time></trkpt><trkpt lat="44.59948085263093" lon="1.025280969308738"><ele>141.0</ele><time>2026-05-01T09:41:11.001Z</time></trkpt><trkpt lat="44.59947661559421" lon="1.0251624034117806"><ele>141.0</ele><time>2026-05-01T09:41:12.001Z</time></trkpt><trkpt lat="44.59945784579975" lon="1.0250309590471942"><ele>138.75</ele><time>2026-05-01T09:41:14.001Z</time></trkpt><trkpt lat="44.59939389921202" lon="1.0249489920682149"><ele>136.5</ele><time>2026-05-01T09:41:15.001Z</time></trkpt><trkpt lat="44.59930520188156" lon="1.0248794386501752"><ele>134.25</ele><time>2026-05-01T09:41:16.001Z</time></trkpt><trkpt lat="44.599163933946436" lon="1.024781921622219"><ele>132.0</ele><time>2026-05-01T09:41:18.001Z</time></trkpt><trkpt lat="44.59907304772802" lon="1.0246900463238953"><ele>132.0</ele><time>2026-05-01T09:41:19.001Z</time></trkpt><trkpt lat="44.59897888006934" lon="1.0246239445894523"><ele>132.0</ele><time>2026-05-01T09:41:20.001Z</time></trkpt><trkpt lat="44.598901073877116" lon="1.0245460026017197"><ele>132.0</ele><time>2026-05-01T09:41:21Z</time></trkpt><trkpt lat="44.598828679639496" lon="1.0244824274857767"><ele>132.0</ele><time>2026-05-01T09:41:22Z</time></trkpt><trkpt lat="44.5987453315492" lon="1.0244033023415398"><ele>132.0</ele><time>2026-05-01T09:41:23Z</time></trkpt><trkpt lat="44.59865355962567" lon="1.0243351960882063"><ele>133.4</ele><time>2026-05-01T09:41:24Z</time></trkpt><trkpt lat="44.59857259223734" lon="1.0242739936782839"><ele>134.79999999999998</ele><time>2026-05-01T09:41:25Z</time></trkpt><trkpt lat="44.59848973937784" lon="1.0242176061461115"><ele>136.2</ele><time>2026-05-01T09:41:26Z</time></trkpt><trkpt lat="44.59840369443318" lon="1.0241749748033122"><ele>137.6</ele><time>2026-05-01T09:41:27Z</time></trkpt><trkpt lat="44.598338632916324" lon="1.0241268474991174"><ele>139.0</ele><time>2026-05-01T09:41:28Z</time></trkpt><trkpt lat="44.59820507503845" lon="1.0240955632028816"><ele>139.0</ele><time>2026-05-01T09:41:30Z</time></trkpt><trkpt lat="44.59810721497564" lon="1.0240793123003828"><ele>139.0</ele><time>2026-05-01T09:41:31Z</time></trkpt><trkpt lat="44.59803007987228" lon="1.024068621008303"><ele>139.0</ele><time>2026-05-01T09:41:33Z</time></trkpt><trkpt lat="44.59796548701557" lon="1.0240837339697195"><ele>139.0</ele><time>2026-05-01T09:41:34Z</time></trkpt><trkpt lat="44.5978934689423" lon="1.0240748408451903"><ele>139.0</ele><time>2026-05-01T09:41:35Z</time></trkpt><trkpt lat="44.5978083856275" lon="1.0240585691861235"><ele>139.0</ele><time>2026-05-01T09:41:36Z</time></trkpt><trkpt lat="44.59771892368066" lon="1.0240355922423932"><ele>138.28571428571428</ele><time>2026-05-01T09:41:37Z</time></trkpt><trkpt lat="44.59763775501018" lon="1.0240281823584803"><ele>137.57142857142858</ele><time>2026-05-01T09:41:38Z</time></trkpt><trkpt lat="44.59757332258723" lon="1.0240059170769291"><ele>136.85714285714286</ele><time>2026-05-01T09:41:39Z</time></trkpt><trkpt lat="44.59749809730921" lon="1.0239854566004558"><ele>136.14285714285714</ele><time>2026-05-01T09:41:40Z</time></trkpt><trkpt lat="44.597426200183506" lon="1.0239864043256774"><ele>135.42857142857142</ele><time>2026-05-01T09:41:41Z</time></trkpt><trkpt lat="44.597353210069954" lon="1.0239591784255093"><ele>134.71428571428572</ele><time>2026-05-01T09:41:42Z</time></trkpt><trkpt lat="44.597281770846294" lon="1.0239422310557995"><ele>134.0</ele><time>2026-05-01T09:41:43Z</time></trkpt><trkpt lat="44.597192423751935" lon="1.0238930277848755"><ele>134.0</ele><time>2026-05-01T09:41:44Z</time></trkpt><trkpt lat="44.5970845541169" lon="1.0238314215020574"><ele>134.0</ele><time>2026-05-01T09:41:45Z</time></trkpt><trkpt lat="44.59701436580681" lon="1.0237650772717164"><ele>134.0</ele><time>2026-05-01T09:41:46Z</time></trkpt><trkpt lat="44.59697126730192" lon="1.0236353776035343"><ele>134.0</ele><time>2026-05-01T09:41:48Z</time></trkpt><trkpt lat="44.596977305850245" lon="1.0234590928227285"><ele>134.0</ele><time>2026-05-01T09:41:50Z</time></trkpt><trkpt lat="44.59688761190482" lon="1.0234085601966894"><ele>134.5</ele><time>2026-05-01T09:41:52Z</time></trkpt><trkpt lat="44.596800567081694" lon="1.0234212373652078"><ele>135.0</ele><time>2026-05-01T09:41:54Z</time></trkpt><trkpt lat="44.596730995175015" lon="1.0234021483968918"><ele>135.5</ele><time>2026-05-01T09:42:05Z</time></trkpt><trkpt lat="44.596667255792646" lon="1.023398321544635"><ele>136.0</ele><time>2026-05-01T09:42:07Z</time></trkpt><trkpt lat="44.59659230521402" lon="1.0233851129248124"><ele>136.5</ele><time>2026-05-01T09:42:09Z</time></trkpt><trkpt lat="44.596478067922604" lon="1.023366327070282"><ele>137.0</ele><time>2026-05-01T09:42:11.001Z</time></trkpt><trkpt lat="44.59640901178329" lon="1.0233963068390837"><ele>137.0</ele><time>2026-05-01T09:42:12.001Z</time></trkpt><trkpt lat="44.59628402226315" lon="1.0234275812780622"><ele>137.0</ele><time>2026-05-01T09:42:14.001Z</time></trkpt><trkpt lat="44.59621799616386" lon="1.0234446983091365"><ele>137.0</ele><time>2026-05-01T09:42:15.001Z</time></trkpt><trkpt lat="44.59611771017014" lon="1.0234442169376483"><ele>137.0</ele><time>2026-05-01T09:42:17.001Z</time></trkpt><trkpt lat="44.59598840523649" lon="1.023451212248841"><ele>137.0</ele><time>2026-05-01T09:42:19.001Z</time></trkpt><trkpt lat="44.595873139792" lon="1.023527229209888"><ele>136.83333333333331</ele><time>2026-05-01T09:42:21.001Z</time></trkpt><trkpt lat="44.59582046586381" lon="1.023603497631998"><ele>136.66666666666666</ele><time>2026-05-01T09:42:22.001Z</time></trkpt><trkpt lat="44.59577493521299" lon="1.0236725068821066"><ele>136.5</ele><time>2026-05-01T09:42:23.001Z</time></trkpt><trkpt lat="44.59571838819864" lon="1.0237674351108785"><ele>136.33333333333334</ele><time>2026-05-01T09:42:24.001Z</time></trkpt><trkpt lat="44.595689854461284" lon="1.023852364729844"><ele>136.16666666666669</ele><time>2026-05-01T09:42:25.001Z</time></trkpt><trkpt lat="44.59564459200227" lon="1.0239365405363918"><ele>136.0</ele><time>2026-05-01T09:42:26.001Z</time></trkpt><trkpt lat="44.59556757386028" lon="1.0239977554549033"><ele>136.0</ele><time>2026-05-01T09:42:27.001Z</time></trkpt><trkpt lat="44.59549156154023" lon="1.024043224665445"><ele>136.0</ele><time>2026-05-01T09:42:28.001Z</time></trkpt><trkpt lat="44.59543610995063" lon="1.02410198820103"><ele>136.0</ele><time>2026-05-01T09:42:29.001Z</time></trkpt><trkpt lat="44.59535694271833" lon="1.0241451235305339"><ele>136.0</ele><time>2026-05-01T09:42:30.001Z</time></trkpt><trkpt lat="44.59526820203229" lon="1.0242105382869486"><ele>136.0</ele><time>2026-05-01T09:42:31.001Z</time></trkpt><trkpt lat="44.595180072293566" lon="1.0242572740178357"><ele>136.0</ele><time>2026-05-01T09:42:32.001Z</time></trkpt><trkpt lat="44.59508680566412" lon="1.0242771341039292"><ele>136.83333333333334</ele><time>2026-05-01T09:42:33.001Z</time></trkpt><trkpt lat="44.594995608914346" lon="1.0242919364833258"><ele>137.66666666666669</ele><time>2026-05-01T09:42:34.001Z</time></trkpt><trkpt lat="44.59492021217072" lon="1.0243226635686296"><ele>138.5</ele><time>2026-05-01T09:42:35.001Z</time></trkpt><trkpt lat="44.594824532012126" lon="1.0243603119128277"><ele>139.33333333333334</ele><time>2026-05-01T09:42:36.001Z</time></trkpt><trkpt lat="44.59473003060617" lon="1.0244211315363962"><ele>140.16666666666666</ele><time>2026-05-01T09:42:37.001Z</time></trkpt><trkpt lat="44.59467078553068" lon="1.024455128376394"><ele>141.0</ele><time>2026-05-01T09:42:38.001Z</time></trkpt><trkpt lat="44.59457858058966" lon="1.024479718179595"><ele>141.16666666666666</ele><time>2026-05-01T09:42:39.001Z</time></trkpt><trkpt lat="44.594495452256886" lon="1.0244638028605435"><ele>141.33333333333334</ele><time>2026-05-01T09:42:40.001Z</time></trkpt><trkpt lat="44.594419550178856" lon="1.0244007786026066"><ele>141.5</ele><time>2026-05-01T09:42:41.001Z</time></trkpt><trkpt lat="44.59435977133289" lon="1.0244337585818548"><ele>141.66666666666669</ele><time>2026-05-01T09:42:42.001Z</time></trkpt><trkpt lat="44.59428373992986" lon="1.0243984238708308"><ele>141.83333333333334</ele><time>2026-05-01T09:42:43.001Z</time></trkpt><trkpt lat="44.59419878578578" lon="1.0243289861898288"><ele>142.0</ele><time>2026-05-01T09:42:44.001Z</time></trkpt><trkpt lat="44.59409356746068" lon="1.0242757602523307"><ele>142.0</ele><time>2026-05-01T09:42:45.001Z</time></trkpt><trkpt lat="44.59402774346117" lon="1.0241809855358985"><ele>142.0</ele><time>2026-05-01T09:42:46.001Z</time></trkpt><trkpt lat="44.59393342567845" lon="1.0240648585104564"><ele>142.0</ele><time>2026-05-01T09:42:47.001Z</time></trkpt><trkpt lat="44.59385327867815" lon="1.0239813454507842"><ele>142.0</ele><time>2026-05-01T09:42:48.001Z</time></trkpt><trkpt lat="44.593789567666136" lon="1.0239086407804068"><ele>142.0</ele><time>2026-05-01T09:42:49.001Z</time></trkpt><trkpt lat="44.59374222863706" lon="1.0238251056427883"><ele>140.85714285714286</ele><time>2026-05-01T09:42:50.001Z</time></trkpt><trkpt lat="44.593717056031046" lon="1.0237413568820468"><ele>139.7142857142857</ele><time>2026-05-01T09:42:52.001Z</time></trkpt><trkpt lat="44.59366312613715" lon="1.0236914956678733"><ele>138.57142857142856</ele><time>2026-05-01T09:43:00.001Z</time></trkpt><trkpt lat="44.5936396354557" lon="1.0235845330622408"><ele>137.42857142857142</ele><time>2026-05-01T09:43:03.001Z</time></trkpt><trkpt lat="44.59359989257997" lon="1.0235054313013068"><ele>136.28571428571428</ele><time>2026-05-01T09:43:04.001Z</time></trkpt><trkpt lat="44.59357398894389" lon="1.0234170797163302"><ele>135.14285714285714</ele><time>2026-05-01T09:43:05.001Z</time></trkpt><trkpt lat="44.59355278066941" lon="1.0233119350501556"><ele>134.0</ele><time>2026-05-01T09:43:06.001Z</time></trkpt><trkpt lat="44.59352272432804" lon="1.0231896020883249"><ele>137.8</ele><time>2026-05-01T09:43:07.001Z</time></trkpt><trkpt lat="44.593500688075515" lon="1.0230627720653367"><ele>141.60000000000002</ele><time>2026-05-01T09:43:08.001Z</time></trkpt><trkpt lat="44.59352886950903" lon="1.0229413898679762"><ele>145.4</ele><time>2026-05-01T09:43:09.001Z</time></trkpt><trkpt lat="44.593561515552445" lon="1.0228284183509695"><ele>149.20000000000002</ele><time>2026-05-01T09:43:10.001Z</time></trkpt><trkpt lat="44.59358474732352" lon="1.022709303098734"><ele>153.0</ele><time>2026-05-01T09:43:11.001Z</time></trkpt><trkpt lat="44.593611879160036" lon="1.0225569741131186"><ele>151.16666666666666</ele><time>2026-05-01T09:43:12.001Z</time></trkpt><trkpt lat="44.5936368778504" lon="1.022433927511935"><ele>149.33333333333334</ele><time>2026-05-01T09:43:13.001Z</time></trkpt><trkpt lat="44.59365210414268" lon="1.022318831786928"><ele>147.5</ele><time>2026-05-01T09:43:14.001Z</time></trkpt><trkpt lat="44.5936520322741" lon="1.0222097883051582"><ele>145.66666666666669</ele><time>2026-05-01T09:43:15.001Z</time></trkpt><trkpt lat="44.593640610991805" lon="1.0221003387868564"><ele>143.83333333333334</ele><time>2026-05-01T09:43:16.001Z</time></trkpt><trkpt lat="44.593643757457485" lon="1.021961354032807"><ele>142.0</ele><time>2026-05-01T09:43:17.001Z</time></trkpt><trkpt lat="44.59360485997843" lon="1.021808685577606"><ele>142.0</ele><time>2026-05-01T09:43:18.001Z</time></trkpt><trkpt lat="44.59356856716858" lon="1.0216905210425973"><ele>142.0</ele><time>2026-05-01T09:43:19.001Z</time></trkpt><trkpt lat="44.59349945759843" lon="1.0215346681268724"><ele>142.0</ele><time>2026-05-01T09:43:20.001Z</time></trkpt><trkpt lat="44.59346358575525" lon="1.0214015833651988"><ele>142.0</ele><time>2026-05-01T09:43:21.001Z</time></trkpt><trkpt lat="44.59343027549329" lon="1.021285029318166"><ele>142.0</ele><time>2026-05-01T09:43:22.001Z</time></trkpt><trkpt lat="44.59338458608245" lon="1.0211787595599189"><ele>140.16666666666669</ele><time>2026-05-01T09:43:23.001Z</time></trkpt><trkpt lat="44.593358058811546" lon="1.021091887194468"><ele>138.33333333333334</ele><time>2026-05-01T09:43:24.001Z</time></trkpt><trkpt lat="44.59333980227533" lon="1.0210024227585526"><ele>136.5</ele><time>2026-05-01T09:43:25.001Z</time></trkpt><trkpt lat="44.59329011886679" lon="1.0209091352170987"><ele>134.66666666666666</ele><time>2026-05-01T09:43:27.001Z</time></trkpt><trkpt lat="44.59320048115173" lon="1.0209007012039888"><ele>132.83333333333331</ele><time>2026-05-01T09:43:29.001Z</time></trkpt><trkpt lat="44.59313499999915" lon="1.0209204318256186"><ele>131.0</ele><time>2026-05-01T09:43:30.001Z</time></trkpt><trkpt lat="44.593015651209605" lon="1.020945171395451"><ele>131.0</ele><time>2026-05-01T09:43:32.001Z</time></trkpt><trkpt lat="44.59287554354643" lon="1.0209927934313092"><ele>131.0</ele><time>2026-05-01T09:43:34.001Z</time></trkpt><trkpt lat="44.59279300968233" lon="1.0209912645543706"><ele>131.0</ele><time>2026-05-01T09:43:35.001Z</time></trkpt><trkpt lat="44.592697930963" lon="1.0209927621684591"><ele>131.0</ele><time>2026-05-01T09:43:36.001Z</time></trkpt><trkpt lat="44.59260759635736" lon="1.0209359637322835"><ele>131.0</ele><time>2026-05-01T09:43:37.001Z</time></trkpt><trkpt lat="44.59248682793759" lon="1.0208265881939027"><ele>131.2</ele><time>2026-05-01T09:43:39.001Z</time></trkpt><trkpt lat="44.592415019183136" lon="1.0207235320497505"><ele>131.39999999999998</ele><time>2026-05-01T09:43:40.001Z</time></trkpt><trkpt lat="44.592355072468706" lon="1.0206084205221992"><ele>131.6</ele><time>2026-05-01T09:43:41.001Z</time></trkpt><trkpt lat="44.59229472932429" lon="1.0204747837100634"><ele>131.79999999999998</ele><time>2026-05-01T09:43:42Z</time></trkpt><trkpt lat="44.59224971006816" lon="1.020338858861584"><ele>132.0</ele><time>2026-05-01T09:43:43Z</time></trkpt><trkpt lat="44.59220847482978" lon="1.0201913494410524"><ele>132.0</ele><time>2026-05-01T09:43:44Z</time></trkpt><trkpt lat="44.592176814680364" lon="1.0200037871095424"><ele>132.0</ele><time>2026-05-01T09:43:45Z</time></trkpt><trkpt lat="44.592127280799154" lon="1.019847961459669"><ele>132.0</ele><time>2026-05-01T09:43:46Z</time></trkpt><trkpt lat="44.59209438629912" lon="1.0196650046144757"><ele>132.0</ele><time>2026-05-01T09:43:47Z</time></trkpt><trkpt lat="44.59207958429518" lon="1.0195071993983134"><ele>131.0</ele><time>2026-05-01T09:43:48Z</time></trkpt><trkpt lat="44.59206462578812" lon="1.0193506752827544"><ele>130.0</ele><time>2026-05-01T09:43:49Z</time></trkpt><trkpt lat="44.592026298059466" lon="1.0191978473238974"><ele>129.0</ele><time>2026-05-01T09:43:50Z</time></trkpt><trkpt lat="44.59200372901619" lon="1.0190466918898833"><ele>128.0</ele><time>2026-05-01T09:43:51Z</time></trkpt><trkpt lat="44.591992536860744" lon="1.0188745924103755"><ele>128.4</ele><time>2026-05-01T09:43:52Z</time></trkpt><trkpt lat="44.59198037427575" lon="1.0187107477194342"><ele>128.8</ele><time>2026-05-01T09:43:53Z</time></trkpt><trkpt lat="44.59199281627282" lon="1.0185887775937943"><ele>129.2</ele><time>2026-05-01T09:43:54Z</time></trkpt><trkpt lat="44.59199483600906" lon="1.018459034828332"><ele>129.6</ele><time>2026-05-01T09:43:55Z</time></trkpt><trkpt lat="44.591993396651674" lon="1.0183581322974593"><ele>130.0</ele><time>2026-05-01T09:43:56Z</time></trkpt><trkpt lat="44.59199470243144" lon="1.018235150714535"><ele>130.0</ele><time>2026-05-01T09:43:57Z</time></trkpt><trkpt lat="44.59196466273304" lon="1.018147921552087"><ele>130.0</ele><time>2026-05-01T09:43:58Z</time></trkpt><trkpt lat="44.59191611306809" lon="1.0180573255539314"><ele>130.0</ele><time>2026-05-01T09:43:59Z</time></trkpt><trkpt lat="44.59182925714692" lon="1.017962710522007"><ele>130.0</ele><time>2026-05-01T09:44:00Z</time></trkpt><trkpt lat="44.591769733497294" lon="1.0178477774245176"><ele>130.0</ele><time>2026-05-01T09:44:01Z</time></trkpt><trkpt lat="44.59172988611558" lon="1.0176960480285173"><ele>130.0</ele><time>2026-05-01T09:44:02Z</time></trkpt><trkpt lat="44.59167812848097" lon="1.0175520001435967"><ele>130.0</ele><time>2026-05-01T09:44:03Z</time></trkpt><trkpt lat="44.59160872769394" lon="1.0174610808014974"><ele>130.0</ele><time>2026-05-01T09:44:04Z</time></trkpt><trkpt lat="44.59154822075224" lon="1.0173766023319393"><ele>130.0</ele><time>2026-05-01T09:44:05Z</time></trkpt><trkpt lat="44.59148253614679" lon="1.0172902076065422"><ele>130.0</ele><time>2026-05-01T09:44:06Z</time></trkpt><trkpt lat="44.59139941145277" lon="1.01722881001473"><ele>129.0</ele><time>2026-05-01T09:44:07Z</time></trkpt><trkpt lat="44.59129178960993" lon="1.0171328432081892"><ele>128.0</ele><time>2026-05-01T09:44:08Z</time></trkpt><trkpt lat="44.59118648404211" lon="1.0170401056025207"><ele>127.0</ele><time>2026-05-01T09:44:09Z</time></trkpt><trkpt lat="44.59109951811814" lon="1.0169550212914091"><ele>126.0</ele><time>2026-05-01T09:44:10Z</time></trkpt><trkpt lat="44.59103330799669" lon="1.0168917703205191"><ele>125.0</ele><time>2026-05-01T09:44:11Z</time></trkpt><trkpt lat="44.59096071008136" lon="1.016858569017633"><ele>125.0</ele><time>2026-05-01T09:44:12Z</time></trkpt><trkpt lat="44.59089737615628" lon="1.016845002926377"><ele>125.0</ele><time>2026-05-01T09:44:13Z</time></trkpt><trkpt lat="44.59080174343384" lon="1.0168460682171756"><ele>125.0</ele><time>2026-05-01T09:44:14Z</time></trkpt><trkpt lat="44.590729303513086" lon="1.0168488077256999"><ele>125.0</ele><time>2026-05-01T09:44:15Z</time></trkpt><trkpt lat="44.59061802652706" lon="1.016896838125903"><ele>125.0</ele><time>2026-05-01T09:44:16Z</time></trkpt><trkpt lat="44.59051643247638" lon="1.016936198381787"><ele>125.0</ele><time>2026-05-01T09:44:17Z</time></trkpt><trkpt lat="44.59042601863655" lon="1.0169705433592542"><ele>125.0</ele><time>2026-05-01T09:44:18Z</time></trkpt><trkpt lat="44.590329649822934" lon="1.0169531181850473"><ele>125.0</ele><time>2026-05-01T09:44:19Z</time></trkpt><trkpt lat="44.59023415111558" lon="1.0168876701663947"><ele>125.0</ele><time>2026-05-01T09:44:20Z</time></trkpt><trkpt lat="44.59015080072183" lon="1.0168249425109175"><ele>125.0</ele><time>2026-05-01T09:44:21Z</time></trkpt><trkpt lat="44.59008177656997" lon="1.0167745201309824"><ele>125.16666666666666</ele><time>2026-05-01T09:44:22Z</time></trkpt><trkpt lat="44.59000864527231" lon="1.0167289128480672"><ele>125.33333333333333</ele><time>2026-05-01T09:44:23Z</time></trkpt><trkpt lat="44.58994252703854" lon="1.0166926003734347"><ele>125.5</ele><time>2026-05-01T09:44:24Z</time></trkpt><trkpt lat="44.58987942374838" lon="1.016670448436307"><ele>125.66666666666666</ele><time>2026-05-01T09:44:25Z</time></trkpt><trkpt lat="44.58980373434625" lon="1.016641183064809"><ele>125.83333333333333</ele><time>2026-05-01T09:44:27Z</time></trkpt><trkpt lat="44.58980890493113" lon="1.0165473959252773"><ele>126.0</ele><time>2026-05-01T09:48:42Z</time></trkpt><trkpt lat="44.589782929018455" lon="1.01639551511018"><ele>126.16666666666667</ele><time>2026-05-01T09:48:44Z</time></trkpt><trkpt lat="44.589765016239305" lon="1.0162976654419376"><ele>126.33333333333334</ele><time>2026-05-01T09:48:45Z</time></trkpt><trkpt lat="44.589738185406006" lon="1.0161837224331889"><ele>126.5</ele><time>2026-05-01T09:48:46Z</time></trkpt><trkpt lat="44.589696449851346" lon="1.0160795123902422"><ele>126.66666666666667</ele><time>2026-05-01T09:48:47Z</time></trkpt><trkpt lat="44.5896401456989" lon="1.0159793357699352"><ele>126.83333333333334</ele><time>2026-05-01T09:48:48Z</time></trkpt><trkpt lat="44.589571305916955" lon="1.0158838640168284"><ele>127.0</ele><time>2026-05-01T09:48:49Z</time></trkpt><trkpt lat="44.58949737890913" lon="1.0157931801474727"><ele>127.0</ele><time>2026-05-01T09:48:50Z</time></trkpt><trkpt lat="44.58942645097822" lon="1.0157064754704912"><ele>126.99999999999999</ele><time>2026-05-01T09:48:51Z</time></trkpt><trkpt lat="44.589358714357395" lon="1.015605643235519"><ele>126.99999999999999</ele><time>2026-05-01T09:48:52Z</time></trkpt><trkpt lat="44.58929948075149" lon="1.0155211831432585"><ele>127.0</ele><time>2026-05-01T09:48:53Z</time></trkpt><trkpt lat="44.58922858102753" lon="1.0154091895418251"><ele>127.0</ele><time>2026-05-01T09:48:55Z</time></trkpt><trkpt lat="44.589302538829116" lon="1.0152779886733738"><ele>127.00000000000001</ele><time>2026-05-01T09:48:58Z</time></trkpt><trkpt lat="44.589367091775884" lon="1.0152522674112445"><ele>127.0</ele><time>2026-05-01T09:48:59Z</time></trkpt><trkpt lat="44.58942328908662" lon="1.0151770799135214"><ele>127.0</ele><time>2026-05-01T09:49:00Z</time></trkpt><trkpt lat="44.589470649169826" lon="1.0150787443495783"><ele>127.0</ele><time>2026-05-01T09:49:01Z</time></trkpt><trkpt lat="44.5895106766171" lon="1.0149555026956658"><ele>127.00000000000001</ele><time>2026-05-01T09:49:02Z</time></trkpt><trkpt lat="44.58953636311331" lon="1.0148485625754826"><ele>127.0</ele><time>2026-05-01T09:49:03Z</time></trkpt><trkpt lat="44.589569131923106" lon="1.0147523347699972"><ele>126.57142857142858</ele><time>2026-05-01T09:49:04Z</time></trkpt><trkpt lat="44.58962031564932" lon="1.0146849440025518"><ele>126.14285714285714</ele><time>2026-05-01T09:49:05.001Z</time></trkpt><trkpt lat="44.58967394222866" lon="1.0146108925018456"><ele>125.71428571428572</ele><time>2026-05-01T09:49:06.001Z</time></trkpt><trkpt lat="44.58971978452413" lon="1.0145431460240126"><ele>125.28571428571429</ele><time>2026-05-01T09:49:07.001Z</time></trkpt><trkpt lat="44.58976019260769" lon="1.014465137300722"><ele>124.85714285714286</ele><time>2026-05-01T09:49:08.001Z</time></trkpt><trkpt lat="44.589803586716776" lon="1.0143718228677803"><ele>124.42857142857143</ele><time>2026-05-01T09:49:09.001Z</time></trkpt><trkpt lat="44.58986103505526" lon="1.0142758840936033"><ele>124.0</ele><time>2026-05-01T09:49:10.001Z</time></trkpt><trkpt lat="44.58991876509845" lon="1.0141725266484767"><ele>123.6</ele><time>2026-05-01T09:49:11.001Z</time></trkpt><trkpt lat="44.589975752094446" lon="1.014073710374979"><ele>123.2</ele><time>2026-05-01T09:49:12.001Z</time></trkpt><trkpt lat="44.590034890980704" lon="1.0139628622160521"><ele>122.79999999999998</ele><time>2026-05-01T09:49:13.001Z</time></trkpt><trkpt lat="44.590105274305664" lon="1.0138473103339094"><ele>122.39999999999999</ele><time>2026-05-01T09:49:14.001Z</time></trkpt><trkpt lat="44.59016054866889" lon="1.0137359362910132"><ele>122.0</ele><time>2026-05-01T09:49:15.001Z</time></trkpt><trkpt lat="44.59023306899362" lon="1.0136268049035635"><ele>122.0</ele><time>2026-05-01T09:49:16.001Z</time></trkpt><trkpt lat="44.5903074755502" lon="1.0135120300129226"><ele>121.99999999999999</ele><time>2026-05-01T09:49:17.001Z</time></trkpt><trkpt lat="44.59038532028801" lon="1.013398231541736"><ele>121.99999999999999</ele><time>2026-05-01T09:49:18.001Z</time></trkpt><trkpt lat="44.590450886399275" lon="1.0133083203861342"><ele>122.0</ele><time>2026-05-01T09:49:19.001Z</time></trkpt><trkpt lat="44.59050912322496" lon="1.0132318780123233"><ele>122.0</ele><time>2026-05-01T09:49:20.001Z</time></trkpt><trkpt lat="44.59056661035624" lon="1.0131154535610876"><ele>121.8</ele><time>2026-05-01T09:49:22.001Z</time></trkpt><trkpt lat="44.590509686111574" lon="1.0130027718757477"><ele>121.6</ele><time>2026-05-01T09:49:24.001Z</time></trkpt><trkpt lat="44.59040889733207" lon="1.0129004877914722"><ele>121.39999999999999</ele><time>2026-05-01T09:49:26.001Z</time></trkpt><trkpt lat="44.59035346922327" lon="1.0128298222504628"><ele>121.19999999999999</ele><time>2026-05-01T09:49:27.001Z</time></trkpt><trkpt lat="44.59029405567569" lon="1.0127520550437115"><ele>121.0</ele><time>2026-05-01T09:49:28.001Z</time></trkpt><trkpt lat="44.590223003526575" lon="1.0126682543061611"><ele>121.0</ele><time>2026-05-01T09:49:29.001Z</time></trkpt><trkpt lat="44.59014933956933" lon="1.012580930712354"><ele>121.0</ele><time>2026-05-01T09:49:30.001Z</time></trkpt><trkpt lat="44.59007295795599" lon="1.0124925819217703"><ele>121.0</ele><time>2026-05-01T09:49:31.001Z</time></trkpt><trkpt lat="44.58998977557988" lon="1.0123956681520738"><ele>121.0</ele><time>2026-05-01T09:49:32.001Z</time></trkpt><trkpt lat="44.58990365618908" lon="1.0123033678356455"><ele>121.0</ele><time>2026-05-01T09:49:33.001Z</time></trkpt><trkpt lat="44.589819933456894" lon="1.012210051130088"><ele>121.0</ele><time>2026-05-01T09:49:34.001Z</time></trkpt><trkpt lat="44.589725048716744" lon="1.0121267676167978"><ele>121.0</ele><time>2026-05-01T09:49:35.001Z</time></trkpt><trkpt lat="44.589622788619685" lon="1.0120494870255343"><ele>121.0</ele><time>2026-05-01T09:49:36.001Z</time></trkpt><trkpt lat="44.58951864932249" lon="1.0119731022730556"><ele>121.0</ele><time>2026-05-01T09:49:37.001Z</time></trkpt><trkpt lat="44.589404628777736" lon="1.0119009082081647"><ele>121.0</ele><time>2026-05-01T09:49:38.001Z</time></trkpt><trkpt lat="44.58929821866166" lon="1.011804049335529"><ele>121.0</ele><time>2026-05-01T09:49:39.001Z</time></trkpt><trkpt lat="44.58919521683078" lon="1.0116850121078538"><ele>121.0</ele><time>2026-05-01T09:49:40.001Z</time></trkpt><trkpt lat="44.589105318736195" lon="1.0115534286639045"><ele>121.0</ele><time>2026-05-01T09:49:41.001Z</time></trkpt><trkpt lat="44.58901949218907" lon="1.0113897743046267"><ele>121.0</ele><time>2026-05-01T09:49:42.001Z</time></trkpt><trkpt lat="44.58894214974551" lon="1.011211428311047"><ele>121.0</ele><time>2026-05-01T09:49:43.001Z</time></trkpt><trkpt lat="44.58884319656807" lon="1.0110633935917859"><ele>121.0</ele><time>2026-05-01T09:49:44.001Z</time></trkpt><trkpt lat="44.588726459859465" lon="1.010924264081231"><ele>121.0</ele><time>2026-05-01T09:49:45Z</time></trkpt><trkpt lat="44.58861089893666" lon="1.0107959175520043"><ele>121.25</ele><time>2026-05-01T09:49:46Z</time></trkpt><trkpt lat="44.58849622923168" lon="1.0106635896808105"><ele>121.5</ele><time>2026-05-01T09:49:47Z</time></trkpt><trkpt lat="44.58838364499231" lon="1.0105291863803303"><ele>121.75</ele><time>2026-05-01T09:49:48Z</time></trkpt><trkpt lat="44.58827460088671" lon="1.010405474754665"><ele>122.0</ele><time>2026-05-01T09:49:49Z</time></trkpt><trkpt lat="44.5881569064082" lon="1.0102787707231335"><ele>122.0</ele><time>2026-05-01T09:49:50Z</time></trkpt><trkpt lat="44.588045374283666" lon="1.01015228347882"><ele>122.0</ele><time>2026-05-01T09:49:51Z</time></trkpt><trkpt lat="44.58793890438911" lon="1.0100259418433226"><ele>122.0</ele><time>2026-05-01T09:49:52Z</time></trkpt><trkpt lat="44.58782888974192" lon="1.0099001738621904"><ele>122.0</ele><time>2026-05-01T09:49:53Z</time></trkpt><trkpt lat="44.5877129846502" lon="1.0097791620947294"><ele>122.0</ele><time>2026-05-01T09:49:54Z</time></trkpt><trkpt lat="44.587596198014424" lon="1.0096471779858744"><ele>122.0</ele><time>2026-05-01T09:49:55Z</time></trkpt><trkpt lat="44.587488670620246" lon="1.0095145009366822"><ele>122.0</ele><time>2026-05-01T09:49:56Z</time></trkpt><trkpt lat="44.587377459708975" lon="1.0093738486822106"><ele>122.0</ele><time>2026-05-01T09:49:57Z</time></trkpt><trkpt lat="44.58726209042758" lon="1.0092298589698911"><ele>122.25</ele><time>2026-05-01T09:49:58Z</time></trkpt><trkpt lat="44.587155991996156" lon="1.0090928655229805"><ele>122.5</ele><time>2026-05-01T09:49:59Z</time></trkpt><trkpt lat="44.58703726565205" lon="1.008954482013508"><ele>122.75</ele><time>2026-05-01T09:50:00Z</time></trkpt><trkpt lat="44.58692557842376" lon="1.008822072007118"><ele>123.0</ele><time>2026-05-01T09:50:01Z</time></trkpt><trkpt lat="44.586814512014236" lon="1.0086812972660655"><ele>123.0</ele><time>2026-05-01T09:50:02Z</time></trkpt><trkpt lat="44.58670590675866" lon="1.008537371928057"><ele>123.0</ele><time>2026-05-01T09:50:03Z</time></trkpt><trkpt lat="44.586597915330294" lon="1.008394751000485"><ele>123.0</ele><time>2026-05-01T09:50:04Z</time></trkpt><trkpt lat="44.58649866206288" lon="1.00824340929114"><ele>123.0</ele><time>2026-05-01T09:50:05Z</time></trkpt><trkpt lat="44.58640243381808" lon="1.0080916556658914"><ele>122.5</ele><time>2026-05-01T09:50:06Z</time></trkpt><trkpt lat="44.58630489084096" lon="1.007946052557"><ele>122.0</ele><time>2026-05-01T09:50:07Z</time></trkpt><trkpt lat="44.586206634165876" lon="1.0077892645426911"><ele>121.5</ele><time>2026-05-01T09:50:08Z</time></trkpt><trkpt lat="44.586118721486734" lon="1.007633370933449"><ele>121.0</ele><time>2026-05-01T09:50:09Z</time></trkpt><trkpt lat="44.58603331671645" lon="1.0074587410137534"><ele>121.0</ele><time>2026-05-01T09:50:10Z</time></trkpt><trkpt lat="44.58595481432057" lon="1.007281437238031"><ele>121.0</ele><time>2026-05-01T09:50:11Z</time></trkpt><trkpt lat="44.58587834766831" lon="1.0070967273880207"><ele>121.0</ele><time>2026-05-01T09:50:12Z</time></trkpt><trkpt lat="44.585794349037165" lon="1.006912238562947"><ele>121.0</ele><time>2026-05-01T09:50:13Z</time></trkpt><trkpt lat="44.58571599249112" lon="1.0067245071710422"><ele>121.0</ele><time>2026-05-01T09:50:14Z</time></trkpt><trkpt lat="44.58564181936062" lon="1.0065295163796946"><ele>121.0</ele><time>2026-05-01T09:50:15Z</time></trkpt><trkpt lat="44.58556410344562" lon="1.0063572359198814"><ele>121.6</ele><time>2026-05-01T09:50:16Z</time></trkpt><trkpt lat="44.585492825404174" lon="1.006209902773103"><ele>122.19999999999999</ele><time>2026-05-01T09:50:17Z</time></trkpt><trkpt lat="44.58542739586087" lon="1.0060845406045063"><ele>122.80000000000001</ele><time>2026-05-01T09:50:18Z</time></trkpt><trkpt lat="44.58537022888623" lon="1.0059753932355195"><ele>123.4</ele><time>2026-05-01T09:50:19Z</time></trkpt><trkpt lat="44.58533585915706" lon="1.005875421318201"><ele>124.0</ele><time>2026-05-01T09:50:20Z</time></trkpt><trkpt lat="44.585322863090916" lon="1.0057384595553496"><ele>124.4</ele><time>2026-05-01T09:50:22Z</time></trkpt><trkpt lat="44.58543216352352" lon="1.005738038845315"><ele>124.80000000000001</ele><time>2026-05-01T09:50:23Z</time></trkpt><trkpt lat="44.58553825204415" lon="1.0056581878519883"><ele>125.19999999999999</ele><time>2026-05-01T09:50:25Z</time></trkpt><trkpt lat="44.58560395250658" lon="1.0056225788450384"><ele>125.6</ele><time>2026-05-01T09:50:26Z</time></trkpt><trkpt lat="44.58568106532723" lon="1.0055819351784474"><ele>126.0</ele><time>2026-05-01T09:50:27Z</time></trkpt><trkpt lat="44.5857614368075" lon="1.0055359035732574"><ele>126.0</ele><time>2026-05-01T09:50:28Z</time></trkpt><trkpt lat="44.58582228079165" lon="1.0054892032601073"><ele>126.0</ele><time>2026-05-01T09:50:29Z</time></trkpt><trkpt lat="44.58590513207183" lon="1.005452535902544"><ele>126.0</ele><time>2026-05-01T09:50:31Z</time></trkpt><trkpt lat="44.58583549392449" lon="1.0052417935745759"><ele>126.0</ele><time>2026-05-01T09:50:32Z</time></trkpt><trkpt lat="44.5857987842904" lon="1.0051511090225929"><ele>126.0</ele><time>2026-05-01T09:50:33Z</time></trkpt><trkpt lat="44.58576351491732" lon="1.005051762931791"><ele>126.4</ele><time>2026-05-01T09:50:34Z</time></trkpt><trkpt lat="44.58573120128235" lon="1.004957150431287"><ele>126.8</ele><time>2026-05-01T09:50:35Z</time></trkpt><trkpt lat="44.58568971260452" lon="1.004850241891707"><ele>127.20000000000002</ele><time>2026-05-01T09:50:36Z</time></trkpt><trkpt lat="44.58564481676032" lon="1.0047332708927565"><ele>127.60000000000001</ele><time>2026-05-01T09:50:37Z</time></trkpt><trkpt lat="44.585599311939106" lon="1.0045970235839752"><ele>128.0</ele><time>2026-05-01T09:50:38Z</time></trkpt><trkpt lat="44.58555434593534" lon="1.0044560432219491"><ele>128.0</ele><time>2026-05-01T09:50:39Z</time></trkpt><trkpt lat="44.58550478843383" lon="1.0043135754213082"><ele>128.0</ele><time>2026-05-01T09:50:40Z</time></trkpt><trkpt lat="44.58545683732301" lon="1.004204399709325"><ele>128.0</ele><time>2026-05-01T09:50:41Z</time></trkpt><trkpt lat="44.585417571480015" lon="1.0041142278023967"><ele>128.0</ele><time>2026-05-01T09:50:42Z</time></trkpt><trkpt lat="44.58541556405077" lon="1.0040098920165137"><ele>128.0</ele><time>2026-05-01T09:50:44Z</time></trkpt><trkpt lat="44.58552036055728" lon="1.0040030077866922"><ele>129.0</ele><time>2026-05-01T09:50:46Z</time></trkpt><trkpt lat="44.585599551667684" lon="1.0039562716824344"><ele>130.0</ele><time>2026-05-01T09:50:47Z</time></trkpt><trkpt lat="44.58569223505532" lon="1.0039336080003436"><ele>131.0</ele><time>2026-05-01T09:50:48Z</time></trkpt><trkpt lat="44.58578461778011" lon="1.0038899576533515"><ele>132.0</ele><time>2026-05-01T09:50:49Z</time></trkpt><trkpt lat="44.58589027035363" lon="1.0038550132226196"><ele>133.0</ele><time>2026-05-01T09:50:50Z</time></trkpt><trkpt lat="44.58601625158857" lon="1.0038172914452685"><ele>133.0</ele><time>2026-05-01T09:50:51Z</time></trkpt><trkpt lat="44.586131802127774" lon="1.003775339126411"><ele>133.0</ele><time>2026-05-01T09:50:52Z</time></trkpt><trkpt lat="44.586242670776215" lon="1.0037616661352715"><ele>133.0</ele><time>2026-05-01T09:50:54Z</time></trkpt><trkpt lat="44.58630739584609" lon="1.0037451060043359"><ele>133.0</ele><time>2026-05-01T09:50:55Z</time></trkpt><trkpt lat="44.58626169115986" lon="1.0036442251607618"><ele>133.0</ele><time>2026-05-01T09:50:58Z</time></trkpt><trkpt lat="44.58623521009308" lon="1.0035612383815427"><ele>133.0</ele><time>2026-05-01T09:50:59Z</time></trkpt><trkpt lat="44.5861957973314" lon="1.003475457706707"><ele>133.0</ele><time>2026-05-01T09:51:00Z</time></trkpt><trkpt lat="44.58614658686247" lon="1.0033878418951216"><ele>133.0</ele><time>2026-05-01T09:51:03Z</time></trkpt><trkpt lat="44.586110166117585" lon="1.003270904915257"><ele>133.0</ele><time>2026-05-01T09:51:05Z</time></trkpt><trkpt lat="44.58643623039363" lon="1.0028463233278568"><ele>135.20000000000002</ele><time>2026-05-01T09:51:06Z</time></trkpt><trkpt lat="44.58646788686898" lon="1.002734041287347"><ele>137.4</ele><time>2026-05-01T09:51:07Z</time></trkpt><trkpt lat="44.586519314174296" lon="1.0026617664931932"><ele>139.60000000000002</ele><time>2026-05-01T09:51:08Z</time></trkpt><trkpt lat="44.58659144844482" lon="1.0025322798268501"><ele>141.8</ele><time>2026-05-01T09:51:09Z</time></trkpt><trkpt lat="44.58663832886346" lon="1.002418048701268"><ele>144.0</ele><time>2026-05-01T09:51:10Z</time></trkpt><trkpt lat="44.5867083887816" lon="1.0023523101403415"><ele>144.0</ele><time>2026-05-01T09:51:11Z</time></trkpt><trkpt lat="44.58679001225993" lon="1.0023035247540129"><ele>144.0</ele><time>2026-05-01T09:51:12Z</time></trkpt><trkpt lat="44.58685132483504" lon="1.0022704312541575"><ele>144.0</ele><time>2026-05-01T09:51:13Z</time></trkpt><trkpt lat="44.58690319636811" lon="1.0022123823671716"><ele>144.0</ele><time>2026-05-01T09:51:14Z</time></trkpt><trkpt lat="44.586948457226896" lon="1.002091073663559"><ele>144.0</ele><time>2026-05-01T09:51:15Z</time></trkpt><trkpt lat="44.5870107480162" lon="1.0019433805499636"><ele>144.0</ele><time>2026-05-01T09:51:16Z</time></trkpt><trkpt lat="44.587072655299714" lon="1.001827163051003"><ele>146.2</ele><time>2026-05-01T09:51:17Z</time></trkpt><trkpt lat="44.58713626982293" lon="1.0017201161690552"><ele>148.4</ele><time>2026-05-01T09:51:18Z</time></trkpt><trkpt lat="44.58715491356081" lon="1.0016236101800597"><ele>150.6</ele><time>2026-05-01T09:51:19Z</time></trkpt><trkpt lat="44.587207892768426" lon="1.0015062691023768"><ele>152.8</ele><time>2026-05-01T09:51:20Z</time></trkpt><trkpt lat="44.58724852353394" lon="1.0013691634164503"><ele>155.0</ele><time>2026-05-01T09:51:21Z</time></trkpt><trkpt lat="44.5872981513253" lon="1.0012386942749198"><ele>155.0</ele><time>2026-05-01T09:51:22Z</time></trkpt><trkpt lat="44.58734662169111" lon="1.0010837846714054"><ele>155.0</ele><time>2026-05-01T09:51:23Z</time></trkpt><trkpt lat="44.58741318542616" lon="1.0009622927621662"><ele>155.0</ele><time>2026-05-01T09:51:24Z</time></trkpt><trkpt lat="44.58746731337694" lon="1.0008511998109069"><ele>155.0</ele><time>2026-05-01T09:51:25Z</time></trkpt><trkpt lat="44.587513730611605" lon="1.0007404936082958"><ele>155.0</ele><time>2026-05-01T09:51:26Z</time></trkpt><trkpt lat="44.58757107344339" lon="1.0005749842512366"><ele>153.25</ele><time>2026-05-01T09:51:27Z</time></trkpt><trkpt lat="44.587625289651854" lon="1.0004074426937568"><ele>151.5</ele><time>2026-05-01T09:51:28Z</time></trkpt><trkpt lat="44.587673114431325" lon="1.0002621143262735"><ele>149.75</ele><time>2026-05-01T09:51:29Z</time></trkpt><trkpt lat="44.5877160691649" lon="1.0000934836738482"><ele>148.0</ele><time>2026-05-01T09:51:30Z</time></trkpt><trkpt lat="44.587768023295624" lon="0.9999502938328854"><ele>148.0</ele><time>2026-05-01T09:51:31Z</time></trkpt><trkpt lat="44.58780770093814" lon="0.9997782020845655"><ele>148.0</ele><time>2026-05-01T09:51:32Z</time></trkpt><trkpt lat="44.58784868387325" lon="0.9996140207993821"><ele>148.0</ele><time>2026-05-01T09:51:33Z</time></trkpt><trkpt lat="44.58789592322185" lon="0.99945089425"><ele>148.0</ele><time>2026-05-01T09:51:34Z</time></trkpt><trkpt lat="44.587956515137456" lon="0.9992953593227671"><ele>152.4</ele><time>2026-05-01T09:51:35Z</time></trkpt><trkpt lat="44.58800094871615" lon="0.999147207368615"><ele>156.8</ele><time>2026-05-01T09:51:36Z</time></trkpt><trkpt lat="44.58804927412212" lon="0.9990087130278443"><ele>161.2</ele><time>2026-05-01T09:51:37Z</time></trkpt><trkpt lat="44.58809627831052" lon="0.9988718852502853"><ele>165.6</ele><time>2026-05-01T09:51:38Z</time></trkpt><trkpt lat="44.58815239246843" lon="0.998743104089229"><ele>170.0</ele><time>2026-05-01T09:51:39Z</time></trkpt><trkpt lat="44.5882158193582" lon="0.9985844051540917"><ele>170.0</ele><time>2026-05-01T09:51:40Z</time></trkpt><trkpt lat="44.58828693426271" lon="0.9984569934580543"><ele>170.0</ele><time>2026-05-01T09:51:41Z</time></trkpt><trkpt lat="44.58835640953892" lon="0.9983469349312183"><ele>170.0</ele><time>2026-05-01T09:51:42Z</time></trkpt><trkpt lat="44.58842750160979" lon="0.9982428038169748"><ele>170.0</ele><time>2026-05-01T09:51:43Z</time></trkpt><trkpt lat="44.588500373783994" lon="0.9981477852848775"><ele>170.0</ele><time>2026-05-01T09:51:44Z</time></trkpt><trkpt lat="44.58857352348123" lon="0.9980603923463525"><ele>171.25</ele><time>2026-05-01T09:51:45Z</time></trkpt><trkpt lat="44.58866422064662" lon="0.9979505112093033"><ele>172.5</ele><time>2026-05-01T09:51:46Z</time></trkpt><trkpt lat="44.588759157635955" lon="0.9978516844564549"><ele>173.75</ele><time>2026-05-01T09:51:47Z</time></trkpt><trkpt lat="44.58885678994395" lon="0.9977646935858602"><ele>175.0</ele><time>2026-05-01T09:51:48Z</time></trkpt><trkpt lat="44.58894805236222" lon="0.997668636884409"><ele>175.0</ele><time>2026-05-01T09:51:49Z</time></trkpt><trkpt lat="44.58902635998219" lon="0.9975627523499749"><ele>175.0</ele><time>2026-05-01T09:51:50Z</time></trkpt><trkpt lat="44.58909223838101" lon="0.9974463453857805"><ele>175.0</ele><time>2026-05-01T09:51:51Z</time></trkpt><trkpt lat="44.58916234014749" lon="0.9973478888622925"><ele>175.0</ele><time>2026-05-01T09:51:52Z</time></trkpt><trkpt lat="44.58923321888857" lon="0.9972732653828464"><ele>175.0</ele><time>2026-05-01T09:51:53Z</time></trkpt><trkpt lat="44.589291138826546" lon="0.997193585101818"><ele>173.2</ele><time>2026-05-01T09:51:54Z</time></trkpt><trkpt lat="44.58936491923535" lon="0.9971581774030022"><ele>171.4</ele><time>2026-05-01T09:51:55Z</time></trkpt><trkpt lat="44.5894634789168" lon="0.9971099458038244"><ele>169.60000000000002</ele><time>2026-05-01T09:51:56Z</time></trkpt><trkpt lat="44.58955224794732" lon="0.9970748934164522"><ele>167.8</ele><time>2026-05-01T09:51:57Z</time></trkpt><trkpt lat="44.58965330475975" lon="0.9970700861498184"><ele>166.0</ele><time>2026-05-01T09:51:58Z</time></trkpt><trkpt lat="44.58975629779629" lon="0.9970653052730449"><ele>166.0</ele><time>2026-05-01T09:51:59Z</time></trkpt><trkpt lat="44.58986725413773" lon="0.9970554832621032"><ele>166.0</ele><time>2026-05-01T09:52:00Z</time></trkpt><trkpt lat="44.58996066391968" lon="0.9970680890025894"><ele>166.0</ele><time>2026-05-01T09:52:01Z</time></trkpt><trkpt lat="44.59004854012735" lon="0.9970678975215056"><ele>166.0</ele><time>2026-05-01T09:52:03Z</time></trkpt><trkpt lat="44.59011698016058" lon="0.99697968012157"><ele>166.0</ele><time>2026-05-01T09:52:05Z</time></trkpt><trkpt lat="44.59018596526138" lon="0.9969572648883699"><ele>166.0</ele><time>2026-05-01T09:52:06Z</time></trkpt><trkpt lat="44.590266316340355" lon="0.9969405648145591"><ele>166.0</ele><time>2026-05-01T09:52:07Z</time></trkpt><trkpt lat="44.59037602143878" lon="0.9968817414833189"><ele>166.0</ele><time>2026-05-01T09:52:09Z</time></trkpt><trkpt lat="44.5904194485852" lon="0.9967318742171194"><ele>166.0</ele><time>2026-05-01T09:52:11Z</time></trkpt><trkpt lat="44.590429279742786" lon="0.996637301630272"><ele>166.0</ele><time>2026-05-01T09:52:12Z</time></trkpt><trkpt lat="44.59038427286569" lon="0.9964679423183795"><ele>164.0</ele><time>2026-05-01T09:52:14Z</time></trkpt><trkpt lat="44.590348742091216" lon="0.9963759223568278"><ele>162.0</ele><time>2026-05-01T09:52:15Z</time></trkpt><trkpt lat="44.590306060549935" lon="0.9962585420371519"><ele>160.0</ele><time>2026-05-01T09:52:16Z</time></trkpt><trkpt lat="44.59026504872237" lon="0.9961320484709963"><ele>158.0</ele><time>2026-05-01T09:52:17Z</time></trkpt><trkpt lat="44.590212924743874" lon="0.9960129120886798"><ele>156.0</ele><time>2026-05-01T09:52:18Z</time></trkpt><trkpt lat="44.59017006584512" lon="0.995918682929788"><ele>154.0</ele><time>2026-05-01T09:52:19Z</time></trkpt><trkpt lat="44.59013056481221" lon="0.9958468175871216"><ele>151.4</ele><time>2026-05-01T09:52:20Z</time></trkpt><trkpt lat="44.590175546814" lon="0.9957452238680153"><ele>148.8</ele><time>2026-05-01T09:52:23Z</time></trkpt><trkpt lat="44.59021691212748" lon="0.9956472649327406"><ele>146.2</ele><time>2026-05-01T09:52:25Z</time></trkpt><trkpt lat="44.590188058269774" lon="0.9954616450706957"><ele>143.6</ele><time>2026-05-01T09:52:27Z</time></trkpt><trkpt lat="44.59015429743626" lon="0.9953523407535515"><ele>141.0</ele><time>2026-05-01T09:52:28Z</time></trkpt><trkpt lat="44.590063519250556" lon="0.9952657639126571"><ele>141.0</ele><time>2026-05-01T09:52:30Z</time></trkpt><trkpt lat="44.59011245765872" lon="0.995199396271943"><ele>141.0</ele><time>2026-05-01T09:52:35Z</time></trkpt><trkpt lat="44.590169447278505" lon="0.9951226207238992"><ele>141.0</ele><time>2026-05-01T09:52:37Z</time></trkpt><trkpt lat="44.5902873117086" lon="0.9950770810906007"><ele>141.0</ele><time>2026-05-01T09:52:39Z</time></trkpt><trkpt lat="44.59035914268829" lon="0.995068505225798"><ele>141.0</ele><time>2026-05-01T09:52:40Z</time></trkpt><trkpt lat="44.59045171396981" lon="0.9950719790639679"><ele>141.0</ele><time>2026-05-01T09:52:41Z</time></trkpt><trkpt lat="44.590550004145506" lon="0.9950797867759129"><ele>142.2</ele><time>2026-05-01T09:52:42Z</time></trkpt><trkpt lat="44.590645600733744" lon="0.9950732062880491"><ele>143.39999999999998</ele><time>2026-05-01T09:52:43Z</time></trkpt><trkpt lat="44.59072250546592" lon="0.9950529266832386"><ele>144.6</ele><time>2026-05-01T09:52:44Z</time></trkpt><trkpt lat="44.59078117832246" lon="0.9950006217432784"><ele>145.79999999999998</ele><time>2026-05-01T09:52:45Z</time></trkpt><trkpt lat="44.59083660129845" lon="0.9949113911716329"><ele>147.0</ele><time>2026-05-01T09:52:46Z</time></trkpt><trkpt lat="44.59092804866185" lon="0.9947959576162376"><ele>149.4</ele><time>2026-05-01T09:52:47Z</time></trkpt><trkpt lat="44.59094577202135" lon="0.9946525160490337"><ele>151.79999999999998</ele><time>2026-05-01T09:52:48Z</time></trkpt><trkpt lat="44.59096756483979" lon="0.9945139158346377"><ele>154.2</ele><time>2026-05-01T09:52:49Z</time></trkpt><trkpt lat="44.590967693099934" lon="0.9943694555137649"><ele>156.6</ele><time>2026-05-01T09:52:50Z</time></trkpt><trkpt lat="44.59097610825779" lon="0.9942086926454187"><ele>159.0</ele><time>2026-05-01T09:52:51Z</time></trkpt><trkpt lat="44.59099568748864" lon="0.9940860347661825"><ele>161.0</ele><time>2026-05-01T09:52:52Z</time></trkpt><trkpt lat="44.59100464570818" lon="0.9939636638252509"><ele>163.0</ele><time>2026-05-01T09:52:53Z</time></trkpt><trkpt lat="44.59098382284981" lon="0.9938327820282598"><ele>165.0</ele><time>2026-05-01T09:52:54Z</time></trkpt><trkpt lat="44.590992299734985" lon="0.9937397279618412"><ele>167.0</ele><time>2026-05-01T09:52:55Z</time></trkpt><trkpt lat="44.59103480802239" lon="0.9936165320496494"><ele>169.0</ele><time>2026-05-01T09:52:56Z</time></trkpt><trkpt lat="44.59105597389495" lon="0.9934593025863488"><ele>170.39999999999998</ele><time>2026-05-01T09:52:57Z</time></trkpt><trkpt lat="44.59107842911344" lon="0.9933181525561163"><ele>171.8</ele><time>2026-05-01T09:52:58Z</time></trkpt><trkpt lat="44.5910861384877" lon="0.9931959159197807"><ele>173.2</ele><time>2026-05-01T09:52:59Z</time></trkpt><trkpt lat="44.5910878106923" lon="0.9930993036418585"><ele>174.60000000000002</ele><time>2026-05-01T09:53:00Z</time></trkpt><trkpt lat="44.59104456896846" lon="0.9929815258378965"><ele>176.0</ele><time>2026-05-01T09:53:02Z</time></trkpt><trkpt lat="44.59107851725012" lon="0.9927962356744231"><ele>176.0</ele><time>2026-05-01T09:53:04Z</time></trkpt><trkpt lat="44.591118596605874" lon="0.9926381407330311"><ele>176.0</ele><time>2026-05-01T09:53:05Z</time></trkpt><trkpt lat="44.59115186863376" lon="0.9924997439842512"><ele>176.0</ele><time>2026-05-01T09:53:06Z</time></trkpt><trkpt lat="44.59114896600982" lon="0.99232255866277"><ele>176.0</ele><time>2026-05-01T09:53:08Z</time></trkpt><trkpt lat="44.59113188165476" lon="0.9922241664268943"><ele>176.0</ele><time>2026-05-01T09:53:09Z</time></trkpt><trkpt lat="44.591214383268785" lon="0.9920998398488621"><ele>178.33333333333331</ele><time>2026-05-01T09:53:11Z</time></trkpt><trkpt lat="44.59127696679299" lon="0.992056339811663"><ele>180.66666666666666</ele><time>2026-05-01T09:53:12Z</time></trkpt><trkpt lat="44.591343256320016" lon="0.9920196346452714"><ele>183.0</ele><time>2026-05-01T09:53:13Z</time></trkpt><trkpt lat="44.591424732791005" lon="0.9920111361584901"><ele>185.33333333333334</ele><time>2026-05-01T09:53:14Z</time></trkpt><trkpt lat="44.5915359478581" lon="0.9920348613278421"><ele>187.66666666666669</ele><time>2026-05-01T09:53:16Z</time></trkpt><trkpt lat="44.59159816386988" lon="0.9919787001083372"><ele>190.0</ele><time>2026-05-01T09:53:18Z</time></trkpt><trkpt lat="44.59166959165018" lon="0.9918680640954975"><ele>190.0</ele><time>2026-05-01T09:53:20Z</time></trkpt><trkpt lat="44.59170130930391" lon="0.9917905665265224"><ele>190.0</ele><time>2026-05-01T09:53:21Z</time></trkpt><trkpt lat="44.59173307302758" lon="0.991708950500417"><ele>190.0</ele><time>2026-05-01T09:53:22Z</time></trkpt><trkpt lat="44.59177530171541" lon="0.9916346002097582"><ele>190.0</ele><time>2026-05-01T09:53:23Z</time></trkpt><trkpt lat="44.59186840033786" lon="0.9915256209608448"><ele>190.0</ele><time>2026-05-01T09:53:25Z</time></trkpt><trkpt lat="44.59192849719466" lon="0.9914414775532234"><ele>190.0</ele><time>2026-05-01T09:53:26Z</time></trkpt><trkpt lat="44.59198654939515" lon="0.9913576491508984"><ele>191.0</ele><time>2026-05-01T09:53:27Z</time></trkpt><trkpt lat="44.59202633996386" lon="0.9912695426922896"><ele>192.0</ele><time>2026-05-01T09:53:28Z</time></trkpt><trkpt lat="44.59206958457518" lon="0.9910886387830666"><ele>193.0</ele><time>2026-05-01T09:53:30Z</time></trkpt><trkpt lat="44.59214108071344" lon="0.9910198643886428"><ele>194.0</ele><time>2026-05-01T09:53:31Z</time></trkpt><trkpt lat="44.59217674497106" lon="0.9909310056658684"><ele>195.0</ele><time>2026-05-01T09:53:32Z</time></trkpt><trkpt lat="44.5922198214286" lon="0.9908209258288996"><ele>195.66666666666666</ele><time>2026-05-01T09:53:33Z</time></trkpt><trkpt lat="44.59223948372188" lon="0.990720524793646"><ele>196.33333333333331</ele><time>2026-05-01T09:53:34Z</time></trkpt><trkpt lat="44.59227597111856" lon="0.9906428129768224"><ele>197.0</ele><time>2026-05-01T09:53:35Z</time></trkpt><trkpt lat="44.592326360811036" lon="0.9905192651709016"><ele>197.66666666666666</ele><time>2026-05-01T09:53:37Z</time></trkpt><trkpt lat="44.59233728666028" lon="0.9903771257418289"><ele>198.33333333333331</ele><time>2026-05-01T09:53:38Z</time></trkpt><trkpt lat="44.59236509769044" lon="0.9902844368936488"><ele>199.0</ele><time>2026-05-01T09:53:39Z</time></trkpt><trkpt lat="44.592412000262975" lon="0.9902119827624094"><ele>199.0</ele><time>2026-05-01T09:53:40Z</time></trkpt><trkpt lat="44.592415876168644" lon="0.9900792299939508"><ele>199.0</ele><time>2026-05-01T09:53:42Z</time></trkpt><trkpt lat="44.59244745922269" lon="0.9899942406925906"><ele>199.0</ele><time>2026-05-01T09:53:43Z</time></trkpt><trkpt lat="44.59245818369568" lon="0.9898616224045879"><ele>199.0</ele><time>2026-05-01T09:53:44Z</time></trkpt><trkpt lat="44.592454427146684" lon="0.9897233235022399"><ele>199.0</ele><time>2026-05-01T09:53:45Z</time></trkpt><trkpt lat="44.5924947744917" lon="0.9895909470328162"><ele>200.39999999999998</ele><time>2026-05-01T09:53:46Z</time></trkpt><trkpt lat="44.592494423638094" lon="0.9894137171093706"><ele>201.8</ele><time>2026-05-01T09:53:47Z</time></trkpt><trkpt lat="44.59251818856033" lon="0.9892335201177828"><ele>203.2</ele><time>2026-05-01T09:53:48Z</time></trkpt><trkpt lat="44.59250296831796" lon="0.989091961288759"><ele>204.60000000000002</ele><time>2026-05-01T09:53:49Z</time></trkpt><trkpt lat="44.59252211932416" lon="0.988988080896181"><ele>206.0</ele><time>2026-05-01T09:53:50Z</time></trkpt><trkpt lat="44.59255300882825" lon="0.9888838804151219"><ele>206.83333333333334</ele><time>2026-05-01T09:53:51Z</time></trkpt><trkpt lat="44.592567770497006" lon="0.9887571480071765"><ele>207.66666666666669</ele><time>2026-05-01T09:53:52Z</time></trkpt><trkpt lat="44.5925893670893" lon="0.988666007828395"><ele>208.5</ele><time>2026-05-01T09:53:53Z</time></trkpt><trkpt lat="44.59259030536482" lon="0.9885411706421001"><ele>209.33333333333331</ele><time>2026-05-01T09:53:54Z</time></trkpt><trkpt lat="44.59261443283297" lon="0.9884063604642724"><ele>210.16666666666666</ele><time>2026-05-01T09:53:56Z</time></trkpt><trkpt lat="44.59261601714632" lon="0.9882946283822799"><ele>211.0</ele><time>2026-05-01T09:53:57Z</time></trkpt><trkpt lat="44.59263078645836" lon="0.9881379650430198"><ele>212.20000000000002</ele><time>2026-05-01T09:53:58Z</time></trkpt><trkpt lat="44.592655551861924" lon="0.9880146550538761"><ele>213.4</ele><time>2026-05-01T09:53:59Z</time></trkpt><trkpt lat="44.59270077306343" lon="0.987921433090259"><ele>214.6</ele><time>2026-05-01T09:54:00Z</time></trkpt><trkpt lat="44.592815759919105" lon="0.9878218069091846"><ele>215.8</ele><time>2026-05-01T09:54:02Z</time></trkpt><trkpt lat="44.592912120360715" lon="0.9877355781302143"><ele>217.0</ele><time>2026-05-01T09:54:04Z</time></trkpt><trkpt lat="44.59293988460131" lon="0.9876417407267808"><ele>216.99999999999997</ele><time>2026-05-01T09:54:05Z</time></trkpt><trkpt lat="44.593017575527625" lon="0.9875635799207921"><ele>217.0</ele><time>2026-05-01T09:54:06Z</time></trkpt><trkpt lat="44.593126923527095" lon="0.9875114120801695"><ele>217.0</ele><time>2026-05-01T09:54:08Z</time></trkpt><trkpt lat="44.593212552837635" lon="0.9874861539914213"><ele>217.0</ele><time>2026-05-01T09:54:09Z</time></trkpt><trkpt lat="44.593281371024034" lon="0.9874752468375667"><ele>216.99999999999997</ele><time>2026-05-01T09:54:10Z</time></trkpt><trkpt lat="44.593338487085084" lon="0.9875320051566594"><ele>217.0</ele><time>2026-05-01T09:54:12Z</time></trkpt><trkpt lat="44.59340588772067" lon="0.9875667404832361"><ele>217.0</ele><time>2026-05-01T09:54:14Z</time></trkpt><trkpt lat="44.59350487684927" lon="0.9876078665713913"><ele>217.0</ele><time>2026-05-01T09:54:16Z</time></trkpt><trkpt lat="44.59357784175639" lon="0.987708398131679"><ele>217.0</ele><time>2026-05-01T09:54:17Z</time></trkpt><trkpt lat="44.593644149952155" lon="0.9877844320281856"><ele>217.0</ele><time>2026-05-01T09:54:18Z</time></trkpt><trkpt lat="44.59375390310052" lon="0.9878035548238158"><ele>217.0</ele><time>2026-05-01T09:54:20Z</time></trkpt><trkpt lat="44.593823478016695" lon="0.9877721475360488"><ele>218.99999999999997</ele><time>2026-05-01T09:54:21Z</time></trkpt><trkpt lat="44.59386594885205" lon="0.9876966099771582"><ele>221.0</ele><time>2026-05-01T09:54:22Z</time></trkpt><trkpt lat="44.59388320063568" lon="0.9875960806205067"><ele>223.0</ele><time>2026-05-01T09:54:23Z</time></trkpt><trkpt lat="44.59394962266617" lon="0.9874700026743337"><ele>225.0</ele><time>2026-05-01T09:54:25Z</time></trkpt><trkpt lat="44.5939466495278" lon="0.9873321437266316"><ele>226.99999999999997</ele><time>2026-05-01T09:54:27Z</time></trkpt><trkpt lat="44.59400367394019" lon="0.9872815693506395"><ele>229.0</ele><time>2026-05-01T09:54:28Z</time></trkpt><trkpt lat="44.59405638462553" lon="0.9872150879276332"><ele>230.6</ele><time>2026-05-01T09:54:29Z</time></trkpt><trkpt lat="44.59409060041486" lon="0.9871121601217995"><ele>232.2</ele><time>2026-05-01T09:54:30Z</time></trkpt><trkpt lat="44.594153523804" lon="0.9870494963165537"><ele>233.79999999999998</ele><time>2026-05-01T09:54:32Z</time></trkpt><trkpt lat="44.59425741268053" lon="0.9871451179736938"><ele>235.39999999999998</ele><time>2026-05-01T09:54:35Z</time></trkpt><trkpt lat="44.59435484235203" lon="0.9871996805302159"><ele>237.0</ele><time>2026-05-01T09:54:36Z</time></trkpt><trkpt lat="44.594433918250395" lon="0.9872516245271749"><ele>238.39999999999998</ele><time>2026-05-01T09:54:37Z</time></trkpt><trkpt lat="44.594563095952594" lon="0.9872975245614749"><ele>239.79999999999998</ele><time>2026-05-01T09:54:39Z</time></trkpt><trkpt lat="44.59465008865338" lon="0.9872727016760122"><ele>241.2</ele><time>2026-05-01T09:54:40Z</time></trkpt><trkpt lat="44.5947341094105" lon="0.9872085864730838"><ele>242.6</ele><time>2026-05-01T09:54:41Z</time></trkpt><trkpt lat="44.59481628032584" lon="0.9871635818798251"><ele>244.0</ele><time>2026-05-01T09:54:42Z</time></trkpt><trkpt lat="44.594921059291124" lon="0.9872372569749317"><ele>243.99999999999997</ele><time>2026-05-01T09:54:44Z</time></trkpt><trkpt lat="44.59495453154124" lon="0.9873215096054456"><ele>244.0</ele><time>2026-05-01T09:54:45Z</time></trkpt><trkpt lat="44.59502967226972" lon="0.9874234940314849"><ele>244.0</ele><time>2026-05-01T09:54:47Z</time></trkpt><trkpt lat="44.59509252787984" lon="0.9874925648471933"><ele>244.0</ele><time>2026-05-01T09:54:48Z</time></trkpt><trkpt lat="44.595144640848275" lon="0.9875620484192995"><ele>243.99999999999997</ele><time>2026-05-01T09:54:49Z</time></trkpt><trkpt lat="44.595184617213405" lon="0.9876377517007108"><ele>244.0</ele><time>2026-05-01T09:54:50Z</time></trkpt><trkpt lat="44.595223161023895" lon="0.9877914851230291"><ele>243.79999999999998</ele><time>2026-05-01T09:54:52Z</time></trkpt><trkpt lat="44.59527659786137" lon="0.9879428065364753"><ele>243.59999999999997</ele><time>2026-05-01T09:54:54Z</time></trkpt><trkpt lat="44.595413142177875" lon="0.987991482749507"><ele>243.4</ele><time>2026-05-01T09:54:56Z</time></trkpt><trkpt lat="44.595480546041564" lon="0.9879617277722793"><ele>243.2</ele><time>2026-05-01T09:54:57Z</time></trkpt><trkpt lat="44.59557112534268" lon="0.9879296199085845"><ele>243.0</ele><time>2026-05-01T09:54:58Z</time></trkpt><trkpt lat="44.59566775013897" lon="0.9878755342022576"><ele>244.60000000000002</ele><time>2026-05-01T09:54:59Z</time></trkpt><trkpt lat="44.59574157512267" lon="0.9878557867560224"><ele>246.20000000000002</ele><time>2026-05-01T09:55:00Z</time></trkpt><trkpt lat="44.59583499751945" lon="0.9878637222737897"><ele>247.8</ele><time>2026-05-01T09:55:01Z</time></trkpt><trkpt lat="44.595918006826686" lon="0.9878946056984824"><ele>249.4</ele><time>2026-05-01T09:55:02Z</time></trkpt><trkpt lat="44.596003692255" lon="0.9879467037403078"><ele>251.0</ele><time>2026-05-01T09:55:03Z</time></trkpt><trkpt lat="44.596101421755286" lon="0.9879858893034483"><ele>250.60000000000002</ele><time>2026-05-01T09:55:04Z</time></trkpt><trkpt lat="44.59620744830481" lon="0.9880382995803161"><ele>250.20000000000002</ele><time>2026-05-01T09:55:05Z</time></trkpt><trkpt lat="44.596297223212666" lon="0.9880598773905531"><ele>249.79999999999998</ele><time>2026-05-01T09:55:06Z</time></trkpt><trkpt lat="44.596387420484916" lon="0.9880249509887585"><ele>249.39999999999998</ele><time>2026-05-01T09:55:07Z</time></trkpt><trkpt lat="44.596469572490896" lon="0.9879989776716107"><ele>249.0</ele><time>2026-05-01T09:55:08Z</time></trkpt><trkpt lat="44.59656481964157" lon="0.9879363620540441"><ele>249.0</ele><time>2026-05-01T09:55:09Z</time></trkpt><trkpt lat="44.59664536119067" lon="0.9878656252317621"><ele>249.0</ele><time>2026-05-01T09:55:10Z</time></trkpt><trkpt lat="44.59672144550191" lon="0.9878042013448952"><ele>249.0</ele><time>2026-05-01T09:55:11Z</time></trkpt><trkpt lat="44.59697433285843" lon="0.9879284072676561"><ele>249.0</ele><time>2026-05-01T09:55:18Z</time></trkpt><trkpt lat="44.5969845587803" lon="0.988111384213891"><ele>248.99999999999997</ele><time>2026-05-01T09:55:20Z</time></trkpt><trkpt lat="44.59699738309215" lon="0.9882433991888429"><ele>248.99999999999997</ele><time>2026-05-01T09:55:21Z</time></trkpt><trkpt lat="44.59700974639933" lon="0.9883603267380859"><ele>249.0</ele><time>2026-05-01T09:55:22Z</time></trkpt><trkpt lat="44.597012219060765" lon="0.9884733147928384"><ele>249.0</ele><time>2026-05-01T09:55:23Z</time></trkpt><trkpt lat="44.59702127151619" lon="0.98857062868866"><ele>247.2</ele><time>2026-05-01T09:55:24Z</time></trkpt><trkpt lat="44.597036400851415" lon="0.988675486297336"><ele>245.39999999999998</ele><time>2026-05-01T09:55:25Z</time></trkpt><trkpt lat="44.597100145225035" lon="0.9887770749637752"><ele>243.6</ele><time>2026-05-01T09:55:26Z</time></trkpt><trkpt lat="44.59717206195425" lon="0.9888686053464085"><ele>241.8</ele><time>2026-05-01T09:55:27Z</time></trkpt><trkpt lat="44.59725873083304" lon="0.9889594651767881"><ele>240.0</ele><time>2026-05-01T09:55:28Z</time></trkpt><trkpt lat="44.597343922882295" lon="0.9890423498018468"><ele>240.0</ele><time>2026-05-01T09:55:29Z</time></trkpt><trkpt lat="44.59744070043414" lon="0.9890674008236805"><ele>240.0</ele><time>2026-05-01T09:55:30Z</time></trkpt><trkpt lat="44.597559279281555" lon="0.9890961333459586"><ele>240.0</ele><time>2026-05-01T09:55:31Z</time></trkpt><trkpt lat="44.5976740941667" lon="0.989097548497086"><ele>240.0</ele><time>2026-05-01T09:55:32Z</time></trkpt><trkpt lat="44.597769559658886" lon="0.9891201016753336"><ele>240.0</ele><time>2026-05-01T09:55:33Z</time></trkpt><trkpt lat="44.59784676024131" lon="0.9891700554870566"><ele>240.0</ele><time>2026-05-01T09:55:34Z</time></trkpt><trkpt lat="44.59793089057476" lon="0.9891787083926611"><ele>240.0</ele><time>2026-05-01T09:55:35Z</time></trkpt><trkpt lat="44.59802389591141" lon="0.9891458787033234"><ele>240.0</ele><time>2026-05-01T09:55:36Z</time></trkpt><trkpt lat="44.59813180204601" lon="0.989132836144548"><ele>240.0</ele><time>2026-05-01T09:55:37Z</time></trkpt><trkpt lat="44.59825444689831" lon="0.9891187892452239"><ele>240.0</ele><time>2026-05-01T09:55:38Z</time></trkpt><trkpt lat="44.59834650953338" lon="0.9891017899014465"><ele>239.6</ele><time>2026-05-01T09:55:39Z</time></trkpt><trkpt lat="44.59847537246248" lon="0.989132329645205"><ele>239.2</ele><time>2026-05-01T09:55:41Z</time></trkpt><trkpt lat="44.598545934801614" lon="0.9891740352286296"><ele>238.8</ele><time>2026-05-01T09:55:42Z</time></trkpt><trkpt lat="44.598681589160854" lon="0.9892069837603774"><ele>238.4</ele><time>2026-05-01T09:55:44Z</time></trkpt><trkpt lat="44.5987535596443" lon="0.98922286059248"><ele>238.0</ele><time>2026-05-01T09:55:45Z</time></trkpt><trkpt lat="44.59881355033448" lon="0.989271827635177"><ele>237.2</ele><time>2026-05-01T09:55:46Z</time></trkpt><trkpt lat="44.598891260937876" lon="0.9893869869333803"><ele>236.4</ele><time>2026-05-01T09:55:48Z</time></trkpt><trkpt lat="44.598953355718045" lon="0.9895013924667017"><ele>235.59999999999997</ele><time>2026-05-01T09:55:50Z</time></trkpt><trkpt lat="44.599012309540186" lon="0.989549894784729"><ele>234.79999999999998</ele><time>2026-05-01T09:55:51Z</time></trkpt><trkpt lat="44.59904198746051" lon="0.98963347794892"><ele>234.0</ele><time>2026-05-01T09:55:52Z</time></trkpt><trkpt lat="44.59914216670471" lon="0.989729776004802"><ele>234.0</ele><time>2026-05-01T09:55:54Z</time></trkpt><trkpt lat="44.59922650324487" lon="0.9897911361284297"><ele>234.0</ele><time>2026-05-01T09:55:55Z</time></trkpt><trkpt lat="44.599330139630894" lon="0.98988674617828"><ele>234.0</ele><time>2026-05-01T09:55:56Z</time></trkpt><trkpt lat="44.599456786480026" lon="0.9899633763574104"><ele>234.0</ele><time>2026-05-01T09:55:57Z</time></trkpt><trkpt lat="44.59954958884919" lon="0.9900077985347715"><ele>233.16666666666666</ele><time>2026-05-01T09:55:58Z</time></trkpt><trkpt lat="44.599600816799025" lon="0.9900839959072804"><ele>232.33333333333331</ele><time>2026-05-01T09:55:59Z</time></trkpt><trkpt lat="44.5996813156729" lon="0.9901104672604627"><ele>231.5</ele><time>2026-05-01T09:56:01Z</time></trkpt><trkpt lat="44.59971537345604" lon="0.9900347939167954"><ele>230.66666666666666</ele><time>2026-05-01T09:56:03Z</time></trkpt><trkpt lat="44.59972770726784" lon="0.9899386061585814"><ele>229.83333333333331</ele><time>2026-05-01T09:56:04Z</time></trkpt><trkpt lat="44.599750779254244" lon="0.9897987024072592"><ele>229.0</ele><time>2026-05-01T09:56:05Z</time></trkpt><trkpt lat="44.59980077678055" lon="0.9896562433762974"><ele>228.0</ele><time>2026-05-01T09:56:06Z</time></trkpt><trkpt lat="44.59987268604024" lon="0.9895213715285313"><ele>227.0</ele><time>2026-05-01T09:56:07Z</time></trkpt><trkpt lat="44.599943615026326" lon="0.9893964437591897"><ele>226.0</ele><time>2026-05-01T09:56:08Z</time></trkpt><trkpt lat="44.59999254224154" lon="0.9892729411435708"><ele>225.0</ele><time>2026-05-01T09:56:09Z</time></trkpt><trkpt lat="44.600033793454145" lon="0.9891136875409259"><ele>224.6</ele><time>2026-05-01T09:56:10Z</time></trkpt><trkpt lat="44.600038122401294" lon="0.9889373014327433"><ele>224.2</ele><time>2026-05-01T09:56:11Z</time></trkpt><trkpt lat="44.60003271022281" lon="0.9887742816930617"><ele>223.8</ele><time>2026-05-01T09:56:12Z</time></trkpt><trkpt lat="44.60003879963619" lon="0.9886331899460629"><ele>223.4</ele><time>2026-05-01T09:56:13Z</time></trkpt><trkpt lat="44.60002381744231" lon="0.9884946588020073"><ele>223.0</ele><time>2026-05-01T09:56:14Z</time></trkpt><trkpt lat="44.600028228844245" lon="0.9883187442750301"><ele>222.0</ele><time>2026-05-01T09:56:15Z</time></trkpt><trkpt lat="44.60004147779235" lon="0.9881674018307278"><ele>221.0</ele><time>2026-05-01T09:56:16Z</time></trkpt><trkpt lat="44.60009689616714" lon="0.9880430827345764"><ele>220.0</ele><time>2026-05-01T09:56:17Z</time></trkpt><trkpt lat="44.600128805906415" lon="0.9879054260314288"><ele>219.0</ele><time>2026-05-01T09:56:18Z</time></trkpt><trkpt lat="44.60010671636443" lon="0.9877471832146546"><ele>218.0</ele><time>2026-05-01T09:56:19Z</time></trkpt><trkpt lat="44.60006045198893" lon="0.9875956915325145"><ele>216.60000000000002</ele><time>2026-05-01T09:56:20Z</time></trkpt><trkpt lat="44.600030813479854" lon="0.9874302249878829"><ele>215.20000000000002</ele><time>2026-05-01T09:56:21Z</time></trkpt><trkpt lat="44.60001351517773" lon="0.9872878506007178"><ele>213.8</ele><time>2026-05-01T09:56:22Z</time></trkpt><trkpt lat="44.599985539452135" lon="0.9871315601727659"><ele>212.4</ele><time>2026-05-01T09:56:23Z</time></trkpt><trkpt lat="44.5999719267144" lon="0.9869787434848826"><ele>211.0</ele><time>2026-05-01T09:56:24Z</time></trkpt><trkpt lat="44.59996559224664" lon="0.9868549174094455"><ele>211.0</ele><time>2026-05-01T09:56:25Z</time></trkpt><trkpt lat="44.59997237645523" lon="0.9867313626622889"><ele>211.0</ele><time>2026-05-01T09:56:26Z</time></trkpt><trkpt lat="44.59998124910554" lon="0.9866115274968522"><ele>211.0</ele><time>2026-05-01T09:56:27Z</time></trkpt><trkpt lat="44.600031833460854" lon="0.9864705893341684"><ele>211.0</ele><time>2026-05-01T09:56:28Z</time></trkpt><trkpt lat="44.60007898001118" lon="0.9863284854053318"><ele>211.0</ele><time>2026-05-01T09:56:29Z</time></trkpt><trkpt lat="44.60012122271791" lon="0.9862201378107683"><ele>210.20000000000002</ele><time>2026-05-01T09:56:30Z</time></trkpt><trkpt lat="44.6001488162149" lon="0.9860752663382503"><ele>209.4</ele><time>2026-05-01T09:56:31Z</time></trkpt><trkpt lat="44.60019270458898" lon="0.9859270739899695"><ele>208.6</ele><time>2026-05-01T09:56:32Z</time></trkpt><trkpt lat="44.600240821488754" lon="0.9857971608720564"><ele>207.8</ele><time>2026-05-01T09:56:33Z</time></trkpt><trkpt lat="44.60030004866678" lon="0.9856680262504975"><ele>207.0</ele><time>2026-05-01T09:56:34Z</time></trkpt><trkpt lat="44.60035730286949" lon="0.9855127401137993"><ele>207.0</ele><time>2026-05-01T09:56:35Z</time></trkpt><trkpt lat="44.600424476944205" lon="0.9853901457465991"><ele>207.0</ele><time>2026-05-01T09:56:36Z</time></trkpt><trkpt lat="44.600482195060586" lon="0.9852818375500656"><ele>207.0</ele><time>2026-05-01T09:56:37Z</time></trkpt><trkpt lat="44.60050426207734" lon="0.9851346080412209"><ele>207.0</ele><time>2026-05-01T09:56:38Z</time></trkpt><trkpt lat="44.60052348411578" lon="0.9849898562682038"><ele>207.0</ele><time>2026-05-01T09:56:39Z</time></trkpt><trkpt lat="44.600556958305376" lon="0.9848739920094025"><ele>206.16666666666666</ele><time>2026-05-01T09:56:40Z</time></trkpt><trkpt lat="44.600608495427856" lon="0.9847893858412954"><ele>205.33333333333331</ele><time>2026-05-01T09:56:41Z</time></trkpt><trkpt lat="44.6006765297836" lon="0.9847102517295331"><ele>204.5</ele><time>2026-05-01T09:56:42Z</time></trkpt><trkpt lat="44.60074072145781" lon="0.9846292543536133"><ele>203.66666666666666</ele><time>2026-05-01T09:56:43Z</time></trkpt><trkpt lat="44.600771691915526" lon="0.9845379332944235"><ele>202.83333333333331</ele><time>2026-05-01T09:56:44Z</time></trkpt><trkpt lat="44.600776434037904" lon="0.9844448787171108"><ele>202.0</ele><time>2026-05-01T09:56:45Z</time></trkpt><trkpt lat="44.60077422742354" lon="0.9843546064844696"><ele>202.0</ele><time>2026-05-01T09:56:46Z</time></trkpt><trkpt lat="44.60079049093532" lon="0.9842347653247424"><ele>202.0</ele><time>2026-05-01T09:56:47Z</time></trkpt><trkpt lat="44.60081039435942" lon="0.9840766380124227"><ele>202.0</ele><time>2026-05-01T09:56:48Z</time></trkpt><trkpt lat="44.60081592584822" lon="0.9839086861235383"><ele>202.0</ele><time>2026-05-01T09:56:49Z</time></trkpt><trkpt lat="44.60082802445047" lon="0.9837444960086495"><ele>202.0</ele><time>2026-05-01T09:56:50Z</time></trkpt><trkpt lat="44.600843604854866" lon="0.9835582631796507"><ele>200.25</ele><time>2026-05-01T09:56:51Z</time></trkpt><trkpt lat="44.600864561230196" lon="0.9833870233542067"><ele>198.5</ele><time>2026-05-01T09:56:52Z</time></trkpt><trkpt lat="44.60087705375262" lon="0.9832141356448584"><ele>196.75</ele><time>2026-05-01T09:56:53Z</time></trkpt><trkpt lat="44.60090293119569" lon="0.9830338885157802"><ele>195.0</ele><time>2026-05-01T09:56:54Z</time></trkpt><trkpt lat="44.600947284960455" lon="0.9828833915283255"><ele>193.6</ele><time>2026-05-01T09:56:55Z</time></trkpt><trkpt lat="44.60099702060146" lon="0.982746519111203"><ele>192.2</ele><time>2026-05-01T09:56:56Z</time></trkpt><trkpt lat="44.601059534142934" lon="0.9826458307302558"><ele>190.8</ele><time>2026-05-01T09:56:57Z</time></trkpt><trkpt lat="44.60114891176686" lon="0.9825671710198217"><ele>189.4</ele><time>2026-05-01T09:56:58Z</time></trkpt><trkpt lat="44.60125323112489" lon="0.9825145409729457"><ele>188.0</ele><time>2026-05-01T09:56:59Z</time></trkpt><trkpt lat="44.60135760113255" lon="0.9824786300482828"><ele>188.0</ele><time>2026-05-01T09:57:00Z</time></trkpt><trkpt lat="44.60145272852248" lon="0.9824405776643471"><ele>188.0</ele><time>2026-05-01T09:57:01Z</time></trkpt><trkpt lat="44.601554211513324" lon="0.9823577109213916"><ele>188.0</ele><time>2026-05-01T09:57:02Z</time></trkpt><trkpt lat="44.601631234088124" lon="0.982254289882154"><ele>188.0</ele><time>2026-05-01T09:57:03Z</time></trkpt><trkpt lat="44.60169198240408" lon="0.982141768692386"><ele>188.0</ele><time>2026-05-01T09:57:04Z</time></trkpt><trkpt lat="44.60174615190523" lon="0.9820118130522771"><ele>188.0</ele><time>2026-05-01T09:57:05Z</time></trkpt><trkpt lat="44.601771005304435" lon="0.9818676357855214"><ele>188.0</ele><time>2026-05-01T09:57:06Z</time></trkpt><trkpt lat="44.60177269241342" lon="0.9817278786584991"><ele>188.0</ele><time>2026-05-01T09:57:07Z</time></trkpt><trkpt lat="44.60173332005653" lon="0.9815865427313499"><ele>188.0</ele><time>2026-05-01T09:57:08Z</time></trkpt><trkpt lat="44.601693832178924" lon="0.9814611467420881"><ele>188.0</ele><time>2026-05-01T09:57:09Z</time></trkpt><trkpt lat="44.601671089178446" lon="0.9813212153131458"><ele>186.0</ele><time>2026-05-01T09:57:10Z</time></trkpt><trkpt lat="44.601643610507246" lon="0.981163617350985"><ele>184.0</ele><time>2026-05-01T09:57:11Z</time></trkpt><trkpt lat="44.60161263957432" lon="0.980996286312212"><ele>182.0</ele><time>2026-05-01T09:57:12Z</time></trkpt><trkpt lat="44.60158649200803" lon="0.9808597962789769"><ele>180.0</ele><time>2026-05-01T09:57:13Z</time></trkpt><trkpt lat="44.60157274108015" lon="0.9807005767090465"><ele>178.5</ele><time>2026-05-01T09:57:14Z</time></trkpt><trkpt lat="44.60161615378222" lon="0.9805179081240513"><ele>177.0</ele><time>2026-05-01T09:57:15Z</time></trkpt><trkpt lat="44.60166582829391" lon="0.9803353213536866"><ele>175.5</ele><time>2026-05-01T09:57:16Z</time></trkpt><trkpt lat="44.60165814226332" lon="0.980159325090444"><ele>174.0</ele><time>2026-05-01T09:57:17Z</time></trkpt><trkpt lat="44.6016649282847" lon="0.979995615357704"><ele>172.25</ele><time>2026-05-01T09:57:18Z</time></trkpt><trkpt lat="44.60164884402607" lon="0.9798285327580017"><ele>170.5</ele><time>2026-05-01T09:57:19Z</time></trkpt><trkpt lat="44.60163063108709" lon="0.9796902805534141"><ele>168.75</ele><time>2026-05-01T09:57:20Z</time></trkpt><trkpt lat="44.60161691742912" lon="0.9795812901077652"><ele>167.0</ele><time>2026-05-01T09:57:22Z</time></trkpt><trkpt lat="44.60147906318223" lon="0.979695487689403"><ele>167.0</ele><time>2026-05-01T09:57:27Z</time></trkpt><trkpt lat="44.60137458075295" lon="0.9797043590084578"><ele>167.0</ele><time>2026-05-01T09:57:28Z</time></trkpt><trkpt lat="44.60129108262272" lon="0.9797285854930409"><ele>167.0</ele><time>2026-05-01T09:57:29Z</time></trkpt><trkpt lat="44.60120211730122" lon="0.9797282503194018"><ele>167.0</ele><time>2026-05-01T09:57:30Z</time></trkpt><trkpt lat="44.60113662362152" lon="0.9796962493935256"><ele>167.0</ele><time>2026-05-01T09:57:31Z</time></trkpt><trkpt lat="44.60107407755489" lon="0.9796749364003704"><ele>167.0</ele><time>2026-05-01T09:57:32Z</time></trkpt><trkpt lat="44.6009870837926" lon="0.9796548591054287"><ele>166.83333333333331</ele><time>2026-05-01T09:57:34Z</time></trkpt><trkpt lat="44.60091700046157" lon="0.979570837337346"><ele>166.66666666666666</ele><time>2026-05-01T09:57:37Z</time></trkpt><trkpt lat="44.60095038628305" lon="0.9794413065596805"><ele>166.5</ele><time>2026-05-01T09:57:39Z</time></trkpt><trkpt lat="44.60099470182365" lon="0.9793290203924493"><ele>166.33333333333334</ele><time>2026-05-01T09:57:40Z</time></trkpt><trkpt lat="44.60103895362429" lon="0.9792398106173511"><ele>166.16666666666669</ele><time>2026-05-01T09:57:41Z</time></trkpt><trkpt lat="44.601081703375606" lon="0.9791728946898184"><ele>166.0</ele><time>2026-05-01T09:57:42Z</time></trkpt><trkpt lat="44.60115317679467" lon="0.9790639173750317"><ele>165.5</ele><time>2026-05-01T09:57:44Z</time></trkpt><trkpt lat="44.60118690912804" lon="0.9789366075741478"><ele>165.0</ele><time>2026-05-01T09:57:45Z</time></trkpt><trkpt lat="44.601215383609265" lon="0.9787994480997605"><ele>164.5</ele><time>2026-05-01T09:57:46Z</time></trkpt><trkpt lat="44.60125368349195" lon="0.9786988065145588"><ele>164.0</ele><time>2026-05-01T09:57:47Z</time></trkpt><trkpt lat="44.60129916123102" lon="0.9786017129423227"><ele>163.5</ele><time>2026-05-01T09:57:48Z</time></trkpt><trkpt lat="44.60135682992311" lon="0.9785537761181322"><ele>163.0</ele><time>2026-05-01T09:57:49Z</time></trkpt><trkpt lat="44.60141064222182" lon="0.9784733063725046"><ele>163.0</ele><time>2026-05-01T09:57:50Z</time></trkpt><trkpt lat="44.601445011547256" lon="0.9783943914286123"><ele>163.0</ele><time>2026-05-01T09:57:51Z</time></trkpt><trkpt lat="44.6014763635155" lon="0.9782848979456019"><ele>163.0</ele><time>2026-05-01T09:57:52Z</time></trkpt><trkpt lat="44.601510212351904" lon="0.9781622077953066"><ele>163.0</ele><time>2026-05-01T09:57:53Z</time></trkpt><trkpt lat="44.60154769992035" lon="0.9780685972631602"><ele>163.0</ele><time>2026-05-01T09:57:54Z</time></trkpt><trkpt lat="44.60160095629656" lon="0.9779927189965746"><ele>163.0</ele><time>2026-05-01T09:57:55Z</time></trkpt><trkpt lat="44.60168810149758" lon="0.9779296703276682"><ele>163.33333333333334</ele><time>2026-05-01T09:57:56Z</time></trkpt><trkpt lat="44.6017673450222" lon="0.9778836980004008"><ele>163.66666666666669</ele><time>2026-05-01T09:57:57Z</time></trkpt><trkpt lat="44.60182317641502" lon="0.9778302120486505"><ele>164.0</ele><time>2026-05-01T09:57:58Z</time></trkpt><trkpt lat="44.60188517118769" lon="0.9777893111743784"><ele>164.33333333333334</ele><time>2026-05-01T09:57:59Z</time></trkpt><trkpt lat="44.601937984133194" lon="0.9777359194465907"><ele>164.66666666666666</ele><time>2026-05-01T09:58:00Z</time></trkpt><trkpt lat="44.60199435862902" lon="0.9776398086073561"><ele>165.0</ele><time>2026-05-01T09:58:02Z</time></trkpt><trkpt lat="44.60197147878791" lon="0.9774859331302678"><ele>165.0</ele><time>2026-05-01T09:58:04Z</time></trkpt><trkpt lat="44.60195145838567" lon="0.9773046153642818"><ele>165.0</ele><time>2026-05-01T09:58:06Z</time></trkpt><trkpt lat="44.6019383001341" lon="0.9771795534551989"><ele>165.0</ele><time>2026-05-01T09:58:07Z</time></trkpt><trkpt lat="44.6019114331784" lon="0.9770076053578731"><ele>165.0</ele><time>2026-05-01T09:58:08Z</time></trkpt><trkpt lat="44.60188699645437" lon="0.9768428195860075"><ele>165.0</ele><time>2026-05-01T09:58:09Z</time></trkpt><trkpt lat="44.601877388091395" lon="0.9767104058860446"><ele>165.0</ele><time>2026-05-01T09:58:10Z</time></trkpt><trkpt lat="44.60185282347423" lon="0.9765714580913488"><ele>165.0</ele><time>2026-05-01T09:58:11Z</time></trkpt><trkpt lat="44.6018368060658" lon="0.9764408058683145"><ele>165.0</ele><time>2026-05-01T09:58:12Z</time></trkpt><trkpt lat="44.60182140844962" lon="0.976321526553951"><ele>165.0</ele><time>2026-05-01T09:58:13Z</time></trkpt><trkpt lat="44.601811563661045" lon="0.9761949261775534"><ele>164.8</ele><time>2026-05-01T09:58:14Z</time></trkpt><trkpt lat="44.601790066399" lon="0.9760709049850202"><ele>164.6</ele><time>2026-05-01T09:58:15Z</time></trkpt><trkpt lat="44.601759990637156" lon="0.9759059478506631"><ele>164.39999999999998</ele><time>2026-05-01T09:58:16Z</time></trkpt><trkpt lat="44.601787946602485" lon="0.9758039024802351"><ele>164.2</ele><time>2026-05-01T09:58:17Z</time></trkpt><trkpt lat="44.60180285970218" lon="0.9756907205749551"><ele>164.0</ele><time>2026-05-01T09:58:18Z</time></trkpt><trkpt lat="44.601816041515875" lon="0.9755758194781503"><ele>164.79999999999998</ele><time>2026-05-01T09:58:19Z</time></trkpt><trkpt lat="44.60183280741089" lon="0.9754285213392152"><ele>165.6</ele><time>2026-05-01T09:58:20Z</time></trkpt><trkpt lat="44.6018559378312" lon="0.975312825707922"><ele>166.4</ele><time>2026-05-01T09:58:21Z</time></trkpt><trkpt lat="44.60186809315015" lon="0.975215018698086"><ele>167.2</ele><time>2026-05-01T09:58:22Z</time></trkpt><trkpt lat="44.601885761760215" lon="0.9750408540722839"><ele>168.0</ele><time>2026-05-01T09:58:24Z</time></trkpt><trkpt lat="44.601934782857484" lon="0.9749072610232747"><ele>168.60000000000002</ele><time>2026-05-01T09:58:25Z</time></trkpt><trkpt lat="44.601980328055184" lon="0.9747714588769538"><ele>169.20000000000002</ele><time>2026-05-01T09:58:26Z</time></trkpt><trkpt lat="44.602006829082704" lon="0.974627315815252"><ele>169.8</ele><time>2026-05-01T09:58:27Z</time></trkpt><trkpt lat="44.60203568122336" lon="0.9745034572266451"><ele>170.4</ele><time>2026-05-01T09:58:28Z</time></trkpt><trkpt lat="44.602050692469234" lon="0.9744029227615815"><ele>171.0</ele><time>2026-05-01T09:58:29Z</time></trkpt><trkpt lat="44.602066270721174" lon="0.9742930421168079"><ele>167.16666666666666</ele><time>2026-05-01T09:58:30Z</time></trkpt><trkpt lat="44.60208399972777" lon="0.9741734439479229"><ele>163.33333333333334</ele><time>2026-05-01T09:58:31Z</time></trkpt><trkpt lat="44.602086460848916" lon="0.9740843007656517"><ele>159.5</ele><time>2026-05-01T09:58:32Z</time></trkpt><trkpt lat="44.602087245189345" lon="0.9739565484071747"><ele>155.66666666666669</ele><time>2026-05-01T09:58:33Z</time></trkpt><trkpt lat="44.60207018508584" lon="0.9738552092365431"><ele>151.83333333333334</ele><time>2026-05-01T09:58:34Z</time></trkpt><trkpt lat="44.60207872116382" lon="0.9737650134454847"><ele>148.0</ele><time>2026-05-01T09:58:35Z</time></trkpt><trkpt lat="44.6020821963138" lon="0.9736625393540502"><ele>148.0</ele><time>2026-05-01T09:58:36Z</time></trkpt><trkpt lat="44.60207066941186" lon="0.9735596938552701"><ele>148.0</ele><time>2026-05-01T09:58:37Z</time></trkpt><trkpt lat="44.60206747731235" lon="0.9734697620150573"><ele>148.0</ele><time>2026-05-01T09:58:38Z</time></trkpt><trkpt lat="44.602082610222574" lon="0.9733787172130044"><ele>148.0</ele><time>2026-05-01T09:58:39Z</time></trkpt><trkpt lat="44.60208696155501" lon="0.9732339026999477"><ele>148.0</ele><time>2026-05-01T09:58:41Z</time></trkpt><trkpt lat="44.602003134986504" lon="0.9730917885101883"><ele>148.0</ele><time>2026-05-01T09:58:43Z</time></trkpt><trkpt lat="44.60192610438741" lon="0.973032169908656"><ele>150.5</ele><time>2026-05-01T09:58:44Z</time></trkpt><trkpt lat="44.601841214268866" lon="0.9729882855742785"><ele>153.0</ele><time>2026-05-01T09:58:45Z</time></trkpt><trkpt lat="44.601767593504604" lon="0.9729182914819234"><ele>155.5</ele><time>2026-05-01T09:58:46Z</time></trkpt><trkpt lat="44.60168376266043" lon="0.9728365673884933"><ele>158.0</ele><time>2026-05-01T09:58:47Z</time></trkpt><trkpt lat="44.601606000818514" lon="0.9727858369973963"><ele>160.5</ele><time>2026-05-01T09:58:48Z</time></trkpt><trkpt lat="44.60154566077493" lon="0.9727400584898301"><ele>163.0</ele><time>2026-05-01T09:58:49Z</time></trkpt><trkpt lat="44.60146864484085" lon="0.9726605496112668"><ele>163.0</ele><time>2026-05-01T09:58:50Z</time></trkpt><trkpt lat="44.60139391624089" lon="0.9725698853182699"><ele>163.0</ele><time>2026-05-01T09:58:51Z</time></trkpt><trkpt lat="44.60131248273718" lon="0.9724789024610002"><ele>163.0</ele><time>2026-05-01T09:58:52Z</time></trkpt><trkpt lat="44.60123664136845" lon="0.9723757514317836"><ele>163.0</ele><time>2026-05-01T09:58:53Z</time></trkpt><trkpt lat="44.60117650394884" lon="0.9722907266689533"><ele>163.0</ele><time>2026-05-01T09:58:54Z</time></trkpt><trkpt lat="44.60110489102352" lon="0.9721930662576708"><ele>162.33333333333334</ele><time>2026-05-01T09:58:55Z</time></trkpt><trkpt lat="44.601031003178534" lon="0.972089644731118"><ele>161.66666666666669</ele><time>2026-05-01T09:58:56Z</time></trkpt><trkpt lat="44.60097564454648" lon="0.9720071443261676"><ele>161.0</ele><time>2026-05-01T09:58:57Z</time></trkpt><trkpt lat="44.600922235144765" lon="0.9719148652184346"><ele>160.33333333333334</ele><time>2026-05-01T09:58:58Z</time></trkpt><trkpt lat="44.600884302378525" lon="0.971828461041409"><ele>159.66666666666666</ele><time>2026-05-01T09:58:59Z</time></trkpt><trkpt lat="44.60084370063442" lon="0.9717260524543652"><ele>159.0</ele><time>2026-05-01T09:59:00Z</time></trkpt><trkpt lat="44.6007982726629" lon="0.9716624885544803"><ele>159.0</ele><time>2026-05-01T09:59:01Z</time></trkpt><trkpt lat="44.60070991015558" lon="0.9716145299163795"><ele>159.0</ele><time>2026-05-01T09:59:03Z</time></trkpt><trkpt lat="44.6006503872204" lon="0.9716444541665126"><ele>159.0</ele><time>2026-05-01T09:59:05Z</time></trkpt><trkpt lat="44.60058646424293" lon="0.9717093928662094"><ele>159.0</ele><time>2026-05-01T09:59:08Z</time></trkpt><trkpt lat="44.60051618565539" lon="0.971794743078015"><ele>159.0</ele><time>2026-05-01T09:59:10Z</time></trkpt><trkpt lat="44.60041728566293" lon="0.9718883540530322"><ele>159.0</ele><time>2026-05-01T09:59:12Z</time></trkpt><trkpt lat="44.60035302787829" lon="0.971920769345115"><ele>158.33333333333334</ele><time>2026-05-01T09:59:13Z</time></trkpt><trkpt lat="44.60027896819931" lon="0.9719212482059862"><ele>157.66666666666666</ele><time>2026-05-01T09:59:14Z</time></trkpt><trkpt lat="44.600201590502095" lon="0.9719036112932068"><ele>157.0</ele><time>2026-05-01T09:59:15Z</time></trkpt><trkpt lat="44.60012303377892" lon="0.9718574694066476"><ele>156.33333333333331</ele><time>2026-05-01T09:59:16Z</time></trkpt><trkpt lat="44.600043138087635" lon="0.9717814964260573"><ele>155.66666666666666</ele><time>2026-05-01T09:59:17Z</time></trkpt><trkpt lat="44.599963281089515" lon="0.9716956997188135"><ele>155.0</ele><time>2026-05-01T09:59:18Z</time></trkpt><trkpt lat="44.59986101736638" lon="0.971633218682247"><ele>154.0</ele><time>2026-05-01T09:59:19Z</time></trkpt><trkpt lat="44.59974058859346" lon="0.9715652160830689"><ele>153.0</ele><time>2026-05-01T09:59:20Z</time></trkpt><trkpt lat="44.59964616480913" lon="0.9715148263576688"><ele>152.0</ele><time>2026-05-01T09:59:21Z</time></trkpt><trkpt lat="44.5995839388261" lon="0.971452487319723"><ele>151.0</ele><time>2026-05-01T09:59:22Z</time></trkpt><trkpt lat="44.59950011362985" lon="0.9714191513851619"><ele>150.0</ele><time>2026-05-01T09:59:24Z</time></trkpt><trkpt lat="44.599373122038834" lon="0.9714648684596155"><ele>150.0</ele><time>2026-05-01T09:59:26Z</time></trkpt><trkpt lat="44.5992982158876" lon="0.971490691915979"><ele>150.0</ele><time>2026-05-01T09:59:27Z</time></trkpt><trkpt lat="44.59923422609329" lon="0.9715989459784287"><ele>150.0</ele><time>2026-05-01T09:59:29Z</time></trkpt><trkpt lat="44.599195885557826" lon="0.9716715125935897"><ele>150.0</ele><time>2026-05-01T09:59:30Z</time></trkpt><trkpt lat="44.59912331489186" lon="0.9717617597246683"><ele>150.0</ele><time>2026-05-01T09:59:31Z</time></trkpt><trkpt lat="44.59905712429562" lon="0.9718514762161764"><ele>150.0</ele><time>2026-05-01T09:59:32Z</time></trkpt><trkpt lat="44.59897205513093" lon="0.9719708204928652"><ele>152.8</ele><time>2026-05-01T09:59:33Z</time></trkpt><trkpt lat="44.598886990544926" lon="0.9720490692279673"><ele>155.6</ele><time>2026-05-01T09:59:34Z</time></trkpt><trkpt lat="44.59880180855793" lon="0.972104194369981"><ele>158.39999999999998</ele><time>2026-05-01T09:59:35Z</time></trkpt><trkpt lat="44.59873139669508" lon="0.9721461235967794"><ele>161.2</ele><time>2026-05-01T09:59:36Z</time></trkpt><trkpt lat="44.598637549343934" lon="0.9722005197307301"><ele>164.0</ele><time>2026-05-01T09:59:37Z</time></trkpt><trkpt lat="44.5985584180098" lon="0.9722710358327397"><ele>164.16666666666666</ele><time>2026-05-01T09:59:38Z</time></trkpt><trkpt lat="44.598500841222375" lon="0.9723086071631637"><ele>164.33333333333331</ele><time>2026-05-01T09:59:39Z</time></trkpt><trkpt lat="44.59844345458269" lon="0.9723687377119484"><ele>164.5</ele><time>2026-05-01T09:59:40Z</time></trkpt><trkpt lat="44.598349993748634" lon="0.9724250860292212"><ele>164.66666666666666</ele><time>2026-05-01T09:59:42Z</time></trkpt><trkpt lat="44.59825263917028" lon="0.9724172356971318"><ele>164.83333333333334</ele><time>2026-05-01T09:59:44Z</time></trkpt><trkpt lat="44.59818031913887" lon="0.9724297859179838"><ele>165.0</ele><time>2026-05-01T09:59:46Z</time></trkpt><trkpt lat="44.598117250624306" lon="0.9723650577940789"><ele>165.0</ele><time>2026-05-01T09:59:48Z</time></trkpt><trkpt lat="44.598028991515136" lon="0.9723520305547881"><ele>165.0</ele><time>2026-05-01T09:59:50Z</time></trkpt><trkpt lat="44.59792174479221" lon="0.9722967561777177"><ele>165.0</ele><time>2026-05-01T09:59:52Z</time></trkpt><trkpt lat="44.597867455892576" lon="0.9722289537507466"><ele>165.0</ele><time>2026-05-01T09:59:55Z</time></trkpt><trkpt lat="44.59779554539992" lon="0.972185309715661"><ele>165.0</ele><time>2026-05-01T09:59:57Z</time></trkpt><trkpt lat="44.59773354315957" lon="0.9722187852038306"><ele>165.0</ele><time>2026-05-01T09:59:59Z</time></trkpt><trkpt lat="44.597657777724244" lon="0.972192635718114"><ele>165.6</ele><time>2026-05-01T10:00:01Z</time></trkpt><trkpt lat="44.597571205151" lon="0.9721274374173183"><ele>166.2</ele><time>2026-05-01T10:00:04Z</time></trkpt><trkpt lat="44.59749999661411" lon="0.9720485102845553"><ele>166.8</ele><time>2026-05-01T10:00:06Z</time></trkpt><trkpt lat="44.59737756686955" lon="0.971953910787438"><ele>167.4</ele><time>2026-05-01T10:00:08Z</time></trkpt><trkpt lat="44.59727039214194" lon="0.9719501423689686"><ele>168.0</ele><time>2026-05-01T10:00:10Z</time></trkpt><trkpt lat="44.59716556271813" lon="0.9720372903084054"><ele>168.0</ele><time>2026-05-01T10:00:12Z</time></trkpt><trkpt lat="44.59709550731193" lon="0.9721158568890085"><ele>168.0</ele><time>2026-05-01T10:00:13Z</time></trkpt><trkpt lat="44.5970325002409" lon="0.9721425657570358"><ele>168.0</ele><time>2026-05-01T10:00:14Z</time></trkpt><trkpt lat="44.59690249630067" lon="0.9721080571294664"><ele>168.0</ele><time>2026-05-01T10:00:16Z</time></trkpt><trkpt lat="44.59680848431431" lon="0.9720722230346762"><ele>168.0</ele><time>2026-05-01T10:00:17Z</time></trkpt><trkpt lat="44.59672210098777" lon="0.9720344412094941"><ele>168.66666666666666</ele><time>2026-05-01T10:00:18Z</time></trkpt><trkpt lat="44.59665717493018" lon="0.9719983248488983"><ele>169.33333333333334</ele><time>2026-05-01T10:00:19Z</time></trkpt><trkpt lat="44.596656832656585" lon="0.9718875328884333"><ele>170.0</ele><time>2026-05-01T10:00:22Z</time></trkpt><trkpt lat="44.59670306640796" lon="0.9718197425306851"><ele>170.66666666666669</ele><time>2026-05-01T10:00:23Z</time></trkpt><trkpt lat="44.59675637686736" lon="0.9717109640397041"><ele>171.33333333333334</ele><time>2026-05-01T10:00:24Z</time></trkpt><trkpt lat="44.59681486389182" lon="0.9715773726281512"><ele>172.0</ele><time>2026-05-01T10:00:25Z</time></trkpt><trkpt lat="44.596881018502486" lon="0.9714239593538253"><ele>172.0</ele><time>2026-05-01T10:00:26Z</time></trkpt><trkpt lat="44.596929010947576" lon="0.9712837770549303"><ele>172.0</ele><time>2026-05-01T10:00:27Z</time></trkpt><trkpt lat="44.59698349421028" lon="0.9711521232200396"><ele>172.0</ele><time>2026-05-01T10:00:28Z</time></trkpt><trkpt lat="44.59703092411435" lon="0.9710010054819344"><ele>172.0</ele><time>2026-05-01T10:00:29Z</time></trkpt><trkpt lat="44.59706929891811" lon="0.9708555599261647"><ele>172.0</ele><time>2026-05-01T10:00:30Z</time></trkpt><trkpt lat="44.59711108201184" lon="0.9707097266367185"><ele>173.39999999999998</ele><time>2026-05-01T10:00:31Z</time></trkpt><trkpt lat="44.597141842910084" lon="0.9705624856316704"><ele>174.79999999999998</ele><time>2026-05-01T10:00:32Z</time></trkpt><trkpt lat="44.59717913995615" lon="0.9704181170904164"><ele>176.2</ele><time>2026-05-01T10:00:33Z</time></trkpt><trkpt lat="44.59720697343562" lon="0.9703026379105175"><ele>177.6</ele><time>2026-05-01T10:00:34Z</time></trkpt><trkpt lat="44.597223141979676" lon="0.9701533764485224"><ele>179.0</ele><time>2026-05-01T10:00:35Z</time></trkpt><trkpt lat="44.59722323396844" lon="0.9700378583704877"><ele>179.39999999999998</ele><time>2026-05-01T10:00:36Z</time></trkpt><trkpt lat="44.59720008142111" lon="0.9699156169201613"><ele>179.8</ele><time>2026-05-01T10:00:37Z</time></trkpt><trkpt lat="44.597175815863764" lon="0.9697800029539411"><ele>180.2</ele><time>2026-05-01T10:00:38Z</time></trkpt><trkpt lat="44.597127228076026" lon="0.9696385717274195"><ele>180.60000000000002</ele><time>2026-05-01T10:00:39Z</time></trkpt><trkpt lat="44.597080829948474" lon="0.9694965315698028"><ele>181.0</ele><time>2026-05-01T10:00:40Z</time></trkpt><trkpt lat="44.59705583004183" lon="0.969390166030522"><ele>181.0</ele><time>2026-05-01T10:00:41Z</time></trkpt><trkpt lat="44.597043318637695" lon="0.9692966061638719"><ele>181.0</ele><time>2026-05-01T10:00:42Z</time></trkpt><trkpt lat="44.597051731113524" lon="0.969197122197481"><ele>181.0</ele><time>2026-05-01T10:00:43Z</time></trkpt><trkpt lat="44.59706670276721" lon="0.9690726073196262"><ele>181.0</ele><time>2026-05-01T10:00:44Z</time></trkpt><trkpt lat="44.597076123918086" lon="0.9689803803854645"><ele>181.0</ele><time>2026-05-01T10:00:45Z</time></trkpt><trkpt lat="44.597114602101804" lon="0.9688988703074908"><ele>181.0</ele><time>2026-05-01T10:00:46Z</time></trkpt><trkpt lat="44.59715943625513" lon="0.9688224081538329"><ele>181.0</ele><time>2026-05-01T10:00:55Z</time></trkpt><trkpt lat="44.597149689602084" lon="0.968915499898644"><ele>180.0</ele><time>2026-05-01T10:00:58Z</time></trkpt><trkpt lat="44.59708569076804" lon="0.9688646988752676"><ele>179.0</ele><time>2026-05-01T10:01:01Z</time></trkpt><trkpt lat="44.59703061420153" lon="0.9687935385832528"><ele>178.0</ele><time>2026-05-01T10:01:03Z</time></trkpt><trkpt lat="44.59699961616815" lon="0.9687163480070033"><ele>177.0</ele><time>2026-05-01T10:01:05Z</time></trkpt><trkpt lat="44.59702673035312" lon="0.9685415112546223"><ele>176.0</ele><time>2026-05-01T10:01:07Z</time></trkpt><trkpt lat="44.59705972415993" lon="0.9684030926724468"><ele>175.0</ele><time>2026-05-01T10:01:09Z</time></trkpt><trkpt lat="44.59701265438836" lon="0.9682912145709116"><ele>172.4</ele><time>2026-05-01T10:01:11Z</time></trkpt><trkpt lat="44.59695761398445" lon="0.9681760656664248"><ele>169.8</ele><time>2026-05-01T10:01:12Z</time></trkpt><trkpt lat="44.59690410780149" lon="0.9680547653820526"><ele>167.2</ele><time>2026-05-01T10:01:13Z</time></trkpt><trkpt lat="44.5968481356882" lon="0.9679140886412855"><ele>164.6</ele><time>2026-05-01T10:01:14Z</time></trkpt><trkpt lat="44.596801771024694" lon="0.9677876325612045"><ele>162.0</ele><time>2026-05-01T10:01:15Z</time></trkpt><trkpt lat="44.596728892022874" lon="0.9676905603312844"><ele>162.0</ele><time>2026-05-01T10:01:16Z</time></trkpt><trkpt lat="44.59662921948908" lon="0.9676048814537442"><ele>162.0</ele><time>2026-05-01T10:01:17Z</time></trkpt><trkpt lat="44.59652668328387" lon="0.9675126304686241"><ele>162.0</ele><time>2026-05-01T10:01:18Z</time></trkpt><trkpt lat="44.59643813741246" lon="0.9674482384768501"><ele>162.0</ele><time>2026-05-01T10:01:19Z</time></trkpt><trkpt lat="44.596343472942806" lon="0.9673879832450907"><ele>162.0</ele><time>2026-05-01T10:01:20Z</time></trkpt><trkpt lat="44.59626689992958" lon="0.9673307428469676"><ele>162.0</ele><time>2026-05-01T10:01:21Z</time></trkpt><trkpt lat="44.596193210673135" lon="0.9672358392426805"><ele>162.0</ele><time>2026-05-01T10:01:22Z</time></trkpt><trkpt lat="44.59616206102597" lon="0.967085320393231"><ele>162.0</ele><time>2026-05-01T10:01:23Z</time></trkpt><trkpt lat="44.59613541276022" lon="0.9669023531459504"><ele>162.0</ele><time>2026-05-01T10:01:24Z</time></trkpt><trkpt lat="44.59609828255595" lon="0.9667431378866048"><ele>160.33333333333334</ele><time>2026-05-01T10:01:25Z</time></trkpt><trkpt lat="44.59603645325955" lon="0.9666223202731101"><ele>158.66666666666666</ele><time>2026-05-01T10:01:26Z</time></trkpt><trkpt lat="44.59600011669774" lon="0.9665376791022773"><ele>157.0</ele><time>2026-05-01T10:01:27Z</time></trkpt><trkpt lat="44.59601553448249" lon="0.9664352482727834"><ele>155.33333333333331</ele><time>2026-05-01T10:01:29Z</time></trkpt><trkpt lat="44.59611078022238" lon="0.9664233715616449"><ele>153.66666666666666</ele><time>2026-05-01T10:01:31Z</time></trkpt><trkpt lat="44.59619000692195" lon="0.9664905750725516"><ele>152.0</ele><time>2026-05-01T10:01:32Z</time></trkpt><trkpt lat="44.59625971498502" lon="0.9664912483566337"><ele>152.0</ele><time>2026-05-01T10:01:33Z</time></trkpt><trkpt lat="44.59632608142059" lon="0.966421693435113"><ele>152.0</ele><time>2026-05-01T10:01:34Z</time></trkpt><trkpt lat="44.596363696307975" lon="0.9663248604473273"><ele>152.0</ele><time>2026-05-01T10:01:35Z</time></trkpt><trkpt lat="44.59635346554772" lon="0.9662305163211259"><ele>152.0</ele><time>2026-05-01T10:01:36Z</time></trkpt><trkpt lat="44.59639237100775" lon="0.9660740138474986"><ele>152.0</ele><time>2026-05-01T10:01:38Z</time></trkpt><trkpt lat="44.59651370955464" lon="0.9659995300587851"><ele>152.0</ele><time>2026-05-01T10:01:40Z</time></trkpt><trkpt lat="44.59658127250337" lon="0.9659924033091224"><ele>152.0</ele><time>2026-05-01T10:01:41Z</time></trkpt><trkpt lat="44.596700418799266" lon="0.9659682753819943"><ele>152.0</ele><time>2026-05-01T10:01:43Z</time></trkpt><trkpt lat="44.59679687988927" lon="0.9659769818672561"><ele>152.0</ele><time>2026-05-01T10:01:45Z</time></trkpt><trkpt lat="44.59685485589349" lon="0.9660191272431343"><ele>152.0</ele><time>2026-05-01T10:01:47Z</time></trkpt><trkpt lat="44.596958370579955" lon="0.9660326981690339"><ele>152.0</ele><time>2026-05-01T10:01:59Z</time></trkpt><trkpt lat="44.59702167327276" lon="0.9660609685383792"><ele>152.0</ele><time>2026-05-01T10:02:02Z</time></trkpt><trkpt lat="44.59698806776334" lon="0.9659737434078499"><ele>152.0</ele><time>2026-05-01T10:02:06Z</time></trkpt><trkpt lat="44.59690218410694" lon="0.9658768462837625"><ele>152.0</ele><time>2026-05-01T10:02:08Z</time></trkpt><trkpt lat="44.59682726417232" lon="0.9657584961842473"><ele>152.0</ele><time>2026-05-01T10:02:10Z</time></trkpt><trkpt lat="44.59683222152632" lon="0.9655770666269496"><ele>148.79999999999998</ele><time>2026-05-01T10:02:12Z</time></trkpt><trkpt lat="44.59683525866409" lon="0.965455704973546"><ele>145.6</ele><time>2026-05-01T10:02:13Z</time></trkpt><trkpt lat="44.596841793354315" lon="0.9653647465582079"><ele>142.39999999999998</ele><time>2026-05-01T10:02:14Z</time></trkpt><trkpt lat="44.59680009455329" lon="0.9651958494008316"><ele>139.2</ele><time>2026-05-01T10:02:16Z</time></trkpt><trkpt lat="44.596727622483" lon="0.9651193402319318"><ele>136.0</ele><time>2026-05-01T10:02:17Z</time></trkpt><trkpt lat="44.596650283980466" lon="0.9650485220319177"><ele>136.75</ele><time>2026-05-01T10:02:18Z</time></trkpt><trkpt lat="44.59657023922978" lon="0.9649893011918897"><ele>137.5</ele><time>2026-05-01T10:02:19Z</time></trkpt><trkpt lat="44.596452880796" lon="0.9649267273074155"><ele>138.25</ele><time>2026-05-01T10:02:20Z</time></trkpt><trkpt lat="44.596337304572" lon="0.9648361306559755"><ele>139.0</ele><time>2026-05-01T10:02:21Z</time></trkpt><trkpt lat="44.59622991807233" lon="0.9647643371182094"><ele>137.0</ele><time>2026-05-01T10:02:22Z</time></trkpt><trkpt lat="44.59611914983559" lon="0.9646919161612408"><ele>135.0</ele><time>2026-05-01T10:02:23Z</time></trkpt><trkpt lat="44.59601485962759" lon="0.9646394267431077"><ele>133.0</ele><time>2026-05-01T10:02:24Z</time></trkpt><trkpt lat="44.59592132624428" lon="0.9645817532866927"><ele>131.0</ele><time>2026-05-01T10:02:25Z</time></trkpt><trkpt lat="44.59584163076572" lon="0.9645020570938777"><ele>129.0</ele><time>2026-05-01T10:02:26Z</time></trkpt><trkpt lat="44.59577653642207" lon="0.9644072266718744"><ele>129.0</ele><time>2026-05-01T10:02:27Z</time></trkpt><trkpt lat="44.595713885938885" lon="0.9643443674032846"><ele>129.0</ele><time>2026-05-01T10:02:28Z</time></trkpt><trkpt lat="44.59562893836402" lon="0.9642882783524003"><ele>129.0</ele><time>2026-05-01T10:02:29Z</time></trkpt><trkpt lat="44.59551637115678" lon="0.9642408611643326"><ele>129.0</ele><time>2026-05-01T10:02:30Z</time></trkpt><trkpt lat="44.59541959456211" lon="0.9641809339504374"><ele>129.0</ele><time>2026-05-01T10:02:31Z</time></trkpt><trkpt lat="44.59530183099793" lon="0.9641196603963937"><ele>130.8</ele><time>2026-05-01T10:02:32Z</time></trkpt><trkpt lat="44.595183860868076" lon="0.9640724967510317"><ele>132.60000000000002</ele><time>2026-05-01T10:02:33Z</time></trkpt><trkpt lat="44.59506924170335" lon="0.9640224986099488"><ele>134.4</ele><time>2026-05-01T10:02:34Z</time></trkpt><trkpt lat="44.59497184808232" lon="0.9639869931758018"><ele>136.20000000000002</ele><time>2026-05-01T10:02:35Z</time></trkpt><trkpt lat="44.594872931615505" lon="0.9639785965139267"><ele>138.0</ele><time>2026-05-01T10:02:36Z</time></trkpt><trkpt lat="44.59476758782638" lon="0.9639775771166562"><ele>138.0</ele><time>2026-05-01T10:02:37Z</time></trkpt><trkpt lat="44.5946467703847" lon="0.963971618695052"><ele>138.0</ele><time>2026-05-01T10:02:38Z</time></trkpt><trkpt lat="44.59452894728241" lon="0.9639506920445428"><ele>138.0</ele><time>2026-05-01T10:02:39Z</time></trkpt><trkpt lat="44.59442230908646" lon="0.963965897045345"><ele>138.0</ele><time>2026-05-01T10:02:40Z</time></trkpt><trkpt lat="44.59431184461129" lon="0.9639992004657536"><ele>138.33333333333334</ele><time>2026-05-01T10:02:41Z</time></trkpt><trkpt lat="44.59421963985704" lon="0.963987622225142"><ele>138.66666666666666</ele><time>2026-05-01T10:02:42Z</time></trkpt><trkpt lat="44.59414252946335" lon="0.9639966367211489"><ele>139.0</ele><time>2026-05-01T10:02:43Z</time></trkpt><trkpt lat="44.59405402779646" lon="0.9639141893281458"><ele>139.33333333333331</ele><time>2026-05-01T10:02:45Z</time></trkpt><trkpt lat="44.59405681318426" lon="0.963823836561038"><ele>139.66666666666666</ele><time>2026-05-01T10:02:46Z</time></trkpt><trkpt lat="44.594101893127885" lon="0.9636916792642277"><ele>140.0</ele><time>2026-05-01T10:02:48Z</time></trkpt><trkpt lat="44.5941461764182" lon="0.9635331012437176"><ele>140.0</ele><time>2026-05-01T10:02:50Z</time></trkpt><trkpt lat="44.59419614306063" lon="0.9634602120589392"><ele>140.0</ele><time>2026-05-01T10:02:51Z</time></trkpt><trkpt lat="44.59425627578569" lon="0.963390230182413"><ele>140.0</ele><time>2026-05-01T10:02:52Z</time></trkpt><trkpt lat="44.59433511514868" lon="0.9633215190191752"><ele>140.0</ele><time>2026-05-01T10:02:53Z</time></trkpt><trkpt lat="44.59440853658548" lon="0.9632371923546297"><ele>140.0</ele><time>2026-05-01T10:02:54Z</time></trkpt><trkpt lat="44.59446313996154" lon="0.9631485688686005"><ele>140.0</ele><time>2026-05-01T10:02:55Z</time></trkpt><trkpt lat="44.594498720643124" lon="0.9630699136126346"><ele>141.0</ele><time>2026-05-01T10:02:56Z</time></trkpt><trkpt lat="44.594529734014706" lon="0.9629589079903751"><ele>142.0</ele><time>2026-05-01T10:02:57Z</time></trkpt><trkpt lat="44.59455271199447" lon="0.9628569098827265"><ele>143.0</ele><time>2026-05-01T10:02:58Z</time></trkpt><trkpt lat="44.59459296425912" lon="0.9626948422719649"><ele>144.0</ele><time>2026-05-01T10:03:00Z</time></trkpt><trkpt lat="44.59464200862524" lon="0.9626093132466714"><ele>145.0</ele><time>2026-05-01T10:03:02Z</time></trkpt><trkpt lat="44.59463564481907" lon="0.9624873259644076"><ele>146.0</ele><time>2026-05-01T10:03:06Z</time></trkpt><trkpt lat="44.59468326931807" lon="0.9623918504416098"><ele>144.0</ele><time>2026-05-01T10:03:09Z</time></trkpt><trkpt lat="44.59470213915553" lon="0.962279200954505"><ele>142.0</ele><time>2026-05-01T10:03:11Z</time></trkpt><trkpt lat="44.59473303226153" lon="0.9621646986859713"><ele>140.0</ele><time>2026-05-01T10:03:12Z</time></trkpt><trkpt lat="44.594764481408475" lon="0.9620365077889919"><ele>138.0</ele><time>2026-05-01T10:03:13Z</time></trkpt><trkpt lat="44.594789242963444" lon="0.9618912036118621"><ele>136.0</ele><time>2026-05-01T10:03:14Z</time></trkpt><trkpt lat="44.59478548849568" lon="0.9617947345883276"><ele>134.0</ele><time>2026-05-01T10:03:15Z</time></trkpt><trkpt lat="44.59475855797158" lon="0.9616612072673788"><ele>134.0</ele><time>2026-05-01T10:03:17Z</time></trkpt><trkpt lat="44.59483929149335" lon="0.9615967350041652"><ele>134.0</ele><time>2026-05-01T10:03:28Z</time></trkpt><trkpt lat="44.5949493987888" lon="0.961559469830952"><ele>134.0</ele><time>2026-05-01T10:03:30Z</time></trkpt><trkpt lat="44.59502059815517" lon="0.961530344789476"><ele>134.0</ele><time>2026-05-01T10:03:31Z</time></trkpt><trkpt lat="44.595100189587306" lon="0.9614901991346656"><ele>134.0</ele><time>2026-05-01T10:03:32Z</time></trkpt><trkpt lat="44.59519454128021" lon="0.9614492069136794"><ele>134.0</ele><time>2026-05-01T10:03:33Z</time></trkpt><trkpt lat="44.59530289127312" lon="0.9614045335033296"><ele>134.0</ele><time>2026-05-01T10:03:34Z</time></trkpt><trkpt lat="44.59538370663577" lon="0.9613651517810355"><ele>134.0</ele><time>2026-05-01T10:03:35Z</time></trkpt><trkpt lat="44.59545887140788" lon="0.9613449239019181"><ele>134.0</ele><time>2026-05-01T10:03:36Z</time></trkpt><trkpt lat="44.59552334144973" lon="0.9613261957079107"><ele>134.0</ele><time>2026-05-01T10:03:37Z</time></trkpt><trkpt lat="44.59559596808304" lon="0.9613103023624511"><ele>134.0</ele><time>2026-05-01T10:03:38Z</time></trkpt><trkpt lat="44.595681923592096" lon="0.9613051636291309"><ele>134.4</ele><time>2026-05-01T10:03:39Z</time></trkpt><trkpt lat="44.59577814406849" lon="0.961293540037819"><ele>134.8</ele><time>2026-05-01T10:03:40Z</time></trkpt><trkpt lat="44.59588558990069" lon="0.9612737625444978"><ele>135.2</ele><time>2026-05-01T10:03:41Z</time></trkpt><trkpt lat="44.59599423591839" lon="0.9612321976257097"><ele>135.6</ele><time>2026-05-01T10:03:42Z</time></trkpt><trkpt lat="44.59609946951837" lon="0.9611635999946739"><ele>136.0</ele><time>2026-05-01T10:03:43Z</time></trkpt><trkpt lat="44.59621774183627" lon="0.9611220038581185"><ele>137.0</ele><time>2026-05-01T10:03:44Z</time></trkpt><trkpt lat="44.596338322743556" lon="0.9610958932715021"><ele>138.0</ele><time>2026-05-01T10:03:45Z</time></trkpt><trkpt lat="44.59646023831145" lon="0.9610718863976186"><ele>139.0</ele><time>2026-05-01T10:03:46Z</time></trkpt><trkpt lat="44.59658352608017" lon="0.9610518974644725"><ele>140.0</ele><time>2026-05-01T10:03:47Z</time></trkpt><trkpt lat="44.59670893474628" lon="0.961035815514781"><ele>140.0</ele><time>2026-05-01T10:03:48Z</time></trkpt><trkpt lat="44.59683124582023" lon="0.9609866502809353"><ele>140.0</ele><time>2026-05-01T10:03:49Z</time></trkpt><trkpt lat="44.59694844594356" lon="0.9608931783357938"><ele>140.0</ele><time>2026-05-01T10:03:50Z</time></trkpt><trkpt lat="44.597071386544876" lon="0.9608103623847754"><ele>140.0</ele><time>2026-05-01T10:03:51Z</time></trkpt><trkpt lat="44.59720780678377" lon="0.9607383654644513"><ele>141.5</ele><time>2026-05-01T10:03:52Z</time></trkpt><trkpt lat="44.59734176358957" lon="0.9606670010764742"><ele>143.0</ele><time>2026-05-01T10:03:53Z</time></trkpt><trkpt lat="44.59748355384667" lon="0.9605875071145222"><ele>144.5</ele><time>2026-05-01T10:03:54Z</time></trkpt><trkpt lat="44.59760231581721" lon="0.9605272815237"><ele>146.0</ele><time>2026-05-01T10:03:55Z</time></trkpt><trkpt lat="44.59771854172027" lon="0.960497584139453"><ele>146.0</ele><time>2026-05-01T10:03:56Z</time></trkpt><trkpt lat="44.597804608608044" lon="0.960402939849785"><ele>146.0</ele><time>2026-05-01T10:03:57Z</time></trkpt><trkpt lat="44.597809235999165" lon="0.96023170011359"><ele>146.0</ele><time>2026-05-01T10:03:58Z</time></trkpt><trkpt lat="44.59783733813341" lon="0.9600684929818337"><ele>146.0</ele><time>2026-05-01T10:03:59Z</time></trkpt><trkpt lat="44.59786840484669" lon="0.9598890719063046"><ele>149.33333333333331</ele><time>2026-05-01T10:04:00Z</time></trkpt><trkpt lat="44.597920306775556" lon="0.9597144931412327"><ele>152.66666666666666</ele><time>2026-05-01T10:04:01Z</time></trkpt><trkpt lat="44.597995277390275" lon="0.9595176041424534"><ele>156.0</ele><time>2026-05-01T10:04:02Z</time></trkpt><trkpt lat="44.5980962780215" lon="0.9593381418821368"><ele>155.75</ele><time>2026-05-01T10:04:03Z</time></trkpt><trkpt lat="44.598203870845786" lon="0.9591581853889037"><ele>155.5</ele><time>2026-05-01T10:04:04Z</time></trkpt><trkpt lat="44.59830557150122" lon="0.9590165491682828"><ele>155.25</ele><time>2026-05-01T10:04:05Z</time></trkpt><trkpt lat="44.59837649801602" lon="0.9588833174540411"><ele>155.0</ele><time>2026-05-01T10:04:06Z</time></trkpt><trkpt lat="44.59845136540281" lon="0.9587988145729407"><ele>155.0</ele><time>2026-05-01T10:04:07Z</time></trkpt><trkpt lat="44.59853983539308" lon="0.9587272249649326"><ele>155.0</ele><time>2026-05-01T10:04:08Z</time></trkpt><trkpt lat="44.598648193548044" lon="0.9586850112790137"><ele>155.0</ele><time>2026-05-01T10:04:09Z</time></trkpt><trkpt lat="44.5987635722462" lon="0.9586893996557615"><ele>155.0</ele><time>2026-05-01T10:04:10Z</time></trkpt><trkpt lat="44.59886100384369" lon="0.9587591637092485"><ele>155.0</ele><time>2026-05-01T10:04:11Z</time></trkpt><trkpt lat="44.59896420877046" lon="0.9588334960225786"><ele>156.6</ele><time>2026-05-01T10:04:12Z</time></trkpt><trkpt lat="44.599069080880355" lon="0.9589175534856985"><ele>158.2</ele><time>2026-05-01T10:04:13Z</time></trkpt><trkpt lat="44.59917259138826" lon="0.9590079765843204"><ele>159.8</ele><time>2026-05-01T10:04:14Z</time></trkpt><trkpt lat="44.59925121602631" lon="0.9590657260060872"><ele>161.4</ele><time>2026-05-01T10:04:15Z</time></trkpt><trkpt lat="44.59931197665978" lon="0.959099129387457"><ele>163.0</ele><time>2026-05-01T10:04:17Z</time></trkpt><trkpt lat="44.599425752681995" lon="0.9587759668394471"><ele>163.0</ele><time>2026-05-01T10:04:19Z</time></trkpt><trkpt lat="44.599453519541434" lon="0.9586521035208267"><ele>163.0</ele><time>2026-05-01T10:04:20Z</time></trkpt><trkpt lat="44.59949064699712" lon="0.9585287873883905"><ele>163.0</ele><time>2026-05-01T10:04:21Z</time></trkpt><trkpt lat="44.599542892814746" lon="0.9584085371925429"><ele>163.0</ele><time>2026-05-01T10:04:22Z</time></trkpt><trkpt lat="44.599617727315426" lon="0.9583175486162545"><ele>163.0</ele><time>2026-05-01T10:04:23Z</time></trkpt><trkpt lat="44.59972233260914" lon="0.9583196538297835"><ele>163.0</ele><time>2026-05-01T10:04:24Z</time></trkpt><trkpt lat="44.5998054050463" lon="0.9582648138324807"><ele>163.0</ele><time>2026-05-01T10:04:25Z</time></trkpt><trkpt lat="44.59988688997392" lon="0.9581815225431987"><ele>163.0</ele><time>2026-05-01T10:04:26Z</time></trkpt><trkpt lat="44.599968326556784" lon="0.9580726483817744"><ele>163.0</ele><time>2026-05-01T10:04:27Z</time></trkpt><trkpt lat="44.60004710085318" lon="0.9579621975384662"><ele>163.0</ele><time>2026-05-01T10:04:28Z</time></trkpt><trkpt lat="44.600111890746" lon="0.9578323681628339"><ele>163.0</ele><time>2026-05-01T10:04:29Z</time></trkpt><trkpt lat="44.60018404359425" lon="0.9577056973640143"><ele>163.0</ele><time>2026-05-01T10:04:30Z</time></trkpt><trkpt lat="44.600238923475324" lon="0.9575970424653241"><ele>163.0</ele><time>2026-05-01T10:04:31Z</time></trkpt><trkpt lat="44.600293799831945" lon="0.9574949795575907"><ele>163.0</ele><time>2026-05-01T10:04:32Z</time></trkpt><trkpt lat="44.60035795527503" lon="0.9574060697337032"><ele>163.0</ele><time>2026-05-01T10:04:33Z</time></trkpt><trkpt lat="44.60041097925946" lon="0.9573317578724868"><ele>162.20000000000002</ele><time>2026-05-01T10:04:34Z</time></trkpt><trkpt lat="44.600395900435984" lon="0.9571897314005587"><ele>161.4</ele><time>2026-05-01T10:04:36Z</time></trkpt><trkpt lat="44.60027332867542" lon="0.9571404693212113"><ele>160.60000000000002</ele><time>2026-05-01T10:04:38Z</time></trkpt><trkpt lat="44.600206453959224" lon="0.9571708613094729"><ele>159.8</ele><time>2026-05-01T10:04:39Z</time></trkpt><trkpt lat="44.60012935265593" lon="0.9572015821455961"><ele>159.0</ele><time>2026-05-01T10:04:40Z</time></trkpt><trkpt lat="44.60003623977776" lon="0.9572157197874152"><ele>161.4</ele><time>2026-05-01T10:04:41Z</time></trkpt><trkpt lat="44.59994181846074" lon="0.9572295522796991"><ele>163.8</ele><time>2026-05-01T10:04:42Z</time></trkpt><trkpt lat="44.599853082373606" lon="0.9572412792480985"><ele>166.20000000000002</ele><time>2026-05-01T10:04:43Z</time></trkpt><trkpt lat="44.59976228783128" lon="0.9572373600249552"><ele>168.60000000000002</ele><time>2026-05-01T10:04:44Z</time></trkpt><trkpt lat="44.59966005980899" lon="0.9572020928624081"><ele>171.0</ele><time>2026-05-01T10:04:45Z</time></trkpt><trkpt lat="44.59957700317664" lon="0.9571235858542102"><ele>171.20000000000002</ele><time>2026-05-01T10:04:46Z</time></trkpt><trkpt lat="44.59948234105239" lon="0.9570463920052257"><ele>171.4</ele><time>2026-05-01T10:04:47Z</time></trkpt><trkpt lat="44.59938702166361" lon="0.9569753015967385"><ele>171.6</ele><time>2026-05-01T10:04:48Z</time></trkpt><trkpt lat="44.5992936246349" lon="0.9568756104274662"><ele>171.8</ele><time>2026-05-01T10:04:49Z</time></trkpt><trkpt lat="44.59923133617191" lon="0.9567724068568798"><ele>172.0</ele><time>2026-05-01T10:04:50Z</time></trkpt><trkpt lat="44.59919614257858" lon="0.9566740511726483"><ele>174.16666666666669</ele><time>2026-05-01T10:04:51Z</time></trkpt><trkpt lat="44.59921633241512" lon="0.9565399419214721"><ele>176.33333333333334</ele><time>2026-05-01T10:04:52Z</time></trkpt><trkpt lat="44.59918876792396" lon="0.9564529754742989"><ele>178.5</ele><time>2026-05-01T10:04:53Z</time></trkpt><trkpt lat="44.59915225043889" lon="0.9563616256820061"><ele>180.66666666666666</ele><time>2026-05-01T10:04:54Z</time></trkpt><trkpt lat="44.599082050272024" lon="0.9562997677444832"><ele>182.83333333333331</ele><time>2026-05-01T10:04:55Z</time></trkpt><trkpt lat="44.598995718652255" lon="0.9562201137339075"><ele>185.0</ele><time>2026-05-01T10:04:56Z</time></trkpt><trkpt lat="44.59889616379662" lon="0.9561590804435542"><ele>185.0</ele><time>2026-05-01T10:04:57Z</time></trkpt><trkpt lat="44.59881585772494" lon="0.9560868740552886"><ele>185.0</ele><time>2026-05-01T10:04:58Z</time></trkpt><trkpt lat="44.59873785481496" lon="0.9559911625674002"><ele>185.0</ele><time>2026-05-01T10:04:59Z</time></trkpt><trkpt lat="44.59866074710332" lon="0.9558967766642484"><ele>185.0</ele><time>2026-05-01T10:05:00Z</time></trkpt><trkpt lat="44.59857440499192" lon="0.9558120876697342"><ele>185.0</ele><time>2026-05-01T10:05:01Z</time></trkpt><trkpt lat="44.59848169096561" lon="0.9557485532415939"><ele>188.2</ele><time>2026-05-01T10:05:02Z</time></trkpt><trkpt lat="44.59839694089676" lon="0.9556694316985573"><ele>191.4</ele><time>2026-05-01T10:05:03Z</time></trkpt><trkpt lat="44.5983229331725" lon="0.9555640580212839"><ele>194.60000000000002</ele><time>2026-05-01T10:05:04Z</time></trkpt><trkpt lat="44.59824043853977" lon="0.9554533431513405"><ele>197.8</ele><time>2026-05-01T10:05:05Z</time></trkpt><trkpt lat="44.59814353542345" lon="0.9553626079106402"><ele>201.0</ele><time>2026-05-01T10:05:06Z</time></trkpt><trkpt lat="44.59803530648304" lon="0.9553000987744888"><ele>201.0</ele><time>2026-05-01T10:05:07Z</time></trkpt><trkpt lat="44.59792057106369" lon="0.9552588881035168"><ele>201.0</ele><time>2026-05-01T10:05:08Z</time></trkpt><trkpt lat="44.597813628880296" lon="0.955233765258953"><ele>201.0</ele><time>2026-05-01T10:05:09Z</time></trkpt><trkpt lat="44.59770819363116" lon="0.9551899712158533"><ele>201.0</ele><time>2026-05-01T10:05:10Z</time></trkpt><trkpt lat="44.59760416640432" lon="0.9551409042971416"><ele>201.0</ele><time>2026-05-01T10:05:11Z</time></trkpt><trkpt lat="44.59750390736977" lon="0.9550880957797064"><ele>202.8</ele><time>2026-05-01T10:05:12Z</time></trkpt><trkpt lat="44.59740542929521" lon="0.9550177870471455"><ele>204.60000000000002</ele><time>2026-05-01T10:05:13Z</time></trkpt><trkpt lat="44.59732814464705" lon="0.9549274747486473"><ele>206.4</ele><time>2026-05-01T10:05:14Z</time></trkpt><trkpt lat="44.59727773534899" lon="0.9548172267694954"><ele>208.2</ele><time>2026-05-01T10:05:15Z</time></trkpt><trkpt lat="44.59729778221697" lon="0.9546941120266355"><ele>210.0</ele><time>2026-05-01T10:05:16Z</time></trkpt><trkpt lat="44.59728054845385" lon="0.9545488045458217"><ele>210.0</ele><time>2026-05-01T10:05:17Z</time></trkpt><trkpt lat="44.59724889223608" lon="0.9543590166422148"><ele>210.0</ele><time>2026-05-01T10:05:18Z</time></trkpt><trkpt lat="44.59720709766016" lon="0.9541659534248917"><ele>210.0</ele><time>2026-05-01T10:05:19Z</time></trkpt><trkpt lat="44.597152410779664" lon="0.9539979193907167"><ele>210.0</ele><time>2026-05-01T10:05:20Z</time></trkpt><trkpt lat="44.59713600363135" lon="0.9538227331156911"><ele>209.75</ele><time>2026-05-01T10:05:21Z</time></trkpt><trkpt lat="44.59711113638346" lon="0.953638037973895"><ele>209.5</ele><time>2026-05-01T10:05:22Z</time></trkpt><trkpt lat="44.59710298867071" lon="0.953459055169935"><ele>209.25</ele><time>2026-05-01T10:05:23Z</time></trkpt><trkpt lat="44.597094518037956" lon="0.9532806589743452"><ele>209.0</ele><time>2026-05-01T10:05:24Z</time></trkpt><trkpt lat="44.59707816726413" lon="0.953104122571938"><ele>209.0</ele><time>2026-05-01T10:05:25Z</time></trkpt><trkpt lat="44.59707639899942" lon="0.9529276898490241"><ele>209.0</ele><time>2026-05-01T10:05:26Z</time></trkpt><trkpt lat="44.59708573788817" lon="0.9527582615811238"><ele>209.0</ele><time>2026-05-01T10:05:27Z</time></trkpt><trkpt lat="44.59709100973949" lon="0.9525933613122047"><ele>209.0</ele><time>2026-05-01T10:05:28Z</time></trkpt><trkpt lat="44.597103961592374" lon="0.9524231240929701"><ele>210.75</ele><time>2026-05-01T10:05:29Z</time></trkpt><trkpt lat="44.597122418017825" lon="0.9522489742792695"><ele>212.5</ele><time>2026-05-01T10:05:30Z</time></trkpt><trkpt lat="44.597142044035934" lon="0.9520757784710973"><ele>214.25</ele><time>2026-05-01T10:05:31Z</time></trkpt><trkpt lat="44.59715215990544" lon="0.9519057723384065"><ele>216.0</ele><time>2026-05-01T10:05:32Z</time></trkpt><trkpt lat="44.59716568363577" lon="0.9517333019535464"><ele>217.75</ele><time>2026-05-01T10:05:33Z</time></trkpt><trkpt lat="44.597179244235356" lon="0.9515772161364466"><ele>219.5</ele><time>2026-05-01T10:05:34Z</time></trkpt><trkpt lat="44.597201845992444" lon="0.9514044584120703"><ele>221.25</ele><time>2026-05-01T10:05:35Z</time></trkpt><trkpt lat="44.59722309642296" lon="0.9512460533616159"><ele>223.0</ele><time>2026-05-01T10:05:36Z</time></trkpt><trkpt lat="44.597224056075184" lon="0.9511030426646909"><ele>222.99999999999997</ele><time>2026-05-01T10:05:37Z</time></trkpt><trkpt lat="44.597185407392665" lon="0.9509773012244644"><ele>223.0</ele><time>2026-05-01T10:05:38Z</time></trkpt><trkpt lat="44.597113205493386" lon="0.9508847953446861"><ele>223.0</ele><time>2026-05-01T10:05:39Z</time></trkpt><trkpt lat="44.59704663631185" lon="0.9508062033705567"><ele>223.0</ele><time>2026-05-01T10:05:40Z</time></trkpt><trkpt lat="44.59698920404458" lon="0.9507533621636555"><ele>222.99999999999997</ele><time>2026-05-01T10:05:41Z</time></trkpt><trkpt lat="44.596911127913366" lon="0.9507781275002949"><ele>223.0</ele><time>2026-05-01T10:05:42Z</time></trkpt><trkpt lat="44.59684175189696" lon="0.9507924186766155"><ele>224.4</ele><time>2026-05-01T10:05:43Z</time></trkpt><trkpt lat="44.59674571063222" lon="0.9508393897664212"><ele>225.8</ele><time>2026-05-01T10:05:45Z</time></trkpt><trkpt lat="44.5966000224198" lon="0.9507068000964028"><ele>227.2</ele><time>2026-05-01T10:05:47Z</time></trkpt><trkpt lat="44.59653813674401" lon="0.9506281212005085"><ele>228.6</ele><time>2026-05-01T10:05:48Z</time></trkpt><trkpt lat="44.59648447091446" lon="0.9505318738051048"><ele>230.0</ele><time>2026-05-01T10:05:49Z</time></trkpt><trkpt lat="44.596470003369745" lon="0.9504383817181464"><ele>230.00000000000003</ele><time>2026-05-01T10:05:50Z</time></trkpt><trkpt lat="44.59649634747677" lon="0.9503470753409355"><ele>230.0</ele><time>2026-05-01T10:05:51Z</time></trkpt><trkpt lat="44.59652949754288" lon="0.950210343644428"><ele>230.0</ele><time>2026-05-01T10:05:53Z</time></trkpt><trkpt lat="44.59655749279302" lon="0.9501118142720206"><ele>230.0</ele><time>2026-05-01T10:05:54Z</time></trkpt><trkpt lat="44.596609934191456" lon="0.9500287930411844"><ele>230.00000000000003</ele><time>2026-05-01T10:05:55Z</time></trkpt><trkpt lat="44.596671030328324" lon="0.9499980761426091"><ele>230.0</ele><time>2026-05-01T10:05:56Z</time></trkpt><trkpt lat="44.596780113926584" lon="0.9499504849954997"><ele>230.33333333333334</ele><time>2026-05-01T10:05:58Z</time></trkpt><trkpt lat="44.596859117393144" lon="0.9499749687686044"><ele>230.66666666666669</ele><time>2026-05-01T10:05:59Z</time></trkpt><trkpt lat="44.596926900805954" lon="0.9499879459793492"><ele>231.0</ele><time>2026-05-01T10:06:00Z</time></trkpt><trkpt lat="44.59700870185243" lon="0.9499183585452659"><ele>231.33333333333331</ele><time>2026-05-01T10:06:02Z</time></trkpt><trkpt lat="44.59702456224109" lon="0.9498183240471063"><ele>231.66666666666666</ele><time>2026-05-01T10:06:03Z</time></trkpt><trkpt lat="44.597084757902856" lon="0.9496646923939106"><ele>232.0</ele><time>2026-05-01T10:06:04Z</time></trkpt><trkpt lat="44.59713218964071" lon="0.9495120395704845"><ele>232.6</ele><time>2026-05-01T10:06:05Z</time></trkpt><trkpt lat="44.59718227172481" lon="0.9493508826395948"><ele>233.2</ele><time>2026-05-01T10:06:06Z</time></trkpt><trkpt lat="44.597226345731244" lon="0.9492311404780127"><ele>233.8</ele><time>2026-05-01T10:06:07Z</time></trkpt><trkpt lat="44.59726527898444" lon="0.9490902944474884"><ele>234.4</ele><time>2026-05-01T10:06:08Z</time></trkpt><trkpt lat="44.597331662717195" lon="0.9489576213766402"><ele>235.0</ele><time>2026-05-01T10:06:09Z</time></trkpt><trkpt lat="44.59737081864673" lon="0.9488487428419501"><ele>235.6</ele><time>2026-05-01T10:06:10Z</time></trkpt><trkpt lat="44.5974672075239" lon="0.9487389560006216"><ele>236.2</ele><time>2026-05-01T10:06:11Z</time></trkpt><trkpt lat="44.59756014890242" lon="0.9486234495063547"><ele>236.8</ele><time>2026-05-01T10:06:12Z</time></trkpt><trkpt lat="44.59764221324775" lon="0.9485416085606518"><ele>237.4</ele><time>2026-05-01T10:06:13Z</time></trkpt><trkpt lat="44.59772254887556" lon="0.9484605321759713"><ele>238.0</ele><time>2026-05-01T10:06:14Z</time></trkpt><trkpt lat="44.59778899443812" lon="0.9483984390454592"><ele>238.0</ele><time>2026-05-01T10:06:15Z</time></trkpt><trkpt lat="44.597858533856105" lon="0.948323356132697"><ele>238.0</ele><time>2026-05-01T10:06:16Z</time></trkpt><trkpt lat="44.59793339237889" lon="0.9482312083991108"><ele>238.0</ele><time>2026-05-01T10:06:17Z</time></trkpt><trkpt lat="44.59800849797719" lon="0.9481158837687129"><ele>238.0</ele><time>2026-05-01T10:06:18Z</time></trkpt><trkpt lat="44.59807189109151" lon="0.9479888118973172"><ele>238.0</ele><time>2026-05-01T10:06:19Z</time></trkpt><trkpt lat="44.59814612332691" lon="0.9478401705690487"><ele>238.0</ele><time>2026-05-01T10:06:20Z</time></trkpt><trkpt lat="44.59821590105812" lon="0.9476842142355711"><ele>238.0</ele><time>2026-05-01T10:06:21Z</time></trkpt><trkpt lat="44.598282575107774" lon="0.9475331744381962"><ele>238.0</ele><time>2026-05-01T10:06:22Z</time></trkpt><trkpt lat="44.59834648401184" lon="0.9474108756546382"><ele>238.0</ele><time>2026-05-01T10:06:23Z</time></trkpt><trkpt lat="44.59840707925207" lon="0.9472790945690609"><ele>238.2</ele><time>2026-05-01T10:06:24Z</time></trkpt><trkpt lat="44.598471099691984" lon="0.9471681486774419"><ele>238.4</ele><time>2026-05-01T10:06:25Z</time></trkpt><trkpt lat="44.598520790573225" lon="0.9470227835170939"><ele>238.59999999999997</ele><time>2026-05-01T10:06:26Z</time></trkpt><trkpt lat="44.5985626542159" lon="0.9468948281197758"><ele>238.79999999999998</ele><time>2026-05-01T10:06:27Z</time></trkpt><trkpt lat="44.59861727720023" lon="0.9467559250501049"><ele>239.0</ele><time>2026-05-01T10:06:28Z</time></trkpt><trkpt lat="44.598679296099" lon="0.946621019353032"><ele>237.0</ele><time>2026-05-01T10:06:29Z</time></trkpt><trkpt lat="44.5987461021935" lon="0.9465075334075794"><ele>234.99999999999997</ele><time>2026-05-01T10:06:30Z</time></trkpt><trkpt lat="44.59880149492883" lon="0.9463830876407866"><ele>232.99999999999997</ele><time>2026-05-01T10:06:31Z</time></trkpt><trkpt lat="44.59885414338007" lon="0.9462386412875979"><ele>231.0</ele><time>2026-05-01T10:06:32Z</time></trkpt><trkpt lat="44.59889809739955" lon="0.9460810188985435"><ele>229.0</ele><time>2026-05-01T10:06:33Z</time></trkpt><trkpt lat="44.59893151403945" lon="0.9459382327450102"><ele>229.2</ele><time>2026-05-01T10:06:34Z</time></trkpt><trkpt lat="44.59895496505025" lon="0.9458257246875095"><ele>229.39999999999998</ele><time>2026-05-01T10:06:35Z</time></trkpt><trkpt lat="44.59896827877141" lon="0.9457082636343126"><ele>229.6</ele><time>2026-05-01T10:06:36Z</time></trkpt><trkpt lat="44.59896459698433" lon="0.9455834919824143"><ele>229.8</ele><time>2026-05-01T10:06:37Z</time></trkpt><trkpt lat="44.59897655422225" lon="0.9454409588703"><ele>230.0</ele><time>2026-05-01T10:06:38Z</time></trkpt><trkpt lat="44.59900207750028" lon="0.9452936886441383"><ele>230.0</ele><time>2026-05-01T10:06:39Z</time></trkpt><trkpt lat="44.599027748509556" lon="0.9451492038005839"><ele>230.0</ele><time>2026-05-01T10:06:40Z</time></trkpt><trkpt lat="44.59904372613343" lon="0.9450010878445395"><ele>230.0</ele><time>2026-05-01T10:06:41Z</time></trkpt><trkpt lat="44.59906416621819" lon="0.9448317939271712"><ele>230.0</ele><time>2026-05-01T10:06:42Z</time></trkpt><trkpt lat="44.599084161026134" lon="0.944657525297748"><ele>231.0</ele><time>2026-05-01T10:06:43Z</time></trkpt><trkpt lat="44.59909706295746" lon="0.9444839352662661"><ele>232.0</ele><time>2026-05-01T10:06:44Z</time></trkpt><trkpt lat="44.59911484576893" lon="0.9443100648596933"><ele>233.0</ele><time>2026-05-01T10:06:45Z</time></trkpt><trkpt lat="44.599124826103306" lon="0.9441627466701575"><ele>234.0</ele><time>2026-05-01T10:06:46Z</time></trkpt><trkpt lat="44.599140206678136" lon="0.9440093867016366"><ele>234.79999999999998</ele><time>2026-05-01T10:06:47Z</time></trkpt><trkpt lat="44.599161155171245" lon="0.9438701945265041"><ele>235.59999999999997</ele><time>2026-05-01T10:06:48Z</time></trkpt><trkpt lat="44.59918134623142" lon="0.9437661613609862"><ele>236.4</ele><time>2026-05-01T10:06:49Z</time></trkpt><trkpt lat="44.59918796104243" lon="0.9436350446725776"><ele>237.2</ele><time>2026-05-01T10:06:51Z</time></trkpt><trkpt lat="44.59911057883292" lon="0.9435367642924252"><ele>238.0</ele><time>2026-05-01T10:06:53Z</time></trkpt><trkpt lat="44.598989419031" lon="0.9433602933321352"><ele>238.2</ele><time>2026-05-01T10:06:55Z</time></trkpt><trkpt lat="44.59890527250442" lon="0.9432482839031447"><ele>238.4</ele><time>2026-05-01T10:06:56Z</time></trkpt><trkpt lat="44.598826893610784" lon="0.9431707559174796"><ele>238.59999999999997</ele><time>2026-05-01T10:06:57Z</time></trkpt><trkpt lat="44.59875896622989" lon="0.9430982104591166"><ele>238.79999999999998</ele><time>2026-05-01T10:06:58Z</time></trkpt><trkpt lat="44.598705494368375" lon="0.9430102310103529"><ele>239.0</ele><time>2026-05-01T10:06:59Z</time></trkpt><trkpt lat="44.59867733485198" lon="0.9429180357897552"><ele>239.2</ele><time>2026-05-01T10:07:00Z</time></trkpt><trkpt lat="44.5986452889267" lon="0.9427994867273061"><ele>239.39999999999998</ele><time>2026-05-01T10:07:01Z</time></trkpt><trkpt lat="44.59857545807768" lon="0.9427532541154822"><ele>239.6</ele><time>2026-05-01T10:07:02Z</time></trkpt><trkpt lat="44.598494095917026" lon="0.9426898365164538"><ele>239.8</ele><time>2026-05-01T10:07:03Z</time></trkpt><trkpt lat="44.59843661507042" lon="0.9425672994176141"><ele>240.0</ele><time>2026-05-01T10:07:04Z</time></trkpt><trkpt lat="44.598356472491986" lon="0.9424720638980487"><ele>240.0</ele><time>2026-05-01T10:07:05Z</time></trkpt><trkpt lat="44.598264196540114" lon="0.9423686543286662"><ele>240.0</ele><time>2026-05-01T10:07:06Z</time></trkpt><trkpt lat="44.5982122754214" lon="0.9423171247958853"><ele>240.0</ele><time>2026-05-01T10:07:07Z</time></trkpt><trkpt lat="44.598156711032814" lon="0.9422515595139583"><ele>240.0</ele><time>2026-05-01T10:07:08Z</time></trkpt><trkpt lat="44.598092591442935" lon="0.9421675371889613"><ele>240.0</ele><time>2026-05-01T10:07:09Z</time></trkpt><trkpt lat="44.59806261487461" lon="0.9420799184632628"><ele>240.0</ele><time>2026-05-01T10:07:10Z</time></trkpt><trkpt lat="44.59800733898994" lon="0.9419450336092142"><ele>240.0</ele><time>2026-05-01T10:07:11Z</time></trkpt><trkpt lat="44.59795251871794" lon="0.9418382282216851"><ele>240.0</ele><time>2026-05-01T10:07:12Z</time></trkpt><trkpt lat="44.59791450897071" lon="0.9417271851361592"><ele>240.0</ele><time>2026-05-01T10:07:13Z</time></trkpt><trkpt lat="44.59788593008552" lon="0.941589000428732"><ele>240.0</ele><time>2026-05-01T10:07:14Z</time></trkpt><trkpt lat="44.59785144536647" lon="0.941453566225292"><ele>240.0</ele><time>2026-05-01T10:07:15Z</time></trkpt><trkpt lat="44.59780713816445" lon="0.941348197874459"><ele>240.5</ele><time>2026-05-01T10:07:16Z</time></trkpt><trkpt lat="44.59778566514117" lon="0.9412382149570027"><ele>241.0</ele><time>2026-05-01T10:07:17Z</time></trkpt><trkpt lat="44.597808629832365" lon="0.9410194486810779"><ele>241.5</ele><time>2026-05-01T10:07:19Z</time></trkpt><trkpt lat="44.59783473555914" lon="0.9408493302390425"><ele>242.0</ele><time>2026-05-01T10:07:20Z</time></trkpt><trkpt lat="44.5978753936778" lon="0.9406899619813829"><ele>242.0</ele><time>2026-05-01T10:07:21Z</time></trkpt><trkpt lat="44.59790381899825" lon="0.9405279054401909"><ele>242.0</ele><time>2026-05-01T10:07:22Z</time></trkpt><trkpt lat="44.59790571830273" lon="0.9403591018550594"><ele>242.0</ele><time>2026-05-01T10:07:23Z</time></trkpt><trkpt lat="44.59790927430933" lon="0.9402107829773136"><ele>242.0</ele><time>2026-05-01T10:07:24Z</time></trkpt><trkpt lat="44.59789224957766" lon="0.9400889049181528"><ele>242.0</ele><time>2026-05-01T10:07:25Z</time></trkpt><trkpt lat="44.597855786640764" lon="0.9399615262732103"><ele>239.6</ele><time>2026-05-01T10:07:26Z</time></trkpt><trkpt lat="44.59779227387399" lon="0.9398310780388799"><ele>237.2</ele><time>2026-05-01T10:07:27Z</time></trkpt><trkpt lat="44.597719891584084" lon="0.9397188618226421"><ele>234.8</ele><time>2026-05-01T10:07:28Z</time></trkpt><trkpt lat="44.5976583917807" lon="0.9396253381952409"><ele>232.4</ele><time>2026-05-01T10:07:29Z</time></trkpt><trkpt lat="44.5976176719478" lon="0.9395372846856495"><ele>230.0</ele><time>2026-05-01T10:07:30Z</time></trkpt><trkpt lat="44.5975954042442" lon="0.9393541402041538"><ele>230.0</ele><time>2026-05-01T10:07:32Z</time></trkpt><trkpt lat="44.597559309468615" lon="0.9392509291499038"><ele>230.0</ele><time>2026-05-01T10:07:33Z</time></trkpt><trkpt lat="44.59753269178991" lon="0.9391102085266158"><ele>230.0</ele><time>2026-05-01T10:07:34Z</time></trkpt><trkpt lat="44.59751238755654" lon="0.9389720657512552"><ele>230.0</ele><time>2026-05-01T10:07:35Z</time></trkpt><trkpt lat="44.597477721713176" lon="0.9388520986671623"><ele>230.0</ele><time>2026-05-01T10:07:36Z</time></trkpt><trkpt lat="44.597427706123064" lon="0.9387572013767379"><ele>230.00000000000003</ele><time>2026-05-01T10:07:37Z</time></trkpt><trkpt lat="44.59738208901749" lon="0.9386801329268197"><ele>230.0</ele><time>2026-05-01T10:07:38Z</time></trkpt><trkpt lat="44.59727617246332" lon="0.9385817808696093"><ele>230.0</ele><time>2026-05-01T10:07:40Z</time></trkpt><trkpt lat="44.597234384036454" lon="0.9385120189623873"><ele>230.0</ele><time>2026-05-01T10:07:41Z</time></trkpt><trkpt lat="44.597189418332995" lon="0.9384212220411947"><ele>230.00000000000003</ele><time>2026-05-01T10:07:42Z</time></trkpt><trkpt lat="44.597146848905716" lon="0.9383203522340616"><ele>230.0</ele><time>2026-05-01T10:07:43Z</time></trkpt><trkpt lat="44.597078747138276" lon="0.93821729374711"><ele>229.6</ele><time>2026-05-01T10:07:44Z</time></trkpt><trkpt lat="44.596999482437475" lon="0.9381170304486559"><ele>229.2</ele><time>2026-05-01T10:07:45Z</time></trkpt><trkpt lat="44.59691253368023" lon="0.9379996597419976"><ele>228.8</ele><time>2026-05-01T10:07:46Z</time></trkpt><trkpt lat="44.596829854866506" lon="0.9378885650696589"><ele>228.4</ele><time>2026-05-01T10:07:47Z</time></trkpt><trkpt lat="44.59676843568883" lon="0.9378058767506365"><ele>228.0</ele><time>2026-05-01T10:07:48Z</time></trkpt><trkpt lat="44.596721058825814" lon="0.9377462143953893"><ele>228.0</ele><time>2026-05-01T10:07:49Z</time></trkpt><trkpt lat="44.596657519133515" lon="0.9376271027142307"><ele>228.0</ele><time>2026-05-01T10:07:51Z</time></trkpt><trkpt lat="44.596566656166196" lon="0.9375360715805935"><ele>228.0</ele><time>2026-05-01T10:07:53Z</time></trkpt><trkpt lat="44.59650518266105" lon="0.9374973911074149"><ele>228.0</ele><time>2026-05-01T10:07:54Z</time></trkpt><trkpt lat="44.596437448051326" lon="0.9374641487979752"><ele>228.0</ele><time>2026-05-01T10:07:55Z</time></trkpt><trkpt lat="44.59635442393363" lon="0.9374193011888032"><ele>228.0</ele><time>2026-05-01T10:07:56Z</time></trkpt><trkpt lat="44.596282929806776" lon="0.937345971210518"><ele>228.60000000000002</ele><time>2026-05-01T10:07:57Z</time></trkpt><trkpt lat="44.596212436725374" lon="0.937270099387116"><ele>229.20000000000002</ele><time>2026-05-01T10:07:58Z</time></trkpt><trkpt lat="44.596161293831386" lon="0.9372081818400623"><ele>229.8</ele><time>2026-05-01T10:07:59Z</time></trkpt><trkpt lat="44.59609890362377" lon="0.9371162432994258"><ele>230.4</ele><time>2026-05-01T10:08:01Z</time></trkpt><trkpt lat="44.5960272377989" lon="0.9369467531451618"><ele>231.0</ele><time>2026-05-01T10:08:03Z</time></trkpt><trkpt lat="44.59597917057833" lon="0.9368196353942961"><ele>231.60000000000002</ele><time>2026-05-01T10:08:04Z</time></trkpt><trkpt lat="44.59596042889262" lon="0.9366781054143081"><ele>232.20000000000002</ele><time>2026-05-01T10:08:05Z</time></trkpt><trkpt lat="44.59597471391776" lon="0.9365328601271484"><ele>232.79999999999998</ele><time>2026-05-01T10:08:06Z</time></trkpt><trkpt lat="44.59600007353294" lon="0.9363939302845083"><ele>233.39999999999998</ele><time>2026-05-01T10:08:07Z</time></trkpt><trkpt lat="44.59601753908227" lon="0.9362463121232523"><ele>234.0</ele><time>2026-05-01T10:08:08Z</time></trkpt><trkpt lat="44.596005358279065" lon="0.9360964268270002"><ele>234.0</ele><time>2026-05-01T10:08:09Z</time></trkpt><trkpt lat="44.59597476722279" lon="0.935920572685843"><ele>234.0</ele><time>2026-05-01T10:08:10Z</time></trkpt><trkpt lat="44.59593173888666" lon="0.9357469322978217"><ele>234.0</ele><time>2026-05-01T10:08:11Z</time></trkpt><trkpt lat="44.595876582180956" lon="0.9355834967646276"><ele>234.0</ele><time>2026-05-01T10:08:12Z</time></trkpt><trkpt lat="44.595816672708466" lon="0.9354249479297436"><ele>234.25</ele><time>2026-05-01T10:08:13Z</time></trkpt><trkpt lat="44.59575391658812" lon="0.9352619301888656"><ele>234.5</ele><time>2026-05-01T10:08:14Z</time></trkpt><trkpt lat="44.59568924439298" lon="0.9351075372057471"><ele>234.75</ele><time>2026-05-01T10:08:15Z</time></trkpt><trkpt lat="44.59562229734323" lon="0.93493764022711"><ele>235.0</ele><time>2026-05-01T10:08:16Z</time></trkpt><trkpt lat="44.59554891966715" lon="0.9347647576926277"><ele>235.75</ele><time>2026-05-01T10:08:17Z</time></trkpt><trkpt lat="44.59547924357338" lon="0.9345736672986725"><ele>236.5</ele><time>2026-05-01T10:08:18Z</time></trkpt><trkpt lat="44.59541325480721" lon="0.9343891590534494"><ele>237.25</ele><time>2026-05-01T10:08:19Z</time></trkpt><trkpt lat="44.59535707593845" lon="0.9342295417840375"><ele>238.0</ele><time>2026-05-01T10:08:20Z</time></trkpt><trkpt lat="44.595313456986936" lon="0.9341140891397285"><ele>239.2</ele><time>2026-05-01T10:08:21Z</time></trkpt><trkpt lat="44.595261796051844" lon="0.9340028412016613"><ele>240.4</ele><time>2026-05-01T10:08:22Z</time></trkpt><trkpt lat="44.59522589574661" lon="0.9339207845747308"><ele>241.59999999999997</ele><time>2026-05-01T10:08:23Z</time></trkpt><trkpt lat="44.595165317080806" lon="0.9337912261604966"><ele>242.79999999999998</ele><time>2026-05-01T10:08:25Z</time></trkpt><trkpt lat="44.59511748639465" lon="0.9337106164766938"><ele>244.0</ele><time>2026-05-01T10:08:26Z</time></trkpt><trkpt lat="44.595069274228344" lon="0.9335649911708068"><ele>244.0</ele><time>2026-05-01T10:08:27Z</time></trkpt><trkpt lat="44.595005858607806" lon="0.9334427303138837"><ele>243.99999999999997</ele><time>2026-05-01T10:08:28Z</time></trkpt><trkpt lat="44.594940824130994" lon="0.9333384427373549"><ele>243.99999999999997</ele><time>2026-05-01T10:08:29Z</time></trkpt><trkpt lat="44.594879626010865" lon="0.9332153698545256"><ele>244.0</ele><time>2026-05-01T10:08:30Z</time></trkpt><trkpt lat="44.59480724054416" lon="0.9330850717031242"><ele>244.0</ele><time>2026-05-01T10:08:31Z</time></trkpt><trkpt lat="44.59473255258556" lon="0.9329543985981053"><ele>243.39999999999998</ele><time>2026-05-01T10:08:32Z</time></trkpt><trkpt lat="44.59467265474291" lon="0.9328300302783273"><ele>242.79999999999998</ele><time>2026-05-01T10:08:33Z</time></trkpt><trkpt lat="44.594616536320785" lon="0.9327192381195799"><ele>242.20000000000002</ele><time>2026-05-01T10:08:34Z</time></trkpt><trkpt lat="44.594565509081065" lon="0.932585751416225"><ele>241.60000000000002</ele><time>2026-05-01T10:08:35Z</time></trkpt><trkpt lat="44.59452710622143" lon="0.9324252264897999"><ele>241.0</ele><time>2026-05-01T10:08:36Z</time></trkpt><trkpt lat="44.59449101598887" lon="0.9322794943173535"><ele>241.0</ele><time>2026-05-01T10:08:37Z</time></trkpt><trkpt lat="44.59445149327087" lon="0.9321314537163089"><ele>241.00000000000003</ele><time>2026-05-01T10:08:38Z</time></trkpt><trkpt lat="44.59442719113573" lon="0.9319828676445164"><ele>241.00000000000003</ele><time>2026-05-01T10:08:39Z</time></trkpt><trkpt lat="44.59439500420805" lon="0.931832544651119"><ele>241.0</ele><time>2026-05-01T10:08:40Z</time></trkpt><trkpt lat="44.59435654611991" lon="0.9316863762383837"><ele>241.0</ele><time>2026-05-01T10:08:41Z</time></trkpt><trkpt lat="44.594319163778614" lon="0.9315377857834557"><ele>241.0</ele><time>2026-05-01T10:08:42Z</time></trkpt><trkpt lat="44.59428839251955" lon="0.9313976625955037"><ele>241.00000000000003</ele><time>2026-05-01T10:08:43Z</time></trkpt><trkpt lat="44.59425626911879" lon="0.9312528640634128"><ele>241.00000000000003</ele><time>2026-05-01T10:08:44Z</time></trkpt><trkpt lat="44.59422709140142" lon="0.9311160643761407"><ele>241.0</ele><time>2026-05-01T10:08:45Z</time></trkpt><trkpt lat="44.59422444834174" lon="0.9309964550088269"><ele>241.0</ele><time>2026-05-01T10:08:46Z</time></trkpt><trkpt lat="44.594219150680665" lon="0.9308432746095355"><ele>240.99999999999997</ele><time>2026-05-01T10:08:47Z</time></trkpt><trkpt lat="44.59420947734597" lon="0.9307279858043024"><ele>241.0</ele><time>2026-05-01T10:08:48Z</time></trkpt><trkpt lat="44.59420726881444" lon="0.9306167364391246"><ele>241.0</ele><time>2026-05-01T10:08:49Z</time></trkpt><trkpt lat="44.594208229738854" lon="0.9305072516365152"><ele>241.0</ele><time>2026-05-01T10:08:50Z</time></trkpt><trkpt lat="44.594206714550786" lon="0.9303786971874697"><ele>240.99999999999997</ele><time>2026-05-01T10:08:51Z</time></trkpt><trkpt lat="44.59420178706003" lon="0.9302620066479285"><ele>241.0</ele><time>2026-05-01T10:08:52Z</time></trkpt><trkpt lat="44.59418578690029" lon="0.9301598502094983"><ele>241.0</ele><time>2026-05-01T10:08:53Z</time></trkpt><trkpt lat="44.59408460970949" lon="0.9300551501415049"><ele>241.00000000000003</ele><time>2026-05-01T10:08:55Z</time></trkpt><trkpt lat="44.59400632908724" lon="0.9299957029200281"><ele>241.00000000000003</ele><time>2026-05-01T10:08:56Z</time></trkpt><trkpt lat="44.59392358082742" lon="0.9299146314299522"><ele>241.0</ele><time>2026-05-01T10:08:57Z</time></trkpt><trkpt lat="44.593853407759894" lon="0.9298234143464396"><ele>241.0</ele><time>2026-05-01T10:08:58Z</time></trkpt><trkpt lat="44.59379407485708" lon="0.9297185007176921"><ele>241.0</ele><time>2026-05-01T10:08:59Z</time></trkpt><trkpt lat="44.593728449270806" lon="0.9296076946530966"><ele>241.00000000000003</ele><time>2026-05-01T10:09:00Z</time></trkpt><trkpt lat="44.59365927729531" lon="0.9295128882944631"><ele>241.00000000000003</ele><time>2026-05-01T10:09:01Z</time></trkpt><trkpt lat="44.59358236605669" lon="0.9294046411283581"><ele>241.0</ele><time>2026-05-01T10:09:02Z</time></trkpt><trkpt lat="44.59352725948486" lon="0.9292834947140239"><ele>241.0</ele><time>2026-05-01T10:09:03Z</time></trkpt><trkpt lat="44.59343470345736" lon="0.9291711683563806"><ele>240.75</ele><time>2026-05-01T10:09:04Z</time></trkpt><trkpt lat="44.59333512100975" lon="0.9290799742399337"><ele>240.5</ele><time>2026-05-01T10:09:05Z</time></trkpt><trkpt lat="44.59327153122129" lon="0.9289493374844505"><ele>240.25</ele><time>2026-05-01T10:09:06Z</time></trkpt><trkpt lat="44.593202970646345" lon="0.9288290414303781"><ele>240.0</ele><time>2026-05-01T10:09:07Z</time></trkpt><trkpt lat="44.59311571579167" lon="0.928727448810662"><ele>240.0</ele><time>2026-05-01T10:09:08Z</time></trkpt><trkpt lat="44.59302665639054" lon="0.9286736770559073"><ele>240.0</ele><time>2026-05-01T10:09:09Z</time></trkpt><trkpt lat="44.592920586556396" lon="0.9286244547760968"><ele>240.0</ele><time>2026-05-01T10:09:10Z</time></trkpt><trkpt lat="44.59280610403168" lon="0.9285829075416006"><ele>240.0</ele><time>2026-05-01T10:09:11Z</time></trkpt><trkpt lat="44.59269906647425" lon="0.9285438991505102"><ele>240.0</ele><time>2026-05-01T10:09:12Z</time></trkpt><trkpt lat="44.59261093369922" lon="0.9285092732736869"><ele>239.8</ele><time>2026-05-01T10:09:13Z</time></trkpt><trkpt lat="44.59252590463033" lon="0.9284617510508171"><ele>239.6</ele><time>2026-05-01T10:09:14Z</time></trkpt><trkpt lat="44.59246428456476" lon="0.9284309045759042"><ele>239.39999999999998</ele><time>2026-05-01T10:09:15Z</time></trkpt><trkpt lat="44.59239402737013" lon="0.9283588063406784"><ele>239.2</ele><time>2026-05-01T10:09:17Z</time></trkpt><trkpt lat="44.592397905451264" lon="0.9281770507551339"><ele>239.0</ele><time>2026-05-01T10:09:19Z</time></trkpt><trkpt lat="44.5923647060857" lon="0.9280681743864233"><ele>239.33333333333334</ele><time>2026-05-01T10:09:20Z</time></trkpt><trkpt lat="44.59232181865991" lon="0.9279573830006955"><ele>239.66666666666669</ele><time>2026-05-01T10:09:21Z</time></trkpt><trkpt lat="44.592273279268916" lon="0.9278450126662483"><ele>240.0</ele><time>2026-05-01T10:09:22Z</time></trkpt><trkpt lat="44.59222609334653" lon="0.927753257851724"><ele>240.33333333333331</ele><time>2026-05-01T10:09:23Z</time></trkpt><trkpt lat="44.59217327367467" lon="0.9276744801910669"><ele>240.66666666666666</ele><time>2026-05-01T10:09:24Z</time></trkpt><trkpt lat="44.59212268095529" lon="0.9276146775249255"><ele>241.0</ele><time>2026-05-01T10:09:25Z</time></trkpt><trkpt lat="44.59205130465707" lon="0.9275391571848508"><ele>241.0</ele><time>2026-05-01T10:09:27Z</time></trkpt><trkpt lat="44.59201103030266" lon="0.9273816797363991"><ele>241.0</ele><time>2026-05-01T10:09:30Z</time></trkpt><trkpt lat="44.59200379162727" lon="0.9272541924352392"><ele>241.0</ele><time>2026-05-01T10:09:35Z</time></trkpt><trkpt lat="44.59206202671047" lon="0.9270654771161448"><ele>241.0</ele><time>2026-05-01T10:09:37Z</time></trkpt><trkpt lat="44.59211232963119" lon="0.9269278687258508"><ele>241.0</ele><time>2026-05-01T10:09:38Z</time></trkpt><trkpt lat="44.59216353383808" lon="0.9267826478725661"><ele>241.0</ele><time>2026-05-01T10:09:39Z</time></trkpt><trkpt lat="44.59222127140114" lon="0.9266307553617229"><ele>241.0</ele><time>2026-05-01T10:09:40Z</time></trkpt><trkpt lat="44.59228245150643" lon="0.9264731401988548"><ele>241.0</ele><time>2026-05-01T10:09:41Z</time></trkpt><trkpt lat="44.59234530907988" lon="0.9263220180196962"><ele>241.0</ele><time>2026-05-01T10:09:42Z</time></trkpt><trkpt lat="44.592401092009844" lon="0.9261607615729865"><ele>241.00000000000003</ele><time>2026-05-01T10:09:43Z</time></trkpt><trkpt lat="44.59246014792498" lon="0.9260313069022577"><ele>241.00000000000003</ele><time>2026-05-01T10:09:44Z</time></trkpt><trkpt lat="44.59250842842737" lon="0.9259168685791235"><ele>241.0</ele><time>2026-05-01T10:09:45Z</time></trkpt><trkpt lat="44.59256636540149" lon="0.9258040106857371"><ele>241.0</ele><time>2026-05-01T10:09:46Z</time></trkpt><trkpt lat="44.59263384158042" lon="0.9256833425212188"><ele>241.0</ele><time>2026-05-01T10:09:47Z</time></trkpt><trkpt lat="44.59270984530657" lon="0.9255444871624536"><ele>241.0</ele><time>2026-05-01T10:09:48Z</time></trkpt><trkpt lat="44.59278811368603" lon="0.9254044508150696"><ele>241.0</ele><time>2026-05-01T10:09:49Z</time></trkpt><trkpt lat="44.5928613008727" lon="0.9252570809517399"><ele>241.0</ele><time>2026-05-01T10:09:50Z</time></trkpt><trkpt lat="44.59293978797148" lon="0.9251019606634967"><ele>240.75</ele><time>2026-05-01T10:09:51Z</time></trkpt><trkpt lat="44.593011338058815" lon="0.9249354164203758"><ele>240.5</ele><time>2026-05-01T10:09:52Z</time></trkpt><trkpt lat="44.593065587579744" lon="0.9247659782790055"><ele>240.25</ele><time>2026-05-01T10:09:53Z</time></trkpt><trkpt lat="44.5931189364697" lon="0.9246099828212475"><ele>240.0</ele><time>2026-05-01T10:09:54Z</time></trkpt><trkpt lat="44.593157195017" lon="0.9244798536233343"><ele>240.0</ele><time>2026-05-01T10:09:55Z</time></trkpt><trkpt lat="44.593181410882735" lon="0.9243691143765174"><ele>240.0</ele><time>2026-05-01T10:09:56Z</time></trkpt><trkpt lat="44.59319438447592" lon="0.9242640977794826"><ele>240.0</ele><time>2026-05-01T10:09:57Z</time></trkpt><trkpt lat="44.59322749911228" lon="0.9241789267362344"><ele>240.0</ele><time>2026-05-01T10:09:58Z</time></trkpt><trkpt lat="44.59313610563567" lon="0.9240416770997834"><ele>240.0</ele><time>2026-05-01T10:09:59Z</time></trkpt><trkpt lat="44.59310525485284" lon="0.9239105097426863"><ele>239.75</ele><time>2026-05-01T10:10:00Z</time></trkpt><trkpt lat="44.59307458745966" lon="0.9237578245079201"><ele>239.5</ele><time>2026-05-01T10:10:01Z</time></trkpt><trkpt lat="44.59303996883055" lon="0.9235924257097786"><ele>239.25</ele><time>2026-05-01T10:10:02Z</time></trkpt><trkpt lat="44.59300653025979" lon="0.9234174528551252"><ele>239.0</ele><time>2026-05-01T10:10:03Z</time></trkpt><trkpt lat="44.592970194014654" lon="0.923233408890001"><ele>238.25</ele><time>2026-05-01T10:10:04Z</time></trkpt><trkpt lat="44.592935558419484" lon="0.9230460859563763"><ele>237.5</ele><time>2026-05-01T10:10:05Z</time></trkpt><trkpt lat="44.592898541620194" lon="0.9228399072139646"><ele>236.75</ele><time>2026-05-01T10:10:06Z</time></trkpt><trkpt lat="44.592861765199544" lon="0.9226456742212638"><ele>236.0</ele><time>2026-05-01T10:10:07Z</time></trkpt><trkpt lat="44.592822897899865" lon="0.9224458227640376"><ele>235.0</ele><time>2026-05-01T10:10:08Z</time></trkpt><trkpt lat="44.5927824052806" lon="0.9222458191710425"><ele>234.0</ele><time>2026-05-01T10:10:09Z</time></trkpt><trkpt lat="44.59273846665205" lon="0.9220531182036966"><ele>233.0</ele><time>2026-05-01T10:10:10Z</time></trkpt><trkpt lat="44.59270033007031" lon="0.921856265924026"><ele>232.0</ele><time>2026-05-01T10:10:11Z</time></trkpt><trkpt lat="44.59266242562067" lon="0.921652532038032"><ele>231.75</ele><time>2026-05-01T10:10:12Z</time></trkpt><trkpt lat="44.59262568298018" lon="0.9214770772632618"><ele>231.5</ele><time>2026-05-01T10:10:13Z</time></trkpt><trkpt lat="44.5925877193919" lon="0.9212942998024495"><ele>231.25</ele><time>2026-05-01T10:10:14Z</time></trkpt><trkpt lat="44.592550425026054" lon="0.9211218446734696"><ele>231.0</ele><time>2026-05-01T10:10:15Z</time></trkpt><trkpt lat="44.59251409261594" lon="0.920943241376275"><ele>231.60000000000002</ele><time>2026-05-01T10:10:16Z</time></trkpt><trkpt lat="44.592483776533214" lon="0.920771706406452"><ele>232.20000000000002</ele><time>2026-05-01T10:10:17Z</time></trkpt><trkpt lat="44.59246560924973" lon="0.9206309864232255"><ele>232.79999999999998</ele><time>2026-05-01T10:10:18Z</time></trkpt><trkpt lat="44.59245335680984" lon="0.920509814326386"><ele>233.39999999999998</ele><time>2026-05-01T10:10:19Z</time></trkpt><trkpt lat="44.59245764093363" lon="0.920385193841385"><ele>234.0</ele><time>2026-05-01T10:10:20Z</time></trkpt><trkpt lat="44.59246300756532" lon="0.9202462450038243"><ele>234.0</ele><time>2026-05-01T10:10:21Z</time></trkpt><trkpt lat="44.59243974253117" lon="0.920124057899861"><ele>233.99999999999997</ele><time>2026-05-01T10:10:22Z</time></trkpt><trkpt lat="44.592420895077694" lon="0.920008312233767"><ele>233.99999999999997</ele><time>2026-05-01T10:10:24Z</time></trkpt><trkpt lat="44.59239429054204" lon="0.9198273613878105"><ele>234.0</ele><time>2026-05-01T10:10:26Z</time></trkpt><trkpt lat="44.592383524928074" lon="0.9196984084531703"><ele>234.0</ele><time>2026-05-01T10:10:27Z</time></trkpt><trkpt lat="44.5923761652436" lon="0.9195734692180274"><ele>234.2</ele><time>2026-05-01T10:10:28Z</time></trkpt><trkpt lat="44.592372224981105" lon="0.9194251879991677"><ele>234.39999999999998</ele><time>2026-05-01T10:10:29Z</time></trkpt><trkpt lat="44.592367038229185" lon="0.9192628093925964"><ele>234.6</ele><time>2026-05-01T10:10:30Z</time></trkpt><trkpt lat="44.59236870054184" lon="0.9191223691660505"><ele>234.8</ele><time>2026-05-01T10:10:31Z</time></trkpt><trkpt lat="44.592365157436674" lon="0.9189967650441748"><ele>235.0</ele><time>2026-05-01T10:10:32Z</time></trkpt><trkpt lat="44.59236443667569" lon="0.9188944203868795"><ele>234.33333333333331</ele><time>2026-05-01T10:10:33Z</time></trkpt><trkpt lat="44.59236694527032" lon="0.918705770706824"><ele>233.66666666666666</ele><time>2026-05-01T10:10:35Z</time></trkpt><trkpt lat="44.59235431836382" lon="0.918613278246443"><ele>233.0</ele><time>2026-05-01T10:10:36Z</time></trkpt><trkpt lat="44.59234000275765" lon="0.9185100296704275"><ele>232.33333333333331</ele><time>2026-05-01T10:10:37Z</time></trkpt><trkpt lat="44.59232187294577" lon="0.9184132017691282"><ele>231.66666666666666</ele><time>2026-05-01T10:10:38Z</time></trkpt><trkpt lat="44.592274918445455" lon="0.9183308130290291"><ele>231.0</ele><time>2026-05-01T10:10:39Z</time></trkpt><trkpt lat="44.59220671029564" lon="0.9182611095626072"><ele>231.0</ele><time>2026-05-01T10:10:40Z</time></trkpt><trkpt lat="44.59211537266079" lon="0.9181608381414347"><ele>231.00000000000003</ele><time>2026-05-01T10:10:41Z</time></trkpt><trkpt lat="44.59205640960776" lon="0.9180943349433563"><ele>231.00000000000003</ele><time>2026-05-01T10:10:42Z</time></trkpt><trkpt lat="44.59197681345808" lon="0.9180405362067785"><ele>231.0</ele><time>2026-05-01T10:10:43Z</time></trkpt><trkpt lat="44.5918882674099" lon="0.9180052841112115"><ele>231.0</ele><time>2026-05-01T10:10:44Z</time></trkpt><trkpt lat="44.59179578585154" lon="0.9179736850798438"><ele>232.20000000000002</ele><time>2026-05-01T10:10:45Z</time></trkpt><trkpt lat="44.59171711740996" lon="0.9179502362930928"><ele>233.40000000000003</ele><time>2026-05-01T10:10:46Z</time></trkpt><trkpt lat="44.591640126264075" lon="0.9179476088763326"><ele>234.6</ele><time>2026-05-01T10:10:47Z</time></trkpt><trkpt lat="44.591548016542156" lon="0.91800349827632"><ele>235.8</ele><time>2026-05-01T10:10:48Z</time></trkpt><trkpt lat="44.59146149186309" lon="0.91807841884073"><ele>237.0</ele><time>2026-05-01T10:10:49Z</time></trkpt><trkpt lat="44.59134359659128" lon="0.9181228216392583"><ele>237.0</ele><time>2026-05-01T10:10:50Z</time></trkpt><trkpt lat="44.591247507430026" lon="0.9181631653400268"><ele>237.0</ele><time>2026-05-01T10:10:51Z</time></trkpt><trkpt lat="44.59110776448796" lon="0.9182075175793976"><ele>237.0</ele><time>2026-05-01T10:10:52Z</time></trkpt><trkpt lat="44.590941144113145" lon="0.9182984369710919"><ele>237.0</ele><time>2026-05-01T10:10:53Z</time></trkpt><trkpt lat="44.590809560081404" lon="0.9183518097053402"><ele>240.0</ele><time>2026-05-01T10:10:54Z</time></trkpt><trkpt lat="44.59068640535883" lon="0.9184112505476384"><ele>243.0</ele><time>2026-05-01T10:10:55Z</time></trkpt><trkpt lat="44.59055137907742" lon="0.9184411414885818"><ele>246.0</ele><time>2026-05-01T10:10:56Z</time></trkpt><trkpt lat="44.59042979985989" lon="0.9185117064083885"><ele>249.0</ele><time>2026-05-01T10:10:57Z</time></trkpt><trkpt lat="44.5903199626352" lon="0.9185747739966428"><ele>250.5</ele><time>2026-05-01T10:10:58Z</time></trkpt><trkpt lat="44.590194687231275" lon="0.9186284700856145"><ele>252.0</ele><time>2026-05-01T10:10:59Z</time></trkpt><trkpt lat="44.59004352847571" lon="0.9186825952054216"><ele>253.5</ele><time>2026-05-01T10:11:00Z</time></trkpt><trkpt lat="44.58991985330975" lon="0.9187192493534264"><ele>255.0</ele><time>2026-05-01T10:11:01Z</time></trkpt><trkpt lat="44.58981321774411" lon="0.9187729169997905"><ele>255.0</ele><time>2026-05-01T10:11:02Z</time></trkpt><trkpt lat="44.58971886652132" lon="0.9187962550575168"><ele>255.0</ele><time>2026-05-01T10:11:03Z</time></trkpt><trkpt lat="44.58960314797236" lon="0.9188665299329711"><ele>255.0</ele><time>2026-05-01T10:11:04Z</time></trkpt><trkpt lat="44.58950434330824" lon="0.9189187471739955"><ele>255.0</ele><time>2026-05-01T10:11:05Z</time></trkpt><trkpt lat="44.589403859811085" lon="0.9189445214022588"><ele>255.0</ele><time>2026-05-01T10:11:06Z</time></trkpt><trkpt lat="44.58929842351559" lon="0.9189690830192138"><ele>254.66666666666666</ele><time>2026-05-01T10:11:07Z</time></trkpt><trkpt lat="44.589216801474436" lon="0.918964328502722"><ele>254.33333333333331</ele><time>2026-05-01T10:11:08Z</time></trkpt><trkpt lat="44.58915864470766" lon="0.9189241609222507"><ele>254.0</ele><time>2026-05-01T10:11:09Z</time></trkpt><trkpt lat="44.58907490750694" lon="0.9188678531822129"><ele>253.66666666666666</ele><time>2026-05-01T10:11:10Z</time></trkpt><trkpt lat="44.58899585238948" lon="0.9188512971817308"><ele>253.33333333333331</ele><time>2026-05-01T10:11:11Z</time></trkpt><trkpt lat="44.58892822178924" lon="0.9188592540504537"><ele>253.0</ele><time>2026-05-01T10:11:12Z</time></trkpt><trkpt lat="44.58886580061124" lon="0.9188319875701352"><ele>253.0</ele><time>2026-05-01T10:11:13Z</time></trkpt><trkpt lat="44.58878081227259" lon="0.918670614761959"><ele>253.0</ele><time>2026-05-01T10:11:15Z</time></trkpt><trkpt lat="44.58874495702307" lon="0.9185376707657734"><ele>253.0</ele><time>2026-05-01T10:11:16Z</time></trkpt><trkpt lat="44.58869421593493" lon="0.9183870064468818"><ele>253.0</ele><time>2026-05-01T10:11:17Z</time></trkpt><trkpt lat="44.5886401996302" lon="0.9182283895128501"><ele>252.66666666666666</ele><time>2026-05-01T10:11:18Z</time></trkpt><trkpt lat="44.588597444205334" lon="0.9181176076497349"><ele>252.33333333333331</ele><time>2026-05-01T10:11:19Z</time></trkpt><trkpt lat="44.58855821265352" lon="0.918039890672961"><ele>252.0</ele><time>2026-05-01T10:11:20Z</time></trkpt><trkpt lat="44.58849254401804" lon="0.9180405892256178"><ele>251.66666666666669</ele><time>2026-05-01T10:11:22Z</time></trkpt><trkpt lat="44.58843850935307" lon="0.918129715062723"><ele>251.33333333333334</ele><time>2026-05-01T10:11:24Z</time></trkpt><trkpt lat="44.588403437329575" lon="0.9182652524541753"><ele>251.0</ele><time>2026-05-01T10:11:26Z</time></trkpt><trkpt lat="44.5883675275766" lon="0.9183648558035432"><ele>250.60000000000002</ele><time>2026-05-01T10:11:27Z</time></trkpt><trkpt lat="44.588309525061085" lon="0.9184492338884725"><ele>250.20000000000002</ele><time>2026-05-01T10:11:28Z</time></trkpt><trkpt lat="44.58822606043402" lon="0.9185316045993748"><ele>249.79999999999998</ele><time>2026-05-01T10:11:29Z</time></trkpt><trkpt lat="44.58811883474702" lon="0.9186071906349172"><ele>249.39999999999998</ele><time>2026-05-01T10:11:30Z</time></trkpt><trkpt lat="44.588015883524776" lon="0.9186947727880834"><ele>249.0</ele><time>2026-05-01T10:11:31Z</time></trkpt><trkpt lat="44.58791309075491" lon="0.9188051539143415"><ele>249.0</ele><time>2026-05-01T10:11:32Z</time></trkpt><trkpt lat="44.58781193129746" lon="0.9189310354592759"><ele>249.0</ele><time>2026-05-01T10:11:33Z</time></trkpt><trkpt lat="44.587717007920396" lon="0.9190464936128508"><ele>249.0</ele><time>2026-05-01T10:11:34Z</time></trkpt><trkpt lat="44.587610597859126" lon="0.9191768053763636"><ele>249.0</ele><time>2026-05-01T10:11:35Z</time></trkpt><trkpt lat="44.58751001034573" lon="0.9192928962703649"><ele>248.25</ele><time>2026-05-01T10:11:36Z</time></trkpt><trkpt lat="44.58740508472789" lon="0.9194002751638307"><ele>247.5</ele><time>2026-05-01T10:11:37Z</time></trkpt><trkpt lat="44.58729854513528" lon="0.9195162024540292"><ele>246.75</ele><time>2026-05-01T10:11:38Z</time></trkpt><trkpt lat="44.587200456307436" lon="0.9196464128920757"><ele>246.0</ele><time>2026-05-01T10:11:39Z</time></trkpt><trkpt lat="44.587110273206186" lon="0.9197618373172779"><ele>246.0</ele><time>2026-05-01T10:11:40Z</time></trkpt><trkpt lat="44.587029526121775" lon="0.9198396856863806"><ele>246.00000000000003</ele><time>2026-05-01T10:11:41Z</time></trkpt><trkpt lat="44.58695163066648" lon="0.919914112034115"><ele>246.00000000000003</ele><time>2026-05-01T10:11:42Z</time></trkpt><trkpt lat="44.586894613362404" lon="0.9199734087963125"><ele>246.0</ele><time>2026-05-01T10:11:43Z</time></trkpt><trkpt lat="44.58680671986631" lon="0.9199589159060013"><ele>246.0</ele><time>2026-05-01T10:11:45Z</time></trkpt><trkpt lat="44.58669366899854" lon="0.9198675502747823"><ele>245.83333333333334</ele><time>2026-05-01T10:11:47Z</time></trkpt><trkpt lat="44.58662121594221" lon="0.9198826232121906"><ele>245.66666666666669</ele><time>2026-05-01T10:11:48Z</time></trkpt><trkpt lat="44.58655345677119" lon="0.9199478597961611"><ele>245.5</ele><time>2026-05-01T10:11:49Z</time></trkpt><trkpt lat="44.58648887495202" lon="0.9200302332332979"><ele>245.33333333333334</ele><time>2026-05-01T10:11:50Z</time></trkpt><trkpt lat="44.58642479649294" lon="0.9201223064337861"><ele>245.16666666666669</ele><time>2026-05-01T10:11:51Z</time></trkpt><trkpt lat="44.58636119918049" lon="0.9202086232727648"><ele>245.0</ele><time>2026-05-01T10:11:52Z</time></trkpt><trkpt lat="44.58632968568856" lon="0.9203094481700197"><ele>244.83333333333334</ele><time>2026-05-01T10:11:53Z</time></trkpt><trkpt lat="44.58633352039011" lon="0.9204059260383132"><ele>244.66666666666669</ele><time>2026-05-01T10:11:54Z</time></trkpt><trkpt lat="44.586351463381156" lon="0.9205023102639199"><ele>244.5</ele><time>2026-05-01T10:11:55Z</time></trkpt><trkpt lat="44.58635227390031" lon="0.9205910202432652"><ele>244.33333333333331</ele><time>2026-05-01T10:11:56Z</time></trkpt><trkpt lat="44.586304455120995" lon="0.9206769562490774"><ele>244.16666666666666</ele><time>2026-05-01T10:11:57Z</time></trkpt><trkpt lat="44.58621936287908" lon="0.9207688641391192"><ele>244.0</ele><time>2026-05-01T10:11:58Z</time></trkpt><trkpt lat="44.58611895116168" lon="0.9208596559556278"><ele>243.6</ele><time>2026-05-01T10:11:59Z</time></trkpt><trkpt lat="44.58601538868611" lon="0.9209653083549035"><ele>243.2</ele><time>2026-05-01T10:12:00Z</time></trkpt><trkpt lat="44.58591200181034" lon="0.9210590594619349"><ele>242.79999999999998</ele><time>2026-05-01T10:12:01Z</time></trkpt><trkpt lat="44.58582231729717" lon="0.9211382259504515"><ele>242.39999999999998</ele><time>2026-05-01T10:12:02Z</time></trkpt><trkpt lat="44.58575019619702" lon="0.9212050394127469"><ele>242.0</ele><time>2026-05-01T10:12:03Z</time></trkpt><trkpt lat="44.58569677911777" lon="0.9212581789193043"><ele>242.00000000000003</ele><time>2026-05-01T10:12:04Z</time></trkpt><trkpt lat="44.58562275756819" lon="0.92123268467535"><ele>242.0</ele><time>2026-05-01T10:12:06Z</time></trkpt><trkpt lat="44.58558051229178" lon="0.9211617191678035"><ele>242.0</ele><time>2026-05-01T10:12:07Z</time></trkpt><trkpt lat="44.58553767993446" lon="0.9210540477896899"><ele>242.0</ele><time>2026-05-01T10:12:08Z</time></trkpt><trkpt lat="44.58548368198141" lon="0.9209576968738601"><ele>242.00000000000003</ele><time>2026-05-01T10:12:09Z</time></trkpt><trkpt lat="44.58540643905722" lon="0.9208367940239303"><ele>242.0</ele><time>2026-05-01T10:12:10Z</time></trkpt><trkpt lat="44.585321385845404" lon="0.9207131504134395"><ele>241.75</ele><time>2026-05-01T10:12:11Z</time></trkpt><trkpt lat="44.585221903508305" lon="0.9206039229947284"><ele>241.5</ele><time>2026-05-01T10:12:12Z</time></trkpt><trkpt lat="44.58510321479115" lon="0.9205110813501226"><ele>241.25</ele><time>2026-05-01T10:12:13Z</time></trkpt><trkpt lat="44.58496658155924" lon="0.9204389184727383"><ele>241.0</ele><time>2026-05-01T10:12:14Z</time></trkpt><trkpt lat="44.58482698603337" lon="0.9203790197341415"><ele>241.0</ele><time>2026-05-01T10:12:15Z</time></trkpt><trkpt lat="44.58467891127561" lon="0.9203104932467643"><ele>241.0</ele><time>2026-05-01T10:12:16Z</time></trkpt><trkpt lat="44.58452404492877" lon="0.9202264811710545"><ele>241.0</ele><time>2026-05-01T10:12:17Z</time></trkpt><trkpt lat="44.584367089212314" lon="0.9201396936306662"><ele>240.0</ele><time>2026-05-01T10:12:18Z</time></trkpt><trkpt lat="44.584219761173586" lon="0.9200441335894447"><ele>239.0</ele><time>2026-05-01T10:12:19Z</time></trkpt><trkpt lat="44.58409142336755" lon="0.9199437816389748"><ele>238.0</ele><time>2026-05-01T10:12:20Z</time></trkpt><trkpt lat="44.583964410613625" lon="0.9198187141388049"><ele>238.0</ele><time>2026-05-01T10:12:21Z</time></trkpt><trkpt lat="44.5838561964116" lon="0.9196825965333272"><ele>238.0</ele><time>2026-05-01T10:12:22Z</time></trkpt><trkpt lat="44.583752649184774" lon="0.9195174014635972"><ele>238.0</ele><time>2026-05-01T10:12:23Z</time></trkpt><trkpt lat="44.58368677469643" lon="0.9193437606585019"><ele>238.0</ele><time>2026-05-01T10:12:24Z</time></trkpt><trkpt lat="44.58364337586638" lon="0.9191476362140811"><ele>237.75</ele><time>2026-05-01T10:12:25Z</time></trkpt><trkpt lat="44.583606203575044" lon="0.9189450824074602"><ele>237.5</ele><time>2026-05-01T10:12:26Z</time></trkpt><trkpt lat="44.58356168445103" lon="0.9187639640859937"><ele>237.25</ele><time>2026-05-01T10:12:27Z</time></trkpt><trkpt lat="44.58351908859323" lon="0.9185934276325136"><ele>237.0</ele><time>2026-05-01T10:12:28Z</time></trkpt><trkpt lat="44.58347199456205" lon="0.9184475817342694"><ele>237.39999999999998</ele><time>2026-05-01T10:12:29Z</time></trkpt><trkpt lat="44.583402765257304" lon="0.9183158111705246"><ele>237.79999999999998</ele><time>2026-05-01T10:12:30Z</time></trkpt><trkpt lat="44.58331960473624" lon="0.9182087060308612"><ele>238.2</ele><time>2026-05-01T10:12:31Z</time></trkpt><trkpt lat="44.58324636639404" lon="0.91812584912945"><ele>238.6</ele><time>2026-05-01T10:12:32Z</time></trkpt><trkpt lat="44.58318580701082" lon="0.9180533137843787"><ele>239.0</ele><time>2026-05-01T10:12:33Z</time></trkpt><trkpt lat="44.58313585763477" lon="0.9179929040265313"><ele>239.0</ele><time>2026-05-01T10:12:34Z</time></trkpt><trkpt lat="44.58309154540247" lon="0.9179206892240505"><ele>238.99999999999997</ele><time>2026-05-01T10:12:35Z</time></trkpt><trkpt lat="44.583188486149496" lon="0.9177156012331655"><ele>238.99999999999997</ele><time>2026-05-01T10:12:40Z</time></trkpt><trkpt lat="44.58323965206578" lon="0.9176451044444466"><ele>239.0</ele><time>2026-05-01T10:12:41Z</time></trkpt><trkpt lat="44.58331246233489" lon="0.917573754426382"><ele>239.0</ele><time>2026-05-01T10:12:42Z</time></trkpt><trkpt lat="44.58338372802486" lon="0.9174922203378243"><ele>238.79999999999998</ele><time>2026-05-01T10:12:43Z</time></trkpt><trkpt lat="44.5834593623528" lon="0.9173905831974497"><ele>238.59999999999997</ele><time>2026-05-01T10:12:44Z</time></trkpt><trkpt lat="44.583551332152126" lon="0.9173033757437095"><ele>238.4</ele><time>2026-05-01T10:12:45Z</time></trkpt><trkpt lat="44.58365877283113" lon="0.9172453502418683"><ele>238.2</ele><time>2026-05-01T10:12:46Z</time></trkpt><trkpt lat="44.58375180204012" lon="0.9171685685461779"><ele>238.0</ele><time>2026-05-01T10:12:47Z</time></trkpt><trkpt lat="44.5838363755851" lon="0.9170925963036587"><ele>236.60000000000002</ele><time>2026-05-01T10:12:48Z</time></trkpt><trkpt lat="44.583931866435876" lon="0.917045182071727"><ele>235.20000000000002</ele><time>2026-05-01T10:12:49Z</time></trkpt><trkpt lat="44.584009765811466" lon="0.9169889837688588"><ele>233.8</ele><time>2026-05-01T10:12:50Z</time></trkpt><trkpt lat="44.58408780330066" lon="0.9169025111390102"><ele>232.4</ele><time>2026-05-01T10:12:51Z</time></trkpt><trkpt lat="44.58416718668291" lon="0.916883430424578"><ele>231.0</ele><time>2026-05-01T10:12:52Z</time></trkpt><trkpt lat="44.58425962189748" lon="0.9169027343586239"><ele>231.0</ele><time>2026-05-01T10:12:53Z</time></trkpt><trkpt lat="44.58434162083377" lon="0.916951469731517"><ele>231.00000000000003</ele><time>2026-05-01T10:12:54Z</time></trkpt><trkpt lat="44.58443402875627" lon="0.9169998691679179"><ele>231.00000000000003</ele><time>2026-05-01T10:12:55Z</time></trkpt><trkpt lat="44.584542197848954" lon="0.9170415470734926"><ele>231.0</ele><time>2026-05-01T10:12:56Z</time></trkpt><trkpt lat="44.58464202160636" lon="0.9170824716998018"><ele>231.0</ele><time>2026-05-01T10:12:57Z</time></trkpt><trkpt lat="44.584724811459836" lon="0.9171212874778449"><ele>230.4</ele><time>2026-05-01T10:12:58Z</time></trkpt><trkpt lat="44.58481149065634" lon="0.9171693253686849"><ele>229.8</ele><time>2026-05-01T10:12:59Z</time></trkpt><trkpt lat="44.58489812267801" lon="0.9171845945939574"><ele>229.20000000000002</ele><time>2026-05-01T10:13:00Z</time></trkpt><trkpt lat="44.58498632029463" lon="0.9171518061776215"><ele>228.60000000000002</ele><time>2026-05-01T10:13:01Z</time></trkpt><trkpt lat="44.58507133282196" lon="0.9170825575139188"><ele>228.0</ele><time>2026-05-01T10:13:02Z</time></trkpt><trkpt lat="44.58514398540791" lon="0.9169934322451778"><ele>228.0</ele><time>2026-05-01T10:13:03Z</time></trkpt><trkpt lat="44.58519566602184" lon="0.9168769282832937"><ele>228.0</ele><time>2026-05-01T10:13:04Z</time></trkpt><trkpt lat="44.5852363081997" lon="0.9167428799318608"><ele>228.0</ele><time>2026-05-01T10:13:05Z</time></trkpt><trkpt lat="44.58528113964036" lon="0.9166119483571851"><ele>228.0</ele><time>2026-05-01T10:13:06Z</time></trkpt><trkpt lat="44.58535412589563" lon="0.9164863159847491"><ele>228.0</ele><time>2026-05-01T10:13:07Z</time></trkpt><trkpt lat="44.5854023712866" lon="0.9163470622068103"><ele>229.8</ele><time>2026-05-01T10:13:08Z</time></trkpt><trkpt lat="44.585435914600424" lon="0.9162431242473836"><ele>231.60000000000002</ele><time>2026-05-01T10:13:09Z</time></trkpt><trkpt lat="44.58549298592665" lon="0.916167500092256"><ele>233.39999999999998</ele><time>2026-05-01T10:13:10Z</time></trkpt><trkpt lat="44.58558443506525" lon="0.9160938070602742"><ele>235.2</ele><time>2026-05-01T10:13:11Z</time></trkpt><trkpt lat="44.58568412625446" lon="0.9159923359212725"><ele>237.0</ele><time>2026-05-01T10:13:12Z</time></trkpt><trkpt lat="44.58577031324141" lon="0.9158908367250954"><ele>237.0</ele><time>2026-05-01T10:13:13Z</time></trkpt><trkpt lat="44.58581303375949" lon="0.9157835153032007"><ele>237.0</ele><time>2026-05-01T10:13:14Z</time></trkpt><trkpt lat="44.58584109543469" lon="0.915682970618594"><ele>237.0</ele><time>2026-05-01T10:13:15Z</time></trkpt><trkpt lat="44.585888974309" lon="0.915554751617276"><ele>237.0</ele><time>2026-05-01T10:13:17Z</time></trkpt><trkpt lat="44.58593385261333" lon="0.9154010545837181"><ele>237.0</ele><time>2026-05-01T10:13:19Z</time></trkpt><trkpt lat="44.585953032697056" lon="0.9152616028821291"><ele>237.0</ele><time>2026-05-01T10:13:21Z</time></trkpt><trkpt lat="44.585951132119504" lon="0.9151569867893395"><ele>237.0</ele><time>2026-05-01T10:13:23Z</time></trkpt><trkpt lat="44.585975334227086" lon="0.9149904102836983"><ele>237.0</ele><time>2026-05-01T10:13:25Z</time></trkpt><trkpt lat="44.58631287798888" lon="0.9149503180643089"><ele>236.2</ele><time>2026-05-01T10:13:26Z</time></trkpt><trkpt lat="44.586393571457634" lon="0.9148554337945726"><ele>235.39999999999998</ele><time>2026-05-01T10:13:27Z</time></trkpt><trkpt lat="44.58647872620006" lon="0.9147868326810853"><ele>234.60000000000002</ele><time>2026-05-01T10:13:28Z</time></trkpt><trkpt lat="44.58656657666382" lon="0.9147339573023368"><ele>233.8</ele><time>2026-05-01T10:13:29Z</time></trkpt><trkpt lat="44.58667207786078" lon="0.9146291943949358"><ele>233.0</ele><time>2026-05-01T10:13:30Z</time></trkpt><trkpt lat="44.58676411535589" lon="0.9145488580753586"><ele>233.0</ele><time>2026-05-01T10:13:31Z</time></trkpt><trkpt lat="44.58684720958462" lon="0.914483039162534"><ele>233.0</ele><time>2026-05-01T10:13:32Z</time></trkpt><trkpt lat="44.586931103406194" lon="0.9143855099964807"><ele>233.0</ele><time>2026-05-01T10:13:33Z</time></trkpt><trkpt lat="44.58700820298254" lon="0.9142774823656256"><ele>233.0</ele><time>2026-05-01T10:13:34Z</time></trkpt><trkpt lat="44.58708389987934" lon="0.9141878640137182"><ele>233.0</ele><time>2026-05-01T10:13:35Z</time></trkpt><trkpt lat="44.58716326035274" lon="0.9141123515409669"><ele>232.66666666666669</ele><time>2026-05-01T10:13:36Z</time></trkpt><trkpt lat="44.58723800480381" lon="0.9140476666521327"><ele>232.33333333333334</ele><time>2026-05-01T10:13:37Z</time></trkpt><trkpt lat="44.58729995609221" lon="0.9139651622825541"><ele>232.0</ele><time>2026-05-01T10:13:38Z</time></trkpt><trkpt lat="44.587351791764306" lon="0.9138672965197915"><ele>231.66666666666669</ele><time>2026-05-01T10:13:39Z</time></trkpt><trkpt lat="44.58738129919714" lon="0.9137655051104939"><ele>231.33333333333334</ele><time>2026-05-01T10:13:40Z</time></trkpt><trkpt lat="44.58742677682664" lon="0.9136592043008366"><ele>231.0</ele><time>2026-05-01T10:13:41Z</time></trkpt><trkpt lat="44.587478847170374" lon="0.9135673853359401"><ele>231.0</ele><time>2026-05-01T10:13:42Z</time></trkpt><trkpt lat="44.587542022611736" lon="0.9134727962747542"><ele>231.00000000000003</ele><time>2026-05-01T10:13:43Z</time></trkpt><trkpt lat="44.58759117144003" lon="0.9133982590142735"><ele>231.00000000000003</ele><time>2026-05-01T10:13:44Z</time></trkpt><trkpt lat="44.58769432013542" lon="0.913243654113086"><ele>231.0</ele><time>2026-05-01T10:13:46Z</time></trkpt><trkpt lat="44.587753288116424" lon="0.9131842922028091"><ele>231.0</ele><time>2026-05-01T10:13:47Z</time></trkpt><trkpt lat="44.587804768597934" lon="0.9131125106491244"><ele>231.0</ele><time>2026-05-01T10:13:48Z</time></trkpt><trkpt lat="44.587894154223235" lon="0.9129831410846984"><ele>231.0</ele><time>2026-05-01T10:13:50Z</time></trkpt><trkpt lat="44.58800203388356" lon="0.91289650464545"><ele>231.0</ele><time>2026-05-01T10:13:52Z</time></trkpt><trkpt lat="44.588024548259995" lon="0.9127285832704575"><ele>231.0</ele><time>2026-05-01T10:13:54Z</time></trkpt><trkpt lat="44.58804907656636" lon="0.9125926553139445"><ele>229.60000000000002</ele><time>2026-05-01T10:13:55Z</time></trkpt><trkpt lat="44.5880858680179" lon="0.9124757214261607"><ele>228.20000000000002</ele><time>2026-05-01T10:13:56Z</time></trkpt><trkpt lat="44.588126289792946" lon="0.912369460580131"><ele>226.79999999999998</ele><time>2026-05-01T10:13:57Z</time></trkpt><trkpt lat="44.58816668475909" lon="0.9122464093147565"><ele>225.39999999999998</ele><time>2026-05-01T10:13:58Z</time></trkpt><trkpt lat="44.5881973366146" lon="0.9121372755964307"><ele>224.0</ele><time>2026-05-01T10:13:59Z</time></trkpt><trkpt lat="44.58821258885718" lon="0.9119873556144357"><ele>224.0</ele><time>2026-05-01T10:14:00Z</time></trkpt><trkpt lat="44.58824901102728" lon="0.9118274458552237"><ele>223.99999999999997</ele><time>2026-05-01T10:14:01Z</time></trkpt><trkpt lat="44.58828207089408" lon="0.9116609373762515"><ele>223.99999999999997</ele><time>2026-05-01T10:14:02Z</time></trkpt><trkpt lat="44.58831223862672" lon="0.9115092462286739"><ele>224.0</ele><time>2026-05-01T10:14:03Z</time></trkpt><trkpt lat="44.58830833312604" lon="0.911394859147155"><ele>224.0</ele><time>2026-05-01T10:14:04Z</time></trkpt><trkpt lat="44.588358743421345" lon="0.9112469393412941"><ele>223.0</ele><time>2026-05-01T10:14:05Z</time></trkpt><trkpt lat="44.588414749338106" lon="0.9110901376045927"><ele>222.0</ele><time>2026-05-01T10:14:06Z</time></trkpt><trkpt lat="44.58847659228645" lon="0.9109233489441707"><ele>221.0</ele><time>2026-05-01T10:14:07Z</time></trkpt><trkpt lat="44.58853483858931" lon="0.9107766788245064"><ele>220.0</ele><time>2026-05-01T10:14:08Z</time></trkpt><trkpt lat="44.588598619924355" lon="0.9106030812876719"><ele>220.2</ele><time>2026-05-01T10:14:09Z</time></trkpt><trkpt lat="44.58864509508855" lon="0.9104613391286339"><ele>220.4</ele><time>2026-05-01T10:14:10Z</time></trkpt><trkpt lat="44.58869027584649" lon="0.9103130360988446"><ele>220.60000000000002</ele><time>2026-05-01T10:14:11Z</time></trkpt><trkpt lat="44.58873526938855" lon="0.9102083874740756"><ele>220.8</ele><time>2026-05-01T10:14:12Z</time></trkpt><trkpt lat="44.58877445681424" lon="0.9101046324577778"><ele>221.0</ele><time>2026-05-01T10:14:14Z</time></trkpt><trkpt lat="44.58883705292106" lon="0.9100279018233707"><ele>219.4</ele><time>2026-05-01T10:14:20Z</time></trkpt><trkpt lat="44.58887974749822" lon="0.9099191876675466"><ele>217.8</ele><time>2026-05-01T10:14:21Z</time></trkpt><trkpt lat="44.58892377170215" lon="0.9097628808733415"><ele>216.20000000000002</ele><time>2026-05-01T10:14:22Z</time></trkpt><trkpt lat="44.5889696476554" lon="0.9096168897373527"><ele>214.60000000000002</ele><time>2026-05-01T10:14:23Z</time></trkpt><trkpt lat="44.589016773146966" lon="0.9094883182728087"><ele>213.0</ele><time>2026-05-01T10:14:24Z</time></trkpt><trkpt lat="44.58907870608217" lon="0.9093710143088507"><ele>213.0</ele><time>2026-05-01T10:14:25Z</time></trkpt><trkpt lat="44.589161041715755" lon="0.9092656322905112"><ele>213.0</ele><time>2026-05-01T10:14:26Z</time></trkpt><trkpt lat="44.58927317856661" lon="0.909200051693334"><ele>213.0</ele><time>2026-05-01T10:14:27Z</time></trkpt><trkpt lat="44.58937673578468" lon="0.9091051573989509"><ele>213.0</ele><time>2026-05-01T10:14:28Z</time></trkpt><trkpt lat="44.58945075341518" lon="0.9090038742867691"><ele>211.4</ele><time>2026-05-01T10:14:29Z</time></trkpt><trkpt lat="44.58953713354931" lon="0.9088905512394673"><ele>209.8</ele><time>2026-05-01T10:14:30Z</time></trkpt><trkpt lat="44.589611358767264" lon="0.9088219249143349"><ele>208.2</ele><time>2026-05-01T10:14:31Z</time></trkpt><trkpt lat="44.58969767852241" lon="0.9087389868432125"><ele>206.6</ele><time>2026-05-01T10:14:32Z</time></trkpt><trkpt lat="44.58978239078948" lon="0.9086809975103338"><ele>205.0</ele><time>2026-05-01T10:14:33Z</time></trkpt><trkpt lat="44.58988845771732" lon="0.9086483049257664"><ele>204.99999999999997</ele><time>2026-05-01T10:14:34Z</time></trkpt><trkpt lat="44.589985103498904" lon="0.9086078495208578"><ele>205.0</ele><time>2026-05-01T10:14:35Z</time></trkpt><trkpt lat="44.590064787642326" lon="0.9085566565874725"><ele>205.0</ele><time>2026-05-01T10:14:36Z</time></trkpt><trkpt lat="44.59012737419886" lon="0.9084967256868446"><ele>205.0</ele><time>2026-05-01T10:14:37Z</time></trkpt><trkpt lat="44.590171775440886" lon="0.908424328085091"><ele>204.99999999999997</ele><time>2026-05-01T10:14:38Z</time></trkpt><trkpt lat="44.59017687536432" lon="0.9083208816955749"><ele>205.0</ele><time>2026-05-01T10:14:39Z</time></trkpt><trkpt lat="44.59016648358838" lon="0.9081885573914857"><ele>204.8</ele><time>2026-05-01T10:14:40Z</time></trkpt><trkpt lat="44.59016776309589" lon="0.9080435110363781"><ele>204.6</ele><time>2026-05-01T10:14:41Z</time></trkpt><trkpt lat="44.590204684750546" lon="0.9078958706789577"><ele>204.39999999999998</ele><time>2026-05-01T10:14:42Z</time></trkpt><trkpt lat="44.59025270622252" lon="0.9077751283952845"><ele>204.2</ele><time>2026-05-01T10:14:43Z</time></trkpt><trkpt lat="44.59031514909056" lon="0.9076432887650733"><ele>204.0</ele><time>2026-05-01T10:14:44Z</time></trkpt><trkpt lat="44.590364448355785" lon="0.9074893310593585"><ele>207.0</ele><time>2026-05-01T10:14:45Z</time></trkpt><trkpt lat="44.59041963290812" lon="0.9073448512784683"><ele>210.0</ele><time>2026-05-01T10:14:46Z</time></trkpt><trkpt lat="44.59049714107435" lon="0.9071896631885771"><ele>213.0</ele><time>2026-05-01T10:14:47Z</time></trkpt><trkpt lat="44.59058161311621" lon="0.907029481384192"><ele>216.0</ele><time>2026-05-01T10:14:48Z</time></trkpt><trkpt lat="44.59064904870623" lon="0.9069006347061239"><ele>216.0</ele><time>2026-05-01T10:14:49Z</time></trkpt><trkpt lat="44.590700207728034" lon="0.9067546583397611"><ele>216.0</ele><time>2026-05-01T10:14:50Z</time></trkpt><trkpt lat="44.59073216559346" lon="0.9066019831220972"><ele>216.0</ele><time>2026-05-01T10:14:51Z</time></trkpt><trkpt lat="44.590726755089364" lon="0.9064252952115928"><ele>216.0</ele><time>2026-05-01T10:14:52Z</time></trkpt><trkpt lat="44.5907157244966" lon="0.9062572775375324"><ele>216.5</ele><time>2026-05-01T10:14:53Z</time></trkpt><trkpt lat="44.590666012395744" lon="0.9060588068579577"><ele>217.0</ele><time>2026-05-01T10:14:54Z</time></trkpt><trkpt lat="44.59059876338891" lon="0.905845686548973"><ele>217.5</ele><time>2026-05-01T10:14:55Z</time></trkpt><trkpt lat="44.5905503528761" lon="0.9057020913007433"><ele>218.0</ele><time>2026-05-01T10:14:56Z</time></trkpt><trkpt lat="44.59054346088134" lon="0.9055416385597459"><ele>219.5</ele><time>2026-05-01T10:14:57Z</time></trkpt><trkpt lat="44.59056319434689" lon="0.9053588257801043"><ele>221.0</ele><time>2026-05-01T10:14:58Z</time></trkpt><trkpt lat="44.59055461007124" lon="0.9051686760077954"><ele>222.5</ele><time>2026-05-01T10:14:59Z</time></trkpt><trkpt lat="44.59051421909077" lon="0.9049515609314449"><ele>224.0</ele><time>2026-05-01T10:15:00Z</time></trkpt><trkpt lat="44.5904623463565" lon="0.9047638143377209"><ele>225.33333333333334</ele><time>2026-05-01T10:15:01Z</time></trkpt><trkpt lat="44.590384230260575" lon="0.9045658534195251"><ele>226.66666666666669</ele><time>2026-05-01T10:15:02Z</time></trkpt><trkpt lat="44.59031081090711" lon="0.9043930736673148"><ele>228.0</ele><time>2026-05-01T10:15:03Z</time></trkpt><trkpt lat="44.5902343737586" lon="0.9042151495552819"><ele>228.4</ele><time>2026-05-01T10:15:04Z</time></trkpt><trkpt lat="44.59016819933073" lon="0.9040683172570361"><ele>228.8</ele><time>2026-05-01T10:15:05Z</time></trkpt><trkpt lat="44.590111982548905" lon="0.9039517915003709"><ele>229.2</ele><time>2026-05-01T10:15:06Z</time></trkpt><trkpt lat="44.590065945338445" lon="0.9038539617845504"><ele>229.6</ele><time>2026-05-01T10:15:07Z</time></trkpt><trkpt lat="44.58996631079205" lon="0.9038189219317604"><ele>230.0</ele><time>2026-05-01T10:15:10Z</time></trkpt><trkpt lat="44.58985718776034" lon="0.9038318313045544"><ele>230.0</ele><time>2026-05-01T10:15:12Z</time></trkpt><trkpt lat="44.58976956474371" lon="0.9039322657323693"><ele>230.0</ele><time>2026-05-01T10:15:14Z</time></trkpt><trkpt lat="44.58969146405018" lon="0.9039724782575252"><ele>230.0</ele><time>2026-05-01T10:15:15Z</time></trkpt><trkpt lat="44.589600263814276" lon="0.9039852659117081"><ele>230.0</ele><time>2026-05-01T10:15:16Z</time></trkpt><trkpt lat="44.589508710437386" lon="0.9040035625699204"><ele>230.0</ele><time>2026-05-01T10:15:17Z</time></trkpt><trkpt lat="44.58941360629729" lon="0.9040006086607805"><ele>230.5</ele><time>2026-05-01T10:15:18Z</time></trkpt><trkpt lat="44.589312312343644" lon="0.9039643038097973"><ele>231.0</ele><time>2026-05-01T10:15:19Z</time></trkpt><trkpt lat="44.58920933036867" lon="0.9039229472820403"><ele>231.5</ele><time>2026-05-01T10:15:20Z</time></trkpt><trkpt lat="44.58909304100445" lon="0.903895779242271"><ele>232.0</ele><time>2026-05-01T10:15:21Z</time></trkpt><trkpt lat="44.58897225069609" lon="0.9038642339785204"><ele>232.0</ele><time>2026-05-01T10:15:22Z</time></trkpt><trkpt lat="44.588841062124025" lon="0.9038227345322046"><ele>232.0</ele><time>2026-05-01T10:15:23Z</time></trkpt><trkpt lat="44.588712203783" lon="0.9037832886298623"><ele>232.0</ele><time>2026-05-01T10:15:24Z</time></trkpt><trkpt lat="44.588569385838525" lon="0.9037541777584348"><ele>232.0</ele><time>2026-05-01T10:15:25Z</time></trkpt><trkpt lat="44.588426168880225" lon="0.9037311148776712"><ele>231.0</ele><time>2026-05-01T10:15:26Z</time></trkpt><trkpt lat="44.58829042145586" lon="0.9037245744694147"><ele>230.0</ele><time>2026-05-01T10:15:27Z</time></trkpt><trkpt lat="44.58816912456394" lon="0.9037600207866984"><ele>229.0</ele><time>2026-05-01T10:15:28Z</time></trkpt><trkpt lat="44.58805437086177" lon="0.903847204424218"><ele>228.0</ele><time>2026-05-01T10:15:29Z</time></trkpt><trkpt lat="44.587932455403276" lon="0.9039503081053604"><ele>228.33333333333331</ele><time>2026-05-01T10:15:30Z</time></trkpt><trkpt lat="44.58780684708857" lon="0.9040839428911236"><ele>228.66666666666666</ele><time>2026-05-01T10:15:31Z</time></trkpt><trkpt lat="44.58768743445694" lon="0.9042304127464813"><ele>229.0</ele><time>2026-05-01T10:15:32Z</time></trkpt><trkpt lat="44.58756297671397" lon="0.9043736680767318"><ele>229.66666666666666</ele><time>2026-05-01T10:15:33Z</time></trkpt><trkpt lat="44.58743643261379" lon="0.904485410566885"><ele>230.33333333333331</ele><time>2026-05-01T10:15:34Z</time></trkpt><trkpt lat="44.58729460814655" lon="0.9045736153988283"><ele>231.0</ele><time>2026-05-01T10:15:35Z</time></trkpt><trkpt lat="44.58714265705804" lon="0.9046054469237693"><ele>229.66666666666669</ele><time>2026-05-01T10:15:36Z</time></trkpt><trkpt lat="44.58698641197068" lon="0.9046304233267013"><ele>228.33333333333334</ele><time>2026-05-01T10:15:37Z</time></trkpt><trkpt lat="44.58682690038991" lon="0.9046504428411388"><ele>227.0</ele><time>2026-05-01T10:15:38Z</time></trkpt><trkpt lat="44.586674949204266" lon="0.9046344446680369"><ele>227.0</ele><time>2026-05-01T10:15:39Z</time></trkpt><trkpt lat="44.5865324868539" lon="0.9045579348018485"><ele>227.0</ele><time>2026-05-01T10:15:40Z</time></trkpt><trkpt lat="44.586397715722" lon="0.9044639871875985"><ele>227.0</ele><time>2026-05-01T10:15:41Z</time></trkpt><trkpt lat="44.58626937097066" lon="0.9043320549456499"><ele>226.25</ele><time>2026-05-01T10:15:42Z</time></trkpt><trkpt lat="44.58614469784833" lon="0.9042151646855267"><ele>225.5</ele><time>2026-05-01T10:15:43Z</time></trkpt><trkpt lat="44.58604194993685" lon="0.9040826435547635"><ele>224.75</ele><time>2026-05-01T10:15:44Z</time></trkpt><trkpt lat="44.58592462842696" lon="0.9039904078282215"><ele>224.0</ele><time>2026-05-01T10:15:45Z</time></trkpt><trkpt lat="44.585800691774" lon="0.9039242588158861"><ele>224.0</ele><time>2026-05-01T10:15:46Z</time></trkpt><trkpt lat="44.58567756207251" lon="0.9039135148531325"><ele>224.0</ele><time>2026-05-01T10:15:47Z</time></trkpt><trkpt lat="44.585558137995875" lon="0.9039334093053359"><ele>224.0</ele><time>2026-05-01T10:15:48Z</time></trkpt><trkpt lat="44.585443451771354" lon="0.903974120204831"><ele>224.0</ele><time>2026-05-01T10:15:49Z</time></trkpt><trkpt lat="44.58531978080288" lon="0.9040320049803933"><ele>223.0</ele><time>2026-05-01T10:15:50Z</time></trkpt><trkpt lat="44.58519798020253" lon="0.9040956579711686"><ele>222.0</ele><time>2026-05-01T10:15:51Z</time></trkpt><trkpt lat="44.58507959877045" lon="0.9041725698898161"><ele>221.0</ele><time>2026-05-01T10:15:52Z</time></trkpt><trkpt lat="44.584984128797096" lon="0.9042845360156117"><ele>220.0</ele><time>2026-05-01T10:15:53Z</time></trkpt><trkpt lat="44.58491045296522" lon="0.9044069280421989"><ele>220.0</ele><time>2026-05-01T10:15:54Z</time></trkpt><trkpt lat="44.58484028340274" lon="0.9045460190825477"><ele>220.0</ele><time>2026-05-01T10:15:55Z</time></trkpt><trkpt lat="44.584754304235524" lon="0.9046979503259834"><ele>220.0</ele><time>2026-05-01T10:15:56Z</time></trkpt><trkpt lat="44.58465537804041" lon="0.9047997563389897"><ele>220.0</ele><time>2026-05-01T10:15:57Z</time></trkpt><trkpt lat="44.58454629582335" lon="0.9048875516083194"><ele>219.0</ele><time>2026-05-01T10:15:58Z</time></trkpt><trkpt lat="44.58441865965268" lon="0.9049435415832553"><ele>218.0</ele><time>2026-05-01T10:15:59Z</time></trkpt><trkpt lat="44.58429307555048" lon="0.9049947214160016"><ele>217.0</ele><time>2026-05-01T10:16:00Z</time></trkpt><trkpt lat="44.584155348070084" lon="0.9050656596722064"><ele>216.0</ele><time>2026-05-01T10:16:01Z</time></trkpt><trkpt lat="44.58403616366874" lon="0.9051286886451735"><ele>216.0</ele><time>2026-05-01T10:16:02Z</time></trkpt><trkpt lat="44.58390823253992" lon="0.9051881884435792"><ele>216.0</ele><time>2026-05-01T10:16:03Z</time></trkpt><trkpt lat="44.583793587996205" lon="0.9052340591515762"><ele>216.0</ele><time>2026-05-01T10:16:04Z</time></trkpt><trkpt lat="44.583680025805755" lon="0.9052934588963544"><ele>216.0</ele><time>2026-05-01T10:16:05Z</time></trkpt><trkpt lat="44.58357091372891" lon="0.9053447098870007"><ele>213.75</ele><time>2026-05-01T10:16:06Z</time></trkpt><trkpt lat="44.583462301759845" lon="0.9053798867145679"><ele>211.5</ele><time>2026-05-01T10:16:07Z</time></trkpt><trkpt lat="44.583343157382146" lon="0.905383264620024"><ele>209.25</ele><time>2026-05-01T10:16:08Z</time></trkpt><trkpt lat="44.58321699374922" lon="0.9053513769761716"><ele>207.0</ele><time>2026-05-01T10:16:09Z</time></trkpt><trkpt lat="44.58309466051354" lon="0.9052927261466059"><ele>207.0</ele><time>2026-05-01T10:16:10Z</time></trkpt><trkpt lat="44.58297991879012" lon="0.9052500037142435"><ele>207.0</ele><time>2026-05-01T10:16:11Z</time></trkpt><trkpt lat="44.58285957780303" lon="0.9052616934930791"><ele>207.0</ele><time>2026-05-01T10:16:12Z</time></trkpt><trkpt lat="44.582750105041264" lon="0.905352946175296"><ele>207.0</ele><time>2026-05-01T10:16:13Z</time></trkpt><trkpt lat="44.58264278040989" lon="0.9054581886816875"><ele>205.0</ele><time>2026-05-01T10:16:14Z</time></trkpt><trkpt lat="44.58255855108537" lon="0.9056047927481832"><ele>203.0</ele><time>2026-05-01T10:16:15Z</time></trkpt><trkpt lat="44.58246972185091" lon="0.9057504174302368"><ele>201.0</ele><time>2026-05-01T10:16:16Z</time></trkpt><trkpt lat="44.58237731819036" lon="0.9058932958850977"><ele>199.0</ele><time>2026-05-01T10:16:17Z</time></trkpt><trkpt lat="44.58228004248888" lon="0.9060273147190255"><ele>199.0</ele><time>2026-05-01T10:16:18Z</time></trkpt><trkpt lat="44.582178446795965" lon="0.9061632274463659"><ele>199.0</ele><time>2026-05-01T10:16:19Z</time></trkpt><trkpt lat="44.58207757256134" lon="0.906297318763733"><ele>199.0</ele><time>2026-05-01T10:16:20Z</time></trkpt><trkpt lat="44.58196142795067" lon="0.9064193439098701"><ele>199.0</ele><time>2026-05-01T10:16:21Z</time></trkpt><trkpt lat="44.58183392849206" lon="0.9065204353706035"><ele>196.5</ele><time>2026-05-01T10:16:22Z</time></trkpt><trkpt lat="44.581694672154" lon="0.9065767887761933"><ele>194.0</ele><time>2026-05-01T10:16:23Z</time></trkpt><trkpt lat="44.58154644651308" lon="0.9066273156048731"><ele>191.5</ele><time>2026-05-01T10:16:24Z</time></trkpt><trkpt lat="44.58140032804098" lon="0.9066635983891841"><ele>189.0</ele><time>2026-05-01T10:16:25Z</time></trkpt><trkpt lat="44.581255839407206" lon="0.9066927174847136"><ele>189.5</ele><time>2026-05-01T10:16:26Z</time></trkpt><trkpt lat="44.58110706056617" lon="0.9067296270976196"><ele>190.0</ele><time>2026-05-01T10:16:27Z</time></trkpt><trkpt lat="44.58096020156065" lon="0.9067544663600723"><ele>190.5</ele><time>2026-05-01T10:16:28Z</time></trkpt><trkpt lat="44.58081919293932" lon="0.9067913646676985"><ele>191.0</ele><time>2026-05-01T10:16:29Z</time></trkpt><trkpt lat="44.58068078592344" lon="0.9068221730726034"><ele>191.0</ele><time>2026-05-01T10:16:30Z</time></trkpt><trkpt lat="44.580535068975344" lon="0.9068483296824772"><ele>191.0</ele><time>2026-05-01T10:16:31Z</time></trkpt><trkpt lat="44.58039362127794" lon="0.9068610893187917"><ele>191.0</ele><time>2026-05-01T10:16:32Z</time></trkpt><trkpt lat="44.58012042105624" lon="0.9068573825069767"><ele>193.66666666666666</ele><time>2026-05-01T10:16:34Z</time></trkpt><trkpt lat="44.579978262077056" lon="0.9068518410182486"><ele>196.33333333333331</ele><time>2026-05-01T10:16:35Z</time></trkpt><trkpt lat="44.579822826684264" lon="0.9068055827518305"><ele>199.0</ele><time>2026-05-01T10:16:36Z</time></trkpt><trkpt lat="44.57967084413685" lon="0.9067629246935286"><ele>199.66666666666666</ele><time>2026-05-01T10:16:37Z</time></trkpt><trkpt lat="44.579521681410625" lon="0.9067253855356546"><ele>200.33333333333331</ele><time>2026-05-01T10:16:38Z</time></trkpt><trkpt lat="44.57937678851352" lon="0.9066772473745074"><ele>201.0</ele><time>2026-05-01T10:16:39Z</time></trkpt><trkpt lat="44.57921362667237" lon="0.9066147774400607"><ele>201.33333333333331</ele><time>2026-05-01T10:16:40Z</time></trkpt><trkpt lat="44.57905658134124" lon="0.906564108417044"><ele>201.66666666666666</ele><time>2026-05-01T10:16:41Z</time></trkpt><trkpt lat="44.57889754421192" lon="0.9065323524801981"><ele>202.0</ele><time>2026-05-01T10:16:42Z</time></trkpt><trkpt lat="44.578731136869955" lon="0.9065140936022649"><ele>202.0</ele><time>2026-05-01T10:16:43Z</time></trkpt><trkpt lat="44.57856254779598" lon="0.9065107705757208"><ele>202.0</ele><time>2026-05-01T10:16:44Z</time></trkpt><trkpt lat="44.57839451875397" lon="0.9065284231614621"><ele>202.0</ele><time>2026-05-01T10:16:45Z</time></trkpt><trkpt lat="44.578243702183805" lon="0.906546208048363"><ele>202.0</ele><time>2026-05-01T10:16:46Z</time></trkpt><trkpt lat="44.57809116948742" lon="0.9065589635877765"><ele>202.0</ele><time>2026-05-01T10:16:47Z</time></trkpt><trkpt lat="44.57794449115151" lon="0.9065788486648096"><ele>202.0</ele><time>2026-05-01T10:16:48Z</time></trkpt><trkpt lat="44.57780344404845" lon="0.9066079837377509"><ele>202.0</ele><time>2026-05-01T10:16:49Z</time></trkpt><trkpt lat="44.57765896257203" lon="0.9066338117218763"><ele>202.75</ele><time>2026-05-01T10:16:50Z</time></trkpt><trkpt lat="44.57751768156094" lon="0.9066535332749643"><ele>203.5</ele><time>2026-05-01T10:16:51Z</time></trkpt><trkpt lat="44.577375241847484" lon="0.9066918331249577"><ele>204.25</ele><time>2026-05-01T10:16:52Z</time></trkpt><trkpt lat="44.57722375051199" lon="0.9067291797688574"><ele>205.0</ele><time>2026-05-01T10:16:53Z</time></trkpt><trkpt lat="44.57707806273121" lon="0.9067614595420446"><ele>206.33333333333331</ele><time>2026-05-01T10:16:54Z</time></trkpt><trkpt lat="44.57693136916422" lon="0.9068122027148854"><ele>207.66666666666669</ele><time>2026-05-01T10:16:55Z</time></trkpt><trkpt lat="44.576777421791434" lon="0.9068732130375399"><ele>209.0</ele><time>2026-05-01T10:16:56Z</time></trkpt><trkpt lat="44.57662393133086" lon="0.906944713388694"><ele>209.0</ele><time>2026-05-01T10:16:57Z</time></trkpt><trkpt lat="44.576473285159665" lon="0.9070072971491863"><ele>209.0</ele><time>2026-05-01T10:16:58Z</time></trkpt><trkpt lat="44.5763296793316" lon="0.9070271228265958"><ele>209.0</ele><time>2026-05-01T10:16:59Z</time></trkpt><trkpt lat="44.576177108745526" lon="0.9070549949456632"><ele>210.25</ele><time>2026-05-01T10:17:00Z</time></trkpt><trkpt lat="44.57602800732639" lon="0.9070487894452202"><ele>211.5</ele><time>2026-05-01T10:17:01Z</time></trkpt><trkpt lat="44.57587855339776" lon="0.9070526825249129"><ele>212.75</ele><time>2026-05-01T10:17:02Z</time></trkpt><trkpt lat="44.575733319578575" lon="0.9070604829260305"><ele>214.0</ele><time>2026-05-01T10:17:03Z</time></trkpt><trkpt lat="44.57558922449208" lon="0.9070871230625607"><ele>214.0</ele><time>2026-05-01T10:17:04Z</time></trkpt><trkpt lat="44.57545065132095" lon="0.9071381282265176"><ele>214.0</ele><time>2026-05-01T10:17:05Z</time></trkpt><trkpt lat="44.575315358049444" lon="0.9071931828898179"><ele>214.0</ele><time>2026-05-01T10:17:06Z</time></trkpt><trkpt lat="44.57518872295576" lon="0.9072567685364076"><ele>214.0</ele><time>2026-05-01T10:17:07Z</time></trkpt><trkpt lat="44.57506211693471" lon="0.9073109044915405"><ele>215.0</ele><time>2026-05-01T10:17:08Z</time></trkpt><trkpt lat="44.5749329649094" lon="0.9073308747728762"><ele>216.0</ele><time>2026-05-01T10:17:09Z</time></trkpt><trkpt lat="44.57481163181068" lon="0.9073031465802239"><ele>217.0</ele><time>2026-05-01T10:17:10Z</time></trkpt><trkpt lat="44.57467115440786" lon="0.9072567074649761"><ele>218.0</ele><time>2026-05-01T10:17:11Z</time></trkpt><trkpt lat="44.574552703881835" lon="0.907189343669021"><ele>217.60000000000002</ele><time>2026-05-01T10:17:12Z</time></trkpt><trkpt lat="44.57444507402509" lon="0.9071577966437853"><ele>217.20000000000002</ele><time>2026-05-01T10:17:13Z</time></trkpt><trkpt lat="44.57435264612053" lon="0.9071030761677517"><ele>216.8</ele><time>2026-05-01T10:17:14Z</time></trkpt><trkpt lat="44.57425603035798" lon="0.9070696144729314"><ele>216.4</ele><time>2026-05-01T10:17:15Z</time></trkpt><trkpt lat="44.574142581601876" lon="0.9070551438054619"><ele>216.0</ele><time>2026-05-01T10:17:16Z</time></trkpt><trkpt lat="44.57403369039155" lon="0.9070517535726165"><ele>216.0</ele><time>2026-05-01T10:17:17Z</time></trkpt><trkpt lat="44.5739186999609" lon="0.9070488640504178"><ele>216.00000000000003</ele><time>2026-05-01T10:17:18Z</time></trkpt><trkpt lat="44.57380242639162" lon="0.907049317202633"><ele>216.00000000000003</ele><time>2026-05-01T10:17:19Z</time></trkpt><trkpt lat="44.573693294019826" lon="0.9070463585779772"><ele>216.0</ele><time>2026-05-01T10:17:20Z</time></trkpt><trkpt lat="44.573584309854105" lon="0.9070490727371401"><ele>216.0</ele><time>2026-05-01T10:17:21Z</time></trkpt><trkpt lat="44.573477130572854" lon="0.9070362564886797"><ele>218.75</ele><time>2026-05-01T10:17:22Z</time></trkpt><trkpt lat="44.57336598930716" lon="0.9070337553521519"><ele>221.5</ele><time>2026-05-01T10:17:23Z</time></trkpt><trkpt lat="44.57323828220351" lon="0.9070391221348736"><ele>224.25</ele><time>2026-05-01T10:17:24Z</time></trkpt><trkpt lat="44.57312436748334" lon="0.9070562254618914"><ele>227.0</ele><time>2026-05-01T10:17:25Z</time></trkpt><trkpt lat="44.57299756799811" lon="0.9070584601979591"><ele>227.0</ele><time>2026-05-01T10:17:26Z</time></trkpt><trkpt lat="44.572872801370295" lon="0.9070632063547073"><ele>227.0</ele><time>2026-05-01T10:17:27Z</time></trkpt><trkpt lat="44.5727478962593" lon="0.9070658075008339"><ele>227.0</ele><time>2026-05-01T10:17:28Z</time></trkpt><trkpt lat="44.572622261982836" lon="0.907076116609466"><ele>227.0</ele><time>2026-05-01T10:17:29Z</time></trkpt><trkpt lat="44.57248453670706" lon="0.9070816577453095"><ele>227.75</ele><time>2026-05-01T10:17:30Z</time></trkpt><trkpt lat="44.572342925450855" lon="0.9070926964117905"><ele>228.5</ele><time>2026-05-01T10:17:31Z</time></trkpt><trkpt lat="44.572204148519454" lon="0.9071117092613059"><ele>229.25</ele><time>2026-05-01T10:17:32Z</time></trkpt><trkpt lat="44.5720601924571" lon="0.9071277712923175"><ele>230.0</ele><time>2026-05-01T10:17:33Z</time></trkpt><trkpt lat="44.57191789945936" lon="0.9071536739951718"><ele>230.0</ele><time>2026-05-01T10:17:34Z</time></trkpt><trkpt lat="44.57178771440344" lon="0.9071780041409252"><ele>230.0</ele><time>2026-05-01T10:17:35Z</time></trkpt><trkpt lat="44.571651173996635" lon="0.9071898829392734"><ele>230.0</ele><time>2026-05-01T10:17:36Z</time></trkpt><trkpt lat="44.571537550516126" lon="0.9072251772222347"><ele>230.0</ele><time>2026-05-01T10:17:37Z</time></trkpt><trkpt lat="44.57143854688898" lon="0.9072696454793464"><ele>230.0</ele><time>2026-05-01T10:17:38Z</time></trkpt><trkpt lat="44.57134061592334" lon="0.9073195203736543"><ele>230.0</ele><time>2026-05-01T10:17:39Z</time></trkpt><trkpt lat="44.57126003141505" lon="0.9073734087772724"><ele>230.0</ele><time>2026-05-01T10:17:40Z</time></trkpt><trkpt lat="44.57120099937598" lon="0.9074260107750727"><ele>230.0</ele><time>2026-05-01T10:17:41Z</time></trkpt><trkpt lat="44.571117524382124" lon="0.9075085508346054"><ele>230.0</ele><time>2026-05-01T10:17:43Z</time></trkpt><trkpt lat="44.57125713192301" lon="0.9078561431272489"><ele>230.2</ele><time>2026-05-01T10:18:04Z</time></trkpt><trkpt lat="44.57131150104085" lon="0.9079557559649193"><ele>230.4</ele><time>2026-05-01T10:18:05Z</time></trkpt><trkpt lat="44.57137367422264" lon="0.9080738060782666"><ele>230.60000000000002</ele><time>2026-05-01T10:18:06Z</time></trkpt><trkpt lat="44.57144536881592" lon="0.9081826278423516"><ele>230.8</ele><time>2026-05-01T10:18:07Z</time></trkpt><trkpt lat="44.571502338094724" lon="0.9082971765557382"><ele>231.0</ele><time>2026-05-01T10:18:08Z</time></trkpt><trkpt lat="44.57155709159387" lon="0.9083976542567752"><ele>231.0</ele><time>2026-05-01T10:18:09Z</time></trkpt><trkpt lat="44.571610092238224" lon="0.9084983280927584"><ele>231.00000000000003</ele><time>2026-05-01T10:18:10Z</time></trkpt><trkpt lat="44.571663129028465" lon="0.9086101244812562"><ele>231.00000000000003</ele><time>2026-05-01T10:18:11Z</time></trkpt><trkpt lat="44.57171358885041" lon="0.9087234662513302"><ele>231.0</ele><time>2026-05-01T10:18:12Z</time></trkpt><trkpt lat="44.57176009937587" lon="0.9088494749777567"><ele>231.0</ele><time>2026-05-01T10:18:13Z</time></trkpt><trkpt lat="44.571805357054224" lon="0.908955266949984"><ele>231.0</ele><time>2026-05-01T10:18:14Z</time></trkpt><trkpt lat="44.57186920745983" lon="0.909108533010442"><ele>231.00000000000003</ele><time>2026-05-01T10:18:16Z</time></trkpt><trkpt lat="44.5718520104923" lon="0.9092157785184145"><ele>231.00000000000003</ele><time>2026-05-01T10:18:18Z</time></trkpt><trkpt lat="44.57179439075506" lon="0.909261440777752"><ele>231.0</ele><time>2026-05-01T10:18:19Z</time></trkpt><trkpt lat="44.57171298516579" lon="0.9093135494735501"><ele>231.0</ele><time>2026-05-01T10:18:20Z</time></trkpt><trkpt lat="44.571626127252316" lon="0.9093966702412456"><ele>231.16666666666666</ele><time>2026-05-01T10:18:21Z</time></trkpt><trkpt lat="44.571560706445226" lon="0.9094691812996318"><ele>231.33333333333331</ele><time>2026-05-01T10:18:22Z</time></trkpt><trkpt lat="44.57151927558263" lon="0.9095379692152153"><ele>231.5</ele><time>2026-05-01T10:18:23Z</time></trkpt><trkpt lat="44.571505481782225" lon="0.9096268597417062"><ele>231.66666666666666</ele><time>2026-05-01T10:18:25Z</time></trkpt><trkpt lat="44.57156764913444" lon="0.909729478997383"><ele>231.83333333333331</ele><time>2026-05-01T10:18:27Z</time></trkpt><trkpt lat="44.57163320469529" lon="0.9097992973217399"><ele>232.0</ele><time>2026-05-01T10:18:28Z</time></trkpt><trkpt lat="44.57171102200508" lon="0.9099035492003116"><ele>232.0</ele><time>2026-05-01T10:18:29Z</time></trkpt><trkpt lat="44.571800246285825" lon="0.9100594110257386"><ele>232.0</ele><time>2026-05-01T10:18:30Z</time></trkpt><trkpt lat="44.571887281562425" lon="0.9102500735211232"><ele>232.0</ele><time>2026-05-01T10:18:31Z</time></trkpt><trkpt lat="44.57195888348495" lon="0.9104858891408709"><ele>231.33333333333331</ele><time>2026-05-01T10:18:32Z</time></trkpt><trkpt lat="44.57203089608716" lon="0.9107493467622311"><ele>230.66666666666669</ele><time>2026-05-01T10:18:33Z</time></trkpt><trkpt lat="44.57210678111887" lon="0.9110231351693594"><ele>230.0</ele><time>2026-05-01T10:18:34Z</time></trkpt><trkpt lat="44.57218738450001" lon="0.9112902137842014"><ele>231.33333333333334</ele><time>2026-05-01T10:18:35Z</time></trkpt><trkpt lat="44.57226206018582" lon="0.9115375508965918"><ele>232.66666666666669</ele><time>2026-05-01T10:18:36Z</time></trkpt><trkpt lat="44.57233318848286" lon="0.9117844048291176"><ele>234.0</ele><time>2026-05-01T10:18:37Z</time></trkpt><trkpt lat="44.57239997257795" lon="0.9120046628785758"><ele>235.33333333333331</ele><time>2026-05-01T10:18:38Z</time></trkpt><trkpt lat="44.572463906902726" lon="0.9122232371364402"><ele>236.66666666666666</ele><time>2026-05-01T10:18:39Z</time></trkpt><trkpt lat="44.57253322167058" lon="0.9124369834160305"><ele>238.0</ele><time>2026-05-01T10:18:40Z</time></trkpt><trkpt lat="44.57260106021565" lon="0.9126594379686527"><ele>239.0</ele><time>2026-05-01T10:18:41Z</time></trkpt><trkpt lat="44.57266541058493" lon="0.9128741930220012"><ele>240.0</ele><time>2026-05-01T10:18:42Z</time></trkpt><trkpt lat="44.572731231326834" lon="0.9130842097248852"><ele>241.0</ele><time>2026-05-01T10:18:43Z</time></trkpt><trkpt lat="44.572782685103284" lon="0.913331844674858"><ele>240.66666666666666</ele><time>2026-05-01T10:18:44Z</time></trkpt><trkpt lat="44.572845055177574" lon="0.913544426329561"><ele>240.33333333333331</ele><time>2026-05-01T10:18:45Z</time></trkpt><trkpt lat="44.572901595892155" lon="0.9137371391206213"><ele>240.0</ele><time>2026-05-01T10:18:46Z</time></trkpt><trkpt lat="44.57295616967302" lon="0.9139211073660287"><ele>240.5</ele><time>2026-05-01T10:18:47Z</time></trkpt><trkpt lat="44.57301242839271" lon="0.9141036124727634"><ele>241.0</ele><time>2026-05-01T10:18:48Z</time></trkpt><trkpt lat="44.57306802035997" lon="0.9142839548570096"><ele>241.5</ele><time>2026-05-01T10:18:49Z</time></trkpt><trkpt lat="44.57313581521814" lon="0.9144506477570029"><ele>242.0</ele><time>2026-05-01T10:18:50Z</time></trkpt><trkpt lat="44.573185580500294" lon="0.9146131556417382"><ele>242.75</ele><time>2026-05-01T10:18:51Z</time></trkpt><trkpt lat="44.57322916582906" lon="0.9147845849887634"><ele>243.5</ele><time>2026-05-01T10:18:52Z</time></trkpt><trkpt lat="44.5732819566167" lon="0.9149596174597753"><ele>244.25</ele><time>2026-05-01T10:18:53Z</time></trkpt><trkpt lat="44.57330950409152" lon="0.9151193932071867"><ele>245.0</ele><time>2026-05-01T10:18:54Z</time></trkpt><trkpt lat="44.57334928225317" lon="0.9152739398028914"><ele>245.0</ele><time>2026-05-01T10:18:55Z</time></trkpt><trkpt lat="44.57338605000421" lon="0.915416790374381"><ele>245.0</ele><time>2026-05-01T10:18:56Z</time></trkpt><trkpt lat="44.57342246442228" lon="0.9155582681183514"><ele>245.0</ele><time>2026-05-01T10:18:57Z</time></trkpt><trkpt lat="44.57346132064953" lon="0.915698088621792"><ele>245.0</ele><time>2026-05-01T10:18:58Z</time></trkpt><trkpt lat="44.57350030687283" lon="0.9158248041372196"><ele>245.0</ele><time>2026-05-01T10:18:59Z</time></trkpt><trkpt lat="44.573551868626296" lon="0.9159532354742729"><ele>244.4</ele><time>2026-05-01T10:19:00Z</time></trkpt><trkpt lat="44.57361088931475" lon="0.9160668592369068"><ele>243.8</ele><time>2026-05-01T10:19:01Z</time></trkpt><trkpt lat="44.57367246784886" lon="0.9161918006872192"><ele>243.2</ele><time>2026-05-01T10:19:02Z</time></trkpt><trkpt lat="44.573737280284014" lon="0.9163004421464178"><ele>242.6</ele><time>2026-05-01T10:19:03Z</time></trkpt><trkpt lat="44.5738051642761" lon="0.91642214019547"><ele>242.0</ele><time>2026-05-01T10:19:04Z</time></trkpt><trkpt lat="44.5738874902594" lon="0.9165281796376941"><ele>242.0</ele><time>2026-05-01T10:19:05Z</time></trkpt><trkpt lat="44.573969830055226" lon="0.9166213152191003"><ele>242.0</ele><time>2026-05-01T10:19:06Z</time></trkpt><trkpt lat="44.57405008736889" lon="0.9167126398046289"><ele>242.0</ele><time>2026-05-01T10:19:07Z</time></trkpt><trkpt lat="44.57413867907294" lon="0.9168093942309783"><ele>242.0</ele><time>2026-05-01T10:19:08Z</time></trkpt><trkpt lat="44.57422737307595" lon="0.9169068400227404"><ele>242.0</ele><time>2026-05-01T10:19:09Z</time></trkpt><trkpt lat="44.57433206915625" lon="0.9170033655351999"><ele>242.5</ele><time>2026-05-01T10:19:10Z</time></trkpt><trkpt lat="44.57442857098043" lon="0.9171183261798813"><ele>243.0</ele><time>2026-05-01T10:19:11Z</time></trkpt><trkpt lat="44.57452817453546" lon="0.9172189686107602"><ele>243.5</ele><time>2026-05-01T10:19:12Z</time></trkpt><trkpt lat="44.57462689377391" lon="0.9173261465502063"><ele>244.0</ele><time>2026-05-01T10:19:13Z</time></trkpt><trkpt lat="44.57471921879913" lon="0.9174331090366433"><ele>244.0</ele><time>2026-05-01T10:19:14Z</time></trkpt><trkpt lat="44.57481542817764" lon="0.9175520977439265"><ele>244.0</ele><time>2026-05-01T10:19:15Z</time></trkpt><trkpt lat="44.57493145067878" lon="0.9176660439163068"><ele>244.0</ele><time>2026-05-01T10:19:16Z</time></trkpt><trkpt lat="44.57506678031575" lon="0.9177692979546026"><ele>244.0</ele><time>2026-05-01T10:19:17Z</time></trkpt><trkpt lat="44.57521783650492" lon="0.9178561401758196"><ele>245.0</ele><time>2026-05-01T10:19:18Z</time></trkpt><trkpt lat="44.57536238532491" lon="0.9179178240038537"><ele>246.0</ele><time>2026-05-01T10:19:19Z</time></trkpt><trkpt lat="44.57550397204854" lon="0.9179727406080473"><ele>247.0</ele><time>2026-05-01T10:19:20Z</time></trkpt><trkpt lat="44.575628692830016" lon="0.9180394228407606"><ele>248.0</ele><time>2026-05-01T10:19:21Z</time></trkpt><trkpt lat="44.57576502509771" lon="0.9181489925481232"><ele>248.0</ele><time>2026-05-01T10:19:22Z</time></trkpt><trkpt lat="44.57586178994702" lon="0.918300210688236"><ele>248.0</ele><time>2026-05-01T10:19:23Z</time></trkpt><trkpt lat="44.575945380257004" lon="0.9184658920937561"><ele>248.0</ele><time>2026-05-01T10:19:24Z</time></trkpt><trkpt lat="44.57601359079408" lon="0.9186272436974995"><ele>248.0</ele><time>2026-05-01T10:19:25Z</time></trkpt><trkpt lat="44.576045677545366" lon="0.9187890803340786"><ele>247.5</ele><time>2026-05-01T10:19:26Z</time></trkpt><trkpt lat="44.576101090307155" lon="0.9189467987640233"><ele>247.0</ele><time>2026-05-01T10:19:27Z</time></trkpt><trkpt lat="44.576138618855765" lon="0.9191171706537637"><ele>246.5</ele><time>2026-05-01T10:19:28Z</time></trkpt><trkpt lat="44.57616183552468" lon="0.9193040316588477"><ele>246.0</ele><time>2026-05-01T10:19:29Z</time></trkpt><trkpt lat="44.576216433426744" lon="0.9194514775837608"><ele>244.25</ele><time>2026-05-01T10:19:30Z</time></trkpt><trkpt lat="44.576140388903866" lon="0.9196440302590542"><ele>242.5</ele><time>2026-05-01T10:19:31Z</time></trkpt><trkpt lat="44.576117439837816" lon="0.9198262070459156"><ele>240.75</ele><time>2026-05-01T10:19:32Z</time></trkpt><trkpt lat="44.57609800730354" lon="0.9200004406132257"><ele>239.0</ele><time>2026-05-01T10:19:33Z</time></trkpt><trkpt lat="44.576085270970644" lon="0.9201587445436854"><ele>238.79999999999998</ele><time>2026-05-01T10:19:34Z</time></trkpt><trkpt lat="44.576069558265864" lon="0.9203045788964634"><ele>238.59999999999997</ele><time>2026-05-01T10:19:35Z</time></trkpt><trkpt lat="44.576055632934846" lon="0.9204656795349904"><ele>238.4</ele><time>2026-05-01T10:19:36Z</time></trkpt><trkpt lat="44.57600063837154" lon="0.9205953069843225"><ele>238.2</ele><time>2026-05-01T10:19:37Z</time></trkpt><trkpt lat="44.57594082134043" lon="0.9207016769971114"><ele>238.0</ele><time>2026-05-01T10:19:38Z</time></trkpt><trkpt lat="44.57588040523154" lon="0.9208199344372536"><ele>237.60000000000002</ele><time>2026-05-01T10:19:39Z</time></trkpt><trkpt lat="44.57582090932875" lon="0.9209421529693166"><ele>237.20000000000002</ele><time>2026-05-01T10:19:40Z</time></trkpt><trkpt lat="44.57576865493958" lon="0.9210768847528006"><ele>236.8</ele><time>2026-05-01T10:19:41Z</time></trkpt><trkpt lat="44.57568832018102" lon="0.9211776901186352"><ele>236.4</ele><time>2026-05-01T10:19:42Z</time></trkpt><trkpt lat="44.57563020216854" lon="0.921288817146214"><ele>236.0</ele><time>2026-05-01T10:19:43Z</time></trkpt><trkpt lat="44.57555957942884" lon="0.9213842466180248"><ele>236.0</ele><time>2026-05-01T10:19:44Z</time></trkpt><trkpt lat="44.575486629781835" lon="0.9214694919416643"><ele>236.00000000000003</ele><time>2026-05-01T10:19:45Z</time></trkpt><trkpt lat="44.57541618779158" lon="0.9215604493465545"><ele>236.00000000000003</ele><time>2026-05-01T10:19:46Z</time></trkpt><trkpt lat="44.57534267233793" lon="0.9216653287673325"><ele>236.0</ele><time>2026-05-01T10:19:47Z</time></trkpt><trkpt lat="44.57527496231714" lon="0.9217707311838542"><ele>236.0</ele><time>2026-05-01T10:19:48Z</time></trkpt><trkpt lat="44.575205357923416" lon="0.9218741152727162"><ele>236.66666666666669</ele><time>2026-05-01T10:19:49Z</time></trkpt><trkpt lat="44.57513649814944" lon="0.9219731591160143"><ele>237.33333333333334</ele><time>2026-05-01T10:19:50Z</time></trkpt><trkpt lat="44.57506937781617" lon="0.9220624309285697"><ele>238.0</ele><time>2026-05-01T10:19:51Z</time></trkpt><trkpt lat="44.57501946063312" lon="0.9221351100786396"><ele>238.66666666666669</ele><time>2026-05-01T10:19:52Z</time></trkpt><trkpt lat="44.57497833463676" lon="0.9222225381402599"><ele>239.33333333333334</ele><time>2026-05-01T10:19:53Z</time></trkpt><trkpt lat="44.57492676034264" lon="0.9223011908520037"><ele>240.0</ele><time>2026-05-01T10:19:54Z</time></trkpt><trkpt lat="44.574881926608946" lon="0.9224047088990902"><ele>240.0</ele><time>2026-05-01T10:19:55Z</time></trkpt><trkpt lat="44.57483763545957" lon="0.9225193253149492"><ele>240.0</ele><time>2026-05-01T10:19:56Z</time></trkpt><trkpt lat="44.574790161867895" lon="0.9226479522920128"><ele>240.0</ele><time>2026-05-01T10:19:57Z</time></trkpt><trkpt lat="44.57474525100911" lon="0.9227795300944585"><ele>240.0</ele><time>2026-05-01T10:19:58Z</time></trkpt><trkpt lat="44.57469356116283" lon="0.9229215209777346"><ele>240.0</ele><time>2026-05-01T10:19:59Z</time></trkpt><trkpt lat="44.57464605637189" lon="0.923069762527354"><ele>239.8</ele><time>2026-05-01T10:20:00Z</time></trkpt><trkpt lat="44.574596346376616" lon="0.9232112177181726"><ele>239.6</ele><time>2026-05-01T10:20:01Z</time></trkpt><trkpt lat="44.57454271013009" lon="0.9233380881520334"><ele>239.39999999999998</ele><time>2026-05-01T10:20:02Z</time></trkpt><trkpt lat="44.574471442860045" lon="0.9234370682373879"><ele>239.2</ele><time>2026-05-01T10:20:03Z</time></trkpt><trkpt lat="44.574378444819615" lon="0.9235026396959395"><ele>239.0</ele><time>2026-05-01T10:20:04Z</time></trkpt><trkpt lat="44.574276340484225" lon="0.9235237666417849"><ele>241.0</ele><time>2026-05-01T10:20:05Z</time></trkpt><trkpt lat="44.57418222575942" lon="0.9235124822717884"><ele>243.0</ele><time>2026-05-01T10:20:06Z</time></trkpt><trkpt lat="44.57410736033763" lon="0.9235152220189421"><ele>245.0</ele><time>2026-05-01T10:20:07Z</time></trkpt><trkpt lat="44.57416283506844" lon="0.9237744083679315"><ele>247.0</ele><time>2026-05-01T10:20:14Z</time></trkpt><trkpt lat="44.57419954496327" lon="0.9239082406085997"><ele>247.0</ele><time>2026-05-01T10:20:15Z</time></trkpt><trkpt lat="44.57423060560645" lon="0.9240646464168639"><ele>247.0</ele><time>2026-05-01T10:20:16Z</time></trkpt><trkpt lat="44.574252493265575" lon="0.9242150976639771"><ele>247.0</ele><time>2026-05-01T10:20:17Z</time></trkpt><trkpt lat="44.57426528103372" lon="0.9243585222008052"><ele>247.0</ele><time>2026-05-01T10:20:18Z</time></trkpt><trkpt lat="44.57430242062567" lon="0.9245643895676718"><ele>246.75</ele><time>2026-05-01T10:20:19Z</time></trkpt><trkpt lat="44.57433064106828" lon="0.9247857132131841"><ele>246.5</ele><time>2026-05-01T10:20:20Z</time></trkpt><trkpt lat="44.57436474712951" lon="0.924970827519795"><ele>246.25</ele><time>2026-05-01T10:20:21Z</time></trkpt><trkpt lat="44.5744017572737" lon="0.9251214838577368"><ele>246.0</ele><time>2026-05-01T10:20:22Z</time></trkpt><trkpt lat="44.57443406219106" lon="0.9252676177342916"><ele>246.0</ele><time>2026-05-01T10:20:23Z</time></trkpt><trkpt lat="44.5744274760759" lon="0.9254532815899397"><ele>246.0</ele><time>2026-05-01T10:20:24Z</time></trkpt><trkpt lat="44.574432688167875" lon="0.9256654602816741"><ele>246.0</ele><time>2026-05-01T10:20:25Z</time></trkpt><trkpt lat="44.5744206422567" lon="0.92583776097386"><ele>246.0</ele><time>2026-05-01T10:20:26Z</time></trkpt><trkpt lat="44.57444014500286" lon="0.9260139684669298"><ele>245.75</ele><time>2026-05-01T10:20:27Z</time></trkpt><trkpt lat="44.57445729623464" lon="0.9261796256518874"><ele>245.5</ele><time>2026-05-01T10:20:28Z</time></trkpt><trkpt lat="44.574470380969665" lon="0.9263399751863894"><ele>245.25</ele><time>2026-05-01T10:20:29Z</time></trkpt><trkpt lat="44.57448778363359" lon="0.9265060488312682"><ele>245.0</ele><time>2026-05-01T10:20:30Z</time></trkpt><trkpt lat="44.57450249349516" lon="0.9266531583034144"><ele>245.33333333333334</ele><time>2026-05-01T10:20:31Z</time></trkpt><trkpt lat="44.57451589227758" lon="0.926787812578532"><ele>245.66666666666669</ele><time>2026-05-01T10:20:32Z</time></trkpt><trkpt lat="44.574519986764116" lon="0.926890876912702"><ele>246.0</ele><time>2026-05-01T10:20:33Z</time></trkpt><trkpt lat="44.574498097633786" lon="0.9270048717988316"><ele>246.33333333333331</ele><time>2026-05-01T10:20:35Z</time></trkpt><trkpt lat="44.574423563164615" lon="0.9269974221121058"><ele>246.66666666666666</ele><time>2026-05-01T10:20:38Z</time></trkpt><trkpt lat="44.57438766133086" lon="0.9271074459266279"><ele>247.0</ele><time>2026-05-01T10:20:41Z</time></trkpt><trkpt lat="44.574387107934356" lon="0.9272227042202741"><ele>247.0</ele><time>2026-05-01T10:20:42Z</time></trkpt><trkpt lat="44.574368214813646" lon="0.9273168106123801"><ele>247.0</ele><time>2026-05-01T10:20:43Z</time></trkpt><trkpt lat="44.574345598030675" lon="0.9274507719406778"><ele>247.0</ele><time>2026-05-01T10:20:44Z</time></trkpt><trkpt lat="44.57434227534692" lon="0.9275697632924077"><ele>247.0</ele><time>2026-05-01T10:20:45Z</time></trkpt><trkpt lat="44.574396136046445" lon="0.9277084533210495"><ele>247.0</ele><time>2026-05-01T10:20:47Z</time></trkpt><trkpt lat="44.57446085936701" lon="0.9278196583123426"><ele>246.83333333333331</ele><time>2026-05-01T10:20:48Z</time></trkpt><trkpt lat="44.5744855883699" lon="0.9279102321643966"><ele>246.66666666666666</ele><time>2026-05-01T10:20:49Z</time></trkpt><trkpt lat="44.574517194254994" lon="0.9280640015790041"><ele>246.5</ele><time>2026-05-01T10:20:51Z</time></trkpt><trkpt lat="44.574506943589476" lon="0.9281622795191262"><ele>246.33333333333331</ele><time>2026-05-01T10:20:52Z</time></trkpt><trkpt lat="44.57451297918911" lon="0.9282656945475245"><ele>246.16666666666666</ele><time>2026-05-01T10:20:53Z</time></trkpt><trkpt lat="44.57452005401818" lon="0.9283665059940924"><ele>246.0</ele><time>2026-05-01T10:20:54Z</time></trkpt><trkpt lat="44.57444953220297" lon="0.928399412101168"><ele>246.0</ele><time>2026-05-01T10:21:00Z</time></trkpt><trkpt lat="44.57434254404873" lon="0.9283896715706297"><ele>246.0</ele><time>2026-05-01T10:21:02Z</time></trkpt><trkpt lat="44.57426765335554" lon="0.9284145528347818"><ele>246.0</ele><time>2026-05-01T10:21:03Z</time></trkpt><trkpt lat="44.57419229322443" lon="0.9284201915050243"><ele>246.0</ele><time>2026-05-01T10:21:04Z</time></trkpt><trkpt lat="44.574114466811075" lon="0.9284152136200452"><ele>246.0</ele><time>2026-05-01T10:21:05Z</time></trkpt><trkpt lat="44.574034179569765" lon="0.928418919516572"><ele>246.0</ele><time>2026-05-01T10:21:06Z</time></trkpt><trkpt lat="44.5739359495042" lon="0.9284157597873886"><ele>246.0</ele><time>2026-05-01T10:21:07Z</time></trkpt><trkpt lat="44.57385685689751" lon="0.9284065680745045"><ele>246.0</ele><time>2026-05-01T10:21:08Z</time></trkpt><trkpt lat="44.573797524583064" lon="0.928357613976927"><ele>246.0</ele><time>2026-05-01T10:21:09Z</time></trkpt><trkpt lat="44.57372486795857" lon="0.9283764677010923"><ele>246.0</ele><time>2026-05-01T10:21:10Z</time></trkpt><trkpt lat="44.57364359969321" lon="0.9284187852406052"><ele>246.0</ele><time>2026-05-01T10:21:11Z</time></trkpt><trkpt lat="44.57355682671339" lon="0.928449216399732"><ele>246.0</ele><time>2026-05-01T10:21:12Z</time></trkpt><trkpt lat="44.57343083008043" lon="0.9284769792637287"><ele>246.0</ele><time>2026-05-01T10:21:14Z</time></trkpt><trkpt lat="44.57336839446732" lon="0.9285022372099628"><ele>246.0</ele><time>2026-05-01T10:21:15Z</time></trkpt><trkpt lat="44.57330437328328" lon="0.9285213358260198"><ele>246.0</ele><time>2026-05-01T10:21:16Z</time></trkpt><trkpt lat="44.5732446690554" lon="0.9286277444640386"><ele>246.0</ele><time>2026-05-01T10:21:17Z</time></trkpt><trkpt lat="44.573178096030844" lon="0.9287298048486881"><ele>246.0</ele><time>2026-05-01T10:21:18Z</time></trkpt><trkpt lat="44.57308868969947" lon="0.9288380566651925"><ele>246.0</ele><time>2026-05-01T10:21:19Z</time></trkpt><trkpt lat="44.57298567685936" lon="0.9289021829093346"><ele>246.0</ele><time>2026-05-01T10:21:20Z</time></trkpt><trkpt lat="44.5729036483281" lon="0.928927115871683"><ele>246.00000000000003</ele><time>2026-05-01T10:21:21Z</time></trkpt><trkpt lat="44.57281073566824" lon="0.9289255507722073"><ele>246.00000000000003</ele><time>2026-05-01T10:21:22Z</time></trkpt><trkpt lat="44.57270500466545" lon="0.92890781325441"><ele>246.0</ele><time>2026-05-01T10:21:23Z</time></trkpt><trkpt lat="44.57256885471172" lon="0.9289191226509214"><ele>246.0</ele><time>2026-05-01T10:21:24Z</time></trkpt><trkpt lat="44.572440390039354" lon="0.9289052864966975"><ele>246.20000000000002</ele><time>2026-05-01T10:21:25Z</time></trkpt><trkpt lat="44.57232864321301" lon="0.9288825573609407"><ele>246.40000000000003</ele><time>2026-05-01T10:21:26Z</time></trkpt><trkpt lat="44.57223534703793" lon="0.9288878356750949"><ele>246.6</ele><time>2026-05-01T10:21:27Z</time></trkpt><trkpt lat="44.57213633149051" lon="0.9289073553192414"><ele>246.8</ele><time>2026-05-01T10:21:28Z</time></trkpt><trkpt lat="44.57204723082765" lon="0.9289169287888076"><ele>247.0</ele><time>2026-05-01T10:21:29Z</time></trkpt><trkpt lat="44.571962053401386" lon="0.9289402965261994"><ele>247.33333333333331</ele><time>2026-05-01T10:21:30Z</time></trkpt><trkpt lat="44.571866085268844" lon="0.9289910737826743"><ele>247.66666666666666</ele><time>2026-05-01T10:21:31Z</time></trkpt><trkpt lat="44.57178473498635" lon="0.9290386539029674"><ele>248.0</ele><time>2026-05-01T10:21:32Z</time></trkpt><trkpt lat="44.57171725489647" lon="0.9290908344723443"><ele>248.33333333333331</ele><time>2026-05-01T10:21:33Z</time></trkpt><trkpt lat="44.571649460167826" lon="0.9291241621247777"><ele>248.66666666666666</ele><time>2026-05-01T10:21:34Z</time></trkpt><trkpt lat="44.57155704981643" lon="0.9290419072017654"><ele>249.0</ele><time>2026-05-01T10:21:36Z</time></trkpt><trkpt lat="44.5714935900612" lon="0.9290078939375597"><ele>249.0</ele><time>2026-05-01T10:21:37Z</time></trkpt><trkpt lat="44.5713984984529" lon="0.9289990835406722"><ele>248.99999999999997</ele><time>2026-05-01T10:21:38Z</time></trkpt><trkpt lat="44.57131267776766" lon="0.9289843701417553"><ele>248.99999999999997</ele><time>2026-05-01T10:21:39Z</time></trkpt><trkpt lat="44.57123293169592" lon="0.9289723153276406"><ele>249.0</ele><time>2026-05-01T10:21:40Z</time></trkpt><trkpt lat="44.57110606309109" lon="0.9289544985690106"><ele>249.0</ele><time>2026-05-01T10:21:42Z</time></trkpt><trkpt lat="44.57102457112552" lon="0.9288896857082387"><ele>248.2</ele><time>2026-05-01T10:21:44Z</time></trkpt><trkpt lat="44.57097076688281" lon="0.9287164707497327"><ele>247.39999999999998</ele><time>2026-05-01T10:21:46Z</time></trkpt><trkpt lat="44.57094559319862" lon="0.928605566064083"><ele>246.6</ele><time>2026-05-01T10:21:47Z</time></trkpt><trkpt lat="44.57092587339072" lon="0.9284974754285713"><ele>245.8</ele><time>2026-05-01T10:21:48Z</time></trkpt><trkpt lat="44.57090311165416" lon="0.9283731931081437"><ele>245.0</ele><time>2026-05-01T10:21:49Z</time></trkpt><trkpt lat="44.570896894342134" lon="0.9282592740737617"><ele>244.8</ele><time>2026-05-01T10:21:50Z</time></trkpt><trkpt lat="44.57088745809474" lon="0.9280470936294815"><ele>244.6</ele><time>2026-05-01T10:21:52Z</time></trkpt><trkpt lat="44.570854441325416" lon="0.9279215033883699"><ele>244.39999999999998</ele><time>2026-05-01T10:21:53Z</time></trkpt><trkpt lat="44.57081675369973" lon="0.9277959156581291"><ele>244.2</ele><time>2026-05-01T10:21:54Z</time></trkpt><trkpt lat="44.570787376465645" lon="0.9276706739964867"><ele>244.0</ele><time>2026-05-01T10:21:55Z</time></trkpt><trkpt lat="44.570720529957825" lon="0.9275565155794236"><ele>243.99999999999997</ele><time>2026-05-01T10:21:56Z</time></trkpt><trkpt lat="44.57066576097323" lon="0.9274966254277979"><ele>244.0</ele><time>2026-05-01T10:21:57Z</time></trkpt><trkpt lat="44.57066724179535" lon="0.927318475972209"><ele>244.0</ele><time>2026-05-01T10:21:59Z</time></trkpt><trkpt lat="44.570653203838" lon="0.9271948826785871"><ele>244.0</ele><time>2026-05-01T10:22:00Z</time></trkpt><trkpt lat="44.570645970869144" lon="0.9270917732889625"><ele>243.99999999999997</ele><time>2026-05-01T10:22:01Z</time></trkpt><trkpt lat="44.5706209937309" lon="0.9270095253231049"><ele>244.0</ele><time>2026-05-01T10:22:03Z</time></trkpt><trkpt lat="44.570542275616965" lon="0.9270722680405193"><ele>244.0</ele><time>2026-05-01T10:22:05Z</time></trkpt><trkpt lat="44.57046376484375" lon="0.9271514295995635"><ele>243.99999999999997</ele><time>2026-05-01T10:22:06Z</time></trkpt><trkpt lat="44.570381085871986" lon="0.927242652302633"><ele>243.99999999999997</ele><time>2026-05-01T10:22:07Z</time></trkpt><trkpt lat="44.57029722651283" lon="0.927335128643202"><ele>244.0</ele><time>2026-05-01T10:22:08Z</time></trkpt><trkpt lat="44.57023707886154" lon="0.9274269456281308"><ele>244.0</ele><time>2026-05-01T10:22:09Z</time></trkpt><trkpt lat="44.57018190811212" lon="0.9275025044945759"><ele>243.39999999999998</ele><time>2026-05-01T10:22:10Z</time></trkpt><trkpt lat="44.57013548396228" lon="0.9274348091690084"><ele>242.79999999999998</ele><time>2026-05-01T10:22:14Z</time></trkpt><trkpt lat="44.570057459096695" lon="0.9274498571237854"><ele>242.20000000000002</ele><time>2026-05-01T10:22:17Z</time></trkpt><trkpt lat="44.57004965383699" lon="0.9276082803181356"><ele>241.60000000000002</ele><time>2026-05-01T10:22:19Z</time></trkpt><trkpt lat="44.5699823320719" lon="0.9277489610538967"><ele>241.0</ele><time>2026-05-01T10:22:21Z</time></trkpt><trkpt lat="44.56991816087825" lon="0.9278459079507885"><ele>242.5</ele><time>2026-05-01T10:22:22Z</time></trkpt><trkpt lat="44.569824693408584" lon="0.9279944145052229"><ele>244.0</ele><time>2026-05-01T10:22:23Z</time></trkpt><trkpt lat="44.56973854510044" lon="0.9281301615966403"><ele>245.5</ele><time>2026-05-01T10:22:24Z</time></trkpt><trkpt lat="44.56965506340061" lon="0.9282087956743109"><ele>247.0</ele><time>2026-05-01T10:22:25Z</time></trkpt><trkpt lat="44.569605124679214" lon="0.928302752126729"><ele>246.8</ele><time>2026-05-01T10:22:26Z</time></trkpt><trkpt lat="44.5695572551933" lon="0.9284542507812837"><ele>246.6</ele><time>2026-05-01T10:22:27Z</time></trkpt><trkpt lat="44.56953861453079" lon="0.9285995505763335"><ele>246.40000000000003</ele><time>2026-05-01T10:22:28Z</time></trkpt><trkpt lat="44.56948531664232" lon="0.9287235048481627"><ele>246.20000000000002</ele><time>2026-05-01T10:22:29Z</time></trkpt><trkpt lat="44.56941125601015" lon="0.9288199751094917"><ele>246.0</ele><time>2026-05-01T10:22:30Z</time></trkpt><trkpt lat="44.56930696309877" lon="0.9289237912396684"><ele>246.0</ele><time>2026-05-01T10:22:31Z</time></trkpt><trkpt lat="44.56920765752193" lon="0.9290248340125612"><ele>246.00000000000003</ele><time>2026-05-01T10:22:32Z</time></trkpt><trkpt lat="44.56911143495585" lon="0.9291175355135289"><ele>246.00000000000003</ele><time>2026-05-01T10:22:33Z</time></trkpt><trkpt lat="44.56903480396103" lon="0.9291941534586677"><ele>246.0</ele><time>2026-05-01T10:22:34Z</time></trkpt><trkpt lat="44.568937527169794" lon="0.9292355604044523"><ele>246.0</ele><time>2026-05-01T10:22:36Z</time></trkpt><trkpt lat="44.56883256506981" lon="0.9290941142851225"><ele>246.0</ele><time>2026-05-01T10:22:38Z</time></trkpt><trkpt lat="44.56876775479784" lon="0.9289873031862859"><ele>246.0</ele><time>2026-05-01T10:22:39Z</time></trkpt><trkpt lat="44.568697986696165" lon="0.9288529439730683"><ele>246.0</ele><time>2026-05-01T10:22:40Z</time></trkpt><trkpt lat="44.56857392721444" lon="0.9287576325336622"><ele>246.0</ele><time>2026-05-01T10:22:42Z</time></trkpt><trkpt lat="44.56848191661438" lon="0.9286717032349165"><ele>246.25</ele><time>2026-05-01T10:22:43Z</time></trkpt><trkpt lat="44.56835683128822" lon="0.9285534173610205"><ele>246.5</ele><time>2026-05-01T10:22:44Z</time></trkpt><trkpt lat="44.56826915397759" lon="0.9284325521883827"><ele>246.75</ele><time>2026-05-01T10:22:45Z</time></trkpt><trkpt lat="44.5681682617338" lon="0.9283218159428724"><ele>247.0</ele><time>2026-05-01T10:22:46Z</time></trkpt><trkpt lat="44.56808053210994" lon="0.9282399146393415"><ele>247.0</ele><time>2026-05-01T10:22:47Z</time></trkpt><trkpt lat="44.56798215864226" lon="0.9281778342186506"><ele>247.0</ele><time>2026-05-01T10:22:48Z</time></trkpt><trkpt lat="44.56786482318546" lon="0.9281116033565068"><ele>247.0</ele><time>2026-05-01T10:22:49Z</time></trkpt><trkpt lat="44.56774339711453" lon="0.9280245708346043"><ele>247.0</ele><time>2026-05-01T10:22:50Z</time></trkpt><trkpt lat="44.56762497980591" lon="0.9279239671359594"><ele>247.39999999999998</ele><time>2026-05-01T10:22:51Z</time></trkpt><trkpt lat="44.56753553333491" lon="0.9278708709003196"><ele>247.79999999999998</ele><time>2026-05-01T10:22:52Z</time></trkpt><trkpt lat="44.56741253864926" lon="0.9277670901584534"><ele>248.2</ele><time>2026-05-01T10:22:54Z</time></trkpt><trkpt lat="44.56733321150575" lon="0.9276944300956019"><ele>248.6</ele><time>2026-05-01T10:22:55Z</time></trkpt><trkpt lat="44.56726228816661" lon="0.9276278598232359"><ele>249.0</ele><time>2026-05-01T10:22:56Z</time></trkpt><trkpt lat="44.56716822933023" lon="0.9275596912562587"><ele>247.79999999999998</ele><time>2026-05-01T10:22:57Z</time></trkpt><trkpt lat="44.5670480228219" lon="0.9274891596074518"><ele>246.59999999999997</ele><time>2026-05-01T10:22:58Z</time></trkpt><trkpt lat="44.566955819446996" lon="0.9274279905777738"><ele>245.4</ele><time>2026-05-01T10:22:59Z</time></trkpt><trkpt lat="44.56689089633703" lon="0.9273409902627281"><ele>244.2</ele><time>2026-05-01T10:23:00Z</time></trkpt><trkpt lat="44.56677580366528" lon="0.9272831936738741"><ele>243.0</ele><time>2026-05-01T10:23:02Z</time></trkpt><trkpt lat="44.566692279962005" lon="0.9272459574592098"><ele>243.0</ele><time>2026-05-01T10:23:03Z</time></trkpt><trkpt lat="44.56657331816676" lon="0.9272111740406194"><ele>243.0</ele><time>2026-05-01T10:23:04Z</time></trkpt><trkpt lat="44.566450398855565" lon="0.9272106432062406"><ele>243.0</ele><time>2026-05-01T10:23:05Z</time></trkpt><trkpt lat="44.56633790859696" lon="0.9271952371566878"><ele>243.0</ele><time>2026-05-01T10:23:06Z</time></trkpt><trkpt lat="44.566236221882285" lon="0.9271619918871039"><ele>241.4</ele><time>2026-05-01T10:23:07Z</time></trkpt><trkpt lat="44.56612785534703" lon="0.9271606310070147"><ele>239.8</ele><time>2026-05-01T10:23:08Z</time></trkpt><trkpt lat="44.56600351076983" lon="0.9271806582548923"><ele>238.2</ele><time>2026-05-01T10:23:09Z</time></trkpt><trkpt lat="44.56587994938501" lon="0.9271896515022826"><ele>236.6</ele><time>2026-05-01T10:23:10Z</time></trkpt><trkpt lat="44.56579746161135" lon="0.9271628932305311"><ele>235.0</ele><time>2026-05-01T10:23:11Z</time></trkpt><trkpt lat="44.56569598816766" lon="0.9271105614368591"><ele>235.0</ele><time>2026-05-01T10:23:12Z</time></trkpt><trkpt lat="44.565596922028845" lon="0.9270584081297997"><ele>235.0</ele><time>2026-05-01T10:23:13Z</time></trkpt><trkpt lat="44.56548963600513" lon="0.9269697070786748"><ele>235.0</ele><time>2026-05-01T10:23:15Z</time></trkpt><trkpt lat="44.56546864512985" lon="0.926802597471989"><ele>235.0</ele><time>2026-05-01T10:23:17Z</time></trkpt><trkpt lat="44.56537853578903" lon="0.9267295729586834"><ele>231.99999999999997</ele><time>2026-05-01T10:23:20Z</time></trkpt><trkpt lat="44.565318006880105" lon="0.9267553441177757"><ele>229.0</ele><time>2026-05-01T10:23:21Z</time></trkpt><trkpt lat="44.5652467397899" lon="0.9267962138767831"><ele>226.0</ele><time>2026-05-01T10:23:22Z</time></trkpt><trkpt lat="44.565152760137295" lon="0.9268500796319082"><ele>223.0</ele><time>2026-05-01T10:23:23Z</time></trkpt><trkpt lat="44.56506422691668" lon="0.9268891213138581"><ele>219.99999999999997</ele><time>2026-05-01T10:23:24Z</time></trkpt><trkpt lat="44.56498463015405" lon="0.9269478000153409"><ele>217.0</ele><time>2026-05-01T10:23:25Z</time></trkpt><trkpt lat="44.56490203309607" lon="0.926976891323287"><ele>216.99999999999997</ele><time>2026-05-01T10:23:26Z</time></trkpt><trkpt lat="44.564815329130205" lon="0.9270258043796286"><ele>217.0</ele><time>2026-05-01T10:23:27Z</time></trkpt><trkpt lat="44.56474875884091" lon="0.9270566794935948"><ele>217.0</ele><time>2026-05-01T10:23:28Z</time></trkpt><trkpt lat="44.56468449493936" lon="0.9271200012826049"><ele>217.0</ele><time>2026-05-01T10:23:29Z</time></trkpt><trkpt lat="44.56464122424727" lon="0.9272163993080244"><ele>216.99999999999997</ele><time>2026-05-01T10:23:30Z</time></trkpt><trkpt lat="44.56461635050575" lon="0.927303921543451"><ele>217.0</ele><time>2026-05-01T10:23:31Z</time></trkpt><trkpt lat="44.564548095245826" lon="0.927438192363456"><ele>214.0</ele><time>2026-05-01T10:23:32Z</time></trkpt><trkpt lat="44.564494820797925" lon="0.927519730713829"><ele>211.0</ele><time>2026-05-01T10:23:33Z</time></trkpt><trkpt lat="44.564410442553026" lon="0.9276168053982539"><ele>208.0</ele><time>2026-05-01T10:23:34Z</time></trkpt><trkpt lat="44.5643042583326" lon="0.9276701638857149"><ele>205.0</ele><time>2026-05-01T10:23:35Z</time></trkpt><trkpt lat="44.56422981726616" lon="0.9276995937661444"><ele>202.0</ele><time>2026-05-01T10:23:36Z</time></trkpt><trkpt lat="44.564130550601874" lon="0.9277871268797784"><ele>202.0</ele><time>2026-05-01T10:23:38Z</time></trkpt><trkpt lat="44.564046626477015" lon="0.9277924416344676"><ele>202.0</ele><time>2026-05-01T10:23:40Z</time></trkpt><trkpt lat="44.564046267538075" lon="0.9279242943606869"><ele>202.0</ele><time>2026-05-01T10:23:42Z</time></trkpt><trkpt lat="44.56403197514759" lon="0.9280567285730995"><ele>202.0</ele><time>2026-05-01T10:23:43Z</time></trkpt><trkpt lat="44.56402177293441" lon="0.9281962723610742"><ele>202.0</ele><time>2026-05-01T10:23:44Z</time></trkpt><trkpt lat="44.564006235337004" lon="0.9283605993305065"><ele>202.16666666666666</ele><time>2026-05-01T10:23:45Z</time></trkpt><trkpt lat="44.56400039775529" lon="0.9284952332274664"><ele>202.33333333333331</ele><time>2026-05-01T10:23:46Z</time></trkpt><trkpt lat="44.56396805454411" lon="0.9286012814705356"><ele>202.5</ele><time>2026-05-01T10:23:47Z</time></trkpt><trkpt lat="44.56391837249948" lon="0.9286975944106962"><ele>202.66666666666669</ele><time>2026-05-01T10:23:48Z</time></trkpt><trkpt lat="44.56386137746869" lon="0.9288094720723707"><ele>202.83333333333334</ele><time>2026-05-01T10:23:49Z</time></trkpt><trkpt lat="44.563815907334835" lon="0.9289095075916043"><ele>203.0</ele><time>2026-05-01T10:23:50Z</time></trkpt><trkpt lat="44.56377794311109" lon="0.9290229920646719"><ele>203.00000000000003</ele><time>2026-05-01T10:23:51Z</time></trkpt><trkpt lat="44.563759473345456" lon="0.929135707717506"><ele>203.0</ele><time>2026-05-01T10:23:52Z</time></trkpt><trkpt lat="44.56374580822339" lon="0.9292282855431974"><ele>203.0</ele><time>2026-05-01T10:23:53Z</time></trkpt><trkpt lat="44.56370766398494" lon="0.9293006422623156"><ele>203.0</ele><time>2026-05-01T10:23:54Z</time></trkpt><trkpt lat="44.5636341931867" lon="0.9294244768084299"><ele>203.00000000000003</ele><time>2026-05-01T10:23:56Z</time></trkpt><trkpt lat="44.56360130937527" lon="0.9295322745934789"><ele>203.0</ele><time>2026-05-01T10:23:57Z</time></trkpt><trkpt lat="44.56356687642959" lon="0.9296281088113416"><ele>200.33333333333334</ele><time>2026-05-01T10:23:58Z</time></trkpt><trkpt lat="44.56350921059052" lon="0.9297062122286702"><ele>197.66666666666669</ele><time>2026-05-01T10:24:00Z</time></trkpt><trkpt lat="44.563403948407974" lon="0.929707363947558"><ele>195.0</ele><time>2026-05-01T10:24:02Z</time></trkpt><trkpt lat="44.563324479070864" lon="0.9297056516566223"><ele>192.33333333333334</ele><time>2026-05-01T10:24:03Z</time></trkpt><trkpt lat="44.56326408373506" lon="0.9296725920821498"><ele>189.66666666666669</ele><time>2026-05-01T10:24:04Z</time></trkpt><trkpt lat="44.56320548065345" lon="0.9296114772671205"><ele>187.0</ele><time>2026-05-01T10:24:05Z</time></trkpt><trkpt lat="44.56313269017049" lon="0.9295289253305744"><ele>187.0</ele><time>2026-05-01T10:24:07Z</time></trkpt><trkpt lat="44.56306917195613" lon="0.9295402287101936"><ele>187.0</ele><time>2026-05-01T10:24:08Z</time></trkpt><trkpt lat="44.56301707347098" lon="0.9296021669513153"><ele>187.0</ele><time>2026-05-01T10:24:09Z</time></trkpt><trkpt lat="44.562964643522825" lon="0.9296843475115429"><ele>187.0</ele><time>2026-05-01T10:24:10Z</time></trkpt><trkpt lat="44.56295841231092" lon="0.9297838350029941"><ele>187.0</ele><time>2026-05-01T10:24:11Z</time></trkpt><trkpt lat="44.56296287904005" lon="0.9299003685916771"><ele>187.0</ele><time>2026-05-01T10:24:12Z</time></trkpt><trkpt lat="44.562955612914116" lon="0.9300728986218223"><ele>187.5</ele><time>2026-05-01T10:24:13Z</time></trkpt><trkpt lat="44.56293312986802" lon="0.9302462041759029"><ele>188.0</ele><time>2026-05-01T10:24:14Z</time></trkpt><trkpt lat="44.56292193312486" lon="0.9303975334729563"><ele>188.5</ele><time>2026-05-01T10:24:15Z</time></trkpt><trkpt lat="44.56291322241645" lon="0.9305841092877223"><ele>189.0</ele><time>2026-05-01T10:24:16Z</time></trkpt><trkpt lat="44.562885272769236" lon="0.9307658439081171"><ele>186.0</ele><time>2026-05-01T10:24:17Z</time></trkpt><trkpt lat="44.562843222477284" lon="0.9309426284601323"><ele>183.0</ele><time>2026-05-01T10:24:18Z</time></trkpt><trkpt lat="44.56279643310681" lon="0.9311093032585308"><ele>180.0</ele><time>2026-05-01T10:24:19Z</time></trkpt><trkpt lat="44.56275885605807" lon="0.9312633453779927"><ele>177.0</ele><time>2026-05-01T10:24:20Z</time></trkpt><trkpt lat="44.56273567933496" lon="0.9313944833518631"><ele>177.0</ele><time>2026-05-01T10:24:21Z</time></trkpt><trkpt lat="44.56271724019362" lon="0.9315373206489386"><ele>177.0</ele><time>2026-05-01T10:24:22Z</time></trkpt><trkpt lat="44.56268035291444" lon="0.931680175599124"><ele>177.0</ele><time>2026-05-01T10:24:23Z</time></trkpt><trkpt lat="44.56261805201413" lon="0.9317953548876562"><ele>177.0</ele><time>2026-05-01T10:24:24Z</time></trkpt><trkpt lat="44.56258507747499" lon="0.9318914274302975"><ele>177.0</ele><time>2026-05-01T10:24:25Z</time></trkpt><trkpt lat="44.562494272205235" lon="0.9320266016880409"><ele>178.75</ele><time>2026-05-01T10:24:26Z</time></trkpt><trkpt lat="44.562392841533146" lon="0.932136174902817"><ele>180.5</ele><time>2026-05-01T10:24:27Z</time></trkpt><trkpt lat="44.562284403141376" lon="0.9322358692151498"><ele>182.25</ele><time>2026-05-01T10:24:28Z</time></trkpt><trkpt lat="44.56218235687337" lon="0.9323119670718356"><ele>184.0</ele><time>2026-05-01T10:24:29Z</time></trkpt><trkpt lat="44.56208784815714" lon="0.9323980769724463"><ele>182.75</ele><time>2026-05-01T10:24:30Z</time></trkpt><trkpt lat="44.561943324544075" lon="0.9324577852390875"><ele>181.5</ele><time>2026-05-01T10:24:31Z</time></trkpt><trkpt lat="44.56179402686514" lon="0.9325222399426197"><ele>180.25</ele><time>2026-05-01T10:24:32Z</time></trkpt><trkpt lat="44.561682308400805" lon="0.9325893882451013"><ele>179.0</ele><time>2026-05-01T10:24:33Z</time></trkpt><trkpt lat="44.56159792225929" lon="0.9326323720770092"><ele>179.0</ele><time>2026-05-01T10:24:34Z</time></trkpt><trkpt lat="44.561536348066255" lon="0.9326764906337109"><ele>179.0</ele><time>2026-05-01T10:24:35Z</time></trkpt><trkpt lat="44.561466855108556" lon="0.9326759721449991"><ele>179.0</ele><time>2026-05-01T10:24:37Z</time></trkpt><trkpt lat="44.56141586261447" lon="0.9326022662393485"><ele>179.0</ele><time>2026-05-01T10:24:39Z</time></trkpt><trkpt lat="44.56132170233518" lon="0.9325475851221425"><ele>179.0</ele><time>2026-05-01T10:24:42Z</time></trkpt><trkpt lat="44.56121402544904" lon="0.932531768034721"><ele>179.0</ele><time>2026-05-01T10:24:44Z</time></trkpt><trkpt lat="44.56112016408937" lon="0.9325474414751905"><ele>178.6</ele><time>2026-05-01T10:24:45Z</time></trkpt><trkpt lat="44.56101911235979" lon="0.9325892784828514"><ele>178.2</ele><time>2026-05-01T10:24:46Z</time></trkpt><trkpt lat="44.56094577825558" lon="0.9326284700640374"><ele>177.79999999999998</ele><time>2026-05-01T10:24:47Z</time></trkpt><trkpt lat="44.56087839153134" lon="0.9326484693099669"><ele>177.39999999999998</ele><time>2026-05-01T10:24:48Z</time></trkpt><trkpt lat="44.56074948368985" lon="0.9326871963586792"><ele>177.0</ele><time>2026-05-01T10:24:50Z</time></trkpt><trkpt lat="44.56066960364228" lon="0.9327179298443888"><ele>177.0</ele><time>2026-05-01T10:24:51Z</time></trkpt><trkpt lat="44.560571130781554" lon="0.93277166434593"><ele>177.0</ele><time>2026-05-01T10:24:52Z</time></trkpt><trkpt lat="44.56048122809982" lon="0.9328254163726675"><ele>177.0</ele><time>2026-05-01T10:24:53Z</time></trkpt><trkpt lat="44.560423346884434" lon="0.9328775880630418"><ele>177.0</ele><time>2026-05-01T10:24:54Z</time></trkpt><trkpt lat="44.56036108168837" lon="0.9329088709414847"><ele>177.0</ele><time>2026-05-01T10:24:55Z</time></trkpt><trkpt lat="44.56029702651316" lon="0.932920049530459"><ele>177.0</ele><time>2026-05-01T10:24:56Z</time></trkpt><trkpt lat="44.560197571643315" lon="0.9329454480567573"><ele>175.8</ele><time>2026-05-01T10:24:57Z</time></trkpt><trkpt lat="44.56009172543754" lon="0.9329913535248924"><ele>174.6</ele><time>2026-05-01T10:24:58Z</time></trkpt><trkpt lat="44.560011661205955" lon="0.933041152745169"><ele>173.4</ele><time>2026-05-01T10:24:59Z</time></trkpt><trkpt lat="44.559936521423694" lon="0.9330871244531039"><ele>172.20000000000002</ele><time>2026-05-01T10:25:00Z</time></trkpt><trkpt lat="44.55984933697652" lon="0.9331096899057921"><ele>171.0</ele><time>2026-05-01T10:25:01Z</time></trkpt><trkpt lat="44.55976895151584" lon="0.9331384792993136"><ele>171.0</ele><time>2026-05-01T10:25:02Z</time></trkpt><trkpt lat="44.55966787896401" lon="0.9331857627929311"><ele>171.0</ele><time>2026-05-01T10:25:03Z</time></trkpt><trkpt lat="44.55957479624953" lon="0.9332778555532677"><ele>171.0</ele><time>2026-05-01T10:25:04Z</time></trkpt><trkpt lat="44.55951312837754" lon="0.933369812307601"><ele>171.0</ele><time>2026-05-01T10:25:06Z</time></trkpt><trkpt lat="44.55952380472104" lon="0.9335677216849956"><ele>173.83333333333334</ele><time>2026-05-01T10:25:08Z</time></trkpt><trkpt lat="44.559522366707846" lon="0.9337089578656007"><ele>176.66666666666666</ele><time>2026-05-01T10:25:09Z</time></trkpt><trkpt lat="44.55946823732761" lon="0.9338103717451741"><ele>179.5</ele><time>2026-05-01T10:25:11Z</time></trkpt><trkpt lat="44.55946511607112" lon="0.9338988586265311"><ele>182.33333333333331</ele><time>2026-05-01T10:25:15Z</time></trkpt><trkpt lat="44.55945650318358" lon="0.9340035102248546"><ele>185.16666666666666</ele><time>2026-05-01T10:25:17Z</time></trkpt><trkpt lat="44.559425221242996" lon="0.9341346290401674"><ele>188.0</ele><time>2026-05-01T10:25:20Z</time></trkpt><trkpt lat="44.55938253331876" lon="0.9342484899450859"><ele>188.0</ele><time>2026-05-01T10:25:22Z</time></trkpt><trkpt lat="44.55936011053207" lon="0.9343422723973563"><ele>188.0</ele><time>2026-05-01T10:25:25Z</time></trkpt><trkpt lat="44.559308907005565" lon="0.9344499615349516"><ele>188.0</ele><time>2026-05-01T10:25:28Z</time></trkpt><trkpt lat="44.55925877509421" lon="0.9345782203757256"><ele>188.0</ele><time>2026-05-01T10:25:30Z</time></trkpt><trkpt lat="44.559218284164515" lon="0.9347118922095159"><ele>188.0</ele><time>2026-05-01T10:25:31Z</time></trkpt><trkpt lat="44.55919007276769" lon="0.9348332672520839"><ele>188.0</ele><time>2026-05-01T10:25:32Z</time></trkpt><trkpt lat="44.55917995393636" lon="0.9349360950070074"><ele>188.0</ele><time>2026-05-01T10:25:33Z</time></trkpt><trkpt lat="44.55916007083852" lon="0.9350326435879039"><ele>188.0</ele><time>2026-05-01T10:25:34Z</time></trkpt><trkpt lat="44.55915387995266" lon="0.9351466386636681"><ele>188.0</ele><time>2026-05-01T10:25:35Z</time></trkpt><trkpt lat="44.55912418462758" lon="0.9352759831804328"><ele>188.0</ele><time>2026-05-01T10:25:36Z</time></trkpt><trkpt lat="44.55911674482972" lon="0.9354046586137885"><ele>188.0</ele><time>2026-05-01T10:25:37Z</time></trkpt><trkpt lat="44.55908313966126" lon="0.9355484054559263"><ele>186.8</ele><time>2026-05-01T10:25:38Z</time></trkpt><trkpt lat="44.55906224219801" lon="0.9356558559841719"><ele>185.60000000000002</ele><time>2026-05-01T10:25:39Z</time></trkpt><trkpt lat="44.5590179146652" lon="0.9357425542426916"><ele>184.39999999999998</ele><time>2026-05-01T10:25:40Z</time></trkpt><trkpt lat="44.55899224760305" lon="0.9358336882055133"><ele>183.2</ele><time>2026-05-01T10:25:41Z</time></trkpt><trkpt lat="44.55893985987361" lon="0.93599683246086"><ele>182.0</ele><time>2026-05-01T10:25:42Z</time></trkpt><trkpt lat="44.55888663136268" lon="0.9361422863171042"><ele>180.0</ele><time>2026-05-01T10:25:43Z</time></trkpt><trkpt lat="44.55884656955016" lon="0.936300761260605"><ele>178.0</ele><time>2026-05-01T10:25:44Z</time></trkpt><trkpt lat="44.55881692814601" lon="0.9364619560666103"><ele>176.0</ele><time>2026-05-01T10:25:44.999Z</time></trkpt><trkpt lat="44.558800043992974" lon="0.9366008013925066"><ele>174.0</ele><time>2026-05-01T10:25:45.999Z</time></trkpt><trkpt lat="44.5587750047165" lon="0.9367260167657361"><ele>172.0</ele><time>2026-05-01T10:25:46.999Z</time></trkpt><trkpt lat="44.55876165418671" lon="0.936836510404477"><ele>170.6</ele><time>2026-05-01T10:25:47.999Z</time></trkpt><trkpt lat="44.55875664777864" lon="0.9369440730433218"><ele>169.2</ele><time>2026-05-01T10:25:48.999Z</time></trkpt><trkpt lat="44.55867230770253" lon="0.937039020046903"><ele>167.8</ele><time>2026-05-01T10:25:51.999Z</time></trkpt><trkpt lat="44.55859638993831" lon="0.9371831902271172"><ele>166.4</ele><time>2026-05-01T10:25:52.999Z</time></trkpt><trkpt lat="44.55854077039071" lon="0.9372884850252698"><ele>165.0</ele><time>2026-05-01T10:25:53.999Z</time></trkpt><trkpt lat="44.55846469445757" lon="0.9374115397057119"><ele>165.8</ele><time>2026-05-01T10:25:55.999Z</time></trkpt><trkpt lat="44.55841142023449" lon="0.9374797255197093"><ele>166.6</ele><time>2026-05-01T10:25:56.999Z</time></trkpt><trkpt lat="44.55832745347884" lon="0.9375829284265914"><ele>167.39999999999998</ele><time>2026-05-01T10:25:58.999Z</time></trkpt><trkpt lat="44.55827296547629" lon="0.9376273304058206"><ele>168.2</ele><time>2026-05-01T10:25:59.999Z</time></trkpt><trkpt lat="44.55816998319583" lon="0.9376940739985606"><ele>169.0</ele><time>2026-05-01T10:26:01.999Z</time></trkpt><trkpt lat="44.55806095722741" lon="0.9377002741312397"><ele>169.0</ele><time>2026-05-01T10:26:03.999Z</time></trkpt><trkpt lat="44.55792862307184" lon="0.9376999418101498"><ele>169.0</ele><time>2026-05-01T10:26:05.999Z</time></trkpt><trkpt lat="44.55785674256189" lon="0.9376781716760288"><ele>169.0</ele><time>2026-05-01T10:26:06.999Z</time></trkpt><trkpt lat="44.55778731162017" lon="0.937665277469085"><ele>169.0</ele><time>2026-05-01T10:26:07.999Z</time></trkpt><trkpt lat="44.55770769737465" lon="0.9376513744003453"><ele>169.0</ele><time>2026-05-01T10:26:08.999Z</time></trkpt><trkpt lat="44.55762492427972" lon="0.9376292575263202"><ele>169.0</ele><time>2026-05-01T10:26:09.999Z</time></trkpt><trkpt lat="44.55752998944786" lon="0.9375748171737676"><ele>172.5</ele><time>2026-05-01T10:26:10.999Z</time></trkpt><trkpt lat="44.557426866938265" lon="0.9375067863290663"><ele>176.0</ele><time>2026-05-01T10:26:11.999Z</time></trkpt><trkpt lat="44.557320108298995" lon="0.9374282544335683"><ele>179.5</ele><time>2026-05-01T10:26:12.999Z</time></trkpt><trkpt lat="44.55721613893595" lon="0.9373347182104262"><ele>183.0</ele><time>2026-05-01T10:26:13.999Z</time></trkpt><trkpt lat="44.557133303238786" lon="0.937268276852889"><ele>183.0</ele><time>2026-05-01T10:26:14.999Z</time></trkpt><trkpt lat="44.55705157521792" lon="0.9371856896664648"><ele>183.0</ele><time>2026-05-01T10:26:15.999Z</time></trkpt><trkpt lat="44.556968704585664" lon="0.9371063894453902"><ele>183.0</ele><time>2026-05-01T10:26:16.999Z</time></trkpt><trkpt lat="44.556914865510244" lon="0.937034654991766"><ele>183.0</ele><time>2026-05-01T10:26:17.999Z</time></trkpt><trkpt lat="44.556859480772545" lon="0.9369668437887564"><ele>183.0</ele><time>2026-05-01T10:26:18.999Z</time></trkpt><trkpt lat="44.55681749518909" lon="0.9368938063778632"><ele>183.0</ele><time>2026-05-01T10:26:19.999Z</time></trkpt><trkpt lat="44.556694037807496" lon="0.9368287487768775"><ele>182.8</ele><time>2026-05-01T10:26:21.999Z</time></trkpt><trkpt lat="44.55661256529272" lon="0.9368184859358561"><ele>182.60000000000002</ele><time>2026-05-01T10:26:22.999Z</time></trkpt><trkpt lat="44.55650405067987" lon="0.9368324511090529"><ele>182.39999999999998</ele><time>2026-05-01T10:26:23.999Z</time></trkpt><trkpt lat="44.556401052889576" lon="0.9368217674728117"><ele>182.2</ele><time>2026-05-01T10:26:24.999Z</time></trkpt><trkpt lat="44.55630930465552" lon="0.9368005581690582"><ele>182.0</ele><time>2026-05-01T10:26:25.999Z</time></trkpt><trkpt lat="44.55622396519017" lon="0.9367435270093037"><ele>183.75</ele><time>2026-05-01T10:26:26.999Z</time></trkpt><trkpt lat="44.55612779829878" lon="0.9366532474727952"><ele>185.5</ele><time>2026-05-01T10:26:27.999Z</time></trkpt><trkpt lat="44.55601733401305" lon="0.9365389359215206"><ele>187.25</ele><time>2026-05-01T10:26:28.999Z</time></trkpt><trkpt lat="44.555908197268245" lon="0.9364425848221903"><ele>189.0</ele><time>2026-05-01T10:26:29.999Z</time></trkpt><trkpt lat="44.55583270344906" lon="0.9363768403401085"><ele>189.0</ele><time>2026-05-01T10:26:30.999Z</time></trkpt><trkpt lat="44.555727808561805" lon="0.9363771443894496"><ele>189.0</ele><time>2026-05-01T10:26:32.999Z</time></trkpt><trkpt lat="44.5557439344538" lon="0.9362798899530845"><ele>189.0</ele><time>2026-05-01T10:26:39.999Z</time></trkpt><trkpt lat="44.55582598157286" lon="0.9362024256508306"><ele>189.0</ele><time>2026-05-01T10:26:40.999Z</time></trkpt><trkpt lat="44.55591106303642" lon="0.9361215660911614"><ele>189.0</ele><time>2026-05-01T10:26:41.999Z</time></trkpt><trkpt lat="44.55599581497374" lon="0.9360733220073313"><ele>189.0</ele><time>2026-05-01T10:26:42.999Z</time></trkpt><trkpt lat="44.55609818716063" lon="0.9360268781991407"><ele>189.0</ele><time>2026-05-01T10:26:43.999Z</time></trkpt><trkpt lat="44.556156000286705" lon="0.936072227948306"><ele>189.0</ele><time>2026-05-01T10:26:44.999Z</time></trkpt><trkpt lat="44.55623442806807" lon="0.9360120029111267"><ele>189.0</ele><time>2026-05-01T10:26:46.999Z</time></trkpt><trkpt lat="44.55627045228461" lon="0.935930234679546"><ele>189.0</ele><time>2026-05-01T10:26:47.999Z</time></trkpt><trkpt lat="44.556381673168616" lon="0.9357679884381325"><ele>191.5</ele><time>2026-05-01T10:26:49.999Z</time></trkpt><trkpt lat="44.55641889428575" lon="0.9356819661114117"><ele>194.0</ele><time>2026-05-01T10:26:50.999Z</time></trkpt><trkpt lat="44.556461623130794" lon="0.9355970196441289"><ele>196.5</ele><time>2026-05-01T10:26:52Z</time></trkpt><trkpt lat="44.55648881560399" lon="0.9355158224969844"><ele>199.0</ele><time>2026-05-01T10:26:53Z</time></trkpt><trkpt lat="44.55654219641763" lon="0.9354648714080966"><ele>201.5</ele><time>2026-05-01T10:26:54Z</time></trkpt><trkpt lat="44.55657492805083" lon="0.9352978375485952"><ele>204.0</ele><time>2026-05-01T10:26:55Z</time></trkpt><trkpt lat="44.55661193944003" lon="0.9352001236930075"><ele>204.0</ele><time>2026-05-01T10:26:56Z</time></trkpt><trkpt lat="44.55666972251479" lon="0.9351044064927437"><ele>204.0</ele><time>2026-05-01T10:26:57Z</time></trkpt><trkpt lat="44.55671484316214" lon="0.9350100535142497"><ele>204.0</ele><time>2026-05-01T10:26:58Z</time></trkpt><trkpt lat="44.55678539008568" lon="0.9348317935332822"><ele>204.0</ele><time>2026-05-01T10:26:59Z</time></trkpt><trkpt lat="44.55686750465182" lon="0.9346700537189252"><ele>206.75</ele><time>2026-05-01T10:27:00Z</time></trkpt><trkpt lat="44.556950074748265" lon="0.9345302618287223"><ele>209.5</ele><time>2026-05-01T10:27:01Z</time></trkpt><trkpt lat="44.557016214124374" lon="0.9343949024818006"><ele>212.25</ele><time>2026-05-01T10:27:02Z</time></trkpt><trkpt lat="44.55707425160614" lon="0.9342674448069272"><ele>215.0</ele><time>2026-05-01T10:27:03Z</time></trkpt><trkpt lat="44.557130749668886" lon="0.93412281058739"><ele>216.4</ele><time>2026-05-01T10:27:04Z</time></trkpt><trkpt lat="44.55719153443409" lon="0.9339834273884394"><ele>217.8</ele><time>2026-05-01T10:27:05Z</time></trkpt><trkpt lat="44.55725218089424" lon="0.9338446419372171"><ele>219.2</ele><time>2026-05-01T10:27:06Z</time></trkpt><trkpt lat="44.55729499119595" lon="0.9337316721757587"><ele>220.6</ele><time>2026-05-01T10:27:07Z</time></trkpt><trkpt lat="44.55734575667281" lon="0.9335990880126456"><ele>222.0</ele><time>2026-05-01T10:27:08Z</time></trkpt><trkpt lat="44.55734361726838" lon="0.9334402394850942"><ele>220.83333333333334</ele><time>2026-05-01T10:27:09Z</time></trkpt><trkpt lat="44.557372692383716" lon="0.9333392684433871"><ele>219.66666666666669</ele><time>2026-05-01T10:27:10Z</time></trkpt><trkpt lat="44.55738480445112" lon="0.9332464023408399"><ele>218.5</ele><time>2026-05-01T10:27:11Z</time></trkpt><trkpt lat="44.55733240621322" lon="0.9330753523693822"><ele>217.33333333333334</ele><time>2026-05-01T10:27:13Z</time></trkpt><trkpt lat="44.55729317248477" lon="0.9329838325863734"><ele>216.16666666666669</ele><time>2026-05-01T10:27:14Z</time></trkpt><trkpt lat="44.557270434380776" lon="0.9328906075318677"><ele>215.0</ele><time>2026-05-01T10:27:15Z</time></trkpt><trkpt lat="44.55725628463606" lon="0.9327856249377033"><ele>215.0</ele><time>2026-05-01T10:27:16Z</time></trkpt><trkpt lat="44.55725297072546" lon="0.932660398552874"><ele>215.0</ele><time>2026-05-01T10:27:17Z</time></trkpt><trkpt lat="44.557259539626415" lon="0.932545422637204"><ele>215.0</ele><time>2026-05-01T10:27:18Z</time></trkpt><trkpt lat="44.55728356706308" lon="0.9324159237698179"><ele>215.0</ele><time>2026-05-01T10:27:19Z</time></trkpt><trkpt lat="44.557310390325895" lon="0.9322337379086062"><ele>215.0</ele><time>2026-05-01T10:27:20Z</time></trkpt><trkpt lat="44.55735058360702" lon="0.9320984191639181"><ele>213.6</ele><time>2026-05-01T10:27:21Z</time></trkpt><trkpt lat="44.557375912559486" lon="0.932001013606785"><ele>212.2</ele><time>2026-05-01T10:27:22Z</time></trkpt><trkpt lat="44.55739556214293" lon="0.9318621381160697"><ele>210.8</ele><time>2026-05-01T10:27:23Z</time></trkpt><trkpt lat="44.557432541032" lon="0.9317672244621962"><ele>209.4</ele><time>2026-05-01T10:27:24Z</time></trkpt><trkpt lat="44.557492008364584" lon="0.931652229917472"><ele>208.0</ele><time>2026-05-01T10:27:25Z</time></trkpt><trkpt lat="44.557541268853086" lon="0.9315168501338633"><ele>207.99999999999997</ele><time>2026-05-01T10:27:26Z</time></trkpt><trkpt lat="44.557592507217315" lon="0.9314285101314014"><ele>208.0</ele><time>2026-05-01T10:27:27Z</time></trkpt><trkpt lat="44.557603503723676" lon="0.9313266056873787"><ele>208.0</ele><time>2026-05-01T10:27:28Z</time></trkpt><trkpt lat="44.55763548608918" lon="0.9312355317822291"><ele>208.0</ele><time>2026-05-01T10:27:29Z</time></trkpt><trkpt lat="44.55768411187044" lon="0.9311401667532264"><ele>207.99999999999997</ele><time>2026-05-01T10:27:30Z</time></trkpt><trkpt lat="44.557712223972025" lon="0.9310406466862433"><ele>208.0</ele><time>2026-05-01T10:27:31Z</time></trkpt><trkpt lat="44.55781035430919" lon="0.9308886957177174"><ele>208.16666666666666</ele><time>2026-05-01T10:27:32Z</time></trkpt><trkpt lat="44.55786455141983" lon="0.9307728100224127"><ele>208.33333333333331</ele><time>2026-05-01T10:27:33Z</time></trkpt><trkpt lat="44.55790369176811" lon="0.9306590854905596"><ele>208.5</ele><time>2026-05-01T10:27:34Z</time></trkpt><trkpt lat="44.55792824537939" lon="0.9305033184425957"><ele>208.66666666666669</ele><time>2026-05-01T10:27:36Z</time></trkpt><trkpt lat="44.55790288159206" lon="0.930402054015845"><ele>208.83333333333334</ele><time>2026-05-01T10:27:37Z</time></trkpt><trkpt lat="44.557862872392526" lon="0.9303265805249883"><ele>209.0</ele><time>2026-05-01T10:27:38Z</time></trkpt><trkpt lat="44.55789810867981" lon="0.9301485966798132"><ele>209.6</ele><time>2026-05-01T10:27:40Z</time></trkpt><trkpt lat="44.557966629830986" lon="0.93001416802878"><ele>210.2</ele><time>2026-05-01T10:27:41Z</time></trkpt><trkpt lat="44.55802796659927" lon="0.9298696123218698"><ele>210.79999999999998</ele><time>2026-05-01T10:27:42Z</time></trkpt><trkpt lat="44.55806981169908" lon="0.9297297952736876"><ele>211.39999999999998</ele><time>2026-05-01T10:27:43Z</time></trkpt><trkpt lat="44.55808561272283" lon="0.9296023708597165"><ele>212.0</ele><time>2026-05-01T10:27:44Z</time></trkpt><trkpt lat="44.55811102356363" lon="0.9294858006045922"><ele>212.0</ele><time>2026-05-01T10:27:45Z</time></trkpt><trkpt lat="44.55816953901416" lon="0.9292901901252544"><ele>212.0</ele><time>2026-05-01T10:27:46Z</time></trkpt><trkpt lat="44.55816181527058" lon="0.9291180488576543"><ele>212.0</ele><time>2026-05-01T10:27:47Z</time></trkpt><trkpt lat="44.558147128923295" lon="0.9289328816513165"><ele>212.0</ele><time>2026-05-01T10:27:48Z</time></trkpt><trkpt lat="44.558128445643824" lon="0.9287202043913422"><ele>211.5</ele><time>2026-05-01T10:27:49Z</time></trkpt><trkpt lat="44.55813253618648" lon="0.9284609764697259"><ele>211.0</ele><time>2026-05-01T10:27:50Z</time></trkpt><trkpt lat="44.55811922286982" lon="0.9282972985600239"><ele>210.5</ele><time>2026-05-01T10:27:51Z</time></trkpt><trkpt lat="44.5581464114494" lon="0.9281437612844036"><ele>210.0</ele><time>2026-05-01T10:27:52Z</time></trkpt><trkpt lat="44.558166096223935" lon="0.9280211034004284"><ele>209.8</ele><time>2026-05-01T10:27:53Z</time></trkpt><trkpt lat="44.55820258637923" lon="0.9279329219046759"><ele>209.6</ele><time>2026-05-01T10:27:54Z</time></trkpt><trkpt lat="44.55824636369907" lon="0.92785751330515"><ele>209.39999999999998</ele><time>2026-05-01T10:27:55Z</time></trkpt><trkpt lat="44.55830837739682" lon="0.927769455270026"><ele>209.2</ele><time>2026-05-01T10:27:56Z</time></trkpt><trkpt lat="44.55836888189543" lon="0.9276283726144866"><ele>209.0</ele><time>2026-05-01T10:27:57Z</time></trkpt><trkpt lat="44.55843613396715" lon="0.9274810918246937"><ele>209.66666666666669</ele><time>2026-05-01T10:27:58Z</time></trkpt><trkpt lat="44.55857524046929" lon="0.9272900198047963"><ele>210.33333333333331</ele><time>2026-05-01T10:27:59Z</time></trkpt><trkpt lat="44.558676062670095" lon="0.9271253893399568"><ele>211.0</ele><time>2026-05-01T10:28:00Z</time></trkpt><trkpt lat="44.55875958440292" lon="0.926982027050732"><ele>212.20000000000002</ele><time>2026-05-01T10:28:01Z</time></trkpt><trkpt lat="44.5588460310033" lon="0.9268610676195496"><ele>213.4</ele><time>2026-05-01T10:28:02Z</time></trkpt><trkpt lat="44.558915891848194" lon="0.9267644321211234"><ele>214.6</ele><time>2026-05-01T10:28:03Z</time></trkpt><trkpt lat="44.558971172814964" lon="0.9266489891508214"><ele>215.8</ele><time>2026-05-01T10:28:04Z</time></trkpt><trkpt lat="44.559022086945745" lon="0.926498105326734"><ele>217.0</ele><time>2026-05-01T10:28:05Z</time></trkpt><trkpt lat="44.55906347528598" lon="0.9263225869651582"><ele>216.75</ele><time>2026-05-01T10:28:06Z</time></trkpt><trkpt lat="44.55912436863139" lon="0.926125287939579"><ele>216.5</ele><time>2026-05-01T10:28:07Z</time></trkpt><trkpt lat="44.559156636790455" lon="0.9259526223630075"><ele>216.25</ele><time>2026-05-01T10:28:08Z</time></trkpt><trkpt lat="44.5592110688851" lon="0.9258095710287246"><ele>216.0</ele><time>2026-05-01T10:28:09Z</time></trkpt><trkpt lat="44.55924063148692" lon="0.9256506370890325"><ele>216.0</ele><time>2026-05-01T10:28:10Z</time></trkpt><trkpt lat="44.55927527751434" lon="0.9254819290726671"><ele>216.0</ele><time>2026-05-01T10:28:11Z</time></trkpt><trkpt lat="44.559309054753925" lon="0.9253045254031642"><ele>216.0</ele><time>2026-05-01T10:28:12Z</time></trkpt><trkpt lat="44.55934023854969" lon="0.9251402424739895"><ele>216.0</ele><time>2026-05-01T10:28:13Z</time></trkpt><trkpt lat="44.55937669125574" lon="0.9249867474063564"><ele>215.25</ele><time>2026-05-01T10:28:14Z</time></trkpt><trkpt lat="44.55941941997225" lon="0.924860593978205"><ele>214.5</ele><time>2026-05-01T10:28:15Z</time></trkpt><trkpt lat="44.55947551347045" lon="0.9247164297403716"><ele>213.75</ele><time>2026-05-01T10:28:16Z</time></trkpt><trkpt lat="44.559538381070595" lon="0.9245757767713902"><ele>213.0</ele><time>2026-05-01T10:28:17Z</time></trkpt><trkpt lat="44.559612153862275" lon="0.9244317063694603"><ele>213.5</ele><time>2026-05-01T10:28:18Z</time></trkpt><trkpt lat="44.559699039250226" lon="0.9242570011151191"><ele>214.0</ele><time>2026-05-01T10:28:19Z</time></trkpt><trkpt lat="44.55977830133951" lon="0.9240914321077491"><ele>214.5</ele><time>2026-05-01T10:28:20Z</time></trkpt><trkpt lat="44.559846148025336" lon="0.9239514601743591"><ele>215.0</ele><time>2026-05-01T10:28:21Z</time></trkpt><trkpt lat="44.55989558552167" lon="0.9238292159366782"><ele>215.00000000000003</ele><time>2026-05-01T10:28:22Z</time></trkpt><trkpt lat="44.559950840142896" lon="0.9237249274867367"><ele>215.0</ele><time>2026-05-01T10:28:23Z</time></trkpt><trkpt lat="44.559998978947476" lon="0.9235816426968054"><ele>215.0</ele><time>2026-05-01T10:28:25Z</time></trkpt><trkpt lat="44.56002451319588" lon="0.9234908149136718"><ele>215.0</ele><time>2026-05-01T10:28:26Z</time></trkpt><trkpt lat="44.560033177132766" lon="0.9233857959486904"><ele>215.00000000000003</ele><time>2026-05-01T10:28:27Z</time></trkpt><trkpt lat="44.56004578369347" lon="0.9232623838375648"><ele>215.0</ele><time>2026-05-01T10:28:28Z</time></trkpt><trkpt lat="44.56006887257028" lon="0.9231182943757974"><ele>214.75</ele><time>2026-05-01T10:28:29Z</time></trkpt><trkpt lat="44.56010160428179" lon="0.9229528380198753"><ele>214.5</ele><time>2026-05-01T10:28:30Z</time></trkpt><trkpt lat="44.56012279739703" lon="0.9228022065506459"><ele>214.25</ele><time>2026-05-01T10:28:31Z</time></trkpt><trkpt lat="44.560144545269424" lon="0.9226547282334042"><ele>214.0</ele><time>2026-05-01T10:28:32Z</time></trkpt><trkpt lat="44.56017891634559" lon="0.9225069235478324"><ele>214.0</ele><time>2026-05-01T10:28:33Z</time></trkpt><trkpt lat="44.560203218242876" lon="0.9223776680164455"><ele>213.99999999999997</ele><time>2026-05-01T10:28:34Z</time></trkpt><trkpt lat="44.560235845389236" lon="0.9222914036083973"><ele>213.99999999999997</ele><time>2026-05-01T10:28:35Z</time></trkpt><trkpt lat="44.56022240633385" lon="0.9221781893609591"><ele>214.0</ele><time>2026-05-01T10:28:37Z</time></trkpt><trkpt lat="44.560125927749496" lon="0.9221028501262235"><ele>214.0</ele><time>2026-05-01T10:28:40Z</time></trkpt><trkpt lat="44.56002922452643" lon="0.9220301743629676"><ele>213.99999999999997</ele><time>2026-05-01T10:28:42Z</time></trkpt><trkpt lat="44.55997212205052" lon="0.9219853776137729"><ele>214.0</ele><time>2026-05-01T10:28:43Z</time></trkpt><trkpt lat="44.559872783536875" lon="0.9219126236291681"><ele>214.0</ele><time>2026-05-01T10:28:45Z</time></trkpt><trkpt lat="44.559820110576574" lon="0.9218592310041139"><ele>214.0</ele><time>2026-05-01T10:28:46Z</time></trkpt><trkpt lat="44.559772480702684" lon="0.9217582755915773"><ele>213.99999999999997</ele><time>2026-05-01T10:28:48Z</time></trkpt><trkpt lat="44.559680078374356" lon="0.9216752759144593"><ele>214.0</ele><time>2026-05-01T10:28:51Z</time></trkpt><trkpt lat="44.55962538550243" lon="0.9216185514988865"><ele>213.16666666666666</ele><time>2026-05-01T10:28:52Z</time></trkpt><trkpt lat="44.559567128853416" lon="0.9215261998865383"><ele>212.33333333333331</ele><time>2026-05-01T10:28:54Z</time></trkpt><trkpt lat="44.55952290093397" lon="0.921415064017314"><ele>211.5</ele><time>2026-05-01T10:28:58Z</time></trkpt><trkpt lat="44.55950583474492" lon="0.9213211197099062"><ele>210.66666666666669</ele><time>2026-05-01T10:29:01Z</time></trkpt><trkpt lat="44.559469339569034" lon="0.9211861215475514"><ele>209.83333333333334</ele><time>2026-05-01T10:29:03Z</time></trkpt><trkpt lat="44.55941911325784" lon="0.9211014937027804"><ele>209.0</ele><time>2026-05-01T10:29:04Z</time></trkpt><trkpt lat="44.559360816936604" lon="0.9210244086913334"><ele>207.16666666666669</ele><time>2026-05-01T10:29:05Z</time></trkpt><trkpt lat="44.55926805563392" lon="0.9209325245423708"><ele>205.33333333333334</ele><time>2026-05-01T10:29:07Z</time></trkpt><trkpt lat="44.55922277293607" lon="0.9208605270059537"><ele>203.5</ele><time>2026-05-01T10:29:09Z</time></trkpt><trkpt lat="44.5591394348685" lon="0.9208099342595312"><ele>201.66666666666669</ele><time>2026-05-01T10:29:12Z</time></trkpt><trkpt lat="44.559087599350825" lon="0.920743174154589"><ele>199.83333333333334</ele><time>2026-05-01T10:29:14Z</time></trkpt><trkpt lat="44.55902852903533" lon="0.9206411649399994"><ele>198.0</ele><time>2026-05-01T10:29:16Z</time></trkpt><trkpt lat="44.55896533844835" lon="0.9206501328614065"><ele>196.8</ele><time>2026-05-01T10:29:21Z</time></trkpt><trkpt lat="44.558883565758414" lon="0.9205345002160783"><ele>195.60000000000002</ele><time>2026-05-01T10:29:57Z</time></trkpt><trkpt lat="44.558823251403226" lon="0.9204940628187237"><ele>194.39999999999998</ele><time>2026-05-01T10:29:59Z</time></trkpt><trkpt lat="44.55876832717553" lon="0.9205509575982239"><ele>193.2</ele><time>2026-05-01T10:30:01Z</time></trkpt><trkpt lat="44.558692493064626" lon="0.9207180449456369"><ele>192.0</ele><time>2026-05-01T10:30:03Z</time></trkpt><trkpt lat="44.55865334781386" lon="0.920831110933052"><ele>189.5</ele><time>2026-05-01T10:30:04Z</time></trkpt><trkpt lat="44.55861218469838" lon="0.9209440134281734"><ele>187.0</ele><time>2026-05-01T10:30:05Z</time></trkpt><trkpt lat="44.55869659192549" lon="0.92113498137387"><ele>184.5</ele><time>2026-05-01T10:30:06Z</time></trkpt><trkpt lat="44.5585474208446" lon="0.9211256728098163"><ele>182.0</ele><time>2026-05-01T10:30:07Z</time></trkpt><trkpt lat="44.5585145459918" lon="0.9212018735122577"><ele>182.0</ele><time>2026-05-01T10:30:08Z</time></trkpt><trkpt lat="44.558455300585386" lon="0.9213298733681672"><ele>182.0</ele><time>2026-05-01T10:30:10Z</time></trkpt><trkpt lat="44.55843002985458" lon="0.9214161374805896"><ele>182.0</ele><time>2026-05-01T10:30:12Z</time></trkpt><trkpt lat="44.55838344427776" lon="0.9215024444074138"><ele>182.0</ele><time>2026-05-01T10:30:15Z</time></trkpt><trkpt lat="44.55835592489061" lon="0.9216156007259855"><ele>182.0</ele><time>2026-05-01T10:30:47Z</time></trkpt><trkpt lat="44.55830962777802" lon="0.9216976205703636"><ele>182.0</ele><time>2026-05-01T10:30:50Z</time></trkpt><trkpt lat="44.55825451623586" lon="0.9217573703132272"><ele>182.0</ele><time>2026-05-01T10:31:15Z</time></trkpt><trkpt lat="44.55825379219324" lon="0.9216407991711421"><ele>182.0</ele><time>2026-05-01T10:31:26Z</time></trkpt><trkpt lat="44.558319910146935" lon="0.9215811687802881"><ele>182.0</ele><time>2026-05-01T10:31:27Z</time></trkpt><trkpt lat="44.558388831189255" lon="0.9214647361975818"><ele>182.0</ele><time>2026-05-01T10:31:30Z</time></trkpt><trkpt lat="44.55845706122777" lon="0.9213236185491072"><ele>182.0</ele><time>2026-05-01T10:31:32Z</time></trkpt><trkpt lat="44.558487743902646" lon="0.921231000124806"><ele>182.0</ele><time>2026-05-01T10:31:33Z</time></trkpt><trkpt lat="44.55852904414038" lon="0.9211322013515387"><ele>182.0</ele><time>2026-05-01T10:31:34Z</time></trkpt><trkpt lat="44.55858396572185" lon="0.9210146885026216"><ele>182.0</ele><time>2026-05-01T10:31:35Z</time></trkpt><trkpt lat="44.55865111144096" lon="0.9208410130832306"><ele>182.0</ele><time>2026-05-01T10:31:36Z</time></trkpt><trkpt lat="44.55870710264183" lon="0.9207042665550362"><ele>182.0</ele><time>2026-05-01T10:31:37Z</time></trkpt><trkpt lat="44.55874943868756" lon="0.9206011793223144"><ele>183.16666666666666</ele><time>2026-05-01T10:31:38Z</time></trkpt><trkpt lat="44.55880770207164" lon="0.9204936734666884"><ele>184.33333333333331</ele><time>2026-05-01T10:31:39Z</time></trkpt><trkpt lat="44.558867904252175" lon="0.9204007373657778"><ele>185.5</ele><time>2026-05-01T10:31:40Z</time></trkpt><trkpt lat="44.55891719751089" lon="0.9203174054914398"><ele>186.66666666666666</ele><time>2026-05-01T10:31:41Z</time></trkpt><trkpt lat="44.558939652384055" lon="0.9202198458551321"><ele>187.83333333333334</ele><time>2026-05-01T10:31:42Z</time></trkpt><trkpt lat="44.55893845286925" lon="0.920111643595936"><ele>189.0</ele><time>2026-05-01T10:31:43Z</time></trkpt><trkpt lat="44.5589493904822" lon="0.9200131126395953"><ele>189.0</ele><time>2026-05-01T10:31:44Z</time></trkpt><trkpt lat="44.55896417552801" lon="0.9198956025976208"><ele>189.0</ele><time>2026-05-01T10:31:46Z</time></trkpt><trkpt lat="44.559041237524596" lon="0.9198850969721445"><ele>189.0</ele><time>2026-05-01T10:31:49Z</time></trkpt><trkpt lat="44.559088773727915" lon="0.9197941764016463"><ele>189.0</ele><time>2026-05-01T10:31:51Z</time></trkpt><trkpt lat="44.55915538010766" lon="0.9197681202120266"><ele>189.0</ele><time>2026-05-01T10:31:53Z</time></trkpt><trkpt lat="44.5592134838977" lon="0.9196743278636911"><ele>189.0</ele><time>2026-05-01T10:31:56Z</time></trkpt><trkpt lat="44.5592263499045" lon="0.9195588294586656"><ele>189.0</ele><time>2026-05-01T10:31:57Z</time></trkpt><trkpt lat="44.55926188232114" lon="0.9193934346694262"><ele>189.0</ele><time>2026-05-01T10:31:58Z</time></trkpt><trkpt lat="44.55930393505156" lon="0.9192790654369621"><ele>189.0</ele><time>2026-05-01T10:31:59Z</time></trkpt><trkpt lat="44.55935083113356" lon="0.9191391906185254"><ele>189.0</ele><time>2026-05-01T10:32:01Z</time></trkpt><trkpt lat="44.559395564012405" lon="0.9190595565753223"><ele>189.0</ele><time>2026-05-01T10:32:09Z</time></trkpt><trkpt lat="44.55949129788537" lon="0.918932394984115"><ele>191.66666666666666</ele><time>2026-05-01T10:32:11Z</time></trkpt><trkpt lat="44.55956825173064" lon="0.9188431077573904"><ele>194.33333333333331</ele><time>2026-05-01T10:32:12Z</time></trkpt><trkpt lat="44.559659294503454" lon="0.918757245668331"><ele>197.0</ele><time>2026-05-01T10:32:13Z</time></trkpt><trkpt lat="44.55973852614606" lon="0.9186664569219962"><ele>199.66666666666666</ele><time>2026-05-01T10:32:14Z</time></trkpt><trkpt lat="44.5598086330698" lon="0.9186403684988326"><ele>202.33333333333331</ele><time>2026-05-01T10:32:15Z</time></trkpt><trkpt lat="44.55986749635526" lon="0.9186083642323133"><ele>205.0</ele><time>2026-05-01T10:32:16Z</time></trkpt><trkpt lat="44.55997062106551" lon="0.9185345161713228"><ele>205.0</ele><time>2026-05-01T10:32:18Z</time></trkpt><trkpt lat="44.56003169455661" lon="0.9185061790612867"><ele>205.0</ele><time>2026-05-01T10:32:19Z</time></trkpt><trkpt lat="44.56013482005142" lon="0.9184622354276903"><ele>205.0</ele><time>2026-05-01T10:32:21Z</time></trkpt><trkpt lat="44.560225572957314" lon="0.9184143409904564"><ele>205.0</ele><time>2026-05-01T10:32:23Z</time></trkpt><trkpt lat="44.56031977450429" lon="0.9183456409986733"><ele>205.0</ele><time>2026-05-01T10:32:25Z</time></trkpt><trkpt lat="44.56043199900037" lon="0.9182918003389648"><ele>204.8</ele><time>2026-05-01T10:32:27Z</time></trkpt><trkpt lat="44.5605463617813" lon="0.91823674854899"><ele>204.6</ele><time>2026-05-01T10:32:29Z</time></trkpt><trkpt lat="44.56060779254658" lon="0.9182161245488233"><ele>204.39999999999998</ele><time>2026-05-01T10:32:30Z</time></trkpt><trkpt lat="44.56066623969419" lon="0.9181786102673253"><ele>204.2</ele><time>2026-05-01T10:32:31Z</time></trkpt><trkpt lat="44.56078124880587" lon="0.9181204608000826"><ele>204.0</ele><time>2026-05-01T10:32:33Z</time></trkpt><trkpt lat="44.5608726070572" lon="0.9180763101335658"><ele>204.0</ele><time>2026-05-01T10:32:34Z</time></trkpt><trkpt lat="44.56096348408662" lon="0.9180608824303503"><ele>204.0</ele><time>2026-05-01T10:32:35Z</time></trkpt><trkpt lat="44.561070450836624" lon="0.9180321488872827"><ele>204.0</ele><time>2026-05-01T10:32:36Z</time></trkpt><trkpt lat="44.56119787191421" lon="0.9180024234812878"><ele>204.0</ele><time>2026-05-01T10:32:37Z</time></trkpt><trkpt lat="44.5613239146488" lon="0.9179827377042012"><ele>206.5</ele><time>2026-05-01T10:32:38Z</time></trkpt><trkpt lat="44.561437666613294" lon="0.9179744477728954"><ele>209.0</ele><time>2026-05-01T10:32:39Z</time></trkpt><trkpt lat="44.56155506864263" lon="0.9179795229661702"><ele>211.5</ele><time>2026-05-01T10:32:40Z</time></trkpt><trkpt lat="44.56164802094934" lon="0.9180702829034659"><ele>214.0</ele><time>2026-05-01T10:32:41Z</time></trkpt><trkpt lat="44.56174624537978" lon="0.918152302098431"><ele>214.0</ele><time>2026-05-01T10:32:42Z</time></trkpt><trkpt lat="44.561832399958085" lon="0.91823883288082"><ele>213.99999999999997</ele><time>2026-05-01T10:32:43Z</time></trkpt><trkpt lat="44.56192034132175" lon="0.9183245077832776"><ele>213.99999999999997</ele><time>2026-05-01T10:32:44Z</time></trkpt><trkpt lat="44.56200922210555" lon="0.9183853064940598"><ele>214.0</ele><time>2026-05-01T10:32:45Z</time></trkpt><trkpt lat="44.56210671041955" lon="0.9184123407724021"><ele>214.0</ele><time>2026-05-01T10:32:46Z</time></trkpt><trkpt lat="44.56219854046655" lon="0.9184295353020279"><ele>214.6</ele><time>2026-05-01T10:32:47Z</time></trkpt><trkpt lat="44.562300703353564" lon="0.9183981770360827"><ele>215.2</ele><time>2026-05-01T10:32:48Z</time></trkpt><trkpt lat="44.56238112380765" lon="0.918362595266159"><ele>215.79999999999998</ele><time>2026-05-01T10:32:49Z</time></trkpt><trkpt lat="44.56246324606168" lon="0.9183081125067528"><ele>216.39999999999998</ele><time>2026-05-01T10:32:50Z</time></trkpt><trkpt lat="44.562560302091896" lon="0.9182588020844434"><ele>217.0</ele><time>2026-05-01T10:32:51Z</time></trkpt><trkpt lat="44.56265636064102" lon="0.918208014261041"><ele>217.0</ele><time>2026-05-01T10:32:52Z</time></trkpt><trkpt lat="44.56275277094348" lon="0.9181601387529988"><ele>217.0</ele><time>2026-05-01T10:32:53Z</time></trkpt><trkpt lat="44.56285655943914" lon="0.9181375564780434"><ele>217.0</ele><time>2026-05-01T10:32:54Z</time></trkpt><trkpt lat="44.562969404261196" lon="0.9180939913636729"><ele>217.0</ele><time>2026-05-01T10:32:55Z</time></trkpt><trkpt lat="44.56308165291285" lon="0.9180927677072126"><ele>217.0</ele><time>2026-05-01T10:32:56Z</time></trkpt><trkpt lat="44.56318025221047" lon="0.9181360226375282"><ele>217.33333333333331</ele><time>2026-05-01T10:32:57Z</time></trkpt><trkpt lat="44.56326307157337" lon="0.9181927046315866"><ele>217.66666666666666</ele><time>2026-05-01T10:32:58Z</time></trkpt><trkpt lat="44.56334199139775" lon="0.9182463973304019"><ele>218.0</ele><time>2026-05-01T10:32:59Z</time></trkpt><trkpt lat="44.563417858146096" lon="0.9183064539446084"><ele>218.33333333333331</ele><time>2026-05-01T10:33:00Z</time></trkpt><trkpt lat="44.56348810759576" lon="0.9183661719145207"><ele>218.66666666666666</ele><time>2026-05-01T10:33:01Z</time></trkpt><trkpt lat="44.5635538343226" lon="0.9184223334978494"><ele>219.0</ele><time>2026-05-01T10:33:02Z</time></trkpt><trkpt lat="44.5636291115987" lon="0.9184765357006209"><ele>219.0</ele><time>2026-05-01T10:33:03Z</time></trkpt><trkpt lat="44.56370248862668" lon="0.918538153239889"><ele>218.99999999999997</ele><time>2026-05-01T10:33:04Z</time></trkpt><trkpt lat="44.5637816346146" lon="0.9186108421811165"><ele>218.99999999999997</ele><time>2026-05-01T10:33:05Z</time></trkpt><trkpt lat="44.56386536293846" lon="0.9186962134395738"><ele>219.0</ele><time>2026-05-01T10:33:06Z</time></trkpt><trkpt lat="44.563945688926744" lon="0.9187652350447102"><ele>219.0</ele><time>2026-05-01T10:33:07Z</time></trkpt><trkpt lat="44.5640198803956" lon="0.9188127641083396"><ele>219.0</ele><time>2026-05-01T10:33:08Z</time></trkpt><trkpt lat="44.564088960507455" lon="0.9188368323054399"><ele>219.0</ele><time>2026-05-01T10:33:09Z</time></trkpt><trkpt lat="44.56419228135608" lon="0.9188478967463867"><ele>219.0</ele><time>2026-05-01T10:33:11Z</time></trkpt><trkpt lat="44.56426756620604" lon="0.9188435368383908"><ele>219.0</ele><time>2026-05-01T10:33:14Z</time></trkpt><trkpt lat="44.564340580066066" lon="0.9188279611732318"><ele>219.0</ele><time>2026-05-01T10:33:18Z</time></trkpt><trkpt lat="44.5644092364977" lon="0.9188020315620143"><ele>219.0</ele><time>2026-05-01T10:33:21Z</time></trkpt><trkpt lat="44.56446884384835" lon="0.9187560779770139"><ele>219.0</ele><time>2026-05-01T10:33:24Z</time></trkpt><trkpt lat="44.56453744156392" lon="0.9186990524342273"><ele>219.0</ele><time>2026-05-01T10:33:26Z</time></trkpt><trkpt lat="44.56462634767366" lon="0.9186292378394578"><ele>219.0</ele><time>2026-05-01T10:33:28Z</time></trkpt><trkpt lat="44.564682562626714" lon="0.9185767798542043"><ele>219.0</ele><time>2026-05-01T10:33:29Z</time></trkpt><trkpt lat="44.56473370387639" lon="0.9185071801338973"><ele>219.0</ele><time>2026-05-01T10:33:30Z</time></trkpt><trkpt lat="44.56479524051998" lon="0.9184395746809407"><ele>219.0</ele><time>2026-05-01T10:33:31Z</time></trkpt><trkpt lat="44.56486018035031" lon="0.9183689026007968"><ele>220.2</ele><time>2026-05-01T10:33:32Z</time></trkpt><trkpt lat="44.56492830822507" lon="0.9182977077882205"><ele>221.39999999999998</ele><time>2026-05-01T10:33:33Z</time></trkpt><trkpt lat="44.56500840728606" lon="0.9182247634410068"><ele>222.6</ele><time>2026-05-01T10:33:34Z</time></trkpt><trkpt lat="44.56507841224576" lon="0.9181389314840128"><ele>223.8</ele><time>2026-05-01T10:33:35Z</time></trkpt><trkpt lat="44.565151081018534" lon="0.9180456829593678"><ele>225.0</ele><time>2026-05-01T10:33:36Z</time></trkpt><trkpt lat="44.56522581659257" lon="0.9179542811386933"><ele>225.0</ele><time>2026-05-01T10:33:37Z</time></trkpt><trkpt lat="44.565297762442945" lon="0.917849517361324"><ele>225.0</ele><time>2026-05-01T10:33:38Z</time></trkpt><trkpt lat="44.565368540214614" lon="0.9177319495487346"><ele>225.0</ele><time>2026-05-01T10:33:39Z</time></trkpt><trkpt lat="44.56543202308866" lon="0.9176057859628466"><ele>225.0</ele><time>2026-05-01T10:33:40Z</time></trkpt><trkpt lat="44.565489929557835" lon="0.9174687170756493"><ele>225.0</ele><time>2026-05-01T10:33:41Z</time></trkpt><trkpt lat="44.56554266568312" lon="0.9173281842840405"><ele>225.0</ele><time>2026-05-01T10:33:42Z</time></trkpt><trkpt lat="44.56559431089438" lon="0.9171869151209774"><ele>225.0</ele><time>2026-05-01T10:33:43Z</time></trkpt><trkpt lat="44.565663042350444" lon="0.9170657589436869"><ele>225.0</ele><time>2026-05-01T10:33:44Z</time></trkpt><trkpt lat="44.56572464659206" lon="0.9169450747925857"><ele>225.0</ele><time>2026-05-01T10:33:45Z</time></trkpt><trkpt lat="44.5657904152407" lon="0.9168365619025574"><ele>225.0</ele><time>2026-05-01T10:33:46Z</time></trkpt><trkpt lat="44.56588800694963" lon="0.9167986705262618"><ele>225.0</ele><time>2026-05-01T10:33:47Z</time></trkpt><trkpt lat="44.565986603629035" lon="0.9167543846125953"><ele>225.0</ele><time>2026-05-01T10:33:48Z</time></trkpt><trkpt lat="44.566081103374714" lon="0.9166954082442333"><ele>225.0</ele><time>2026-05-01T10:33:49Z</time></trkpt><trkpt lat="44.56617697469887" lon="0.9166463128091565"><ele>225.0</ele><time>2026-05-01T10:33:50Z</time></trkpt><trkpt lat="44.566273005546996" lon="0.9165946802387704"><ele>225.0</ele><time>2026-05-01T10:33:51Z</time></trkpt><trkpt lat="44.56636944692726" lon="0.9165438424044609"><ele>226.0</ele><time>2026-05-01T10:33:52Z</time></trkpt><trkpt lat="44.56645647598535" lon="0.9164711866935876"><ele>227.0</ele><time>2026-05-01T10:33:53Z</time></trkpt><trkpt lat="44.566556590237816" lon="0.9164166954664917"><ele>228.0</ele><time>2026-05-01T10:33:54Z</time></trkpt><trkpt lat="44.56665187724116" lon="0.9163396426203646"><ele>229.0</ele><time>2026-05-01T10:33:55Z</time></trkpt><trkpt lat="44.56675139160352" lon="0.9162659132003759"><ele>230.0</ele><time>2026-05-01T10:33:56Z</time></trkpt><trkpt lat="44.566850021651675" lon="0.9161902133569891"><ele>230.0</ele><time>2026-05-01T10:33:57Z</time></trkpt><trkpt lat="44.56695335036332" lon="0.9161137913115702"><ele>230.0</ele><time>2026-05-01T10:33:58Z</time></trkpt><trkpt lat="44.56705241653226" lon="0.9160249578220129"><ele>230.0</ele><time>2026-05-01T10:33:59Z</time></trkpt><trkpt lat="44.56715018609804" lon="0.9159322642463564"><ele>230.0</ele><time>2026-05-01T10:34:00Z</time></trkpt><trkpt lat="44.56723708934941" lon="0.9158362577972317"><ele>230.8</ele><time>2026-05-01T10:34:01Z</time></trkpt><trkpt lat="44.567324325089" lon="0.9157327811227582"><ele>231.6</ele><time>2026-05-01T10:34:02Z</time></trkpt><trkpt lat="44.567406761413935" lon="0.915627344370133"><ele>232.39999999999998</ele><time>2026-05-01T10:34:03Z</time></trkpt><trkpt lat="44.5674945945773" lon="0.9155313348260096"><ele>233.2</ele><time>2026-05-01T10:34:04Z</time></trkpt><trkpt lat="44.567572291450325" lon="0.9154299088851087"><ele>234.0</ele><time>2026-05-01T10:34:05Z</time></trkpt><trkpt lat="44.56766216171074" lon="0.9153278094864599"><ele>234.0</ele><time>2026-05-01T10:34:06Z</time></trkpt><trkpt lat="44.567738099242035" lon="0.9151925160246202"><ele>234.0</ele><time>2026-05-01T10:34:07Z</time></trkpt><trkpt lat="44.56781491526203" lon="0.9150787322982306"><ele>234.0</ele><time>2026-05-01T10:34:08Z</time></trkpt><trkpt lat="44.5678869661547" lon="0.9149516874558099"><ele>234.0</ele><time>2026-05-01T10:34:09Z</time></trkpt><trkpt lat="44.56795590281859" lon="0.9148157212718497"><ele>234.39999999999998</ele><time>2026-05-01T10:34:10Z</time></trkpt><trkpt lat="44.56801450307108" lon="0.9146730918691182"><ele>234.79999999999998</ele><time>2026-05-01T10:34:11Z</time></trkpt><trkpt lat="44.56806544738743" lon="0.9145378561968909"><ele>235.20000000000002</ele><time>2026-05-01T10:34:12Z</time></trkpt><trkpt lat="44.56810670565487" lon="0.9144157418204635"><ele>235.60000000000002</ele><time>2026-05-01T10:34:13Z</time></trkpt><trkpt lat="44.568153196882086" lon="0.9143122071794941"><ele>236.0</ele><time>2026-05-01T10:34:14Z</time></trkpt><trkpt lat="44.56819357347052" lon="0.9142107460794445"><ele>236.0</ele><time>2026-05-01T10:34:15Z</time></trkpt><trkpt lat="44.56823268026268" lon="0.91411143922094"><ele>236.00000000000003</ele><time>2026-05-01T10:34:16Z</time></trkpt><trkpt lat="44.56827567761647" lon="0.9139970581162863"><ele>236.00000000000003</ele><time>2026-05-01T10:34:17Z</time></trkpt><trkpt lat="44.568318480977545" lon="0.9138735074939286"><ele>236.0</ele><time>2026-05-01T10:34:18Z</time></trkpt><trkpt lat="44.568371886151176" lon="0.9137458711068108"><ele>236.0</ele><time>2026-05-01T10:34:19Z</time></trkpt><trkpt lat="44.56842621408401" lon="0.9136086273723947"><ele>236.0</ele><time>2026-05-01T10:34:20Z</time></trkpt><trkpt lat="44.56847056331312" lon="0.9134780710267315"><ele>236.00000000000003</ele><time>2026-05-01T10:34:21Z</time></trkpt><trkpt lat="44.568511607958634" lon="0.9133585753220428"><ele>236.00000000000003</ele><time>2026-05-01T10:34:22Z</time></trkpt><trkpt lat="44.56854394558118" lon="0.913243769150216"><ele>236.0</ele><time>2026-05-01T10:34:23Z</time></trkpt><trkpt lat="44.56857810485653" lon="0.9131328867020531"><ele>236.0</ele><time>2026-05-01T10:34:24Z</time></trkpt><trkpt lat="44.568621553796284" lon="0.9130214390425663"><ele>236.20000000000002</ele><time>2026-05-01T10:34:25Z</time></trkpt><trkpt lat="44.568665704286936" lon="0.9129076867069941"><ele>236.40000000000003</ele><time>2026-05-01T10:34:26Z</time></trkpt><trkpt lat="44.56872311032841" lon="0.9127933526132472"><ele>236.6</ele><time>2026-05-01T10:34:27Z</time></trkpt><trkpt lat="44.568789274611404" lon="0.9126824688525279"><ele>236.8</ele><time>2026-05-01T10:34:28Z</time></trkpt><trkpt lat="44.56885553510387" lon="0.9125741823835319"><ele>237.0</ele><time>2026-05-01T10:34:29Z</time></trkpt><trkpt lat="44.568916459719155" lon="0.9124688379582357"><ele>236.0</ele><time>2026-05-01T10:34:30Z</time></trkpt><trkpt lat="44.56897205069843" lon="0.9123599880884863"><ele>235.0</ele><time>2026-05-01T10:34:31Z</time></trkpt><trkpt lat="44.5690353790164" lon="0.9122609869172862"><ele>234.0</ele><time>2026-05-01T10:34:32Z</time></trkpt><trkpt lat="44.56908479082724" lon="0.9121582218073754"><ele>233.0</ele><time>2026-05-01T10:34:33Z</time></trkpt><trkpt lat="44.569126048516985" lon="0.912056314079604"><ele>232.0</ele><time>2026-05-01T10:34:34Z</time></trkpt><trkpt lat="44.56916718449275" lon="0.9119694239989935"><ele>231.0</ele><time>2026-05-01T10:34:35Z</time></trkpt><trkpt lat="44.56921227271933" lon="0.9118819560643092"><ele>231.0</ele><time>2026-05-01T10:34:36Z</time></trkpt><trkpt lat="44.56926029158187" lon="0.9117896087464858"><ele>231.0</ele><time>2026-05-01T10:34:37Z</time></trkpt><trkpt lat="44.56930062206999" lon="0.9116860198648968"><ele>231.0</ele><time>2026-05-01T10:34:38Z</time></trkpt><trkpt lat="44.569344043108245" lon="0.9115842936242227"><ele>231.0</ele><time>2026-05-01T10:34:39Z</time></trkpt><trkpt lat="44.56937783763568" lon="0.9114721670393737"><ele>231.0</ele><time>2026-05-01T10:34:40Z</time></trkpt><trkpt lat="44.5694089683777" lon="0.9113644227906178"><ele>231.0</ele><time>2026-05-01T10:34:41Z</time></trkpt><trkpt lat="44.56944144991474" lon="0.9112549166273809"><ele>230.20000000000002</ele><time>2026-05-01T10:34:42Z</time></trkpt><trkpt lat="44.569478631126984" lon="0.911146170835852"><ele>229.40000000000003</ele><time>2026-05-01T10:34:43Z</time></trkpt><trkpt lat="44.56951423424476" lon="0.9110206665482371"><ele>228.6</ele><time>2026-05-01T10:34:44Z</time></trkpt><trkpt lat="44.56955470191323" lon="0.9108912152803256"><ele>227.8</ele><time>2026-05-01T10:34:45Z</time></trkpt><trkpt lat="44.56959224903352" lon="0.9107573722382976"><ele>227.0</ele><time>2026-05-01T10:34:46Z</time></trkpt><trkpt lat="44.569631591457195" lon="0.9106417119530057"><ele>226.83333333333334</ele><time>2026-05-01T10:34:47Z</time></trkpt><trkpt lat="44.569668152999135" lon="0.9105362014840744"><ele>226.66666666666669</ele><time>2026-05-01T10:34:48Z</time></trkpt><trkpt lat="44.56970981909384" lon="0.9104361335790812"><ele>226.5</ele><time>2026-05-01T10:34:49Z</time></trkpt><trkpt lat="44.5697334387966" lon="0.9103277419117943"><ele>226.33333333333331</ele><time>2026-05-01T10:34:50Z</time></trkpt><trkpt lat="44.56975112447816" lon="0.9102305239310838"><ele>226.16666666666666</ele><time>2026-05-01T10:34:51Z</time></trkpt><trkpt lat="44.56976357975316" lon="0.9101338242393657"><ele>226.0</ele><time>2026-05-01T10:34:52Z</time></trkpt><trkpt lat="44.56977294853009" lon="0.9100433716432345"><ele>225.83333333333331</ele><time>2026-05-01T10:34:53Z</time></trkpt><trkpt lat="44.569786539870044" lon="0.9099440573878051"><ele>225.66666666666666</ele><time>2026-05-01T10:34:54Z</time></trkpt><trkpt lat="44.569801782729336" lon="0.9098359135094537"><ele>225.5</ele><time>2026-05-01T10:34:55Z</time></trkpt><trkpt lat="44.56980509948524" lon="0.9097159368189116"><ele>225.33333333333331</ele><time>2026-05-01T10:34:56Z</time></trkpt><trkpt lat="44.56980370234083" lon="0.9095901434303846"><ele>225.16666666666666</ele><time>2026-05-01T10:34:57Z</time></trkpt><trkpt lat="44.56981135913017" lon="0.9094786307776045"><ele>225.0</ele><time>2026-05-01T10:34:58Z</time></trkpt><trkpt lat="44.56982021419296" lon="0.9093879668686143"><ele>225.0</ele><time>2026-05-01T10:34:59Z</time></trkpt><trkpt lat="44.56985170652415" lon="0.909257703082308"><ele>225.0</ele><time>2026-05-01T10:35:01Z</time></trkpt><trkpt lat="44.56988590806604" lon="0.9091455585860851"><ele>225.0</ele><time>2026-05-01T10:35:05Z</time></trkpt><trkpt lat="44.569926141926125" lon="0.9090346466226603"><ele>225.0</ele><time>2026-05-01T10:35:08Z</time></trkpt><trkpt lat="44.569972420499695" lon="0.9089660613480693"><ele>225.0</ele><time>2026-05-01T10:35:10Z</time></trkpt><trkpt lat="44.57005478113992" lon="0.9088701029887688"><ele>225.0</ele><time>2026-05-01T10:35:14Z</time></trkpt><trkpt lat="44.57019071324321" lon="0.9088428858147096"><ele>225.5</ele><time>2026-05-01T10:35:16Z</time></trkpt><trkpt lat="44.57027513796279" lon="0.9087360069260357"><ele>226.0</ele><time>2026-05-01T10:35:17Z</time></trkpt><trkpt lat="44.570373545645516" lon="0.908645430932316"><ele>226.5</ele><time>2026-05-01T10:35:18Z</time></trkpt><trkpt lat="44.57047324023616" lon="0.9085362800270963"><ele>227.0</ele><time>2026-05-01T10:35:19Z</time></trkpt><trkpt lat="44.57058345656761" lon="0.9084137952767403"><ele>227.75</ele><time>2026-05-01T10:35:20Z</time></trkpt><trkpt lat="44.57067936947769" lon="0.908283339185307"><ele>228.5</ele><time>2026-05-01T10:35:21Z</time></trkpt><trkpt lat="44.57075695223476" lon="0.908148417513081"><ele>229.25</ele><time>2026-05-01T10:35:22Z</time></trkpt><trkpt lat="44.57082808091755" lon="0.9080269298987016"><ele>230.0</ele><time>2026-05-01T10:35:23Z</time></trkpt><trkpt lat="44.57089175245035" lon="0.9079106451980318"><ele>230.0</ele><time>2026-05-01T10:35:24Z</time></trkpt><trkpt lat="44.57094604235218" lon="0.907811825028483"><ele>230.0</ele><time>2026-05-01T10:35:25Z</time></trkpt><trkpt lat="44.57099402606974" lon="0.9077439314009849"><ele>230.0</ele><time>2026-05-01T10:35:26Z</time></trkpt><trkpt lat="44.57103232831021" lon="0.9076558260057724"><ele>230.0</ele><time>2026-05-01T10:35:28Z</time></trkpt><trkpt lat="44.571095960091476" lon="0.9076019494107253"><ele>230.0</ele><time>2026-05-01T10:35:35Z</time></trkpt><trkpt lat="44.57105143842863" lon="0.9073680675895486"><ele>230.0</ele><time>2026-05-01T10:35:36Z</time></trkpt><trkpt lat="44.571097335025" lon="0.907239524714503"><ele>230.0</ele><time>2026-05-01T10:35:37Z</time></trkpt><trkpt lat="44.571142959603925" lon="0.9070655153878793"><ele>230.0</ele><time>2026-05-01T10:35:38Z</time></trkpt><trkpt lat="44.571208754306895" lon="0.9068661457290171"><ele>230.0</ele><time>2026-05-01T10:35:39Z</time></trkpt><trkpt lat="44.57127829143815" lon="0.9066741878360347"><ele>230.0</ele><time>2026-05-01T10:35:40Z</time></trkpt><trkpt lat="44.571342506899356" lon="0.9064959445643981"><ele>230.0</ele><time>2026-05-01T10:35:41Z</time></trkpt><trkpt lat="44.5714087902613" lon="0.9063435606490046"><ele>230.0</ele><time>2026-05-01T10:35:42Z</time></trkpt><trkpt lat="44.57146861750011" lon="0.9061903964565056"><ele>230.0</ele><time>2026-05-01T10:35:43Z</time></trkpt><trkpt lat="44.57152028900157" lon="0.9060264807483217"><ele>230.0</ele><time>2026-05-01T10:35:44Z</time></trkpt><trkpt lat="44.5715750506765" lon="0.9058592435998987"><ele>230.0</ele><time>2026-05-01T10:35:45Z</time></trkpt><trkpt lat="44.57163555470777" lon="0.9057015796144168"><ele>230.0</ele><time>2026-05-01T10:35:46Z</time></trkpt><trkpt lat="44.571716161167956" lon="0.9055568902138883"><ele>230.0</ele><time>2026-05-01T10:35:47Z</time></trkpt><trkpt lat="44.57177356607637" lon="0.9054059130054418"><ele>230.0</ele><time>2026-05-01T10:35:48Z</time></trkpt><trkpt lat="44.571839948891366" lon="0.9052915980450471"><ele>230.0</ele><time>2026-05-01T10:35:49Z</time></trkpt><trkpt lat="44.571903079476996" lon="0.9051860450556649"><ele>230.0</ele><time>2026-05-01T10:35:50Z</time></trkpt><trkpt lat="44.571950944117035" lon="0.9050773351070952"><ele>230.0</ele><time>2026-05-01T10:35:51Z</time></trkpt><trkpt lat="44.572003789843485" lon="0.9050167515576882"><ele>230.0</ele><time>2026-05-01T10:35:52Z</time></trkpt><trkpt lat="44.57191689898026" lon="0.9048675686801662"><ele>229.5</ele><time>2026-05-01T10:35:53Z</time></trkpt><trkpt lat="44.57188767442639" lon="0.9047305956305555"><ele>229.0</ele><time>2026-05-01T10:35:54Z</time></trkpt><trkpt lat="44.57184050578288" lon="0.9045874322965354"><ele>228.5</ele><time>2026-05-01T10:35:55Z</time></trkpt><trkpt lat="44.57176879543157" lon="0.9044447673448203"><ele>228.0</ele><time>2026-05-01T10:35:56Z</time></trkpt><trkpt lat="44.57171657962727" lon="0.9042748166019141"><ele>227.75</ele><time>2026-05-01T10:35:57Z</time></trkpt><trkpt lat="44.57166287643543" lon="0.9040881552109841"><ele>227.5</ele><time>2026-05-01T10:35:58Z</time></trkpt><trkpt lat="44.5716092270108" lon="0.9038882324058983"><ele>227.25</ele><time>2026-05-01T10:35:59Z</time></trkpt><trkpt lat="44.57155384963611" lon="0.903689789302799"><ele>227.0</ele><time>2026-05-01T10:36:00Z</time></trkpt><trkpt lat="44.57148844558682" lon="0.90348118219708"><ele>227.0</ele><time>2026-05-01T10:36:01Z</time></trkpt><trkpt lat="44.57143301926005" lon="0.9032897926106505"><ele>227.0</ele><time>2026-05-01T10:36:02Z</time></trkpt><trkpt lat="44.57138975641228" lon="0.9031293397064413"><ele>227.0</ele><time>2026-05-01T10:36:03Z</time></trkpt><trkpt lat="44.57133851000879" lon="0.9029766025872278"><ele>227.0</ele><time>2026-05-01T10:36:04Z</time></trkpt><trkpt lat="44.5713150011978" lon="0.9028018683130021"><ele>227.0</ele><time>2026-05-01T10:36:05Z</time></trkpt><trkpt lat="44.57127486524819" lon="0.9026456696982889"><ele>227.0</ele><time>2026-05-01T10:36:06Z</time></trkpt><trkpt lat="44.57124203914058" lon="0.9024912422391348"><ele>227.0</ele><time>2026-05-01T10:36:07Z</time></trkpt><trkpt lat="44.57120356996778" lon="0.9023390501401032"><ele>227.0</ele><time>2026-05-01T10:36:08Z</time></trkpt><trkpt lat="44.57115822021697" lon="0.9022105899207918"><ele>227.25</ele><time>2026-05-01T10:36:09Z</time></trkpt><trkpt lat="44.57109321590245" lon="0.9020640678071035"><ele>227.5</ele><time>2026-05-01T10:36:10Z</time></trkpt><trkpt lat="44.57100945783729" lon="0.901934150468429"><ele>227.75</ele><time>2026-05-01T10:36:11Z</time></trkpt><trkpt lat="44.57094043216249" lon="0.901781635536303"><ele>228.0</ele><time>2026-05-01T10:36:12Z</time></trkpt><trkpt lat="44.57086523630352" lon="0.9016556368659252"><ele>227.25</ele><time>2026-05-01T10:36:13Z</time></trkpt><trkpt lat="44.57079658365432" lon="0.9015068336272315"><ele>226.5</ele><time>2026-05-01T10:36:14Z</time></trkpt><trkpt lat="44.570762506218635" lon="0.9013520234369443"><ele>225.75</ele><time>2026-05-01T10:36:15Z</time></trkpt><trkpt lat="44.570703536684995" lon="0.901203371794856"><ele>225.0</ele><time>2026-05-01T10:36:16Z</time></trkpt><trkpt lat="44.570651911541376" lon="0.901058140303451"><ele>225.0</ele><time>2026-05-01T10:36:17Z</time></trkpt><trkpt lat="44.57060469114194" lon="0.9009228187060806"><ele>225.0</ele><time>2026-05-01T10:36:18Z</time></trkpt><trkpt lat="44.570574498853276" lon="0.900801564461863"><ele>225.0</ele><time>2026-05-01T10:36:19Z</time></trkpt><trkpt lat="44.57050479360607" lon="0.9007378159417263"><ele>225.0</ele><time>2026-05-01T10:36:21Z</time></trkpt><trkpt lat="44.57043341967361" lon="0.9007846540905049"><ele>225.0</ele><time>2026-05-01T10:36:23Z</time></trkpt><trkpt lat="44.570381527102846" lon="0.9009498502932572"><ele>224.6</ele><time>2026-05-01T10:36:25Z</time></trkpt><trkpt lat="44.570314039154255" lon="0.9010457439152895"><ele>224.2</ele><time>2026-05-01T10:36:26Z</time></trkpt><trkpt lat="44.57022963657471" lon="0.9011660469782985"><ele>223.8</ele><time>2026-05-01T10:36:27Z</time></trkpt><trkpt lat="44.57013962639398" lon="0.9012941668076004"><ele>223.4</ele><time>2026-05-01T10:36:28Z</time></trkpt><trkpt lat="44.57006579082359" lon="0.9013961585814146"><ele>223.0</ele><time>2026-05-01T10:36:29Z</time></trkpt><trkpt lat="44.56999874603221" lon="0.9014870595848994"><ele>223.0</ele><time>2026-05-01T10:36:30Z</time></trkpt><trkpt lat="44.56992255020605" lon="0.9015348165737972"><ele>223.0</ele><time>2026-05-01T10:36:31Z</time></trkpt><trkpt lat="44.56984547542235" lon="0.9015261922818659"><ele>223.0</ele><time>2026-05-01T10:36:32Z</time></trkpt><trkpt lat="44.56976282852794" lon="0.9015121912489226"><ele>223.0</ele><time>2026-05-01T10:36:33Z</time></trkpt><trkpt lat="44.56977027303625" lon="0.9014051695507801"><ele>223.0</ele><time>2026-05-01T10:36:43Z</time></trkpt><trkpt lat="44.56965748319956" lon="0.901265377012147"><ele>223.0</ele><time>2026-05-01T10:36:45Z</time></trkpt><trkpt lat="44.56958119602772" lon="0.901169382793034"><ele>223.0</ele><time>2026-05-01T10:36:46Z</time></trkpt><trkpt lat="44.56950261486142" lon="0.9010736393637304"><ele>223.0</ele><time>2026-05-01T10:36:47Z</time></trkpt><trkpt lat="44.56941660450752" lon="0.9009914199538471"><ele>223.0</ele><time>2026-05-01T10:36:48Z</time></trkpt><trkpt lat="44.56932521142642" lon="0.9009072777080791"><ele>223.0</ele><time>2026-05-01T10:36:49Z</time></trkpt><trkpt lat="44.56926590352389" lon="0.9008358715918052"><ele>222.0</ele><time>2026-05-01T10:36:50Z</time></trkpt><trkpt lat="44.56920130606251" lon="0.9007830784623623"><ele>221.0</ele><time>2026-05-01T10:36:51Z</time></trkpt><trkpt lat="44.569120070823786" lon="0.9007679240960768"><ele>220.0</ele><time>2026-05-01T10:36:52Z</time></trkpt><trkpt lat="44.56902185932719" lon="0.900800442180013"><ele>219.0</ele><time>2026-05-01T10:36:53Z</time></trkpt><trkpt lat="44.56890459750341" lon="0.9008295814905124"><ele>218.0</ele><time>2026-05-01T10:36:54Z</time></trkpt><trkpt lat="44.568817687613546" lon="0.9008722020438419"><ele>218.00000000000003</ele><time>2026-05-01T10:36:55Z</time></trkpt><trkpt lat="44.568742472750515" lon="0.9009106511800314"><ele>218.0</ele><time>2026-05-01T10:36:56Z</time></trkpt><trkpt lat="44.568679192752846" lon="0.9009675921274304"><ele>218.0</ele><time>2026-05-01T10:36:57Z</time></trkpt><trkpt lat="44.56861398944538" lon="0.9010252886466097"><ele>218.0</ele><time>2026-05-01T10:36:58Z</time></trkpt><trkpt lat="44.56857092562626" lon="0.901121437948392"><ele>218.00000000000003</ele><time>2026-05-01T10:36:59Z</time></trkpt><trkpt lat="44.5685384223167" lon="0.9012367960708073"><ele>218.0</ele><time>2026-05-01T10:37:00Z</time></trkpt><trkpt lat="44.56850823223537" lon="0.9013339517246759"><ele>217.8</ele><time>2026-05-01T10:37:01Z</time></trkpt><trkpt lat="44.5684425921579" lon="0.9013744185018879"><ele>217.60000000000002</ele><time>2026-05-01T10:37:03Z</time></trkpt><trkpt lat="44.56836258788884" lon="0.9012870928268303"><ele>217.39999999999998</ele><time>2026-05-01T10:37:05Z</time></trkpt><trkpt lat="44.56828315123524" lon="0.9012303743706713"><ele>217.2</ele><time>2026-05-01T10:37:06Z</time></trkpt><trkpt lat="44.56816040561958" lon="0.9011739628921999"><ele>217.0</ele><time>2026-05-01T10:37:07Z</time></trkpt><trkpt lat="44.56802874075115" lon="0.9011103481825816"><ele>217.0</ele><time>2026-05-01T10:37:08Z</time></trkpt><trkpt lat="44.567893432726684" lon="0.9010318716593522"><ele>217.0</ele><time>2026-05-01T10:37:09Z</time></trkpt><trkpt lat="44.5677719327289" lon="0.9009247166518111"><ele>217.0</ele><time>2026-05-01T10:37:10Z</time></trkpt><trkpt lat="44.56766017370221" lon="0.9008101326684379"><ele>217.0</ele><time>2026-05-01T10:37:11Z</time></trkpt><trkpt lat="44.56754043644517" lon="0.9006930218565363"><ele>216.39999999999998</ele><time>2026-05-01T10:37:12Z</time></trkpt><trkpt lat="44.56745588847424" lon="0.9006397876106866"><ele>215.79999999999998</ele><time>2026-05-01T10:37:13Z</time></trkpt><trkpt lat="44.567325184846084" lon="0.9006550386244648"><ele>215.2</ele><time>2026-05-01T10:37:15Z</time></trkpt><trkpt lat="44.56726330583613" lon="0.9007110808137923"><ele>214.6</ele><time>2026-05-01T10:37:16Z</time></trkpt><trkpt lat="44.56722042714415" lon="0.9007910206056668"><ele>214.0</ele><time>2026-05-01T10:37:17Z</time></trkpt><trkpt lat="44.567101061833505" lon="0.9008240606335151"><ele>212.6</ele><time>2026-05-01T10:37:19Z</time></trkpt><trkpt lat="44.567010659660454" lon="0.9007994800060437"><ele>211.2</ele><time>2026-05-01T10:37:20Z</time></trkpt><trkpt lat="44.56691425606767" lon="0.9007526679480558"><ele>209.79999999999998</ele><time>2026-05-01T10:37:21Z</time></trkpt><trkpt lat="44.56680880449677" lon="0.9006818497630871"><ele>208.39999999999998</ele><time>2026-05-01T10:37:22Z</time></trkpt><trkpt lat="44.566734876286986" lon="0.9006291844951356"><ele>207.0</ele><time>2026-05-01T10:37:23Z</time></trkpt><trkpt lat="44.566668592190325" lon="0.9006264818171573"><ele>207.0</ele><time>2026-05-01T10:37:24Z</time></trkpt><trkpt lat="44.56656190116831" lon="0.9006652799208084"><ele>207.0</ele><time>2026-05-01T10:37:25Z</time></trkpt><trkpt lat="44.56645127975875" lon="0.9006880079423027"><ele>207.0</ele><time>2026-05-01T10:37:26Z</time></trkpt><trkpt lat="44.56636470854338" lon="0.9006675537172365"><ele>207.0</ele><time>2026-05-01T10:37:27Z</time></trkpt><trkpt lat="44.56627924052101" lon="0.9006090596480218"><ele>207.0</ele><time>2026-05-01T10:37:28Z</time></trkpt><trkpt lat="44.56619259597992" lon="0.9005248814640321"><ele>207.0</ele><time>2026-05-01T10:37:29Z</time></trkpt><trkpt lat="44.566115489597905" lon="0.9004349401446795"><ele>207.0</ele><time>2026-05-01T10:37:30Z</time></trkpt><trkpt lat="44.566052864613354" lon="0.9003582484628563"><ele>207.0</ele><time>2026-05-01T10:37:31Z</time></trkpt><trkpt lat="44.565995907701605" lon="0.9002626656172614"><ele>207.0</ele><time>2026-05-01T10:37:32Z</time></trkpt><trkpt lat="44.565922148205125" lon="0.9002038978522596"><ele>207.0</ele><time>2026-05-01T10:37:33Z</time></trkpt><trkpt lat="44.56582758810521" lon="0.9001565383915368"><ele>207.0</ele><time>2026-05-01T10:37:34Z</time></trkpt><trkpt lat="44.56573411248033" lon="0.9000915794884269"><ele>207.0</ele><time>2026-05-01T10:37:35Z</time></trkpt><trkpt lat="44.56564344953926" lon="0.899985852069121"><ele>207.0</ele><time>2026-05-01T10:37:36Z</time></trkpt><trkpt lat="44.565546811730385" lon="0.8998672532633463"><ele>207.0</ele><time>2026-05-01T10:37:37Z</time></trkpt><trkpt lat="44.56546458611047" lon="0.8997402623721916"><ele>207.0</ele><time>2026-05-01T10:37:38Z</time></trkpt><trkpt lat="44.565398790818236" lon="0.899571384219707"><ele>207.0</ele><time>2026-05-01T10:37:39Z</time></trkpt><trkpt lat="44.56533664422188" lon="0.899426427908795"><ele>207.0</ele><time>2026-05-01T10:37:40Z</time></trkpt><trkpt lat="44.56524881689013" lon="0.8992769698930084"><ele>207.0</ele><time>2026-05-01T10:37:41Z</time></trkpt><trkpt lat="44.565186648886986" lon="0.8991473995260497"><ele>206.39999999999998</ele><time>2026-05-01T10:37:42Z</time></trkpt><trkpt lat="44.5651207063135" lon="0.8990104521904464"><ele>205.79999999999998</ele><time>2026-05-01T10:37:43Z</time></trkpt><trkpt lat="44.56508107909096" lon="0.8988677847204488"><ele>205.2</ele><time>2026-05-01T10:37:44Z</time></trkpt><trkpt lat="44.565050109439355" lon="0.8987577046157467"><ele>204.6</ele><time>2026-05-01T10:37:45Z</time></trkpt><trkpt lat="44.56501984385433" lon="0.8986592270988681"><ele>204.0</ele><time>2026-05-01T10:37:46Z</time></trkpt><trkpt lat="44.564995055455825" lon="0.8985178721485758"><ele>204.0</ele><time>2026-05-01T10:37:48Z</time></trkpt><trkpt lat="44.56501814898981" lon="0.8984318900649062"><ele>204.0</ele><time>2026-05-01T10:37:49Z</time></trkpt><trkpt lat="44.5650707037246" lon="0.8983089130676577"><ele>204.0</ele><time>2026-05-01T10:37:50Z</time></trkpt><trkpt lat="44.56508472383528" lon="0.8981916440954031"><ele>204.0</ele><time>2026-05-01T10:37:51Z</time></trkpt><trkpt lat="44.565051817358" lon="0.89808903588128"><ele>204.0</ele><time>2026-05-01T10:37:52Z</time></trkpt><trkpt lat="44.565047567670405" lon="0.8979807136706534"><ele>204.0</ele><time>2026-05-01T10:37:53Z</time></trkpt><trkpt lat="44.56509380669669" lon="0.8978629581580235"><ele>204.33333333333334</ele><time>2026-05-01T10:37:54Z</time></trkpt><trkpt lat="44.56512717286737" lon="0.8977590386086542"><ele>204.66666666666669</ele><time>2026-05-01T10:37:55Z</time></trkpt><trkpt lat="44.565140631909024" lon="0.8976356194547931"><ele>205.0</ele><time>2026-05-01T10:37:56Z</time></trkpt><trkpt lat="44.565122278756604" lon="0.8975213428296174"><ele>205.33333333333334</ele><time>2026-05-01T10:37:57Z</time></trkpt><trkpt lat="44.56510238979108" lon="0.8974012021359288"><ele>205.66666666666669</ele><time>2026-05-01T10:37:58Z</time></trkpt><trkpt lat="44.56512827556071" lon="0.8973124616011909"><ele>206.0</ele><time>2026-05-01T10:37:59Z</time></trkpt><trkpt lat="44.56512354093102" lon="0.8971552794398245"><ele>206.00000000000003</ele><time>2026-05-01T10:38:00Z</time></trkpt><trkpt lat="44.56512193527339" lon="0.8970264989521203"><ele>206.0</ele><time>2026-05-01T10:38:01Z</time></trkpt><trkpt lat="44.56514487569193" lon="0.8969167172309294"><ele>206.0</ele><time>2026-05-01T10:38:02Z</time></trkpt><trkpt lat="44.565106239579364" lon="0.8968268952431346"><ele>206.0</ele><time>2026-05-01T10:38:04Z</time></trkpt><trkpt lat="44.56500418818811" lon="0.8967822823570656"><ele>206.00000000000003</ele><time>2026-05-01T10:38:06Z</time></trkpt><trkpt lat="44.5649754447997" lon="0.8967020131902205"><ele>206.0</ele><time>2026-05-01T10:38:07Z</time></trkpt><trkpt lat="44.56498998196751" lon="0.8965693016219738"><ele>205.20000000000002</ele><time>2026-05-01T10:38:08Z</time></trkpt><trkpt lat="44.564991425047424" lon="0.8964463223355814"><ele>204.4</ele><time>2026-05-01T10:38:09Z</time></trkpt><trkpt lat="44.5649839868968" lon="0.8963204073010982"><ele>203.6</ele><time>2026-05-01T10:38:10Z</time></trkpt><trkpt lat="44.56495721779826" lon="0.8961716393020812"><ele>202.8</ele><time>2026-05-01T10:38:11Z</time></trkpt><trkpt lat="44.564941381738926" lon="0.8960611220514669"><ele>202.0</ele><time>2026-05-01T10:38:12Z</time></trkpt><trkpt lat="44.56493016392455" lon="0.8959360649485797"><ele>200.6</ele><time>2026-05-01T10:38:13Z</time></trkpt><trkpt lat="44.564940437418876" lon="0.895817609204463"><ele>199.2</ele><time>2026-05-01T10:38:14Z</time></trkpt><trkpt lat="44.56495201403419" lon="0.8956958908723248"><ele>197.8</ele><time>2026-05-01T10:38:15Z</time></trkpt><trkpt lat="44.564965066539756" lon="0.8955370634351365"><ele>196.4</ele><time>2026-05-01T10:38:16Z</time></trkpt><trkpt lat="44.56498456900646" lon="0.8953930715954516"><ele>195.0</ele><time>2026-05-01T10:38:17Z</time></trkpt><trkpt lat="44.565000216703005" lon="0.8952001915238877"><ele>193.2</ele><time>2026-05-01T10:38:18Z</time></trkpt><trkpt lat="44.56503593300132" lon="0.8950348512165371"><ele>191.4</ele><time>2026-05-01T10:38:19Z</time></trkpt><trkpt lat="44.56504574758011" lon="0.8948920428923492"><ele>189.60000000000002</ele><time>2026-05-01T10:38:20Z</time></trkpt><trkpt lat="44.56504786876721" lon="0.8947645587429861"><ele>187.8</ele><time>2026-05-01T10:38:21Z</time></trkpt><trkpt lat="44.56503834832289" lon="0.8946534585481423"><ele>186.0</ele><time>2026-05-01T10:38:22Z</time></trkpt><trkpt lat="44.56500858723727" lon="0.8945411347646529"><ele>186.0</ele><time>2026-05-01T10:38:23Z</time></trkpt><trkpt lat="44.56499947735025" lon="0.8944072288523669"><ele>186.0</ele><time>2026-05-01T10:38:24Z</time></trkpt><trkpt lat="44.564966483418836" lon="0.8942838094323613"><ele>186.0</ele><time>2026-05-01T10:38:25Z</time></trkpt><trkpt lat="44.56490356970762" lon="0.8941399380454976"><ele>186.0</ele><time>2026-05-01T10:38:26Z</time></trkpt><trkpt lat="44.56485668070416" lon="0.8940485965686913"><ele>186.0</ele><time>2026-05-01T10:38:28Z</time></trkpt><trkpt lat="44.5647643725163" lon="0.8940949326054564"><ele>186.20000000000002</ele><time>2026-05-01T10:38:44Z</time></trkpt><trkpt lat="44.56469232939446" lon="0.8941489139528931"><ele>186.4</ele><time>2026-05-01T10:38:45Z</time></trkpt><trkpt lat="44.56459237134381" lon="0.894212768139985"><ele>186.6</ele><time>2026-05-01T10:38:46Z</time></trkpt><trkpt lat="44.56449626615074" lon="0.8942451365758564"><ele>186.8</ele><time>2026-05-01T10:38:47Z</time></trkpt><trkpt lat="44.56442102455118" lon="0.8942647561238811"><ele>187.0</ele><time>2026-05-01T10:38:48Z</time></trkpt><trkpt lat="44.56430295769365" lon="0.8942613755053173"><ele>187.0</ele><time>2026-05-01T10:38:49Z</time></trkpt><trkpt lat="44.56421357180301" lon="0.8942552022099614"><ele>187.0</ele><time>2026-05-01T10:38:50Z</time></trkpt><trkpt lat="44.5641312449502" lon="0.8942508866269449"><ele>187.0</ele><time>2026-05-01T10:38:51Z</time></trkpt><trkpt lat="44.56403739325558" lon="0.8942922044711265"><ele>187.0</ele><time>2026-05-01T10:38:52Z</time></trkpt><trkpt lat="44.56395009428412" lon="0.8943375446915907"><ele>187.0</ele><time>2026-05-01T10:38:53Z</time></trkpt><trkpt lat="44.56385047508266" lon="0.894365564602097"><ele>187.0</ele><time>2026-05-01T10:38:54Z</time></trkpt><trkpt lat="44.56375000319193" lon="0.8944402729781603"><ele>187.0</ele><time>2026-05-01T10:38:55Z</time></trkpt><trkpt lat="44.56365134473785" lon="0.8945378430378885"><ele>187.0</ele><time>2026-05-01T10:38:56Z</time></trkpt><trkpt lat="44.56355711539801" lon="0.8945904202682439"><ele>187.0</ele><time>2026-05-01T10:38:57Z</time></trkpt><trkpt lat="44.56348394971252" lon="0.8946110418806478"><ele>187.0</ele><time>2026-05-01T10:38:58Z</time></trkpt><trkpt lat="44.563403368211574" lon="0.8946079695200362"><ele>186.83333333333334</ele><time>2026-05-01T10:38:59Z</time></trkpt><trkpt lat="44.563306356917586" lon="0.8945888939843732"><ele>186.66666666666669</ele><time>2026-05-01T10:39:00Z</time></trkpt><trkpt lat="44.56322147705517" lon="0.8946211636632102"><ele>186.5</ele><time>2026-05-01T10:39:01Z</time></trkpt><trkpt lat="44.563138186925684" lon="0.8946551805986783"><ele>186.33333333333334</ele><time>2026-05-01T10:39:02Z</time></trkpt><trkpt lat="44.56307665466927" lon="0.8947274040766149"><ele>186.16666666666666</ele><time>2026-05-01T10:39:04Z</time></trkpt><trkpt lat="44.563035630328116" lon="0.8948291610705028"><ele>186.0</ele><time>2026-05-01T10:39:07Z</time></trkpt><trkpt lat="44.56295882552376" lon="0.8949443345295495"><ele>186.0</ele><time>2026-05-01T10:39:09Z</time></trkpt><trkpt lat="44.56291251018362" lon="0.895044093206081"><ele>186.0</ele><time>2026-05-01T10:39:10Z</time></trkpt><trkpt lat="44.56285159731137" lon="0.8951623094435189"><ele>186.0</ele><time>2026-05-01T10:39:11Z</time></trkpt><trkpt lat="44.56277185833609" lon="0.8952858837255981"><ele>186.0</ele><time>2026-05-01T10:39:12Z</time></trkpt><trkpt lat="44.56269893478401" lon="0.895409515240793"><ele>186.0</ele><time>2026-05-01T10:39:13Z</time></trkpt><trkpt lat="44.56263021979004" lon="0.8955373085138769"><ele>185.25</ele><time>2026-05-01T10:39:14Z</time></trkpt><trkpt lat="44.56256506309817" lon="0.8956969153594666"><ele>184.5</ele><time>2026-05-01T10:39:15Z</time></trkpt><trkpt lat="44.56250469250176" lon="0.8958715050290165"><ele>183.75</ele><time>2026-05-01T10:39:16Z</time></trkpt><trkpt lat="44.562446308892206" lon="0.896037123664503"><ele>183.0</ele><time>2026-05-01T10:39:17Z</time></trkpt><trkpt lat="44.562366497212295" lon="0.8961656277722455"><ele>183.0</ele><time>2026-05-01T10:39:18Z</time></trkpt><trkpt lat="44.56226028181546" lon="0.8962451297903384"><ele>183.0</ele><time>2026-05-01T10:39:19Z</time></trkpt><trkpt lat="44.56213715826221" lon="0.896298985925811"><ele>183.0</ele><time>2026-05-01T10:39:20Z</time></trkpt><trkpt lat="44.56201151285509" lon="0.8963303067013872"><ele>183.0</ele><time>2026-05-01T10:39:21Z</time></trkpt><trkpt lat="44.5618700682864" lon="0.8963523940890455"><ele>182.0</ele><time>2026-05-01T10:39:22Z</time></trkpt><trkpt lat="44.561722476204636" lon="0.8963561732270956"><ele>181.0</ele><time>2026-05-01T10:39:23Z</time></trkpt><trkpt lat="44.5615765786796" lon="0.8963366662891359"><ele>180.0</ele><time>2026-05-01T10:39:24Z</time></trkpt><trkpt lat="44.56143362020187" lon="0.8963258858654991"><ele>179.0</ele><time>2026-05-01T10:39:25Z</time></trkpt><trkpt lat="44.561279847157294" lon="0.8963343192585794"><ele>180.25</ele><time>2026-05-01T10:39:26Z</time></trkpt><trkpt lat="44.56113870808798" lon="0.896369140072145"><ele>181.5</ele><time>2026-05-01T10:39:27Z</time></trkpt><trkpt lat="44.56100693050174" lon="0.8964221175924226"><ele>182.75</ele><time>2026-05-01T10:39:28Z</time></trkpt><trkpt lat="44.560879689727884" lon="0.8964827849410185"><ele>184.0</ele><time>2026-05-01T10:39:29Z</time></trkpt><trkpt lat="44.560751717892636" lon="0.8965374835661529"><ele>184.0</ele><time>2026-05-01T10:39:30Z</time></trkpt><trkpt lat="44.5606155337374" lon="0.8965932660804613"><ele>184.0</ele><time>2026-05-01T10:39:31Z</time></trkpt><trkpt lat="44.56048485948757" lon="0.896647361326573"><ele>184.0</ele><time>2026-05-01T10:39:32Z</time></trkpt><trkpt lat="44.56034836119325" lon="0.8966959312683388"><ele>184.0</ele><time>2026-05-01T10:39:33Z</time></trkpt><trkpt lat="44.56021448545253" lon="0.8967429445439936"><ele>186.0</ele><time>2026-05-01T10:39:34Z</time></trkpt><trkpt lat="44.56007522985818" lon="0.8968002980740741"><ele>188.0</ele><time>2026-05-01T10:39:35Z</time></trkpt><trkpt lat="44.55994429861484" lon="0.8968534066178091"><ele>190.0</ele><time>2026-05-01T10:39:36Z</time></trkpt><trkpt lat="44.5598115728397" lon="0.8969086060739667"><ele>192.0</ele><time>2026-05-01T10:39:37Z</time></trkpt><trkpt lat="44.55968411041087" lon="0.8969698537648717"><ele>192.0</ele><time>2026-05-01T10:39:38Z</time></trkpt><trkpt lat="44.55957132866084" lon="0.8970349760482668"><ele>192.0</ele><time>2026-05-01T10:39:39Z</time></trkpt><trkpt lat="44.559474039899456" lon="0.8970964784017362"><ele>192.0</ele><time>2026-05-01T10:39:40Z</time></trkpt><trkpt lat="44.559387594556306" lon="0.8971459285822593"><ele>192.0</ele><time>2026-05-01T10:39:41Z</time></trkpt><trkpt lat="44.55930859907865" lon="0.897195696459425"><ele>192.0</ele><time>2026-05-01T10:39:42Z</time></trkpt><trkpt lat="44.55922833622774" lon="0.8972571618228029"><ele>193.0</ele><time>2026-05-01T10:39:44Z</time></trkpt><trkpt lat="44.559196704692155" lon="0.8971431005909161"><ele>194.0</ele><time>2026-05-01T10:39:46Z</time></trkpt><trkpt lat="44.5592113190416" lon="0.8970492873502023"><ele>195.0</ele><time>2026-05-01T10:39:47Z</time></trkpt><trkpt lat="44.55923885209203" lon="0.8969238187329021"><ele>196.0</ele><time>2026-05-01T10:39:48Z</time></trkpt><trkpt lat="44.55925861525679" lon="0.8967572340656836"><ele>197.0</ele><time>2026-05-01T10:39:49Z</time></trkpt><trkpt lat="44.55926382546694" lon="0.8965666121775686"><ele>197.0</ele><time>2026-05-01T10:39:50Z</time></trkpt><trkpt lat="44.55926413350542" lon="0.8963696398018789"><ele>197.0</ele><time>2026-05-01T10:39:51Z</time></trkpt><trkpt lat="44.559265267927096" lon="0.8961815760609919"><ele>197.0</ele><time>2026-05-01T10:39:52Z</time></trkpt><trkpt lat="44.55925432204752" lon="0.8959792345272658"><ele>197.0</ele><time>2026-05-01T10:39:53Z</time></trkpt><trkpt lat="44.55924357847261" lon="0.8957804151377382"><ele>196.75</ele><time>2026-05-01T10:39:54Z</time></trkpt><trkpt lat="44.55922747441217" lon="0.8956048572907994"><ele>196.5</ele><time>2026-05-01T10:39:55Z</time></trkpt><trkpt lat="44.55921155028865" lon="0.8954222090865267"><ele>196.25</ele><time>2026-05-01T10:39:56Z</time></trkpt><trkpt lat="44.55921605594677" lon="0.8952439045701134"><ele>196.0</ele><time>2026-05-01T10:39:57Z</time></trkpt><trkpt lat="44.559217511762085" lon="0.8950681183041178"><ele>195.5</ele><time>2026-05-01T10:39:58Z</time></trkpt><trkpt lat="44.55921511806141" lon="0.8948919814480746"><ele>195.0</ele><time>2026-05-01T10:39:59Z</time></trkpt><trkpt lat="44.55919771730132" lon="0.89472922499899"><ele>194.5</ele><time>2026-05-01T10:40:00Z</time></trkpt><trkpt lat="44.55917322001824" lon="0.8945576151706454"><ele>194.0</ele><time>2026-05-01T10:40:01Z</time></trkpt><trkpt lat="44.559145244122206" lon="0.8943746208751684"><ele>194.0</ele><time>2026-05-01T10:40:02Z</time></trkpt><trkpt lat="44.55912639018042" lon="0.8941898613104756"><ele>194.0</ele><time>2026-05-01T10:40:03Z</time></trkpt><trkpt lat="44.55912287200759" lon="0.8939894754876495"><ele>194.0</ele><time>2026-05-01T10:40:04Z</time></trkpt><trkpt lat="44.55913010655803" lon="0.8937972889498409"><ele>194.0</ele><time>2026-05-01T10:40:05Z</time></trkpt><trkpt lat="44.5591306173373" lon="0.8936284274398006"><ele>194.0</ele><time>2026-05-01T10:40:06Z</time></trkpt><trkpt lat="44.55911673885952" lon="0.8934710867576707"><ele>194.0</ele><time>2026-05-01T10:40:07Z</time></trkpt><trkpt lat="44.55910482066124" lon="0.8933035073332851"><ele>194.0</ele><time>2026-05-01T10:40:08Z</time></trkpt><trkpt lat="44.559093809605905" lon="0.8931368471637"><ele>194.0</ele><time>2026-05-01T10:40:09Z</time></trkpt><trkpt lat="44.55908581151852" lon="0.8929546368106295"><ele>193.2</ele><time>2026-05-01T10:40:10Z</time></trkpt><trkpt lat="44.559068649797894" lon="0.8927897323998268"><ele>192.39999999999998</ele><time>2026-05-01T10:40:11Z</time></trkpt><trkpt lat="44.5590476625857" lon="0.8926358720216699"><ele>191.6</ele><time>2026-05-01T10:40:12Z</time></trkpt><trkpt lat="44.559037803864754" lon="0.8924994983487844"><ele>190.8</ele><time>2026-05-01T10:40:13Z</time></trkpt><trkpt lat="44.5590213042018" lon="0.8923682602298479"><ele>190.0</ele><time>2026-05-01T10:40:14Z</time></trkpt><trkpt lat="44.559002166392574" lon="0.8922503213297778"><ele>189.6</ele><time>2026-05-01T10:40:15Z</time></trkpt><trkpt lat="44.558974462190164" lon="0.8921609831737013"><ele>189.2</ele><time>2026-05-01T10:40:16Z</time></trkpt><trkpt lat="44.55891722451441" lon="0.8920267020257672"><ele>188.8</ele><time>2026-05-01T10:40:18Z</time></trkpt><trkpt lat="44.55880967792547" lon="0.8919738616965734"><ele>188.4</ele><time>2026-05-01T10:40:20Z</time></trkpt><trkpt lat="44.55875070080078" lon="0.8918487120147142"><ele>188.0</ele><time>2026-05-01T10:40:22Z</time></trkpt><trkpt lat="44.55876951416743" lon="0.8917381891657786"><ele>187.60000000000002</ele><time>2026-05-01T10:40:23Z</time></trkpt><trkpt lat="44.55878253140159" lon="0.8916107434755157"><ele>187.20000000000002</ele><time>2026-05-01T10:40:24Z</time></trkpt><trkpt lat="44.55878097498078" lon="0.8914582297494346"><ele>186.8</ele><time>2026-05-01T10:40:25Z</time></trkpt><trkpt lat="44.55875784431132" lon="0.891312899464846"><ele>186.4</ele><time>2026-05-01T10:40:26Z</time></trkpt><trkpt lat="44.5587494136979" lon="0.8911888779868925"><ele>186.0</ele><time>2026-05-01T10:40:27Z</time></trkpt><trkpt lat="44.558699647892794" lon="0.89105458912495"><ele>186.0</ele><time>2026-05-01T10:40:29Z</time></trkpt><trkpt lat="44.55857551101167" lon="0.8910550736950065"><ele>186.0</ele><time>2026-05-01T10:40:31Z</time></trkpt><trkpt lat="44.55850120519042" lon="0.891041925502213"><ele>186.0</ele><time>2026-05-01T10:40:32Z</time></trkpt><trkpt lat="44.55840818683879" lon="0.8910039342761635"><ele>186.0</ele><time>2026-05-01T10:40:33Z</time></trkpt><trkpt lat="44.55828938395794" lon="0.8909349909925105"><ele>186.0</ele><time>2026-05-01T10:40:34Z</time></trkpt><trkpt lat="44.55819995506017" lon="0.8908913099472402"><ele>186.16666666666666</ele><time>2026-05-01T10:40:35Z</time></trkpt><trkpt lat="44.55811673981349" lon="0.8908628064370467"><ele>186.33333333333334</ele><time>2026-05-01T10:40:36Z</time></trkpt><trkpt lat="44.558043457384635" lon="0.890843498412903"><ele>186.5</ele><time>2026-05-01T10:40:37Z</time></trkpt><trkpt lat="44.557958863689194" lon="0.8907925024111977"><ele>186.66666666666669</ele><time>2026-05-01T10:40:39Z</time></trkpt><trkpt lat="44.55791768906769" lon="0.8906474774807035"><ele>186.83333333333334</ele><time>2026-05-01T10:40:41Z</time></trkpt><trkpt lat="44.55789617150973" lon="0.8905345282559611"><ele>187.0</ele><time>2026-05-01T10:40:42Z</time></trkpt><trkpt lat="44.55780102698393" lon="0.8904268361460519"><ele>185.33333333333334</ele><time>2026-05-01T10:40:44Z</time></trkpt><trkpt lat="44.557737589538235" lon="0.89041285319557"><ele>183.66666666666669</ele><time>2026-05-01T10:40:45Z</time></trkpt><trkpt lat="44.55767253511364" lon="0.8903961799306506"><ele>182.0</ele><time>2026-05-01T10:40:46Z</time></trkpt><trkpt lat="44.55759404441291" lon="0.8903902904733435"><ele>180.33333333333334</ele><time>2026-05-01T10:40:47Z</time></trkpt><trkpt lat="44.55752734103749" lon="0.8904129194431118"><ele>178.66666666666666</ele><time>2026-05-01T10:40:48Z</time></trkpt><trkpt lat="44.55742237643523" lon="0.8904513596629974"><ele>177.0</ele><time>2026-05-01T10:40:49Z</time></trkpt><trkpt lat="44.55733658329616" lon="0.8904408377526276"><ele>177.0</ele><time>2026-05-01T10:40:50Z</time></trkpt><trkpt lat="44.55722315353832" lon="0.8904693197373413"><ele>177.0</ele><time>2026-05-01T10:40:52Z</time></trkpt><trkpt lat="44.557175185567445" lon="0.8905321673394178"><ele>177.0</ele><time>2026-05-01T10:40:53Z</time></trkpt><trkpt lat="44.55713091431371" lon="0.890631187241521"><ele>177.0</ele><time>2026-05-01T10:40:54Z</time></trkpt><trkpt lat="44.557065542640274" lon="0.8906955379647385"><ele>177.0</ele><time>2026-05-01T10:40:55Z</time></trkpt><trkpt lat="44.55700820983256" lon="0.8907468178812622"><ele>177.0</ele><time>2026-05-01T10:40:56Z</time></trkpt><trkpt lat="44.55697702728841" lon="0.8908534754914668"><ele>175.25</ele><time>2026-05-01T10:40:57Z</time></trkpt><trkpt lat="44.55694649839018" lon="0.8909869272130133"><ele>173.5</ele><time>2026-05-01T10:40:58Z</time></trkpt><trkpt lat="44.55688780498539" lon="0.8911780531666897"><ele>171.75</ele><time>2026-05-01T10:40:59Z</time></trkpt><trkpt lat="44.556830490697024" lon="0.891326035127182"><ele>170.0</ele><time>2026-05-01T10:41:00Z</time></trkpt><trkpt lat="44.55678300973078" lon="0.8914514421202884"><ele>170.0</ele><time>2026-05-01T10:41:01Z</time></trkpt><trkpt lat="44.5567440376388" lon="0.8915482005240638"><ele>170.0</ele><time>2026-05-01T10:41:02Z</time></trkpt><trkpt lat="44.55670381169829" lon="0.8916397056904682"><ele>170.0</ele><time>2026-05-01T10:41:03Z</time></trkpt><trkpt lat="44.55663805880824" lon="0.8917152941453469"><ele>170.0</ele><time>2026-05-01T10:41:05Z</time></trkpt><trkpt lat="44.55659205811793" lon="0.891778245558211"><ele>170.0</ele><time>2026-05-01T10:41:15Z</time></trkpt><trkpt lat="44.55666445976115" lon="0.8918585118363672"><ele>170.0</ele><time>2026-05-01T10:41:25Z</time></trkpt><trkpt lat="44.556720078112164" lon="0.8919380042281281"><ele>171.0</ele><time>2026-05-01T10:41:28Z</time></trkpt><trkpt lat="44.55673076168283" lon="0.8920355124979398"><ele>172.0</ele><time>2026-05-01T10:41:31Z</time></trkpt><trkpt lat="44.556647880640504" lon="0.8921351790272053"><ele>173.0</ele><time>2026-05-01T10:41:35Z</time></trkpt><trkpt lat="44.55658169400094" lon="0.8921344203238089"><ele>174.0</ele><time>2026-05-01T10:41:37Z</time></trkpt><trkpt lat="44.5564908680968" lon="0.8921382218637284"><ele>175.0</ele><time>2026-05-01T10:41:42Z</time></trkpt><trkpt lat="44.556425764206956" lon="0.8921178597941952"><ele>176.0</ele><time>2026-05-01T10:41:45Z</time></trkpt><trkpt lat="44.556340319370804" lon="0.8920629466121475"><ele>176.0</ele><time>2026-05-01T10:41:47Z</time></trkpt><trkpt lat="44.55627044418377" lon="0.8920280751749067"><ele>176.0</ele><time>2026-05-01T10:41:49Z</time></trkpt><trkpt lat="44.55620772967644" lon="0.8918932384721926"><ele>176.0</ele><time>2026-05-01T10:41:53Z</time></trkpt><trkpt lat="44.55615670794207" lon="0.891813993001153"><ele>176.0</ele><time>2026-05-01T10:41:55Z</time></trkpt><trkpt lat="44.556089924908484" lon="0.8917067150344158"><ele>176.0</ele><time>2026-05-01T10:41:57Z</time></trkpt><trkpt lat="44.556079940031374" lon="0.8916017494527534"><ele>176.0</ele><time>2026-05-01T10:42:00Z</time></trkpt><trkpt lat="44.55611662336073" lon="0.8915117224604084"><ele>175.83333333333331</ele><time>2026-05-01T10:42:01Z</time></trkpt><trkpt lat="44.55612195485885" lon="0.8913756615252615"><ele>175.66666666666666</ele><time>2026-05-01T10:42:03Z</time></trkpt><trkpt lat="44.55610280639642" lon="0.8912791641093905"><ele>175.5</ele><time>2026-05-01T10:42:04Z</time></trkpt><trkpt lat="44.55606497136294" lon="0.8911896224188961"><ele>175.33333333333334</ele><time>2026-05-01T10:42:05Z</time></trkpt><trkpt lat="44.556020158807435" lon="0.8911025452746474"><ele>175.16666666666669</ele><time>2026-05-01T10:42:06Z</time></trkpt><trkpt lat="44.55594738232399" lon="0.8910290485818193"><ele>175.0</ele><time>2026-05-01T10:42:07Z</time></trkpt><trkpt lat="44.555851315347276" lon="0.8909744587158013"><ele>175.0</ele><time>2026-05-01T10:42:08Z</time></trkpt><trkpt lat="44.55577730648374" lon="0.8909524026561523"><ele>175.0</ele><time>2026-05-01T10:42:09Z</time></trkpt><trkpt lat="44.55568298435808" lon="0.8909522420683063"><ele>175.0</ele><time>2026-05-01T10:42:10Z</time></trkpt><trkpt lat="44.55559222195969" lon="0.8909760590571296"><ele>175.0</ele><time>2026-05-01T10:42:11Z</time></trkpt><trkpt lat="44.555489355590474" lon="0.8909383068428669"><ele>175.0</ele><time>2026-05-01T10:42:12Z</time></trkpt><trkpt lat="44.555390443709605" lon="0.8908653085467177"><ele>172.0</ele><time>2026-05-01T10:42:13Z</time></trkpt><trkpt lat="44.555309351711614" lon="0.8908189827737525"><ele>169.0</ele><time>2026-05-01T10:42:14Z</time></trkpt><trkpt lat="44.55522582468106" lon="0.8907848731874305"><ele>166.0</ele><time>2026-05-01T10:42:15Z</time></trkpt><trkpt lat="44.55509768423609" lon="0.8908236661120571"><ele>163.0</ele><time>2026-05-01T10:42:17Z</time></trkpt><trkpt lat="44.555037415819854" lon="0.8908784376667838"><ele>160.0</ele><time>2026-05-01T10:42:18Z</time></trkpt><trkpt lat="44.55496721747573" lon="0.890913524663337"><ele>159.2</ele><time>2026-05-01T10:42:19Z</time></trkpt><trkpt lat="44.5548849340315" lon="0.890930217583618"><ele>158.4</ele><time>2026-05-01T10:42:20Z</time></trkpt><trkpt lat="44.55477354844736" lon="0.8909410735698922"><ele>157.6</ele><time>2026-05-01T10:42:21Z</time></trkpt><trkpt lat="44.554660991407445" lon="0.8909513904591145"><ele>156.8</ele><time>2026-05-01T10:42:22Z</time></trkpt><trkpt lat="44.55456013078803" lon="0.8909508557680303"><ele>156.0</ele><time>2026-05-01T10:42:23Z</time></trkpt><trkpt lat="44.55447190748676" lon="0.8909341138678295"><ele>155.0</ele><time>2026-05-01T10:42:24Z</time></trkpt><trkpt lat="44.55438474889493" lon="0.8909032777506781"><ele>154.0</ele><time>2026-05-01T10:42:25Z</time></trkpt><trkpt lat="44.55429909552257" lon="0.8908672462444519"><ele>153.0</ele><time>2026-05-01T10:42:26Z</time></trkpt><trkpt lat="44.55419844801816" lon="0.8908244726660535"><ele>152.0</ele><time>2026-05-01T10:42:27Z</time></trkpt><trkpt lat="44.55408663930308" lon="0.8907720742416162"><ele>151.0</ele><time>2026-05-01T10:42:28Z</time></trkpt><trkpt lat="44.55398398111244" lon="0.8907116813587629"><ele>151.0</ele><time>2026-05-01T10:42:29Z</time></trkpt><trkpt lat="44.55389181153613" lon="0.8906451031517032"><ele>151.0</ele><time>2026-05-01T10:42:30Z</time></trkpt><trkpt lat="44.55381004003811" lon="0.8905955363521425"><ele>151.0</ele><time>2026-05-01T10:42:31Z</time></trkpt><trkpt lat="44.55376993980894" lon="0.8905086867132781"><ele>151.0</ele><time>2026-05-01T10:42:34Z</time></trkpt><trkpt lat="44.553866418957455" lon="0.8903258766178038"><ele>151.0</ele><time>2026-05-01T10:42:36Z</time></trkpt><trkpt lat="44.553922543053744" lon="0.8901961513789793"><ele>151.0</ele><time>2026-05-01T10:42:37Z</time></trkpt><trkpt lat="44.55400572145211" lon="0.8900595377947594"><ele>151.0</ele><time>2026-05-01T10:42:38Z</time></trkpt><trkpt lat="44.55412629334536" lon="0.8899344306968757"><ele>151.0</ele><time>2026-05-01T10:42:39Z</time></trkpt><trkpt lat="44.55423616779127" lon="0.889811582741747"><ele>151.0</ele><time>2026-05-01T10:42:40Z</time></trkpt><trkpt lat="44.55433076384663" lon="0.8897140848683325"><ele>151.0</ele><time>2026-05-01T10:42:41Z</time></trkpt><trkpt lat="44.55441330183363" lon="0.8896212711823394"><ele>151.0</ele><time>2026-05-01T10:42:42Z</time></trkpt><trkpt lat="44.55449951985487" lon="0.8895290436469285"><ele>151.0</ele><time>2026-05-01T10:42:43Z</time></trkpt><trkpt lat="44.55457240584609" lon="0.8894451602519161"><ele>151.0</ele><time>2026-05-01T10:42:44Z</time></trkpt><trkpt lat="44.55464136009102" lon="0.8893266615441542"><ele>151.0</ele><time>2026-05-01T10:42:45Z</time></trkpt><trkpt lat="44.55471914624856" lon="0.8891893692195382"><ele>149.8</ele><time>2026-05-01T10:42:46Z</time></trkpt><trkpt lat="44.55478586699322" lon="0.8890747114924529"><ele>148.6</ele><time>2026-05-01T10:42:47Z</time></trkpt><trkpt lat="44.5548431285773" lon="0.8889604099739324"><ele>147.4</ele><time>2026-05-01T10:42:48Z</time></trkpt><trkpt lat="44.55490897207717" lon="0.8888628046042071"><ele>146.2</ele><time>2026-05-01T10:42:49Z</time></trkpt><trkpt lat="44.554956260439155" lon="0.8887571002363133"><ele>145.0</ele><time>2026-05-01T10:42:50Z</time></trkpt><trkpt lat="44.55502426275407" lon="0.888638762932933"><ele>145.0</ele><time>2026-05-01T10:42:51Z</time></trkpt><trkpt lat="44.555079920975565" lon="0.8884987474759953"><ele>145.0</ele><time>2026-05-01T10:42:52Z</time></trkpt><trkpt lat="44.555136637508845" lon="0.8883276926210918"><ele>145.0</ele><time>2026-05-01T10:42:53Z</time></trkpt><trkpt lat="44.55518681044553" lon="0.8881440936656666"><ele>145.0</ele><time>2026-05-01T10:42:54Z</time></trkpt><trkpt lat="44.555230264021155" lon="0.8879647730277573"><ele>145.25</ele><time>2026-05-01T10:42:55Z</time></trkpt><trkpt lat="44.55531042814313" lon="0.8877968688262176"><ele>145.5</ele><time>2026-05-01T10:42:56Z</time></trkpt><trkpt lat="44.555351565544754" lon="0.8876434739940146"><ele>145.75</ele><time>2026-05-01T10:42:57Z</time></trkpt><trkpt lat="44.55539436739332" lon="0.8875017423526967"><ele>146.0</ele><time>2026-05-01T10:42:58Z</time></trkpt><trkpt lat="44.55543938835443" lon="0.887394644642686"><ele>146.33333333333331</ele><time>2026-05-01T10:42:59Z</time></trkpt><trkpt lat="44.555496579015575" lon="0.8873132838897039"><ele>146.66666666666666</ele><time>2026-05-01T10:43:00Z</time></trkpt><trkpt lat="44.55554628611326" lon="0.8872461310714311"><ele>147.0</ele><time>2026-05-01T10:43:01Z</time></trkpt><trkpt lat="44.55559021993881" lon="0.8871407848892405"><ele>147.33333333333334</ele><time>2026-05-01T10:43:03Z</time></trkpt><trkpt lat="44.55561964872815" lon="0.8870519137866554"><ele>147.66666666666669</ele><time>2026-05-01T10:43:19Z</time></trkpt><trkpt lat="44.55568018892536" lon="0.886992248613955"><ele>148.0</ele><time>2026-05-01T10:43:26Z</time></trkpt><trkpt lat="44.55577990992842" lon="0.8869270264818045"><ele>148.0</ele><time>2026-05-01T10:43:28Z</time></trkpt><trkpt lat="44.55583899589425" lon="0.8868668087934933"><ele>148.0</ele><time>2026-05-01T10:43:30Z</time></trkpt><trkpt lat="44.55607558688623" lon="0.8868060561173876"><ele>148.0</ele><time>2026-05-01T10:43:38Z</time></trkpt><trkpt lat="44.556160686367846" lon="0.8867993365065244"><ele>148.0</ele><time>2026-05-01T10:43:39Z</time></trkpt><trkpt lat="44.55622880320046" lon="0.8867241327313028"><ele>147.83333333333334</ele><time>2026-05-01T10:43:40Z</time></trkpt><trkpt lat="44.55634213739094" lon="0.8866968257601135"><ele>147.66666666666669</ele><time>2026-05-01T10:43:41Z</time></trkpt><trkpt lat="44.556431286024406" lon="0.8866712459539158"><ele>147.5</ele><time>2026-05-01T10:43:42Z</time></trkpt><trkpt lat="44.556513214081406" lon="0.8866528287632106"><ele>147.33333333333334</ele><time>2026-05-01T10:43:43Z</time></trkpt><trkpt lat="44.556587079189164" lon="0.8866388971107727"><ele>147.16666666666666</ele><time>2026-05-01T10:43:44Z</time></trkpt><trkpt lat="44.556655994084075" lon="0.8866293277931057"><ele>147.0</ele><time>2026-05-01T10:43:45Z</time></trkpt><trkpt lat="44.55671999069593" lon="0.8865521075716809"><ele>147.0</ele><time>2026-05-01T10:43:47Z</time></trkpt><trkpt lat="44.55676135826483" lon="0.8863302731583136"><ele>147.0</ele><time>2026-05-01T10:43:49Z</time></trkpt><trkpt lat="44.5567785054055" lon="0.8862124654024476"><ele>147.0</ele><time>2026-05-01T10:43:50Z</time></trkpt><trkpt lat="44.55681737061725" lon="0.8861282857360587"><ele>147.0</ele><time>2026-05-01T10:43:51Z</time></trkpt><trkpt lat="44.55693497094631" lon="0.8860814724392959"><ele>147.0</ele><time>2026-05-01T10:43:53Z</time></trkpt><trkpt lat="44.55700760295291" lon="0.8860564808076455"><ele>148.0</ele><time>2026-05-01T10:43:55Z</time></trkpt><trkpt lat="44.55705734628842" lon="0.8859998686441887"><ele>149.0</ele><time>2026-05-01T10:43:56Z</time></trkpt><trkpt lat="44.55712420347206" lon="0.8859103579800611"><ele>150.0</ele><time>2026-05-01T10:43:57Z</time></trkpt><trkpt lat="44.557229316500184" lon="0.8858299756313444"><ele>151.0</ele><time>2026-05-01T10:43:59Z</time></trkpt><trkpt lat="44.557293985370386" lon="0.8857375789435349"><ele>152.0</ele><time>2026-05-01T10:44:00Z</time></trkpt><trkpt lat="44.55737196258674" lon="0.885639426280893"><ele>152.0</ele><time>2026-05-01T10:44:01Z</time></trkpt><trkpt lat="44.55744773397303" lon="0.8855756584935012"><ele>152.0</ele><time>2026-05-01T10:44:02Z</time></trkpt><trkpt lat="44.55750759068495" lon="0.8855343901937001"><ele>152.0</ele><time>2026-05-01T10:44:03Z</time></trkpt><trkpt lat="44.55757226065045" lon="0.8854578645223421"><ele>152.0</ele><time>2026-05-01T10:44:04Z</time></trkpt><trkpt lat="44.55763447500707" lon="0.8853560141666276"><ele>152.0</ele><time>2026-05-01T10:44:05Z</time></trkpt><trkpt lat="44.55767714245071" lon="0.8852749303525353"><ele>152.0</ele><time>2026-05-01T10:44:06Z</time></trkpt><trkpt lat="44.55771708271484" lon="0.8851840101769541"><ele>148.42857142857142</ele><time>2026-05-01T10:44:07Z</time></trkpt><trkpt lat="44.55776175184329" lon="0.8850867638426783"><ele>144.85714285714286</ele><time>2026-05-01T10:44:08Z</time></trkpt><trkpt lat="44.55780803522838" lon="0.8849810524636186"><ele>141.28571428571428</ele><time>2026-05-01T10:44:09Z</time></trkpt><trkpt lat="44.55784459716947" lon="0.8848855749168876"><ele>137.71428571428572</ele><time>2026-05-01T10:44:10Z</time></trkpt><trkpt lat="44.55788787357715" lon="0.8848155651393785"><ele>134.14285714285714</ele><time>2026-05-01T10:44:11Z</time></trkpt><trkpt lat="44.55792670282505" lon="0.8847447516893063"><ele>130.57142857142858</ele><time>2026-05-01T10:44:12Z</time></trkpt><trkpt lat="44.55796024173477" lon="0.8846690961757613"><ele>127.0</ele><time>2026-05-01T10:44:13Z</time></trkpt><trkpt lat="44.55800751026321" lon="0.8846024527137056"><ele>126.6</ele><time>2026-05-01T10:44:14Z</time></trkpt><trkpt lat="44.558090145104956" lon="0.8846129872577719"><ele>126.19999999999999</ele><time>2026-05-01T10:44:16Z</time></trkpt><trkpt lat="44.558082485973216" lon="0.884787576806459"><ele>125.8</ele><time>2026-05-01T10:44:18Z</time></trkpt><trkpt lat="44.558073710869515" lon="0.8849009521250358"><ele>125.4</ele><time>2026-05-01T10:44:19Z</time></trkpt><trkpt lat="44.55809482952111" lon="0.8849952024854474"><ele>125.0</ele><time>2026-05-01T10:44:20Z</time></trkpt><trkpt lat="44.558123687910445" lon="0.8851546310834139"><ele>124.99999999999999</ele><time>2026-05-01T10:44:22Z</time></trkpt><trkpt lat="44.55818945447519" lon="0.8851792813786048"><ele>125.0</ele><time>2026-05-01T10:44:25Z</time></trkpt><trkpt lat="44.55823855450894" lon="0.885072241889377"><ele>125.0</ele><time>2026-05-01T10:44:27Z</time></trkpt><trkpt lat="44.558287701226774" lon="0.8849377708719942"><ele>125.0</ele><time>2026-05-01T10:44:29Z</time></trkpt><trkpt lat="44.558322173175945" lon="0.8848631342347706"><ele>124.99999999999999</ele><time>2026-05-01T10:44:30Z</time></trkpt><trkpt lat="44.55838239301348" lon="0.8847589100246249"><ele>125.0</ele><time>2026-05-01T10:44:31Z</time></trkpt><trkpt lat="44.55844849965794" lon="0.8846846300485899"><ele>125.0</ele><time>2026-05-01T10:44:32Z</time></trkpt><trkpt lat="44.55852537267281" lon="0.8845974864300024"><ele>125.0</ele><time>2026-05-01T10:44:34Z</time></trkpt><trkpt lat="44.55856201960249" lon="0.8844794612532941"><ele>125.0</ele><time>2026-05-01T10:44:37Z</time></trkpt><trkpt lat="44.558493970003894" lon="0.884413113146517"><ele>125.0</ele><time>2026-05-01T10:44:42Z</time></trkpt><trkpt lat="44.558427186795555" lon="0.8843420945241255"><ele>125.0</ele><time>2026-05-01T10:44:45Z</time></trkpt><trkpt lat="44.55831329496634" lon="0.8843301874626174"><ele>124.99999999999999</ele><time>2026-05-01T10:44:47Z</time></trkpt><trkpt lat="44.55824434857905" lon="0.8842776333246197"><ele>125.0</ele><time>2026-05-01T10:44:49Z</time></trkpt><trkpt lat="44.55820800685707" lon="0.8842018049606971"><ele>125.0</ele><time>2026-05-01T10:44:50Z</time></trkpt><trkpt lat="44.55816778086081" lon="0.8841251351326184"><ele>125.0</ele><time>2026-05-01T10:44:51Z</time></trkpt><trkpt lat="44.55814455793669" lon="0.8839864963085874"><ele>124.99999999999999</ele><time>2026-05-01T10:44:53Z</time></trkpt><trkpt lat="44.55821748882687" lon="0.8838360990161801"><ele>125.0</ele><time>2026-05-01T10:44:55Z</time></trkpt><trkpt lat="44.558270760112464" lon="0.8837844280581584"><ele>124.33333333333333</ele><time>2026-05-01T10:44:56Z</time></trkpt><trkpt lat="44.55822095253144" lon="0.8837250100884722"><ele>123.66666666666666</ele><time>2026-05-01T10:45:00Z</time></trkpt><trkpt lat="44.55811344280075" lon="0.8837024338845162"><ele>123.0</ele><time>2026-05-01T10:45:02Z</time></trkpt><trkpt lat="44.55801515598681" lon="0.8836512729526459"><ele>122.33333333333334</ele><time>2026-05-01T10:45:03Z</time></trkpt><trkpt lat="44.557960482444884" lon="0.8835714258285859"><ele>121.66666666666667</ele><time>2026-05-01T10:45:04Z</time></trkpt><trkpt lat="44.557928095558616" lon="0.8834672035456884"><ele>121.0</ele><time>2026-05-01T10:45:05Z</time></trkpt><trkpt lat="44.55784779803921" lon="0.8833598780542756"><ele>121.8</ele><time>2026-05-01T10:45:07Z</time></trkpt><trkpt lat="44.5577865342272" lon="0.8834878925347344"><ele>122.6</ele><time>2026-05-01T10:45:09Z</time></trkpt><trkpt lat="44.557743797659356" lon="0.8835959868369127"><ele>123.4</ele><time>2026-05-01T10:45:10Z</time></trkpt><trkpt lat="44.55768176180507" lon="0.88370105921273"><ele>124.2</ele><time>2026-05-01T10:45:11Z</time></trkpt><trkpt lat="44.55761167798993" lon="0.8837971507840846"><ele>125.0</ele><time>2026-05-01T10:45:12Z</time></trkpt><trkpt lat="44.5575586586241" lon="0.8838559130523174"><ele>124.99999999999999</ele><time>2026-05-01T10:45:13Z</time></trkpt><trkpt lat="44.55749599231538" lon="0.8839535198183149"><ele>125.0</ele><time>2026-05-01T10:45:14Z</time></trkpt><trkpt lat="44.55741874322891" lon="0.8840188681388313"><ele>125.0</ele><time>2026-05-01T10:45:15Z</time></trkpt><trkpt lat="44.55734705852014" lon="0.8840837550232236"><ele>125.0</ele><time>2026-05-01T10:45:16Z</time></trkpt><trkpt lat="44.55729043084899" lon="0.8841397117643239"><ele>124.99999999999999</ele><time>2026-05-01T10:45:18Z</time></trkpt><trkpt lat="44.55722380746393" lon="0.8842139871789146"><ele>125.0</ele><time>2026-05-01T10:45:23Z</time></trkpt><trkpt lat="44.55712707980794" lon="0.8842873055323768"><ele>125.33333333333333</ele><time>2026-05-01T10:45:25Z</time></trkpt><trkpt lat="44.557048930685006" lon="0.884312656635203"><ele>125.66666666666666</ele><time>2026-05-01T10:45:27Z</time></trkpt><trkpt lat="44.55696784801147" lon="0.8843492730844819"><ele>126.0</ele><time>2026-05-01T10:45:29Z</time></trkpt><trkpt lat="44.556906745667405" lon="0.8843797149812893"><ele>126.33333333333334</ele><time>2026-05-01T10:45:30Z</time></trkpt><trkpt lat="44.55681219919946" lon="0.8843607710733635"><ele>126.66666666666667</ele><time>2026-05-01T10:45:33Z</time></trkpt><trkpt lat="44.55675482970464" lon="0.8843107344050176"><ele>127.0</ele><time>2026-05-01T10:45:35Z</time></trkpt><trkpt lat="44.55667858654527" lon="0.8842532285155309"><ele>127.83333333333334</ele><time>2026-05-01T10:45:37Z</time></trkpt><trkpt lat="44.55660639346691" lon="0.884185959596052"><ele>128.66666666666669</ele><time>2026-05-01T10:45:39Z</time></trkpt><trkpt lat="44.55655944426102" lon="0.8841175888979738"><ele>129.5</ele><time>2026-05-01T10:45:41Z</time></trkpt><trkpt lat="44.55655202856388" lon="0.884021294768006"><ele>130.33333333333334</ele><time>2026-05-01T10:45:44Z</time></trkpt><trkpt lat="44.55659701445386" lon="0.883939066927718"><ele>131.16666666666666</ele><time>2026-05-01T10:45:46Z</time></trkpt><trkpt lat="44.556671113856616" lon="0.8838576657010315"><ele>132.0</ele><time>2026-05-01T10:45:48Z</time></trkpt><trkpt lat="44.55675937315926" lon="0.8837653217087115"><ele>132.0</ele><time>2026-05-01T10:45:50Z</time></trkpt><trkpt lat="44.556835912570946" lon="0.8837069620822998"><ele>132.0</ele><time>2026-05-01T10:45:52Z</time></trkpt><trkpt lat="44.55690256658787" lon="0.8836457859592376"><ele>132.0</ele><time>2026-05-01T10:45:54Z</time></trkpt><trkpt lat="44.5569801264079" lon="0.883527314923456"><ele>132.0</ele><time>2026-05-01T10:45:56Z</time></trkpt><trkpt lat="44.5570415030595" lon="0.8834577184264155"><ele>132.0</ele><time>2026-05-01T10:45:57Z</time></trkpt><trkpt lat="44.557098501002436" lon="0.8834021005874925"><ele>132.0</ele><time>2026-05-01T10:45:58Z</time></trkpt><trkpt lat="44.55715922553084" lon="0.8832596395636798"><ele>133.5</ele><time>2026-05-01T10:46:00Z</time></trkpt><trkpt lat="44.557183304522916" lon="0.8831635280101714"><ele>135.0</ele><time>2026-05-01T10:46:01Z</time></trkpt><trkpt lat="44.55723302721687" lon="0.8830686792059496"><ele>136.5</ele><time>2026-05-01T10:46:02Z</time></trkpt><trkpt lat="44.55729028592106" lon="0.8829720357825018"><ele>138.0</ele><time>2026-05-01T10:46:03Z</time></trkpt><trkpt lat="44.55733952512588" lon="0.882875201877568"><ele>139.5</ele><time>2026-05-01T10:46:04Z</time></trkpt><trkpt lat="44.55737307265045" lon="0.8827764436776393"><ele>141.0</ele><time>2026-05-01T10:46:05Z</time></trkpt><trkpt lat="44.557399830341076" lon="0.882671590061646"><ele>142.2</ele><time>2026-05-01T10:46:06Z</time></trkpt><trkpt lat="44.557441880275015" lon="0.8825661282453875"><ele>143.39999999999998</ele><time>2026-05-01T10:46:07Z</time></trkpt><trkpt lat="44.55750156164875" lon="0.8824249752788546"><ele>144.6</ele><time>2026-05-01T10:46:08Z</time></trkpt><trkpt lat="44.557558080827384" lon="0.8823022362271803"><ele>145.79999999999998</ele><time>2026-05-01T10:46:09Z</time></trkpt><trkpt lat="44.557600960326575" lon="0.8822002818890217"><ele>147.0</ele><time>2026-05-01T10:46:10Z</time></trkpt><trkpt lat="44.55763722045615" lon="0.882103391376156"><ele>147.0</ele><time>2026-05-01T10:46:11Z</time></trkpt><trkpt lat="44.55765960108183" lon="0.8819884240488114"><ele>147.0</ele><time>2026-05-01T10:46:12Z</time></trkpt><trkpt lat="44.55768265450074" lon="0.8818866559511428"><ele>147.0</ele><time>2026-05-01T10:46:13Z</time></trkpt><trkpt lat="44.55771414339656" lon="0.88177715348821"><ele>147.0</ele><time>2026-05-01T10:46:14Z</time></trkpt><trkpt lat="44.55774601544555" lon="0.8816534429006275"><ele>147.0</ele><time>2026-05-01T10:46:15Z</time></trkpt><trkpt lat="44.55780250092857" lon="0.881521880202318"><ele>147.0</ele><time>2026-05-01T10:46:16Z</time></trkpt><trkpt lat="44.557842697023325" lon="0.8814293462131991"><ele>149.16666666666666</ele><time>2026-05-01T10:46:17Z</time></trkpt><trkpt lat="44.5578982126583" lon="0.8813373479715567"><ele>151.33333333333334</ele><time>2026-05-01T10:46:18Z</time></trkpt><trkpt lat="44.55794254278642" lon="0.8812047538789046"><ele>153.5</ele><time>2026-05-01T10:46:19Z</time></trkpt><trkpt lat="44.55798306951396" lon="0.8810973058321"><ele>155.66666666666669</ele><time>2026-05-01T10:46:20Z</time></trkpt><trkpt lat="44.55803378327005" lon="0.8810216904511333"><ele>157.83333333333334</ele><time>2026-05-01T10:46:21Z</time></trkpt><trkpt lat="44.558093035065845" lon="0.880934673088721"><ele>160.0</ele><time>2026-05-01T10:46:22Z</time></trkpt><trkpt lat="44.55816581734188" lon="0.8808333017121406"><ele>160.0</ele><time>2026-05-01T10:46:23Z</time></trkpt><trkpt lat="44.55823071084535" lon="0.8807508670580145"><ele>160.0</ele><time>2026-05-01T10:46:24Z</time></trkpt><trkpt lat="44.55828962122437" lon="0.8806940981551886"><ele>160.0</ele><time>2026-05-01T10:46:25Z</time></trkpt><trkpt lat="44.558320254166865" lon="0.8804984965068895"><ele>160.0</ele><time>2026-05-01T10:46:27Z</time></trkpt><trkpt lat="44.55833929031623" lon="0.8803915568196918"><ele>160.0</ele><time>2026-05-01T10:46:28Z</time></trkpt><trkpt lat="44.558350677035044" lon="0.8802826504307375"><ele>160.0</ele><time>2026-05-01T10:46:29Z</time></trkpt><trkpt lat="44.55840779616611" lon="0.8802167082781477"><ele>160.0</ele><time>2026-05-01T10:46:31Z</time></trkpt><trkpt lat="44.558474855660116" lon="0.8801419428238924"><ele>160.0</ele><time>2026-05-01T10:46:32Z</time></trkpt><trkpt lat="44.55852629137628" lon="0.8800765551042029"><ele>160.0</ele><time>2026-05-01T10:46:33Z</time></trkpt><trkpt lat="44.5585700593083" lon="0.8799979065269561"><ele>160.0</ele><time>2026-05-01T10:46:34Z</time></trkpt><trkpt lat="44.55860125079597" lon="0.8799157553026673"><ele>160.0</ele><time>2026-05-01T10:46:35Z</time></trkpt><trkpt lat="44.558647799042454" lon="0.879817321839694"><ele>160.6</ele><time>2026-05-01T10:46:36Z</time></trkpt><trkpt lat="44.55866839177959" lon="0.8797146784869785"><ele>161.2</ele><time>2026-05-01T10:46:37Z</time></trkpt><trkpt lat="44.558686546379455" lon="0.8795834833392113"><ele>161.8</ele><time>2026-05-01T10:46:38Z</time></trkpt><trkpt lat="44.55867584913171" lon="0.8794751173065918"><ele>162.4</ele><time>2026-05-01T10:46:39Z</time></trkpt><trkpt lat="44.55865571617426" lon="0.87933768295906"><ele>163.0</ele><time>2026-05-01T10:46:40Z</time></trkpt><trkpt lat="44.558614091605186" lon="0.879197816209537"><ele>164.83333333333334</ele><time>2026-05-01T10:46:41Z</time></trkpt><trkpt lat="44.55858931043048" lon="0.8790626501261081"><ele>166.66666666666669</ele><time>2026-05-01T10:46:42Z</time></trkpt><trkpt lat="44.558586264589586" lon="0.8789735098598961"><ele>168.5</ele><time>2026-05-01T10:46:43Z</time></trkpt><trkpt lat="44.55853723500061" lon="0.8789087838675265"><ele>170.33333333333334</ele><time>2026-05-01T10:46:45Z</time></trkpt><trkpt lat="44.55848984396927" lon="0.8788472706112611"><ele>172.16666666666666</ele><time>2026-05-01T10:46:46Z</time></trkpt><trkpt lat="44.55841018206025" lon="0.8786941924379341"><ele>174.0</ele><time>2026-05-01T10:46:48Z</time></trkpt><trkpt lat="44.55838095120821" lon="0.8786026660792975"><ele>174.0</ele><time>2026-05-01T10:46:49Z</time></trkpt><trkpt lat="44.55832070296159" lon="0.8785177253327349"><ele>174.0</ele><time>2026-05-01T10:46:50Z</time></trkpt><trkpt lat="44.55825764582828" lon="0.8784172440497512"><ele>174.0</ele><time>2026-05-01T10:46:51Z</time></trkpt><trkpt lat="44.55822116456632" lon="0.8783127892877327"><ele>174.0</ele><time>2026-05-01T10:46:52Z</time></trkpt><trkpt lat="44.55818039811811" lon="0.8782108033894998"><ele>174.0</ele><time>2026-05-01T10:46:53Z</time></trkpt><trkpt lat="44.5581221000492" lon="0.8780775516295732"><ele>173.39999999999998</ele><time>2026-05-01T10:46:55Z</time></trkpt><trkpt lat="44.558008265445295" lon="0.8779966671639982"><ele>172.8</ele><time>2026-05-01T10:46:57Z</time></trkpt><trkpt lat="44.55792314012118" lon="0.8779196602464531"><ele>172.2</ele><time>2026-05-01T10:46:58Z</time></trkpt><trkpt lat="44.557855776708934" lon="0.8778404690179314"><ele>171.60000000000002</ele><time>2026-05-01T10:46:59Z</time></trkpt><trkpt lat="44.55779672566092" lon="0.8777898026188027"><ele>171.0</ele><time>2026-05-01T10:47:00Z</time></trkpt><trkpt lat="44.55772361605585" lon="0.8777381632688795"><ele>171.0</ele><time>2026-05-01T10:47:01Z</time></trkpt><trkpt lat="44.55766382895495" lon="0.8776983029166481"><ele>171.0</ele><time>2026-05-01T10:47:02Z</time></trkpt><trkpt lat="44.557607113487464" lon="0.8776324626225764"><ele>171.0</ele><time>2026-05-01T10:47:03Z</time></trkpt><trkpt lat="44.55754598184034" lon="0.8775756796170012"><ele>171.0</ele><time>2026-05-01T10:47:04Z</time></trkpt><trkpt lat="44.55748756101618" lon="0.87753205570194"><ele>171.0</ele><time>2026-05-01T10:47:05Z</time></trkpt><trkpt lat="44.55741252640224" lon="0.877397003810005"><ele>171.0</ele><time>2026-05-01T10:47:07Z</time></trkpt><trkpt lat="44.55735861986704" lon="0.877349264554882"><ele>170.83333333333334</ele><time>2026-05-01T10:47:08Z</time></trkpt><trkpt lat="44.55729494658749" lon="0.8772833189645857"><ele>170.66666666666666</ele><time>2026-05-01T10:47:09Z</time></trkpt><trkpt lat="44.55722310426598" lon="0.8772130515538631"><ele>170.5</ele><time>2026-05-01T10:47:10Z</time></trkpt><trkpt lat="44.55714146625163" lon="0.8771535148210147"><ele>170.33333333333331</ele><time>2026-05-01T10:47:11Z</time></trkpt><trkpt lat="44.557070760952215" lon="0.8770830871303975"><ele>170.16666666666666</ele><time>2026-05-01T10:47:12Z</time></trkpt><trkpt lat="44.557000615044224" lon="0.8770034616701429"><ele>170.0</ele><time>2026-05-01T10:47:13Z</time></trkpt><trkpt lat="44.556950205770065" lon="0.876935248356151"><ele>170.0</ele><time>2026-05-01T10:47:14Z</time></trkpt><trkpt lat="44.55688317038944" lon="0.876878570554132"><ele>170.0</ele><time>2026-05-01T10:47:16Z</time></trkpt><trkpt lat="44.55677864706543" lon="0.8768155247469837"><ele>170.0</ele><time>2026-05-01T10:47:18Z</time></trkpt><trkpt lat="44.556766115468626" lon="0.8767183379988076"><ele>170.0</ele><time>2026-05-01T10:47:20Z</time></trkpt><trkpt lat="44.556806609236816" lon="0.8765943013315651"><ele>170.0</ele><time>2026-05-01T10:47:22Z</time></trkpt><trkpt lat="44.55682321326815" lon="0.8764907624872842"><ele>170.0</ele><time>2026-05-01T10:47:23Z</time></trkpt><trkpt lat="44.556832364447224" lon="0.8763818691628575"><ele>170.0</ele><time>2026-05-01T10:47:24Z</time></trkpt><trkpt lat="44.55684877823455" lon="0.8762672156202369"><ele>170.0</ele><time>2026-05-01T10:47:25Z</time></trkpt><trkpt lat="44.556873840033816" lon="0.8761590924014674"><ele>170.0</ele><time>2026-05-01T10:47:26Z</time></trkpt><trkpt lat="44.55689118485774" lon="0.876046981937908"><ele>170.0</ele><time>2026-05-01T10:47:27Z</time></trkpt><trkpt lat="44.55691157204513" lon="0.8759201686646184"><ele>170.0</ele><time>2026-05-01T10:47:28Z</time></trkpt><trkpt lat="44.55693586467075" lon="0.8758124737409906"><ele>170.0</ele><time>2026-05-01T10:47:29Z</time></trkpt><trkpt lat="44.55696156595802" lon="0.8757260792291559"><ele>170.0</ele><time>2026-05-01T10:47:30Z</time></trkpt><trkpt lat="44.55697310461979" lon="0.8755826976612573"><ele>170.0</ele><time>2026-05-01T10:47:31Z</time></trkpt><trkpt lat="44.55699113093838" lon="0.8754152467147964"><ele>170.0</ele><time>2026-05-01T10:47:32Z</time></trkpt><trkpt lat="44.55700577274474" lon="0.8752624438489062"><ele>170.0</ele><time>2026-05-01T10:47:33Z</time></trkpt><trkpt lat="44.55701496532139" lon="0.8751617789972913"><ele>170.0</ele><time>2026-05-01T10:47:34Z</time></trkpt><trkpt lat="44.55700612887113" lon="0.8750491262579602"><ele>170.0</ele><time>2026-05-01T10:47:36Z</time></trkpt><trkpt lat="44.5569389853366" lon="0.8750016149540005"><ele>170.0</ele><time>2026-05-01T10:47:38Z</time></trkpt><trkpt lat="44.556860411635746" lon="0.8749322481425439"><ele>170.0</ele><time>2026-05-01T10:47:39Z</time></trkpt><trkpt lat="44.55679057587132" lon="0.874834121008691"><ele>170.0</ele><time>2026-05-01T10:47:40Z</time></trkpt><trkpt lat="44.556706626554146" lon="0.8747243899905469"><ele>170.0</ele><time>2026-05-01T10:47:41Z</time></trkpt><trkpt lat="44.55663566671171" lon="0.8746714817343034"><ele>170.0</ele><time>2026-05-01T10:47:42Z</time></trkpt><trkpt lat="44.55658695388027" lon="0.8745980781182687"><ele>170.0</ele><time>2026-05-01T10:47:43Z</time></trkpt><trkpt lat="44.556520947667835" lon="0.874519492288906"><ele>170.0</ele><time>2026-05-01T10:47:45Z</time></trkpt><trkpt lat="44.55645783005666" lon="0.874465624729276"><ele>170.0</ele><time>2026-05-01T10:47:47Z</time></trkpt><trkpt lat="44.55647193977086" lon="0.8743751425106487"><ele>170.0</ele><time>2026-05-01T10:47:51Z</time></trkpt><trkpt lat="44.556535830996296" lon="0.8743232950443987"><ele>170.0</ele><time>2026-05-01T10:47:53Z</time></trkpt><trkpt lat="44.55665784352665" lon="0.8742331500867687"><ele>169.6</ele><time>2026-05-01T10:47:55Z</time></trkpt><trkpt lat="44.55672714688629" lon="0.8741684020725063"><ele>169.2</ele><time>2026-05-01T10:47:56Z</time></trkpt><trkpt lat="44.55680255718445" lon="0.8740839685519164"><ele>168.8</ele><time>2026-05-01T10:47:57Z</time></trkpt><trkpt lat="44.55689184002863" lon="0.873982561946479"><ele>168.4</ele><time>2026-05-01T10:47:58Z</time></trkpt><trkpt lat="44.55699159872611" lon="0.8738817263310248"><ele>168.0</ele><time>2026-05-01T10:47:59Z</time></trkpt><trkpt lat="44.55708915772898" lon="0.8737740044967212"><ele>168.0</ele><time>2026-05-01T10:48:00Z</time></trkpt><trkpt lat="44.55718462005915" lon="0.8736478725715348"><ele>168.0</ele><time>2026-05-01T10:48:01Z</time></trkpt><trkpt lat="44.55728944174656" lon="0.8735278327708261"><ele>168.0</ele><time>2026-05-01T10:48:02Z</time></trkpt><trkpt lat="44.55740980843466" lon="0.8733954010546996"><ele>168.0</ele><time>2026-05-01T10:48:03Z</time></trkpt><trkpt lat="44.55753509161915" lon="0.8732760875684266"><ele>167.25</ele><time>2026-05-01T10:48:04Z</time></trkpt><trkpt lat="44.5576692522377" lon="0.8731488556568593"><ele>166.5</ele><time>2026-05-01T10:48:05Z</time></trkpt><trkpt lat="44.55779601898077" lon="0.8730404943101365"><ele>165.75</ele><time>2026-05-01T10:48:06Z</time></trkpt><trkpt lat="44.55790490234881" lon="0.8729339982061134"><ele>165.0</ele><time>2026-05-01T10:48:07Z</time></trkpt><trkpt lat="44.5580101909975" lon="0.8728493847994366"><ele>166.5</ele><time>2026-05-01T10:48:08Z</time></trkpt><trkpt lat="44.5581287990666" lon="0.8727907846049977"><ele>168.0</ele><time>2026-05-01T10:48:09Z</time></trkpt><trkpt lat="44.55825780705657" lon="0.872766410294389"><ele>169.5</ele><time>2026-05-01T10:48:10Z</time></trkpt><trkpt lat="44.55840060917089" lon="0.8727642579005203"><ele>171.0</ele><time>2026-05-01T10:48:11Z</time></trkpt><trkpt lat="44.55854777559495" lon="0.8727450454547542"><ele>173.66666666666666</ele><time>2026-05-01T10:48:12Z</time></trkpt><trkpt lat="44.55872256633672" lon="0.8727118306621965"><ele>176.33333333333331</ele><time>2026-05-01T10:48:13Z</time></trkpt><trkpt lat="44.55890021303943" lon="0.8726832419509419"><ele>179.0</ele><time>2026-05-01T10:48:14Z</time></trkpt><trkpt lat="44.55906537935917" lon="0.8726616134739987"><ele>179.0</ele><time>2026-05-01T10:48:15Z</time></trkpt><trkpt lat="44.559218065750755" lon="0.8726397383005836"><ele>179.0</ele><time>2026-05-01T10:48:16Z</time></trkpt><trkpt lat="44.55937331081194" lon="0.8726210841312555"><ele>179.0</ele><time>2026-05-01T10:48:17Z</time></trkpt><trkpt lat="44.55952093114951" lon="0.8726143138986336"><ele>181.33333333333331</ele><time>2026-05-01T10:48:18Z</time></trkpt><trkpt lat="44.55966898431285" lon="0.8726216884419107"><ele>183.66666666666666</ele><time>2026-05-01T10:48:19Z</time></trkpt><trkpt lat="44.5598245630391" lon="0.8726347732172371"><ele>186.0</ele><time>2026-05-01T10:48:20Z</time></trkpt><trkpt lat="44.559973151389144" lon="0.8726382547768058"><ele>186.0</ele><time>2026-05-01T10:48:21Z</time></trkpt><trkpt lat="44.56012479882845" lon="0.8726351508062156"><ele>186.0</ele><time>2026-05-01T10:48:22Z</time></trkpt><trkpt lat="44.56027048271338" lon="0.8726344482397604"><ele>186.0</ele><time>2026-05-01T10:48:23Z</time></trkpt><trkpt lat="44.560414631620155" lon="0.8726383555214724"><ele>186.0</ele><time>2026-05-01T10:48:24Z</time></trkpt><trkpt lat="44.5605519723355" lon="0.8726426874092408"><ele>187.5</ele><time>2026-05-01T10:48:25Z</time></trkpt><trkpt lat="44.560695659469225" lon="0.8726439618745403"><ele>189.0</ele><time>2026-05-01T10:48:26Z</time></trkpt><trkpt lat="44.56082076879945" lon="0.872635206579283"><ele>190.5</ele><time>2026-05-01T10:48:27Z</time></trkpt><trkpt lat="44.560952152101144" lon="0.8726274280438688"><ele>192.0</ele><time>2026-05-01T10:48:28Z</time></trkpt><trkpt lat="44.561090956573395" lon="0.8726293093510691"><ele>191.5</ele><time>2026-05-01T10:48:29Z</time></trkpt><trkpt lat="44.56122607353512" lon="0.8726576664889013"><ele>191.0</ele><time>2026-05-01T10:48:30Z</time></trkpt><trkpt lat="44.561360223851615" lon="0.8726872574672957"><ele>190.5</ele><time>2026-05-01T10:48:31Z</time></trkpt><trkpt lat="44.56150375102563" lon="0.8727152138850481"><ele>190.0</ele><time>2026-05-01T10:48:32Z</time></trkpt><trkpt lat="44.56164898186438" lon="0.8727374888938226"><ele>190.0</ele><time>2026-05-01T10:48:33Z</time></trkpt><trkpt lat="44.56177317295149" lon="0.8727548632140416"><ele>190.0</ele><time>2026-05-01T10:48:34Z</time></trkpt><trkpt lat="44.56188571534152" lon="0.8727673665644019"><ele>190.0</ele><time>2026-05-01T10:48:35Z</time></trkpt><trkpt lat="44.56198781546787" lon="0.8727766910582306"><ele>190.0</ele><time>2026-05-01T10:48:36Z</time></trkpt><trkpt lat="44.56207417981028" lon="0.8728238084820152"><ele>190.0</ele><time>2026-05-01T10:48:37Z</time></trkpt><trkpt lat="44.56218150739968" lon="0.8727673805781165"><ele>190.6</ele><time>2026-05-01T10:48:38Z</time></trkpt><trkpt lat="44.56229040916503" lon="0.872755038301997"><ele>191.2</ele><time>2026-05-01T10:48:39Z</time></trkpt><trkpt lat="44.562392912922014" lon="0.8727375841223559"><ele>191.8</ele><time>2026-05-01T10:48:40Z</time></trkpt><trkpt lat="44.56250043267016" lon="0.8727249571357681"><ele>192.4</ele><time>2026-05-01T10:48:41Z</time></trkpt><trkpt lat="44.56261089942909" lon="0.8727098968396825"><ele>193.0</ele><time>2026-05-01T10:48:42Z</time></trkpt><trkpt lat="44.56272295131421" lon="0.8726910287608011"><ele>193.0</ele><time>2026-05-01T10:48:43Z</time></trkpt><trkpt lat="44.562826400697446" lon="0.8726697059534319"><ele>193.0</ele><time>2026-05-01T10:48:44Z</time></trkpt><trkpt lat="44.56293541534753" lon="0.8726778500819332"><ele>193.0</ele><time>2026-05-01T10:48:45Z</time></trkpt><trkpt lat="44.563024860989124" lon="0.8726572299380574"><ele>193.0</ele><time>2026-05-01T10:48:46Z</time></trkpt><trkpt lat="44.56312511343901" lon="0.8726291346102248"><ele>193.0</ele><time>2026-05-01T10:48:47Z</time></trkpt><trkpt lat="44.56322870776117" lon="0.8725821360672482"><ele>194.0</ele><time>2026-05-01T10:48:48Z</time></trkpt><trkpt lat="44.563376826026484" lon="0.8724947068955833"><ele>195.0</ele><time>2026-05-01T10:48:49Z</time></trkpt><trkpt lat="44.56349385059252" lon="0.8724219999655691"><ele>196.0</ele><time>2026-05-01T10:48:50Z</time></trkpt><trkpt lat="44.56361184401906" lon="0.8723501865878877"><ele>197.0</ele><time>2026-05-01T10:48:51Z</time></trkpt><trkpt lat="44.56372774421755" lon="0.8722834945737833"><ele>197.75</ele><time>2026-05-01T10:48:52Z</time></trkpt><trkpt lat="44.563843299987234" lon="0.8722353908037417"><ele>198.5</ele><time>2026-05-01T10:48:53Z</time></trkpt><trkpt lat="44.56396684281775" lon="0.8721989401027626"><ele>199.25</ele><time>2026-05-01T10:48:54Z</time></trkpt><trkpt lat="44.56409446623938" lon="0.8721683856593415"><ele>200.0</ele><time>2026-05-01T10:48:55Z</time></trkpt><trkpt lat="44.564216688460746" lon="0.8721606641729377"><ele>200.0</ele><time>2026-05-01T10:48:56Z</time></trkpt><trkpt lat="44.564357262798936" lon="0.8721555490358072"><ele>200.0</ele><time>2026-05-01T10:48:57Z</time></trkpt><trkpt lat="44.564499415998924" lon="0.8721493709546112"><ele>200.0</ele><time>2026-05-01T10:48:58Z</time></trkpt><trkpt lat="44.56465171656073" lon="0.8721534208416584"><ele>200.0</ele><time>2026-05-01T10:48:59Z</time></trkpt><trkpt lat="44.56481110506521" lon="0.8721776066551997"><ele>200.66666666666669</ele><time>2026-05-01T10:49:00Z</time></trkpt><trkpt lat="44.56497466405366" lon="0.8721673142117121"><ele>201.33333333333331</ele><time>2026-05-01T10:49:01Z</time></trkpt><trkpt lat="44.565145699183105" lon="0.8721533629284753"><ele>202.0</ele><time>2026-05-01T10:49:02Z</time></trkpt><trkpt lat="44.56531987086695" lon="0.8721597681610666"><ele>202.33333333333331</ele><time>2026-05-01T10:49:03Z</time></trkpt><trkpt lat="44.56549230305184" lon="0.8721473898909343"><ele>202.66666666666669</ele><time>2026-05-01T10:49:04Z</time></trkpt><trkpt lat="44.565666635869725" lon="0.8721248541159805"><ele>203.0</ele><time>2026-05-01T10:49:05Z</time></trkpt><trkpt lat="44.565828576810844" lon="0.872093763650968"><ele>203.0</ele><time>2026-05-01T10:49:06Z</time></trkpt><trkpt lat="44.565990552492394" lon="0.8720861672439499"><ele>203.0</ele><time>2026-05-01T10:49:07Z</time></trkpt><trkpt lat="44.566141354720806" lon="0.8720956598070703"><ele>203.0</ele><time>2026-05-01T10:49:08Z</time></trkpt><trkpt lat="44.566276577898385" lon="0.8720963634812426"><ele>203.0</ele><time>2026-05-01T10:49:09Z</time></trkpt><trkpt lat="44.56640627897166" lon="0.8720682433899754"><ele>202.5</ele><time>2026-05-01T10:49:10Z</time></trkpt><trkpt lat="44.56654462201224" lon="0.8720462958171917"><ele>202.0</ele><time>2026-05-01T10:49:11Z</time></trkpt><trkpt lat="44.56667352016514" lon="0.8720038300601668"><ele>201.5</ele><time>2026-05-01T10:49:12Z</time></trkpt><trkpt lat="44.56678738600997" lon="0.8719674514268838"><ele>201.0</ele><time>2026-05-01T10:49:13Z</time></trkpt><trkpt lat="44.566886515688914" lon="0.8719430866242442"><ele>201.0</ele><time>2026-05-01T10:49:14Z</time></trkpt><trkpt lat="44.56699799139302" lon="0.8719158387337207"><ele>201.0</ele><time>2026-05-01T10:49:15Z</time></trkpt><trkpt lat="44.567124198041036" lon="0.871887114086815"><ele>201.0</ele><time>2026-05-01T10:49:16Z</time></trkpt><trkpt lat="44.56726674897151" lon="0.8718746798262448"><ele>201.0</ele><time>2026-05-01T10:49:17Z</time></trkpt><trkpt lat="44.567412977302325" lon="0.871824935729771"><ele>201.0</ele><time>2026-05-01T10:49:18Z</time></trkpt><trkpt lat="44.56755063442871" lon="0.8717918204990156"><ele>201.0</ele><time>2026-05-01T10:49:19Z</time></trkpt><trkpt lat="44.56768561339701" lon="0.8717609798971822"><ele>201.0</ele><time>2026-05-01T10:49:20Z</time></trkpt><trkpt lat="44.56782252007563" lon="0.8717296728057233"><ele>201.0</ele><time>2026-05-01T10:49:21Z</time></trkpt><trkpt lat="44.567951118079954" lon="0.8716972509526459"><ele>201.25</ele><time>2026-05-01T10:49:22Z</time></trkpt><trkpt lat="44.56808333998119" lon="0.8716543692397641"><ele>201.5</ele><time>2026-05-01T10:49:23Z</time></trkpt><trkpt lat="44.568200610208436" lon="0.8716052015888249"><ele>201.75</ele><time>2026-05-01T10:49:24Z</time></trkpt><trkpt lat="44.56831693358707" lon="0.871561972557786"><ele>202.0</ele><time>2026-05-01T10:49:25Z</time></trkpt><trkpt lat="44.56844847988624" lon="0.8715400878735816"><ele>202.0</ele><time>2026-05-01T10:49:26Z</time></trkpt><trkpt lat="44.56858861702615" lon="0.8715328950689234"><ele>202.0</ele><time>2026-05-01T10:49:27Z</time></trkpt><trkpt lat="44.56873222449798" lon="0.8715704713757277"><ele>202.0</ele><time>2026-05-01T10:49:28Z</time></trkpt><trkpt lat="44.5688732496609" lon="0.8715378279396419"><ele>202.0</ele><time>2026-05-01T10:49:29Z</time></trkpt><trkpt lat="44.56901048571056" lon="0.8715137603338865"><ele>201.75</ele><time>2026-05-01T10:49:30Z</time></trkpt><trkpt lat="44.56916078275284" lon="0.8714766089527209"><ele>201.5</ele><time>2026-05-01T10:49:31Z</time></trkpt><trkpt lat="44.56930463605615" lon="0.8714430842272789"><ele>201.25</ele><time>2026-05-01T10:49:32Z</time></trkpt><trkpt lat="44.569444756270975" lon="0.8714232532156165"><ele>201.0</ele><time>2026-05-01T10:49:33Z</time></trkpt><trkpt lat="44.56958852770903" lon="0.8714069675438036"><ele>202.0</ele><time>2026-05-01T10:49:34Z</time></trkpt><trkpt lat="44.56971747846898" lon="0.871400694715746"><ele>203.0</ele><time>2026-05-01T10:49:35Z</time></trkpt><trkpt lat="44.56984802672228" lon="0.8713845264186387"><ele>204.0</ele><time>2026-05-01T10:49:36Z</time></trkpt><trkpt lat="44.56998283783471" lon="0.8713384293458714"><ele>205.0</ele><time>2026-05-01T10:49:37Z</time></trkpt><trkpt lat="44.57011990170864" lon="0.8712738601558995"><ele>205.0</ele><time>2026-05-01T10:49:38Z</time></trkpt><trkpt lat="44.570249481470924" lon="0.8711989681063379"><ele>205.0</ele><time>2026-05-01T10:49:39Z</time></trkpt><trkpt lat="44.57037755998371" lon="0.8711670455518615"><ele>205.0</ele><time>2026-05-01T10:49:40Z</time></trkpt><trkpt lat="44.57048180865694" lon="0.8711158379426367"><ele>205.0</ele><time>2026-05-01T10:49:41Z</time></trkpt><trkpt lat="44.57058759988005" lon="0.8710296892310367"><ele>205.25</ele><time>2026-05-01T10:49:42Z</time></trkpt><trkpt lat="44.57071478700226" lon="0.8709526129487278"><ele>205.5</ele><time>2026-05-01T10:49:43Z</time></trkpt><trkpt lat="44.57083222602039" lon="0.8708475477714841"><ele>205.75</ele><time>2026-05-01T10:49:44Z</time></trkpt><trkpt lat="44.57094275263573" lon="0.8707469456456246"><ele>206.0</ele><time>2026-05-01T10:49:45Z</time></trkpt><trkpt lat="44.57103887050764" lon="0.8706117579965902"><ele>205.25</ele><time>2026-05-01T10:49:46Z</time></trkpt><trkpt lat="44.57113877757816" lon="0.8704603338572177"><ele>204.5</ele><time>2026-05-01T10:49:47Z</time></trkpt><trkpt lat="44.57123085669537" lon="0.8703391788718593"><ele>203.75</ele><time>2026-05-01T10:49:48Z</time></trkpt><trkpt lat="44.57130146424416" lon="0.8702415995512215"><ele>203.0</ele><time>2026-05-01T10:49:49Z</time></trkpt><trkpt lat="44.57137265786869" lon="0.8701644028159465"><ele>203.0</ele><time>2026-05-01T10:49:50Z</time></trkpt><trkpt lat="44.57144002911181" lon="0.8700732279993938"><ele>203.0</ele><time>2026-05-01T10:49:51Z</time></trkpt><trkpt lat="44.57150821824087" lon="0.8700160865983834"><ele>203.0</ele><time>2026-05-01T10:49:52Z</time></trkpt><trkpt lat="44.57157542983539" lon="0.8699942054950447"><ele>203.0</ele><time>2026-05-01T10:49:53Z</time></trkpt><trkpt lat="44.57163954930126" lon="0.8700139673072605"><ele>203.0</ele><time>2026-05-01T10:49:55Z</time></trkpt><trkpt lat="44.571594762586926" lon="0.8702454876943895"><ele>203.0</ele><time>2026-05-01T10:49:58Z</time></trkpt><trkpt lat="44.571560302654696" lon="0.8703683099883027"><ele>203.0</ele><time>2026-05-01T10:49:59Z</time></trkpt><trkpt lat="44.5715233654278" lon="0.8704999618516278"><ele>203.0</ele><time>2026-05-01T10:50:00Z</time></trkpt><trkpt lat="44.57148205974795" lon="0.8706471840707048"><ele>203.0</ele><time>2026-05-01T10:50:01Z</time></trkpt><trkpt lat="44.571436721444634" lon="0.8708106277835704"><ele>203.0</ele><time>2026-05-01T10:50:02Z</time></trkpt><trkpt lat="44.57140447099276" lon="0.8709888404609886"><ele>203.75</ele><time>2026-05-01T10:50:03Z</time></trkpt><trkpt lat="44.57134551141058" lon="0.8711674844264132"><ele>204.5</ele><time>2026-05-01T10:50:04Z</time></trkpt><trkpt lat="44.571303291980456" lon="0.8713470295680494"><ele>205.25</ele><time>2026-05-01T10:50:05Z</time></trkpt><trkpt lat="44.5712273012434" lon="0.8715086944334695"><ele>206.0</ele><time>2026-05-01T10:50:06Z</time></trkpt><trkpt lat="44.571150855922525" lon="0.8716699214980342"><ele>206.75</ele><time>2026-05-01T10:50:07Z</time></trkpt><trkpt lat="44.57106271259684" lon="0.8717891854192023"><ele>207.5</ele><time>2026-05-01T10:50:08Z</time></trkpt><trkpt lat="44.570969702028776" lon="0.8718940785416972"><ele>208.25</ele><time>2026-05-01T10:50:09Z</time></trkpt><trkpt lat="44.57086099741448" lon="0.8719765454021804"><ele>209.0</ele><time>2026-05-01T10:50:10Z</time></trkpt><trkpt lat="44.57075483173535" lon="0.8720542292696445"><ele>209.0</ele><time>2026-05-01T10:50:11Z</time></trkpt><trkpt lat="44.57066474785535" lon="0.8721437324299686"><ele>209.0</ele><time>2026-05-01T10:50:12Z</time></trkpt><trkpt lat="44.57055225783012" lon="0.8721966020874707"><ele>209.0</ele><time>2026-05-01T10:50:13Z</time></trkpt><trkpt lat="44.5704338985263" lon="0.8722734583393676"><ele>209.0</ele><time>2026-05-01T10:50:14Z</time></trkpt><trkpt lat="44.570313129877924" lon="0.87234395786877"><ele>209.25</ele><time>2026-05-01T10:50:15Z</time></trkpt><trkpt lat="44.57018856833399" lon="0.8724057474915425"><ele>209.5</ele><time>2026-05-01T10:50:16Z</time></trkpt><trkpt lat="44.57005986263758" lon="0.8724646859201649"><ele>209.75</ele><time>2026-05-01T10:50:17Z</time></trkpt><trkpt lat="44.56992752694781" lon="0.8725214281666697"><ele>210.0</ele><time>2026-05-01T10:50:18Z</time></trkpt><trkpt lat="44.569795091124305" lon="0.8725784606038578"><ele>210.25</ele><time>2026-05-01T10:50:19Z</time></trkpt><trkpt lat="44.56966275364695" lon="0.8726597203189983"><ele>210.5</ele><time>2026-05-01T10:50:20Z</time></trkpt><trkpt lat="44.56952770680649" lon="0.8727315085125662"><ele>210.75</ele><time>2026-05-01T10:50:21Z</time></trkpt><trkpt lat="44.56939313170639" lon="0.8728139443233423"><ele>211.0</ele><time>2026-05-01T10:50:22Z</time></trkpt><trkpt lat="44.56926909977516" lon="0.8729184554050338"><ele>210.0</ele><time>2026-05-01T10:50:23Z</time></trkpt><trkpt lat="44.5691609612028" lon="0.8730545131385922"><ele>209.0</ele><time>2026-05-01T10:50:24Z</time></trkpt><trkpt lat="44.56905660548181" lon="0.8732114284539442"><ele>208.0</ele><time>2026-05-01T10:50:25Z</time></trkpt><trkpt lat="44.568959304089134" lon="0.8733799898370925"><ele>207.33333333333331</ele><time>2026-05-01T10:50:26Z</time></trkpt><trkpt lat="44.568845434776385" lon="0.8735342031527218"><ele>206.66666666666669</ele><time>2026-05-01T10:50:27Z</time></trkpt><trkpt lat="44.56875450435802" lon="0.8737272936264874"><ele>206.0</ele><time>2026-05-01T10:50:28Z</time></trkpt><trkpt lat="44.568663080971454" lon="0.87390314733124"><ele>204.0</ele><time>2026-05-01T10:50:29Z</time></trkpt><trkpt lat="44.568580976066" lon="0.8740915436784296"><ele>202.0</ele><time>2026-05-01T10:50:30Z</time></trkpt><trkpt lat="44.56848519006682" lon="0.8742751359650986"><ele>200.0</ele><time>2026-05-01T10:50:31Z</time></trkpt><trkpt lat="44.568399695203496" lon="0.8744829011076273"><ele>198.66666666666669</ele><time>2026-05-01T10:50:32Z</time></trkpt><trkpt lat="44.568316302912464" lon="0.8746797947625836"><ele>197.33333333333331</ele><time>2026-05-01T10:50:33Z</time></trkpt><trkpt lat="44.56822868708923" lon="0.8748900720971906"><ele>196.0</ele><time>2026-05-01T10:50:34Z</time></trkpt><trkpt lat="44.56814798839516" lon="0.8750903334337858"><ele>196.0</ele><time>2026-05-01T10:50:35Z</time></trkpt><trkpt lat="44.568077277645436" lon="0.8752736932721913"><ele>196.0</ele><time>2026-05-01T10:50:36Z</time></trkpt><trkpt lat="44.56800380693413" lon="0.8754499262633256"><ele>196.0</ele><time>2026-05-01T10:50:37Z</time></trkpt><trkpt lat="44.56792701522312" lon="0.875635251685383"><ele>196.0</ele><time>2026-05-01T10:50:38Z</time></trkpt><trkpt lat="44.56785611206077" lon="0.8758063659538818"><ele>194.75</ele><time>2026-05-01T10:50:39Z</time></trkpt><trkpt lat="44.5677855983109" lon="0.8759926827570343"><ele>193.5</ele><time>2026-05-01T10:50:40Z</time></trkpt><trkpt lat="44.56772485119325" lon="0.8761768582117481"><ele>192.25</ele><time>2026-05-01T10:50:41Z</time></trkpt><trkpt lat="44.5676679859346" lon="0.8763638086232707"><ele>191.0</ele><time>2026-05-01T10:50:42Z</time></trkpt><trkpt lat="44.56762200152879" lon="0.8765528939727785"><ele>191.0</ele><time>2026-05-01T10:50:43Z</time></trkpt><trkpt lat="44.56758752864059" lon="0.8767449181655005"><ele>191.0</ele><time>2026-05-01T10:50:44Z</time></trkpt><trkpt lat="44.5675699801171" lon="0.8769314857680435"><ele>191.0</ele><time>2026-05-01T10:50:45Z</time></trkpt><trkpt lat="44.56752746373608" lon="0.8771134373921698"><ele>191.0</ele><time>2026-05-01T10:50:46Z</time></trkpt><trkpt lat="44.567496179056576" lon="0.8773054085697745"><ele>191.75</ele><time>2026-05-01T10:50:47Z</time></trkpt><trkpt lat="44.56746149443793" lon="0.8775030008478538"><ele>192.5</ele><time>2026-05-01T10:50:48Z</time></trkpt><trkpt lat="44.567424782708535" lon="0.8777121413240458"><ele>193.25</ele><time>2026-05-01T10:50:49Z</time></trkpt><trkpt lat="44.56740457016518" lon="0.8779208785725554"><ele>194.0</ele><time>2026-05-01T10:50:50Z</time></trkpt><trkpt lat="44.56736599204418" lon="0.8781210737352177"><ele>195.66666666666669</ele><time>2026-05-01T10:50:51Z</time></trkpt><trkpt lat="44.56733526003664" lon="0.8783254946006649"><ele>197.33333333333331</ele><time>2026-05-01T10:50:52Z</time></trkpt><trkpt lat="44.56730214672128" lon="0.8785376015776359"><ele>199.0</ele><time>2026-05-01T10:50:53Z</time></trkpt><trkpt lat="44.56727135811559" lon="0.8787478577919289"><ele>199.33333333333331</ele><time>2026-05-01T10:50:54Z</time></trkpt><trkpt lat="44.56723755677171" lon="0.8789622009877079"><ele>199.66666666666669</ele><time>2026-05-01T10:50:55Z</time></trkpt><trkpt lat="44.56719037738825" lon="0.8791648624365875"><ele>200.0</ele><time>2026-05-01T10:50:56Z</time></trkpt><trkpt lat="44.56715888567352" lon="0.8793740090137195"><ele>200.66666666666669</ele><time>2026-05-01T10:50:57Z</time></trkpt><trkpt lat="44.56714257011153" lon="0.8795785666067"><ele>201.33333333333331</ele><time>2026-05-01T10:50:58Z</time></trkpt><trkpt lat="44.56709950236256" lon="0.8797800116696417"><ele>202.0</ele><time>2026-05-01T10:50:59Z</time></trkpt><trkpt lat="44.567081199117844" lon="0.8799948622104276"><ele>201.66666666666666</ele><time>2026-05-01T10:51:00Z</time></trkpt><trkpt lat="44.567031855036134" lon="0.8801962093241318"><ele>201.33333333333331</ele><time>2026-05-01T10:51:01Z</time></trkpt><trkpt lat="44.56698526614782" lon="0.8804106868290602"><ele>201.0</ele><time>2026-05-01T10:51:02Z</time></trkpt><trkpt lat="44.56693243067191" lon="0.8806132155475035"><ele>199.5</ele><time>2026-05-01T10:51:03Z</time></trkpt><trkpt lat="44.566879332965875" lon="0.8808054026981672"><ele>198.0</ele><time>2026-05-01T10:51:04Z</time></trkpt><trkpt lat="44.56684740277404" lon="0.8809811000317703"><ele>196.5</ele><time>2026-05-01T10:51:05Z</time></trkpt><trkpt lat="44.56678253584046" lon="0.8811488706821596"><ele>195.0</ele><time>2026-05-01T10:51:06Z</time></trkpt><trkpt lat="44.56672942455968" lon="0.8813328419818077"><ele>195.0</ele><time>2026-05-01T10:51:07Z</time></trkpt><trkpt lat="44.56667173833728" lon="0.8815124431340998"><ele>195.0</ele><time>2026-05-01T10:51:08Z</time></trkpt><trkpt lat="44.56660519948595" lon="0.8816968615404862"><ele>195.0</ele><time>2026-05-01T10:51:09Z</time></trkpt><trkpt lat="44.56653037245465" lon="0.8818901949590515"><ele>195.0</ele><time>2026-05-01T10:51:10Z</time></trkpt><trkpt lat="44.566455551003294" lon="0.8820661529363807"><ele>194.0</ele><time>2026-05-01T10:51:11Z</time></trkpt><trkpt lat="44.566378848056075" lon="0.8822370306094424"><ele>193.0</ele><time>2026-05-01T10:51:12Z</time></trkpt><trkpt lat="44.56631887257132" lon="0.8823991233050105"><ele>192.0</ele><time>2026-05-01T10:51:13Z</time></trkpt><trkpt lat="44.566225959447884" lon="0.8825251195706488"><ele>191.0</ele><time>2026-05-01T10:51:14Z</time></trkpt><trkpt lat="44.56613901537199" lon="0.8826561803539077"><ele>191.0</ele><time>2026-05-01T10:51:15Z</time></trkpt><trkpt lat="44.56603867903029" lon="0.882786128436375"><ele>191.0</ele><time>2026-05-01T10:51:16Z</time></trkpt><trkpt lat="44.565938504292255" lon="0.8829419517568508"><ele>191.0</ele><time>2026-05-01T10:51:17Z</time></trkpt><trkpt lat="44.56584335415411" lon="0.8831011483389255"><ele>191.0</ele><time>2026-05-01T10:51:18Z</time></trkpt><trkpt lat="44.56577543464229" lon="0.8832656359498968"><ele>187.25</ele><time>2026-05-01T10:51:19Z</time></trkpt><trkpt lat="44.56572179551381" lon="0.8834311831259583"><ele>183.5</ele><time>2026-05-01T10:51:20Z</time></trkpt><trkpt lat="44.56566402414694" lon="0.8835886215755877"><ele>179.75</ele><time>2026-05-01T10:51:21Z</time></trkpt><trkpt lat="44.56559829518187" lon="0.8837468385465873"><ele>176.0</ele><time>2026-05-01T10:51:22Z</time></trkpt><trkpt lat="44.565504498891684" lon="0.8838778278486907"><ele>176.0</ele><time>2026-05-01T10:51:23Z</time></trkpt><trkpt lat="44.56541180568558" lon="0.8840085454102451"><ele>176.0</ele><time>2026-05-01T10:51:24Z</time></trkpt><trkpt lat="44.56530545488584" lon="0.8841229569764077"><ele>176.0</ele><time>2026-05-01T10:51:25Z</time></trkpt><trkpt lat="44.56521171312727" lon="0.8842231545510306"><ele>176.0</ele><time>2026-05-01T10:51:26Z</time></trkpt><trkpt lat="44.56511186949425" lon="0.8843116276449597"><ele>173.5</ele><time>2026-05-01T10:51:27Z</time></trkpt><trkpt lat="44.56500296565813" lon="0.8843857358900791"><ele>171.0</ele><time>2026-05-01T10:51:28Z</time></trkpt><trkpt lat="44.56487927270317" lon="0.8844300198251257"><ele>168.5</ele><time>2026-05-01T10:51:29Z</time></trkpt><trkpt lat="44.564752881922004" lon="0.8844536275450942"><ele>166.0</ele><time>2026-05-01T10:51:30Z</time></trkpt><trkpt lat="44.56461851417493" lon="0.8844914765255952"><ele>165.25</ele><time>2026-05-01T10:51:31Z</time></trkpt><trkpt lat="44.56448814254893" lon="0.8845068021944481"><ele>164.5</ele><time>2026-05-01T10:51:32Z</time></trkpt><trkpt lat="44.56436627474225" lon="0.8845395903432121"><ele>163.75</ele><time>2026-05-01T10:51:33Z</time></trkpt><trkpt lat="44.56423061900852" lon="0.8845771972514216"><ele>163.0</ele><time>2026-05-01T10:51:34Z</time></trkpt><trkpt lat="44.56409127294132" lon="0.8846195109101"><ele>163.0</ele><time>2026-05-01T10:51:35Z</time></trkpt><trkpt lat="44.56395094579172" lon="0.884666846573858"><ele>163.0</ele><time>2026-05-01T10:51:36Z</time></trkpt><trkpt lat="44.5638033402707" lon="0.8847127511502402"><ele>163.0</ele><time>2026-05-01T10:51:37Z</time></trkpt><trkpt lat="44.56366675934488" lon="0.8847516981675206"><ele>163.0</ele><time>2026-05-01T10:51:38Z</time></trkpt><trkpt lat="44.56353596685379" lon="0.8847821949339956"><ele>161.5</ele><time>2026-05-01T10:51:39Z</time></trkpt><trkpt lat="44.56340019369108" lon="0.8847806946304648"><ele>160.0</ele><time>2026-05-01T10:51:40Z</time></trkpt><trkpt lat="44.56326859638426" lon="0.8848012171539867"><ele>158.5</ele><time>2026-05-01T10:51:41Z</time></trkpt><trkpt lat="44.56314174751244" lon="0.8847934287056605"><ele>157.0</ele><time>2026-05-01T10:51:42Z</time></trkpt><trkpt lat="44.56302091745022" lon="0.8848042622185265"><ele>157.0</ele><time>2026-05-01T10:51:43Z</time></trkpt><trkpt lat="44.562912121823004" lon="0.8848688498665657"><ele>157.0</ele><time>2026-05-01T10:51:44Z</time></trkpt><trkpt lat="44.56281001474168" lon="0.884995795067859"><ele>157.0</ele><time>2026-05-01T10:51:45Z</time></trkpt><trkpt lat="44.562708786977666" lon="0.8851500187406951"><ele>157.0</ele><time>2026-05-01T10:51:46Z</time></trkpt><trkpt lat="44.56259556402686" lon="0.8852933653123987"><ele>152.0</ele><time>2026-05-01T10:51:47Z</time></trkpt><trkpt lat="44.56246030764729" lon="0.8854001806654719"><ele>147.0</ele><time>2026-05-01T10:51:48Z</time></trkpt><trkpt lat="44.56233832103924" lon="0.8855368407516703"><ele>142.0</ele><time>2026-05-01T10:51:49Z</time></trkpt><trkpt lat="44.56221452118353" lon="0.8856507481090377"><ele>142.0</ele><time>2026-05-01T10:51:50Z</time></trkpt><trkpt lat="44.56209634432332" lon="0.8857814451489461"><ele>142.0</ele><time>2026-05-01T10:51:51Z</time></trkpt><trkpt lat="44.56197592598595" lon="0.885897063133742"><ele>142.0</ele><time>2026-05-01T10:51:52Z</time></trkpt><trkpt lat="44.561853950490274" lon="0.8860060166727103"><ele>142.0</ele><time>2026-05-01T10:51:53Z</time></trkpt><trkpt lat="44.5617384126487" lon="0.8861220903065119"><ele>139.6</ele><time>2026-05-01T10:51:54Z</time></trkpt><trkpt lat="44.56163607624044" lon="0.8862347976119874"><ele>137.2</ele><time>2026-05-01T10:51:55Z</time></trkpt><trkpt lat="44.56154980825071" lon="0.8863440838827964"><ele>134.8</ele><time>2026-05-01T10:51:56Z</time></trkpt><trkpt lat="44.56148279915207" lon="0.886435826034888"><ele>132.4</ele><time>2026-05-01T10:51:57Z</time></trkpt><trkpt lat="44.561411440452794" lon="0.8865086718600714"><ele>130.0</ele><time>2026-05-01T10:51:58Z</time></trkpt><trkpt lat="44.561344460175455" lon="0.8865509355579774"><ele>130.0</ele><time>2026-05-01T10:51:59Z</time></trkpt><trkpt lat="44.56128213256316" lon="0.8865376432972046"><ele>130.0</ele><time>2026-05-01T10:52:00Z</time></trkpt><trkpt lat="44.56120582241524" lon="0.8864701021398781"><ele>130.0</ele><time>2026-05-01T10:52:01Z</time></trkpt><trkpt lat="44.56113757592442" lon="0.8863615109452292"><ele>130.0</ele><time>2026-05-01T10:52:02Z</time></trkpt><trkpt lat="44.56106330718351" lon="0.8862293707043548"><ele>130.0</ele><time>2026-05-01T10:52:03Z</time></trkpt><trkpt lat="44.56096782794905" lon="0.8860803644314197"><ele>130.75</ele><time>2026-05-01T10:52:04Z</time></trkpt><trkpt lat="44.56087508574845" lon="0.8859323399883933"><ele>131.5</ele><time>2026-05-01T10:52:05Z</time></trkpt><trkpt lat="44.56079949930504" lon="0.8857990830706124"><ele>132.25</ele><time>2026-05-01T10:52:06Z</time></trkpt><trkpt lat="44.56072630679084" lon="0.885687349159023"><ele>133.0</ele><time>2026-05-01T10:52:07Z</time></trkpt><trkpt lat="44.56063136217575" lon="0.8856067537261241"><ele>133.0</ele><time>2026-05-01T10:52:08Z</time></trkpt><trkpt lat="44.560525660734235" lon="0.8855783607943303"><ele>133.0</ele><time>2026-05-01T10:52:09Z</time></trkpt><trkpt lat="44.5604388859334" lon="0.8855799358263039"><ele>133.0</ele><time>2026-05-01T10:52:10Z</time></trkpt><trkpt lat="44.56037493700068" lon="0.885604284950242"><ele>133.0</ele><time>2026-05-01T10:52:12Z</time></trkpt><trkpt lat="44.56030025011115" lon="0.885613212215154"><ele>133.0</ele><time>2026-05-01T10:52:20Z</time></trkpt><trkpt lat="44.56023383741883" lon="0.8856437840980985"><ele>133.0</ele><time>2026-05-01T10:52:22Z</time></trkpt><trkpt lat="44.56016871027949" lon="0.8856982976753557"><ele>130.0</ele><time>2026-05-01T10:52:24Z</time></trkpt></trkseg><trkseg><trkpt lat="44.5600883531232" lon="0.8858711181101367"><ele>129.66666666666669</ele><time>2026-05-01T11:57:49Z</time></trkpt><trkpt lat="44.56007570809237" lon="0.8859845758681619"><ele>129.33333333333334</ele><time>2026-05-01T11:57:50Z</time></trkpt><trkpt lat="44.56006697019244" lon="0.8861168317873516"><ele>129.0</ele><time>2026-05-01T11:57:51Z</time></trkpt><trkpt lat="44.56007845175003" lon="0.8862125942148732"><ele>128.66666666666666</ele><time>2026-05-01T11:57:52Z</time></trkpt><trkpt lat="44.56007197311438" lon="0.8863158406491493"><ele>128.33333333333331</ele><time>2026-05-01T11:57:53Z</time></trkpt><trkpt lat="44.56006927767072" lon="0.8864065019726979"><ele>128.0</ele><time>2026-05-01T11:57:54Z</time></trkpt><trkpt lat="44.56006849668713" lon="0.8865006003047987"><ele>127.99999999999999</ele><time>2026-05-01T11:57:55Z</time></trkpt><trkpt lat="44.560066550025816" lon="0.8866163005602634"><ele>128.0</ele><time>2026-05-01T11:57:56Z</time></trkpt><trkpt lat="44.560054602760246" lon="0.886727769202263"><ele>128.0</ele><time>2026-05-01T11:57:57Z</time></trkpt><trkpt lat="44.56001307127051" lon="0.8868241122385915"><ele>128.0</ele><time>2026-05-01T11:57:58Z</time></trkpt><trkpt lat="44.55997990908461" lon="0.8869246918917891"><ele>127.99999999999999</ele><time>2026-05-01T11:57:59Z</time></trkpt><trkpt lat="44.55996042069438" lon="0.8870247900101471"><ele>128.0</ele><time>2026-05-01T11:58:00Z</time></trkpt><trkpt lat="44.55989033572867" lon="0.8871998461230793"><ele>128.5</ele><time>2026-05-01T11:58:02Z</time></trkpt><trkpt lat="44.559849195622405" lon="0.8872909019248156"><ele>129.0</ele><time>2026-05-01T11:58:03Z</time></trkpt><trkpt lat="44.559816654156045" lon="0.8873952329578116"><ele>129.5</ele><time>2026-05-01T11:58:04Z</time></trkpt><trkpt lat="44.5597777113453" lon="0.8874962258290094"><ele>130.0</ele><time>2026-05-01T11:58:05Z</time></trkpt><trkpt lat="44.55975131520146" lon="0.8875966989931948"><ele>130.5</ele><time>2026-05-01T11:58:06Z</time></trkpt><trkpt lat="44.55974033961103" lon="0.8876977933743495"><ele>131.0</ele><time>2026-05-01T11:58:07Z</time></trkpt><trkpt lat="44.559733690823094" lon="0.8877883885031568"><ele>134.2</ele><time>2026-05-01T11:58:09Z</time></trkpt><trkpt lat="44.55977087409315" lon="0.8879385437985062"><ele>137.39999999999998</ele><time>2026-05-01T11:58:11Z</time></trkpt><trkpt lat="44.55978702523208" lon="0.8880982052409122"><ele>140.6</ele><time>2026-05-01T11:58:13Z</time></trkpt><trkpt lat="44.55981968039301" lon="0.888210499945121"><ele>143.79999999999998</ele><time>2026-05-01T11:58:15Z</time></trkpt><trkpt lat="44.55987441653393" lon="0.8883414773131687"><ele>147.0</ele><time>2026-05-01T11:58:17Z</time></trkpt><trkpt lat="44.55992905747705" lon="0.8884542428501633"><ele>149.66666666666666</ele><time>2026-05-01T11:58:18Z</time></trkpt><trkpt lat="44.55996604144602" lon="0.8885452206786189"><ele>152.33333333333334</ele><time>2026-05-01T11:58:19Z</time></trkpt><trkpt lat="44.560038446930314" lon="0.8886768279246277"><ele>155.0</ele><time>2026-05-01T11:58:21Z</time></trkpt><trkpt lat="44.56009334962722" lon="0.8887747220547391"><ele>157.66666666666669</ele><time>2026-05-01T11:58:22Z</time></trkpt><trkpt lat="44.56014626133974" lon="0.8888502571400967"><ele>160.33333333333334</ele><time>2026-05-01T11:58:23Z</time></trkpt><trkpt lat="44.56020921876968" lon="0.8889057325298952"><ele>163.0</ele><time>2026-05-01T11:58:24Z</time></trkpt><trkpt lat="44.56026131715069" lon="0.8889727010935725"><ele>163.0</ele><time>2026-05-01T11:58:25Z</time></trkpt><trkpt lat="44.56035597627388" lon="0.8890710471760468"><ele>163.0</ele><time>2026-05-01T11:58:26Z</time></trkpt><trkpt lat="44.56043887738259" lon="0.889144394866557"><ele>163.0</ele><time>2026-05-01T11:58:27Z</time></trkpt><trkpt lat="44.560518036086705" lon="0.889210206356316"><ele>163.0</ele><time>2026-05-01T11:58:28Z</time></trkpt><trkpt lat="44.560596798899056" lon="0.889274301363134"><ele>163.0</ele><time>2026-05-01T11:58:29Z</time></trkpt><trkpt lat="44.56068080255408" lon="0.8893216938339882"><ele>164.4</ele><time>2026-05-01T11:58:30Z</time></trkpt><trkpt lat="44.56076408632575" lon="0.889412135667802"><ele>165.8</ele><time>2026-05-01T11:58:31Z</time></trkpt><trkpt lat="44.56085060042302" lon="0.8894779526198571"><ele>167.2</ele><time>2026-05-01T11:58:32Z</time></trkpt><trkpt lat="44.560930329145926" lon="0.8895358853716412"><ele>168.6</ele><time>2026-05-01T11:58:33Z</time></trkpt><trkpt lat="44.56101269437881" lon="0.8895930266638806"><ele>170.0</ele><time>2026-05-01T11:58:34Z</time></trkpt><trkpt lat="44.5610895031708" lon="0.8896425119957797"><ele>170.0</ele><time>2026-05-01T11:58:35Z</time></trkpt><trkpt lat="44.56116163911797" lon="0.889688778871897"><ele>170.0</ele><time>2026-05-01T11:58:36Z</time></trkpt><trkpt lat="44.56700296100408" lon="0.8910056364605787"><ele>171.0</ele><time>2026-05-01T11:59:37Z</time></trkpt><trkpt lat="44.56713685870124" lon="0.8910009972332752"><ele>172.0</ele><time>2026-05-01T11:59:38Z</time></trkpt><trkpt lat="44.56727146101886" lon="0.8909465694380689"><ele>173.0</ele><time>2026-05-01T11:59:39Z</time></trkpt><trkpt lat="44.56740639614389" lon="0.8908880547566748"><ele>174.0</ele><time>2026-05-01T11:59:40Z</time></trkpt><trkpt lat="44.567521956319965" lon="0.8908430799902397"><ele>175.39999999999998</ele><time>2026-05-01T11:59:41Z</time></trkpt><trkpt lat="44.567636597664624" lon="0.890800655094877"><ele>176.8</ele><time>2026-05-01T11:59:42Z</time></trkpt><trkpt lat="44.5677483661303" lon="0.8907632865015788"><ele>178.2</ele><time>2026-05-01T11:59:43Z</time></trkpt><trkpt lat="44.567854234001864" lon="0.8907116386901156"><ele>179.60000000000002</ele><time>2026-05-01T11:59:44Z</time></trkpt><trkpt lat="44.567956174335045" lon="0.8906945221080255"><ele>181.0</ele><time>2026-05-01T11:59:45Z</time></trkpt><trkpt lat="44.56804997729906" lon="0.8906703379669544"><ele>181.0</ele><time>2026-05-01T11:59:46Z</time></trkpt><trkpt lat="44.56813728453807" lon="0.8906494032062816"><ele>181.0</ele><time>2026-05-01T11:59:46.999Z</time></trkpt><trkpt lat="44.56822016895903" lon="0.8906507652504072"><ele>181.0</ele><time>2026-05-01T11:59:47.999Z</time></trkpt><trkpt lat="44.568303894762884" lon="0.8907191124630082"><ele>181.0</ele><time>2026-05-01T11:59:48.999Z</time></trkpt><trkpt lat="44.5683996211084" lon="0.8907660627717388"><ele>181.0</ele><time>2026-05-01T11:59:49.999Z</time></trkpt><trkpt lat="44.56851530353407" lon="0.8908201239975289"><ele>181.0</ele><time>2026-05-01T11:59:50.999Z</time></trkpt><trkpt lat="44.56862922421401" lon="0.890880545843712"><ele>181.0</ele><time>2026-05-01T11:59:51.999Z</time></trkpt><trkpt lat="44.568727690632834" lon="0.8909377055237278"><ele>181.0</ele><time>2026-05-01T11:59:52.999Z</time></trkpt><trkpt lat="44.56882583060069" lon="0.8909854293181962"><ele>181.0</ele><time>2026-05-01T11:59:53.999Z</time></trkpt><trkpt lat="44.56892881589817" lon="0.8910138173553852"><ele>181.0</ele><time>2026-05-01T11:59:54.999Z</time></trkpt><trkpt lat="44.56903235490036" lon="0.891007308556613"><ele>180.25</ele><time>2026-05-01T11:59:55.999Z</time></trkpt><trkpt lat="44.569150439924655" lon="0.8909710375582631"><ele>179.5</ele><time>2026-05-01T11:59:56.999Z</time></trkpt><trkpt lat="44.569261017379475" lon="0.890912300724981"><ele>178.75</ele><time>2026-05-01T11:59:57.999Z</time></trkpt><trkpt lat="44.56937506974549" lon="0.8908506469991359"><ele>178.0</ele><time>2026-05-01T11:59:58.999Z</time></trkpt><trkpt lat="44.569475764301835" lon="0.890834763279692"><ele>177.2</ele><time>2026-05-01T11:59:59.999Z</time></trkpt><trkpt lat="44.569552952862054" lon="0.8908528904919039"><ele>176.4</ele><time>2026-05-01T12:00:00.999Z</time></trkpt><trkpt lat="44.56964144386002" lon="0.8909143736160939"><ele>175.6</ele><time>2026-05-01T12:00:03Z</time></trkpt><trkpt lat="44.56971930444092" lon="0.8909252600012486"><ele>174.79999999999998</ele><time>2026-05-01T12:00:05Z</time></trkpt><trkpt lat="44.569853442010235" lon="0.8909589500439473"><ele>174.0</ele><time>2026-05-01T12:00:07Z</time></trkpt><trkpt lat="44.56999486900217" lon="0.8905983178170852"><ele>174.0</ele><time>2026-05-01T12:00:08Z</time></trkpt><trkpt lat="44.57007090685193" lon="0.890529960850347"><ele>174.0</ele><time>2026-05-01T12:00:09Z</time></trkpt><trkpt lat="44.570135339828965" lon="0.8904493125536924"><ele>174.0</ele><time>2026-05-01T12:00:10Z</time></trkpt><trkpt lat="44.5701982220896" lon="0.8903303343337053"><ele>174.0</ele><time>2026-05-01T12:00:11Z</time></trkpt><trkpt lat="44.57027114842518" lon="0.8902329274440708"><ele>174.0</ele><time>2026-05-01T12:00:12Z</time></trkpt><trkpt lat="44.570392870861646" lon="0.8901121780027178"><ele>174.2</ele><time>2026-05-01T12:00:13Z</time></trkpt><trkpt lat="44.57049244548316" lon="0.890003038438352"><ele>174.39999999999998</ele><time>2026-05-01T12:00:14Z</time></trkpt><trkpt lat="44.570552272616546" lon="0.889906306667276"><ele>174.6</ele><time>2026-05-01T12:00:15Z</time></trkpt><trkpt lat="44.570601553717225" lon="0.8898065024463863"><ele>174.8</ele><time>2026-05-01T12:00:16Z</time></trkpt><trkpt lat="44.57062458173766" lon="0.8896944720270872"><ele>175.0</ele><time>2026-05-01T12:00:17Z</time></trkpt><trkpt lat="44.57066815607147" lon="0.8895675038236585"><ele>175.0</ele><time>2026-05-01T12:00:18Z</time></trkpt><trkpt lat="44.57072920314142" lon="0.889469368682516"><ele>175.0</ele><time>2026-05-01T12:00:19Z</time></trkpt><trkpt lat="44.57077653761089" lon="0.8893501552615164"><ele>175.0</ele><time>2026-05-01T12:00:20Z</time></trkpt><trkpt lat="44.570870141603315" lon="0.8892196592406754"><ele>175.0</ele><time>2026-05-01T12:00:21Z</time></trkpt><trkpt lat="44.57094833943437" lon="0.8890707933652067"><ele>175.4</ele><time>2026-05-01T12:00:22Z</time></trkpt><trkpt lat="44.57100297321102" lon="0.8889471126342168"><ele>175.8</ele><time>2026-05-01T12:00:23Z</time></trkpt><trkpt lat="44.571059130566134" lon="0.8888574244518529"><ele>176.2</ele><time>2026-05-01T12:00:24Z</time></trkpt><trkpt lat="44.57112930504494" lon="0.8887612742818534"><ele>176.6</ele><time>2026-05-01T12:00:25Z</time></trkpt><trkpt lat="44.571210087795194" lon="0.8886846910069465"><ele>177.0</ele><time>2026-05-01T12:00:26Z</time></trkpt><trkpt lat="44.57121481977336" lon="0.8884464210741673"><ele>178.6</ele><time>2026-05-01T12:00:27Z</time></trkpt><trkpt lat="44.571286885346005" lon="0.8883901127204109"><ele>180.2</ele><time>2026-05-01T12:00:28Z</time></trkpt><trkpt lat="44.571370787955196" lon="0.88832664921497"><ele>181.8</ele><time>2026-05-01T12:00:29Z</time></trkpt><trkpt lat="44.57143147581735" lon="0.8882842965754368"><ele>183.4</ele><time>2026-05-01T12:00:30Z</time></trkpt><trkpt lat="44.571496575471706" lon="0.8881959682035678"><ele>185.0</ele><time>2026-05-01T12:00:31Z</time></trkpt><trkpt lat="44.571601356987244" lon="0.888132154264892"><ele>185.0</ele><time>2026-05-01T12:00:33Z</time></trkpt><trkpt lat="44.5716664865142" lon="0.8880778546550541"><ele>185.0</ele><time>2026-05-01T12:00:34Z</time></trkpt><trkpt lat="44.57173067766929" lon="0.8879721167192693"><ele>185.0</ele><time>2026-05-01T12:00:35Z</time></trkpt><trkpt lat="44.57180269822527" lon="0.8878895301743558"><ele>185.0</ele><time>2026-05-01T12:00:36Z</time></trkpt><trkpt lat="44.5760416646844" lon="0.8855404778620057"><ele>210.0</ele><time>2026-05-01T12:01:20Z</time></trkpt><trkpt lat="44.577963091850954" lon="0.8850302714883854"><ele>210.0</ele><time>2026-05-01T12:01:37Z</time></trkpt><trkpt lat="44.57806578047061" lon="0.8849918268737164"><ele>210.0</ele><time>2026-05-01T12:01:38Z</time></trkpt><trkpt lat="44.57816959399288" lon="0.8849729047324314"><ele>210.0</ele><time>2026-05-01T12:01:39Z</time></trkpt><trkpt lat="44.5782567893706" lon="0.8849693832420937"><ele>210.0</ele><time>2026-05-01T12:01:40Z</time></trkpt><trkpt lat="44.578339970700874" lon="0.8849971513560703"><ele>210.0</ele><time>2026-05-01T12:01:41Z</time></trkpt><trkpt lat="44.57842704314194" lon="0.8850220097639789"><ele>210.0</ele><time>2026-05-01T12:01:42Z</time></trkpt><trkpt lat="44.57852638771795" lon="0.8848761455605625"><ele>210.0</ele><time>2026-05-01T12:01:43Z</time></trkpt><trkpt lat="44.57863739307067" lon="0.8848009242477582"><ele>210.0</ele><time>2026-05-01T12:01:44Z</time></trkpt><trkpt lat="44.57876959934392" lon="0.8847191261745152"><ele>210.0</ele><time>2026-05-01T12:01:45Z</time></trkpt><trkpt lat="44.578894720778585" lon="0.8846289127234158"><ele>209.0</ele><time>2026-05-01T12:01:46Z</time></trkpt><trkpt lat="44.57901076509319" lon="0.8845152361742454"><ele>208.0</ele><time>2026-05-01T12:01:47Z</time></trkpt><trkpt lat="44.579113983007666" lon="0.8844339122515407"><ele>207.0</ele><time>2026-05-01T12:01:48Z</time></trkpt><trkpt lat="44.57922057209307" lon="0.8843635149925847"><ele>206.0</ele><time>2026-05-01T12:01:49Z</time></trkpt><trkpt lat="44.579309742879595" lon="0.884270957700729"><ele>205.4</ele><time>2026-05-01T12:01:50Z</time></trkpt><trkpt lat="44.57936065743705" lon="0.8841930018345416"><ele>204.8</ele><time>2026-05-01T12:01:51Z</time></trkpt><trkpt lat="44.579455777619735" lon="0.8840804660957765"><ele>204.20000000000002</ele><time>2026-05-01T12:01:52.999Z</time></trkpt><trkpt lat="44.57951991944678" lon="0.8839833081316243"><ele>203.60000000000002</ele><time>2026-05-01T12:01:53.999Z</time></trkpt><trkpt lat="44.5795948836479" lon="0.8838697572368085"><ele>203.0</ele><time>2026-05-01T12:01:54.999Z</time></trkpt><trkpt lat="44.57967566546162" lon="0.8837473942379473"><ele>202.66666666666669</ele><time>2026-05-01T12:01:55.999Z</time></trkpt><trkpt lat="44.579914543959454" lon="0.8838470875311233"><ele>202.33333333333331</ele><time>2026-05-01T12:01:56.999Z</time></trkpt><trkpt lat="44.58002292396379" lon="0.8837899892748841"><ele>202.0</ele><time>2026-05-01T12:01:57.999Z</time></trkpt><trkpt lat="44.580114162661296" lon="0.8837409292083925"><ele>201.99999999999997</ele><time>2026-05-01T12:01:58.999Z</time></trkpt><trkpt lat="44.580202434697" lon="0.8836948682157992"><ele>202.0</ele><time>2026-05-01T12:01:59.999Z</time></trkpt><trkpt lat="44.58027528345467" lon="0.883654635839153"><ele>202.0</ele><time>2026-05-01T12:02:00.999Z</time></trkpt><trkpt lat="44.58035420223497" lon="0.8836100448387686"><ele>202.0</ele><time>2026-05-01T12:02:02Z</time></trkpt><trkpt lat="44.58042543898076" lon="0.8835716274054098"><ele>201.99999999999997</ele><time>2026-05-01T12:02:03Z</time></trkpt><trkpt lat="44.580500490612565" lon="0.8835345083198942"><ele>202.0</ele><time>2026-05-01T12:02:04Z</time></trkpt><trkpt lat="44.58059144888771" lon="0.8834789675795246"><ele>201.83333333333331</ele><time>2026-05-01T12:02:05Z</time></trkpt><trkpt lat="44.58068020190959" lon="0.8834368177653806"><ele>201.66666666666666</ele><time>2026-05-01T12:02:06Z</time></trkpt><trkpt lat="44.58076100582808" lon="0.8834007415838037"><ele>201.5</ele><time>2026-05-01T12:02:07Z</time></trkpt><trkpt lat="44.58083742343728" lon="0.8833586343306172"><ele>201.33333333333331</ele><time>2026-05-01T12:02:08Z</time></trkpt><trkpt lat="44.58090093281742" lon="0.8833210835549645"><ele>201.16666666666666</ele><time>2026-05-01T12:02:09Z</time></trkpt><trkpt lat="44.58096896579261" lon="0.8832869747158621"><ele>201.0</ele><time>2026-05-01T12:02:10Z</time></trkpt><trkpt lat="44.581078388048866" lon="0.8832388824547256"><ele>201.0</ele><time>2026-05-01T12:02:12Z</time></trkpt><trkpt lat="44.58116944813502" lon="0.8831909780625979"><ele>201.0</ele><time>2026-05-01T12:02:14Z</time></trkpt><trkpt lat="44.58122910630894" lon="0.8831402604844587"><ele>201.0</ele><time>2026-05-01T12:02:15Z</time></trkpt><trkpt lat="44.58128868688652" lon="0.8830802194989346"><ele>201.0</ele><time>2026-05-01T12:02:16Z</time></trkpt><trkpt lat="44.58135207967995" lon="0.8830300116930877"><ele>201.0</ele><time>2026-05-01T12:02:17Z</time></trkpt><trkpt lat="44.58140435785073" lon="0.8829636603784792"><ele>201.0</ele><time>2026-05-01T12:02:18Z</time></trkpt><trkpt lat="44.58146438897819" lon="0.8828790135220952"><ele>200.83333333333334</ele><time>2026-05-01T12:02:19Z</time></trkpt><trkpt lat="44.581510294572745" lon="0.8828137643386941"><ele>200.66666666666669</ele><time>2026-05-01T12:02:20Z</time></trkpt><trkpt lat="44.581578223249444" lon="0.8827186367988281"><ele>200.5</ele><time>2026-05-01T12:02:22Z</time></trkpt><trkpt lat="44.58163544905443" lon="0.8826127446823436"><ele>200.33333333333334</ele><time>2026-05-01T12:02:24Z</time></trkpt><trkpt lat="44.58171605859499" lon="0.8825048503802047"><ele>200.16666666666669</ele><time>2026-05-01T12:02:26Z</time></trkpt><trkpt lat="44.581787518111625" lon="0.8825349392084871"><ele>200.0</ele><time>2026-05-01T12:02:28Z</time></trkpt><trkpt lat="44.581851749914996" lon="0.8825586151729737"><ele>199.0</ele><time>2026-05-01T12:02:29Z</time></trkpt><trkpt lat="44.58191588508289" lon="0.882543211416789"><ele>198.0</ele><time>2026-05-01T12:02:30Z</time></trkpt><trkpt lat="44.5819994111693" lon="0.8824915025463146"><ele>197.0</ele><time>2026-05-01T12:02:31Z</time></trkpt><trkpt lat="44.58207272495297" lon="0.8824273046745806"><ele>196.0</ele><time>2026-05-01T12:02:32Z</time></trkpt><trkpt lat="44.58213306665288" lon="0.8823729463501986"><ele>195.0</ele><time>2026-05-01T12:02:33Z</time></trkpt><trkpt lat="44.58225433287238" lon="0.8822883111105035"><ele>191.5</ele><time>2026-05-01T12:02:35Z</time></trkpt><trkpt lat="44.5823319790499" lon="0.8822560859123334"><ele>188.0</ele><time>2026-05-01T12:02:36Z</time></trkpt><trkpt lat="44.58747617861685" lon="0.8808464068702612"><ele>180.6</ele><time>2026-05-01T12:03:37Z</time></trkpt><trkpt lat="44.587618285554484" lon="0.8807770820698624"><ele>173.20000000000002</ele><time>2026-05-01T12:03:39Z</time></trkpt><trkpt lat="44.58772880243994" lon="0.880827423596695"><ele>165.8</ele><time>2026-05-01T12:03:41Z</time></trkpt><trkpt lat="44.58780596027164" lon="0.880849056529869"><ele>158.4</ele><time>2026-05-01T12:03:42Z</time></trkpt><trkpt lat="44.58787831853591" lon="0.8808961558200236"><ele>151.0</ele><time>2026-05-01T12:03:44Z</time></trkpt><trkpt lat="44.58796624701213" lon="0.8808840943322799"><ele>150.6</ele><time>2026-05-01T12:03:46Z</time></trkpt><trkpt lat="44.5880252863365" lon="0.8809277004876123"><ele>150.2</ele><time>2026-05-01T12:03:50Z</time></trkpt><trkpt lat="44.5880731053414" lon="0.881014383267125"><ele>149.8</ele><time>2026-05-01T12:04:02Z</time></trkpt><trkpt lat="44.58822321014093" lon="0.8810526110281403"><ele>149.4</ele><time>2026-05-01T12:04:04Z</time></trkpt><trkpt lat="44.58833316214903" lon="0.881060203398458"><ele>149.0</ele><time>2026-05-01T12:04:05Z</time></trkpt><trkpt lat="44.58841538678906" lon="0.8810527125974639"><ele>149.75</ele><time>2026-05-01T12:04:06Z</time></trkpt><trkpt lat="44.588532983212446" lon="0.8810381990443658"><ele>150.5</ele><time>2026-05-01T12:04:08Z</time></trkpt><trkpt lat="44.58869364064034" lon="0.8809356384509115"><ele>151.25</ele><time>2026-05-01T12:04:10Z</time></trkpt><trkpt lat="44.58878004600701" lon="0.880869505171175"><ele>152.0</ele><time>2026-05-01T12:04:11Z</time></trkpt><trkpt lat="44.58883968289637" lon="0.8808003441645386"><ele>152.4</ele><time>2026-05-01T12:04:12Z</time></trkpt><trkpt lat="44.58891203899405" lon="0.8807019054212996"><ele>152.79999999999998</ele><time>2026-05-01T12:04:14Z</time></trkpt><trkpt lat="44.588842254239665" lon="0.8805796993298236"><ele>153.2</ele><time>2026-05-01T12:04:27Z</time></trkpt><trkpt lat="44.58879267739661" lon="0.8804870909247502"><ele>153.6</ele><time>2026-05-01T12:04:28Z</time></trkpt><trkpt lat="44.58873211806889" lon="0.8803562101428691"><ele>154.0</ele><time>2026-05-01T12:04:29Z</time></trkpt><trkpt lat="44.588660734628384" lon="0.8802152169587327"><ele>153.25</ele><time>2026-05-01T12:04:30Z</time></trkpt><trkpt lat="44.58858553526318" lon="0.8800736633519358"><ele>152.5</ele><time>2026-05-01T12:04:31Z</time></trkpt><trkpt lat="44.58851707523" lon="0.8799327355692277"><ele>151.75</ele><time>2026-05-01T12:04:32Z</time></trkpt><trkpt lat="44.588442869595696" lon="0.8797904847986713"><ele>151.0</ele><time>2026-05-01T12:04:33Z</time></trkpt><trkpt lat="44.588364158820006" lon="0.8796578034991285"><ele>151.0</ele><time>2026-05-01T12:04:34Z</time></trkpt><trkpt lat="44.58827316309312" lon="0.8795428220622543"><ele>151.0</ele><time>2026-05-01T12:04:35Z</time></trkpt><trkpt lat="44.58817229271297" lon="0.8794483390295654"><ele>151.0</ele><time>2026-05-01T12:04:36Z</time></trkpt><trkpt lat="44.58346598718504" lon="0.8767775335738657"><ele>152.8</ele><time>2026-05-01T12:05:37Z</time></trkpt><trkpt lat="44.58343082314941" lon="0.8766941532994109"><ele>154.6</ele><time>2026-05-01T12:05:38Z</time></trkpt><trkpt lat="44.58338137860903" lon="0.8766126355123864"><ele>156.4</ele><time>2026-05-01T12:05:39Z</time></trkpt><trkpt lat="44.58329645819262" lon="0.8765294946148684"><ele>158.2</ele><time>2026-05-01T12:05:41Z</time></trkpt><trkpt lat="44.58319738361392" lon="0.8764958748724622"><ele>160.0</ele><time>2026-05-01T12:05:43Z</time></trkpt><trkpt lat="44.58310335625572" lon="0.8763962048275582"><ele>160.0</ele><time>2026-05-01T12:05:45Z</time></trkpt><trkpt lat="44.58306340832389" lon="0.8763274667822246"><ele>160.0</ele><time>2026-05-01T12:05:46Z</time></trkpt><trkpt lat="44.582993695247104" lon="0.8761932564563736"><ele>160.0</ele><time>2026-05-01T12:05:47Z</time></trkpt><trkpt lat="44.58288780182606" lon="0.8760505813856762"><ele>160.0</ele><time>2026-05-01T12:05:49Z</time></trkpt><trkpt lat="44.58283713705128" lon="0.8759692537604088"><ele>160.0</ele><time>2026-05-01T12:05:50Z</time></trkpt><trkpt lat="44.58279097504123" lon="0.8758671514612523"><ele>161.0</ele><time>2026-05-01T12:05:51Z</time></trkpt><trkpt lat="44.58275694787161" lon="0.8757553804376812"><ele>162.0</ele><time>2026-05-01T12:05:52Z</time></trkpt><trkpt lat="44.58272318981418" lon="0.8756562695588058"><ele>163.0</ele><time>2026-05-01T12:05:53Z</time></trkpt><trkpt lat="44.582703977642" lon="0.8755056276166832"><ele>164.0</ele><time>2026-05-01T12:05:54Z</time></trkpt><trkpt lat="44.58266624377626" lon="0.8753617828694974"><ele>165.0</ele><time>2026-05-01T12:05:55Z</time></trkpt><trkpt lat="44.5826415027758" lon="0.8752530708173019"><ele>165.0</ele><time>2026-05-01T12:05:56Z</time></trkpt><trkpt lat="44.58263097066716" lon="0.8751648081906178"><ele>165.0</ele><time>2026-05-01T12:05:57Z</time></trkpt><trkpt lat="44.58265957713013" lon="0.8749931856451617"><ele>165.0</ele><time>2026-05-01T12:05:59Z</time></trkpt><trkpt lat="44.582675280721965" lon="0.8748799946895472"><ele>165.0</ele><time>2026-05-01T12:06:01Z</time></trkpt><trkpt lat="44.582695842860204" lon="0.8747875225451545"><ele>165.0</ele><time>2026-05-01T12:06:02Z</time></trkpt><trkpt lat="44.58270032878851" lon="0.8746903259075708"><ele>165.0</ele><time>2026-05-01T12:06:21Z</time></trkpt><trkpt lat="44.58187256802131" lon="0.8736584687066137"><ele>163.5</ele><time>2026-05-01T12:08:37Z</time></trkpt><trkpt lat="44.581820482998104" lon="0.8735526810437267"><ele>162.0</ele><time>2026-05-01T12:08:38Z</time></trkpt><trkpt lat="44.581777199117326" lon="0.8734789368938922"><ele>160.5</ele><time>2026-05-01T12:08:39Z</time></trkpt><trkpt lat="44.58172202031402" lon="0.8733886463668477"><ele>159.0</ele><time>2026-05-01T12:08:40Z</time></trkpt><trkpt lat="44.581697405980535" lon="0.8732921288859232"><ele>157.5</ele><time>2026-05-01T12:08:42Z</time></trkpt><trkpt lat="44.581699873145105" lon="0.8731794442467665"><ele>156.0</ele><time>2026-05-01T12:08:44Z</time></trkpt><trkpt lat="44.581707801053504" lon="0.8730400203860353"><ele>156.0</ele><time>2026-05-01T12:08:46Z</time></trkpt><trkpt lat="44.58164696347299" lon="0.872914137041948"><ele>156.0</ele><time>2026-05-01T12:08:48Z</time></trkpt><trkpt lat="44.58162301627742" lon="0.8728053277789486"><ele>156.0</ele><time>2026-05-01T12:08:50Z</time></trkpt><trkpt lat="44.581569841525784" lon="0.8727102408170918"><ele>156.0</ele><time>2026-05-01T12:08:53Z</time></trkpt><trkpt lat="44.58155838210839" lon="0.8725910872738872"><ele>156.0</ele><time>2026-05-01T12:08:56Z</time></trkpt><trkpt lat="44.58153957854325" lon="0.8725019032408886"><ele>156.0</ele><time>2026-05-01T12:08:57Z</time></trkpt><trkpt lat="44.58153439596781" lon="0.8724136311478391"><ele>157.83333333333334</ele><time>2026-05-01T12:08:58Z</time></trkpt><trkpt lat="44.58150520714849" lon="0.872319224451813"><ele>159.66666666666666</ele><time>2026-05-01T12:08:59Z</time></trkpt><trkpt lat="44.58149214884721" lon="0.87215672475926"><ele>161.5</ele><time>2026-05-01T12:09:01Z</time></trkpt><trkpt lat="44.58147041344924" lon="0.8720489875102381"><ele>163.33333333333331</ele><time>2026-05-01T12:09:02Z</time></trkpt><trkpt lat="44.58146556786394" lon="0.871896133351312"><ele>165.16666666666666</ele><time>2026-05-01T12:09:04Z</time></trkpt><trkpt lat="44.581473726140246" lon="0.8717972014960307"><ele>167.0</ele><time>2026-05-01T12:09:05Z</time></trkpt><trkpt lat="44.5814739328968" lon="0.8716018050788689"><ele>167.33333333333331</ele><time>2026-05-01T12:09:07Z</time></trkpt><trkpt lat="44.58148109228645" lon="0.8714984147410005"><ele>167.66666666666666</ele><time>2026-05-01T12:09:08Z</time></trkpt><trkpt lat="44.58147439700605" lon="0.8714019499229999"><ele>168.0</ele><time>2026-05-01T12:09:09Z</time></trkpt><trkpt lat="44.58143098413402" lon="0.8713191031648946"><ele>168.33333333333334</ele><time>2026-05-01T12:09:10Z</time></trkpt><trkpt lat="44.58140590074877" lon="0.8712015481802462"><ele>168.66666666666669</ele><time>2026-05-01T12:09:11Z</time></trkpt><trkpt lat="44.581375493436525" lon="0.8710567793112244"><ele>169.0</ele><time>2026-05-01T12:09:12Z</time></trkpt><trkpt lat="44.581361956617194" lon="0.8709239252554608"><ele>167.79999999999998</ele><time>2026-05-01T12:09:13Z</time></trkpt><trkpt lat="44.581343667877235" lon="0.8707632988478338"><ele>166.6</ele><time>2026-05-01T12:09:14Z</time></trkpt><trkpt lat="44.58133004270347" lon="0.8706120907300969"><ele>165.4</ele><time>2026-05-01T12:09:15Z</time></trkpt><trkpt lat="44.58132397930728" lon="0.8704574150515102"><ele>164.2</ele><time>2026-05-01T12:09:16Z</time></trkpt><trkpt lat="44.58130313394279" lon="0.8703465219572103"><ele>163.0</ele><time>2026-05-01T12:09:17Z</time></trkpt><trkpt lat="44.581281959711596" lon="0.8702436986103789"><ele>163.0</ele><time>2026-05-01T12:09:18Z</time></trkpt><trkpt lat="44.58127032748975" lon="0.8701289572628098"><ele>163.0</ele><time>2026-05-01T12:09:19Z</time></trkpt><trkpt lat="44.58125115275243" lon="0.8700020762753756"><ele>163.0</ele><time>2026-05-01T12:09:20Z</time></trkpt><trkpt lat="44.58120008896187" lon="0.8699095450294496"><ele>163.0</ele><time>2026-05-01T12:09:21Z</time></trkpt><trkpt lat="44.581113061723826" lon="0.8698020000479588"><ele>163.0</ele><time>2026-05-01T12:09:22Z</time></trkpt><trkpt lat="44.581039603505204" lon="0.8696976458494058"><ele>164.2</ele><time>2026-05-01T12:09:23Z</time></trkpt><trkpt lat="44.58096388654902" lon="0.8696295750897083"><ele>165.4</ele><time>2026-05-01T12:09:24Z</time></trkpt><trkpt lat="44.580905033336066" lon="0.8695409464595293"><ele>166.6</ele><time>2026-05-01T12:09:25Z</time></trkpt><trkpt lat="44.58084727987534" lon="0.8694513245807665"><ele>167.79999999999998</ele><time>2026-05-01T12:09:26Z</time></trkpt><trkpt lat="44.58077855047521" lon="0.869330014578126"><ele>169.0</ele><time>2026-05-01T12:09:27Z</time></trkpt><trkpt lat="44.58070406434684" lon="0.8692201652881181"><ele>169.0</ele><time>2026-05-01T12:09:28Z</time></trkpt><trkpt lat="44.58064348984547" lon="0.8691410085352841"><ele>169.0</ele><time>2026-05-01T12:09:29Z</time></trkpt><trkpt lat="44.58059170850352" lon="0.8690524517589283"><ele>169.0</ele><time>2026-05-01T12:09:30Z</time></trkpt><trkpt lat="44.58054990753917" lon="0.8689720232802098"><ele>169.0</ele><time>2026-05-01T12:09:31Z</time></trkpt><trkpt lat="44.58050901683736" lon="0.8688216192628166"><ele>169.0</ele><time>2026-05-01T12:09:33Z</time></trkpt><trkpt lat="44.58054224207539" lon="0.8686423640516449"><ele>169.0</ele><time>2026-05-01T12:09:35Z</time></trkpt><trkpt lat="44.580553838637975" lon="0.868549144642798"><ele>169.0</ele><time>2026-05-01T12:09:36Z</time></trkpt><trkpt lat="44.58405835268277" lon="0.8685581004450449"><ele>169.75</ele><time>2026-05-01T12:10:37Z</time></trkpt><trkpt lat="44.58418206681761" lon="0.8685727098219839"><ele>170.5</ele><time>2026-05-01T12:10:38Z</time></trkpt><trkpt lat="44.5843113060685" lon="0.8685833027148852"><ele>171.25</ele><time>2026-05-01T12:10:39Z</time></trkpt><trkpt lat="44.584434511722925" lon="0.8685882513103305"><ele>172.0</ele><time>2026-05-01T12:10:40Z</time></trkpt><trkpt lat="44.58455539947374" lon="0.8685770711480367"><ele>173.0</ele><time>2026-05-01T12:10:41Z</time></trkpt><trkpt lat="44.5846787854311" lon="0.8685409163874602"><ele>174.0</ele><time>2026-05-01T12:10:42Z</time></trkpt><trkpt lat="44.58479050806201" lon="0.8684695853637314"><ele>175.0</ele><time>2026-05-01T12:10:43Z</time></trkpt><trkpt lat="44.584896860121916" lon="0.868382799016348"><ele>176.0</ele><time>2026-05-01T12:10:44Z</time></trkpt><trkpt lat="44.58501135301909" lon="0.868294730161271"><ele>176.0</ele><time>2026-05-01T12:10:45Z</time></trkpt><trkpt lat="44.58512842129231" lon="0.8682104339275782"><ele>176.0</ele><time>2026-05-01T12:10:46Z</time></trkpt><trkpt lat="44.58524672663681" lon="0.8681284581673978"><ele>176.0</ele><time>2026-05-01T12:10:47Z</time></trkpt><trkpt lat="44.585365924476264" lon="0.8680473189725411"><ele>176.0</ele><time>2026-05-01T12:10:48Z</time></trkpt><trkpt lat="44.58548326399632" lon="0.8679654079937653"><ele>176.5</ele><time>2026-05-01T12:10:49Z</time></trkpt><trkpt lat="44.585599892835084" lon="0.8678813172142721"><ele>177.0</ele><time>2026-05-01T12:10:50Z</time></trkpt><trkpt lat="44.585721033138306" lon="0.8677801985587686"><ele>177.5</ele><time>2026-05-01T12:10:51Z</time></trkpt><trkpt lat="44.58583721497361" lon="0.8676572512430475"><ele>178.0</ele><time>2026-05-01T12:10:52Z</time></trkpt><trkpt lat="44.5859542395234" lon="0.8675042066009753"><ele>178.0</ele><time>2026-05-01T12:10:53Z</time></trkpt><trkpt lat="44.58606450123232" lon="0.8673398012656331"><ele>178.0</ele><time>2026-05-01T12:10:54Z</time></trkpt><trkpt lat="44.586168098693044" lon="0.8671741778124427"><ele>178.0</ele><time>2026-05-01T12:10:55Z</time></trkpt><trkpt lat="44.586276263088486" lon="0.8670009772747846"><ele>180.33333333333334</ele><time>2026-05-01T12:10:56Z</time></trkpt><trkpt lat="44.58637598494228" lon="0.8668331334401161"><ele>182.66666666666666</ele><time>2026-05-01T12:10:57Z</time></trkpt><trkpt lat="44.58648388606438" lon="0.8666662980662498"><ele>185.0</ele><time>2026-05-01T12:10:58Z</time></trkpt><trkpt lat="44.586596676476084" lon="0.8664951746520954"><ele>185.0</ele><time>2026-05-01T12:10:59Z</time></trkpt><trkpt lat="44.58670873153423" lon="0.866317815737734"><ele>185.0</ele><time>2026-05-01T12:11:00Z</time></trkpt><trkpt lat="44.586823418712434" lon="0.8661349437535687"><ele>185.0</ele><time>2026-05-01T12:11:01Z</time></trkpt><trkpt lat="44.58692456079408" lon="0.8659709747148927"><ele>186.5</ele><time>2026-05-01T12:11:02Z</time></trkpt><trkpt lat="44.58701685262956" lon="0.8658249330901892"><ele>188.0</ele><time>2026-05-01T12:11:03Z</time></trkpt><trkpt lat="44.58710900092278" lon="0.8657156559028415"><ele>189.5</ele><time>2026-05-01T12:11:04Z</time></trkpt><trkpt lat="44.58721226762556" lon="0.8655983249695768"><ele>191.0</ele><time>2026-05-01T12:11:05Z</time></trkpt><trkpt lat="44.58733726498401" lon="0.8654938272760987"><ele>191.0</ele><time>2026-05-01T12:11:06Z</time></trkpt><trkpt lat="44.587480602442916" lon="0.8654011568626334"><ele>191.0</ele><time>2026-05-01T12:11:07Z</time></trkpt><trkpt lat="44.58761592770046" lon="0.8653211054652313"><ele>191.0</ele><time>2026-05-01T12:11:08Z</time></trkpt><trkpt lat="44.58774784671166" lon="0.865215722913395"><ele>190.0</ele><time>2026-05-01T12:11:09Z</time></trkpt><trkpt lat="44.58787490281115" lon="0.865130759942613"><ele>189.0</ele><time>2026-05-01T12:11:10Z</time></trkpt><trkpt lat="44.587998386422065" lon="0.8650167940860207"><ele>188.0</ele><time>2026-05-01T12:11:11Z</time></trkpt><trkpt lat="44.58812586158643" lon="0.8648693652148305"><ele>186.0</ele><time>2026-05-01T12:11:12Z</time></trkpt><trkpt lat="44.58823686251397" lon="0.86471293948083"><ele>184.0</ele><time>2026-05-01T12:11:13Z</time></trkpt><trkpt lat="44.58833429659715" lon="0.8645368293293527"><ele>182.0</ele><time>2026-05-01T12:11:14Z</time></trkpt><trkpt lat="44.58841599112326" lon="0.8643573415625456"><ele>182.0</ele><time>2026-05-01T12:11:15Z</time></trkpt><trkpt lat="44.58851589586863" lon="0.8641722122632606"><ele>182.0</ele><time>2026-05-01T12:11:16Z</time></trkpt><trkpt lat="44.588602048663844" lon="0.8640015543789691"><ele>182.0</ele><time>2026-05-01T12:11:17Z</time></trkpt><trkpt lat="44.58868025915694" lon="0.8638026212833416"><ele>181.33333333333331</ele><time>2026-05-01T12:11:18Z</time></trkpt><trkpt lat="44.58875335034455" lon="0.8635806317246151"><ele>180.66666666666666</ele><time>2026-05-01T12:11:19Z</time></trkpt><trkpt lat="44.588816766141775" lon="0.8633879468796366"><ele>180.0</ele><time>2026-05-01T12:11:20Z</time></trkpt><trkpt lat="44.58889195385834" lon="0.8631982358037232"><ele>179.33333333333334</ele><time>2026-05-01T12:11:21Z</time></trkpt><trkpt lat="44.58895206805165" lon="0.8629994461803753"><ele>178.66666666666669</ele><time>2026-05-01T12:11:22Z</time></trkpt><trkpt lat="44.58902382803724" lon="0.8627973763205392"><ele>178.0</ele><time>2026-05-01T12:11:23Z</time></trkpt><trkpt lat="44.58909339305064" lon="0.8625854888802309"><ele>176.33333333333334</ele><time>2026-05-01T12:11:24Z</time></trkpt><trkpt lat="44.58916025905415" lon="0.8623770677458148"><ele>174.66666666666666</ele><time>2026-05-01T12:11:25Z</time></trkpt><trkpt lat="44.589236362525966" lon="0.8621748210111555"><ele>173.0</ele><time>2026-05-01T12:11:26Z</time></trkpt><trkpt lat="44.58930740796605" lon="0.8619764704006581"><ele>173.0</ele><time>2026-05-01T12:11:27Z</time></trkpt><trkpt lat="44.58937218072588" lon="0.8617744548885182"><ele>173.0</ele><time>2026-05-01T12:11:28Z</time></trkpt><trkpt lat="44.58942731807329" lon="0.8615852298924821"><ele>173.0</ele><time>2026-05-01T12:11:29Z</time></trkpt><trkpt lat="44.589488797030114" lon="0.8614161798306106"><ele>173.0</ele><time>2026-05-01T12:11:30Z</time></trkpt><trkpt lat="44.58953486404966" lon="0.8612483234990246"><ele>171.25</ele><time>2026-05-01T12:11:31Z</time></trkpt><trkpt lat="44.58957749670205" lon="0.8610913355404052"><ele>169.5</ele><time>2026-05-01T12:11:32Z</time></trkpt><trkpt lat="44.589626315486576" lon="0.8609333462353644"><ele>167.75</ele><time>2026-05-01T12:11:33Z</time></trkpt><trkpt lat="44.58968279319504" lon="0.8607975974183363"><ele>166.0</ele><time>2026-05-01T12:11:34Z</time></trkpt><trkpt lat="44.589744374898146" lon="0.8606841638367828"><ele>166.0</ele><time>2026-05-01T12:11:35Z</time></trkpt><trkpt lat="44.58981147522221" lon="0.860591505000391"><ele>166.0</ele><time>2026-05-01T12:11:36Z</time></trkpt><trkpt lat="44.59218824979243" lon="0.8658456767992199"><ele>166.20000000000002</ele><time>2026-05-01T12:12:37Z</time></trkpt><trkpt lat="44.59229022759958" lon="0.865789558435686"><ele>166.4</ele><time>2026-05-01T12:12:38Z</time></trkpt><trkpt lat="44.59240421419056" lon="0.8657000274090976"><ele>166.6</ele><time>2026-05-01T12:12:39Z</time></trkpt><trkpt lat="44.59250853196844" lon="0.8656285713957677"><ele>166.8</ele><time>2026-05-01T12:12:40Z</time></trkpt><trkpt lat="44.59259778061372" lon="0.8655987643055236"><ele>167.0</ele><time>2026-05-01T12:12:41Z</time></trkpt><trkpt lat="44.59271254261892" lon="0.8655794996491075"><ele>168.6</ele><time>2026-05-01T12:12:42Z</time></trkpt><trkpt lat="44.59284735451832" lon="0.8655688432295865"><ele>170.2</ele><time>2026-05-01T12:12:43Z</time></trkpt><trkpt lat="44.592947276072245" lon="0.8655566295059692"><ele>171.8</ele><time>2026-05-01T12:12:44Z</time></trkpt><trkpt lat="44.59303037038347" lon="0.8655154555741423"><ele>173.4</ele><time>2026-05-01T12:12:45Z</time></trkpt><trkpt lat="44.59310953379517" lon="0.8654151104588655"><ele>175.0</ele><time>2026-05-01T12:12:46Z</time></trkpt><trkpt lat="44.59318751655049" lon="0.8652879018489968"><ele>175.0</ele><time>2026-05-01T12:12:47Z</time></trkpt><trkpt lat="44.59326952131474" lon="0.8651660657446588"><ele>175.0</ele><time>2026-05-01T12:12:48Z</time></trkpt><trkpt lat="44.59333889446895" lon="0.8650788988578552"><ele>175.0</ele><time>2026-05-01T12:12:49Z</time></trkpt><trkpt lat="44.59342722163825" lon="0.8650354762064398"><ele>175.0</ele><time>2026-05-01T12:12:51Z</time></trkpt><trkpt lat="44.593570892623944" lon="0.8650777796592822"><ele>174.66666666666669</ele><time>2026-05-01T12:12:53Z</time></trkpt><trkpt lat="44.593657357237326" lon="0.8651083591839085"><ele>174.33333333333334</ele><time>2026-05-01T12:12:54Z</time></trkpt><trkpt lat="44.59373131614989" lon="0.8650893002002138"><ele>174.0</ele><time>2026-05-01T12:12:55Z</time></trkpt><trkpt lat="44.59379464884658" lon="0.8650236449965781"><ele>173.66666666666666</ele><time>2026-05-01T12:12:56Z</time></trkpt><trkpt lat="44.59385640121823" lon="0.8649281269226154"><ele>173.33333333333331</ele><time>2026-05-01T12:12:57Z</time></trkpt><trkpt lat="44.59392402344123" lon="0.8648716319687016"><ele>173.0</ele><time>2026-05-01T12:12:58Z</time></trkpt><trkpt lat="44.594021446616146" lon="0.8648970436548027"><ele>173.0</ele><time>2026-05-01T12:13:00Z</time></trkpt><trkpt lat="44.59407998116281" lon="0.8650197419724678"><ele>173.0</ele><time>2026-05-01T12:13:02Z</time></trkpt><trkpt lat="44.594109838871134" lon="0.8651052943722181"><ele>173.0</ele><time>2026-05-01T12:13:03Z</time></trkpt><trkpt lat="44.594135344511265" lon="0.8652186575037295"><ele>173.0</ele><time>2026-05-01T12:13:04Z</time></trkpt><trkpt lat="44.5941833817193" lon="0.8653298553734056"><ele>173.0</ele><time>2026-05-01T12:13:05Z</time></trkpt><trkpt lat="44.59424127760414" lon="0.8654348226276558"><ele>173.0</ele><time>2026-05-01T12:13:06Z</time></trkpt><trkpt lat="44.59428501565438" lon="0.8655287951387624"><ele>175.4</ele><time>2026-05-01T12:13:07Z</time></trkpt><trkpt lat="44.594307708379716" lon="0.865662635165591"><ele>177.8</ele><time>2026-05-01T12:13:08Z</time></trkpt><trkpt lat="44.59431407467486" lon="0.8657832995686291"><ele>180.2</ele><time>2026-05-01T12:13:09Z</time></trkpt><trkpt lat="44.59435217569174" lon="0.8659223290083348"><ele>182.6</ele><time>2026-05-01T12:13:10Z</time></trkpt><trkpt lat="44.59439075428198" lon="0.8660401166902219"><ele>185.0</ele><time>2026-05-01T12:13:11Z</time></trkpt><trkpt lat="44.594438237489875" lon="0.866145784619642"><ele>185.66666666666666</ele><time>2026-05-01T12:13:12Z</time></trkpt><trkpt lat="44.594488950114474" lon="0.8662557824658446"><ele>186.33333333333331</ele><time>2026-05-01T12:13:13Z</time></trkpt><trkpt lat="44.59456591833261" lon="0.866322868755862"><ele>187.0</ele><time>2026-05-01T12:13:14Z</time></trkpt><trkpt lat="44.594619241905846" lon="0.8663854162646534"><ele>187.66666666666666</ele><time>2026-05-01T12:13:15Z</time></trkpt><trkpt lat="44.59468131545263" lon="0.8663453143731622"><ele>188.33333333333334</ele><time>2026-05-01T12:13:17Z</time></trkpt><trkpt lat="44.59476549359829" lon="0.8662630456703898"><ele>189.0</ele><time>2026-05-01T12:13:19Z</time></trkpt><trkpt lat="44.59482622295334" lon="0.8662054720126164"><ele>189.0</ele><time>2026-05-01T12:13:20Z</time></trkpt><trkpt lat="44.59490033450505" lon="0.8661943149949887"><ele>189.0</ele><time>2026-05-01T12:13:21Z</time></trkpt><trkpt lat="44.594966740990785" lon="0.8662582130539072"><ele>189.0</ele><time>2026-05-01T12:13:23Z</time></trkpt><trkpt lat="44.59498667765144" lon="0.8663539620415642"><ele>189.0</ele><time>2026-05-01T12:13:26Z</time></trkpt><trkpt lat="44.59481732544108" lon="0.8674646669408492"><ele>188.25</ele><time>2026-05-01T12:15:37Z</time></trkpt><trkpt lat="44.59486018296797" lon="0.8675771695163077"><ele>187.5</ele><time>2026-05-01T12:15:57Z</time></trkpt><trkpt lat="44.59493964647986" lon="0.8676625228684037"><ele>186.75</ele><time>2026-05-01T12:15:59Z</time></trkpt><trkpt lat="44.59505978278456" lon="0.8677482003181459"><ele>186.0</ele><time>2026-05-01T12:16:01Z</time></trkpt><trkpt lat="44.59519884519175" lon="0.8677078939024876"><ele>186.0</ele><time>2026-05-01T12:16:03Z</time></trkpt><trkpt lat="44.595277867418346" lon="0.8676948262780632"><ele>186.0</ele><time>2026-05-01T12:16:04Z</time></trkpt><trkpt lat="44.595331097660065" lon="0.8675258700985028"><ele>186.0</ele><time>2026-05-01T12:16:05Z</time></trkpt><trkpt lat="44.59539865302772" lon="0.8673629470992945"><ele>186.0</ele><time>2026-05-01T12:16:07Z</time></trkpt><trkpt lat="44.595418434891066" lon="0.8672517217355855"><ele>186.0</ele><time>2026-05-01T12:16:08Z</time></trkpt><trkpt lat="44.59544861649955" lon="0.8671458002051765"><ele>185.60000000000002</ele><time>2026-05-01T12:16:09Z</time></trkpt><trkpt lat="44.59547671076146" lon="0.8670382498606604"><ele>185.2</ele><time>2026-05-01T12:16:10Z</time></trkpt><trkpt lat="44.595517479302124" lon="0.8669213408169706"><ele>184.8</ele><time>2026-05-01T12:16:11Z</time></trkpt><trkpt lat="44.59556103009921" lon="0.8668014056089829"><ele>184.39999999999998</ele><time>2026-05-01T12:16:12Z</time></trkpt><trkpt lat="44.59559320283812" lon="0.8666958385669452"><ele>184.0</ele><time>2026-05-01T12:16:13Z</time></trkpt><trkpt lat="44.595641040672675" lon="0.866570572385382"><ele>184.0</ele><time>2026-05-01T12:16:14Z</time></trkpt><trkpt lat="44.59575043257749" lon="0.8665131199192105"><ele>184.0</ele><time>2026-05-01T12:16:15Z</time></trkpt><trkpt lat="44.59580245358192" lon="0.8663895754401757"><ele>184.0</ele><time>2026-05-01T12:16:16Z</time></trkpt><trkpt lat="44.59585027653073" lon="0.8662773041139546"><ele>184.0</ele><time>2026-05-01T12:16:17Z</time></trkpt><trkpt lat="44.595894723843244" lon="0.8661735309026589"><ele>184.0</ele><time>2026-05-01T12:16:18Z</time></trkpt><trkpt lat="44.595940804273646" lon="0.8660659448628524"><ele>184.0</ele><time>2026-05-01T12:16:19Z</time></trkpt><trkpt lat="44.59597860324063" lon="0.8659797632596923"><ele>184.0</ele><time>2026-05-01T12:16:20Z</time></trkpt><trkpt lat="44.59601937696245" lon="0.86588886944968"><ele>184.0</ele><time>2026-05-01T12:16:21Z</time></trkpt><trkpt lat="44.59606102094259" lon="0.8658014074301323"><ele>184.0</ele><time>2026-05-01T12:16:22Z</time></trkpt><trkpt lat="44.596107670388804" lon="0.8657075237125488"><ele>184.0</ele><time>2026-05-01T12:16:23Z</time></trkpt><trkpt lat="44.596151148938034" lon="0.8656234648460016"><ele>184.0</ele><time>2026-05-01T12:16:24Z</time></trkpt><trkpt lat="44.59619603903609" lon="0.8655411229518778"><ele>182.2</ele><time>2026-05-01T12:16:25Z</time></trkpt><trkpt lat="44.59624722424944" lon="0.8654489533795705"><ele>180.39999999999998</ele><time>2026-05-01T12:16:26Z</time></trkpt><trkpt lat="44.59629830545727" lon="0.8653569709299043"><ele>178.6</ele><time>2026-05-01T12:16:27Z</time></trkpt><trkpt lat="44.59636571583648" lon="0.865235196037542"><ele>176.8</ele><time>2026-05-01T12:16:28Z</time></trkpt><trkpt lat="44.59643187181899" lon="0.8650933937831432"><ele>175.0</ele><time>2026-05-01T12:16:29Z</time></trkpt><trkpt lat="44.59648341225605" lon="0.8648965166753323"><ele>174.8</ele><time>2026-05-01T12:16:30Z</time></trkpt><trkpt lat="44.596493185356515" lon="0.8647182207524767"><ele>174.6</ele><time>2026-05-01T12:16:31Z</time></trkpt><trkpt lat="44.59648238911624" lon="0.8645829834717358"><ele>174.39999999999998</ele><time>2026-05-01T12:16:32Z</time></trkpt><trkpt lat="44.59647588435702" lon="0.8644898951218658"><ele>174.2</ele><time>2026-05-01T12:16:33Z</time></trkpt><trkpt lat="44.59648079414517" lon="0.8643342966258619"><ele>174.0</ele><time>2026-05-01T12:16:35Z</time></trkpt><trkpt lat="44.59650507302324" lon="0.8642187792055313"><ele>173.66666666666666</ele><time>2026-05-01T12:16:36Z</time></trkpt><trkpt lat="44.59633393997398" lon="0.8637817850826827"><ele>173.33333333333331</ele><time>2026-05-01T12:16:40Z</time></trkpt><trkpt lat="44.596304011526" lon="0.8636699890569967"><ele>173.0</ele><time>2026-05-01T12:16:41Z</time></trkpt><trkpt lat="44.596261680610006" lon="0.8635663770896147"><ele>173.0</ele><time>2026-05-01T12:16:42Z</time></trkpt><trkpt lat="44.5962186869638" lon="0.8634575112670879"><ele>173.0</ele><time>2026-05-01T12:16:43Z</time></trkpt><trkpt lat="44.596175150737885" lon="0.8633471425245804"><ele>173.0</ele><time>2026-05-01T12:16:44Z</time></trkpt><trkpt lat="44.59613757286821" lon="0.8632405042111649"><ele>173.0</ele><time>2026-05-01T12:16:45Z</time></trkpt><trkpt lat="44.59608701018688" lon="0.8631248187886833"><ele>173.0</ele><time>2026-05-01T12:16:46Z</time></trkpt><trkpt lat="44.596059592160586" lon="0.8629845716894509"><ele>172.2</ele><time>2026-05-01T12:16:47Z</time></trkpt><trkpt lat="44.59604059314989" lon="0.8628502604626228"><ele>171.4</ele><time>2026-05-01T12:16:48Z</time></trkpt><trkpt lat="44.59602452206663" lon="0.8627192887876509"><ele>170.6</ele><time>2026-05-01T12:16:49Z</time></trkpt><trkpt lat="44.59601475775954" lon="0.862579828604724"><ele>169.79999999999998</ele><time>2026-05-01T12:16:50Z</time></trkpt><trkpt lat="44.59601184081362" lon="0.8624398025529822"><ele>169.0</ele><time>2026-05-01T12:16:51Z</time></trkpt><trkpt lat="44.59600196906513" lon="0.8622875687124826"><ele>169.0</ele><time>2026-05-01T12:16:52Z</time></trkpt><trkpt lat="44.59599539594526" lon="0.8621360755869273"><ele>169.0</ele><time>2026-05-01T12:16:53Z</time></trkpt><trkpt lat="44.595990615133644" lon="0.8619750112977684"><ele>169.0</ele><time>2026-05-01T12:16:54Z</time></trkpt><trkpt lat="44.5959821527958" lon="0.8618123139613457"><ele>169.0</ele><time>2026-05-01T12:16:55Z</time></trkpt><trkpt lat="44.59596560538482" lon="0.8616436652866467"><ele>169.25</ele><time>2026-05-01T12:16:56Z</time></trkpt><trkpt lat="44.59596069434107" lon="0.8614773431918055"><ele>169.5</ele><time>2026-05-01T12:16:57Z</time></trkpt><trkpt lat="44.5959509750179" lon="0.861303368436644"><ele>169.75</ele><time>2026-05-01T12:16:58Z</time></trkpt><trkpt lat="44.595945259814535" lon="0.8611229687132993"><ele>170.0</ele><time>2026-05-01T12:16:59Z</time></trkpt><trkpt lat="44.59593305332675" lon="0.8609437518774437"><ele>170.0</ele><time>2026-05-01T12:17:00Z</time></trkpt><trkpt lat="44.5959214096719" lon="0.8607533705544891"><ele>170.0</ele><time>2026-05-01T12:17:01Z</time></trkpt><trkpt lat="44.59591120014505" lon="0.8605685381847296"><ele>170.0</ele><time>2026-05-01T12:17:02Z</time></trkpt><trkpt lat="44.595906928637184" lon="0.8603848222861609"><ele>170.0</ele><time>2026-05-01T12:17:03Z</time></trkpt><trkpt lat="44.59589562506937" lon="0.8601892695660237"><ele>170.5</ele><time>2026-05-01T12:17:04Z</time></trkpt><trkpt lat="44.59587992453608" lon="0.8599919531878791"><ele>171.0</ele><time>2026-05-01T12:17:05Z</time></trkpt><trkpt lat="44.595862276697254" lon="0.8597993944794562"><ele>171.5</ele><time>2026-05-01T12:17:06Z</time></trkpt><trkpt lat="44.59583903992099" lon="0.8595979571605423"><ele>172.0</ele><time>2026-05-01T12:17:07Z</time></trkpt><trkpt lat="44.5958040581266" lon="0.8594067630081981"><ele>172.75</ele><time>2026-05-01T12:17:08Z</time></trkpt><trkpt lat="44.59575978049026" lon="0.8591982437780328"><ele>173.5</ele><time>2026-05-01T12:17:09Z</time></trkpt><trkpt lat="44.59570733108014" lon="0.8590092194691344"><ele>174.25</ele><time>2026-05-01T12:17:10Z</time></trkpt><trkpt lat="44.59564858462803" lon="0.8588246237845837"><ele>175.0</ele><time>2026-05-01T12:17:11Z</time></trkpt><trkpt lat="44.595581387735315" lon="0.8586344607778853"><ele>175.0</ele><time>2026-05-01T12:17:12Z</time></trkpt><trkpt lat="44.595507134336984" lon="0.8584536572583187"><ele>175.0</ele><time>2026-05-01T12:17:13Z</time></trkpt><trkpt lat="44.59542680399144" lon="0.8582731556292221"><ele>175.0</ele><time>2026-05-01T12:17:14Z</time></trkpt><trkpt lat="44.59534924998082" lon="0.8581029298846309"><ele>175.0</ele><time>2026-05-01T12:17:15Z</time></trkpt><trkpt lat="44.59527180544562" lon="0.8579237148865797"><ele>174.75</ele><time>2026-05-01T12:17:16Z</time></trkpt><trkpt lat="44.59519996351012" lon="0.8577650043580395"><ele>174.5</ele><time>2026-05-01T12:17:17Z</time></trkpt><trkpt lat="44.59513380556919" lon="0.857623611171117"><ele>174.25</ele><time>2026-05-01T12:17:18Z</time></trkpt><trkpt lat="44.595080633012884" lon="0.8574960249954302"><ele>174.0</ele><time>2026-05-01T12:17:19Z</time></trkpt><trkpt lat="44.59502902493793" lon="0.8573737127267533"><ele>175.0</ele><time>2026-05-01T12:17:20Z</time></trkpt><trkpt lat="44.594976903337525" lon="0.8572653831806619"><ele>176.0</ele><time>2026-05-01T12:17:21Z</time></trkpt><trkpt lat="44.594934168008194" lon="0.8571773369554163"><ele>177.0</ele><time>2026-05-01T12:17:22Z</time></trkpt><trkpt lat="44.594906553900486" lon="0.8570934081394423"><ele>178.0</ele><time>2026-05-01T12:17:23Z</time></trkpt><trkpt lat="44.594954660740235" lon="0.8569669592980179"><ele>179.0</ele><time>2026-05-01T12:17:25Z</time></trkpt><trkpt lat="44.59507814339748" lon="0.857021555993012"><ele>179.0</ele><time>2026-05-01T12:17:27Z</time></trkpt><trkpt lat="44.595158414627974" lon="0.8570414472797244"><ele>179.0</ele><time>2026-05-01T12:17:28Z</time></trkpt><trkpt lat="44.595247976139156" lon="0.85704892917971"><ele>179.0</ele><time>2026-05-01T12:17:29Z</time></trkpt><trkpt lat="44.59534698952788" lon="0.8570881762386203"><ele>179.0</ele><time>2026-05-01T12:17:30Z</time></trkpt><trkpt lat="44.59547680898811" lon="0.8571036262646813"><ele>179.0</ele><time>2026-05-01T12:17:31Z</time></trkpt><trkpt lat="44.5956103847519" lon="0.8571422614522278"><ele>179.5</ele><time>2026-05-01T12:17:32Z</time></trkpt><trkpt lat="44.59575101594665" lon="0.8571766413715711"><ele>180.0</ele><time>2026-05-01T12:17:33Z</time></trkpt><trkpt lat="44.595894069593015" lon="0.8572077836270515"><ele>180.5</ele><time>2026-05-01T12:17:34Z</time></trkpt><trkpt lat="44.59603229469335" lon="0.8572392714337765"><ele>181.0</ele><time>2026-05-01T12:17:35Z</time></trkpt><trkpt lat="44.59617981011297" lon="0.8572770345935186"><ele>189.0</ele><time>2026-05-01T12:17:36Z</time></trkpt><trkpt lat="44.59893111305192" lon="0.8616598300856771"><ele>189.0</ele><time>2026-05-01T12:18:37Z</time></trkpt><trkpt lat="44.59893835475955" lon="0.861793288549674"><ele>189.0</ele><time>2026-05-01T12:18:39Z</time></trkpt><trkpt lat="44.59901080896588" lon="0.861811768289367"><ele>189.0</ele><time>2026-05-01T12:18:43Z</time></trkpt><trkpt lat="44.599074674849184" lon="0.8618090238419104"><ele>189.0</ele><time>2026-05-01T12:18:44Z</time></trkpt><trkpt lat="44.59915167338344" lon="0.8618157245736643"><ele>189.0</ele><time>2026-05-01T12:18:45Z</time></trkpt><trkpt lat="44.599249893973266" lon="0.8618443010165941"><ele>189.0</ele><time>2026-05-01T12:18:46Z</time></trkpt><trkpt lat="44.5993439692717" lon="0.8618466521731635"><ele>189.0</ele><time>2026-05-01T12:18:47Z</time></trkpt><trkpt lat="44.59944034915306" lon="0.861820836761365"><ele>189.0</ele><time>2026-05-01T12:18:48Z</time></trkpt><trkpt lat="44.59953909946769" lon="0.8618083842740203"><ele>189.0</ele><time>2026-05-01T12:18:49Z</time></trkpt><trkpt lat="44.59961383478188" lon="0.8617977559241725"><ele>189.0</ele><time>2026-05-01T12:18:50Z</time></trkpt><trkpt lat="44.599674686449575" lon="0.8617377139234569"><ele>189.0</ele><time>2026-05-01T12:18:51Z</time></trkpt><trkpt lat="44.599753216121215" lon="0.8616916915247065"><ele>189.0</ele><time>2026-05-01T12:18:52Z</time></trkpt><trkpt lat="44.599851931838074" lon="0.8616814630733213"><ele>189.0</ele><time>2026-05-01T12:18:53Z</time></trkpt><trkpt lat="44.59995303161928" lon="0.8616837791039557"><ele>189.0</ele><time>2026-05-01T12:18:54Z</time></trkpt><trkpt lat="44.60003915893216" lon="0.8616605564173506"><ele>189.0</ele><time>2026-05-01T12:18:55Z</time></trkpt><trkpt lat="44.600106405217424" lon="0.8616540525677148"><ele>189.0</ele><time>2026-05-01T12:18:56Z</time></trkpt><trkpt lat="44.6001672370364" lon="0.8616903956846057"><ele>189.0</ele><time>2026-05-01T12:18:57Z</time></trkpt><trkpt lat="44.600250724989145" lon="0.8617471209644223"><ele>189.0</ele><time>2026-05-01T12:18:58Z</time></trkpt><trkpt lat="44.60033522825207" lon="0.861768875884469"><ele>189.0</ele><time>2026-05-01T12:18:59Z</time></trkpt><trkpt lat="44.60043725939599" lon="0.8617682319217768"><ele>189.0</ele><time>2026-05-01T12:19:00Z</time></trkpt><trkpt lat="44.60053824894667" lon="0.8617724596445829"><ele>189.0</ele><time>2026-05-01T12:19:01Z</time></trkpt><trkpt lat="44.60064373264096" lon="0.8617342721693663"><ele>189.0</ele><time>2026-05-01T12:19:02Z</time></trkpt><trkpt lat="44.600732929848895" lon="0.8617061629825713"><ele>189.0</ele><time>2026-05-01T12:19:03Z</time></trkpt><trkpt lat="44.600819323982314" lon="0.8616593646880037"><ele>189.0</ele><time>2026-05-01T12:19:04Z</time></trkpt><trkpt lat="44.6009273964714" lon="0.8615873996749613"><ele>189.0</ele><time>2026-05-01T12:19:05Z</time></trkpt><trkpt lat="44.60104767629562" lon="0.8615472780000646"><ele>189.0</ele><time>2026-05-01T12:19:06Z</time></trkpt><trkpt lat="44.601160693131945" lon="0.8615176250531765"><ele>189.0</ele><time>2026-05-01T12:19:07Z</time></trkpt><trkpt lat="44.6012794749304" lon="0.8614763389939956"><ele>188.5</ele><time>2026-05-01T12:19:08Z</time></trkpt><trkpt lat="44.60139438914639" lon="0.8614327049863095"><ele>188.0</ele><time>2026-05-01T12:19:09Z</time></trkpt><trkpt lat="44.601507722652606" lon="0.8613927905256742"><ele>187.5</ele><time>2026-05-01T12:19:10Z</time></trkpt><trkpt lat="44.60162418785759" lon="0.8613461599686402"><ele>187.0</ele><time>2026-05-01T12:19:11Z</time></trkpt><trkpt lat="44.601712308340524" lon="0.8612976399004725"><ele>187.0</ele><time>2026-05-01T12:19:12Z</time></trkpt><trkpt lat="44.601799776763656" lon="0.8612574499412784"><ele>187.0</ele><time>2026-05-01T12:19:13Z</time></trkpt><trkpt lat="44.60186153902233" lon="0.8612377388625791"><ele>187.0</ele><time>2026-05-01T12:19:14Z</time></trkpt><trkpt lat="44.60193584310416" lon="0.8612697422257695"><ele>187.0</ele><time>2026-05-01T12:19:16Z</time></trkpt><trkpt lat="44.60201078477609" lon="0.8614068568283447"><ele>187.0</ele><time>2026-05-01T12:19:18Z</time></trkpt><trkpt lat="44.60203820296569" lon="0.8615043837138393"><ele>187.0</ele><time>2026-05-01T12:19:19Z</time></trkpt><trkpt lat="44.60208349830621" lon="0.8615804562664003"><ele>186.5</ele><time>2026-05-01T12:19:20Z</time></trkpt><trkpt lat="44.602175355562025" lon="0.8616841018306659"><ele>186.0</ele><time>2026-05-01T12:19:21Z</time></trkpt><trkpt lat="44.602258435884316" lon="0.861797080683933"><ele>185.5</ele><time>2026-05-01T12:19:22Z</time></trkpt><trkpt lat="44.602349221177874" lon="0.8618892508154254"><ele>185.0</ele><time>2026-05-01T12:19:23Z</time></trkpt><trkpt lat="44.60243700734275" lon="0.861978397116603"><ele>184.66666666666666</ele><time>2026-05-01T12:19:24Z</time></trkpt><trkpt lat="44.60251260795309" lon="0.8620498456956786"><ele>184.33333333333331</ele><time>2026-05-01T12:19:25Z</time></trkpt><trkpt lat="44.602568606218654" lon="0.8621341937249165"><ele>184.0</ele><time>2026-05-01T12:19:26Z</time></trkpt><trkpt lat="44.602600860501894" lon="0.8622327991695098"><ele>183.66666666666666</ele><time>2026-05-01T12:19:27Z</time></trkpt><trkpt lat="44.602656732502126" lon="0.862330124546778"><ele>183.33333333333334</ele><time>2026-05-01T12:19:28Z</time></trkpt><trkpt lat="44.6027066027722" lon="0.8624299857916087"><ele>183.0</ele><time>2026-05-01T12:19:29Z</time></trkpt><trkpt lat="44.6027458354059" lon="0.862548433598001"><ele>182.83333333333334</ele><time>2026-05-01T12:19:30Z</time></trkpt><trkpt lat="44.60278567390386" lon="0.8626770375048639"><ele>182.66666666666666</ele><time>2026-05-01T12:19:31Z</time></trkpt><trkpt lat="44.60282568737812" lon="0.8627828234079106"><ele>182.5</ele><time>2026-05-01T12:19:32Z</time></trkpt><trkpt lat="44.60286928125866" lon="0.8628773593187188"><ele>182.33333333333331</ele><time>2026-05-01T12:19:33Z</time></trkpt><trkpt lat="44.60290909170903" lon="0.862965439803189"><ele>182.16666666666666</ele><time>2026-05-01T12:19:34Z</time></trkpt><trkpt lat="44.60294487412692" lon="0.8630409794782732"><ele>182.0</ele><time>2026-05-01T12:19:35Z</time></trkpt><trkpt lat="44.602973806315994" lon="0.863133473732147"><ele>178.0</ele><time>2026-05-01T12:19:36Z</time></trkpt><trkpt lat="44.604620540490934" lon="0.8672968629087918"><ele>178.0</ele><time>2026-05-01T12:20:37Z</time></trkpt><trkpt lat="44.60471816947397" lon="0.8671943527013211"><ele>178.0</ele><time>2026-05-01T12:20:38Z</time></trkpt><trkpt lat="44.604806545914" lon="0.8670429770707343"><ele>178.0</ele><time>2026-05-01T12:20:39Z</time></trkpt><trkpt lat="44.60488804382455" lon="0.8668752878501366"><ele>178.0</ele><time>2026-05-01T12:20:40Z</time></trkpt><trkpt lat="44.60498374054002" lon="0.8667202994428828"><ele>177.83333333333334</ele><time>2026-05-01T12:20:41Z</time></trkpt><trkpt lat="44.60506285612983" lon="0.8666137196175319"><ele>177.66666666666669</ele><time>2026-05-01T12:20:42Z</time></trkpt><trkpt lat="44.605111485433596" lon="0.8665498009528497"><ele>177.5</ele><time>2026-05-01T12:20:43Z</time></trkpt><trkpt lat="44.60516989361837" lon="0.8665119523507026"><ele>177.33333333333334</ele><time>2026-05-01T12:20:44Z</time></trkpt><trkpt lat="44.605249934379856" lon="0.8665141850931231"><ele>177.16666666666666</ele><time>2026-05-01T12:20:45Z</time></trkpt><trkpt lat="44.60534935928484" lon="0.8665538214482674"><ele>177.0</ele><time>2026-05-01T12:20:46Z</time></trkpt><trkpt lat="44.605453505738524" lon="0.8666092311780328"><ele>178.75</ele><time>2026-05-01T12:20:47Z</time></trkpt><trkpt lat="44.60558595477586" lon="0.8666727471731068"><ele>180.5</ele><time>2026-05-01T12:20:48Z</time></trkpt><trkpt lat="44.605722954728805" lon="0.8667451166526895"><ele>182.25</ele><time>2026-05-01T12:20:49Z</time></trkpt><trkpt lat="44.60587738370736" lon="0.8667867171374832"><ele>184.0</ele><time>2026-05-01T12:20:50Z</time></trkpt><trkpt lat="44.60603959175306" lon="0.8668217963587871"><ele>186.33333333333334</ele><time>2026-05-01T12:20:51Z</time></trkpt><trkpt lat="44.60620158748707" lon="0.8668200469896944"><ele>188.66666666666666</ele><time>2026-05-01T12:20:52Z</time></trkpt><trkpt lat="44.60635788511134" lon="0.8668322856863135"><ele>191.0</ele><time>2026-05-01T12:20:53Z</time></trkpt><trkpt lat="44.606509337338466" lon="0.8668731267925557"><ele>191.0</ele><time>2026-05-01T12:20:54Z</time></trkpt><trkpt lat="44.60662833388086" lon="0.8669136352981297"><ele>191.0</ele><time>2026-05-01T12:20:55Z</time></trkpt><trkpt lat="44.6067520040317" lon="0.8669787678568058"><ele>191.0</ele><time>2026-05-01T12:20:56Z</time></trkpt><trkpt lat="44.60687655483836" lon="0.8670640034823371"><ele>191.0</ele><time>2026-05-01T12:20:57Z</time></trkpt><trkpt lat="44.60698873074054" lon="0.8671566577553952"><ele>191.5</ele><time>2026-05-01T12:20:58Z</time></trkpt><trkpt lat="44.607086656490885" lon="0.8672406432103855"><ele>192.0</ele><time>2026-05-01T12:20:59Z</time></trkpt><trkpt lat="44.607195559825186" lon="0.8673085831897358"><ele>192.5</ele><time>2026-05-01T12:21:00Z</time></trkpt><trkpt lat="44.607295380071136" lon="0.8674057495356733"><ele>193.0</ele><time>2026-05-01T12:21:01Z</time></trkpt><trkpt lat="44.60743348821946" lon="0.8675136771453177"><ele>193.0</ele><time>2026-05-01T12:21:02Z</time></trkpt><trkpt lat="44.6075667902774" lon="0.8676216456402142"><ele>193.0</ele><time>2026-05-01T12:21:03Z</time></trkpt><trkpt lat="44.607694380026906" lon="0.867687961182917"><ele>193.0</ele><time>2026-05-01T12:21:04Z</time></trkpt><trkpt lat="44.60782979081596" lon="0.867741830604909"><ele>193.0</ele><time>2026-05-01T12:21:05Z</time></trkpt><trkpt lat="44.60795687984836" lon="0.8677706040689276"><ele>192.2</ele><time>2026-05-01T12:21:06Z</time></trkpt><trkpt lat="44.60806994810575" lon="0.8677955185604805"><ele>191.4</ele><time>2026-05-01T12:21:07Z</time></trkpt><trkpt lat="44.60816793736728" lon="0.8678238953960044"><ele>190.6</ele><time>2026-05-01T12:21:08Z</time></trkpt><trkpt lat="44.60825869670038" lon="0.8678405296932993"><ele>189.79999999999998</ele><time>2026-05-01T12:21:09Z</time></trkpt><trkpt lat="44.608340242054105" lon="0.8678162578689185"><ele>189.0</ele><time>2026-05-01T12:21:10Z</time></trkpt><trkpt lat="44.608431818272116" lon="0.8677482676486802"><ele>189.0</ele><time>2026-05-01T12:21:11Z</time></trkpt><trkpt lat="44.6085411190379" lon="0.8676516633837642"><ele>189.0</ele><time>2026-05-01T12:21:12Z</time></trkpt><trkpt lat="44.6086628980554" lon="0.8675318466530176"><ele>189.0</ele><time>2026-05-01T12:21:13Z</time></trkpt><trkpt lat="44.60877282854187" lon="0.8674203025610928"><ele>189.0</ele><time>2026-05-01T12:21:14Z</time></trkpt><trkpt lat="44.60887695094196" lon="0.8673280371678525"><ele>188.75</ele><time>2026-05-01T12:21:15Z</time></trkpt><trkpt lat="44.60899054249388" lon="0.8672489590930921"><ele>188.5</ele><time>2026-05-01T12:21:16Z</time></trkpt><trkpt lat="44.60912013516227" lon="0.8672168732703038"><ele>188.25</ele><time>2026-05-01T12:21:17Z</time></trkpt><trkpt lat="44.60924806497074" lon="0.867161615678271"><ele>188.0</ele><time>2026-05-01T12:21:18Z</time></trkpt><trkpt lat="44.609386480225936" lon="0.8671230812476736"><ele>187.75</ele><time>2026-05-01T12:21:19Z</time></trkpt><trkpt lat="44.60951986405194" lon="0.8670652735660462"><ele>187.5</ele><time>2026-05-01T12:21:20Z</time></trkpt><trkpt lat="44.609633713316285" lon="0.866973560663847"><ele>187.25</ele><time>2026-05-01T12:21:21Z</time></trkpt><trkpt lat="44.6097667074903" lon="0.8668502968809562"><ele>187.0</ele><time>2026-05-01T12:21:22Z</time></trkpt><trkpt lat="44.609907202755224" lon="0.8667375263267642"><ele>187.25</ele><time>2026-05-01T12:21:23Z</time></trkpt><trkpt lat="44.610046133115446" lon="0.8666316054341263"><ele>187.5</ele><time>2026-05-01T12:21:24Z</time></trkpt><trkpt lat="44.61016876728883" lon="0.86653057206883"><ele>187.75</ele><time>2026-05-01T12:21:25Z</time></trkpt><trkpt lat="44.610279088446966" lon="0.8664482904803652"><ele>188.0</ele><time>2026-05-01T12:21:26Z</time></trkpt><trkpt lat="44.610398371531076" lon="0.8663792841696036"><ele>188.0</ele><time>2026-05-01T12:21:27Z</time></trkpt><trkpt lat="44.61053312735648" lon="0.8663373085692698"><ele>188.0</ele><time>2026-05-01T12:21:28Z</time></trkpt><trkpt lat="44.61065890368134" lon="0.866288407674721"><ele>188.0</ele><time>2026-05-01T12:21:29Z</time></trkpt><trkpt lat="44.61076796659642" lon="0.8662339305248513"><ele>188.0</ele><time>2026-05-01T12:21:30Z</time></trkpt><trkpt lat="44.61086088142454" lon="0.8662022027813338"><ele>188.0</ele><time>2026-05-01T12:21:31Z</time></trkpt><trkpt lat="44.610946145356344" lon="0.8661631136718206"><ele>188.0</ele><time>2026-05-01T12:21:32Z</time></trkpt><trkpt lat="44.61101886471998" lon="0.8661193449236886"><ele>188.0</ele><time>2026-05-01T12:21:33Z</time></trkpt><trkpt lat="44.611085414533704" lon="0.8660812943682775"><ele>188.0</ele><time>2026-05-01T12:21:34Z</time></trkpt><trkpt lat="44.61117975824009" lon="0.8660132165016147"><ele>188.0</ele><time>2026-05-01T12:21:36Z</time></trkpt><trkpt lat="44.610504417533406" lon="0.8696931153652839"><ele>186.66666666666666</ele><time>2026-05-01T12:22:37Z</time></trkpt><trkpt lat="44.61046213244535" lon="0.8698044410114756"><ele>185.33333333333331</ele><time>2026-05-01T12:22:38Z</time></trkpt><trkpt lat="44.61044154052587" lon="0.8699086888269678"><ele>184.0</ele><time>2026-05-01T12:22:39Z</time></trkpt><trkpt lat="44.61040951754679" lon="0.8700039613842321"><ele>182.66666666666666</ele><time>2026-05-01T12:22:40Z</time></trkpt><trkpt lat="44.61037110849934" lon="0.8701058173729408"><ele>181.33333333333334</ele><time>2026-05-01T12:22:41Z</time></trkpt><trkpt lat="44.61029397919269" lon="0.8702024800181936"><ele>180.0</ele><time>2026-05-01T12:22:42Z</time></trkpt><trkpt lat="44.6102506002255" lon="0.8702890128699456"><ele>180.0</ele><time>2026-05-01T12:22:43Z</time></trkpt><trkpt lat="44.61025096749479" lon="0.8704757307631655"><ele>180.0</ele><time>2026-05-01T12:22:45Z</time></trkpt><trkpt lat="44.61031008994693" lon="0.8705755892155579"><ele>180.0</ele><time>2026-05-01T12:22:46Z</time></trkpt><trkpt lat="44.61035005642017" lon="0.8707117653979981"><ele>180.0</ele><time>2026-05-01T12:22:47Z</time></trkpt><trkpt lat="44.61037302643412" lon="0.8708374959985165"><ele>180.0</ele><time>2026-05-01T12:22:48Z</time></trkpt><trkpt lat="44.610381448571395" lon="0.8709467736996819"><ele>178.66666666666666</ele><time>2026-05-01T12:22:49Z</time></trkpt><trkpt lat="44.610406300618884" lon="0.8710577845489157"><ele>177.33333333333334</ele><time>2026-05-01T12:22:50Z</time></trkpt><trkpt lat="44.61040454800726" lon="0.8711910685728369"><ele>176.0</ele><time>2026-05-01T12:22:51Z</time></trkpt><trkpt lat="44.610380774379045" lon="0.8712892120909641"><ele>174.66666666666669</ele><time>2026-05-01T12:22:52Z</time></trkpt><trkpt lat="44.6103561293182" lon="0.8714167577371229"><ele>173.33333333333334</ele><time>2026-05-01T12:22:54Z</time></trkpt><trkpt lat="44.61037327707254" lon="0.8715415167015418"><ele>172.0</ele><time>2026-05-01T12:22:56Z</time></trkpt><trkpt lat="44.610336713104424" lon="0.8716146992329207"><ele>172.0</ele><time>2026-05-01T12:22:57Z</time></trkpt><trkpt lat="44.61028384297057" lon="0.8717013897788431"><ele>172.0</ele><time>2026-05-01T12:22:58Z</time></trkpt><trkpt lat="44.61023428997156" lon="0.8717979289724526"><ele>172.0</ele><time>2026-05-01T12:22:59Z</time></trkpt><trkpt lat="44.61018543753229" lon="0.8718915871473032"><ele>172.0</ele><time>2026-05-01T12:23:00Z</time></trkpt><trkpt lat="44.61012046441666" lon="0.8720315849018"><ele>172.0</ele><time>2026-05-01T12:23:01Z</time></trkpt><trkpt lat="44.610067443917444" lon="0.872159317479424"><ele>172.0</ele><time>2026-05-01T12:23:02Z</time></trkpt><trkpt lat="44.61002226589069" lon="0.8722618345371153"><ele>172.0</ele><time>2026-05-01T12:23:03Z</time></trkpt><trkpt lat="44.60998361731016" lon="0.8723588081485353"><ele>172.0</ele><time>2026-05-01T12:23:04Z</time></trkpt><trkpt lat="44.609941814487705" lon="0.8724508669796472"><ele>172.0</ele><time>2026-05-01T12:23:05Z</time></trkpt><trkpt lat="44.609899220597704" lon="0.87253453752425"><ele>172.0</ele><time>2026-05-01T12:23:06Z</time></trkpt><trkpt lat="44.60985007347434" lon="0.8726431172416675"><ele>172.0</ele><time>2026-05-01T12:23:07Z</time></trkpt><trkpt lat="44.60979983095253" lon="0.8727129343677443"><ele>171.0</ele><time>2026-05-01T12:23:08Z</time></trkpt><trkpt lat="44.609750758894386" lon="0.8728175261288433"><ele>170.0</ele><time>2026-05-01T12:23:09Z</time></trkpt><trkpt lat="44.60968551181408" lon="0.8729322003613927"><ele>169.0</ele><time>2026-05-01T12:23:10Z</time></trkpt><trkpt lat="44.60961708550945" lon="0.8730379789877645"><ele>168.0</ele><time>2026-05-01T12:23:11Z</time></trkpt><trkpt lat="44.609555640691504" lon="0.8731140102737974"><ele>167.0</ele><time>2026-05-01T12:23:12Z</time></trkpt><trkpt lat="44.60951492035455" lon="0.8732113905728435"><ele>166.39999999999998</ele><time>2026-05-01T12:23:13Z</time></trkpt><trkpt lat="44.60946685108858" lon="0.8733167355851849"><ele>165.79999999999998</ele><time>2026-05-01T12:23:14Z</time></trkpt><trkpt lat="44.60942713489122" lon="0.8733932202823675"><ele>165.2</ele><time>2026-05-01T12:23:15Z</time></trkpt><trkpt lat="44.60936122950195" lon="0.8734790205529726"><ele>164.6</ele><time>2026-05-01T12:23:16Z</time></trkpt><trkpt lat="44.60929510290506" lon="0.8735675603779715"><ele>164.0</ele><time>2026-05-01T12:23:17Z</time></trkpt><trkpt lat="44.60920956749567" lon="0.8736743189521068"><ele>164.0</ele><time>2026-05-01T12:23:19Z</time></trkpt><trkpt lat="44.60912942631201" lon="0.8737882256146876"><ele>164.0</ele><time>2026-05-01T12:23:21Z</time></trkpt><trkpt lat="44.60904924409512" lon="0.8738960749562524"><ele>164.0</ele><time>2026-05-01T12:23:23Z</time></trkpt><trkpt lat="44.60897589526801" lon="0.8739394404969246"><ele>164.0</ele><time>2026-05-01T12:23:24Z</time></trkpt><trkpt lat="44.60891675265796" lon="0.8739856880680162"><ele>164.0</ele><time>2026-05-01T12:23:25Z</time></trkpt><trkpt lat="44.60887448294493" lon="0.8740841574202898"><ele>164.0</ele><time>2026-05-01T12:23:27Z</time></trkpt><trkpt lat="44.60885841325866" lon="0.8741936630903844"><ele>164.0</ele><time>2026-05-01T12:23:28Z</time></trkpt><trkpt lat="44.60882742729751" lon="0.8743059733267946"><ele>164.0</ele><time>2026-05-01T12:23:29Z</time></trkpt><trkpt lat="44.60878856110522" lon="0.8743976226337861"><ele>164.0</ele><time>2026-05-01T12:23:30Z</time></trkpt><trkpt lat="44.60876352304997" lon="0.8745513573755318"><ele>164.0</ele><time>2026-05-01T12:23:32Z</time></trkpt><trkpt lat="44.60873017678031" lon="0.8746446491102291"><ele>164.0</ele><time>2026-05-01T12:23:34Z</time></trkpt><trkpt lat="44.60587197122377" lon="0.8789599543009344"><ele>168.79999999999998</ele><time>2026-05-01T12:24:37Z</time></trkpt><trkpt lat="44.605936331526145" lon="0.8791241432707303"><ele>173.6</ele><time>2026-05-01T12:24:39Z</time></trkpt><trkpt lat="44.60597611987965" lon="0.8792292898691254"><ele>178.4</ele><time>2026-05-01T12:24:40Z</time></trkpt><trkpt lat="44.606027128294734" lon="0.8793448767519544"><ele>183.2</ele><time>2026-05-01T12:24:41Z</time></trkpt><trkpt lat="44.606067621429645" lon="0.8794610708794464"><ele>188.0</ele><time>2026-05-01T12:24:42Z</time></trkpt><trkpt lat="44.606098035713806" lon="0.8796203430159585"><ele>187.5</ele><time>2026-05-01T12:24:43Z</time></trkpt><trkpt lat="44.60614007423068" lon="0.8797639231911913"><ele>187.0</ele><time>2026-05-01T12:24:44Z</time></trkpt><trkpt lat="44.606203485954694" lon="0.8799035155209124"><ele>186.5</ele><time>2026-05-01T12:24:45Z</time></trkpt><trkpt lat="44.606277076716374" lon="0.8800197094713876"><ele>186.0</ele><time>2026-05-01T12:24:46Z</time></trkpt><trkpt lat="44.60634278429477" lon="0.8801497513295538"><ele>187.60000000000002</ele><time>2026-05-01T12:24:47Z</time></trkpt><trkpt lat="44.60640266499117" lon="0.8802843162697229"><ele>189.2</ele><time>2026-05-01T12:24:48Z</time></trkpt><trkpt lat="44.606452285927546" lon="0.880406823363892"><ele>190.8</ele><time>2026-05-01T12:24:49Z</time></trkpt><trkpt lat="44.60649789848022" lon="0.880499828122401"><ele>192.39999999999998</ele><time>2026-05-01T12:24:50Z</time></trkpt><trkpt lat="44.606535608182384" lon="0.8806003940460672"><ele>194.0</ele><time>2026-05-01T12:24:51Z</time></trkpt><trkpt lat="44.6065937116953" lon="0.8807079236300519"><ele>194.0</ele><time>2026-05-01T12:24:52Z</time></trkpt><trkpt lat="44.60665683777575" lon="0.8808301101724556"><ele>194.0</ele><time>2026-05-01T12:24:53Z</time></trkpt><trkpt lat="44.60672379415052" lon="0.8809646355771446"><ele>194.0</ele><time>2026-05-01T12:24:54Z</time></trkpt><trkpt lat="44.60680212899706" lon="0.8811001567445871"><ele>194.0</ele><time>2026-05-01T12:24:55Z</time></trkpt><trkpt lat="44.60686796899328" lon="0.8812129756547865"><ele>194.66666666666669</ele><time>2026-05-01T12:24:56Z</time></trkpt><trkpt lat="44.606931537609334" lon="0.8813013875139233"><ele>195.33333333333334</ele><time>2026-05-01T12:24:57Z</time></trkpt><trkpt lat="44.606988781426004" lon="0.8813643561363279"><ele>196.0</ele><time>2026-05-01T12:24:58Z</time></trkpt><trkpt lat="44.60705101585848" lon="0.8814281981835437"><ele>196.66666666666669</ele><time>2026-05-01T12:25:01Z</time></trkpt><trkpt lat="44.60714237488792" lon="0.8813995181240926"><ele>197.33333333333334</ele><time>2026-05-01T12:25:06Z</time></trkpt><trkpt lat="44.60722821730944" lon="0.8814330975892403"><ele>198.0</ele><time>2026-05-01T12:25:07Z</time></trkpt><trkpt lat="44.607328665776286" lon="0.8814667083950931"><ele>198.0</ele><time>2026-05-01T12:25:08Z</time></trkpt><trkpt lat="44.607426785311" lon="0.8814840622251726"><ele>198.0</ele><time>2026-05-01T12:25:09Z</time></trkpt><trkpt lat="44.60754220924849" lon="0.8815217934267201"><ele>198.0</ele><time>2026-05-01T12:25:10Z</time></trkpt><trkpt lat="44.60765576104721" lon="0.8815726774779704"><ele>198.0</ele><time>2026-05-01T12:25:11Z</time></trkpt><trkpt lat="44.607783315571425" lon="0.8816136398544269"><ele>198.2</ele><time>2026-05-01T12:25:12Z</time></trkpt><trkpt lat="44.60789826516542" lon="0.8816447278109857"><ele>198.4</ele><time>2026-05-01T12:25:13Z</time></trkpt><trkpt lat="44.60801196197396" lon="0.8816625979151378"><ele>198.6</ele><time>2026-05-01T12:25:14Z</time></trkpt><trkpt lat="44.60812303641557" lon="0.8816772184137355"><ele>198.79999999999998</ele><time>2026-05-01T12:25:15Z</time></trkpt><trkpt lat="44.60821082148048" lon="0.8816842437702698"><ele>199.0</ele><time>2026-05-01T12:25:16Z</time></trkpt><trkpt lat="44.60828612194964" lon="0.8816736104637487"><ele>199.0</ele><time>2026-05-01T12:25:17Z</time></trkpt><trkpt lat="44.60839346134862" lon="0.881659900366307"><ele>199.0</ele><time>2026-05-01T12:25:19Z</time></trkpt><trkpt lat="44.60842884454795" lon="0.8817711601294094"><ele>199.0</ele><time>2026-05-01T12:25:21Z</time></trkpt><trkpt lat="44.60843012748689" lon="0.881886655025364"><ele>199.0</ele><time>2026-05-01T12:25:22Z</time></trkpt><trkpt lat="44.60842998965322" lon="0.882035232680976"><ele>199.0</ele><time>2026-05-01T12:25:23Z</time></trkpt><trkpt lat="44.60841211112139" lon="0.8821961495328027"><ele>200.25</ele><time>2026-05-01T12:25:24Z</time></trkpt><trkpt lat="44.60841152999253" lon="0.8823536670217096"><ele>201.5</ele><time>2026-05-01T12:25:25Z</time></trkpt><trkpt lat="44.60842020793549" lon="0.8825132874630899"><ele>202.75</ele><time>2026-05-01T12:25:26Z</time></trkpt><trkpt lat="44.60842415651" lon="0.8827115160295588"><ele>204.0</ele><time>2026-05-01T12:25:27Z</time></trkpt><trkpt lat="44.60841821012672" lon="0.8828845883870031"><ele>205.2</ele><time>2026-05-01T12:25:28Z</time></trkpt><trkpt lat="44.60841406489476" lon="0.8830581922673522"><ele>206.39999999999998</ele><time>2026-05-01T12:25:29Z</time></trkpt><trkpt lat="44.60843178024967" lon="0.8832068239877177"><ele>207.6</ele><time>2026-05-01T12:25:30Z</time></trkpt><trkpt lat="44.608449781438026" lon="0.883342572407454"><ele>208.8</ele><time>2026-05-01T12:25:31Z</time></trkpt><trkpt lat="44.6084557906778" lon="0.8834489126237973"><ele>210.0</ele><time>2026-05-01T12:25:33Z</time></trkpt><trkpt lat="44.6085371673888" lon="0.8834462435429349"><ele>210.0</ele><time>2026-05-01T12:25:35Z</time></trkpt><trkpt lat="44.6086158238328" lon="0.8834525981557146"><ele>210.0</ele><time>2026-05-01T12:25:36Z</time></trkpt><trkpt lat="44.611317732854246" lon="0.8867290713270616"><ele>206.8</ele><time>2026-05-01T12:26:37Z</time></trkpt><trkpt lat="44.611403069260895" lon="0.8866861430361893"><ele>203.6</ele><time>2026-05-01T12:26:40Z</time></trkpt><trkpt lat="44.611493031028985" lon="0.8865579970877111"><ele>200.39999999999998</ele><time>2026-05-01T12:26:42Z</time></trkpt><trkpt lat="44.61157602632086" lon="0.8864933580088237"><ele>197.2</ele><time>2026-05-01T12:26:43Z</time></trkpt><trkpt lat="44.61167747736071" lon="0.8864189639686255"><ele>194.0</ele><time>2026-05-01T12:26:44Z</time></trkpt><trkpt lat="44.6117839516005" lon="0.886334353079198"><ele>194.0</ele><time>2026-05-01T12:26:45Z</time></trkpt><trkpt lat="44.611887327189066" lon="0.8862474414825205"><ele>194.0</ele><time>2026-05-01T12:26:46Z</time></trkpt><trkpt lat="44.611988223734414" lon="0.8861616590162245"><ele>194.0</ele><time>2026-05-01T12:26:47Z</time></trkpt><trkpt lat="44.61208203098309" lon="0.8860838059717572"><ele>194.0</ele><time>2026-05-01T12:26:48Z</time></trkpt><trkpt lat="44.61217903121536" lon="0.8859990169442734"><ele>196.0</ele><time>2026-05-01T12:26:49Z</time></trkpt><trkpt lat="44.6122746149499" lon="0.8859156017240735"><ele>198.0</ele><time>2026-05-01T12:26:50Z</time></trkpt><trkpt lat="44.61238194780859" lon="0.8858427167939152"><ele>200.0</ele><time>2026-05-01T12:26:51Z</time></trkpt><trkpt lat="44.612495720752484" lon="0.8857773384477866"><ele>202.0</ele><time>2026-05-01T12:26:52Z</time></trkpt><trkpt lat="44.612606471304275" lon="0.8857027726098349"><ele>202.0</ele><time>2026-05-01T12:26:53Z</time></trkpt><trkpt lat="44.612710765566746" lon="0.8856173923030518"><ele>202.0</ele><time>2026-05-01T12:26:54Z</time></trkpt><trkpt lat="44.61281548315648" lon="0.8855306650060084"><ele>202.0</ele><time>2026-05-01T12:26:55Z</time></trkpt><trkpt lat="44.61291748884002" lon="0.8854510611268612"><ele>202.0</ele><time>2026-05-01T12:26:56Z</time></trkpt><trkpt lat="44.61303056839897" lon="0.885372129467645"><ele>203.0</ele><time>2026-05-01T12:26:57Z</time></trkpt><trkpt lat="44.61313901801475" lon="0.8853053926592501"><ele>204.0</ele><time>2026-05-01T12:26:58Z</time></trkpt><trkpt lat="44.61326272990758" lon="0.8852355481591158"><ele>205.0</ele><time>2026-05-01T12:26:59Z</time></trkpt><trkpt lat="44.61338377653318" lon="0.8851802631820103"><ele>206.0</ele><time>2026-05-01T12:27:00Z</time></trkpt><trkpt lat="44.613504221599655" lon="0.8851253779489361"><ele>206.5</ele><time>2026-05-01T12:27:01Z</time></trkpt><trkpt lat="44.613626452980476" lon="0.8850707699690292"><ele>207.0</ele><time>2026-05-01T12:27:02Z</time></trkpt><trkpt lat="44.61374920700199" lon="0.8850480698947992"><ele>207.5</ele><time>2026-05-01T12:27:03Z</time></trkpt><trkpt lat="44.61387802629797" lon="0.8849965952466479"><ele>208.0</ele><time>2026-05-01T12:27:04Z</time></trkpt><trkpt lat="44.61399647009613" lon="0.8849450369258907"><ele>208.5</ele><time>2026-05-01T12:27:05Z</time></trkpt><trkpt lat="44.61411320367022" lon="0.8849213824952574"><ele>209.0</ele><time>2026-05-01T12:27:06Z</time></trkpt><trkpt lat="44.61422787429512" lon="0.8848924436126614"><ele>209.5</ele><time>2026-05-01T12:27:07Z</time></trkpt><trkpt lat="44.61434210136069" lon="0.8848657124589868"><ele>210.0</ele><time>2026-05-01T12:27:08Z</time></trkpt><trkpt lat="44.61446221905201" lon="0.8848559187697852"><ele>210.75</ele><time>2026-05-01T12:27:09Z</time></trkpt><trkpt lat="44.61457504160364" lon="0.8848256168463019"><ele>211.5</ele><time>2026-05-01T12:27:10Z</time></trkpt><trkpt lat="44.6146976349063" lon="0.8847778725897635"><ele>212.25</ele><time>2026-05-01T12:27:11Z</time></trkpt><trkpt lat="44.61481017187491" lon="0.8847106547138607"><ele>213.0</ele><time>2026-05-01T12:27:12Z</time></trkpt><trkpt lat="44.61493458624357" lon="0.8846659097162065"><ele>213.0</ele><time>2026-05-01T12:27:13Z</time></trkpt><trkpt lat="44.61505773862442" lon="0.8846326506344235"><ele>213.0</ele><time>2026-05-01T12:27:14Z</time></trkpt><trkpt lat="44.615180573645986" lon="0.8846361394065556"><ele>213.0</ele><time>2026-05-01T12:27:15Z</time></trkpt><trkpt lat="44.615312341991675" lon="0.8845979805797035"><ele>213.0</ele><time>2026-05-01T12:27:16Z</time></trkpt><trkpt lat="44.61544505840279" lon="0.8845819465006626"><ele>212.25</ele><time>2026-05-01T12:27:17Z</time></trkpt><trkpt lat="44.6155864271749" lon="0.884573537228476"><ele>211.5</ele><time>2026-05-01T12:27:18Z</time></trkpt><trkpt lat="44.61571671626671" lon="0.8845757591386603"><ele>210.75</ele><time>2026-05-01T12:27:19Z</time></trkpt><trkpt lat="44.61584572601151" lon="0.884564549843274"><ele>210.0</ele><time>2026-05-01T12:27:20Z</time></trkpt><trkpt lat="44.61597465276525" lon="0.8845450804739168"><ele>210.0</ele><time>2026-05-01T12:27:21Z</time></trkpt><trkpt lat="44.61609743192417" lon="0.8845302133501969"><ele>210.0</ele><time>2026-05-01T12:27:22Z</time></trkpt><trkpt lat="44.61623250746515" lon="0.8845181234683837"><ele>210.0</ele><time>2026-05-01T12:27:23Z</time></trkpt><trkpt lat="44.616358162480424" lon="0.8844933715029037"><ele>210.0</ele><time>2026-05-01T12:27:24Z</time></trkpt><trkpt lat="44.616463861588635" lon="0.8844883992357964"><ele>209.83333333333334</ele><time>2026-05-01T12:27:25Z</time></trkpt><trkpt lat="44.61655550006486" lon="0.884496257601543"><ele>209.66666666666669</ele><time>2026-05-01T12:27:26Z</time></trkpt><trkpt lat="44.616648069296346" lon="0.8845485003608947"><ele>209.5</ele><time>2026-05-01T12:27:27Z</time></trkpt><trkpt lat="44.61673311818616" lon="0.8845860494151953"><ele>209.33333333333334</ele><time>2026-05-01T12:27:28Z</time></trkpt><trkpt lat="44.616808006376814" lon="0.88462766617087"><ele>209.16666666666669</ele><time>2026-05-01T12:27:29Z</time></trkpt><trkpt lat="44.61687311605667" lon="0.8846503766878892"><ele>209.0</ele><time>2026-05-01T12:27:30Z</time></trkpt><trkpt lat="44.61695428126631" lon="0.8847339901123312"><ele>175.0</ele><time>2026-05-01T12:27:32Z</time></trkpt><trkpt lat="44.6212274024303" lon="0.8825059120709885"><ele>203.0</ele><time>2026-05-01T12:28:43Z</time></trkpt><trkpt lat="44.62900824881458" lon="0.8788891302963772"><ele>206.0</ele><time>2026-05-01T12:30:58Z</time></trkpt><trkpt lat="44.62951391382286" lon="0.8784391021661471"><ele>206.00000000000003</ele><time>2026-05-01T12:31:19Z</time></trkpt><trkpt lat="44.62956432273524" lon="0.8782839315595824"><ele>206.0</ele><time>2026-05-01T12:31:21Z</time></trkpt><trkpt lat="44.62959343137168" lon="0.8781919833181286"><ele>206.0</ele><time>2026-05-01T12:31:22Z</time></trkpt><trkpt lat="44.62961825402722" lon="0.8780984023002645"><ele>206.0</ele><time>2026-05-01T12:31:23Z</time></trkpt><trkpt lat="44.629642626979255" lon="0.8779887214721901"><ele>206.00000000000003</ele><time>2026-05-01T12:31:24Z</time></trkpt><trkpt lat="44.62967048349382" lon="0.8778843250320831"><ele>206.0</ele><time>2026-05-01T12:31:25Z</time></trkpt><trkpt lat="44.629702372976716" lon="0.8777619620318908"><ele>206.0</ele><time>2026-05-01T12:31:26Z</time></trkpt><trkpt lat="44.6297294690561" lon="0.8776528178624963"><ele>206.0</ele><time>2026-05-01T12:31:27Z</time></trkpt><trkpt lat="44.62974825463056" lon="0.8775376799828652"><ele>206.0</ele><time>2026-05-01T12:31:28Z</time></trkpt><trkpt lat="44.629774937519535" lon="0.8774046228602286"><ele>206.0</ele><time>2026-05-01T12:31:29Z</time></trkpt><trkpt lat="44.62979201463612" lon="0.8773115139523378"><ele>206.0</ele><time>2026-05-01T12:31:30Z</time></trkpt><trkpt lat="44.62982515969896" lon="0.8771270156382064"><ele>205.83333333333334</ele><time>2026-05-01T12:31:32Z</time></trkpt><trkpt lat="44.62982953888745" lon="0.8770363311650113"><ele>205.66666666666669</ele><time>2026-05-01T12:31:33Z</time></trkpt><trkpt lat="44.62982374648663" lon="0.8769254647211069"><ele>205.5</ele><time>2026-05-01T12:31:34Z</time></trkpt><trkpt lat="44.62981046020705" lon="0.8768149626675362"><ele>205.33333333333331</ele><time>2026-05-01T12:31:36Z</time></trkpt><trkpt lat="44.629748217397214" lon="0.8767263782147089"><ele>205.16666666666666</ele><time>2026-05-01T12:31:40Z</time></trkpt><trkpt lat="44.62980730184425" lon="0.8767931834462556"><ele>205.0</ele><time>2026-05-01T12:31:55Z</time></trkpt><trkpt lat="44.629927228305505" lon="0.8767996845582562"><ele>205.0</ele><time>2026-05-01T12:31:56Z</time></trkpt><trkpt lat="44.629998267059186" lon="0.8768434942045966"><ele>205.0</ele><time>2026-05-01T12:31:57Z</time></trkpt><trkpt lat="44.63008973953472" lon="0.8769090948795264"><ele>205.0</ele><time>2026-05-01T12:31:58Z</time></trkpt><trkpt lat="44.630181838917956" lon="0.8769594005747615"><ele>205.0</ele><time>2026-05-01T12:31:59Z</time></trkpt><trkpt lat="44.63026451602407" lon="0.8770058752106148"><ele>205.0</ele><time>2026-05-01T12:32:00Z</time></trkpt><trkpt lat="44.63035203005198" lon="0.8770635736548962"><ele>206.6</ele><time>2026-05-01T12:32:01Z</time></trkpt><trkpt lat="44.630451481605" lon="0.8771432125627595"><ele>208.2</ele><time>2026-05-01T12:32:02Z</time></trkpt><trkpt lat="44.63057037944787" lon="0.8772108682743232"><ele>209.8</ele><time>2026-05-01T12:32:03Z</time></trkpt><trkpt lat="44.63066081302119" lon="0.8772670988618666"><ele>211.4</ele><time>2026-05-01T12:32:04Z</time></trkpt><trkpt lat="44.63074452895467" lon="0.8772992045224384"><ele>213.0</ele><time>2026-05-01T12:32:05Z</time></trkpt><trkpt lat="44.63081458386137" lon="0.8773284153918107"><ele>213.0</ele><time>2026-05-01T12:32:06Z</time></trkpt><trkpt lat="44.630882776586375" lon="0.8773520758472919"><ele>213.0</ele><time>2026-05-01T12:32:07Z</time></trkpt><trkpt lat="44.630954786089596" lon="0.8773871219709035"><ele>213.0</ele><time>2026-05-01T12:32:08Z</time></trkpt><trkpt lat="44.63107065010973" lon="0.877493458962888"><ele>213.0</ele><time>2026-05-01T12:32:10Z</time></trkpt><trkpt lat="44.631152962408095" lon="0.8775338889060794"><ele>213.0</ele><time>2026-05-01T12:32:11Z</time></trkpt><trkpt lat="44.63124409530602" lon="0.8775637051811207"><ele>211.60000000000002</ele><time>2026-05-01T12:32:12Z</time></trkpt><trkpt lat="44.63132331045536" lon="0.8776141163780785"><ele>210.20000000000002</ele><time>2026-05-01T12:32:13Z</time></trkpt><trkpt lat="44.631384730493224" lon="0.8776450137746932"><ele>208.8</ele><time>2026-05-01T12:32:14Z</time></trkpt><trkpt lat="44.63146077816078" lon="0.8776899033211122"><ele>207.4</ele><time>2026-05-01T12:32:15Z</time></trkpt><trkpt lat="44.63156751040936" lon="0.8777400264612463"><ele>206.0</ele><time>2026-05-01T12:32:16Z</time></trkpt><trkpt lat="44.63166504056674" lon="0.8778146534770452"><ele>206.0</ele><time>2026-05-01T12:32:17Z</time></trkpt><trkpt lat="44.63177554344159" lon="0.8778909558263917"><ele>206.0</ele><time>2026-05-01T12:32:18Z</time></trkpt><trkpt lat="44.63187943370592" lon="0.8779258996547373"><ele>206.0</ele><time>2026-05-01T12:32:19Z</time></trkpt><trkpt lat="44.63199631524006" lon="0.8779806205325386"><ele>206.0</ele><time>2026-05-01T12:32:20Z</time></trkpt><trkpt lat="44.63209477981096" lon="0.8780415947846539"><ele>206.16666666666669</ele><time>2026-05-01T12:32:21Z</time></trkpt><trkpt lat="44.63217942135545" lon="0.8781054420048091"><ele>206.33333333333334</ele><time>2026-05-01T12:32:22Z</time></trkpt><trkpt lat="44.632253822629096" lon="0.8781693875038987"><ele>206.5</ele><time>2026-05-01T12:32:23Z</time></trkpt><trkpt lat="44.63233334081441" lon="0.8782046912409595"><ele>206.66666666666669</ele><time>2026-05-01T12:32:24Z</time></trkpt><trkpt lat="44.63240123113105" lon="0.8782317587886372"><ele>206.83333333333334</ele><time>2026-05-01T12:32:25Z</time></trkpt><trkpt lat="44.63248859719247" lon="0.8782384388950517"><ele>207.0</ele><time>2026-05-01T12:32:27Z</time></trkpt><trkpt lat="44.63256854537827" lon="0.8782348242628852"><ele>207.0</ele><time>2026-05-01T12:32:28Z</time></trkpt><trkpt lat="44.63267241129308" lon="0.8782396488795983"><ele>207.0</ele><time>2026-05-01T12:32:29Z</time></trkpt><trkpt lat="44.632769088915964" lon="0.8782429373814838"><ele>207.0</ele><time>2026-05-01T12:32:30Z</time></trkpt><trkpt lat="44.63286912246564" lon="0.8782529473905687"><ele>207.0</ele><time>2026-05-01T12:32:31Z</time></trkpt><trkpt lat="44.632979507156065" lon="0.8782529763404767"><ele>207.0</ele><time>2026-05-01T12:32:32Z</time></trkpt><trkpt lat="44.63310249047207" lon="0.8782647570953828"><ele>207.0</ele><time>2026-05-01T12:32:33Z</time></trkpt><trkpt lat="44.63319085471607" lon="0.8782841746808776"><ele>207.0</ele><time>2026-05-01T12:32:34Z</time></trkpt><trkpt lat="44.633261187715036" lon="0.8782866063174805"><ele>207.0</ele><time>2026-05-01T12:32:35Z</time></trkpt><trkpt lat="44.633337465273804" lon="0.8782884148034017"><ele>207.0</ele><time>2026-05-01T12:32:36Z</time></trkpt><trkpt lat="44.6334211693396" lon="0.8782944504011924"><ele>207.0</ele><time>2026-05-01T12:32:37Z</time></trkpt><trkpt lat="44.633521564336725" lon="0.8782977263179174"><ele>207.0</ele><time>2026-05-01T12:32:38Z</time></trkpt><trkpt lat="44.63362348705082" lon="0.8783120402359431"><ele>206.5</ele><time>2026-05-01T12:32:39Z</time></trkpt><trkpt lat="44.63370932287669" lon="0.8783159278921445"><ele>206.0</ele><time>2026-05-01T12:32:40Z</time></trkpt><trkpt lat="44.63379683100911" lon="0.8783194660888903"><ele>205.5</ele><time>2026-05-01T12:32:41Z</time></trkpt><trkpt lat="44.63387418626321" lon="0.8783239437631343"><ele>205.0</ele><time>2026-05-01T12:32:42Z</time></trkpt><trkpt lat="44.63394992453443" lon="0.8783270561668489"><ele>204.5</ele><time>2026-05-01T12:32:43Z</time></trkpt><trkpt lat="44.634049995035234" lon="0.87834127838501"><ele>204.0</ele><time>2026-05-01T12:32:44Z</time></trkpt><trkpt lat="44.63412911751951" lon="0.8783348510080429"><ele>204.0</ele><time>2026-05-01T12:32:45Z</time></trkpt><trkpt lat="44.63422161754115" lon="0.878370672303067"><ele>204.0</ele><time>2026-05-01T12:32:47Z</time></trkpt><trkpt lat="44.63429083866035" lon="0.8783313427875462"><ele>204.0</ele><time>2026-05-01T12:32:54Z</time></trkpt><trkpt lat="44.63442415836265" lon="0.8783548990767958"><ele>204.0</ele><time>2026-05-01T12:32:56Z</time></trkpt><trkpt lat="44.634486125769975" lon="0.8783843640330345"><ele>204.0</ele><time>2026-05-01T12:32:57Z</time></trkpt><trkpt lat="44.63462414179087" lon="0.8783568523348053"><ele>203.83333333333334</ele><time>2026-05-01T12:32:59Z</time></trkpt><trkpt lat="44.63470707840698" lon="0.8783615212251682"><ele>203.66666666666669</ele><time>2026-05-01T12:33:00Z</time></trkpt><trkpt lat="44.634811917718736" lon="0.878417881799434"><ele>203.5</ele><time>2026-05-01T12:33:02Z</time></trkpt><trkpt lat="44.634885303195105" lon="0.8783913429766329"><ele>203.33333333333334</ele><time>2026-05-01T12:33:04Z</time></trkpt><trkpt lat="44.63494009255414" lon="0.878318905979358"><ele>203.16666666666669</ele><time>2026-05-01T12:33:06Z</time></trkpt><trkpt lat="44.63503537704647" lon="0.8783011898085873"><ele>203.0</ele><time>2026-05-01T12:33:08Z</time></trkpt><trkpt lat="44.63513860672861" lon="0.8784070801111485"><ele>204.16666666666669</ele><time>2026-05-01T12:33:10Z</time></trkpt><trkpt lat="44.6351855927238" lon="0.8784753863810304"><ele>205.33333333333334</ele><time>2026-05-01T12:33:11Z</time></trkpt><trkpt lat="44.6352445684257" lon="0.8785398448446289"><ele>206.5</ele><time>2026-05-01T12:33:12Z</time></trkpt><trkpt lat="44.635298959489965" lon="0.8786110965280299"><ele>207.66666666666669</ele><time>2026-05-01T12:33:13Z</time></trkpt><trkpt lat="44.63536782049956" lon="0.8786953105710605"><ele>208.83333333333334</ele><time>2026-05-01T12:33:14Z</time></trkpt><trkpt lat="44.63544279019246" lon="0.8787792734676858"><ele>210.0</ele><time>2026-05-01T12:33:15Z</time></trkpt><trkpt lat="44.63552430017213" lon="0.8788770350291575"><ele>210.8</ele><time>2026-05-01T12:33:16Z</time></trkpt><trkpt lat="44.63560766746963" lon="0.8789549903603077"><ele>211.6</ele><time>2026-05-01T12:33:17Z</time></trkpt><trkpt lat="44.63569472861165" lon="0.8790406827809769"><ele>212.39999999999998</ele><time>2026-05-01T12:33:18Z</time></trkpt><trkpt lat="44.63578766405914" lon="0.8791265355597797"><ele>213.2</ele><time>2026-05-01T12:33:19Z</time></trkpt><trkpt lat="44.6358739281247" lon="0.8792140786514494"><ele>214.0</ele><time>2026-05-01T12:33:20Z</time></trkpt><trkpt lat="44.63595092806289" lon="0.8793068770950078"><ele>214.0</ele><time>2026-05-01T12:33:21Z</time></trkpt><trkpt lat="44.63603238518855" lon="0.8793969238268379"><ele>213.99999999999997</ele><time>2026-05-01T12:33:22Z</time></trkpt><trkpt lat="44.6361245359669" lon="0.879470344257941"><ele>213.99999999999997</ele><time>2026-05-01T12:33:23Z</time></trkpt><trkpt lat="44.63622131894769" lon="0.879531414259471"><ele>214.0</ele><time>2026-05-01T12:33:24Z</time></trkpt><trkpt lat="44.6363207102948" lon="0.8795914704490982"><ele>214.0</ele><time>2026-05-01T12:33:25Z</time></trkpt><trkpt lat="44.63642482987728" lon="0.8796408302230727"><ele>214.0</ele><time>2026-05-01T12:33:26Z</time></trkpt><trkpt lat="44.63653280639861" lon="0.8797516421189446"><ele>214.0</ele><time>2026-05-01T12:33:27Z</time></trkpt><trkpt lat="44.636649221398876" lon="0.8798233884457075"><ele>214.0</ele><time>2026-05-01T12:33:28Z</time></trkpt><trkpt lat="44.63677046807472" lon="0.8798974356004012"><ele>214.0</ele><time>2026-05-01T12:33:29Z</time></trkpt><trkpt lat="44.63689882449524" lon="0.879975824657446"><ele>213.75</ele><time>2026-05-01T12:33:30Z</time></trkpt><trkpt lat="44.63702829288285" lon="0.8800520643908395"><ele>213.5</ele><time>2026-05-01T12:33:31Z</time></trkpt><trkpt lat="44.637163315500906" lon="0.8801312047137334"><ele>213.25</ele><time>2026-05-01T12:33:32Z</time></trkpt><trkpt lat="44.63729679165559" lon="0.8802094386350242"><ele>213.0</ele><time>2026-05-01T12:33:33Z</time></trkpt><trkpt lat="44.637406393673636" lon="0.8802729411843782"><ele>213.0</ele><time>2026-05-01T12:33:34Z</time></trkpt><trkpt lat="44.63752243707929" lon="0.8803369664970375"><ele>213.0</ele><time>2026-05-01T12:33:35Z</time></trkpt><trkpt lat="44.63763698232667" lon="0.8804001651589705"><ele>213.0</ele><time>2026-05-01T12:33:36Z</time></trkpt><trkpt lat="44.637753025416565" lon="0.8804638475247829"><ele>213.0</ele><time>2026-05-01T12:33:37Z</time></trkpt><trkpt lat="44.63786742963269" lon="0.8805182248205833"><ele>211.0</ele><time>2026-05-01T12:33:38Z</time></trkpt><trkpt lat="44.63798436001056" lon="0.8805859610808983"><ele>209.0</ele><time>2026-05-01T12:33:39Z</time></trkpt><trkpt lat="44.638115358044985" lon="0.8806358982604141"><ele>207.0</ele><time>2026-05-01T12:33:40Z</time></trkpt><trkpt lat="44.63825357604533" lon="0.8807120528584871"><ele>205.0</ele><time>2026-05-01T12:33:41Z</time></trkpt><trkpt lat="44.63839710141119" lon="0.8807609358137529"><ele>205.0</ele><time>2026-05-01T12:33:42Z</time></trkpt><trkpt lat="44.6385401399446" lon="0.8807954630966622"><ele>205.0</ele><time>2026-05-01T12:33:43Z</time></trkpt><trkpt lat="44.63867958502036" lon="0.8808387105375287"><ele>205.0</ele><time>2026-05-01T12:33:44Z</time></trkpt><trkpt lat="44.63881332189155" lon="0.880869464333767"><ele>205.0</ele><time>2026-05-01T12:33:45Z</time></trkpt><trkpt lat="44.63895193279966" lon="0.8809270899967788"><ele>204.25</ele><time>2026-05-01T12:33:46Z</time></trkpt><trkpt lat="44.639084318186775" lon="0.880999423936951"><ele>203.5</ele><time>2026-05-01T12:33:47Z</time></trkpt><trkpt lat="44.639203479168046" lon="0.8810571831244733"><ele>202.75</ele><time>2026-05-01T12:33:48Z</time></trkpt><trkpt lat="44.63932234077549" lon="0.881112528544027"><ele>202.0</ele><time>2026-05-01T12:33:49Z</time></trkpt><trkpt lat="44.63943515292552" lon="0.8811590468519325"><ele>201.5</ele><time>2026-05-01T12:33:50Z</time></trkpt><trkpt lat="44.63954973130698" lon="0.8812009735752164"><ele>201.0</ele><time>2026-05-01T12:33:51Z</time></trkpt><trkpt lat="44.639674666541595" lon="0.8812432074044388"><ele>200.5</ele><time>2026-05-01T12:33:52Z</time></trkpt><trkpt lat="44.63979000066676" lon="0.8812821926866212"><ele>200.0</ele><time>2026-05-01T12:33:53Z</time></trkpt><trkpt lat="44.63990513123715" lon="0.8813211092099293"><ele>200.0</ele><time>2026-05-01T12:33:54Z</time></trkpt><trkpt lat="44.640021484598144" lon="0.8813625726130649"><ele>200.0</ele><time>2026-05-01T12:33:55Z</time></trkpt><trkpt lat="44.64014143957769" lon="0.8814058221481343"><ele>200.0</ele><time>2026-05-01T12:33:56Z</time></trkpt><trkpt lat="44.640238793323995" lon="0.8814423182382906"><ele>200.0</ele><time>2026-05-01T12:33:57Z</time></trkpt><trkpt lat="44.640349409597555" lon="0.8814863439731311"><ele>199.66666666666669</ele><time>2026-05-01T12:33:58Z</time></trkpt><trkpt lat="44.64042754001573" lon="0.8815210744919609"><ele>199.33333333333334</ele><time>2026-05-01T12:33:59Z</time></trkpt><trkpt lat="44.64050431574016" lon="0.8815615796115106"><ele>199.0</ele><time>2026-05-01T12:34:00Z</time></trkpt><trkpt lat="44.64059041927334" lon="0.8816180714301732"><ele>198.66666666666669</ele><time>2026-05-01T12:34:02Z</time></trkpt><trkpt lat="44.640662666127035" lon="0.8816748901596686"><ele>198.33333333333334</ele><time>2026-05-01T12:34:04Z</time></trkpt><trkpt lat="44.64072881014857" lon="0.8817254212209474"><ele>198.0</ele><time>2026-05-01T12:34:07Z</time></trkpt><trkpt lat="44.640801727928164" lon="0.8817674492740216"><ele>198.0</ele><time>2026-05-01T12:34:11Z</time></trkpt><trkpt lat="44.64101978678249" lon="0.8813324270685429"><ele>198.0</ele><time>2026-05-01T12:34:13Z</time></trkpt><trkpt lat="44.641104517213044" lon="0.8812209945862345"><ele>198.0</ele><time>2026-05-01T12:34:14Z</time></trkpt><trkpt lat="44.641205906874944" lon="0.8811389200930266"><ele>198.0</ele><time>2026-05-01T12:34:15Z</time></trkpt><trkpt lat="44.64130582236853" lon="0.8810640666200502"><ele>198.0</ele><time>2026-05-01T12:34:16Z</time></trkpt><trkpt lat="44.64139377860809" lon="0.8809752353973668"><ele>198.0</ele><time>2026-05-01T12:34:17Z</time></trkpt><trkpt lat="44.64146705241018" lon="0.8808986785221588"><ele>198.0</ele><time>2026-05-01T12:34:18Z</time></trkpt><trkpt lat="44.64155648600923" lon="0.8807822989747499"><ele>198.0</ele><time>2026-05-01T12:34:19Z</time></trkpt><trkpt lat="44.64166422652055" lon="0.8806876984245784"><ele>198.0</ele><time>2026-05-01T12:34:20Z</time></trkpt><trkpt lat="44.6417516662296" lon="0.8806113584302151"><ele>198.0</ele><time>2026-05-01T12:34:21Z</time></trkpt><trkpt lat="44.64181925018495" lon="0.8804782463429308"><ele>198.0</ele><time>2026-05-01T12:34:22Z</time></trkpt><trkpt lat="44.64184176314765" lon="0.8803320908378829"><ele>198.0</ele><time>2026-05-01T12:34:23Z</time></trkpt><trkpt lat="44.64192337157643" lon="0.880206525828597"><ele>198.0</ele><time>2026-05-01T12:34:24Z</time></trkpt><trkpt lat="44.64202315528025" lon="0.8800994516510611"><ele>198.0</ele><time>2026-05-01T12:34:25Z</time></trkpt><trkpt lat="44.64213668254292" lon="0.8800147193015503"><ele>198.0</ele><time>2026-05-01T12:34:26Z</time></trkpt><trkpt lat="44.642247092111724" lon="0.8799559228733577"><ele>199.0</ele><time>2026-05-01T12:34:27Z</time></trkpt><trkpt lat="44.6426575658424" lon="0.8798001674140874"><ele>200.0</ele><time>2026-05-01T12:34:30Z</time></trkpt><trkpt lat="44.64276575012708" lon="0.8797161382596251"><ele>200.0</ele><time>2026-05-01T12:34:31Z</time></trkpt><trkpt lat="44.64286090475081" lon="0.8796471846934556"><ele>200.0</ele><time>2026-05-01T12:34:32Z</time></trkpt><trkpt lat="44.64296031728176" lon="0.8795854613879314"><ele>200.0</ele><time>2026-05-01T12:34:33Z</time></trkpt><trkpt lat="44.643081674320335" lon="0.8795535277480221"><ele>200.0</ele><time>2026-05-01T12:34:34Z</time></trkpt><trkpt lat="44.64318285870728" lon="0.8795278830091661"><ele>200.0</ele><time>2026-05-01T12:34:35Z</time></trkpt><trkpt lat="44.64326139837361" lon="0.8795104751382709"><ele>200.0</ele><time>2026-05-01T12:34:36Z</time></trkpt><trkpt lat="44.64334692914615" lon="0.8794803397284616"><ele>200.0</ele><time>2026-05-01T12:34:37Z</time></trkpt><trkpt lat="44.64348190689838" lon="0.8795064485217539"><ele>200.0</ele><time>2026-05-01T12:34:39Z</time></trkpt><trkpt lat="44.643555458550786" lon="0.8795225398260695"><ele>200.0</ele><time>2026-05-01T12:34:40Z</time></trkpt><trkpt lat="44.64364466321282" lon="0.8795298082355324"><ele>200.0</ele><time>2026-05-01T12:34:41Z</time></trkpt><trkpt lat="44.64372548847844" lon="0.8794995132996829"><ele>199.00000000000003</ele><time>2026-05-01T12:34:42Z</time></trkpt><trkpt lat="44.643824792068045" lon="0.8794956801600965"><ele>198.0</ele><time>2026-05-01T12:34:44Z</time></trkpt><trkpt lat="44.64388970692246" lon="0.8794653131293495"><ele>197.0</ele><time>2026-05-01T12:34:45Z</time></trkpt><trkpt lat="44.64395743538923" lon="0.8793859528513457"><ele>196.0</ele><time>2026-05-01T12:34:46Z</time></trkpt><trkpt lat="44.64404203207181" lon="0.8793382660609932"><ele>195.00000000000003</ele><time>2026-05-01T12:34:47Z</time></trkpt><trkpt lat="44.64413824118987" lon="0.87932260925554"><ele>194.0</ele><time>2026-05-01T12:34:48Z</time></trkpt><trkpt lat="44.64423629439516" lon="0.8793396116879755"><ele>194.00000000000003</ele><time>2026-05-01T12:34:49Z</time></trkpt><trkpt lat="44.644309446220866" lon="0.8793734540313557"><ele>194.0</ele><time>2026-05-01T12:34:50Z</time></trkpt><trkpt lat="44.644437069811325" lon="0.8793619072678585"><ele>194.0</ele><time>2026-05-01T12:34:51Z</time></trkpt><trkpt lat="44.644529757226955" lon="0.8793506300582444"><ele>194.0</ele><time>2026-05-01T12:34:52Z</time></trkpt><trkpt lat="44.644592108877426" lon="0.8792823261971462"><ele>194.00000000000003</ele><time>2026-05-01T12:34:54Z</time></trkpt><trkpt lat="44.64462209900299" lon="0.8791996030241542"><ele>194.0</ele><time>2026-05-01T12:34:55Z</time></trkpt><trkpt lat="44.64467742007218" lon="0.8791057183909883"><ele>193.0</ele><time>2026-05-01T12:34:56Z</time></trkpt><trkpt lat="44.64473092977219" lon="0.8789111529096727"><ele>192.0</ele><time>2026-05-01T12:34:57Z</time></trkpt><trkpt lat="44.64477721615195" lon="0.8787497526502843"><ele>191.0</ele><time>2026-05-01T12:34:58Z</time></trkpt><trkpt lat="44.64481896652446" lon="0.8786500953272945"><ele>190.0</ele><time>2026-05-01T12:34:59Z</time></trkpt><trkpt lat="44.64485055577988" lon="0.878568630280643"><ele>189.0</ele><time>2026-05-01T12:35:00Z</time></trkpt><trkpt lat="44.64485519473926" lon="0.8784622127565138"><ele>189.0</ele><time>2026-05-01T12:35:01Z</time></trkpt><trkpt lat="44.64488001762569" lon="0.8783235392333503"><ele>189.0</ele><time>2026-05-01T12:35:02Z</time></trkpt><trkpt lat="44.64487466811545" lon="0.8781813260693477"><ele>189.0</ele><time>2026-05-01T12:35:03Z</time></trkpt><trkpt lat="44.64486871317707" lon="0.87807100987348"><ele>189.0</ele><time>2026-05-01T12:35:04Z</time></trkpt><trkpt lat="44.64489186382867" lon="0.8779175949350513"><ele>189.0</ele><time>2026-05-01T12:35:05Z</time></trkpt><trkpt lat="44.64493487997116" lon="0.8778076590916001"><ele>189.0</ele><time>2026-05-01T12:35:06Z</time></trkpt><trkpt lat="44.645001063959896" lon="0.8777331333381211"><ele>189.0</ele><time>2026-05-01T12:35:08Z</time></trkpt><trkpt lat="44.64514572381301" lon="0.8776946893900645"><ele>189.0</ele><time>2026-05-01T12:35:10Z</time></trkpt><trkpt lat="44.64523695234787" lon="0.8776601272480048"><ele>189.0</ele><time>2026-05-01T12:35:11Z</time></trkpt><trkpt lat="44.645345623709325" lon="0.8776301411764282"><ele>189.0</ele><time>2026-05-01T12:35:12Z</time></trkpt><trkpt lat="44.645447983238085" lon="0.8776089615457507"><ele>189.6</ele><time>2026-05-01T12:35:13Z</time></trkpt><trkpt lat="44.64554467422357" lon="0.8775561856042859"><ele>190.2</ele><time>2026-05-01T12:35:14Z</time></trkpt><trkpt lat="44.645639634245306" lon="0.8774923990924968"><ele>190.79999999999998</ele><time>2026-05-01T12:35:15Z</time></trkpt><trkpt lat="44.645720370129006" lon="0.8774358440525525"><ele>191.39999999999998</ele><time>2026-05-01T12:35:16Z</time></trkpt><trkpt lat="44.645803583480415" lon="0.8773692170139537"><ele>192.0</ele><time>2026-05-01T12:35:17Z</time></trkpt><trkpt lat="44.645869226428864" lon="0.8772836990533125"><ele>192.0</ele><time>2026-05-01T12:35:18Z</time></trkpt><trkpt lat="44.64593814382225" lon="0.8771664724040295"><ele>192.0</ele><time>2026-05-01T12:35:20Z</time></trkpt><trkpt lat="44.64599292474567" lon="0.8770516734742427"><ele>192.0</ele><time>2026-05-01T12:35:22Z</time></trkpt><trkpt lat="44.64610695754018" lon="0.8770027903640027"><ele>192.0</ele><time>2026-05-01T12:35:24Z</time></trkpt><trkpt lat="44.64617811728639" lon="0.8769253835424127"><ele>192.0</ele><time>2026-05-01T12:35:25Z</time></trkpt><trkpt lat="44.64624483537856" lon="0.8768236001281828"><ele>192.6</ele><time>2026-05-01T12:35:26Z</time></trkpt><trkpt lat="44.64631497280827" lon="0.8767663735681472"><ele>193.2</ele><time>2026-05-01T12:35:27Z</time></trkpt><trkpt lat="44.64640856570409" lon="0.8767177524635789"><ele>193.8</ele><time>2026-05-01T12:35:28Z</time></trkpt><trkpt lat="44.64650858662808" lon="0.8766861455156282"><ele>194.4</ele><time>2026-05-01T12:35:29Z</time></trkpt><trkpt lat="44.646617590772166" lon="0.8766626885294196"><ele>195.0</ele><time>2026-05-01T12:35:30Z</time></trkpt><trkpt lat="44.646701559235964" lon="0.8766491111593976"><ele>195.0</ele><time>2026-05-01T12:35:31Z</time></trkpt><trkpt lat="44.64680883429255" lon="0.8765037919338209"><ele>195.0</ele><time>2026-05-01T12:35:33Z</time></trkpt><trkpt lat="44.64687092320889" lon="0.8764660948103747"><ele>195.0</ele><time>2026-05-01T12:35:34Z</time></trkpt><trkpt lat="44.64694656963075" lon="0.8765003717108781"><ele>195.0</ele><time>2026-05-01T12:35:36Z</time></trkpt><trkpt lat="44.646990063976084" lon="0.8766471932188202"><ele>195.0</ele><time>2026-05-01T12:35:38Z</time></trkpt><trkpt lat="44.64713154869528" lon="0.8766392286299642"><ele>194.2</ele><time>2026-05-01T12:35:40Z</time></trkpt><trkpt lat="44.647226488174475" lon="0.8765728880704545"><ele>193.4</ele><time>2026-05-01T12:35:41Z</time></trkpt><trkpt lat="44.64729000806017" lon="0.8765128359755215"><ele>192.60000000000002</ele><time>2026-05-01T12:35:42Z</time></trkpt><trkpt lat="44.647356672318104" lon="0.876479894152963"><ele>191.8</ele><time>2026-05-01T12:35:43Z</time></trkpt><trkpt lat="44.647463365284565" lon="0.8764106831031206"><ele>191.0</ele><time>2026-05-01T12:35:44Z</time></trkpt><trkpt lat="44.64755358063608" lon="0.8763811676198067"><ele>191.0</ele><time>2026-05-01T12:35:45Z</time></trkpt><trkpt lat="44.647649966156855" lon="0.8763148492657346"><ele>191.0</ele><time>2026-05-01T12:35:46Z</time></trkpt><trkpt lat="44.64773968757508" lon="0.8762840673971215"><ele>191.0</ele><time>2026-05-01T12:35:47Z</time></trkpt><trkpt lat="44.647848814822126" lon="0.8762870512227466"><ele>191.0</ele><time>2026-05-01T12:35:48Z</time></trkpt><trkpt lat="44.647944432367204" lon="0.8762906118601678"><ele>191.0</ele><time>2026-05-01T12:35:49Z</time></trkpt><trkpt lat="44.64802935412868" lon="0.8762775554776021"><ele>188.60000000000002</ele><time>2026-05-01T12:35:50Z</time></trkpt><trkpt lat="44.64810746724175" lon="0.8762398546074865"><ele>186.2</ele><time>2026-05-01T12:35:51Z</time></trkpt><trkpt lat="44.6481699567982" lon="0.8762111976423346"><ele>183.8</ele><time>2026-05-01T12:35:52Z</time></trkpt><trkpt lat="44.64825344786393" lon="0.8762136574707895"><ele>181.39999999999998</ele><time>2026-05-01T12:35:54Z</time></trkpt><trkpt lat="44.648380484533156" lon="0.8763267498672247"><ele>179.0</ele><time>2026-05-01T12:35:56Z</time></trkpt><trkpt lat="44.64845642239539" lon="0.8763971968302097"><ele>179.0</ele><time>2026-05-01T12:35:57Z</time></trkpt><trkpt lat="44.64853176328282" lon="0.8764529377501455"><ele>179.0</ele><time>2026-05-01T12:35:58Z</time></trkpt><trkpt lat="44.648606276986605" lon="0.8765139592081508"><ele>179.0</ele><time>2026-05-01T12:35:59Z</time></trkpt><trkpt lat="44.648671344992195" lon="0.8765553577078343"><ele>179.0</ele><time>2026-05-01T12:36:00Z</time></trkpt><trkpt lat="44.64874195516915" lon="0.8765904859054038"><ele>179.0</ele><time>2026-05-01T12:36:01Z</time></trkpt><trkpt lat="44.64881516078373" lon="0.8765963317978561"><ele>179.0</ele><time>2026-05-01T12:36:02Z</time></trkpt><trkpt lat="44.64887922807397" lon="0.8765614336057145"><ele>176.39999999999998</ele><time>2026-05-01T12:36:03Z</time></trkpt><trkpt lat="44.648948688983886" lon="0.8764963190104683"><ele>173.8</ele><time>2026-05-01T12:36:04Z</time></trkpt><trkpt lat="44.64901099644357" lon="0.8764149381284314"><ele>171.2</ele><time>2026-05-01T12:36:05Z</time></trkpt><trkpt lat="44.64906879362918" lon="0.87631482622467"><ele>168.60000000000002</ele><time>2026-05-01T12:36:06Z</time></trkpt><trkpt lat="44.649116167122344" lon="0.8761876009490506"><ele>166.0</ele><time>2026-05-01T12:36:07Z</time></trkpt><trkpt lat="44.64915556061375" lon="0.8760734331403012"><ele>166.0</ele><time>2026-05-01T12:36:08Z</time></trkpt><trkpt lat="44.64919799775704" lon="0.8759911326472174"><ele>166.0</ele><time>2026-05-01T12:36:09Z</time></trkpt><trkpt lat="44.649235015153394" lon="0.8758872302378452"><ele>166.0</ele><time>2026-05-01T12:36:10Z</time></trkpt><trkpt lat="44.64926727649388" lon="0.8757952026441791"><ele>166.0</ele><time>2026-05-01T12:36:11Z</time></trkpt><trkpt lat="44.64929363627057" lon="0.87570054190037"><ele>166.0</ele><time>2026-05-01T12:36:12Z</time></trkpt><trkpt lat="44.649312180559605" lon="0.8756054632241206"><ele>166.0</ele><time>2026-05-01T12:36:13Z</time></trkpt><trkpt lat="44.649312410510916" lon="0.8755029083738007"><ele>166.0</ele><time>2026-05-01T12:36:14Z</time></trkpt><trkpt lat="44.6492599702649" lon="0.87530145850103"><ele>166.4</ele><time>2026-05-01T12:36:16Z</time></trkpt><trkpt lat="44.64922513734725" lon="0.8751640234868353"><ele>166.8</ele><time>2026-05-01T12:36:17Z</time></trkpt><trkpt lat="44.64917669862818" lon="0.8750226567776345"><ele>167.20000000000002</ele><time>2026-05-01T12:36:18Z</time></trkpt><trkpt lat="44.64916722373906" lon="0.874901458985014"><ele>167.60000000000002</ele><time>2026-05-01T12:36:19Z</time></trkpt><trkpt lat="44.64916754157466" lon="0.8747913024766385"><ele>168.0</ele><time>2026-05-01T12:36:20Z</time></trkpt><trkpt lat="44.64917317980365" lon="0.8746818089968939"><ele>167.2</ele><time>2026-05-01T12:36:21Z</time></trkpt><trkpt lat="44.649178265597925" lon="0.8745501342779433"><ele>166.4</ele><time>2026-05-01T12:36:22Z</time></trkpt><trkpt lat="44.64916214670283" lon="0.8743682583118912"><ele>165.6</ele><time>2026-05-01T12:36:24Z</time></trkpt><trkpt lat="44.649160512291544" lon="0.874265961564692"><ele>164.79999999999998</ele><time>2026-05-01T12:36:25Z</time></trkpt><trkpt lat="44.64917710082104" lon="0.8741545809359138"><ele>164.0</ele><time>2026-05-01T12:36:26Z</time></trkpt><trkpt lat="44.649247998587384" lon="0.87402551421718"><ele>163.33333333333331</ele><time>2026-05-01T12:36:28Z</time></trkpt><trkpt lat="44.64931024354029" lon="0.87399914791179"><ele>162.66666666666666</ele><time>2026-05-01T12:36:29Z</time></trkpt><trkpt lat="44.649373231018004" lon="0.8739667921711401"><ele>162.0</ele><time>2026-05-01T12:36:30Z</time></trkpt><trkpt lat="44.64946538565099" lon="0.8739380953974365"><ele>161.33333333333334</ele><time>2026-05-01T12:36:32Z</time></trkpt><trkpt lat="44.64952964385439" lon="0.8738933089610026"><ele>160.66666666666669</ele><time>2026-05-01T12:36:34Z</time></trkpt><trkpt lat="44.649615944271815" lon="0.8739041767585146"><ele>160.0</ele><time>2026-05-01T12:36:38Z</time></trkpt><trkpt lat="44.64965670314024" lon="0.8739872750418122"><ele>160.0</ele><time>2026-05-01T12:36:39Z</time></trkpt><trkpt lat="44.64972087938545" lon="0.8740491080116954"><ele>160.0</ele><time>2026-05-01T12:36:40Z</time></trkpt><trkpt lat="44.64978458508667" lon="0.8740475534181359"><ele>160.0</ele><time>2026-05-01T12:36:41Z</time></trkpt><trkpt lat="44.64984626952543" lon="0.8739272377658386"><ele>160.0</ele><time>2026-05-01T12:36:43Z</time></trkpt><trkpt lat="44.649934702819024" lon="0.8737412955453214"><ele>160.0</ele><time>2026-05-01T12:36:44Z</time></trkpt><trkpt lat="44.65001025775101" lon="0.8736122633902756"><ele>160.0</ele><time>2026-05-01T12:36:45Z</time></trkpt><trkpt lat="44.650096476522165" lon="0.8734858355240813"><ele>160.0</ele><time>2026-05-01T12:36:46Z</time></trkpt><trkpt lat="44.65018112208652" lon="0.8733722750435842"><ele>160.0</ele><time>2026-05-01T12:36:47Z</time></trkpt><trkpt lat="44.65025955624067" lon="0.8732667694686262"><ele>160.0</ele><time>2026-05-01T12:36:48Z</time></trkpt><trkpt lat="44.650347778067" lon="0.8731610338392293"><ele>160.75</ele><time>2026-05-01T12:36:49Z</time></trkpt><trkpt lat="44.65041070640778" lon="0.873024429405159"><ele>161.5</ele><time>2026-05-01T12:36:50Z</time></trkpt><trkpt lat="44.650458364660075" lon="0.8729034593896083"><ele>162.25</ele><time>2026-05-01T12:36:51Z</time></trkpt><trkpt lat="44.650499296305235" lon="0.8727545605049232"><ele>163.0</ele><time>2026-05-01T12:36:52Z</time></trkpt><trkpt lat="44.650539875817564" lon="0.8725607665164422"><ele>163.0</ele><time>2026-05-01T12:36:53Z</time></trkpt><trkpt lat="44.65052784148854" lon="0.8724085986141248"><ele>163.0</ele><time>2026-05-01T12:36:54Z</time></trkpt><trkpt lat="44.65054860865651" lon="0.872275783331307"><ele>163.0</ele><time>2026-05-01T12:36:55Z</time></trkpt><trkpt lat="44.650607819269496" lon="0.8721290797820884"><ele>163.0</ele><time>2026-05-01T12:36:56Z</time></trkpt><trkpt lat="44.65064936983681" lon="0.8720079701181286"><ele>163.0</ele><time>2026-05-01T12:36:57Z</time></trkpt><trkpt lat="44.65071565125425" lon="0.8718929766299232"><ele>163.0</ele><time>2026-05-01T12:36:58Z</time></trkpt><trkpt lat="44.65080772617152" lon="0.8717877702794739"><ele>163.0</ele><time>2026-05-01T12:36:59Z</time></trkpt><trkpt lat="44.65085823117578" lon="0.8716973988461688"><ele>163.0</ele><time>2026-05-01T12:37:00Z</time></trkpt><trkpt lat="44.650872469555" lon="0.8716090921109644"><ele>163.0</ele><time>2026-05-01T12:37:01Z</time></trkpt><trkpt lat="44.65092506701668" lon="0.87147706914733"><ele>163.0</ele><time>2026-05-01T12:37:02Z</time></trkpt><trkpt lat="44.65102983640054" lon="0.8713366651636123"><ele>164.0</ele><time>2026-05-01T12:37:03Z</time></trkpt><trkpt lat="44.65111888180754" lon="0.8712401253148904"><ele>165.0</ele><time>2026-05-01T12:37:04Z</time></trkpt><trkpt lat="44.651180675128465" lon="0.8711922469723922"><ele>166.0</ele><time>2026-05-01T12:37:05Z</time></trkpt><trkpt lat="44.65126599821516" lon="0.8711038483182733"><ele>167.0</ele><time>2026-05-01T12:37:06Z</time></trkpt><trkpt lat="44.651382798367926" lon="0.8710316346438701"><ele>168.0</ele><time>2026-05-01T12:37:07Z</time></trkpt><trkpt lat="44.65145074129939" lon="0.871006112897239"><ele>165.0</ele><time>2026-05-01T12:37:08Z</time></trkpt><trkpt lat="44.651532401476224" lon="0.8709335086045967"><ele>162.0</ele><time>2026-05-01T12:37:09Z</time></trkpt><trkpt lat="44.65160354101751" lon="0.8708083197075727"><ele>159.0</ele><time>2026-05-01T12:37:10Z</time></trkpt><trkpt lat="44.65173323425087" lon="0.8706738286442528"><ele>156.0</ele><time>2026-05-01T12:37:11Z</time></trkpt><trkpt lat="44.65184639697049" lon="0.8705844487278095"><ele>157.75</ele><time>2026-05-01T12:37:12Z</time></trkpt><trkpt lat="44.65201041211997" lon="0.8705391833219946"><ele>159.5</ele><time>2026-05-01T12:37:13Z</time></trkpt><trkpt lat="44.652129616943164" lon="0.8704392187184274"><ele>161.25</ele><time>2026-05-01T12:37:14Z</time></trkpt><trkpt lat="44.65223806250567" lon="0.870344854505922"><ele>163.0</ele><time>2026-05-01T12:37:15Z</time></trkpt><trkpt lat="44.65234268538994" lon="0.8702358446989004"><ele>163.0</ele><time>2026-05-01T12:37:16Z</time></trkpt><trkpt lat="44.65248961628027" lon="0.8701333536015595"><ele>163.0</ele><time>2026-05-01T12:37:17Z</time></trkpt><trkpt lat="44.652588066444615" lon="0.8700343049020028"><ele>163.0</ele><time>2026-05-01T12:37:18Z</time></trkpt><trkpt lat="44.65267643988822" lon="0.8699572599286413"><ele>163.0</ele><time>2026-05-01T12:37:19Z</time></trkpt><trkpt lat="44.65279811864465" lon="0.8698608196647907"><ele>161.4</ele><time>2026-05-01T12:37:20Z</time></trkpt><trkpt lat="44.65289257692798" lon="0.8697857669900066"><ele>159.8</ele><time>2026-05-01T12:37:21Z</time></trkpt><trkpt lat="44.65297482810658" lon="0.8697486774261484"><ele>158.2</ele><time>2026-05-01T12:37:22Z</time></trkpt><trkpt lat="44.653070267858745" lon="0.8697323778428968"><ele>156.6</ele><time>2026-05-01T12:37:23Z</time></trkpt><trkpt lat="44.653166984209506" lon="0.8697319422411128"><ele>155.0</ele><time>2026-05-01T12:37:25Z</time></trkpt><trkpt lat="44.65323627404242" lon="0.8697945444428787"><ele>155.0</ele><time>2026-05-01T12:37:26Z</time></trkpt><trkpt lat="44.65331896016324" lon="0.8699035587265033"><ele>155.0</ele><time>2026-05-01T12:37:28Z</time></trkpt><trkpt lat="44.653361951800164" lon="0.8699758269016098"><ele>155.0</ele><time>2026-05-01T12:37:29Z</time></trkpt><trkpt lat="44.6534362246034" lon="0.870098717103981"><ele>155.0</ele><time>2026-05-01T12:37:31Z</time></trkpt><trkpt lat="44.653487628787396" lon="0.870164227405403"><ele>155.0</ele><time>2026-05-01T12:37:32Z</time></trkpt><trkpt lat="44.653545492682845" lon="0.8702247477649381"><ele>155.0</ele><time>2026-05-01T12:37:33Z</time></trkpt><trkpt lat="44.653600849270326" lon="0.8702774529505717"><ele>158.16666666666666</ele><time>2026-05-01T12:37:34Z</time></trkpt><trkpt lat="44.65370460345413" lon="0.8703542473559166"><ele>161.33333333333331</ele><time>2026-05-01T12:37:36Z</time></trkpt><trkpt lat="44.653777493399936" lon="0.870385744682271"><ele>164.5</ele><time>2026-05-01T12:37:37Z</time></trkpt><trkpt lat="44.65384396522089" lon="0.8704329435576117"><ele>167.66666666666666</ele><time>2026-05-01T12:37:38Z</time></trkpt><trkpt lat="44.6539136212318" lon="0.87046171229541"><ele>170.83333333333334</ele><time>2026-05-01T12:37:39Z</time></trkpt><trkpt lat="44.65397051978024" lon="0.8705061936946361"><ele>174.0</ele><time>2026-05-01T12:37:40Z</time></trkpt><trkpt lat="44.65403244000149" lon="0.8705562863122067"><ele>174.0</ele><time>2026-05-01T12:37:41Z</time></trkpt><trkpt lat="44.654089516025415" lon="0.8705966856214857"><ele>174.0</ele><time>2026-05-01T12:37:42Z</time></trkpt><trkpt lat="44.65416390580773" lon="0.8706219825489184"><ele>174.0</ele><time>2026-05-01T12:37:43Z</time></trkpt><trkpt lat="44.65425410533954" lon="0.870628123276757"><ele>174.0</ele><time>2026-05-01T12:37:44Z</time></trkpt><trkpt lat="44.65435302943795" lon="0.8706030178418729"><ele>174.0</ele><time>2026-05-01T12:37:45Z</time></trkpt><trkpt lat="44.65443854683107" lon="0.870567531646409"><ele>174.0</ele><time>2026-05-01T12:37:46Z</time></trkpt><trkpt lat="44.65452080508115" lon="0.8705545559778718"><ele>175.83333333333334</ele><time>2026-05-01T12:37:47Z</time></trkpt><trkpt lat="44.65459511031451" lon="0.8705471832938085"><ele>177.66666666666666</ele><time>2026-05-01T12:37:48Z</time></trkpt><trkpt lat="44.6546645800749" lon="0.8705193047921858"><ele>179.5</ele><time>2026-05-01T12:37:49Z</time></trkpt><trkpt lat="44.654727719311744" lon="0.8704214193402464"><ele>181.33333333333331</ele><time>2026-05-01T12:37:50Z</time></trkpt><trkpt lat="44.65476613624285" lon="0.8703371788959603"><ele>183.16666666666666</ele><time>2026-05-01T12:37:51Z</time></trkpt><trkpt lat="44.65482194263127" lon="0.8702758566381757"><ele>185.0</ele><time>2026-05-01T12:37:52Z</time></trkpt><trkpt lat="44.654896480385226" lon="0.8702308569363468"><ele>185.0</ele><time>2026-05-01T12:37:53Z</time></trkpt><trkpt lat="44.65497551986206" lon="0.8702167721876165"><ele>185.0</ele><time>2026-05-01T12:37:54Z</time></trkpt><trkpt lat="44.655049038778266" lon="0.870248446429206"><ele>185.0</ele><time>2026-05-01T12:37:55Z</time></trkpt><trkpt lat="44.655134758440425" lon="0.8702739417144224"><ele>185.0</ele><time>2026-05-01T12:37:56Z</time></trkpt><trkpt lat="44.65524291208143" lon="0.8702590668657479"><ele>185.0</ele><time>2026-05-01T12:37:57Z</time></trkpt><trkpt lat="44.65534607437862" lon="0.8702184657961922"><ele>185.2</ele><time>2026-05-01T12:37:58Z</time></trkpt><trkpt lat="44.65544648959933" lon="0.8702064360627269"><ele>185.4</ele><time>2026-05-01T12:37:59Z</time></trkpt><trkpt lat="44.655527476653056" lon="0.8702279289663869"><ele>185.60000000000002</ele><time>2026-05-01T12:38:00Z</time></trkpt><trkpt lat="44.65562509055621" lon="0.8702749081103602"><ele>185.8</ele><time>2026-05-01T12:38:01Z</time></trkpt><trkpt lat="44.655721686394735" lon="0.870323288768813"><ele>186.0</ele><time>2026-05-01T12:38:02Z</time></trkpt><trkpt lat="44.6558359505302" lon="0.870401520098912"><ele>186.0</ele><time>2026-05-01T12:38:03Z</time></trkpt><trkpt lat="44.655908149037785" lon="0.8704900365870774"><ele>186.0</ele><time>2026-05-01T12:38:04Z</time></trkpt><trkpt lat="44.65598844667243" lon="0.8706344375396468"><ele>186.0</ele><time>2026-05-01T12:38:06Z</time></trkpt><trkpt lat="44.656003985375015" lon="0.8707520006985876"><ele>186.0</ele><time>2026-05-01T12:38:07Z</time></trkpt><trkpt lat="44.656012275625955" lon="0.8708792317097961"><ele>186.0</ele><time>2026-05-01T12:38:08Z</time></trkpt><trkpt lat="44.65601563326834" lon="0.8710129429967438"><ele>186.33333333333334</ele><time>2026-05-01T12:38:09Z</time></trkpt><trkpt lat="44.65601113755991" lon="0.8711636831509004"><ele>186.66666666666666</ele><time>2026-05-01T12:38:10Z</time></trkpt><trkpt lat="44.65601999691577" lon="0.8712809200322102"><ele>187.0</ele><time>2026-05-01T12:38:11Z</time></trkpt><trkpt lat="44.6560435682298" lon="0.8713771845366985"><ele>187.33333333333331</ele><time>2026-05-01T12:38:12Z</time></trkpt><trkpt lat="44.65605389891242" lon="0.8714832730281746"><ele>187.66666666666666</ele><time>2026-05-01T12:38:13Z</time></trkpt><trkpt lat="44.656034916631995" lon="0.8716350292647647"><ele>188.0</ele><time>2026-05-01T12:38:15Z</time></trkpt><trkpt lat="44.65606231726691" lon="0.8717529404782643"><ele>187.60000000000002</ele><time>2026-05-01T12:38:16Z</time></trkpt><trkpt lat="44.65610400374654" lon="0.8718556406750768"><ele>187.20000000000002</ele><time>2026-05-01T12:38:17Z</time></trkpt><trkpt lat="44.65613413932821" lon="0.8720126470904858"><ele>186.8</ele><time>2026-05-01T12:38:18Z</time></trkpt><trkpt lat="44.65614467884484" lon="0.8721486841248824"><ele>186.4</ele><time>2026-05-01T12:38:19Z</time></trkpt><trkpt lat="44.656172541281855" lon="0.8722924572039098"><ele>186.0</ele><time>2026-05-01T12:38:20Z</time></trkpt><trkpt lat="44.65619330321023" lon="0.872411770830537"><ele>186.0</ele><time>2026-05-01T12:38:21Z</time></trkpt><trkpt lat="44.65622817293999" lon="0.8725257478515763"><ele>186.0</ele><time>2026-05-01T12:38:22Z</time></trkpt><trkpt lat="44.656267707910295" lon="0.8726398459149184"><ele>186.0</ele><time>2026-05-01T12:38:23Z</time></trkpt><trkpt lat="44.6563318710241" lon="0.8727457783950201"><ele>186.0</ele><time>2026-05-01T12:38:24Z</time></trkpt><trkpt lat="44.65641962553944" lon="0.8728254280189887"><ele>186.0</ele><time>2026-05-01T12:38:25Z</time></trkpt><trkpt lat="44.65650953936886" lon="0.872879066257008"><ele>185.25</ele><time>2026-05-01T12:38:26Z</time></trkpt><trkpt lat="44.65660689782713" lon="0.8729263441794064"><ele>184.5</ele><time>2026-05-01T12:38:27Z</time></trkpt><trkpt lat="44.65670643141056" lon="0.872989345809094"><ele>183.75</ele><time>2026-05-01T12:38:28Z</time></trkpt><trkpt lat="44.65681036410538" lon="0.8730658710702693"><ele>183.0</ele><time>2026-05-01T12:38:29Z</time></trkpt><trkpt lat="44.6569296681864" lon="0.8731218521251901"><ele>181.5</ele><time>2026-05-01T12:38:30Z</time></trkpt><trkpt lat="44.65707280992257" lon="0.8731786253846716"><ele>180.0</ele><time>2026-05-01T12:38:31Z</time></trkpt><trkpt lat="44.6572013860619" lon="0.8732309169402662"><ele>178.5</ele><time>2026-05-01T12:38:32Z</time></trkpt><trkpt lat="44.657320546235376" lon="0.8732645909980431"><ele>177.0</ele><time>2026-05-01T12:38:33Z</time></trkpt><trkpt lat="44.657439424757975" lon="0.8733146388912368"><ele>177.0</ele><time>2026-05-01T12:38:34Z</time></trkpt><trkpt lat="44.657541881617185" lon="0.873344328494799"><ele>177.0</ele><time>2026-05-01T12:38:35Z</time></trkpt><trkpt lat="44.6576245860266" lon="0.8733688763145963"><ele>177.0</ele><time>2026-05-01T12:38:36Z</time></trkpt><trkpt lat="44.6577060475068" lon="0.8734668945197723"><ele>177.0</ele><time>2026-05-01T12:38:38Z</time></trkpt><trkpt lat="44.65774827816786" lon="0.87361472019288"><ele>177.0</ele><time>2026-05-01T12:38:40Z</time></trkpt><trkpt lat="44.657730260414006" lon="0.8737192977873485"><ele>176.6</ele><time>2026-05-01T12:38:41Z</time></trkpt><trkpt lat="44.65770267694776" lon="0.873833382652798"><ele>176.2</ele><time>2026-05-01T12:38:42Z</time></trkpt><trkpt lat="44.65768305813774" lon="0.8739419181474063"><ele>175.8</ele><time>2026-05-01T12:38:43Z</time></trkpt><trkpt lat="44.657759661927585" lon="0.8740853945049092"><ele>175.4</ele><time>2026-05-01T12:38:45Z</time></trkpt><trkpt lat="44.65784771108121" lon="0.8741962275089217"><ele>175.0</ele><time>2026-05-01T12:38:46Z</time></trkpt><trkpt lat="44.657938641865876" lon="0.8742896988256552"><ele>173.2</ele><time>2026-05-01T12:38:47Z</time></trkpt><trkpt lat="44.65803052219829" lon="0.8743843854910537"><ele>171.4</ele><time>2026-05-01T12:38:48Z</time></trkpt><trkpt lat="44.65810150078877" lon="0.8744666413331015"><ele>169.60000000000002</ele><time>2026-05-01T12:38:49Z</time></trkpt><trkpt lat="44.658170983877945" lon="0.8745248124036638"><ele>167.8</ele><time>2026-05-01T12:38:50Z</time></trkpt><trkpt lat="44.65824478226834" lon="0.8745691300563523"><ele>166.0</ele><time>2026-05-01T12:38:51Z</time></trkpt><trkpt lat="44.65834821754597" lon="0.8745970087251252"><ele>166.0</ele><time>2026-05-01T12:38:52Z</time></trkpt><trkpt lat="44.65846134714041" lon="0.8745914087912845"><ele>166.0</ele><time>2026-05-01T12:38:53Z</time></trkpt><trkpt lat="44.65857165467538" lon="0.8745442600636955"><ele>166.0</ele><time>2026-05-01T12:38:54Z</time></trkpt><trkpt lat="44.65870736257253" lon="0.8745247675348099"><ele>166.0</ele><time>2026-05-01T12:38:55Z</time></trkpt><trkpt lat="44.658852524334385" lon="0.8745234500446454"><ele>164.20000000000002</ele><time>2026-05-01T12:38:56Z</time></trkpt><trkpt lat="44.65896855272641" lon="0.8744949371470456"><ele>162.4</ele><time>2026-05-01T12:38:57Z</time></trkpt><trkpt lat="44.65907847823523" lon="0.8744615091016532"><ele>160.6</ele><time>2026-05-01T12:38:58Z</time></trkpt><trkpt lat="44.659175075193765" lon="0.8744332900981602"><ele>158.8</ele><time>2026-05-01T12:38:59Z</time></trkpt><trkpt lat="44.65925926943122" lon="0.8744080559946089"><ele>157.0</ele><time>2026-05-01T12:39:00Z</time></trkpt><trkpt lat="44.65933167895044" lon="0.8744012977047368"><ele>157.0</ele><time>2026-05-01T12:39:01Z</time></trkpt><trkpt lat="44.65940396488382" lon="0.8744297884683222"><ele>157.0</ele><time>2026-05-01T12:39:02Z</time></trkpt><trkpt lat="44.65948271804526" lon="0.8744990821822617"><ele>157.0</ele><time>2026-05-01T12:39:03Z</time></trkpt><trkpt lat="44.65955328034874" lon="0.8745896229261989"><ele>157.0</ele><time>2026-05-01T12:39:04Z</time></trkpt><trkpt lat="44.65963224332185" lon="0.8746765903387697"><ele>157.0</ele><time>2026-05-01T12:39:05Z</time></trkpt><trkpt lat="44.659712256709305" lon="0.8747617479705299"><ele>155.0</ele><time>2026-05-01T12:39:06Z</time></trkpt><trkpt lat="44.65980775964233" lon="0.8748401366220722"><ele>153.0</ele><time>2026-05-01T12:39:07Z</time></trkpt><trkpt lat="44.659911403658604" lon="0.8749143427130485"><ele>151.0</ele><time>2026-05-01T12:39:08Z</time></trkpt><trkpt lat="44.66001355203715" lon="0.8749821072203665"><ele>149.0</ele><time>2026-05-01T12:39:09Z</time></trkpt><trkpt lat="44.66010985704351" lon="0.8750338320497321"><ele>147.0</ele><time>2026-05-01T12:39:10Z</time></trkpt><trkpt lat="44.66020420099112" lon="0.8750883317200764"><ele>145.0</ele><time>2026-05-01T12:39:11Z</time></trkpt><trkpt lat="44.66029173708574" lon="0.8751393849960272"><ele>143.0</ele><time>2026-05-01T12:39:12Z</time></trkpt><trkpt lat="44.66037555908517" lon="0.8751908364808563"><ele>141.0</ele><time>2026-05-01T12:39:13Z</time></trkpt><trkpt lat="44.660444162106884" lon="0.8752494253220208"><ele>139.0</ele><time>2026-05-01T12:39:14Z</time></trkpt><trkpt lat="44.66053131356171" lon="0.8752892738717148"><ele>137.0</ele><time>2026-05-01T12:39:15Z</time></trkpt><trkpt lat="44.66060514624221" lon="0.8753288851552207"><ele>135.0</ele><time>2026-05-01T12:39:16Z</time></trkpt><trkpt lat="44.66071108154017" lon="0.8753664743094187"><ele>135.0</ele><time>2026-05-01T12:39:18Z</time></trkpt><trkpt lat="44.66079378697591" lon="0.8753411831000031"><ele>135.0</ele><time>2026-05-01T12:39:20Z</time></trkpt><trkpt lat="44.66092579971748" lon="0.8752411428985389"><ele>135.0</ele><time>2026-05-01T12:39:22Z</time></trkpt><trkpt lat="44.66100543429566" lon="0.875179678595428"><ele>135.0</ele><time>2026-05-01T12:39:23Z</time></trkpt><trkpt lat="44.66109751039871" lon="0.8751454066889535"><ele>135.0</ele><time>2026-05-01T12:39:24Z</time></trkpt><trkpt lat="44.661191415949865" lon="0.8751483597984646"><ele>135.2</ele><time>2026-05-01T12:39:25Z</time></trkpt><trkpt lat="44.66128068113811" lon="0.8751822030569979"><ele>135.4</ele><time>2026-05-01T12:39:26Z</time></trkpt><trkpt lat="44.66136027319833" lon="0.8752508853598481"><ele>135.6</ele><time>2026-05-01T12:39:27Z</time></trkpt><trkpt lat="44.661437419302175" lon="0.875323527230235"><ele>135.8</ele><time>2026-05-01T12:39:28Z</time></trkpt><trkpt lat="44.661518942010765" lon="0.8754027177707211"><ele>136.0</ele><time>2026-05-01T12:39:29Z</time></trkpt><trkpt lat="44.66159443699607" lon="0.8754622115004083"><ele>136.0</ele><time>2026-05-01T12:39:30Z</time></trkpt><trkpt lat="44.66168022614729" lon="0.8754900903356967"><ele>136.0</ele><time>2026-05-01T12:39:31Z</time></trkpt><trkpt lat="44.661782894784366" lon="0.8755061470277321"><ele>136.0</ele><time>2026-05-01T12:39:32Z</time></trkpt><trkpt lat="44.661889325563145" lon="0.8754975545862176"><ele>136.0</ele><time>2026-05-01T12:39:33Z</time></trkpt><trkpt lat="44.66198894437421" lon="0.8754684123407276"><ele>136.0</ele><time>2026-05-01T12:39:34Z</time></trkpt><trkpt lat="44.66209160121732" lon="0.8754373448439853"><ele>135.4</ele><time>2026-05-01T12:39:35Z</time></trkpt><trkpt lat="44.66220221723261" lon="0.8754402649861956"><ele>134.8</ele><time>2026-05-01T12:39:36Z</time></trkpt><trkpt lat="44.66230348258005" lon="0.8753957603721139"><ele>134.20000000000002</ele><time>2026-05-01T12:39:37Z</time></trkpt><trkpt lat="44.66241074309261" lon="0.875396819298506"><ele>133.6</ele><time>2026-05-01T12:39:38Z</time></trkpt><trkpt lat="44.66251083288776" lon="0.8753715972175478"><ele>133.0</ele><time>2026-05-01T12:39:39Z</time></trkpt><trkpt lat="44.6626121248236" lon="0.8753095536552503"><ele>133.0</ele><time>2026-05-01T12:39:40Z</time></trkpt><trkpt lat="44.66271163992347" lon="0.8752428613753284"><ele>133.0</ele><time>2026-05-01T12:39:41Z</time></trkpt><trkpt lat="44.662792711615936" lon="0.8751408374771573"><ele>133.0</ele><time>2026-05-01T12:39:42Z</time></trkpt><trkpt lat="44.66287596618089" lon="0.8750397400577827"><ele>133.0</ele><time>2026-05-01T12:39:43Z</time></trkpt><trkpt lat="44.66297977947633" lon="0.8749389765398933"><ele>133.5</ele><time>2026-05-01T12:39:44Z</time></trkpt><trkpt lat="44.66307202234742" lon="0.8748353927768355"><ele>134.0</ele><time>2026-05-01T12:39:45Z</time></trkpt><trkpt lat="44.66314858721759" lon="0.8747393535275523"><ele>134.5</ele><time>2026-05-01T12:39:46Z</time></trkpt><trkpt lat="44.66321261722399" lon="0.8746800395491106"><ele>135.0</ele><time>2026-05-01T12:39:47Z</time></trkpt><trkpt lat="44.66327239128669" lon="0.8746158633002336"><ele>135.5</ele><time>2026-05-01T12:39:49Z</time></trkpt><trkpt lat="44.66333566756354" lon="0.8745707280689471"><ele>136.0</ele><time>2026-05-01T12:39:53Z</time></trkpt><trkpt lat="44.663406968749065" lon="0.8746852034226278"><ele>136.0</ele><time>2026-05-01T12:39:54Z</time></trkpt><trkpt lat="44.66347542768448" lon="0.8747456357232982"><ele>136.0</ele><time>2026-05-01T12:39:55Z</time></trkpt><trkpt lat="44.66354340244114" lon="0.874837662169394"><ele>136.0</ele><time>2026-05-01T12:39:56Z</time></trkpt><trkpt lat="44.66362144860474" lon="0.874934660219357"><ele>136.0</ele><time>2026-05-01T12:39:57Z</time></trkpt><trkpt lat="44.663706651657535" lon="0.8750318884750852"><ele>136.0</ele><time>2026-05-01T12:39:58Z</time></trkpt><trkpt lat="44.663793334806215" lon="0.8751311195015536"><ele>136.75</ele><time>2026-05-01T12:39:59Z</time></trkpt><trkpt lat="44.663879458220315" lon="0.8752327504232854"><ele>137.5</ele><time>2026-05-01T12:40:00Z</time></trkpt><trkpt lat="44.66396954070934" lon="0.8753524565731081"><ele>138.25</ele><time>2026-05-01T12:40:01Z</time></trkpt><trkpt lat="44.664063589990306" lon="0.8754737306715675"><ele>139.0</ele><time>2026-05-01T12:40:02Z</time></trkpt><trkpt lat="44.66415614943915" lon="0.8755977177003513"><ele>139.0</ele><time>2026-05-01T12:40:03Z</time></trkpt><trkpt lat="44.66425360236809" lon="0.8757252982670539"><ele>139.0</ele><time>2026-05-01T12:40:04Z</time></trkpt><trkpt lat="44.66435911111887" lon="0.8758493572651928"><ele>139.0</ele><time>2026-05-01T12:40:05Z</time></trkpt><trkpt lat="44.66446726979756" lon="0.8759794585920226"><ele>139.0</ele><time>2026-05-01T12:40:06Z</time></trkpt><trkpt lat="44.66458265817613" lon="0.8761095793199128"><ele>138.75</ele><time>2026-05-01T12:40:07Z</time></trkpt><trkpt lat="44.66469513154007" lon="0.8762338656835524"><ele>138.5</ele><time>2026-05-01T12:40:08Z</time></trkpt><trkpt lat="44.66481821873661" lon="0.8763506978737068"><ele>138.25</ele><time>2026-05-01T12:40:09Z</time></trkpt><trkpt lat="44.66494030285168" lon="0.8764706016848788"><ele>138.0</ele><time>2026-05-01T12:40:10Z</time></trkpt><trkpt lat="44.66505930710082" lon="0.8765915734846725"><ele>138.0</ele><time>2026-05-01T12:40:11Z</time></trkpt><trkpt lat="44.66519454419385" lon="0.8767064825095404"><ele>138.0</ele><time>2026-05-01T12:40:12Z</time></trkpt><trkpt lat="44.66532899563624" lon="0.876813234355094"><ele>138.0</ele><time>2026-05-01T12:40:13Z</time></trkpt><trkpt lat="44.66546555365989" lon="0.876922878432837"><ele>138.33333333333334</ele><time>2026-05-01T12:40:14Z</time></trkpt><trkpt lat="44.66559767008988" lon="0.877030575823623"><ele>138.66666666666669</ele><time>2026-05-01T12:40:15Z</time></trkpt><trkpt lat="44.66573682798705" lon="0.8771518688188379"><ele>139.0</ele><time>2026-05-01T12:40:16Z</time></trkpt><trkpt lat="44.66587419067466" lon="0.8772617778614074"><ele>139.0</ele><time>2026-05-01T12:40:17Z</time></trkpt><trkpt lat="44.666010250279236" lon="0.8773779623291742"><ele>139.0</ele><time>2026-05-01T12:40:18Z</time></trkpt><trkpt lat="44.66614980881506" lon="0.8774934790255358"><ele>139.0</ele><time>2026-05-01T12:40:19Z</time></trkpt><trkpt lat="44.666288944238794" lon="0.8776078142376563"><ele>138.0</ele><time>2026-05-01T12:40:20Z</time></trkpt><trkpt lat="44.66642590174291" lon="0.8777175444248054"><ele>137.0</ele><time>2026-05-01T12:40:21Z</time></trkpt><trkpt lat="44.666566295111544" lon="0.8778314133744377"><ele>136.0</ele><time>2026-05-01T12:40:22Z</time></trkpt><trkpt lat="44.66669584949635" lon="0.8779352162217202"><ele>136.0</ele><time>2026-05-01T12:40:23Z</time></trkpt><trkpt lat="44.66681707857585" lon="0.8780441043469118"><ele>136.0</ele><time>2026-05-01T12:40:24Z</time></trkpt><trkpt lat="44.666923466368715" lon="0.8781464485865635"><ele>136.0</ele><time>2026-05-01T12:40:25Z</time></trkpt><trkpt lat="44.66700309038349" lon="0.8782286464261271"><ele>136.0</ele><time>2026-05-01T12:40:26Z</time></trkpt><trkpt lat="44.66705802915833" lon="0.8782803887438992"><ele>136.0</ele><time>2026-05-01T12:40:27Z</time></trkpt><trkpt lat="44.667080199863385" lon="0.8783699507221663"><ele>135.75</ele><time>2026-05-01T12:40:32Z</time></trkpt><trkpt lat="44.66697458128095" lon="0.8785447395885766"><ele>135.5</ele><time>2026-05-01T12:40:34Z</time></trkpt><trkpt lat="44.666910525464054" lon="0.8786386074517206"><ele>135.25</ele><time>2026-05-01T12:40:35Z</time></trkpt><trkpt lat="44.666838495172556" lon="0.8787497882537776"><ele>135.0</ele><time>2026-05-01T12:40:36Z</time></trkpt><trkpt lat="44.666773287605366" lon="0.8788549822529439"><ele>135.0</ele><time>2026-05-01T12:40:37Z</time></trkpt><trkpt lat="44.66670948202458" lon="0.878958626760617"><ele>135.0</ele><time>2026-05-01T12:40:38Z</time></trkpt><trkpt lat="44.666652100292886" lon="0.8790411421599742"><ele>135.0</ele><time>2026-05-01T12:40:39Z</time></trkpt><trkpt lat="44.66660121006661" lon="0.8791028959717306"><ele>135.0</ele><time>2026-05-01T12:40:40Z</time></trkpt><trkpt lat="44.66650461942188" lon="0.8791854280939262"><ele>135.0</ele><time>2026-05-01T12:40:42Z</time></trkpt><trkpt lat="44.66644068146494" lon="0.8792720489693132"><ele>135.0</ele><time>2026-05-01T12:40:44Z</time></trkpt><trkpt lat="44.66639687153754" lon="0.8793826875721986"><ele>135.4</ele><time>2026-05-01T12:40:49Z</time></trkpt><trkpt lat="44.66639753708151" lon="0.8794743866483397"><ele>135.8</ele><time>2026-05-01T12:40:51Z</time></trkpt><trkpt lat="44.6664838245448" lon="0.8795839504086057"><ele>136.2</ele><time>2026-05-01T12:40:54Z</time></trkpt><trkpt lat="44.66655987252981" lon="0.8796777454920692"><ele>136.6</ele><time>2026-05-01T12:40:55Z</time></trkpt><trkpt lat="44.666651926739945" lon="0.8797846265021876"><ele>137.0</ele><time>2026-05-01T12:40:56Z</time></trkpt><trkpt lat="44.6667303838039" lon="0.879893381809351"><ele>137.0</ele><time>2026-05-01T12:40:57Z</time></trkpt><trkpt lat="44.666805582778764" lon="0.8799868833434792"><ele>137.0</ele><time>2026-05-01T12:40:58Z</time></trkpt><trkpt lat="44.66688225765598" lon="0.880061242936049"><ele>137.0</ele><time>2026-05-01T12:40:59Z</time></trkpt><trkpt lat="44.66696186786617" lon="0.8801491296194154"><ele>137.0</ele><time>2026-05-01T12:41:00Z</time></trkpt><trkpt lat="44.667023237388115" lon="0.880235703232445"><ele>137.0</ele><time>2026-05-01T12:41:01Z</time></trkpt><trkpt lat="44.66713377487152" lon="0.8803459908480129"><ele>137.2</ele><time>2026-05-01T12:41:03Z</time></trkpt><trkpt lat="44.66720497459102" lon="0.8804000575169278"><ele>137.39999999999998</ele><time>2026-05-01T12:41:05Z</time></trkpt><trkpt lat="44.66728970824421" lon="0.8803892966185645"><ele>137.60000000000002</ele><time>2026-05-01T12:41:08Z</time></trkpt><trkpt lat="44.66738937716951" lon="0.8805341535931442"><ele>137.8</ele><time>2026-05-01T12:41:10Z</time></trkpt><trkpt lat="44.66745202893304" lon="0.8806218364571057"><ele>138.0</ele><time>2026-05-01T12:41:11Z</time></trkpt><trkpt lat="44.66751659928236" lon="0.8806886392961308"><ele>138.0</ele><time>2026-05-01T12:41:12Z</time></trkpt><trkpt lat="44.66759393586518" lon="0.8807658013055821"><ele>138.0</ele><time>2026-05-01T12:41:14Z</time></trkpt><trkpt lat="44.66763468923126" lon="0.8808336749529919"><ele>138.0</ele><time>2026-05-01T12:41:15Z</time></trkpt><trkpt lat="44.667644876929174" lon="0.8809250672021627"><ele>138.0</ele><time>2026-05-01T12:41:16Z</time></trkpt><trkpt lat="44.667669166270095" lon="0.8810297966265184"><ele>138.0</ele><time>2026-05-01T12:41:17Z</time></trkpt><trkpt lat="44.667663454853205" lon="0.8811801451294986"><ele>138.0</ele><time>2026-05-01T12:41:18Z</time></trkpt><trkpt lat="44.667667601222746" lon="0.8813028966075374"><ele>137.8</ele><time>2026-05-01T12:41:19Z</time></trkpt><trkpt lat="44.66767080678354" lon="0.8814047963402342"><ele>137.60000000000002</ele><time>2026-05-01T12:41:21Z</time></trkpt><trkpt lat="44.667709135442195" lon="0.8815520671186886"><ele>137.39999999999998</ele><time>2026-05-01T12:41:23Z</time></trkpt><trkpt lat="44.6678234521688" lon="0.8816446610185156"><ele>137.2</ele><time>2026-05-01T12:41:25Z</time></trkpt><trkpt lat="44.667889636571495" lon="0.881692335584757"><ele>137.0</ele><time>2026-05-01T12:41:26Z</time></trkpt><trkpt lat="44.66796012532795" lon="0.8818197019086991"><ele>137.6</ele><time>2026-05-01T12:41:28Z</time></trkpt><trkpt lat="44.667966575077614" lon="0.8819972081144799"><ele>138.2</ele><time>2026-05-01T12:41:30Z</time></trkpt><trkpt lat="44.66794874356794" lon="0.882107438064131"><ele>138.8</ele><time>2026-05-01T12:41:31Z</time></trkpt><trkpt lat="44.66792054856024" lon="0.8821935475440411"><ele>139.4</ele><time>2026-05-01T12:41:32Z</time></trkpt><trkpt lat="44.66792427987235" lon="0.8823515186839719"><ele>140.0</ele><time>2026-05-01T12:41:34Z</time></trkpt><trkpt lat="44.66796439584844" lon="0.8824878539569118"><ele>141.6</ele><time>2026-05-01T12:41:35Z</time></trkpt><trkpt lat="44.668003599771396" lon="0.8826018452243372"><ele>143.2</ele><time>2026-05-01T12:41:36Z</time></trkpt><trkpt lat="44.668058324550245" lon="0.8826955474013687"><ele>144.8</ele><time>2026-05-01T12:41:37Z</time></trkpt><trkpt lat="44.66813641294178" lon="0.8827922495920476"><ele>146.4</ele><time>2026-05-01T12:41:38Z</time></trkpt><trkpt lat="44.66820389818971" lon="0.8828721545267588"><ele>148.0</ele><time>2026-05-01T12:41:39Z</time></trkpt><trkpt lat="44.66826041603983" lon="0.8829759841434934"><ele>148.0</ele><time>2026-05-01T12:41:40Z</time></trkpt><trkpt lat="44.668304737138314" lon="0.8830652972677911"><ele>148.0</ele><time>2026-05-01T12:41:41Z</time></trkpt><trkpt lat="44.66834917560232" lon="0.8831868996631792"><ele>148.0</ele><time>2026-05-01T12:41:42Z</time></trkpt><trkpt lat="44.6684029991056" lon="0.8833172564659716"><ele>148.0</ele><time>2026-05-01T12:41:43Z</time></trkpt><trkpt lat="44.66845375991715" lon="0.8834568738132319"><ele>148.0</ele><time>2026-05-01T12:41:44Z</time></trkpt><trkpt lat="44.6685042287428" lon="0.8836127281439472"><ele>146.33333333333334</ele><time>2026-05-01T12:41:45Z</time></trkpt><trkpt lat="44.668551022529634" lon="0.8837349456858281"><ele>144.66666666666669</ele><time>2026-05-01T12:41:46Z</time></trkpt><trkpt lat="44.66859781134684" lon="0.8838521313410374"><ele>143.0</ele><time>2026-05-01T12:41:47Z</time></trkpt><trkpt lat="44.668631698644695" lon="0.8839510552265001"><ele>141.33333333333334</ele><time>2026-05-01T12:41:48Z</time></trkpt><trkpt lat="44.66866235896285" lon="0.8840516686377896"><ele>139.66666666666666</ele><time>2026-05-01T12:41:49Z</time></trkpt><trkpt lat="44.668691048147444" lon="0.8841372412559216"><ele>138.0</ele><time>2026-05-01T12:41:50Z</time></trkpt><trkpt lat="44.668716439019214" lon="0.8842233819751216"><ele>138.33333333333334</ele><time>2026-05-01T12:41:51Z</time></trkpt><trkpt lat="44.668770374264305" lon="0.884324214168552"><ele>138.66666666666666</ele><time>2026-05-01T12:41:53Z</time></trkpt><trkpt lat="44.668749109726505" lon="0.8844094114264067"><ele>139.0</ele><time>2026-05-01T12:41:58Z</time></trkpt><trkpt lat="44.66874886430238" lon="0.8845104237228366"><ele>139.33333333333331</ele><time>2026-05-01T12:42:40Z</time></trkpt><trkpt lat="44.668699114114986" lon="0.8846258749725013"><ele>139.66666666666666</ele><time>2026-05-01T12:42:42Z</time></trkpt><trkpt lat="44.66866984039143" lon="0.884737436206124"><ele>140.0</ele><time>2026-05-01T12:42:44Z</time></trkpt><trkpt lat="44.66872419107758" lon="0.8847997839830762"><ele>140.0</ele><time>2026-05-01T12:45:23Z</time></trkpt><trkpt lat="44.66867880087231" lon="0.8850882337900816"><ele>140.0</ele><time>2026-05-01T12:52:29Z</time></trkpt><trkpt lat="44.6687147169732" lon="0.8851636552632416"><ele>140.0</ele><time>2026-05-01T12:52:32Z</time></trkpt><trkpt lat="44.6686997490903" lon="0.8852534897037956"><ele>140.0</ele><time>2026-05-01T12:52:35Z</time></trkpt><trkpt lat="44.668700159916455" lon="0.8853495361588228"><ele>140.0</ele><time>2026-05-01T12:52:38Z</time></trkpt><trkpt lat="44.66867309186273" lon="0.8854502881805408"><ele>140.85714285714286</ele><time>2026-05-01T12:52:42Z</time></trkpt><trkpt lat="44.66863431159435" lon="0.8855750845881466"><ele>141.71428571428572</ele><time>2026-05-01T12:52:45Z</time></trkpt><trkpt lat="44.668623180718306" lon="0.8856654179869876"><ele>142.57142857142856</ele><time>2026-05-01T12:52:49Z</time></trkpt><trkpt lat="44.6685759237312" lon="0.8857244803487352"><ele>143.42857142857144</ele><time>2026-05-01T12:52:52Z</time></trkpt><trkpt lat="44.668514937190906" lon="0.8857868054690184"><ele>144.28571428571428</ele><time>2026-05-01T12:52:55Z</time></trkpt><trkpt lat="44.668482486256494" lon="0.8858702823774932"><ele>145.14285714285714</ele><time>2026-05-01T12:53:00Z</time></trkpt><trkpt lat="44.668437216740664" lon="0.885937367671555"><ele>146.0</ele><time>2026-05-01T13:03:44Z</time></trkpt><trkpt lat="44.66842600240378" lon="0.8860383166339473"><ele>148.14285714285714</ele><time>2026-05-01T13:03:48Z</time></trkpt><trkpt lat="44.66837350895181" lon="0.8861006923626036"><ele>150.28571428571428</ele><time>2026-05-01T13:03:51Z</time></trkpt><trkpt lat="44.66831596983314" lon="0.886145185239332"><ele>152.42857142857144</ele><time>2026-05-01T13:03:54Z</time></trkpt><trkpt lat="44.668258446675104" lon="0.8861946313922845"><ele>154.57142857142856</ele><time>2026-05-01T13:03:56Z</time></trkpt><trkpt lat="44.66817620546016" lon="0.8862428834827305"><ele>156.71428571428572</ele><time>2026-05-01T13:03:59Z</time></trkpt><trkpt lat="44.66811229042508" lon="0.88631340716747"><ele>158.85714285714286</ele><time>2026-05-01T13:04:01Z</time></trkpt><trkpt lat="44.66804700364697" lon="0.8863521729520887"><ele>161.0</ele><time>2026-05-01T13:04:05Z</time></trkpt><trkpt lat="44.66797274454792" lon="0.8863806131139278"><ele>161.0</ele><time>2026-05-01T13:04:07Z</time></trkpt><trkpt lat="44.667878089529104" lon="0.8863703958048114"><ele>161.0</ele><time>2026-05-01T13:04:09Z</time></trkpt><trkpt lat="44.667825919061734" lon="0.8863023124053137"><ele>161.0</ele><time>2026-05-01T13:04:11Z</time></trkpt><trkpt lat="44.6677853071255" lon="0.8861815226481617"><ele>161.0</ele><time>2026-05-01T13:04:13Z</time></trkpt><trkpt lat="44.66772110941007" lon="0.8860541807246552"><ele>161.0</ele><time>2026-05-01T13:04:15Z</time></trkpt><trkpt lat="44.667638384679734" lon="0.8859626462660637"><ele>163.8</ele><time>2026-05-01T13:04:18Z</time></trkpt><trkpt lat="44.66755893908463" lon="0.8859369800246693"><ele>166.60000000000002</ele><time>2026-05-01T13:04:20Z</time></trkpt><trkpt lat="44.667559909354466" lon="0.8858163882506453"><ele>169.4</ele><time>2026-05-01T13:04:22Z</time></trkpt><trkpt lat="44.667555086783636" lon="0.8856658187942917"><ele>172.2</ele><time>2026-05-01T13:04:24Z</time></trkpt><trkpt lat="44.66752210886139" lon="0.8855060460664816"><ele>175.0</ele><time>2026-05-01T13:04:26Z</time></trkpt><trkpt lat="44.66749580448357" lon="0.8854233921186214"><ele>175.8</ele><time>2026-05-01T13:04:27Z</time></trkpt><trkpt lat="44.6674716224151" lon="0.8853333071644113"><ele>176.6</ele><time>2026-05-01T13:04:28Z</time></trkpt><trkpt lat="44.66741302628435" lon="0.885232334213327"><ele>177.39999999999998</ele><time>2026-05-01T13:04:30Z</time></trkpt><trkpt lat="44.66732540571581" lon="0.8851395512742005"><ele>178.2</ele><time>2026-05-01T13:04:32Z</time></trkpt><trkpt lat="44.667230650288325" lon="0.8849846808549495"><ele>179.0</ele><time>2026-05-01T13:04:34Z</time></trkpt><trkpt lat="44.66719015438233" lon="0.8848890919092364"><ele>179.0</ele><time>2026-05-01T13:04:35Z</time></trkpt><trkpt lat="44.667141795502445" lon="0.8847743050927791"><ele>179.0</ele><time>2026-05-01T13:04:36Z</time></trkpt><trkpt lat="44.66709948443422" lon="0.8846808586784091"><ele>179.0</ele><time>2026-05-01T13:04:37Z</time></trkpt><trkpt lat="44.6670392153414" lon="0.8845572893927806"><ele>179.0</ele><time>2026-05-01T13:04:39Z</time></trkpt><trkpt lat="44.666974107717536" lon="0.8845539284867551"><ele>179.0</ele><time>2026-05-01T13:04:41Z</time></trkpt><trkpt lat="44.66688276172401" lon="0.8845730930691547"><ele>179.0</ele><time>2026-05-01T13:04:43Z</time></trkpt><trkpt lat="44.666818647762796" lon="0.8846210012022848"><ele>179.0</ele><time>2026-05-01T13:04:45Z</time></trkpt><trkpt lat="44.66677329585333" lon="0.8847124019065667"><ele>179.0</ele><time>2026-05-01T13:04:47Z</time></trkpt><trkpt lat="44.66670238286395" lon="0.8847806281077568"><ele>179.0</ele><time>2026-05-01T13:04:49Z</time></trkpt><trkpt lat="44.66660755745569" lon="0.8849030565369072"><ele>179.0</ele><time>2026-05-01T13:04:51Z</time></trkpt><trkpt lat="44.66654159060306" lon="0.8849634631257907"><ele>179.0</ele><time>2026-05-01T13:04:53Z</time></trkpt><trkpt lat="44.66645032057831" lon="0.8849613974097797"><ele>179.0</ele><time>2026-05-01T13:04:55Z</time></trkpt><trkpt lat="44.66636883256149" lon="0.8850501769800762"><ele>179.0</ele><time>2026-05-01T13:04:57Z</time></trkpt><trkpt lat="44.66630549874515" lon="0.8851376130417652"><ele>179.0</ele><time>2026-05-01T13:04:59Z</time></trkpt><trkpt lat="44.666229030804516" lon="0.8852138994637474"><ele>179.0</ele><time>2026-05-01T13:05:01Z</time></trkpt><trkpt lat="44.66613538928887" lon="0.8852691020341615"><ele>179.0</ele><time>2026-05-01T13:05:04Z</time></trkpt><trkpt lat="44.66606732125953" lon="0.8852084706945327"><ele>180.2</ele><time>2026-05-01T13:05:07Z</time></trkpt><trkpt lat="44.66602749311584" lon="0.8851313143383953"><ele>181.39999999999998</ele><time>2026-05-01T13:05:09Z</time></trkpt><trkpt lat="44.66598252903398" lon="0.885202420009291"><ele>182.6</ele><time>2026-05-01T13:05:18Z</time></trkpt><trkpt lat="44.66591327814132" lon="0.8853087427823396"><ele>183.8</ele><time>2026-05-01T13:05:21Z</time></trkpt><trkpt lat="44.66583327049411" lon="0.885415185696373"><ele>185.0</ele><time>2026-05-01T13:05:23Z</time></trkpt><trkpt lat="44.665742484281495" lon="0.8855022949948974"><ele>185.0</ele><time>2026-05-01T13:05:25Z</time></trkpt><trkpt lat="44.665673052277356" lon="0.8855392205753003"><ele>185.0</ele><time>2026-05-01T13:05:26Z</time></trkpt><trkpt lat="44.66560455289566" lon="0.8855882483446937"><ele>185.0</ele><time>2026-05-01T13:05:27Z</time></trkpt><trkpt lat="44.665496796124174" lon="0.8856455862109727"><ele>185.0</ele><time>2026-05-01T13:05:29Z</time></trkpt><trkpt lat="44.66541135015212" lon="0.8856963013432905"><ele>185.0</ele><time>2026-05-01T13:05:31Z</time></trkpt><trkpt lat="44.66535629108515" lon="0.8857674991428773"><ele>185.0</ele><time>2026-05-01T13:05:33Z</time></trkpt><trkpt lat="44.665311456578884" lon="0.885882780781628"><ele>185.83333333333331</ele><time>2026-05-01T13:05:36Z</time></trkpt><trkpt lat="44.66523249983408" lon="0.8859358335000744"><ele>186.66666666666666</ele><time>2026-05-01T13:06:42Z</time></trkpt><trkpt lat="44.665153463691915" lon="0.8859561115369485"><ele>187.5</ele><time>2026-05-01T13:06:44Z</time></trkpt><trkpt lat="44.66508584748528" lon="0.8859666567267671"><ele>188.33333333333334</ele><time>2026-05-01T13:06:47Z</time></trkpt><trkpt lat="44.665016635987044" lon="0.8860177029832076"><ele>189.16666666666669</ele><time>2026-05-01T13:06:51Z</time></trkpt><trkpt lat="44.664952997427704" lon="0.8860593219341752"><ele>190.0</ele><time>2026-05-01T13:07:04Z</time></trkpt><trkpt lat="44.66488930257379" lon="0.886100268948582"><ele>190.0</ele><time>2026-05-01T13:07:09Z</time></trkpt><trkpt lat="44.664808989925234" lon="0.8861066554818392"><ele>190.0</ele><time>2026-05-01T13:07:12Z</time></trkpt><trkpt lat="44.66473794999642" lon="0.8860541562904267"><ele>190.0</ele><time>2026-05-01T13:07:16Z</time></trkpt><trkpt lat="44.66470212860998" lon="0.8859383259467306"><ele>190.0</ele><time>2026-05-01T13:07:18Z</time></trkpt><trkpt lat="44.66466186311444" lon="0.8858434017378941"><ele>190.0</ele><time>2026-05-01T13:07:20Z</time></trkpt><trkpt lat="44.664637313639105" lon="0.8857396448792125"><ele>190.0</ele><time>2026-05-01T13:07:22Z</time></trkpt><trkpt lat="44.664603623505215" lon="0.8856406967933999"><ele>190.5</ele><time>2026-05-01T13:07:24Z</time></trkpt><trkpt lat="44.66457214276461" lon="0.8855588222525619"><ele>191.0</ele><time>2026-05-01T13:07:26Z</time></trkpt><trkpt lat="44.66453005181069" lon="0.8854860753380202"><ele>191.5</ele><time>2026-05-01T13:07:34Z</time></trkpt><trkpt lat="44.66441767120077" lon="0.885501478638589"><ele>192.0</ele><time>2026-05-01T13:07:37Z</time></trkpt><trkpt lat="44.66435247648482" lon="0.8855548848462764"><ele>192.49999999999997</ele><time>2026-05-01T13:07:38Z</time></trkpt><trkpt lat="44.66427068026311" lon="0.8856084758980034"><ele>193.0</ele><time>2026-05-01T13:07:39Z</time></trkpt><trkpt lat="44.66418350232997" lon="0.885648158385614"><ele>192.99999999999997</ele><time>2026-05-01T13:07:40Z</time></trkpt><trkpt lat="44.66411107911958" lon="0.885673059589768"><ele>193.0</ele><time>2026-05-01T13:07:42Z</time></trkpt><trkpt lat="44.664040122295425" lon="0.8856086776110221"><ele>193.0</ele><time>2026-05-01T13:07:44Z</time></trkpt><trkpt lat="44.66402101735562" lon="0.8854907719083553"><ele>193.0</ele><time>2026-05-01T13:07:46Z</time></trkpt><trkpt lat="44.66399266887467" lon="0.8853546639331394"><ele>192.99999999999997</ele><time>2026-05-01T13:07:48Z</time></trkpt><trkpt lat="44.66391880025515" lon="0.8853257144537969"><ele>193.0</ele><time>2026-05-01T13:07:50Z</time></trkpt><trkpt lat="44.663826074032556" lon="0.885381257924003"><ele>192.99999999999997</ele><time>2026-05-01T13:07:52Z</time></trkpt><trkpt lat="44.663774185483945" lon="0.8854393670304743"><ele>193.0</ele><time>2026-05-01T13:07:53Z</time></trkpt><trkpt lat="44.66372903778934" lon="0.8855254743219632"><ele>193.0</ele><time>2026-05-01T13:07:54Z</time></trkpt><trkpt lat="44.66368659048387" lon="0.885597443772789"><ele>193.0</ele><time>2026-05-01T13:07:55Z</time></trkpt><trkpt lat="44.663630633306454" lon="0.8857026402941807"><ele>192.99999999999997</ele><time>2026-05-01T13:07:56Z</time></trkpt><trkpt lat="44.66354742337255" lon="0.8857922321441223"><ele>193.0</ele><time>2026-05-01T13:07:57Z</time></trkpt><trkpt lat="44.66348863434152" lon="0.885875383108998"><ele>194.66666666666666</ele><time>2026-05-01T13:07:58Z</time></trkpt><trkpt lat="44.66343276264165" lon="0.8859576236451036"><ele>196.33333333333331</ele><time>2026-05-01T13:07:59Z</time></trkpt><trkpt lat="44.66337854540233" lon="0.8860444543276733"><ele>198.0</ele><time>2026-05-01T13:08:00Z</time></trkpt><trkpt lat="44.66334595731414" lon="0.8861206674908815"><ele>199.66666666666669</ele><time>2026-05-01T13:08:01Z</time></trkpt><trkpt lat="44.663321764512304" lon="0.8862113340323166"><ele>201.33333333333334</ele><time>2026-05-01T13:08:02Z</time></trkpt><trkpt lat="44.66331966163057" lon="0.8863594799356352"><ele>203.0</ele><time>2026-05-01T13:08:04Z</time></trkpt><trkpt lat="44.663337391316475" lon="0.8864924383652371"><ele>203.0</ele><time>2026-05-01T13:08:06Z</time></trkpt><trkpt lat="44.66339885778117" lon="0.8865658087156348"><ele>203.0</ele><time>2026-05-01T13:08:08Z</time></trkpt><trkpt lat="44.66342210596114" lon="0.8867248536796464"><ele>203.0</ele><time>2026-05-01T13:08:10Z</time></trkpt><trkpt lat="44.66342012373849" lon="0.8868181979044946"><ele>203.0</ele><time>2026-05-01T13:08:11Z</time></trkpt><trkpt lat="44.66341525722554" lon="0.886993694487548"><ele>203.0</ele><time>2026-05-01T13:08:13Z</time></trkpt><trkpt lat="44.663412344820244" lon="0.8871132306721669"><ele>203.33333333333334</ele><time>2026-05-01T13:08:14Z</time></trkpt><trkpt lat="44.6634081739411" lon="0.8872337203319461"><ele>203.66666666666669</ele><time>2026-05-01T13:08:15Z</time></trkpt><trkpt lat="44.66340216853816" lon="0.8873607137103597"><ele>204.0</ele><time>2026-05-01T13:08:16Z</time></trkpt><trkpt lat="44.66340160400626" lon="0.8874752229013487"><ele>204.33333333333331</ele><time>2026-05-01T13:08:17Z</time></trkpt><trkpt lat="44.66338743135862" lon="0.8875821694426734"><ele>204.66666666666666</ele><time>2026-05-01T13:08:18Z</time></trkpt><trkpt lat="44.66340620339338" lon="0.8876908523499832"><ele>205.0</ele><time>2026-05-01T13:08:19Z</time></trkpt><trkpt lat="44.663373132979" lon="0.8878116822559726"><ele>204.99999999999997</ele><time>2026-05-01T13:08:20Z</time></trkpt><trkpt lat="44.66335665710325" lon="0.8879224625486638"><ele>205.0</ele><time>2026-05-01T13:08:21Z</time></trkpt><trkpt lat="44.663356460197996" lon="0.8880129975907238"><ele>205.0</ele><time>2026-05-01T13:08:22Z</time></trkpt><trkpt lat="44.66336716230366" lon="0.8881035626461057"><ele>205.0</ele><time>2026-05-01T13:08:23Z</time></trkpt><trkpt lat="44.66337968264405" lon="0.8882065933075391"><ele>204.99999999999997</ele><time>2026-05-01T13:08:24Z</time></trkpt><trkpt lat="44.66332672085507" lon="0.8883502793476207"><ele>205.0</ele><time>2026-05-01T13:08:26Z</time></trkpt><trkpt lat="44.6632354804357" lon="0.8884781349347711"><ele>204.49999999999997</ele><time>2026-05-01T13:08:28Z</time></trkpt><trkpt lat="44.663202913990986" lon="0.8886283906745658"><ele>204.0</ele><time>2026-05-01T13:08:30Z</time></trkpt><trkpt lat="44.66320383037004" lon="0.888723891909442"><ele>203.5</ele><time>2026-05-01T13:08:31Z</time></trkpt><trkpt lat="44.66320826519906" lon="0.8888137993985704"><ele>203.0</ele><time>2026-05-01T13:08:32Z</time></trkpt><trkpt lat="44.663170235521754" lon="0.8889154402425691"><ele>202.49999999999997</ele><time>2026-05-01T13:08:34Z</time></trkpt><trkpt lat="44.66311287005964" lon="0.888975859197295"><ele>202.0</ele><time>2026-05-01T13:08:36Z</time></trkpt><trkpt lat="44.663002738300854" lon="0.8890099286647801"><ele>202.0</ele><time>2026-05-01T13:08:38Z</time></trkpt><trkpt lat="44.66289452967387" lon="0.8890691033709508"><ele>202.0</ele><time>2026-05-01T13:08:40Z</time></trkpt><trkpt lat="44.66279801050127" lon="0.8891165624620978"><ele>202.0</ele><time>2026-05-01T13:08:41Z</time></trkpt><trkpt lat="44.66272550341474" lon="0.8891564077940355"><ele>202.0</ele><time>2026-05-01T13:08:42Z</time></trkpt><trkpt lat="44.66264380748813" lon="0.889188889233406"><ele>202.0</ele><time>2026-05-01T13:08:43Z</time></trkpt><trkpt lat="44.662547449665546" lon="0.8892187846708499"><ele>202.2</ele><time>2026-05-01T13:08:44Z</time></trkpt><trkpt lat="44.662446095438746" lon="0.8892470686460283"><ele>202.39999999999998</ele><time>2026-05-01T13:08:45Z</time></trkpt><trkpt lat="44.66234857493961" lon="0.8892575240101971"><ele>202.60000000000002</ele><time>2026-05-01T13:08:46Z</time></trkpt><trkpt lat="44.662236632706694" lon="0.8892609286237279"><ele>202.8</ele><time>2026-05-01T13:08:47Z</time></trkpt><trkpt lat="44.662121300620775" lon="0.8892506151280699"><ele>203.0</ele><time>2026-05-01T13:08:48Z</time></trkpt><trkpt lat="44.6620101507482" lon="0.889244215883253"><ele>203.75</ele><time>2026-05-01T13:08:49Z</time></trkpt><trkpt lat="44.66188779337224" lon="0.889221530980047"><ele>204.5</ele><time>2026-05-01T13:08:50Z</time></trkpt><trkpt lat="44.66176855076986" lon="0.8892111958263109"><ele>205.25</ele><time>2026-05-01T13:08:51Z</time></trkpt><trkpt lat="44.661646063113686" lon="0.8891978723985274"><ele>206.0</ele><time>2026-05-01T13:08:52Z</time></trkpt><trkpt lat="44.66151770915761" lon="0.8891655791655622"><ele>206.0</ele><time>2026-05-01T13:08:53Z</time></trkpt><trkpt lat="44.66138797095857" lon="0.8891144539023556"><ele>206.0</ele><time>2026-05-01T13:08:54Z</time></trkpt><trkpt lat="44.66125669273635" lon="0.8890627938208062"><ele>206.0</ele><time>2026-05-01T13:08:55Z</time></trkpt><trkpt lat="44.66114440956445" lon="0.8890020248249081"><ele>206.0</ele><time>2026-05-01T13:08:56Z</time></trkpt><trkpt lat="44.661031115546386" lon="0.888946835015328"><ele>205.0</ele><time>2026-05-01T13:08:57Z</time></trkpt><trkpt lat="44.660923265211245" lon="0.8889025739177825"><ele>204.0</ele><time>2026-05-01T13:08:58Z</time></trkpt><trkpt lat="44.66082004896842" lon="0.8888531960911983"><ele>203.0</ele><time>2026-05-01T13:08:59Z</time></trkpt><trkpt lat="44.66072203123956" lon="0.8888040897955359"><ele>202.0</ele><time>2026-05-01T13:09:00Z</time></trkpt><trkpt lat="44.660624237447415" lon="0.8887609847016497"><ele>201.0</ele><time>2026-05-01T13:09:01Z</time></trkpt><trkpt lat="44.66052213653443" lon="0.8887140819797056"><ele>201.0</ele><time>2026-05-01T13:09:02Z</time></trkpt><trkpt lat="44.660429677858914" lon="0.8886631438774545"><ele>201.0</ele><time>2026-05-01T13:09:03Z</time></trkpt><trkpt lat="44.66033328047651" lon="0.8886057858169378"><ele>201.0</ele><time>2026-05-01T13:09:04Z</time></trkpt><trkpt lat="44.660238438928275" lon="0.8885566323286028"><ele>201.0</ele><time>2026-05-01T13:09:05Z</time></trkpt><trkpt lat="44.66015153191675" lon="0.8885009452679662"><ele>201.0</ele><time>2026-05-01T13:09:06Z</time></trkpt><trkpt lat="44.66006819178055" lon="0.8884461525597632"><ele>198.66666666666666</ele><time>2026-05-01T13:09:07Z</time></trkpt><trkpt lat="44.65998786989149" lon="0.8884545647726368"><ele>196.33333333333334</ele><time>2026-05-01T13:09:08Z</time></trkpt><trkpt lat="44.65990693891562" lon="0.8884648274752089"><ele>194.0</ele><time>2026-05-01T13:09:09Z</time></trkpt><trkpt lat="44.65984188702232" lon="0.8885031483734395"><ele>191.66666666666669</ele><time>2026-05-01T13:09:10Z</time></trkpt><trkpt lat="44.65975389209475" lon="0.8885879785864008"><ele>189.33333333333334</ele><time>2026-05-01T13:09:11Z</time></trkpt><trkpt lat="44.65968471781287" lon="0.8887018554994016"><ele>187.0</ele><time>2026-05-01T13:09:12Z</time></trkpt><trkpt lat="44.65964087530406" lon="0.8888493338726344"><ele>187.0</ele><time>2026-05-01T13:09:13Z</time></trkpt><trkpt lat="44.65962146130312" lon="0.8890122949313837"><ele>187.0</ele><time>2026-05-01T13:09:14Z</time></trkpt><trkpt lat="44.6595896987026" lon="0.8891834884008241"><ele>187.0</ele><time>2026-05-01T13:09:15Z</time></trkpt><trkpt lat="44.659569020959914" lon="0.8893673572751577"><ele>187.0</ele><time>2026-05-01T13:09:16Z</time></trkpt><trkpt lat="44.65956670044952" lon="0.8895476742679339"><ele>188.0</ele><time>2026-05-01T13:09:17Z</time></trkpt><trkpt lat="44.659535151044906" lon="0.8896975886795234"><ele>189.0</ele><time>2026-05-01T13:09:18Z</time></trkpt><trkpt lat="44.659506851333816" lon="0.8898499968918295"><ele>190.0</ele><time>2026-05-01T13:09:19Z</time></trkpt><trkpt lat="44.659476164128655" lon="0.8900019235020763"><ele>191.0</ele><time>2026-05-01T13:09:20Z</time></trkpt><trkpt lat="44.65943517782786" lon="0.8901590367472372"><ele>188.0</ele><time>2026-05-01T13:09:21Z</time></trkpt><trkpt lat="44.65936840518884" lon="0.8902843623820714"><ele>185.0</ele><time>2026-05-01T13:09:22Z</time></trkpt><trkpt lat="44.659322499997586" lon="0.8904250798920794"><ele>182.0</ele><time>2026-05-01T13:09:23Z</time></trkpt><trkpt lat="44.65926837626075" lon="0.8905584558817273"><ele>179.0</ele><time>2026-05-01T13:09:24Z</time></trkpt><trkpt lat="44.65920734696676" lon="0.8906775280450229"><ele>176.0</ele><time>2026-05-01T13:09:25Z</time></trkpt><trkpt lat="44.65914434657503" lon="0.8907908563156247"><ele>176.0</ele><time>2026-05-01T13:09:26Z</time></trkpt><trkpt lat="44.65908394014206" lon="0.8909054835738499"><ele>176.0</ele><time>2026-05-01T13:09:27Z</time></trkpt><trkpt lat="44.65901767939454" lon="0.8909879189439837"><ele>176.0</ele><time>2026-05-01T13:09:28Z</time></trkpt><trkpt lat="44.65893497113296" lon="0.8911032880718174"><ele>176.0</ele><time>2026-05-01T13:09:29Z</time></trkpt><trkpt lat="44.658849055848044" lon="0.8911850136416242"><ele>176.0</ele><time>2026-05-01T13:09:30Z</time></trkpt><trkpt lat="44.65875658995852" lon="0.891245949503226"><ele>174.60000000000002</ele><time>2026-05-01T13:09:31Z</time></trkpt><trkpt lat="44.65865231503388" lon="0.8913119248754864"><ele>173.2</ele><time>2026-05-01T13:09:32Z</time></trkpt><trkpt lat="44.658552457559516" lon="0.8913787276893205"><ele>171.8</ele><time>2026-05-01T13:09:33Z</time></trkpt><trkpt lat="44.658462878318055" lon="0.8914164237564933"><ele>170.39999999999998</ele><time>2026-05-01T13:09:34Z</time></trkpt><trkpt lat="44.65836889237622" lon="0.8914712457415904"><ele>169.0</ele><time>2026-05-01T13:09:35Z</time></trkpt><trkpt lat="44.65828433592262" lon="0.8915493033342923"><ele>169.0</ele><time>2026-05-01T13:09:36Z</time></trkpt><trkpt lat="44.65819629958973" lon="0.8916469917610818"><ele>169.0</ele><time>2026-05-01T13:09:37Z</time></trkpt><trkpt lat="44.65811642048343" lon="0.8917677644677768"><ele>169.0</ele><time>2026-05-01T13:09:38Z</time></trkpt><trkpt lat="44.65805324157113" lon="0.8918926536535399"><ele>169.0</ele><time>2026-05-01T13:09:39Z</time></trkpt><trkpt lat="44.65799459611322" lon="0.8920267850973921"><ele>171.39999999999998</ele><time>2026-05-01T13:09:40Z</time></trkpt><trkpt lat="44.65794065811554" lon="0.8921735055826794"><ele>173.8</ele><time>2026-05-01T13:09:41Z</time></trkpt><trkpt lat="44.657899196995785" lon="0.8923176341609389"><ele>176.2</ele><time>2026-05-01T13:09:42Z</time></trkpt><trkpt lat="44.65786399658858" lon="0.8924637007299232"><ele>178.60000000000002</ele><time>2026-05-01T13:09:43Z</time></trkpt><trkpt lat="44.65783583076446" lon="0.8925989427187957"><ele>181.0</ele><time>2026-05-01T13:09:44Z</time></trkpt><trkpt lat="44.657814162772006" lon="0.8927163488506469"><ele>182.60000000000002</ele><time>2026-05-01T13:09:45Z</time></trkpt><trkpt lat="44.65778615769814" lon="0.8928286524187482"><ele>184.2</ele><time>2026-05-01T13:09:46Z</time></trkpt><trkpt lat="44.6577376490107" lon="0.8929154822367604"><ele>185.8</ele><time>2026-05-01T13:09:47Z</time></trkpt><trkpt lat="44.65766598595461" lon="0.8929854541049622"><ele>187.39999999999998</ele><time>2026-05-01T13:09:48Z</time></trkpt><trkpt lat="44.657566366104064" lon="0.892992779326"><ele>189.0</ele><time>2026-05-01T13:09:49Z</time></trkpt><trkpt lat="44.65746000828207" lon="0.893023572262655"><ele>183.5</ele><time>2026-05-01T13:09:50Z</time></trkpt><trkpt lat="44.6573411007172" lon="0.8930293425539082"><ele>178.0</ele><time>2026-05-01T13:09:51Z</time></trkpt><trkpt lat="44.65722305350387" lon="0.893042037896427"><ele>172.5</ele><time>2026-05-01T13:09:52Z</time></trkpt><trkpt lat="44.65710790699254" lon="0.8930623074620776"><ele>167.0</ele><time>2026-05-01T13:09:53Z</time></trkpt><trkpt lat="44.65700203470492" lon="0.8931085087277238"><ele>167.6</ele><time>2026-05-01T13:09:54Z</time></trkpt><trkpt lat="44.65691385070168" lon="0.8931900244511852"><ele>168.2</ele><time>2026-05-01T13:09:55Z</time></trkpt><trkpt lat="44.65684370064701" lon="0.8933012034629594"><ele>168.8</ele><time>2026-05-01T13:09:56Z</time></trkpt><trkpt lat="44.65676387054828" lon="0.8934022503484875"><ele>169.4</ele><time>2026-05-01T13:09:57Z</time></trkpt><trkpt lat="44.656706378408494" lon="0.8935042703168838"><ele>170.0</ele><time>2026-05-01T13:09:58Z</time></trkpt><trkpt lat="44.656623189364986" lon="0.8936045414739259"><ele>170.8</ele><time>2026-05-01T13:09:59Z</time></trkpt><trkpt lat="44.65655146396723" lon="0.893707381818687"><ele>171.6</ele><time>2026-05-01T13:10:00Z</time></trkpt><trkpt lat="44.6564978651205" lon="0.8938229779667579"><ele>172.39999999999998</ele><time>2026-05-01T13:10:01Z</time></trkpt><trkpt lat="44.65647679962956" lon="0.8939465911145101"><ele>173.2</ele><time>2026-05-01T13:10:02Z</time></trkpt><trkpt lat="44.65648405837847" lon="0.8940760372264257"><ele>174.0</ele><time>2026-05-01T13:10:03Z</time></trkpt><trkpt lat="44.65648588001191" lon="0.8941971672735834"><ele>174.79999999999998</ele><time>2026-05-01T13:10:04Z</time></trkpt><trkpt lat="44.65646007162851" lon="0.8943105333216159"><ele>175.6</ele><time>2026-05-01T13:10:05Z</time></trkpt><trkpt lat="44.65640237186803" lon="0.8943975821059059"><ele>176.4</ele><time>2026-05-01T13:10:06Z</time></trkpt><trkpt lat="44.65632135101758" lon="0.8944365885385502"><ele>177.2</ele><time>2026-05-01T13:10:07Z</time></trkpt><trkpt lat="44.656216388910686" lon="0.8944270450847548"><ele>178.0</ele><time>2026-05-01T13:10:08Z</time></trkpt><trkpt lat="44.65611931875767" lon="0.8944733724405829"><ele>179.66666666666669</ele><time>2026-05-01T13:10:09Z</time></trkpt><trkpt lat="44.656027055163534" lon="0.8945179275614612"><ele>181.33333333333334</ele><time>2026-05-01T13:10:10Z</time></trkpt><trkpt lat="44.65594134481583" lon="0.8945717967554543"><ele>183.0</ele><time>2026-05-01T13:10:11Z</time></trkpt><trkpt lat="44.6558628796115" lon="0.8946192247366477"><ele>184.66666666666666</ele><time>2026-05-01T13:10:12Z</time></trkpt><trkpt lat="44.65578956186726" lon="0.8946435111701294"><ele>186.33333333333331</ele><time>2026-05-01T13:10:13Z</time></trkpt><trkpt lat="44.6557023326905" lon="0.894647564230827"><ele>188.0</ele><time>2026-05-01T13:10:14Z</time></trkpt><trkpt lat="44.65561281120796" lon="0.8946419238202865"><ele>188.0</ele><time>2026-05-01T13:10:15Z</time></trkpt><trkpt lat="44.65551509580006" lon="0.8946439329621358"><ele>188.0</ele><time>2026-05-01T13:10:16Z</time></trkpt><trkpt lat="44.65542128623427" lon="0.8946532242633568"><ele>188.0</ele><time>2026-05-01T13:10:17Z</time></trkpt><trkpt lat="44.65533695892387" lon="0.8946990331553373"><ele>188.0</ele><time>2026-05-01T13:10:18Z</time></trkpt><trkpt lat="44.6552587189401" lon="0.8947627522403478"><ele>188.0</ele><time>2026-05-01T13:10:19Z</time></trkpt><trkpt lat="44.655176363701095" lon="0.8948230474461712"><ele>189.2</ele><time>2026-05-01T13:10:20Z</time></trkpt><trkpt lat="44.65510357032549" lon="0.8948983276774944"><ele>190.4</ele><time>2026-05-01T13:10:21Z</time></trkpt><trkpt lat="44.65502079344233" lon="0.8949613285941177"><ele>191.6</ele><time>2026-05-01T13:10:22Z</time></trkpt><trkpt lat="44.654935393040844" lon="0.89501687681399"><ele>192.79999999999998</ele><time>2026-05-01T13:10:23Z</time></trkpt><trkpt lat="44.65484143597189" lon="0.8950570241675917"><ele>194.0</ele><time>2026-05-01T13:10:24Z</time></trkpt><trkpt lat="44.65473752265983" lon="0.8950648944836911"><ele>194.25</ele><time>2026-05-01T13:10:25Z</time></trkpt><trkpt lat="44.65462957204751" lon="0.895110001696345"><ele>194.5</ele><time>2026-05-01T13:10:26Z</time></trkpt><trkpt lat="44.65450940736094" lon="0.8951268173385403"><ele>194.75</ele><time>2026-05-01T13:10:27Z</time></trkpt><trkpt lat="44.654390342638635" lon="0.8951556604902644"><ele>195.0</ele><time>2026-05-01T13:10:28Z</time></trkpt><trkpt lat="44.65426980652395" lon="0.895191699610229"><ele>197.25</ele><time>2026-05-01T13:10:29Z</time></trkpt><trkpt lat="44.65415134007228" lon="0.8952375706320053"><ele>199.5</ele><time>2026-05-01T13:10:30Z</time></trkpt><trkpt lat="44.65403129761644" lon="0.8952847366317981"><ele>201.75</ele><time>2026-05-01T13:10:31Z</time></trkpt><trkpt lat="44.65391271886753" lon="0.8953173255196645"><ele>204.0</ele><time>2026-05-01T13:10:32Z</time></trkpt><trkpt lat="44.6538000552283" lon="0.895361339999416"><ele>204.0</ele><time>2026-05-01T13:10:33Z</time></trkpt><trkpt lat="44.65369879167452" lon="0.8953981024935244"><ele>204.0</ele><time>2026-05-01T13:10:34Z</time></trkpt><trkpt lat="44.65360925818137" lon="0.8954328174241228"><ele>204.0</ele><time>2026-05-01T13:10:35Z</time></trkpt><trkpt lat="44.65352654727805" lon="0.8954835248417323"><ele>204.0</ele><time>2026-05-01T13:10:36Z</time></trkpt><trkpt lat="44.65345323659804" lon="0.8955494869372495"><ele>204.0</ele><time>2026-05-01T13:10:37Z</time></trkpt><trkpt lat="44.65342002261549" lon="0.8956872149591383"><ele>204.39999999999998</ele><time>2026-05-01T13:10:38Z</time></trkpt><trkpt lat="44.65338764042415" lon="0.8958119270904835"><ele>204.8</ele><time>2026-05-01T13:10:39Z</time></trkpt><trkpt lat="44.65335324094033" lon="0.89593466338235"><ele>205.2</ele><time>2026-05-01T13:10:40Z</time></trkpt><trkpt lat="44.65332380449941" lon="0.8960516281876312"><ele>205.60000000000002</ele><time>2026-05-01T13:10:41Z</time></trkpt><trkpt lat="44.65328940075999" lon="0.8961785059222571"><ele>206.0</ele><time>2026-05-01T13:10:42Z</time></trkpt><trkpt lat="44.65324775550364" lon="0.8962964642258563"><ele>206.0</ele><time>2026-05-01T13:10:43Z</time></trkpt><trkpt lat="44.6532100581949" lon="0.8964168811757462"><ele>206.0</ele><time>2026-05-01T13:10:44Z</time></trkpt><trkpt lat="44.653156306706364" lon="0.8965410696577042"><ele>206.0</ele><time>2026-05-01T13:10:45Z</time></trkpt><trkpt lat="44.65310720176668" lon="0.8966585371184499"><ele>206.0</ele><time>2026-05-01T13:10:46Z</time></trkpt><trkpt lat="44.65304729234574" lon="0.8967835130357696"><ele>206.0</ele><time>2026-05-01T13:10:47Z</time></trkpt><trkpt lat="44.65298075319028" lon="0.8969041782986747"><ele>206.20000000000002</ele><time>2026-05-01T13:10:48Z</time></trkpt><trkpt lat="44.65291415945584" lon="0.8970119972402449"><ele>206.4</ele><time>2026-05-01T13:10:49Z</time></trkpt><trkpt lat="44.65285191048714" lon="0.8971290770290996"><ele>206.6</ele><time>2026-05-01T13:10:50Z</time></trkpt><trkpt lat="44.65278559101768" lon="0.8972440530075371"><ele>206.8</ele><time>2026-05-01T13:10:51Z</time></trkpt><trkpt lat="44.652720054585615" lon="0.8973638186400144"><ele>207.0</ele><time>2026-05-01T13:10:52Z</time></trkpt><trkpt lat="44.65265019721956" lon="0.897486880947067"><ele>208.0</ele><time>2026-05-01T13:10:53Z</time></trkpt><trkpt lat="44.652575434494665" lon="0.8976116827602223"><ele>209.0</ele><time>2026-05-01T13:10:54Z</time></trkpt><trkpt lat="44.65248172587228" lon="0.8977249109393041"><ele>210.0</ele><time>2026-05-01T13:10:55Z</time></trkpt><trkpt lat="44.652398670430614" lon="0.897838276683313"><ele>211.0</ele><time>2026-05-01T13:10:56Z</time></trkpt><trkpt lat="44.652314576616384" lon="0.8979737174157749"><ele>211.0</ele><time>2026-05-01T13:10:57Z</time></trkpt><trkpt lat="44.65221966480024" lon="0.89808891827836"><ele>211.0</ele><time>2026-05-01T13:10:58Z</time></trkpt><trkpt lat="44.65212740758672" lon="0.8982039546726709"><ele>211.0</ele><time>2026-05-01T13:10:59Z</time></trkpt><trkpt lat="44.65204445458101" lon="0.898315932080846"><ele>211.0</ele><time>2026-05-01T13:11:00Z</time></trkpt><trkpt lat="44.65196213985514" lon="0.8984271617834233"><ele>211.60000000000002</ele><time>2026-05-01T13:11:01Z</time></trkpt><trkpt lat="44.651876159598764" lon="0.8985468780483263"><ele>212.2</ele><time>2026-05-01T13:11:02Z</time></trkpt><trkpt lat="44.65179202330692" lon="0.898651659849072"><ele>212.79999999999998</ele><time>2026-05-01T13:11:03Z</time></trkpt><trkpt lat="44.651715949781824" lon="0.8987589521865668"><ele>213.39999999999998</ele><time>2026-05-01T13:11:04Z</time></trkpt><trkpt lat="44.651658479917" lon="0.8988520892523842"><ele>214.0</ele><time>2026-05-01T13:11:05Z</time></trkpt><trkpt lat="44.65159163837031" lon="0.8989541046352952"><ele>214.0</ele><time>2026-05-01T13:11:06Z</time></trkpt><trkpt lat="44.651521888880325" lon="0.8990268313290053"><ele>213.99999999999997</ele><time>2026-05-01T13:11:07Z</time></trkpt><trkpt lat="44.65144665020877" lon="0.8991030800590082"><ele>213.99999999999997</ele><time>2026-05-01T13:11:08Z</time></trkpt><trkpt lat="44.65133289993036" lon="0.8991790599740317"><ele>214.0</ele><time>2026-05-01T13:11:10Z</time></trkpt><trkpt lat="44.65126519732547" lon="0.8992162141785079"><ele>214.0</ele><time>2026-05-01T13:11:11Z</time></trkpt><trkpt lat="44.65119941680926" lon="0.8992730672782582"><ele>213.83333333333331</ele><time>2026-05-01T13:11:12Z</time></trkpt><trkpt lat="44.6511303734893" lon="0.8993272369362749"><ele>213.66666666666666</ele><time>2026-05-01T13:11:13Z</time></trkpt><trkpt lat="44.65105830208878" lon="0.8993751583603204"><ele>213.5</ele><time>2026-05-01T13:11:14Z</time></trkpt><trkpt lat="44.65097969317662" lon="0.8994268445561392"><ele>213.33333333333331</ele><time>2026-05-01T13:11:15Z</time></trkpt><trkpt lat="44.65091228081663" lon="0.8994966639584775"><ele>213.16666666666666</ele><time>2026-05-01T13:11:16Z</time></trkpt><trkpt lat="44.6508561731467" lon="0.899541212045725"><ele>213.0</ele><time>2026-05-01T13:11:17Z</time></trkpt><trkpt lat="44.650747709825126" lon="0.8996197576000418"><ele>213.75</ele><time>2026-05-01T13:11:19Z</time></trkpt><trkpt lat="44.65065589769633" lon="0.8996491303582449"><ele>214.5</ele><time>2026-05-01T13:11:21Z</time></trkpt><trkpt lat="44.65079203899307" lon="0.8998603841722693"><ele>215.25</ele><time>2026-05-01T13:11:31Z</time></trkpt><trkpt lat="44.65083826035755" lon="0.8999901689678295"><ele>216.0</ele><time>2026-05-01T13:11:32Z</time></trkpt><trkpt lat="44.65088505920877" lon="0.9000853014222533"><ele>216.20000000000002</ele><time>2026-05-01T13:11:33Z</time></trkpt><trkpt lat="44.650953853879656" lon="0.9002132937020465"><ele>216.40000000000003</ele><time>2026-05-01T13:11:34Z</time></trkpt><trkpt lat="44.651008381702106" lon="0.9003215182414884"><ele>216.6</ele><time>2026-05-01T13:11:35Z</time></trkpt><trkpt lat="44.651071411095074" lon="0.9004230156333792"><ele>216.8</ele><time>2026-05-01T13:11:36Z</time></trkpt><trkpt lat="44.65112222249162" lon="0.9005179315768593"><ele>217.0</ele><time>2026-05-01T13:11:37Z</time></trkpt><trkpt lat="44.65116348908265" lon="0.9005947743410863"><ele>216.66666666666666</ele><time>2026-05-01T13:11:38Z</time></trkpt><trkpt lat="44.65119266667568" lon="0.9006960721581196"><ele>216.33333333333331</ele><time>2026-05-01T13:11:39Z</time></trkpt><trkpt lat="44.65122636961341" lon="0.9007838763101457"><ele>216.0</ele><time>2026-05-01T13:11:40Z</time></trkpt><trkpt lat="44.651268286866326" lon="0.9008617695890805"><ele>215.66666666666669</ele><time>2026-05-01T13:11:41Z</time></trkpt><trkpt lat="44.65133982131653" lon="0.9009296762610784"><ele>215.33333333333334</ele><time>2026-05-01T13:11:43Z</time></trkpt><trkpt lat="44.65140196587943" lon="0.9009533786277036"><ele>215.0</ele><time>2026-05-01T13:11:44Z</time></trkpt><trkpt lat="44.6515433217701" lon="0.9009824966517049"><ele>215.0</ele><time>2026-05-01T13:11:46Z</time></trkpt><trkpt lat="44.651622287767744" lon="0.901016348377292"><ele>215.0</ele><time>2026-05-01T13:11:47Z</time></trkpt><trkpt lat="44.65171986830256" lon="0.9010469007992491"><ele>215.0</ele><time>2026-05-01T13:11:48Z</time></trkpt><trkpt lat="44.651820996832015" lon="0.9010556601198351"><ele>215.0</ele><time>2026-05-01T13:11:49Z</time></trkpt><trkpt lat="44.6519157090366" lon="0.9010746317695927"><ele>215.0</ele><time>2026-05-01T13:11:50Z</time></trkpt><trkpt lat="44.65200731805359" lon="0.9011008761617494"><ele>214.6</ele><time>2026-05-01T13:11:51Z</time></trkpt><trkpt lat="44.65209997709814" lon="0.9011216004501992"><ele>214.2</ele><time>2026-05-01T13:11:52Z</time></trkpt><trkpt lat="44.65221657244002" lon="0.9011478143160717"><ele>213.8</ele><time>2026-05-01T13:11:53Z</time></trkpt><trkpt lat="44.65233240119541" lon="0.9011774169543805"><ele>213.4</ele><time>2026-05-01T13:11:54Z</time></trkpt><trkpt lat="44.65244538517691" lon="0.9012229142118309"><ele>213.0</ele><time>2026-05-01T13:11:55Z</time></trkpt><trkpt lat="44.65253185010118" lon="0.9012616400489237"><ele>213.0</ele><time>2026-05-01T13:11:56Z</time></trkpt><trkpt lat="44.65263901468002" lon="0.9012984035206734"><ele>213.0</ele><time>2026-05-01T13:11:57Z</time></trkpt><trkpt lat="44.65275919367877" lon="0.9013308759352768"><ele>213.0</ele><time>2026-05-01T13:11:59Z</time></trkpt><trkpt lat="44.652873994047965" lon="0.9013573011473891"><ele>213.0</ele><time>2026-05-01T13:12:00Z</time></trkpt><trkpt lat="44.652952745526555" lon="0.9013749507533578"><ele>213.0</ele><time>2026-05-01T13:12:01Z</time></trkpt><trkpt lat="44.65306406898112" lon="0.901374703425365"><ele>212.5</ele><time>2026-05-01T13:12:03Z</time></trkpt><trkpt lat="44.65314138461847" lon="0.9013342559809722"><ele>212.0</ele><time>2026-05-01T13:12:04Z</time></trkpt><trkpt lat="44.65322175777998" lon="0.9013092773741469"><ele>211.5</ele><time>2026-05-01T13:12:05Z</time></trkpt><trkpt lat="44.65329692323751" lon="0.9013132028711663"><ele>211.0</ele><time>2026-05-01T13:12:06Z</time></trkpt><trkpt lat="44.653376118228245" lon="0.9012994944566733"><ele>210.5</ele><time>2026-05-01T13:12:07Z</time></trkpt><trkpt lat="44.65346523956628" lon="0.9012708387549374"><ele>210.0</ele><time>2026-05-01T13:12:09Z</time></trkpt><trkpt lat="44.653566125091686" lon="0.901173052846008"><ele>209.8</ele><time>2026-05-01T13:12:12Z</time></trkpt><trkpt lat="44.653630772574616" lon="0.9011439539065361"><ele>209.6</ele><time>2026-05-01T13:12:13Z</time></trkpt><trkpt lat="44.653724180788025" lon="0.9010741814917436"><ele>209.39999999999998</ele><time>2026-05-01T13:12:14Z</time></trkpt><trkpt lat="44.65380174093036" lon="0.9010231502257344"><ele>209.2</ele><time>2026-05-01T13:12:15Z</time></trkpt><trkpt lat="44.65391979880941" lon="0.9009684174169931"><ele>209.0</ele><time>2026-05-01T13:12:16Z</time></trkpt><trkpt lat="44.65402999970599" lon="0.9008987941719422"><ele>208.6</ele><time>2026-05-01T13:12:17Z</time></trkpt><trkpt lat="44.65410507814" lon="0.9008610911525512"><ele>208.2</ele><time>2026-05-01T13:12:18Z</time></trkpt><trkpt lat="44.65420565705081" lon="0.9008036717094049"><ele>207.79999999999998</ele><time>2026-05-01T13:12:19Z</time></trkpt><trkpt lat="44.654290176619284" lon="0.9007470596160772"><ele>207.39999999999998</ele><time>2026-05-01T13:12:20Z</time></trkpt><trkpt lat="44.65437408375187" lon="0.9006987599268342"><ele>207.0</ele><time>2026-05-01T13:12:21Z</time></trkpt><trkpt lat="44.65445767458286" lon="0.9006542595923798"><ele>207.0</ele><time>2026-05-01T13:12:22Z</time></trkpt><trkpt lat="44.65453752659373" lon="0.9006160804758498"><ele>207.0</ele><time>2026-05-01T13:12:23Z</time></trkpt><trkpt lat="44.654597818941006" lon="0.9005785274262276"><ele>207.0</ele><time>2026-05-01T13:12:24Z</time></trkpt><trkpt lat="44.6546702949264" lon="0.9005260079974964"><ele>207.0</ele><time>2026-05-01T13:12:25Z</time></trkpt><trkpt lat="44.65475909270105" lon="0.9005137172217726"><ele>207.0</ele><time>2026-05-01T13:12:26Z</time></trkpt><trkpt lat="44.654862512361724" lon="0.900444048122827"><ele>207.0</ele><time>2026-05-01T13:12:27Z</time></trkpt><trkpt lat="44.65494946507112" lon="0.9003942215314874"><ele>207.0</ele><time>2026-05-01T13:12:28Z</time></trkpt><trkpt lat="44.655026675689946" lon="0.900371438517647"><ele>207.0</ele><time>2026-05-01T13:12:29Z</time></trkpt><trkpt lat="44.65512935523009" lon="0.9003155585626549"><ele>207.0</ele><time>2026-05-01T13:12:31Z</time></trkpt><trkpt lat="44.655200275698085" lon="0.9002734566309053"><ele>207.0</ele><time>2026-05-01T13:12:32Z</time></trkpt><trkpt lat="44.655269913783314" lon="0.9002463285474391"><ele>207.0</ele><time>2026-05-01T13:12:33Z</time></trkpt><trkpt lat="44.65535037377259" lon="0.9001924892819008"><ele>207.0</ele><time>2026-05-01T13:12:34Z</time></trkpt><trkpt lat="44.65549406906425" lon="0.9001471090008621"><ele>206.2</ele><time>2026-05-01T13:12:36Z</time></trkpt><trkpt lat="44.65560264214552" lon="0.9001102915343252"><ele>205.39999999999998</ele><time>2026-05-01T13:12:37Z</time></trkpt><trkpt lat="44.655703996063146" lon="0.9000568481773196"><ele>204.60000000000002</ele><time>2026-05-01T13:12:38Z</time></trkpt><trkpt lat="44.65582689071411" lon="0.9000210208937104"><ele>203.8</ele><time>2026-05-01T13:12:40Z</time></trkpt><trkpt lat="44.65590352206533" lon="0.8999949768786236"><ele>203.0</ele><time>2026-05-01T13:12:41Z</time></trkpt><trkpt lat="44.65598137093104" lon="0.8999619761913961"><ele>202.16666666666669</ele><time>2026-05-01T13:12:42Z</time></trkpt><trkpt lat="44.65605078256719" lon="0.8999116542207366"><ele>201.33333333333334</ele><time>2026-05-01T13:12:43Z</time></trkpt><trkpt lat="44.656124698057965" lon="0.8998746901546653"><ele>200.5</ele><time>2026-05-01T13:12:44Z</time></trkpt><trkpt lat="44.656187280780124" lon="0.8998599388816835"><ele>199.66666666666669</ele><time>2026-05-01T13:12:45Z</time></trkpt><trkpt lat="44.656279765196786" lon="0.8998333220120461"><ele>198.83333333333334</ele><time>2026-05-01T13:12:46Z</time></trkpt><trkpt lat="44.6563496883279" lon="0.8997861714833404"><ele>198.0</ele><time>2026-05-01T13:12:47Z</time></trkpt><trkpt lat="44.65641525244462" lon="0.8997147892561032"><ele>197.4</ele><time>2026-05-01T13:12:48Z</time></trkpt><trkpt lat="44.65652857872444" lon="0.8996303215469605"><ele>196.8</ele><time>2026-05-01T13:12:50Z</time></trkpt><trkpt lat="44.656607040175786" lon="0.8996461151825611"><ele>196.2</ele><time>2026-05-01T13:12:51Z</time></trkpt><trkpt lat="44.65671956467426" lon="0.8996080630968347"><ele>195.6</ele><time>2026-05-01T13:12:52Z</time></trkpt><trkpt lat="44.65681620850829" lon="0.8995768504623184"><ele>195.0</ele><time>2026-05-01T13:12:53Z</time></trkpt><trkpt lat="44.65689905986477" lon="0.8995356182745816"><ele>194.42857142857142</ele><time>2026-05-01T13:12:54Z</time></trkpt><trkpt lat="44.656959493383106" lon="0.8995031072927308"><ele>193.85714285714283</ele><time>2026-05-01T13:12:55Z</time></trkpt><trkpt lat="44.65703375425785" lon="0.899463132733108"><ele>193.28571428571428</ele><time>2026-05-01T13:12:56Z</time></trkpt><trkpt lat="44.65709575479803" lon="0.8994136654667273"><ele>192.71428571428572</ele><time>2026-05-01T13:12:57Z</time></trkpt><trkpt lat="44.65716288900112" lon="0.8993673211765334"><ele>192.14285714285714</ele><time>2026-05-01T13:12:58Z</time></trkpt><trkpt lat="44.65723018181987" lon="0.8993245557289148"><ele>191.57142857142858</ele><time>2026-05-01T13:12:59Z</time></trkpt><trkpt lat="44.657293753110984" lon="0.8993034580703044"><ele>191.0</ele><time>2026-05-01T13:13:00Z</time></trkpt><trkpt lat="44.65737459548864" lon="0.8993146120622152"><ele>191.0</ele><time>2026-05-01T13:13:01Z</time></trkpt><trkpt lat="44.6574420518769" lon="0.8993444520949191"><ele>191.0</ele><time>2026-05-01T13:13:02Z</time></trkpt><trkpt lat="44.657508659825154" lon="0.8993067974951181"><ele>191.0</ele><time>2026-05-01T13:13:04Z</time></trkpt><trkpt lat="44.65754171652088" lon="0.8992290872357377"><ele>191.0</ele><time>2026-05-01T13:13:06Z</time></trkpt><trkpt lat="44.65778450374223" lon="0.8991747047879972"><ele>187.8</ele><time>2026-05-01T13:13:15Z</time></trkpt><trkpt lat="44.65794862549479" lon="0.8993204800576176"><ele>184.60000000000002</ele><time>2026-05-01T13:13:19Z</time></trkpt><trkpt lat="44.65799463180818" lon="0.8993834777841873"><ele>181.4</ele><time>2026-05-01T13:13:20Z</time></trkpt><trkpt lat="44.65803946441837" lon="0.8994494916433435"><ele>178.2</ele><time>2026-05-01T13:13:21Z</time></trkpt><trkpt lat="44.65808134194638" lon="0.8995186077131664"><ele>175.0</ele><time>2026-05-01T13:13:22Z</time></trkpt><trkpt lat="44.65808537831518" lon="0.8996113698450378"><ele>175.0</ele><time>2026-05-01T13:13:23Z</time></trkpt><trkpt lat="44.65808967636785" lon="0.8997205336153447"><ele>175.0</ele><time>2026-05-01T13:13:24Z</time></trkpt><trkpt lat="44.65811442848581" lon="0.8998289840192039"><ele>175.0</ele><time>2026-05-01T13:13:25Z</time></trkpt><trkpt lat="44.65817813182949" lon="0.8999120076101913"><ele>175.0</ele><time>2026-05-01T13:13:27Z</time></trkpt><trkpt lat="44.65824415641944" lon="0.899940344850219"><ele>175.0</ele><time>2026-05-01T13:13:29Z</time></trkpt><trkpt lat="44.65849799004081" lon="0.8999542133707725"><ele>175.0</ele><time>2026-05-01T13:13:34Z</time></trkpt><trkpt lat="44.65856286017792" lon="0.8999501299183907"><ele>175.0</ele><time>2026-05-01T13:13:39Z</time></trkpt><trkpt lat="44.658652308411014" lon="0.8999144091692751"><ele>175.0</ele><time>2026-05-01T13:13:42Z</time></trkpt><trkpt lat="44.65871977162042" lon="0.8999034163408564"><ele>175.0</ele><time>2026-05-01T13:13:44Z</time></trkpt><trkpt lat="44.65884838630981" lon="0.8998938235362739"><ele>175.0</ele><time>2026-05-01T13:13:46Z</time></trkpt><trkpt lat="44.65897832612121" lon="0.8999185314665514"><ele>176.83333333333334</ele><time>2026-05-01T13:13:48Z</time></trkpt><trkpt lat="44.65904349985323" lon="0.8999042584492027"><ele>178.66666666666669</ele><time>2026-05-01T13:13:49Z</time></trkpt><trkpt lat="44.659119075782556" lon="0.8998866034994953"><ele>180.5</ele><time>2026-05-01T13:13:50Z</time></trkpt><trkpt lat="44.65922451220374" lon="0.8998365453437427"><ele>182.33333333333334</ele><time>2026-05-01T13:13:52Z</time></trkpt><trkpt lat="44.65934220549656" lon="0.8998420834946484"><ele>184.16666666666666</ele><time>2026-05-01T13:13:54Z</time></trkpt><trkpt lat="44.659411011377856" lon="0.8998332832099015"><ele>186.0</ele><time>2026-05-01T13:13:55Z</time></trkpt><trkpt lat="44.659502283122826" lon="0.8998557423253928"><ele>188.33333333333334</ele><time>2026-05-01T13:13:57Z</time></trkpt><trkpt lat="44.659576038749435" lon="0.8998675227349515"><ele>190.66666666666669</ele><time>2026-05-01T13:13:58Z</time></trkpt><trkpt lat="44.659648729982536" lon="0.8998650080622332"><ele>193.0</ele><time>2026-05-01T13:13:59Z</time></trkpt><trkpt lat="44.65974859683406" lon="0.8998646773174005"><ele>195.33333333333334</ele><time>2026-05-01T13:14:01Z</time></trkpt><trkpt lat="44.65986911958094" lon="0.8998741773331005"><ele>197.66666666666669</ele><time>2026-05-01T13:14:03Z</time></trkpt><trkpt lat="44.65994147148754" lon="0.8999018666529525"><ele>200.0</ele><time>2026-05-01T13:14:04Z</time></trkpt><trkpt lat="44.660033592840286" lon="0.8999068005722267"><ele>200.00000000000003</ele><time>2026-05-01T13:14:05Z</time></trkpt><trkpt lat="44.660116501649426" lon="0.899897774354705"><ele>200.0</ele><time>2026-05-01T13:14:06Z</time></trkpt><trkpt lat="44.660198099721114" lon="0.899873707520144"><ele>200.0</ele><time>2026-05-01T13:14:07Z</time></trkpt><trkpt lat="44.66027373847895" lon="0.8998577603885801"><ele>200.0</ele><time>2026-05-01T13:14:08Z</time></trkpt><trkpt lat="44.66034559352593" lon="0.8998549549300938"><ele>200.00000000000003</ele><time>2026-05-01T13:14:09Z</time></trkpt><trkpt lat="44.660451843773664" lon="0.8999358702595941"><ele>200.0</ele><time>2026-05-01T13:14:11Z</time></trkpt><trkpt lat="44.66053748481647" lon="0.8999610474465736"><ele>200.83333333333334</ele><time>2026-05-01T13:14:12Z</time></trkpt><trkpt lat="44.66061268299663" lon="0.8999748552179813"><ele>201.66666666666669</ele><time>2026-05-01T13:14:13Z</time></trkpt><trkpt lat="44.66068650973792" lon="0.8999871472678722"><ele>202.5</ele><time>2026-05-01T13:14:14Z</time></trkpt><trkpt lat="44.66074954977933" lon="0.899990182105556"><ele>203.33333333333331</ele><time>2026-05-01T13:14:15Z</time></trkpt><trkpt lat="44.660850704238776" lon="0.8999915374867365"><ele>204.16666666666666</ele><time>2026-05-01T13:14:16Z</time></trkpt><trkpt lat="44.66092631916016" lon="0.9000062300439807"><ele>205.0</ele><time>2026-05-01T13:14:17Z</time></trkpt><trkpt lat="44.661025559548975" lon="0.900019367369694"><ele>204.99999999999997</ele><time>2026-05-01T13:14:18Z</time></trkpt><trkpt lat="44.66111116131648" lon="0.9000545274940993"><ele>205.0</ele><time>2026-05-01T13:14:19Z</time></trkpt><trkpt lat="44.661179438993344" lon="0.9000925145036073"><ele>205.0</ele><time>2026-05-01T13:14:20Z</time></trkpt><trkpt lat="44.66125847517241" lon="0.9001185348385002"><ele>205.0</ele><time>2026-05-01T13:14:21Z</time></trkpt><trkpt lat="44.66134646829252" lon="0.900117067914193"><ele>204.99999999999997</ele><time>2026-05-01T13:14:22Z</time></trkpt><trkpt lat="44.661426770795885" lon="0.9001409458690434"><ele>205.0</ele><time>2026-05-01T13:14:23Z</time></trkpt><trkpt lat="44.66150835755905" lon="0.9001700744537927"><ele>204.99999999999997</ele><time>2026-05-01T13:14:24Z</time></trkpt><trkpt lat="44.66160684427687" lon="0.9002009928108291"><ele>205.0</ele><time>2026-05-01T13:14:25Z</time></trkpt><trkpt lat="44.66167305512874" lon="0.9002108189109927"><ele>205.0</ele><time>2026-05-01T13:14:26Z</time></trkpt><trkpt lat="44.661784520836626" lon="0.9002774472497884"><ele>205.0</ele><time>2026-05-01T13:14:28Z</time></trkpt><trkpt lat="44.66182500742925" lon="0.9003510328353685"><ele>204.99999999999997</ele><time>2026-05-01T13:14:31Z</time></trkpt><trkpt lat="44.66188897413015" lon="0.9003731801075076"><ele>205.0</ele><time>2026-05-01T13:14:35Z</time></trkpt><trkpt lat="44.66196074937561" lon="0.9004094071427767"><ele>205.0</ele><time>2026-05-01T13:14:37Z</time></trkpt><trkpt lat="44.66201314277065" lon="0.9004683336135894"><ele>205.0</ele><time>2026-05-01T13:14:39Z</time></trkpt><trkpt lat="44.662091775405685" lon="0.900524844592426"><ele>205.0</ele><time>2026-05-01T13:14:41Z</time></trkpt><trkpt lat="44.66222212736107" lon="0.9005866348926838"><ele>205.0</ele><time>2026-05-01T13:14:43Z</time></trkpt><trkpt lat="44.66235134913111" lon="0.9005761202433205"><ele>205.0</ele><time>2026-05-01T13:14:45Z</time></trkpt><trkpt lat="44.66242187426814" lon="0.9006003075324819"><ele>204.99999999999997</ele><time>2026-05-01T13:14:46Z</time></trkpt><trkpt lat="44.66250632737335" lon="0.9006140177340332"><ele>205.0</ele><time>2026-05-01T13:14:47Z</time></trkpt><trkpt lat="44.66257957757846" lon="0.9005962425070082"><ele>205.0</ele><time>2026-05-01T13:14:48Z</time></trkpt><trkpt lat="44.6626676291091" lon="0.9006170120470876"><ele>205.0</ele><time>2026-05-01T13:14:49Z</time></trkpt><trkpt lat="44.662738197715846" lon="0.9006142179215406"><ele>204.99999999999997</ele><time>2026-05-01T13:14:51Z</time></trkpt><trkpt lat="44.66285026462432" lon="0.900658744421603"><ele>205.0</ele><time>2026-05-01T13:14:52Z</time></trkpt><trkpt lat="44.66293283611508" lon="0.9006757571232589"><ele>205.66666666666666</ele><time>2026-05-01T13:14:53Z</time></trkpt><trkpt lat="44.663010400501236" lon="0.9006315554632836"><ele>206.33333333333331</ele><time>2026-05-01T13:14:55Z</time></trkpt><trkpt lat="44.66310994142511" lon="0.9006284423934388"><ele>207.0</ele><time>2026-05-01T13:14:56Z</time></trkpt><trkpt lat="44.66318539178257" lon="0.9006278903628896"><ele>207.66666666666669</ele><time>2026-05-01T13:14:57Z</time></trkpt><trkpt lat="44.66325365904919" lon="0.9006224365566697"><ele>208.33333333333334</ele><time>2026-05-01T13:14:58Z</time></trkpt><trkpt lat="44.66331661017224" lon="0.9006094613606623"><ele>209.0</ele><time>2026-05-01T13:14:59Z</time></trkpt><trkpt lat="44.663396632098554" lon="0.9005781555118549"><ele>209.00000000000003</ele><time>2026-05-01T13:15:00Z</time></trkpt><trkpt lat="44.66347973241561" lon="0.9005862466091028"><ele>209.0</ele><time>2026-05-01T13:15:01Z</time></trkpt><trkpt lat="44.66358747313635" lon="0.9005511418904254"><ele>209.0</ele><time>2026-05-01T13:15:03Z</time></trkpt><trkpt lat="44.663654491765904" lon="0.9005204480140563"><ele>209.0</ele><time>2026-05-01T13:15:04Z</time></trkpt><trkpt lat="44.66372332184119" lon="0.9004584224147812"><ele>209.00000000000003</ele><time>2026-05-01T13:15:06Z</time></trkpt><trkpt lat="44.66381872622472" lon="0.9004513382825429"><ele>209.0</ele><time>2026-05-01T13:15:07Z</time></trkpt><trkpt lat="44.663949306637434" lon="0.9004508624333698"><ele>209.0</ele><time>2026-05-01T13:15:08Z</time></trkpt><trkpt lat="44.6640756104532" lon="0.9004586087713479"><ele>209.0</ele><time>2026-05-01T13:15:09Z</time></trkpt><trkpt lat="44.66417583727393" lon="0.9004631820785198"><ele>209.0</ele><time>2026-05-01T13:15:10Z</time></trkpt><trkpt lat="44.66427566007068" lon="0.9004140967452049"><ele>209.0</ele><time>2026-05-01T13:15:11Z</time></trkpt><trkpt lat="44.664356192053695" lon="0.9003798326967862"><ele>209.0</ele><time>2026-05-01T13:15:12Z</time></trkpt><trkpt lat="44.664415296285576" lon="0.9003485114399968"><ele>208.66666666666669</ele><time>2026-05-01T13:15:13Z</time></trkpt><trkpt lat="44.66449052278946" lon="0.9003208601243168"><ele>208.33333333333334</ele><time>2026-05-01T13:15:14Z</time></trkpt><trkpt lat="44.664574377029446" lon="0.9002849967845772"><ele>208.0</ele><time>2026-05-01T13:15:15Z</time></trkpt><trkpt lat="44.664661879198746" lon="0.9002358185837467"><ele>207.66666666666669</ele><time>2026-05-01T13:15:16Z</time></trkpt><trkpt lat="44.664741321915166" lon="0.9002084034657939"><ele>207.33333333333334</ele><time>2026-05-01T13:15:17Z</time></trkpt><trkpt lat="44.66481506703603" lon="0.9001687729290246"><ele>207.0</ele><time>2026-05-01T13:15:18Z</time></trkpt><trkpt lat="44.66488956765255" lon="0.9001224584538544"><ele>207.0</ele><time>2026-05-01T13:15:19Z</time></trkpt><trkpt lat="44.664976364648986" lon="0.9000913812703779"><ele>207.0</ele><time>2026-05-01T13:15:20Z</time></trkpt><trkpt lat="44.665062454301975" lon="0.9000758534215779"><ele>207.0</ele><time>2026-05-01T13:15:21Z</time></trkpt><trkpt lat="44.66515050023512" lon="0.9000519761152497"><ele>207.0</ele><time>2026-05-01T13:15:22Z</time></trkpt><trkpt lat="44.66526211103515" lon="0.9000131218779849"><ele>207.0</ele><time>2026-05-01T13:15:23Z</time></trkpt><trkpt lat="44.6653694260103" lon="0.8999738958397975"><ele>207.5</ele><time>2026-05-01T13:15:24Z</time></trkpt><trkpt lat="44.66546748471184" lon="0.8999397369280652"><ele>208.0</ele><time>2026-05-01T13:15:25Z</time></trkpt><trkpt lat="44.66554819063016" lon="0.8999146635266053"><ele>208.5</ele><time>2026-05-01T13:15:26Z</time></trkpt><trkpt lat="44.66561142105294" lon="0.8998788969294567"><ele>209.0</ele><time>2026-05-01T13:15:27Z</time></trkpt><trkpt lat="44.66567611224876" lon="0.8998505061510687"><ele>209.5</ele><time>2026-05-01T13:15:28Z</time></trkpt><trkpt lat="44.66575040506067" lon="0.8998102396733398"><ele>210.0</ele><time>2026-05-01T13:15:29Z</time></trkpt><trkpt lat="44.66581625551358" lon="0.8997820558657786"><ele>210.0</ele><time>2026-05-01T13:15:30Z</time></trkpt><trkpt lat="44.6659098820401" lon="0.8997301088515575"><ele>210.0</ele><time>2026-05-01T13:15:32Z</time></trkpt><trkpt lat="44.66602643036764" lon="0.899690599871133"><ele>210.0</ele><time>2026-05-01T13:15:34Z</time></trkpt><trkpt lat="44.66612723939188" lon="0.8996462327667859"><ele>210.0</ele><time>2026-05-01T13:15:35Z</time></trkpt><trkpt lat="44.66620236065765" lon="0.8995607044421771"><ele>210.0</ele><time>2026-05-01T13:15:36Z</time></trkpt><trkpt lat="44.66628324601459" lon="0.8994985017522366"><ele>209.6</ele><time>2026-05-01T13:15:37Z</time></trkpt><trkpt lat="44.66637745888103" lon="0.8994372258096281"><ele>209.2</ele><time>2026-05-01T13:15:38Z</time></trkpt><trkpt lat="44.66646751209079" lon="0.8993894551713403"><ele>208.8</ele><time>2026-05-01T13:15:39Z</time></trkpt><trkpt lat="44.66653914116184" lon="0.899362035447794"><ele>208.4</ele><time>2026-05-01T13:15:40Z</time></trkpt><trkpt lat="44.666632353113705" lon="0.8993346036595441"><ele>208.0</ele><time>2026-05-01T13:15:41Z</time></trkpt><trkpt lat="44.666717101839964" lon="0.8992805153902946"><ele>208.33333333333331</ele><time>2026-05-01T13:15:42Z</time></trkpt><trkpt lat="44.66680328264616" lon="0.8992134187722428"><ele>208.66666666666666</ele><time>2026-05-01T13:15:43Z</time></trkpt><trkpt lat="44.66687320904684" lon="0.8991708711523176"><ele>209.0</ele><time>2026-05-01T13:15:44Z</time></trkpt><trkpt lat="44.66695702144131" lon="0.8991245361383242"><ele>209.33333333333331</ele><time>2026-05-01T13:15:45Z</time></trkpt><trkpt lat="44.66703936475885" lon="0.8990781920833889"><ele>209.66666666666666</ele><time>2026-05-01T13:15:46Z</time></trkpt><trkpt lat="44.66709412518022" lon="0.8990302552725586"><ele>210.0</ele><time>2026-05-01T13:15:47Z</time></trkpt><trkpt lat="44.6671633122922" lon="0.8990073569171333"><ele>210.0</ele><time>2026-05-01T13:15:48Z</time></trkpt><trkpt lat="44.66724968365816" lon="0.8989724503831665"><ele>210.0</ele><time>2026-05-01T13:15:49Z</time></trkpt><trkpt lat="44.6673206518712" lon="0.8989444637862126"><ele>210.0</ele><time>2026-05-01T13:15:50Z</time></trkpt><trkpt lat="44.66739156055914" lon="0.8989242022237727"><ele>210.0</ele><time>2026-05-01T13:15:51Z</time></trkpt><trkpt lat="44.66749709152707" lon="0.8988719639651706"><ele>210.0</ele><time>2026-05-01T13:15:53Z</time></trkpt><trkpt lat="44.667640850131264" lon="0.8988190489433122"><ele>210.0</ele><time>2026-05-01T13:15:55Z</time></trkpt><trkpt lat="44.66771660097819" lon="0.898785447204375"><ele>210.0</ele><time>2026-05-01T13:15:56Z</time></trkpt><trkpt lat="44.667813547107095" lon="0.898733658736127"><ele>210.0</ele><time>2026-05-01T13:15:58Z</time></trkpt><trkpt lat="44.66793869835327" lon="0.8987847439672269"><ele>210.0</ele><time>2026-05-01T13:16:00Z</time></trkpt><trkpt lat="44.66802858014647" lon="0.8988286748559756"><ele>210.0</ele><time>2026-05-01T13:16:01Z</time></trkpt><trkpt lat="44.66810434465252" lon="0.8988463827190744"><ele>208.8</ele><time>2026-05-01T13:16:02Z</time></trkpt><trkpt lat="44.66817991405147" lon="0.8988780361067595"><ele>207.6</ele><time>2026-05-01T13:16:03Z</time></trkpt><trkpt lat="44.66827069329268" lon="0.8989065851337509"><ele>206.39999999999998</ele><time>2026-05-01T13:16:04Z</time></trkpt><trkpt lat="44.66836608516308" lon="0.8989415917086695"><ele>205.2</ele><time>2026-05-01T13:16:05Z</time></trkpt><trkpt lat="44.66845711362387" lon="0.8989742406872652"><ele>204.0</ele><time>2026-05-01T13:16:06Z</time></trkpt><trkpt lat="44.668550868358146" lon="0.8990054817342555"><ele>202.66666666666666</ele><time>2026-05-01T13:16:07Z</time></trkpt><trkpt lat="44.66862541771314" lon="0.8990242981026706"><ele>201.33333333333331</ele><time>2026-05-01T13:16:08Z</time></trkpt><trkpt lat="44.66870118433514" lon="0.8990446560650237"><ele>200.0</ele><time>2026-05-01T13:16:09Z</time></trkpt><trkpt lat="44.668768168706904" lon="0.8990602714659828"><ele>198.66666666666666</ele><time>2026-05-01T13:16:10Z</time></trkpt><trkpt lat="44.66886955193986" lon="0.8991053279772011"><ele>197.33333333333331</ele><time>2026-05-01T13:16:12Z</time></trkpt><trkpt lat="44.66897644210626" lon="0.8991224101519717"><ele>196.0</ele><time>2026-05-01T13:16:14Z</time></trkpt><trkpt lat="44.669094644518665" lon="0.8990961360125953"><ele>196.0</ele><time>2026-05-01T13:16:16Z</time></trkpt><trkpt lat="44.66919784894796" lon="0.8990389637217465"><ele>196.0</ele><time>2026-05-01T13:16:18Z</time></trkpt><trkpt lat="44.66926667598332" lon="0.898966384667366"><ele>196.0</ele><time>2026-05-01T13:16:20Z</time></trkpt><trkpt lat="44.66934766000889" lon="0.898887866059429"><ele>196.0</ele><time>2026-05-01T13:16:21Z</time></trkpt><trkpt lat="44.66941917947709" lon="0.8987993489739929"><ele>196.0</ele><time>2026-05-01T13:16:23Z</time></trkpt><trkpt lat="44.669494123421465" lon="0.8986412034263629"><ele>195.16666666666666</ele><time>2026-05-01T13:16:25Z</time></trkpt><trkpt lat="44.6695321779965" lon="0.8985515464346209"><ele>194.33333333333331</ele><time>2026-05-01T13:16:26Z</time></trkpt><trkpt lat="44.66958305293472" lon="0.8984368479976975"><ele>193.5</ele><time>2026-05-01T13:16:27Z</time></trkpt><trkpt lat="44.669628279792576" lon="0.898343160220886"><ele>192.66666666666666</ele><time>2026-05-01T13:16:28Z</time></trkpt><trkpt lat="44.669674165049834" lon="0.8982420646064292"><ele>191.83333333333331</ele><time>2026-05-01T13:16:29Z</time></trkpt><trkpt lat="44.669730826074776" lon="0.8981259649761123"><ele>191.0</ele><time>2026-05-01T13:16:30Z</time></trkpt><trkpt lat="44.66976686136474" lon="0.8980448251715759"><ele>190.66666666666666</ele><time>2026-05-01T13:16:31Z</time></trkpt><trkpt lat="44.66979527527857" lon="0.8979630358736262"><ele>190.33333333333331</ele><time>2026-05-01T13:16:32Z</time></trkpt><trkpt lat="44.669830886215124" lon="0.8978884366709684"><ele>190.0</ele><time>2026-05-01T13:16:33Z</time></trkpt><trkpt lat="44.6698625119792" lon="0.8978038836157808"><ele>189.66666666666666</ele><time>2026-05-01T13:16:34Z</time></trkpt><trkpt lat="44.66992003208364" lon="0.8976412785944449"><ele>189.33333333333334</ele><time>2026-05-01T13:16:36Z</time></trkpt><trkpt lat="44.669945682193415" lon="0.8975542286350446"><ele>189.0</ele><time>2026-05-01T13:16:37Z</time></trkpt><trkpt lat="44.669991191745666" lon="0.897464396654848"><ele>189.66666666666666</ele><time>2026-05-01T13:16:38Z</time></trkpt><trkpt lat="44.67003348907323" lon="0.8973528530549888"><ele>190.33333333333331</ele><time>2026-05-01T13:16:39Z</time></trkpt><trkpt lat="44.670066048452405" lon="0.8972560309438433"><ele>191.0</ele><time>2026-05-01T13:16:40Z</time></trkpt><trkpt lat="44.67009278154929" lon="0.8971741855507912"><ele>191.66666666666666</ele><time>2026-05-01T13:16:41Z</time></trkpt><trkpt lat="44.67015291430625" lon="0.8970640963211154"><ele>192.33333333333331</ele><time>2026-05-01T13:16:42Z</time></trkpt><trkpt lat="44.67018268413751" lon="0.8969682988843125"><ele>193.0</ele><time>2026-05-01T13:16:43Z</time></trkpt><trkpt lat="44.67022485553395" lon="0.8968819156542969"><ele>191.60000000000002</ele><time>2026-05-01T13:16:44Z</time></trkpt><trkpt lat="44.670283545386646" lon="0.8967378221219338"><ele>190.20000000000002</ele><time>2026-05-01T13:16:46Z</time></trkpt><trkpt lat="44.67034954243272" lon="0.8966676163799153"><ele>188.8</ele><time>2026-05-01T13:16:48Z</time></trkpt><trkpt lat="44.670441385150156" lon="0.8965814198267389"><ele>187.4</ele><time>2026-05-01T13:16:50Z</time></trkpt><trkpt lat="44.6705437355185" lon="0.8964824566278656"><ele>186.0</ele><time>2026-05-01T13:16:52Z</time></trkpt><trkpt lat="44.67059333876646" lon="0.8964173780231245"><ele>186.0</ele><time>2026-05-01T13:16:53Z</time></trkpt><trkpt lat="44.67063620689837" lon="0.896342958811681"><ele>186.0</ele><time>2026-05-01T13:16:54Z</time></trkpt><trkpt lat="44.67069956955964" lon="0.89623880688223"><ele>186.0</ele><time>2026-05-01T13:16:57Z</time></trkpt><trkpt lat="44.670761319992316" lon="0.8961805442770138"><ele>186.0</ele><time>2026-05-01T13:16:58Z</time></trkpt><trkpt lat="44.67083047740639" lon="0.8961189202587976"><ele>186.0</ele><time>2026-05-01T13:16:59Z</time></trkpt><trkpt lat="44.67091403829212" lon="0.8960594244166794"><ele>186.0</ele><time>2026-05-01T13:17:00Z</time></trkpt><trkpt lat="44.67096817355249" lon="0.8959957395788363"><ele>186.0</ele><time>2026-05-01T13:17:01Z</time></trkpt><trkpt lat="44.67102977345115" lon="0.8959368665371139"><ele>186.0</ele><time>2026-05-01T13:17:02Z</time></trkpt><trkpt lat="44.67108867847964" lon="0.8958603285990401"><ele>186.0</ele><time>2026-05-01T13:17:03Z</time></trkpt><trkpt lat="44.67118433823821" lon="0.8957920663847978"><ele>186.0</ele><time>2026-05-01T13:17:05Z</time></trkpt><trkpt lat="44.67122457698622" lon="0.8957198900212013"><ele>186.0</ele><time>2026-05-01T13:17:06Z</time></trkpt><trkpt lat="44.67129378720897" lon="0.8956220504189388"><ele>186.0</ele><time>2026-05-01T13:17:07Z</time></trkpt><trkpt lat="44.67134976408229" lon="0.8955268593310218"><ele>185.4</ele><time>2026-05-01T13:17:08Z</time></trkpt><trkpt lat="44.67142800833496" lon="0.8954455884651178"><ele>184.8</ele><time>2026-05-01T13:17:09Z</time></trkpt><trkpt lat="44.67150662926602" lon="0.8953493073022982"><ele>184.20000000000002</ele><time>2026-05-01T13:17:10Z</time></trkpt><trkpt lat="44.671550495987844" lon="0.8952639057575122"><ele>183.60000000000002</ele><time>2026-05-01T13:17:11Z</time></trkpt><trkpt lat="44.67162164117329" lon="0.8951646992447411"><ele>183.0</ele><time>2026-05-01T13:17:12Z</time></trkpt><trkpt lat="44.67168633381481" lon="0.8950839827459837"><ele>183.0</ele><time>2026-05-01T13:17:13Z</time></trkpt><trkpt lat="44.67174365009345" lon="0.8950011561291606"><ele>183.0</ele><time>2026-05-01T13:17:14Z</time></trkpt><trkpt lat="44.671790262870324" lon="0.8949303640319153"><ele>183.0</ele><time>2026-05-01T13:17:15Z</time></trkpt><trkpt lat="44.671877078523565" lon="0.8948256671029345"><ele>183.0</ele><time>2026-05-01T13:17:17Z</time></trkpt><trkpt lat="44.67195148862963" lon="0.8947490686384301"><ele>183.0</ele><time>2026-05-01T13:17:18Z</time></trkpt><trkpt lat="44.67200482562143" lon="0.8946525192369424"><ele>183.0</ele><time>2026-05-01T13:17:19Z</time></trkpt><trkpt lat="44.67204905414032" lon="0.894528534235426"><ele>181.60000000000002</ele><time>2026-05-01T13:17:20Z</time></trkpt><trkpt lat="44.672089661361476" lon="0.8943990457660139"><ele>180.20000000000002</ele><time>2026-05-01T13:17:21Z</time></trkpt><trkpt lat="44.672124546523406" lon="0.8942660031751107"><ele>178.8</ele><time>2026-05-01T13:17:22Z</time></trkpt><trkpt lat="44.67214798817937" lon="0.8941248105691874"><ele>177.4</ele><time>2026-05-01T13:17:23Z</time></trkpt><trkpt lat="44.672194031793445" lon="0.8939873698995167"><ele>176.0</ele><time>2026-05-01T13:17:24Z</time></trkpt><trkpt lat="44.672242743631585" lon="0.893874994336767"><ele>175.5</ele><time>2026-05-01T13:17:25Z</time></trkpt><trkpt lat="44.67228774947342" lon="0.893765690688506"><ele>175.0</ele><time>2026-05-01T13:17:26Z</time></trkpt><trkpt lat="44.672332801656246" lon="0.8936581364672738"><ele>174.5</ele><time>2026-05-01T13:17:27Z</time></trkpt><trkpt lat="44.672361002824466" lon="0.893569679020165"><ele>174.0</ele><time>2026-05-01T13:17:28Z</time></trkpt><trkpt lat="44.67238803963247" lon="0.8934764575019628"><ele>173.5</ele><time>2026-05-01T13:17:29Z</time></trkpt><trkpt lat="44.67244271034221" lon="0.8933773958985493"><ele>173.0</ele><time>2026-05-01T13:17:31Z</time></trkpt><trkpt lat="44.6724810334358" lon="0.8932572366983058"><ele>172.66666666666666</ele><time>2026-05-01T13:17:35Z</time></trkpt><trkpt lat="44.672515892442746" lon="0.8931674435419064"><ele>172.33333333333331</ele><time>2026-05-01T13:17:36Z</time></trkpt><trkpt lat="44.672546923059784" lon="0.8930754869492795"><ele>172.0</ele><time>2026-05-01T13:17:38Z</time></trkpt><trkpt lat="44.67259881311736" lon="0.8929644433741244"><ele>171.66666666666666</ele><time>2026-05-01T13:17:40Z</time></trkpt><trkpt lat="44.672641891006364" lon="0.8928158586352751"><ele>171.33333333333334</ele><time>2026-05-01T13:17:42Z</time></trkpt><trkpt lat="44.67268082635559" lon="0.8927116506951936"><ele>171.0</ele><time>2026-05-01T13:17:44Z</time></trkpt><trkpt lat="44.67274766092261" lon="0.8926332027310981"><ele>170.7142857142857</ele><time>2026-05-01T13:17:47Z</time></trkpt><trkpt lat="44.67276294589071" lon="0.8925235633263454"><ele>170.42857142857142</ele><time>2026-05-01T13:17:52Z</time></trkpt><trkpt lat="44.672817919449656" lon="0.8924777543587248"><ele>170.14285714285714</ele><time>2026-05-01T13:17:55Z</time></trkpt><trkpt lat="44.672855959505334" lon="0.8923816459342774"><ele>169.85714285714283</ele><time>2026-05-01T13:17:58Z</time></trkpt><trkpt lat="44.672893938260714" lon="0.892305545604877"><ele>169.57142857142856</ele><time>2026-05-01T13:18:01Z</time></trkpt><trkpt lat="44.67293267815465" lon="0.8921966636906387"><ele>169.28571428571428</ele><time>2026-05-01T13:18:04Z</time></trkpt><trkpt lat="44.67299041922185" lon="0.8921396137841159"><ele>169.0</ele><time>2026-05-01T13:18:08Z</time></trkpt><trkpt lat="44.67301534293441" lon="0.8920208757403949"><ele>168.57142857142858</ele><time>2026-05-01T13:18:13Z</time></trkpt><trkpt lat="44.67306933597468" lon="0.8919664210426453"><ele>168.14285714285714</ele><time>2026-05-01T13:18:23Z</time></trkpt><trkpt lat="44.67309333787732" lon="0.8918842884257723"><ele>167.71428571428572</ele><time>2026-05-01T13:18:29Z</time></trkpt><trkpt lat="44.67313240141607" lon="0.891809944285475"><ele>167.28571428571428</ele><time>2026-05-01T13:18:32Z</time></trkpt><trkpt lat="44.67318815522519" lon="0.8917418704813216"><ele>166.85714285714286</ele><time>2026-05-01T13:18:36Z</time></trkpt><trkpt lat="44.67324704463846" lon="0.8917028672782543"><ele>166.42857142857142</ele><time>2026-05-01T13:18:39Z</time></trkpt><trkpt lat="44.6732985702177" lon="0.8916375176418146"><ele>166.0</ele><time>2026-05-01T13:18:42Z</time></trkpt><trkpt lat="44.673346872276475" lon="0.8915525718109073"><ele>165.0</ele><time>2026-05-01T13:18:45Z</time></trkpt><trkpt lat="44.673375373411275" lon="0.8914512730620296"><ele>164.0</ele><time>2026-05-01T13:18:48Z</time></trkpt><trkpt lat="44.67345924316759" lon="0.8913997079800194"><ele>163.0</ele><time>2026-05-01T13:18:51Z</time></trkpt><trkpt lat="44.67349874785722" lon="0.8913167221653214"><ele>162.0</ele><time>2026-05-01T13:18:54Z</time></trkpt><trkpt lat="44.67356469216143" lon="0.8912986229325638"><ele>161.0</ele><time>2026-05-01T13:21:27Z</time></trkpt><trkpt lat="44.67362650939545" lon="0.8912712747742194"><ele>160.0</ele><time>2026-05-01T13:23:06Z</time></trkpt><trkpt lat="44.67370586087312" lon="0.891261120071142"><ele>158.0</ele><time>2026-05-01T13:23:08Z</time></trkpt><trkpt lat="44.67383624885598" lon="0.8911920246968127"><ele>156.0</ele><time>2026-05-01T13:23:10Z</time></trkpt><trkpt lat="44.67389595592759" lon="0.8911450712204554"><ele>154.0</ele><time>2026-05-01T13:23:11Z</time></trkpt><trkpt lat="44.67397527282163" lon="0.8910568622844446"><ele>152.0</ele><time>2026-05-01T13:23:13Z</time></trkpt><trkpt lat="44.6740345516813" lon="0.8910199701682882"><ele>150.0</ele><time>2026-05-01T13:23:17Z</time></trkpt><trkpt lat="44.674087070274894" lon="0.8910933700364657"><ele>148.0</ele><time>2026-05-01T13:23:19Z</time></trkpt><trkpt lat="44.674154466987005" lon="0.8911554398649503"><ele>148.0</ele><time>2026-05-01T13:23:21Z</time></trkpt><trkpt lat="44.67421426184577" lon="0.8912620095681347"><ele>148.0</ele><time>2026-05-01T13:23:24Z</time></trkpt><trkpt lat="44.67424665154474" lon="0.891365506039136"><ele>148.0</ele><time>2026-05-01T13:23:25Z</time></trkpt><trkpt lat="44.67429663045435" lon="0.8914891447433781"><ele>148.0</ele><time>2026-05-01T13:23:26Z</time></trkpt><trkpt lat="44.6743486482369" lon="0.8915902022934276"><ele>148.0</ele><time>2026-05-01T13:23:27Z</time></trkpt><trkpt lat="44.674412791078716" lon="0.89168783010016"><ele>147.83333333333334</ele><time>2026-05-01T13:23:28Z</time></trkpt><trkpt lat="44.67447976565857" lon="0.891791101910004"><ele>147.66666666666669</ele><time>2026-05-01T13:23:29Z</time></trkpt><trkpt lat="44.674536195690095" lon="0.8918690829518386"><ele>147.5</ele><time>2026-05-01T13:23:30Z</time></trkpt><trkpt lat="44.67459276659684" lon="0.8919271678156132"><ele>147.33333333333334</ele><time>2026-05-01T13:23:31Z</time></trkpt><trkpt lat="44.6746528124951" lon="0.8919834640814288"><ele>147.16666666666666</ele><time>2026-05-01T13:23:32Z</time></trkpt><trkpt lat="44.67473249510023" lon="0.8920173798369097"><ele>147.0</ele><time>2026-05-01T13:23:33Z</time></trkpt><trkpt lat="44.67481174722229" lon="0.8920513281229467"><ele>147.0</ele><time>2026-05-01T13:23:34Z</time></trkpt><trkpt lat="44.6749206665203" lon="0.8920819139251746"><ele>147.0</ele><time>2026-05-01T13:23:36Z</time></trkpt><trkpt lat="44.67500033801533" lon="0.892110790661349"><ele>147.0</ele><time>2026-05-01T13:23:37Z</time></trkpt><trkpt lat="44.67507025545457" lon="0.8921226321525009"><ele>147.0</ele><time>2026-05-01T13:23:38Z</time></trkpt><trkpt lat="44.675149779285555" lon="0.8921181862155847"><ele>147.0</ele><time>2026-05-01T13:23:39Z</time></trkpt><trkpt lat="44.67524900183534" lon="0.8921151946278277"><ele>147.0</ele><time>2026-05-01T13:23:40Z</time></trkpt><trkpt lat="44.67534724107848" lon="0.8921242359341544"><ele>148.0</ele><time>2026-05-01T13:23:41Z</time></trkpt><trkpt lat="44.67544971658263" lon="0.8921624666245968"><ele>149.0</ele><time>2026-05-01T13:23:42Z</time></trkpt><trkpt lat="44.67555325630145" lon="0.8921742423629734"><ele>150.0</ele><time>2026-05-01T13:23:43Z</time></trkpt><trkpt lat="44.675650095532056" lon="0.8921904672858243"><ele>151.0</ele><time>2026-05-01T13:23:44Z</time></trkpt><trkpt lat="44.67575375529817" lon="0.8922195616841295"><ele>152.0</ele><time>2026-05-01T13:23:45Z</time></trkpt><trkpt lat="44.67585612832772" lon="0.8922632989978968"><ele>152.0</ele><time>2026-05-01T13:23:46Z</time></trkpt><trkpt lat="44.675941927259935" lon="0.8923041060213359"><ele>152.0</ele><time>2026-05-01T13:23:47Z</time></trkpt><trkpt lat="44.676006844928025" lon="0.8923516046506885"><ele>152.0</ele><time>2026-05-01T13:23:48Z</time></trkpt><trkpt lat="44.67609381632228" lon="0.8923981519173559"><ele>152.0</ele><time>2026-05-01T13:23:50Z</time></trkpt><trkpt lat="44.676140152447985" lon="0.8924607896841822"><ele>152.0</ele><time>2026-05-01T13:23:52Z</time></trkpt><trkpt lat="44.67622803714245" lon="0.8925223300397077"><ele>152.0</ele><time>2026-05-01T13:23:54Z</time></trkpt><trkpt lat="44.676245926053326" lon="0.8926979232792189"><ele>154.6</ele><time>2026-05-01T13:23:55Z</time></trkpt><trkpt lat="44.67627923564002" lon="0.8927965425284738"><ele>157.2</ele><time>2026-05-01T13:23:56Z</time></trkpt><trkpt lat="44.67634346718447" lon="0.8929164053532725"><ele>159.8</ele><time>2026-05-01T13:23:57Z</time></trkpt><trkpt lat="44.67640881596178" lon="0.893033508631626"><ele>162.4</ele><time>2026-05-01T13:23:58Z</time></trkpt><trkpt lat="44.67647332030782" lon="0.8931607286509402"><ele>165.0</ele><time>2026-05-01T13:23:59Z</time></trkpt><trkpt lat="44.67653695664411" lon="0.8932871886876423"><ele>165.0</ele><time>2026-05-01T13:24:00Z</time></trkpt><trkpt lat="44.67661178708117" lon="0.893420075128613"><ele>165.0</ele><time>2026-05-01T13:24:01Z</time></trkpt><trkpt lat="44.676690056399714" lon="0.8935552111840953"><ele>165.0</ele><time>2026-05-01T13:24:02Z</time></trkpt><trkpt lat="44.67676589700636" lon="0.8936828754096617"><ele>165.0</ele><time>2026-05-01T13:24:03Z</time></trkpt><trkpt lat="44.67684583029894" lon="0.89381297655457"><ele>165.75</ele><time>2026-05-01T13:24:04Z</time></trkpt><trkpt lat="44.676921011726606" lon="0.8939453308479032"><ele>166.5</ele><time>2026-05-01T13:24:05Z</time></trkpt><trkpt lat="44.676995995503376" lon="0.8940664416759032"><ele>167.25</ele><time>2026-05-01T13:24:06Z</time></trkpt><trkpt lat="44.67707787444086" lon="0.8941839514449399"><ele>168.0</ele><time>2026-05-01T13:24:07Z</time></trkpt><trkpt lat="44.677157623587085" lon="0.8942851537368393"><ele>168.0</ele><time>2026-05-01T13:24:08Z</time></trkpt><trkpt lat="44.67723207294641" lon="0.8943660107287358"><ele>168.0</ele><time>2026-05-01T13:24:09Z</time></trkpt><trkpt lat="44.67730379655936" lon="0.8944638180133244"><ele>168.0</ele><time>2026-05-01T13:24:10Z</time></trkpt><trkpt lat="44.67736653191201" lon="0.8945798879240346"><ele>168.0</ele><time>2026-05-01T13:24:11Z</time></trkpt><trkpt lat="44.677415186354416" lon="0.8947009908447878"><ele>168.0</ele><time>2026-05-01T13:24:12Z</time></trkpt><trkpt lat="44.677471566135154" lon="0.8948340149487053"><ele>168.0</ele><time>2026-05-01T13:24:13Z</time></trkpt><trkpt lat="44.677537548968395" lon="0.8949741754765264"><ele>168.0</ele><time>2026-05-01T13:24:14Z</time></trkpt><trkpt lat="44.677594371920364" lon="0.8951232769557955"><ele>168.0</ele><time>2026-05-01T13:24:15Z</time></trkpt><trkpt lat="44.677636652985015" lon="0.8952856609113934"><ele>168.0</ele><time>2026-05-01T13:24:16Z</time></trkpt><trkpt lat="44.67769453716541" lon="0.8954231439074168"><ele>168.25</ele><time>2026-05-01T13:24:17Z</time></trkpt><trkpt lat="44.67773199349763" lon="0.8955770710495805"><ele>168.5</ele><time>2026-05-01T13:24:18Z</time></trkpt><trkpt lat="44.677786971941444" lon="0.8957286748386394"><ele>168.75</ele><time>2026-05-01T13:24:19Z</time></trkpt><trkpt lat="44.67783645104744" lon="0.8958863877249112"><ele>169.0</ele><time>2026-05-01T13:24:20Z</time></trkpt><trkpt lat="44.677882520493405" lon="0.8960505002592135"><ele>169.0</ele><time>2026-05-01T13:24:21Z</time></trkpt><trkpt lat="44.67792617644065" lon="0.8962103299438643"><ele>169.0</ele><time>2026-05-01T13:24:22Z</time></trkpt><trkpt lat="44.677956208187" lon="0.8963788363361224"><ele>169.0</ele><time>2026-05-01T13:24:23Z</time></trkpt><trkpt lat="44.67798065711383" lon="0.8965377984152891"><ele>169.0</ele><time>2026-05-01T13:24:24Z</time></trkpt><trkpt lat="44.677988688832954" lon="0.8966855194894321"><ele>167.6</ele><time>2026-05-01T13:24:25Z</time></trkpt><trkpt lat="44.6779898387923" lon="0.8968366183106425"><ele>166.2</ele><time>2026-05-01T13:24:26Z</time></trkpt><trkpt lat="44.677984118187126" lon="0.8969816619674257"><ele>164.79999999999998</ele><time>2026-05-01T13:24:27Z</time></trkpt><trkpt lat="44.677950640413" lon="0.8971195036997283"><ele>163.39999999999998</ele><time>2026-05-01T13:24:28Z</time></trkpt><trkpt lat="44.67790646307843" lon="0.8972463865967334"><ele>162.0</ele><time>2026-05-01T13:24:29Z</time></trkpt><trkpt lat="44.67785818294415" lon="0.8973885984236941"><ele>159.0</ele><time>2026-05-01T13:24:30Z</time></trkpt><trkpt lat="44.677748776230075" lon="0.8974718372304783"><ele>156.0</ele><time>2026-05-01T13:24:31Z</time></trkpt><trkpt lat="44.67765036822927" lon="0.8975631925401284"><ele>153.0</ele><time>2026-05-01T13:24:32Z</time></trkpt><trkpt lat="44.6775472448194" lon="0.8976505851853714"><ele>150.0</ele><time>2026-05-01T13:24:33Z</time></trkpt><trkpt lat="44.677440080303576" lon="0.8977389800637371"><ele>149.75</ele><time>2026-05-01T13:24:34Z</time></trkpt><trkpt lat="44.67732880037998" lon="0.8978260990598295"><ele>149.5</ele><time>2026-05-01T13:24:35Z</time></trkpt><trkpt lat="44.67722969850081" lon="0.8979037959998432"><ele>149.25</ele><time>2026-05-01T13:24:36Z</time></trkpt><trkpt lat="44.677132869027915" lon="0.8979797113227558"><ele>149.0</ele><time>2026-05-01T13:24:37Z</time></trkpt><trkpt lat="44.67703698952084" lon="0.8980558070402166"><ele>149.0</ele><time>2026-05-01T13:24:38Z</time></trkpt><trkpt lat="44.676945125443304" lon="0.8981312643725435"><ele>149.0</ele><time>2026-05-01T13:24:39Z</time></trkpt><trkpt lat="44.67686307644562" lon="0.8981958313270436"><ele>149.0</ele><time>2026-05-01T13:24:40Z</time></trkpt><trkpt lat="44.676799442475485" lon="0.89823933485048"><ele>149.0</ele><time>2026-05-01T13:24:41Z</time></trkpt><trkpt lat="44.67674438111671" lon="0.8982932845661727"><ele>149.0</ele><time>2026-05-01T13:24:42Z</time></trkpt><trkpt lat="44.676670024044576" lon="0.8983196519756825"><ele>149.0</ele><time>2026-05-01T13:24:44Z</time></trkpt><trkpt lat="44.67671950343014" lon="0.8985458748041618"><ele>150.0</ele><time>2026-05-01T13:24:45Z</time></trkpt><trkpt lat="44.67675227057205" lon="0.898688447255327"><ele>151.0</ele><time>2026-05-01T13:24:46Z</time></trkpt><trkpt lat="44.67679202378349" lon="0.8988433642033994"><ele>152.0</ele><time>2026-05-01T13:24:47Z</time></trkpt><trkpt lat="44.67682484421077" lon="0.8990115742904219"><ele>153.0</ele><time>2026-05-01T13:24:48Z</time></trkpt><trkpt lat="44.6768507348331" lon="0.899173464842251"><ele>153.75</ele><time>2026-05-01T13:24:49Z</time></trkpt><trkpt lat="44.67686481306495" lon="0.899345659778724"><ele>154.5</ele><time>2026-05-01T13:24:50Z</time></trkpt><trkpt lat="44.676848652537636" lon="0.8995255182349935"><ele>155.25</ele><time>2026-05-01T13:24:51Z</time></trkpt><trkpt lat="44.67685872189227" lon="0.8997142054281698"><ele>156.0</ele><time>2026-05-01T13:24:52Z</time></trkpt><trkpt lat="44.6768372748013" lon="0.8999022610291239"><ele>155.75</ele><time>2026-05-01T13:24:53Z</time></trkpt><trkpt lat="44.67684299270118" lon="0.9000976865495501"><ele>155.5</ele><time>2026-05-01T13:24:54Z</time></trkpt><trkpt lat="44.676851184089145" lon="0.900297642632168"><ele>155.25</ele><time>2026-05-01T13:24:55Z</time></trkpt><trkpt lat="44.67686884134009" lon="0.9004948942248532"><ele>155.0</ele><time>2026-05-01T13:24:56Z</time></trkpt><trkpt lat="44.67689827501121" lon="0.9007016601928617"><ele>155.0</ele><time>2026-05-01T13:24:57Z</time></trkpt><trkpt lat="44.676932960821354" lon="0.900891454719527"><ele>155.0</ele><time>2026-05-01T13:24:58Z</time></trkpt><trkpt lat="44.67696698789615" lon="0.901065000782141"><ele>155.0</ele><time>2026-05-01T13:24:59Z</time></trkpt><trkpt lat="44.6769899696495" lon="0.9012414131375818"><ele>155.0</ele><time>2026-05-01T13:25:00Z</time></trkpt><trkpt lat="44.67699072585707" lon="0.9014282172550296"><ele>154.0</ele><time>2026-05-01T13:25:01Z</time></trkpt><trkpt lat="44.67698538468349" lon="0.9016079746737942"><ele>153.0</ele><time>2026-05-01T13:25:02Z</time></trkpt><trkpt lat="44.6769810072006" lon="0.901795652322731"><ele>152.0</ele><time>2026-05-01T13:25:03Z</time></trkpt><trkpt lat="44.67699520463047" lon="0.9019887858328589"><ele>151.0</ele><time>2026-05-01T13:25:04Z</time></trkpt><trkpt lat="44.67701666465326" lon="0.9021818757517067"><ele>151.0</ele><time>2026-05-01T13:25:05Z</time></trkpt><trkpt lat="44.677051939612845" lon="0.9023813213556983"><ele>151.0</ele><time>2026-05-01T13:25:06Z</time></trkpt><trkpt lat="44.67708871174445" lon="0.9025589070978616"><ele>151.0</ele><time>2026-05-01T13:25:07Z</time></trkpt><trkpt lat="44.677149270271514" lon="0.9027475721422425"><ele>151.0</ele><time>2026-05-01T13:25:08Z</time></trkpt><trkpt lat="44.677194511643954" lon="0.9029441253195737"><ele>150.75</ele><time>2026-05-01T13:25:09Z</time></trkpt><trkpt lat="44.677222938308084" lon="0.9031327198050033"><ele>150.5</ele><time>2026-05-01T13:25:10Z</time></trkpt><trkpt lat="44.67726935260157" lon="0.9033297275841294"><ele>150.25</ele><time>2026-05-01T13:25:11Z</time></trkpt><trkpt lat="44.677330384058294" lon="0.9035115075676904"><ele>150.0</ele><time>2026-05-01T13:25:12Z</time></trkpt><trkpt lat="44.677388718768924" lon="0.9037052523978785"><ele>150.5</ele><time>2026-05-01T13:25:13Z</time></trkpt><trkpt lat="44.677450653106376" lon="0.9038753871817536"><ele>151.0</ele><time>2026-05-01T13:25:14Z</time></trkpt><trkpt lat="44.677508479832916" lon="0.9040418623592013"><ele>151.5</ele><time>2026-05-01T13:25:15Z</time></trkpt><trkpt lat="44.677539296140374" lon="0.9041989291122743"><ele>152.0</ele><time>2026-05-01T13:25:16Z</time></trkpt><trkpt lat="44.67757599377717" lon="0.9043732390357151"><ele>152.5</ele><time>2026-05-01T13:25:17Z</time></trkpt><trkpt lat="44.67759019250139" lon="0.9045392342367793"><ele>153.0</ele><time>2026-05-01T13:25:18Z</time></trkpt><trkpt lat="44.67758600646385" lon="0.9047174585677168"><ele>153.5</ele><time>2026-05-01T13:25:19Z</time></trkpt><trkpt lat="44.67757499861779" lon="0.9049164347137155"><ele>154.0</ele><time>2026-05-01T13:25:20Z</time></trkpt><trkpt lat="44.67755749762848" lon="0.9051059188500401"><ele>154.25</ele><time>2026-05-01T13:25:21Z</time></trkpt><trkpt lat="44.677537898620585" lon="0.9053118853625096"><ele>154.5</ele><time>2026-05-01T13:25:22Z</time></trkpt><trkpt lat="44.677533777948405" lon="0.9055177469493064"><ele>154.75</ele><time>2026-05-01T13:25:23Z</time></trkpt><trkpt lat="44.67752097773383" lon="0.9057298798667006"><ele>155.0</ele><time>2026-05-01T13:25:24Z</time></trkpt><trkpt lat="44.67749438304576" lon="0.9059353490112839"><ele>155.5</ele><time>2026-05-01T13:25:25Z</time></trkpt><trkpt lat="44.677483913023295" lon="0.9061446069465139"><ele>156.0</ele><time>2026-05-01T13:25:26Z</time></trkpt><trkpt lat="44.67749636456994" lon="0.9063523320666242"><ele>156.5</ele><time>2026-05-01T13:25:27Z</time></trkpt><trkpt lat="44.677493518932685" lon="0.9065566642584045"><ele>157.0</ele><time>2026-05-01T13:25:28Z</time></trkpt><trkpt lat="44.677496229251545" lon="0.9067653082043724"><ele>157.0</ele><time>2026-05-01T13:25:29Z</time></trkpt><trkpt lat="44.6775025304822" lon="0.9069606131960232"><ele>157.0</ele><time>2026-05-01T13:25:30Z</time></trkpt><trkpt lat="44.677518768934696" lon="0.9071678109044617"><ele>157.0</ele><time>2026-05-01T13:25:31Z</time></trkpt><trkpt lat="44.677539726350865" lon="0.9073565046175569"><ele>157.0</ele><time>2026-05-01T13:25:32Z</time></trkpt><trkpt lat="44.67754991808664" lon="0.9075418400526576"><ele>157.4</ele><time>2026-05-01T13:25:33Z</time></trkpt><trkpt lat="44.67757291246657" lon="0.9077101193598129"><ele>157.79999999999998</ele><time>2026-05-01T13:25:34Z</time></trkpt><trkpt lat="44.67759190807835" lon="0.9078472146760024"><ele>158.2</ele><time>2026-05-01T13:25:35Z</time></trkpt><trkpt lat="44.67761070297935" lon="0.9079756025319649"><ele>158.6</ele><time>2026-05-01T13:25:36Z</time></trkpt><trkpt lat="44.677627132365934" lon="0.9080846246158136"><ele>159.0</ele><time>2026-05-01T13:25:37Z</time></trkpt><trkpt lat="44.67761915469754" lon="0.9082211948941428"><ele>159.0</ele><time>2026-05-01T13:25:39Z</time></trkpt><trkpt lat="44.67758575794973" lon="0.9084050259808546"><ele>159.0</ele><time>2026-05-01T13:25:41Z</time></trkpt><trkpt lat="44.677571036084224" lon="0.9086039502728228"><ele>159.0</ele><time>2026-05-01T13:25:43Z</time></trkpt><trkpt lat="44.67758366991661" lon="0.908738859678991"><ele>159.0</ele><time>2026-05-01T13:25:44Z</time></trkpt><trkpt lat="44.67759636446922" lon="0.9088651179360031"><ele>159.0</ele><time>2026-05-01T13:25:45Z</time></trkpt><trkpt lat="44.67761722826186" lon="0.9090041972185776"><ele>159.0</ele><time>2026-05-01T13:25:46Z</time></trkpt><trkpt lat="44.67763871365092" lon="0.9091574144587596"><ele>159.0</ele><time>2026-05-01T13:25:47Z</time></trkpt><trkpt lat="44.6776458856771" lon="0.909324569881303"><ele>159.0</ele><time>2026-05-01T13:25:48Z</time></trkpt><trkpt lat="44.677669909659734" lon="0.909489747581931"><ele>159.0</ele><time>2026-05-01T13:25:49Z</time></trkpt><trkpt lat="44.67766095037814" lon="0.9096533078035391"><ele>159.0</ele><time>2026-05-01T13:25:50Z</time></trkpt><trkpt lat="44.677652469648486" lon="0.9098083727242036"><ele>159.0</ele><time>2026-05-01T13:25:51Z</time></trkpt><trkpt lat="44.67762455502676" lon="0.9099797697848335"><ele>159.0</ele><time>2026-05-01T13:25:52Z</time></trkpt><trkpt lat="44.67758264801197" lon="0.9101514325231073"><ele>159.0</ele><time>2026-05-01T13:25:53Z</time></trkpt><trkpt lat="44.677522968420014" lon="0.9103311200926248"><ele>159.0</ele><time>2026-05-01T13:25:54Z</time></trkpt><trkpt lat="44.677445528553186" lon="0.9105121032918994"><ele>159.0</ele><time>2026-05-01T13:25:55Z</time></trkpt><trkpt lat="44.67738173499794" lon="0.9106928483376734"><ele>159.0</ele><time>2026-05-01T13:25:56Z</time></trkpt><trkpt lat="44.677335713356264" lon="0.9108769905679436"><ele>158.0</ele><time>2026-05-01T13:25:57Z</time></trkpt><trkpt lat="44.67728191003477" lon="0.9110460748383722"><ele>157.0</ele><time>2026-05-01T13:25:58Z</time></trkpt><trkpt lat="44.67725447538666" lon="0.9112167087974757"><ele>156.0</ele><time>2026-05-01T13:25:59Z</time></trkpt><trkpt lat="44.67720797802243" lon="0.9113722522723025"><ele>155.0</ele><time>2026-05-01T13:26:00Z</time></trkpt><trkpt lat="44.67719547482819" lon="0.9115061055242665"><ele>155.0</ele><time>2026-05-01T13:26:01Z</time></trkpt><trkpt lat="44.67718134045132" lon="0.9116234290932492"><ele>155.0</ele><time>2026-05-01T13:26:02Z</time></trkpt><trkpt lat="44.67715752112754" lon="0.9117333897388078"><ele>155.0</ele><time>2026-05-01T13:26:03Z</time></trkpt><trkpt lat="44.67714459595647" lon="0.9118236334759581"><ele>155.0</ele><time>2026-05-01T13:26:04Z</time></trkpt><trkpt lat="44.67712589769146" lon="0.911928611855765"><ele>155.0</ele><time>2026-05-01T13:26:05Z</time></trkpt><trkpt lat="44.677107551567794" lon="0.9120342529366561"><ele>155.0</ele><time>2026-05-01T13:26:06Z</time></trkpt><trkpt lat="44.67708288133142" lon="0.9121224394951939"><ele>154.83333333333331</ele><time>2026-05-01T13:26:07Z</time></trkpt><trkpt lat="44.677031269287916" lon="0.912216868840583"><ele>154.66666666666666</ele><time>2026-05-01T13:26:08Z</time></trkpt><trkpt lat="44.67697226834958" lon="0.9122843365983848"><ele>154.5</ele><time>2026-05-01T13:26:09Z</time></trkpt><trkpt lat="44.67687423318047" lon="0.9123159479347623"><ele>154.33333333333334</ele><time>2026-05-01T13:26:10Z</time></trkpt><trkpt lat="44.676788709182574" lon="0.9123161941630257"><ele>154.16666666666669</ele><time>2026-05-01T13:26:11Z</time></trkpt><trkpt lat="44.67669633183525" lon="0.9123515647709651"><ele>154.0</ele><time>2026-05-01T13:26:12Z</time></trkpt><trkpt lat="44.67660971581991" lon="0.9123964780962169"><ele>154.6</ele><time>2026-05-01T13:26:13Z</time></trkpt><trkpt lat="44.67653495701217" lon="0.912471114418335"><ele>155.2</ele><time>2026-05-01T13:26:14Z</time></trkpt><trkpt lat="44.676466912825816" lon="0.9125852758669513"><ele>155.79999999999998</ele><time>2026-05-01T13:26:15Z</time></trkpt><trkpt lat="44.676396992205305" lon="0.9127037222336751"><ele>156.4</ele><time>2026-05-01T13:26:16Z</time></trkpt><trkpt lat="44.67631710381449" lon="0.9128085659181728"><ele>157.0</ele><time>2026-05-01T13:26:17Z</time></trkpt><trkpt lat="44.67622388554871" lon="0.9128875637211598"><ele>157.0</ele><time>2026-05-01T13:26:18Z</time></trkpt><trkpt lat="44.676116537052124" lon="0.9129640447976165"><ele>157.0</ele><time>2026-05-01T13:26:19Z</time></trkpt><trkpt lat="44.67600755897508" lon="0.9130569985494542"><ele>157.0</ele><time>2026-05-01T13:26:20Z</time></trkpt><trkpt lat="44.67591946593291" lon="0.9131844229957611"><ele>157.0</ele><time>2026-05-01T13:26:21Z</time></trkpt><trkpt lat="44.675839008314945" lon="0.9132972999237218"><ele>158.8</ele><time>2026-05-01T13:26:22Z</time></trkpt><trkpt lat="44.67576603302314" lon="0.9133997610852674"><ele>160.6</ele><time>2026-05-01T13:26:23Z</time></trkpt><trkpt lat="44.675682078548775" lon="0.9134920917200371"><ele>162.4</ele><time>2026-05-01T13:26:24Z</time></trkpt><trkpt lat="44.675615652494145" lon="0.9136020938995215"><ele>164.20000000000002</ele><time>2026-05-01T13:26:25Z</time></trkpt><trkpt lat="44.67554641199226" lon="0.9137039998227943"><ele>166.0</ele><time>2026-05-01T13:26:26Z</time></trkpt><trkpt lat="44.675451534529124" lon="0.9137896364352502"><ele>166.0</ele><time>2026-05-01T13:26:27Z</time></trkpt><trkpt lat="44.67534874121764" lon="0.9138728310506238"><ele>166.0</ele><time>2026-05-01T13:26:28Z</time></trkpt><trkpt lat="44.675231771682284" lon="0.913954781032537"><ele>166.0</ele><time>2026-05-01T13:26:29Z</time></trkpt><trkpt lat="44.675137308511545" lon="0.9140269172779982"><ele>166.0</ele><time>2026-05-01T13:26:30Z</time></trkpt><trkpt lat="44.67507559179066" lon="0.9141317799537838"><ele>168.60000000000002</ele><time>2026-05-01T13:26:31Z</time></trkpt><trkpt lat="44.67503948901721" lon="0.9142620009146755"><ele>171.2</ele><time>2026-05-01T13:26:32Z</time></trkpt><trkpt lat="44.67502099761726" lon="0.9143975985452039"><ele>173.8</ele><time>2026-05-01T13:26:33Z</time></trkpt><trkpt lat="44.67500597462301" lon="0.9145498426436823"><ele>176.39999999999998</ele><time>2026-05-01T13:26:34Z</time></trkpt><trkpt lat="44.67498292857922" lon="0.9146904351097976"><ele>179.0</ele><time>2026-05-01T13:26:35Z</time></trkpt><trkpt lat="44.674940482380194" lon="0.9148124360409575"><ele>179.0</ele><time>2026-05-01T13:26:36Z</time></trkpt><trkpt lat="44.674874099763834" lon="0.9148971824509592"><ele>179.0</ele><time>2026-05-01T13:26:37Z</time></trkpt><trkpt lat="44.67480992797733" lon="0.9149614613877398"><ele>179.0</ele><time>2026-05-01T13:26:38Z</time></trkpt><trkpt lat="44.6747551664929" lon="0.9150113620348812"><ele>179.0</ele><time>2026-05-01T13:26:39Z</time></trkpt><trkpt lat="44.67483360396844" lon="0.9149450218838726"><ele>179.0</ele><time>2026-05-01T13:26:47Z</time></trkpt><trkpt lat="44.67488851233576" lon="0.9150257586655363"><ele>179.0</ele><time>2026-05-01T13:26:50Z</time></trkpt><trkpt lat="44.67488670679023" lon="0.9151948773181157"><ele>178.2</ele><time>2026-05-01T13:26:52Z</time></trkpt><trkpt lat="44.674874589433195" lon="0.915295945698218"><ele>177.39999999999998</ele><time>2026-05-01T13:26:53Z</time></trkpt><trkpt lat="44.67485945100842" lon="0.9154159943367303"><ele>176.6</ele><time>2026-05-01T13:26:54Z</time></trkpt><trkpt lat="44.674843228218585" lon="0.9155565245258745"><ele>175.8</ele><time>2026-05-01T13:26:55Z</time></trkpt><trkpt lat="44.674822412677926" lon="0.9156778247593806"><ele>175.0</ele><time>2026-05-01T13:26:56Z</time></trkpt><trkpt lat="44.674794005089765" lon="0.9158279249871015"><ele>176.2</ele><time>2026-05-01T13:26:57Z</time></trkpt><trkpt lat="44.674776432910264" lon="0.9159768832130118"><ele>177.4</ele><time>2026-05-01T13:26:58Z</time></trkpt><trkpt lat="44.67475011859061" lon="0.9161271996732875"><ele>178.60000000000002</ele><time>2026-05-01T13:26:59Z</time></trkpt><trkpt lat="44.67473271761885" lon="0.9162547049069724"><ele>179.8</ele><time>2026-05-01T13:27:00Z</time></trkpt><trkpt lat="44.674715113675916" lon="0.9163805672640275"><ele>181.0</ele><time>2026-05-01T13:27:01Z</time></trkpt><trkpt lat="44.6747036160403" lon="0.9164869489309704"><ele>181.0</ele><time>2026-05-01T13:27:02Z</time></trkpt><trkpt lat="44.674684664978344" lon="0.9165902810961414"><ele>181.0</ele><time>2026-05-01T13:27:03Z</time></trkpt><trkpt lat="44.67467485487416" lon="0.9166899059907596"><ele>181.0</ele><time>2026-05-01T13:27:04Z</time></trkpt><trkpt lat="44.67470577227669" lon="0.9168128103476694"><ele>181.0</ele><time>2026-05-01T13:27:06Z</time></trkpt><trkpt lat="44.67474349530485" lon="0.9169209947737382"><ele>181.0</ele><time>2026-05-01T13:27:08Z</time></trkpt><trkpt lat="44.67469135831469" lon="0.917035344023424"><ele>181.0</ele><time>2026-05-01T13:27:11Z</time></trkpt><trkpt lat="44.67469111298175" lon="0.9171545195206954"><ele>182.16666666666669</ele><time>2026-05-01T13:27:13Z</time></trkpt><trkpt lat="44.67469114755534" lon="0.91726861992842"><ele>183.33333333333334</ele><time>2026-05-01T13:27:14Z</time></trkpt><trkpt lat="44.67467790331212" lon="0.9173623253996888"><ele>184.5</ele><time>2026-05-01T13:27:15Z</time></trkpt><trkpt lat="44.674677573323365" lon="0.9174706914569032"><ele>185.66666666666666</ele><time>2026-05-01T13:27:16Z</time></trkpt><trkpt lat="44.67467004945225" lon="0.9175737003712775"><ele>186.83333333333331</ele><time>2026-05-01T13:27:17Z</time></trkpt><trkpt lat="44.67466999017265" lon="0.9176898917450592"><ele>188.0</ele><time>2026-05-01T13:27:19Z</time></trkpt><trkpt lat="44.67474138225803" lon="0.917729646870794"><ele>188.0</ele><time>2026-05-01T13:27:21Z</time></trkpt><trkpt lat="44.674871848251634" lon="0.9177104210350034"><ele>188.0</ele><time>2026-05-01T13:27:23Z</time></trkpt><trkpt lat="44.67499105419616" lon="0.9177339288531542"><ele>188.0</ele><time>2026-05-01T13:27:25Z</time></trkpt><trkpt lat="44.67509713645286" lon="0.9177589347308768"><ele>188.0</ele><time>2026-05-01T13:27:27Z</time></trkpt><trkpt lat="44.67518842221744" lon="0.917764734865717"><ele>188.0</ele><time>2026-05-01T13:27:29Z</time></trkpt><trkpt lat="44.67526217025209" lon="0.9177660685043502"><ele>188.0</ele><time>2026-05-01T13:27:31Z</time></trkpt><trkpt lat="44.67534370369053" lon="0.9177560121558492"><ele>188.0</ele><time>2026-05-01T13:28:21Z</time></trkpt><trkpt lat="44.67541475139627" lon="0.9177501829801932"><ele>188.0</ele><time>2026-05-01T13:28:23Z</time></trkpt><trkpt lat="44.67551698749853" lon="0.9177489913640173"><ele>188.0</ele><time>2026-05-01T13:28:25Z</time></trkpt><trkpt lat="44.675636247631545" lon="0.9177550646794022"><ele>188.0</ele><time>2026-05-01T13:28:27Z</time></trkpt><trkpt lat="44.6757129644126" lon="0.9177784431498897"><ele>186.2</ele><time>2026-05-01T13:28:28Z</time></trkpt><trkpt lat="44.67579688376197" lon="0.9178214651619475"><ele>184.4</ele><time>2026-05-01T13:28:29Z</time></trkpt><trkpt lat="44.67591109706549" lon="0.9178624133250627"><ele>182.6</ele><time>2026-05-01T13:28:31Z</time></trkpt><trkpt lat="44.67602720430606" lon="0.9178750680594271"><ele>180.79999999999998</ele><time>2026-05-01T13:28:33Z</time></trkpt><trkpt lat="44.67613822010025" lon="0.9178656852628857"><ele>179.0</ele><time>2026-05-01T13:28:35Z</time></trkpt><trkpt lat="44.676224340279546" lon="0.9177880309633086"><ele>177.5</ele><time>2026-05-01T13:28:37Z</time></trkpt><trkpt lat="44.676290219669035" lon="0.9176582543944636"><ele>176.0</ele><time>2026-05-01T13:28:39Z</time></trkpt><trkpt lat="44.67633780674745" lon="0.9175959590796259"><ele>174.5</ele><time>2026-05-01T13:28:41Z</time></trkpt><trkpt lat="44.67632739112172" lon="0.9174954203926122"><ele>173.0</ele><time>2026-05-01T13:28:43Z</time></trkpt><trkpt lat="44.67640739843704" lon="0.9175143312871983"><ele>171.5</ele><time>2026-05-01T13:28:46Z</time></trkpt><trkpt lat="44.67640848381226" lon="0.9176472618353586"><ele>170.0</ele><time>2026-05-01T13:28:48Z</time></trkpt><trkpt lat="44.676417421534595" lon="0.9177922854941617"><ele>170.0</ele><time>2026-05-01T13:28:50Z</time></trkpt><trkpt lat="44.67643498790147" lon="0.9179094530983078"><ele>170.0</ele><time>2026-05-01T13:28:52Z</time></trkpt><trkpt lat="44.676461340260055" lon="0.9180139350827591"><ele>170.0</ele><time>2026-05-01T13:28:54Z</time></trkpt><trkpt lat="44.67646148347684" lon="0.9181546034612765"><ele>170.0</ele><time>2026-05-01T13:28:56Z</time></trkpt><trkpt lat="44.67650059483763" lon="0.9183462776110459"><ele>170.0</ele><time>2026-05-01T13:28:58Z</time></trkpt><trkpt lat="44.676492980539706" lon="0.9184574116576094"><ele>169.83333333333331</ele><time>2026-05-01T13:28:59Z</time></trkpt><trkpt lat="44.676474206355046" lon="0.9185430367052884"><ele>169.66666666666666</ele><time>2026-05-01T13:29:00Z</time></trkpt><trkpt lat="44.67645200053855" lon="0.9187205210814702"><ele>169.5</ele><time>2026-05-01T13:29:02Z</time></trkpt><trkpt lat="44.67643360751314" lon="0.9188627842730589"><ele>169.33333333333334</ele><time>2026-05-01T13:29:04Z</time></trkpt><trkpt lat="44.67641617514337" lon="0.9189568850800476"><ele>169.16666666666669</ele><time>2026-05-01T13:29:05Z</time></trkpt><trkpt lat="44.676407745805264" lon="0.9190663336945645"><ele>169.0</ele><time>2026-05-01T13:29:06Z</time></trkpt><trkpt lat="44.67638504986332" lon="0.91916501206554"><ele>168.0</ele><time>2026-05-01T13:29:07Z</time></trkpt><trkpt lat="44.676346943539684" lon="0.9192591576146385"><ele>167.0</ele><time>2026-05-01T13:29:08Z</time></trkpt><trkpt lat="44.676301665786454" lon="0.9193570692546755"><ele>166.0</ele><time>2026-05-01T13:29:10Z</time></trkpt><trkpt lat="44.676346391669775" lon="0.9194532709370082"><ele>165.0</ele><time>2026-05-01T13:29:12Z</time></trkpt><trkpt lat="44.6764562471904" lon="0.9195218387883659"><ele>164.0</ele><time>2026-05-01T13:29:14Z</time></trkpt><trkpt lat="44.67652818123258" lon="0.919568003782261"><ele>163.0</ele><time>2026-05-01T13:29:15Z</time></trkpt><trkpt lat="44.676611320781035" lon="0.9196337202829261"><ele>163.0</ele><time>2026-05-01T13:29:16Z</time></trkpt><trkpt lat="44.67669061610469" lon="0.919696939777266"><ele>163.0</ele><time>2026-05-01T13:29:17Z</time></trkpt><trkpt lat="44.676754547452575" lon="0.9197677570254836"><ele>163.0</ele><time>2026-05-01T13:29:18Z</time></trkpt><trkpt lat="44.6768105760464" lon="0.9198575698998087"><ele>163.0</ele><time>2026-05-01T13:29:19Z</time></trkpt><trkpt lat="44.67685372989905" lon="0.9199733334112925"><ele>163.0</ele><time>2026-05-01T13:29:20Z</time></trkpt><trkpt lat="44.676879104922946" lon="0.9201092357605682"><ele>163.0</ele><time>2026-05-01T13:29:21Z</time></trkpt><trkpt lat="44.6769013181125" lon="0.9202416379407662"><ele>163.0</ele><time>2026-05-01T13:29:22Z</time></trkpt><trkpt lat="44.6769257213642" lon="0.9203596478537127"><ele>163.0</ele><time>2026-05-01T13:29:23Z</time></trkpt><trkpt lat="44.676966445658266" lon="0.9204320351697334"><ele>163.0</ele><time>2026-05-01T13:29:24Z</time></trkpt><trkpt lat="44.677000125174615" lon="0.9205634401193926"><ele>163.0</ele><time>2026-05-01T13:29:25Z</time></trkpt><trkpt lat="44.67705726904675" lon="0.9207054014531889"><ele>165.16666666666669</ele><time>2026-05-01T13:29:27Z</time></trkpt><trkpt lat="44.67711227565454" lon="0.9207986812429502"><ele>167.33333333333334</ele><time>2026-05-01T13:29:29Z</time></trkpt><trkpt lat="44.67716755332018" lon="0.9208818133335329"><ele>169.5</ele><time>2026-05-01T13:29:31Z</time></trkpt><trkpt lat="44.677109241601634" lon="0.9210124406058622"><ele>171.66666666666666</ele><time>2026-05-01T13:29:32Z</time></trkpt><trkpt lat="44.6770701865756" lon="0.9210940788990885"><ele>173.83333333333331</ele><time>2026-05-01T13:29:33Z</time></trkpt><trkpt lat="44.677021615532595" lon="0.921190602106117"><ele>176.0</ele><time>2026-05-01T13:29:34Z</time></trkpt><trkpt lat="44.67695740626187" lon="0.9213481216094934"><ele>174.5</ele><time>2026-05-01T13:29:35Z</time></trkpt><trkpt lat="44.676904256234195" lon="0.9215020889158507"><ele>173.0</ele><time>2026-05-01T13:29:36Z</time></trkpt><trkpt lat="44.67684239644583" lon="0.9216536487913629"><ele>171.5</ele><time>2026-05-01T13:29:37Z</time></trkpt><trkpt lat="44.67678280660204" lon="0.9218090759392885"><ele>170.0</ele><time>2026-05-01T13:29:38Z</time></trkpt><trkpt lat="44.67672413655963" lon="0.92197599340616"><ele>170.0</ele><time>2026-05-01T13:29:39Z</time></trkpt><trkpt lat="44.67667634036165" lon="0.9221489482120147"><ele>170.0</ele><time>2026-05-01T13:29:40Z</time></trkpt><trkpt lat="44.676627205148634" lon="0.9223270695621262"><ele>170.0</ele><time>2026-05-01T13:29:41Z</time></trkpt><trkpt lat="44.67657501400605" lon="0.922511013228624"><ele>170.0</ele><time>2026-05-01T13:29:42Z</time></trkpt><trkpt lat="44.67654120815783" lon="0.9226969889326403"><ele>171.5</ele><time>2026-05-01T13:29:43Z</time></trkpt><trkpt lat="44.67648818188693" lon="0.9228851189659297"><ele>173.0</ele><time>2026-05-01T13:29:44Z</time></trkpt><trkpt lat="44.67647295661724" lon="0.9230797518358224"><ele>174.5</ele><time>2026-05-01T13:29:45Z</time></trkpt><trkpt lat="44.67643868762961" lon="0.9232674763361713"><ele>176.0</ele><time>2026-05-01T13:29:46Z</time></trkpt><trkpt lat="44.67642111906746" lon="0.9234760316769333"><ele>176.0</ele><time>2026-05-01T13:29:47Z</time></trkpt><trkpt lat="44.67641472696331" lon="0.9236840229401592"><ele>176.0</ele><time>2026-05-01T13:29:48Z</time></trkpt><trkpt lat="44.676418844138226" lon="0.9238873869704943"><ele>176.0</ele><time>2026-05-01T13:29:49Z</time></trkpt><trkpt lat="44.67642265202438" lon="0.9240910430912475"><ele>176.0</ele><time>2026-05-01T13:29:50Z</time></trkpt><trkpt lat="44.67643318844375" lon="0.9242907137327997"><ele>175.33333333333331</ele><time>2026-05-01T13:29:51Z</time></trkpt><trkpt lat="44.67644623181488" lon="0.9245010217822704"><ele>174.66666666666666</ele><time>2026-05-01T13:29:52Z</time></trkpt><trkpt lat="44.67646642619918" lon="0.9247130643228133"><ele>174.0</ele><time>2026-05-01T13:29:53Z</time></trkpt><trkpt lat="44.67649398394602" lon="0.9249271863686521"><ele>173.0</ele><time>2026-05-01T13:29:54Z</time></trkpt><trkpt lat="44.676517828446094" lon="0.9251348159684933"><ele>172.0</ele><time>2026-05-01T13:29:55Z</time></trkpt><trkpt lat="44.676538990665506" lon="0.9253428829964585"><ele>171.0</ele><time>2026-05-01T13:29:56Z</time></trkpt><trkpt lat="44.6765514202226" lon="0.9255458903829691"><ele>170.0</ele><time>2026-05-01T13:29:57Z</time></trkpt><trkpt lat="44.67657991875186" lon="0.9257609557904584"><ele>169.66666666666666</ele><time>2026-05-01T13:29:58Z</time></trkpt><trkpt lat="44.676596154704825" lon="0.9259704415247583"><ele>169.33333333333334</ele><time>2026-05-01T13:29:59Z</time></trkpt><trkpt lat="44.67662032745753" lon="0.9261858954656302"><ele>169.0</ele><time>2026-05-01T13:30:00Z</time></trkpt><trkpt lat="44.67664390954608" lon="0.9263923529815422"><ele>169.0</ele><time>2026-05-01T13:30:01Z</time></trkpt><trkpt lat="44.67666353146382" lon="0.9266071593382257"><ele>169.0</ele><time>2026-05-01T13:30:02Z</time></trkpt><trkpt lat="44.67668306666907" lon="0.9268129512486675"><ele>169.0</ele><time>2026-05-01T13:30:03Z</time></trkpt><trkpt lat="44.67670698476825" lon="0.9270320815765325"><ele>169.0</ele><time>2026-05-01T13:30:04Z</time></trkpt><trkpt lat="44.67672567093857" lon="0.9272471313400883"><ele>169.0</ele><time>2026-05-01T13:30:05Z</time></trkpt><trkpt lat="44.676747409147055" lon="0.9274600677459469"><ele>169.0</ele><time>2026-05-01T13:30:06Z</time></trkpt><trkpt lat="44.67677051224752" lon="0.9276800616286707"><ele>169.0</ele><time>2026-05-01T13:30:07Z</time></trkpt><trkpt lat="44.67679034420024" lon="0.9278949343088195"><ele>169.0</ele><time>2026-05-01T13:30:08Z</time></trkpt><trkpt lat="44.676808675943946" lon="0.9281242269583028"><ele>169.0</ele><time>2026-05-01T13:30:09Z</time></trkpt><trkpt lat="44.676828293922114" lon="0.9283430379120206"><ele>168.0</ele><time>2026-05-01T13:30:10Z</time></trkpt><trkpt lat="44.67685279561812" lon="0.9285700182962563"><ele>167.0</ele><time>2026-05-01T13:30:11Z</time></trkpt><trkpt lat="44.67688509587437" lon="0.9287950717001243"><ele>166.0</ele><time>2026-05-01T13:30:12Z</time></trkpt><trkpt lat="44.67692618516214" lon="0.929002958333588"><ele>166.66666666666669</ele><time>2026-05-01T13:30:13Z</time></trkpt><trkpt lat="44.67697021072045" lon="0.9292270880578611"><ele>167.33333333333334</ele><time>2026-05-01T13:30:14Z</time></trkpt><trkpt lat="44.67701716504472" lon="0.9294340075579052"><ele>168.0</ele><time>2026-05-01T13:30:15Z</time></trkpt><trkpt lat="44.67707771391832" lon="0.9296362848904945"><ele>168.0</ele><time>2026-05-01T13:30:16Z</time></trkpt><trkpt lat="44.677151861350495" lon="0.9298373901496135"><ele>168.0</ele><time>2026-05-01T13:30:17Z</time></trkpt><trkpt lat="44.67722793305083" lon="0.9300381130385265"><ele>168.0</ele><time>2026-05-01T13:30:18Z</time></trkpt><trkpt lat="44.67730359067579" lon="0.9302281886514562"><ele>167.33333333333334</ele><time>2026-05-01T13:30:19Z</time></trkpt><trkpt lat="44.67738722549925" lon="0.9304123972695073"><ele>166.66666666666669</ele><time>2026-05-01T13:30:20Z</time></trkpt><trkpt lat="44.67747278468492" lon="0.9306048466300679"><ele>166.0</ele><time>2026-05-01T13:30:21Z</time></trkpt><trkpt lat="44.67755154666809" lon="0.9307935742949779"><ele>166.33333333333334</ele><time>2026-05-01T13:30:22Z</time></trkpt><trkpt lat="44.67763103160278" lon="0.9310054111810142"><ele>166.66666666666666</ele><time>2026-05-01T13:30:23Z</time></trkpt><trkpt lat="44.67770769433775" lon="0.9311763200544751"><ele>167.0</ele><time>2026-05-01T13:30:24Z</time></trkpt><trkpt lat="44.67779762941339" lon="0.9313730915494136"><ele>168.0</ele><time>2026-05-01T13:30:25Z</time></trkpt><trkpt lat="44.67788564942838" lon="0.9315649407433794"><ele>169.0</ele><time>2026-05-01T13:30:26Z</time></trkpt><trkpt lat="44.67797201660096" lon="0.9317476432090508"><ele>170.0</ele><time>2026-05-01T13:30:27Z</time></trkpt><trkpt lat="44.67805877135323" lon="0.9319349244042726"><ele>170.0</ele><time>2026-05-01T13:30:28Z</time></trkpt><trkpt lat="44.678126026358115" lon="0.9321184636277596"><ele>170.0</ele><time>2026-05-01T13:30:29Z</time></trkpt><trkpt lat="44.678207789398904" lon="0.9323098174404377"><ele>170.0</ele><time>2026-05-01T13:30:30Z</time></trkpt><trkpt lat="44.67828303373854" lon="0.9324882788198455"><ele>169.66666666666666</ele><time>2026-05-01T13:30:31Z</time></trkpt><trkpt lat="44.678364996276514" lon="0.9326786211293181"><ele>169.33333333333334</ele><time>2026-05-01T13:30:32Z</time></trkpt><trkpt lat="44.678435396787364" lon="0.9328527716383668"><ele>169.0</ele><time>2026-05-01T13:30:33Z</time></trkpt><trkpt lat="44.678520523354564" lon="0.9330367122272505"><ele>169.0</ele><time>2026-05-01T13:30:34Z</time></trkpt><trkpt lat="44.67859445982794" lon="0.9332144739693496"><ele>169.0</ele><time>2026-05-01T13:30:35Z</time></trkpt><trkpt lat="44.678674209574645" lon="0.9333971984863259"><ele>169.0</ele><time>2026-05-01T13:30:36Z</time></trkpt><trkpt lat="44.67875610887234" lon="0.9335705399007433"><ele>169.0</ele><time>2026-05-01T13:30:37Z</time></trkpt><trkpt lat="44.67883752425376" lon="0.9337532127216353"><ele>170.0</ele><time>2026-05-01T13:30:38Z</time></trkpt><trkpt lat="44.67890726845172" lon="0.9339322190214931"><ele>171.0</ele><time>2026-05-01T13:30:39Z</time></trkpt><trkpt lat="44.67898650640972" lon="0.9341177164054718"><ele>172.0</ele><time>2026-05-01T13:30:40Z</time></trkpt><trkpt lat="44.67906801280232" lon="0.9343061743805341"><ele>172.0</ele><time>2026-05-01T13:30:41Z</time></trkpt><trkpt lat="44.679145754474455" lon="0.934491658788975"><ele>172.0</ele><time>2026-05-01T13:30:42Z</time></trkpt><trkpt lat="44.67921572225834" lon="0.9346811737214813"><ele>172.0</ele><time>2026-05-01T13:30:43Z</time></trkpt><trkpt lat="44.67930283222501" lon="0.9348628081780674"><ele>172.0</ele><time>2026-05-01T13:30:44Z</time></trkpt><trkpt lat="44.679389946847444" lon="0.9350518694471365"><ele>172.0</ele><time>2026-05-01T13:30:45Z</time></trkpt><trkpt lat="44.67947383617032" lon="0.9352377151138876"><ele>172.0</ele><time>2026-05-01T13:30:46Z</time></trkpt><trkpt lat="44.67956376414606" lon="0.9354115757905098"><ele>171.66666666666669</ele><time>2026-05-01T13:30:47Z</time></trkpt><trkpt lat="44.67967330352619" lon="0.935576928044503"><ele>171.33333333333334</ele><time>2026-05-01T13:30:48Z</time></trkpt><trkpt lat="44.679782545231156" lon="0.9357305553598311"><ele>171.0</ele><time>2026-05-01T13:30:49Z</time></trkpt><trkpt lat="44.679906552124876" lon="0.9358886887682853"><ele>171.0</ele><time>2026-05-01T13:30:50Z</time></trkpt><trkpt lat="44.68004405802242" lon="0.9360196017651133"><ele>171.0</ele><time>2026-05-01T13:30:51Z</time></trkpt><trkpt lat="44.680174300754196" lon="0.9361439022392847"><ele>171.0</ele><time>2026-05-01T13:30:52Z</time></trkpt><trkpt lat="44.68030329398147" lon="0.9362705378561617"><ele>173.0</ele><time>2026-05-01T13:30:53Z</time></trkpt><trkpt lat="44.68043403350899" lon="0.9364061040343736"><ele>175.0</ele><time>2026-05-01T13:30:54Z</time></trkpt><trkpt lat="44.68056207474242" lon="0.9365384671378084"><ele>177.0</ele><time>2026-05-01T13:30:55Z</time></trkpt><trkpt lat="44.68070386398639" lon="0.9366796244741942"><ele>176.66666666666666</ele><time>2026-05-01T13:30:56Z</time></trkpt><trkpt lat="44.680840331848195" lon="0.9368165175160965"><ele>176.33333333333331</ele><time>2026-05-01T13:30:57Z</time></trkpt><trkpt lat="44.6809756173869" lon="0.936948934589614"><ele>176.0</ele><time>2026-05-01T13:30:58Z</time></trkpt><trkpt lat="44.6811112679015" lon="0.9370842017272611"><ele>176.0</ele><time>2026-05-01T13:30:59Z</time></trkpt><trkpt lat="44.68124224588476" lon="0.9372211345373909"><ele>176.0</ele><time>2026-05-01T13:31:00Z</time></trkpt><trkpt lat="44.68137088078242" lon="0.9373655475895001"><ele>176.0</ele><time>2026-05-01T13:31:01Z</time></trkpt><trkpt lat="44.68149629167602" lon="0.937519480745818"><ele>175.66666666666666</ele><time>2026-05-01T13:31:02Z</time></trkpt><trkpt lat="44.68160467735039" lon="0.937682012227586"><ele>175.33333333333334</ele><time>2026-05-01T13:31:03Z</time></trkpt><trkpt lat="44.681716173888574" lon="0.9378736403478768"><ele>175.0</ele><time>2026-05-01T13:31:04Z</time></trkpt><trkpt lat="44.6818081775018" lon="0.9380613465855882"><ele>175.0</ele><time>2026-05-01T13:31:05Z</time></trkpt><trkpt lat="44.68187891876503" lon="0.9382433559622795"><ele>175.0</ele><time>2026-05-01T13:31:06Z</time></trkpt><trkpt lat="44.68195517891578" lon="0.9384546608548862"><ele>175.0</ele><time>2026-05-01T13:31:07Z</time></trkpt><trkpt lat="44.682012892788215" lon="0.9386681975042824"><ele>176.0</ele><time>2026-05-01T13:31:08Z</time></trkpt><trkpt lat="44.68206445583654" lon="0.9388854328785996"><ele>177.0</ele><time>2026-05-01T13:31:09Z</time></trkpt><trkpt lat="44.68211299713112" lon="0.9390941059839244"><ele>178.0</ele><time>2026-05-01T13:31:10Z</time></trkpt><trkpt lat="44.68215596568845" lon="0.9392837081017594"><ele>178.0</ele><time>2026-05-01T13:31:11Z</time></trkpt><trkpt lat="44.682205166765705" lon="0.9394863560870926"><ele>178.0</ele><time>2026-05-01T13:31:12Z</time></trkpt><trkpt lat="44.6822477246873" lon="0.9396758122724388"><ele>178.0</ele><time>2026-05-01T13:31:13Z</time></trkpt><trkpt lat="44.682287979652365" lon="0.9398450118104972"><ele>178.0</ele><time>2026-05-01T13:31:14Z</time></trkpt><trkpt lat="44.68233477323267" lon="0.9400235095186512"><ele>177.4</ele><time>2026-05-01T13:31:15Z</time></trkpt><trkpt lat="44.68237360587054" lon="0.9401901365280602"><ele>176.8</ele><time>2026-05-01T13:31:16Z</time></trkpt><trkpt lat="44.68240493031093" lon="0.9403447308206244"><ele>176.2</ele><time>2026-05-01T13:31:17Z</time></trkpt><trkpt lat="44.68243760050288" lon="0.9404809588153372"><ele>175.6</ele><time>2026-05-01T13:31:18Z</time></trkpt><trkpt lat="44.68247326368815" lon="0.9405953405006028"><ele>175.0</ele><time>2026-05-01T13:31:19Z</time></trkpt><trkpt lat="44.68249263944765" lon="0.9407103892566163"><ele>175.0</ele><time>2026-05-01T13:31:20Z</time></trkpt><trkpt lat="44.68251440320678" lon="0.940802399971108"><ele>175.0</ele><time>2026-05-01T13:31:21Z</time></trkpt><trkpt lat="44.68252917931208" lon="0.940908912970524"><ele>175.0</ele><time>2026-05-01T13:31:23Z</time></trkpt><trkpt lat="44.68276134278329" lon="0.940686304485219"><ele>175.0</ele><time>2026-05-01T13:31:29Z</time></trkpt><trkpt lat="44.682854658198224" lon="0.9406112091170613"><ele>175.8</ele><time>2026-05-01T13:31:30Z</time></trkpt><trkpt lat="44.68295173116243" lon="0.9405378740211445"><ele>176.6</ele><time>2026-05-01T13:31:31Z</time></trkpt><trkpt lat="44.68305276475503" lon="0.9404636180330729"><ele>177.39999999999998</ele><time>2026-05-01T13:31:32Z</time></trkpt><trkpt lat="44.68316108804997" lon="0.9404279035014249"><ele>178.2</ele><time>2026-05-01T13:31:33Z</time></trkpt><trkpt lat="44.683266990471324" lon="0.9404124178392532"><ele>179.0</ele><time>2026-05-01T13:31:34Z</time></trkpt><trkpt lat="44.68337102261735" lon="0.9404367188084305"><ele>179.0</ele><time>2026-05-01T13:31:35Z</time></trkpt><trkpt lat="44.68346866163487" lon="0.9405205728664467"><ele>179.0</ele><time>2026-05-01T13:31:36Z</time></trkpt><trkpt lat="44.68357037744726" lon="0.9406277352376847"><ele>179.0</ele><time>2026-05-01T13:31:37Z</time></trkpt><trkpt lat="44.68368122817306" lon="0.9407137726959501"><ele>179.0</ele><time>2026-05-01T13:31:38Z</time></trkpt><trkpt lat="44.68379216950903" lon="0.940782528608906"><ele>181.39999999999998</ele><time>2026-05-01T13:31:39Z</time></trkpt><trkpt lat="44.68388763277085" lon="0.9408283147603868"><ele>183.8</ele><time>2026-05-01T13:31:40Z</time></trkpt><trkpt lat="44.68395689996808" lon="0.9408479349106347"><ele>186.2</ele><time>2026-05-01T13:31:41Z</time></trkpt><trkpt lat="44.684058054966115" lon="0.9408488708143811"><ele>188.60000000000002</ele><time>2026-05-01T13:31:42Z</time></trkpt><trkpt lat="44.68414588361072" lon="0.9408232184388527"><ele>191.0</ele><time>2026-05-01T13:31:43Z</time></trkpt><trkpt lat="44.684235828822494" lon="0.9407780866066586"><ele>191.0</ele><time>2026-05-01T13:31:44Z</time></trkpt><trkpt lat="44.68432491574313" lon="0.940761676858001"><ele>191.0</ele><time>2026-05-01T13:31:45Z</time></trkpt><trkpt lat="44.684429284183516" lon="0.9407438259406595"><ele>191.0</ele><time>2026-05-01T13:31:46Z</time></trkpt><trkpt lat="44.6845426066207" lon="0.9407319054141278"><ele>191.0</ele><time>2026-05-01T13:31:47Z</time></trkpt><trkpt lat="44.68465384151179" lon="0.9407213138210825"><ele>191.0</ele><time>2026-05-01T13:31:48Z</time></trkpt><trkpt lat="44.68475336935813" lon="0.940706319091243"><ele>193.4</ele><time>2026-05-01T13:31:49Z</time></trkpt><trkpt lat="44.68486602221261" lon="0.9407131883436618"><ele>195.8</ele><time>2026-05-01T13:31:50Z</time></trkpt><trkpt lat="44.684980865375884" lon="0.9407194110410807"><ele>198.20000000000002</ele><time>2026-05-01T13:31:51Z</time></trkpt><trkpt lat="44.685094228663644" lon="0.940741806289477"><ele>200.60000000000002</ele><time>2026-05-01T13:31:52Z</time></trkpt><trkpt lat="44.68517843055443" lon="0.9407367112445737"><ele>203.0</ele><time>2026-05-01T13:31:53Z</time></trkpt><trkpt lat="44.68525941542592" lon="0.940758539197726"><ele>204.0</ele><time>2026-05-01T13:31:54Z</time></trkpt><trkpt lat="44.685350689548926" lon="0.940821332548995"><ele>205.0</ele><time>2026-05-01T13:31:55Z</time></trkpt><trkpt lat="44.6854447619532" lon="0.9409182416790359"><ele>206.0</ele><time>2026-05-01T13:31:56Z</time></trkpt><trkpt lat="44.68553909473557" lon="0.9410172222954644"><ele>207.0</ele><time>2026-05-01T13:31:57Z</time></trkpt><trkpt lat="44.68563832329898" lon="0.9411314589043807"><ele>208.0</ele><time>2026-05-01T13:31:58Z</time></trkpt><trkpt lat="44.6857357722194" lon="0.941246295335077"><ele>209.0</ele><time>2026-05-01T13:31:59Z</time></trkpt><trkpt lat="44.685841626616245" lon="0.9413440078714012"><ele>210.0</ele><time>2026-05-01T13:32:00Z</time></trkpt><trkpt lat="44.68594481664614" lon="0.9414525863596238"><ele>211.0</ele><time>2026-05-01T13:32:01Z</time></trkpt><trkpt lat="44.686066708807594" lon="0.941570321590789"><ele>210.5</ele><time>2026-05-01T13:32:02Z</time></trkpt><trkpt lat="44.68616722112958" lon="0.9416732332248057"><ele>210.0</ele><time>2026-05-01T13:32:03Z</time></trkpt><trkpt lat="44.686269425956255" lon="0.9417318798995666"><ele>209.5</ele><time>2026-05-01T13:32:04Z</time></trkpt><trkpt lat="44.68639370253317" lon="0.9418034459859009"><ele>209.0</ele><time>2026-05-01T13:32:05Z</time></trkpt><trkpt lat="44.68649408967598" lon="0.9418691345867696"><ele>209.5</ele><time>2026-05-01T13:32:06Z</time></trkpt><trkpt lat="44.686602162783444" lon="0.941963727262958"><ele>210.0</ele><time>2026-05-01T13:32:07Z</time></trkpt><trkpt lat="44.6867165129741" lon="0.9420535517543119"><ele>210.5</ele><time>2026-05-01T13:32:08Z</time></trkpt><trkpt lat="44.68683692787783" lon="0.9421401080474338"><ele>211.0</ele><time>2026-05-01T13:32:09Z</time></trkpt><trkpt lat="44.68696425785394" lon="0.9422117152523934"><ele>211.0</ele><time>2026-05-01T13:32:10Z</time></trkpt><trkpt lat="44.687074670530734" lon="0.9422808914933369"><ele>211.0</ele><time>2026-05-01T13:32:11Z</time></trkpt><trkpt lat="44.6872053081786" lon="0.9423384687247355"><ele>211.0</ele><time>2026-05-01T13:32:12Z</time></trkpt><trkpt lat="44.68733647638057" lon="0.9423896048747505"><ele>211.0</ele><time>2026-05-01T13:32:13Z</time></trkpt><trkpt lat="44.68747759740478" lon="0.9424327417419656"><ele>211.0</ele><time>2026-05-01T13:32:14Z</time></trkpt><trkpt lat="44.68761354967964" lon="0.942494845080141"><ele>211.0</ele><time>2026-05-01T13:32:15Z</time></trkpt><trkpt lat="44.68772191927863" lon="0.9425516913044422"><ele>211.0</ele><time>2026-05-01T13:32:16Z</time></trkpt><trkpt lat="44.68783025605074" lon="0.9426053841853298"><ele>211.0</ele><time>2026-05-01T13:32:17Z</time></trkpt><trkpt lat="44.68792976329017" lon="0.9426945236079856"><ele>212.75</ele><time>2026-05-01T13:32:18Z</time></trkpt><trkpt lat="44.68802056971598" lon="0.9428109132243641"><ele>214.5</ele><time>2026-05-01T13:32:19Z</time></trkpt><trkpt lat="44.688107563319946" lon="0.9429370114854411"><ele>216.25</ele><time>2026-05-01T13:32:20Z</time></trkpt><trkpt lat="44.68819397000638" lon="0.9430194138055932"><ele>218.0</ele><time>2026-05-01T13:32:21Z</time></trkpt><trkpt lat="44.688296254480946" lon="0.9430646870742622"><ele>218.0</ele><time>2026-05-01T13:32:22Z</time></trkpt><trkpt lat="44.68838606255485" lon="0.9431377856264734"><ele>218.0</ele><time>2026-05-01T13:32:23Z</time></trkpt><trkpt lat="44.688449544047145" lon="0.9432465111592635"><ele>218.0</ele><time>2026-05-01T13:32:24Z</time></trkpt><trkpt lat="44.68851714621621" lon="0.9433666154544071"><ele>218.0</ele><time>2026-05-01T13:32:25Z</time></trkpt><trkpt lat="44.6885963928992" lon="0.943484142511113"><ele>218.0</ele><time>2026-05-01T13:32:26Z</time></trkpt><trkpt lat="44.68869059868572" lon="0.943619457686586"><ele>217.60000000000002</ele><time>2026-05-01T13:32:27Z</time></trkpt><trkpt lat="44.688780483426534" lon="0.9437245215392062"><ele>217.20000000000002</ele><time>2026-05-01T13:32:28Z</time></trkpt><trkpt lat="44.68883911165252" lon="0.9438058372506859"><ele>216.8</ele><time>2026-05-01T13:32:29Z</time></trkpt><trkpt lat="44.68890042163173" lon="0.9438898126314431"><ele>216.4</ele><time>2026-05-01T13:32:30Z</time></trkpt><trkpt lat="44.68902941144065" lon="0.9439638692017778"><ele>216.0</ele><time>2026-05-01T13:32:31Z</time></trkpt><trkpt lat="44.689148812112535" lon="0.9440076064171732"><ele>216.0</ele><time>2026-05-01T13:32:32Z</time></trkpt><trkpt lat="44.689247105449674" lon="0.9440457007979998"><ele>216.00000000000003</ele><time>2026-05-01T13:32:33Z</time></trkpt><trkpt lat="44.68935482003823" lon="0.9440623414417377"><ele>216.00000000000003</ele><time>2026-05-01T13:32:34Z</time></trkpt><trkpt lat="44.68947045322948" lon="0.9440712480787061"><ele>216.0</ele><time>2026-05-01T13:32:35Z</time></trkpt><trkpt lat="44.6895872205955" lon="0.944080041179631"><ele>216.0</ele><time>2026-05-01T13:32:36Z</time></trkpt><trkpt lat="44.68971307988431" lon="0.9440742207748164"><ele>215.25</ele><time>2026-05-01T13:32:37Z</time></trkpt><trkpt lat="44.68984384659131" lon="0.9440829211528242"><ele>214.5</ele><time>2026-05-01T13:32:38Z</time></trkpt><trkpt lat="44.68996634518597" lon="0.9441137691807755"><ele>213.75</ele><time>2026-05-01T13:32:39Z</time></trkpt><trkpt lat="44.69008429136362" lon="0.9441328621814405"><ele>213.0</ele><time>2026-05-01T13:32:40Z</time></trkpt><trkpt lat="44.69020690040678" lon="0.9441262773244956"><ele>213.0</ele><time>2026-05-01T13:32:41Z</time></trkpt><trkpt lat="44.69029548391559" lon="0.9441112920626936"><ele>213.0</ele><time>2026-05-01T13:32:42Z</time></trkpt><trkpt lat="44.690393064660945" lon="0.9440929231870978"><ele>213.0</ele><time>2026-05-01T13:32:43Z</time></trkpt><trkpt lat="44.69050268728067" lon="0.9441105225620658"><ele>213.0</ele><time>2026-05-01T13:32:44Z</time></trkpt><trkpt lat="44.69061305368439" lon="0.9441533799427235"><ele>213.0</ele><time>2026-05-01T13:32:45Z</time></trkpt><trkpt lat="44.6907090346155" lon="0.9442034589037726"><ele>213.0</ele><time>2026-05-01T13:32:46Z</time></trkpt><trkpt lat="44.690790880007526" lon="0.9442540189430626"><ele>213.0</ele><time>2026-05-01T13:32:47Z</time></trkpt><trkpt lat="44.69086513951227" lon="0.9443186075689229"><ele>213.0</ele><time>2026-05-01T13:32:48Z</time></trkpt><trkpt lat="44.69094913464556" lon="0.9444371977948988"><ele>213.0</ele><time>2026-05-01T13:32:50Z</time></trkpt><trkpt lat="44.69099661387308" lon="0.9445001418886321"><ele>213.0</ele><time>2026-05-01T13:32:52Z</time></trkpt><trkpt lat="44.691088098457186" lon="0.9445629782009647"><ele>214.4</ele><time>2026-05-01T13:32:55Z</time></trkpt><trkpt lat="44.69116068488907" lon="0.9447018595641857"><ele>215.8</ele><time>2026-05-01T13:32:57Z</time></trkpt><trkpt lat="44.691219490633365" lon="0.9448074264216735"><ele>217.2</ele><time>2026-05-01T13:32:58Z</time></trkpt><trkpt lat="44.69128962103957" lon="0.9449154316665198"><ele>218.6</ele><time>2026-05-01T13:32:59Z</time></trkpt><trkpt lat="44.69135526899524" lon="0.9450283028895756"><ele>220.0</ele><time>2026-05-01T13:33:00Z</time></trkpt><trkpt lat="44.691421329168314" lon="0.9451168328330319"><ele>221.16666666666666</ele><time>2026-05-01T13:33:01Z</time></trkpt><trkpt lat="44.69146681680215" lon="0.9451897341906234"><ele>222.33333333333331</ele><time>2026-05-01T13:33:02Z</time></trkpt><trkpt lat="44.69150225006221" lon="0.945278632063975"><ele>223.5</ele><time>2026-05-01T13:33:03Z</time></trkpt><trkpt lat="44.691546030293495" lon="0.945395638039391"><ele>224.66666666666669</ele><time>2026-05-01T13:33:04Z</time></trkpt><trkpt lat="44.691604783525406" lon="0.9455132344114203"><ele>225.83333333333334</ele><time>2026-05-01T13:33:05Z</time></trkpt><trkpt lat="44.69165523753322" lon="0.9456131412292794"><ele>227.0</ele><time>2026-05-01T13:33:06Z</time></trkpt><trkpt lat="44.69170958673296" lon="0.9457417726642479"><ele>227.0</ele><time>2026-05-01T13:33:07Z</time></trkpt><trkpt lat="44.69174519335379" lon="0.9458609494555316"><ele>227.0</ele><time>2026-05-01T13:33:08Z</time></trkpt><trkpt lat="44.691781865020076" lon="0.9459835798751751"><ele>227.0</ele><time>2026-05-01T13:33:09Z</time></trkpt><trkpt lat="44.6918124745613" lon="0.9461422041912118"><ele>227.0</ele><time>2026-05-01T13:33:10Z</time></trkpt><trkpt lat="44.69182351350539" lon="0.9462529981346847"><ele>227.0</ele><time>2026-05-01T13:33:11Z</time></trkpt><trkpt lat="44.691856560671084" lon="0.9463470406493221"><ele>227.8</ele><time>2026-05-01T13:33:12Z</time></trkpt><trkpt lat="44.69190064252277" lon="0.9464295205150218"><ele>228.6</ele><time>2026-05-01T13:33:13Z</time></trkpt><trkpt lat="44.69195885883469" lon="0.9465204836556055"><ele>229.40000000000003</ele><time>2026-05-01T13:33:14Z</time></trkpt><trkpt lat="44.692025450173226" lon="0.9466391780689026"><ele>230.20000000000002</ele><time>2026-05-01T13:33:15Z</time></trkpt><trkpt lat="44.692063699653175" lon="0.9467857503379287"><ele>231.0</ele><time>2026-05-01T13:33:16Z</time></trkpt><trkpt lat="44.692089968477724" lon="0.946894575932596"><ele>232.0</ele><time>2026-05-01T13:33:17Z</time></trkpt><trkpt lat="44.69215115750917" lon="0.9469868494831193"><ele>233.00000000000003</ele><time>2026-05-01T13:33:18Z</time></trkpt><trkpt lat="44.69221397903094" lon="0.9470724693179291"><ele>234.00000000000003</ele><time>2026-05-01T13:33:19Z</time></trkpt><trkpt lat="44.69226605331689" lon="0.9471860172413782"><ele>235.0</ele><time>2026-05-01T13:33:20Z</time></trkpt><trkpt lat="44.692298907514804" lon="0.9473407192636236"><ele>236.0</ele><time>2026-05-01T13:33:21Z</time></trkpt><trkpt lat="44.692303537973025" lon="0.9474743136836038"><ele>235.60000000000002</ele><time>2026-05-01T13:33:22Z</time></trkpt><trkpt lat="44.69230657301095" lon="0.9476504572992059"><ele>235.20000000000002</ele><time>2026-05-01T13:33:23Z</time></trkpt><trkpt lat="44.69231392869371" lon="0.9477908059556072"><ele>234.79999999999998</ele><time>2026-05-01T13:33:24Z</time></trkpt><trkpt lat="44.692333527220825" lon="0.9479171550007718"><ele>234.39999999999998</ele><time>2026-05-01T13:33:25Z</time></trkpt><trkpt lat="44.692337483424964" lon="0.9480290818844089"><ele>234.0</ele><time>2026-05-01T13:33:26Z</time></trkpt><trkpt lat="44.69236413541361" lon="0.9481671134163261"><ele>234.0</ele><time>2026-05-01T13:33:28Z</time></trkpt><trkpt lat="44.69241557855675" lon="0.948333009619279"><ele>233.99999999999997</ele><time>2026-05-01T13:33:30Z</time></trkpt><trkpt lat="44.69246028699501" lon="0.9484083365966095"><ele>233.99999999999997</ele><time>2026-05-01T13:33:31Z</time></trkpt><trkpt lat="44.6925110411386" lon="0.9485063427183763"><ele>234.0</ele><time>2026-05-01T13:33:32Z</time></trkpt><trkpt lat="44.69260117031919" lon="0.9485898112896671"><ele>234.0</ele><time>2026-05-01T13:33:34Z</time></trkpt><trkpt lat="44.69266451083937" lon="0.948627671319556"><ele>233.79999999999998</ele><time>2026-05-01T13:33:35Z</time></trkpt><trkpt lat="44.69274240214532" lon="0.9486416737388117"><ele>233.59999999999997</ele><time>2026-05-01T13:33:36Z</time></trkpt><trkpt lat="44.692840294072326" lon="0.9486560283583858"><ele>233.4</ele><time>2026-05-01T13:33:37Z</time></trkpt><trkpt lat="44.6929363461459" lon="0.948698718848214"><ele>233.2</ele><time>2026-05-01T13:33:38Z</time></trkpt><trkpt lat="44.69303950761954" lon="0.948782554832781"><ele>233.0</ele><time>2026-05-01T13:33:39Z</time></trkpt><trkpt lat="44.69313979104774" lon="0.9488846016003801"><ele>233.0</ele><time>2026-05-01T13:33:40Z</time></trkpt><trkpt lat="44.69320883877584" lon="0.9489862918450236"><ele>233.0</ele><time>2026-05-01T13:33:41Z</time></trkpt><trkpt lat="44.69328810789738" lon="0.9490991151311252"><ele>233.0</ele><time>2026-05-01T13:33:42Z</time></trkpt><trkpt lat="44.69335404048859" lon="0.9491919659972596"><ele>233.0</ele><time>2026-05-01T13:33:43Z</time></trkpt><trkpt lat="44.69342407433133" lon="0.9492728636897656"><ele>233.0</ele><time>2026-05-01T13:33:44Z</time></trkpt><trkpt lat="44.693507800951565" lon="0.949347085100793"><ele>232.00000000000003</ele><time>2026-05-01T13:33:45Z</time></trkpt><trkpt lat="44.693604493239235" lon="0.9493775151787427"><ele>231.0</ele><time>2026-05-01T13:33:46Z</time></trkpt><trkpt lat="44.693707745726726" lon="0.9493897734056157"><ele>230.0</ele><time>2026-05-01T13:33:47Z</time></trkpt><trkpt lat="44.69381145383316" lon="0.9493791125379835"><ele>229.0</ele><time>2026-05-01T13:33:48Z</time></trkpt><trkpt lat="44.6938846003448" lon="0.9493565176895504"><ele>228.00000000000003</ele><time>2026-05-01T13:33:49Z</time></trkpt><trkpt lat="44.69395022727811" lon="0.9493596460827677"><ele>227.0</ele><time>2026-05-01T13:33:50Z</time></trkpt><trkpt lat="44.69401108085114" lon="0.9493870390009035"><ele>227.0</ele><time>2026-05-01T13:33:51Z</time></trkpt><trkpt lat="44.69404050340739" lon="0.9494956762147851"><ele>227.0</ele><time>2026-05-01T13:33:52Z</time></trkpt><trkpt lat="44.694116034324885" lon="0.9496885233678625"><ele>227.0</ele><time>2026-05-01T13:33:54Z</time></trkpt><trkpt lat="44.69417009511158" lon="0.949819698457514"><ele>227.0</ele><time>2026-05-01T13:33:55Z</time></trkpt><trkpt lat="44.69421565296104" lon="0.9499714053934433"><ele>226.8</ele><time>2026-05-01T13:33:56Z</time></trkpt><trkpt lat="44.69425978624962" lon="0.9501359003633223"><ele>226.6</ele><time>2026-05-01T13:33:57Z</time></trkpt><trkpt lat="44.69430340778602" lon="0.9502825411322106"><ele>226.40000000000003</ele><time>2026-05-01T13:33:58Z</time></trkpt><trkpt lat="44.6943253668613" lon="0.9504283546419443"><ele>226.20000000000002</ele><time>2026-05-01T13:33:59Z</time></trkpt><trkpt lat="44.694365454658275" lon="0.9505581880760549"><ele>226.0</ele><time>2026-05-01T13:34:00Z</time></trkpt><trkpt lat="44.694421983147876" lon="0.9506913206997006"><ele>225.5</ele><time>2026-05-01T13:34:01Z</time></trkpt><trkpt lat="44.694491657902994" lon="0.950818555347138"><ele>225.0</ele><time>2026-05-01T13:34:02Z</time></trkpt><trkpt lat="44.694556358494395" lon="0.9509240790895989"><ele>224.5</ele><time>2026-05-01T13:34:03Z</time></trkpt><trkpt lat="44.69465014157429" lon="0.951058527853502"><ele>224.0</ele><time>2026-05-01T13:34:04Z</time></trkpt><trkpt lat="44.69474496114871" lon="0.9512168811247951"><ele>222.75</ele><time>2026-05-01T13:34:05Z</time></trkpt><trkpt lat="44.694807678359496" lon="0.9513833928984855"><ele>221.5</ele><time>2026-05-01T13:34:06Z</time></trkpt><trkpt lat="44.6948813647214" lon="0.9515403180985393"><ele>220.25</ele><time>2026-05-01T13:34:07Z</time></trkpt><trkpt lat="44.69494992970526" lon="0.9517179646102257"><ele>219.0</ele><time>2026-05-01T13:34:08Z</time></trkpt><trkpt lat="44.69500410227686" lon="0.9518928465508479"><ele>217.75</ele><time>2026-05-01T13:34:09Z</time></trkpt><trkpt lat="44.69505067491324" lon="0.9520490150917121"><ele>216.5</ele><time>2026-05-01T13:34:10Z</time></trkpt><trkpt lat="44.69512144930911" lon="0.9522586306152738"><ele>215.25</ele><time>2026-05-01T13:34:11Z</time></trkpt><trkpt lat="44.69514421815997" lon="0.9524329366417569"><ele>214.0</ele><time>2026-05-01T13:34:12Z</time></trkpt><trkpt lat="44.69516693533985" lon="0.9526135025173024"><ele>213.5</ele><time>2026-05-01T13:34:13Z</time></trkpt><trkpt lat="44.695182536776514" lon="0.9527786853073611"><ele>213.0</ele><time>2026-05-01T13:34:14Z</time></trkpt><trkpt lat="44.69519640758148" lon="0.952983584318317"><ele>212.5</ele><time>2026-05-01T13:34:15Z</time></trkpt><trkpt lat="44.6952062843202" lon="0.953150666767085"><ele>212.0</ele><time>2026-05-01T13:34:16Z</time></trkpt><trkpt lat="44.695226133665585" lon="0.9532859726918512"><ele>211.66666666666669</ele><time>2026-05-01T13:34:17Z</time></trkpt><trkpt lat="44.695216514647676" lon="0.9533998500993156"><ele>211.33333333333334</ele><time>2026-05-01T13:34:18Z</time></trkpt><trkpt lat="44.69522339746537" lon="0.9535023732526501"><ele>211.0</ele><time>2026-05-01T13:34:19Z</time></trkpt><trkpt lat="44.69526570134163" lon="0.9536103026920831"><ele>210.66666666666669</ele><time>2026-05-01T13:34:20Z</time></trkpt><trkpt lat="44.695289322347044" lon="0.9537230644907966"><ele>210.33333333333334</ele><time>2026-05-01T13:34:21Z</time></trkpt><trkpt lat="44.69531601070138" lon="0.9538175442521224"><ele>210.0</ele><time>2026-05-01T13:34:22Z</time></trkpt><trkpt lat="44.69537474649724" lon="0.9539139722907517"><ele>211.75</ele><time>2026-05-01T13:34:23Z</time></trkpt><trkpt lat="44.69545538583378" lon="0.9540120637790945"><ele>213.5</ele><time>2026-05-01T13:34:24Z</time></trkpt><trkpt lat="44.69552399370478" lon="0.9541148418290063"><ele>215.25</ele><time>2026-05-01T13:34:25Z</time></trkpt><trkpt lat="44.695629765823384" lon="0.9542649595270408"><ele>217.0</ele><time>2026-05-01T13:34:26Z</time></trkpt><trkpt lat="44.69571376072995" lon="0.9544025079429025"><ele>218.25</ele><time>2026-05-01T13:34:27Z</time></trkpt><trkpt lat="44.69581224550134" lon="0.9545119895237457"><ele>219.5</ele><time>2026-05-01T13:34:28Z</time></trkpt><trkpt lat="44.695937289293504" lon="0.9545916128510142"><ele>220.75</ele><time>2026-05-01T13:34:29Z</time></trkpt><trkpt lat="44.696060940416714" lon="0.9546649226130408"><ele>222.0</ele><time>2026-05-01T13:34:30Z</time></trkpt><trkpt lat="44.696188922958285" lon="0.9547508028317959"><ele>224.0</ele><time>2026-05-01T13:34:31Z</time></trkpt><trkpt lat="44.69630261356192" lon="0.954827099303096"><ele>226.0</ele><time>2026-05-01T13:34:32Z</time></trkpt><trkpt lat="44.69642211719983" lon="0.9549056873738739"><ele>228.0</ele><time>2026-05-01T13:34:33Z</time></trkpt><trkpt lat="44.69653711180943" lon="0.9549929741114667"><ele>230.0</ele><time>2026-05-01T13:34:34Z</time></trkpt><trkpt lat="44.69662884853388" lon="0.955066089155121"><ele>230.6</ele><time>2026-05-01T13:34:35Z</time></trkpt><trkpt lat="44.696709977218745" lon="0.9551529193576362"><ele>231.2</ele><time>2026-05-01T13:34:36Z</time></trkpt><trkpt lat="44.69677094080258" lon="0.9552785871420338"><ele>231.8</ele><time>2026-05-01T13:34:37Z</time></trkpt><trkpt lat="44.69680507027397" lon="0.9554140608958591"><ele>232.4</ele><time>2026-05-01T13:34:38Z</time></trkpt><trkpt lat="44.696837475471746" lon="0.9555694375280993"><ele>233.0</ele><time>2026-05-01T13:34:39Z</time></trkpt><trkpt lat="44.696865047552585" lon="0.955746229100017"><ele>234.0</ele><time>2026-05-01T13:34:40Z</time></trkpt><trkpt lat="44.696931336254565" lon="0.9558892733536476"><ele>235.0</ele><time>2026-05-01T13:34:41Z</time></trkpt><trkpt lat="44.69700958585844" lon="0.9560304790012145"><ele>236.0</ele><time>2026-05-01T13:34:42Z</time></trkpt><trkpt lat="44.69709391637798" lon="0.956145073706865"><ele>237.0</ele><time>2026-05-01T13:34:43Z</time></trkpt><trkpt lat="44.69718967370657" lon="0.9562532539584182"><ele>237.0</ele><time>2026-05-01T13:34:44Z</time></trkpt><trkpt lat="44.69728370314036" lon="0.956354211491007"><ele>237.0</ele><time>2026-05-01T13:34:45Z</time></trkpt><trkpt lat="44.697379107860186" lon="0.9564401855052495"><ele>237.0</ele><time>2026-05-01T13:34:46Z</time></trkpt><trkpt lat="44.69746241637498" lon="0.9565486184357833"><ele>237.0</ele><time>2026-05-01T13:34:47Z</time></trkpt><trkpt lat="44.69751607590343" lon="0.95665972576809"><ele>237.0</ele><time>2026-05-01T13:34:48Z</time></trkpt><trkpt lat="44.6975645202901" lon="0.9568130608328648"><ele>237.25</ele><time>2026-05-01T13:34:49Z</time></trkpt><trkpt lat="44.69761829408607" lon="0.9569816622212867"><ele>237.5</ele><time>2026-05-01T13:34:50Z</time></trkpt><trkpt lat="44.69768108676836" lon="0.9571428676501698"><ele>237.75</ele><time>2026-05-01T13:34:51Z</time></trkpt><trkpt lat="44.69775127192281" lon="0.9572936931755928"><ele>238.0</ele><time>2026-05-01T13:34:52Z</time></trkpt><trkpt lat="44.69785300170856" lon="0.9574946483131582"><ele>238.25</ele><time>2026-05-01T13:34:53Z</time></trkpt><trkpt lat="44.6979461098034" lon="0.9576549668315154"><ele>238.5</ele><time>2026-05-01T13:34:54Z</time></trkpt><trkpt lat="44.6980203918857" lon="0.957780642666135"><ele>238.75</ele><time>2026-05-01T13:34:55Z</time></trkpt><trkpt lat="44.698079193837756" lon="0.9579236299484721"><ele>239.0</ele><time>2026-05-01T13:34:56Z</time></trkpt><trkpt lat="44.698139877511416" lon="0.9580820385006337"><ele>239.0</ele><time>2026-05-01T13:34:57Z</time></trkpt><trkpt lat="44.698185610682295" lon="0.9582432831567431"><ele>239.0</ele><time>2026-05-01T13:34:58Z</time></trkpt><trkpt lat="44.69823512415886" lon="0.9583786344713096"><ele>239.0</ele><time>2026-05-01T13:34:59Z</time></trkpt><trkpt lat="44.698298824791074" lon="0.9585009604059495"><ele>239.0</ele><time>2026-05-01T13:35:00Z</time></trkpt><trkpt lat="44.69838347365671" lon="0.9586093798948088"><ele>239.0</ele><time>2026-05-01T13:35:01Z</time></trkpt><trkpt lat="44.69849174239843" lon="0.9587042097159355"><ele>239.0</ele><time>2026-05-01T13:35:02Z</time></trkpt><trkpt lat="44.69861253468586" lon="0.9587931151415847"><ele>239.0</ele><time>2026-05-01T13:35:03Z</time></trkpt><trkpt lat="44.69873172924255" lon="0.9588614792726149"><ele>239.0</ele><time>2026-05-01T13:35:04Z</time></trkpt><trkpt lat="44.698853067120965" lon="0.9589306548498537"><ele>239.79999999999998</ele><time>2026-05-01T13:35:05Z</time></trkpt><trkpt lat="44.69896252521509" lon="0.9589945764047659"><ele>240.59999999999997</ele><time>2026-05-01T13:35:06Z</time></trkpt><trkpt lat="44.699050791303506" lon="0.959075585255414"><ele>241.4</ele><time>2026-05-01T13:35:07Z</time></trkpt><trkpt lat="44.69912903335346" lon="0.9591351799419714"><ele>242.2</ele><time>2026-05-01T13:35:08Z</time></trkpt><trkpt lat="44.699184929037735" lon="0.959189448793382"><ele>243.0</ele><time>2026-05-01T13:35:09Z</time></trkpt><trkpt lat="44.69924886568802" lon="0.9592615268704767"><ele>243.33333333333331</ele><time>2026-05-01T13:35:11Z</time></trkpt><trkpt lat="44.69929898760686" lon="0.9593169065407504"><ele>243.66666666666666</ele><time>2026-05-01T13:35:12Z</time></trkpt><trkpt lat="44.69938309546361" lon="0.9594637898239735"><ele>244.0</ele><time>2026-05-01T13:35:14Z</time></trkpt><trkpt lat="44.69978206607658" lon="0.9591747739703785"><ele>244.5</ele><time>2026-05-01T13:35:16Z</time></trkpt><trkpt lat="44.699898530242045" lon="0.9592197258929164"><ele>245.0</ele><time>2026-05-01T13:35:17Z</time></trkpt><trkpt lat="44.70002355123654" lon="0.9592581614220412"><ele>245.5</ele><time>2026-05-01T13:35:18Z</time></trkpt><trkpt lat="44.700126830816686" lon="0.9592962582428932"><ele>246.0</ele><time>2026-05-01T13:35:19Z</time></trkpt><trkpt lat="44.70024769572679" lon="0.9593270592234147"><ele>245.5</ele><time>2026-05-01T13:35:20Z</time></trkpt><trkpt lat="44.70036344939171" lon="0.9593319699977568"><ele>245.0</ele><time>2026-05-01T13:35:21Z</time></trkpt><trkpt lat="44.70049682751464" lon="0.9593211265489332"><ele>244.5</ele><time>2026-05-01T13:35:22Z</time></trkpt><trkpt lat="44.70060643577959" lon="0.9593118100916148"><ele>244.0</ele><time>2026-05-01T13:35:23Z</time></trkpt><trkpt lat="44.70071131998767" lon="0.9592855728612001"><ele>244.0</ele><time>2026-05-01T13:35:24Z</time></trkpt><trkpt lat="44.700806413505376" lon="0.9592162331260298"><ele>243.99999999999997</ele><time>2026-05-01T13:35:25Z</time></trkpt><trkpt lat="44.70089788190919" lon="0.9592017781829031"><ele>243.99999999999997</ele><time>2026-05-01T13:35:26Z</time></trkpt><trkpt lat="44.70097964084608" lon="0.9592146069619858"><ele>244.0</ele><time>2026-05-01T13:35:27Z</time></trkpt><trkpt lat="44.70106722138366" lon="0.9592320505309724"><ele>244.0</ele><time>2026-05-01T13:35:28Z</time></trkpt><trkpt lat="44.70114722146944" lon="0.9592480640361998"><ele>245.0</ele><time>2026-05-01T13:35:29Z</time></trkpt><trkpt lat="44.70126004187338" lon="0.9592489977108378"><ele>246.0</ele><time>2026-05-01T13:35:30Z</time></trkpt><trkpt lat="44.70139301285659" lon="0.9592541636529142"><ele>247.0</ele><time>2026-05-01T13:35:31Z</time></trkpt><trkpt lat="44.70153672910148" lon="0.9592629237218184"><ele>248.0</ele><time>2026-05-01T13:35:32Z</time></trkpt><trkpt lat="44.701634541018805" lon="0.9592770496689808"><ele>248.0</ele><time>2026-05-01T13:35:33Z</time></trkpt><trkpt lat="44.70176726900704" lon="0.9592834828596726"><ele>248.0</ele><time>2026-05-01T13:35:34Z</time></trkpt><trkpt lat="44.701880456689985" lon="0.9592630663424645"><ele>248.0</ele><time>2026-05-01T13:35:35Z</time></trkpt><trkpt lat="44.70201198856766" lon="0.9592723834216199"><ele>248.0</ele><time>2026-05-01T13:35:36Z</time></trkpt><trkpt lat="44.702135223196905" lon="0.9593119304068431"><ele>249.4</ele><time>2026-05-01T13:35:37Z</time></trkpt><trkpt lat="44.70225205986827" lon="0.9593399279063631"><ele>250.8</ele><time>2026-05-01T13:35:38Z</time></trkpt><trkpt lat="44.702373406661174" lon="0.9593660247806263"><ele>252.2</ele><time>2026-05-01T13:35:39Z</time></trkpt><trkpt lat="44.70248215868217" lon="0.959399137653268"><ele>253.6</ele><time>2026-05-01T13:35:40Z</time></trkpt><trkpt lat="44.70255229606011" lon="0.9594586920143255"><ele>255.0</ele><time>2026-05-01T13:35:42Z</time></trkpt><trkpt lat="44.70259906413092" lon="0.9595323232418262"><ele>255.0</ele><time>2026-05-01T13:35:44Z</time></trkpt><trkpt lat="44.70265701515449" lon="0.9595805811440891"><ele>255.0</ele><time>2026-05-01T13:35:46Z</time></trkpt><trkpt lat="44.70270778199016" lon="0.9596397359393506"><ele>255.0</ele><time>2026-05-01T13:35:47Z</time></trkpt><trkpt lat="44.702817205268374" lon="0.9597582402518307"><ele>255.0</ele><time>2026-05-01T13:35:49Z</time></trkpt><trkpt lat="44.70291787730892" lon="0.9597994756295795"><ele>255.0</ele><time>2026-05-01T13:35:50Z</time></trkpt><trkpt lat="44.70300522540439" lon="0.9598021076089919"><ele>256.8</ele><time>2026-05-01T13:35:51Z</time></trkpt><trkpt lat="44.70310010175401" lon="0.9598111982795552"><ele>258.6</ele><time>2026-05-01T13:35:52Z</time></trkpt><trkpt lat="44.70318875023867" lon="0.9598553705881532"><ele>260.4</ele><time>2026-05-01T13:35:54Z</time></trkpt><trkpt lat="44.703173542534074" lon="0.9600149322200253"><ele>262.2</ele><time>2026-05-01T13:35:56Z</time></trkpt><trkpt lat="44.70314361281284" lon="0.9601435628469256"><ele>264.0</ele><time>2026-05-01T13:35:57Z</time></trkpt><trkpt lat="44.70310373736037" lon="0.9602959936601746"><ele>265.3333333333333</ele><time>2026-05-01T13:35:58Z</time></trkpt><trkpt lat="44.703069393905146" lon="0.9604761094084314"><ele>266.66666666666663</ele><time>2026-05-01T13:35:59Z</time></trkpt><trkpt lat="44.70301558988628" lon="0.9606808096077909"><ele>268.0</ele><time>2026-05-01T13:36:00Z</time></trkpt><trkpt lat="44.702947779069326" lon="0.9609100510309742"><ele>269.5</ele><time>2026-05-01T13:36:01Z</time></trkpt><trkpt lat="44.70289823457203" lon="0.9610913028278409"><ele>271.0</ele><time>2026-05-01T13:36:02Z</time></trkpt><trkpt lat="44.70284559107535" lon="0.9612457520372609"><ele>272.5</ele><time>2026-05-01T13:36:03Z</time></trkpt><trkpt lat="44.70279861468404" lon="0.9613697571138099"><ele>274.0</ele><time>2026-05-01T13:36:04Z</time></trkpt><trkpt lat="44.70276600717292" lon="0.9614890373680056"><ele>272.0</ele><time>2026-05-01T13:36:05Z</time></trkpt><trkpt lat="44.7027416150285" lon="0.9616077478370505"><ele>270.0</ele><time>2026-05-01T13:36:06Z</time></trkpt><trkpt lat="44.70272997374787" lon="0.9616992788496349"><ele>268.0</ele><time>2026-05-01T13:36:07Z</time></trkpt><trkpt lat="44.702726237065136" lon="0.9618207119158408"><ele>266.0</ele><time>2026-05-01T13:36:08Z</time></trkpt><trkpt lat="44.702734429728785" lon="0.9619549940913766"><ele>264.0</ele><time>2026-05-01T13:36:09Z</time></trkpt><trkpt lat="44.70273231008834" lon="0.9620560132872539"><ele>262.0</ele><time>2026-05-01T13:36:10Z</time></trkpt><trkpt lat="44.7027320236475" lon="0.9621505668214664"><ele>263.5</ele><time>2026-05-01T13:36:11Z</time></trkpt><trkpt lat="44.702751777127595" lon="0.962273079937141"><ele>265.0</ele><time>2026-05-01T13:36:12Z</time></trkpt><trkpt lat="44.70279050650667" lon="0.9623854633195698"><ele>266.5</ele><time>2026-05-01T13:36:13Z</time></trkpt><trkpt lat="44.7028338440236" lon="0.9624718324715363"><ele>268.0</ele><time>2026-05-01T13:36:14Z</time></trkpt><trkpt lat="44.702890675462044" lon="0.9625641991121195"><ele>269.5</ele><time>2026-05-01T13:36:15Z</time></trkpt><trkpt lat="44.70295096298574" lon="0.9626611507242108"><ele>271.0</ele><time>2026-05-01T13:36:16Z</time></trkpt><trkpt lat="44.703006453487106" lon="0.9627733089321433"><ele>271.0</ele><time>2026-05-01T13:36:17Z</time></trkpt><trkpt lat="44.70303709825801" lon="0.9628915248834584"><ele>271.0</ele><time>2026-05-01T13:36:18Z</time></trkpt><trkpt lat="44.703045610786695" lon="0.9630029788206412"><ele>271.0</ele><time>2026-05-01T13:36:19Z</time></trkpt><trkpt lat="44.703036703978285" lon="0.9631211198767697"><ele>271.0</ele><time>2026-05-01T13:36:20Z</time></trkpt><trkpt lat="44.70308728478607" lon="0.9632711061251511"><ele>271.0</ele><time>2026-05-01T13:36:22Z</time></trkpt><trkpt lat="44.70314007693732" lon="0.9633286494786885"><ele>271.0</ele><time>2026-05-01T13:36:23Z</time></trkpt><trkpt lat="44.70319500438938" lon="0.9634039215937407"><ele>271.5</ele><time>2026-05-01T13:36:24Z</time></trkpt><trkpt lat="44.703258736989184" lon="0.9634868274872248"><ele>272.0</ele><time>2026-05-01T13:36:25Z</time></trkpt><trkpt lat="44.70332451078216" lon="0.9635741631059745"><ele>272.5</ele><time>2026-05-01T13:36:26Z</time></trkpt><trkpt lat="44.70339350890871" lon="0.963671695327095"><ele>273.0</ele><time>2026-05-01T13:36:27Z</time></trkpt><trkpt lat="44.70345196272184" lon="0.963767412658106"><ele>273.5</ele><time>2026-05-01T13:36:28Z</time></trkpt><trkpt lat="44.70349388896073" lon="0.9638508214390912"><ele>274.0</ele><time>2026-05-01T13:36:29Z</time></trkpt><trkpt lat="44.70351075755167" lon="0.9640133259753194"><ele>274.0</ele><time>2026-05-01T13:36:31Z</time></trkpt><trkpt lat="44.703508675148825" lon="0.9641043206431392"><ele>274.0</ele><time>2026-05-01T13:36:32Z</time></trkpt><trkpt lat="44.703513659432296" lon="0.9642143894192449"><ele>274.0</ele><time>2026-05-01T13:36:33Z</time></trkpt><trkpt lat="44.703535827336474" lon="0.9643446983792414"><ele>274.0</ele><time>2026-05-01T13:36:34Z</time></trkpt><trkpt lat="44.70355459790434" lon="0.9644605026474686"><ele>274.0</ele><time>2026-05-01T13:36:35Z</time></trkpt><trkpt lat="44.70354835594741" lon="0.9645548990360837"><ele>274.0</ele><time>2026-05-01T13:36:36Z</time></trkpt><trkpt lat="44.703477298051205" lon="0.9646870324478901"><ele>274.66666666666663</ele><time>2026-05-01T13:36:38Z</time></trkpt><trkpt lat="44.70342027907493" lon="0.9647580831473597"><ele>275.3333333333333</ele><time>2026-05-01T13:36:39Z</time></trkpt><trkpt lat="44.70334526798256" lon="0.964857666084143"><ele>276.0</ele><time>2026-05-01T13:36:40Z</time></trkpt><trkpt lat="44.7032973667113" lon="0.9649703685529428"><ele>276.6666666666667</ele><time>2026-05-01T13:36:41Z</time></trkpt><trkpt lat="44.703275198173685" lon="0.9650884888522939"><ele>277.33333333333337</ele><time>2026-05-01T13:36:42Z</time></trkpt><trkpt lat="44.703255888363394" lon="0.9651744542135725"><ele>278.0</ele><time>2026-05-01T13:36:43Z</time></trkpt><trkpt lat="44.70323690013584" lon="0.965268372383366"><ele>278.0</ele><time>2026-05-01T13:36:44Z</time></trkpt><trkpt lat="44.70320835583294" lon="0.9653539408435265"><ele>278.0</ele><time>2026-05-01T13:36:45Z</time></trkpt><trkpt lat="44.70318273776378" lon="0.9654448957024558"><ele>278.0</ele><time>2026-05-01T13:36:46Z</time></trkpt><trkpt lat="44.703164598566296" lon="0.9655385427362451"><ele>278.0</ele><time>2026-05-01T13:36:47Z</time></trkpt><trkpt lat="44.703141247993514" lon="0.9656477990803024"><ele>278.0</ele><time>2026-05-01T13:36:48Z</time></trkpt><trkpt lat="44.70311092288357" lon="0.9657587712688346"><ele>278.0</ele><time>2026-05-01T13:36:49Z</time></trkpt><trkpt lat="44.703087063761146" lon="0.9658675702334582"><ele>278.2</ele><time>2026-05-01T13:36:50Z</time></trkpt><trkpt lat="44.703055402422756" lon="0.9659911675381084"><ele>278.4</ele><time>2026-05-01T13:36:51Z</time></trkpt><trkpt lat="44.703024599510144" lon="0.9661317844229997"><ele>278.59999999999997</ele><time>2026-05-01T13:36:52Z</time></trkpt><trkpt lat="44.702999308347174" lon="0.9662641745707397"><ele>278.8</ele><time>2026-05-01T13:36:53Z</time></trkpt><trkpt lat="44.70296884740178" lon="0.966395926621339"><ele>279.0</ele><time>2026-05-01T13:36:54Z</time></trkpt><trkpt lat="44.70293791833678" lon="0.966543930654036"><ele>279.0</ele><time>2026-05-01T13:36:55Z</time></trkpt><trkpt lat="44.70291043230811" lon="0.9666803818678856"><ele>279.0</ele><time>2026-05-01T13:36:56Z</time></trkpt><trkpt lat="44.70289493021462" lon="0.9668010442509868"><ele>279.0</ele><time>2026-05-01T13:36:57Z</time></trkpt><trkpt lat="44.702877271389795" lon="0.9669325279730627"><ele>279.0</ele><time>2026-05-01T13:36:58Z</time></trkpt><trkpt lat="44.702870507478956" lon="0.9670719373690359"><ele>279.0</ele><time>2026-05-01T13:36:59Z</time></trkpt><trkpt lat="44.70287058502511" lon="0.9672399035028698"><ele>279.5</ele><time>2026-05-01T13:37:00Z</time></trkpt><trkpt lat="44.702880227412166" lon="0.9674076163820052"><ele>280.0</ele><time>2026-05-01T13:37:01Z</time></trkpt><trkpt lat="44.702888429525615" lon="0.9675824870544519"><ele>280.5</ele><time>2026-05-01T13:37:02Z</time></trkpt><trkpt lat="44.70290042753733" lon="0.9677641548887669"><ele>281.0</ele><time>2026-05-01T13:37:03Z</time></trkpt><trkpt lat="44.70291281427955" lon="0.9679586892310542"><ele>281.0</ele><time>2026-05-01T13:37:04Z</time></trkpt><trkpt lat="44.70292000102664" lon="0.9681340828809843"><ele>281.0</ele><time>2026-05-01T13:37:05Z</time></trkpt><trkpt lat="44.70293160762545" lon="0.9683082659688997"><ele>281.0</ele><time>2026-05-01T13:37:06Z</time></trkpt><trkpt lat="44.70291759368994" lon="0.9684933517272329"><ele>281.0</ele><time>2026-05-01T13:37:07Z</time></trkpt><trkpt lat="44.70296291835462" lon="0.9686784017247015"><ele>281.0</ele><time>2026-05-01T13:37:08Z</time></trkpt><trkpt lat="44.70299560893318" lon="0.9688443637567933"><ele>281.0</ele><time>2026-05-01T13:37:09Z</time></trkpt><trkpt lat="44.703034842310565" lon="0.9690320707408049"><ele>281.0</ele><time>2026-05-01T13:37:10Z</time></trkpt><trkpt lat="44.70307374589738" lon="0.9692083700925866"><ele>281.0</ele><time>2026-05-01T13:37:11Z</time></trkpt><trkpt lat="44.703110076362364" lon="0.9693973057891899"><ele>281.0</ele><time>2026-05-01T13:37:12Z</time></trkpt><trkpt lat="44.70314013510269" lon="0.969589600456115"><ele>281.0</ele><time>2026-05-01T13:37:13Z</time></trkpt><trkpt lat="44.70316864422522" lon="0.9697795385171901"><ele>281.0</ele><time>2026-05-01T13:37:14Z</time></trkpt><trkpt lat="44.703199202229996" lon="0.9699831267227208"><ele>281.0</ele><time>2026-05-01T13:37:15Z</time></trkpt><trkpt lat="44.703230184167516" lon="0.9701611799248052"><ele>281.25</ele><time>2026-05-01T13:37:16Z</time></trkpt><trkpt lat="44.70326299345253" lon="0.9703439182395585"><ele>281.5</ele><time>2026-05-01T13:37:17Z</time></trkpt><trkpt lat="44.70329355202369" lon="0.9705095699787909"><ele>281.75</ele><time>2026-05-01T13:37:18Z</time></trkpt><trkpt lat="44.70334091724412" lon="0.970673985744124"><ele>282.0</ele><time>2026-05-01T13:37:19Z</time></trkpt><trkpt lat="44.703377245315664" lon="0.9708455615229781"><ele>282.0</ele><time>2026-05-01T13:37:20Z</time></trkpt><trkpt lat="44.703400120568666" lon="0.971012188543174"><ele>282.0</ele><time>2026-05-01T13:37:21Z</time></trkpt><trkpt lat="44.703442780132626" lon="0.9711759114542979"><ele>282.0</ele><time>2026-05-01T13:37:22Z</time></trkpt><trkpt lat="44.703514270137404" lon="0.9713285298180357"><ele>282.0</ele><time>2026-05-01T13:37:23Z</time></trkpt><trkpt lat="44.70358598376775" lon="0.9715091841107919"><ele>282.0</ele><time>2026-05-01T13:37:24Z</time></trkpt><trkpt lat="44.70367202394609" lon="0.9716046006478467"><ele>282.0</ele><time>2026-05-01T13:37:25Z</time></trkpt><trkpt lat="44.70375169391403" lon="0.9717351966747727"><ele>282.0</ele><time>2026-05-01T13:37:26Z</time></trkpt><trkpt lat="44.703873213720236" lon="0.9718530577107364"><ele>282.0</ele><time>2026-05-01T13:37:27Z</time></trkpt><trkpt lat="44.70397773178607" lon="0.9719676007930665"><ele>281.8</ele><time>2026-05-01T13:37:28Z</time></trkpt><trkpt lat="44.70407857981786" lon="0.9720869090714587"><ele>281.6</ele><time>2026-05-01T13:37:29Z</time></trkpt><trkpt lat="44.70416092468258" lon="0.972188011657171"><ele>281.40000000000003</ele><time>2026-05-01T13:37:30Z</time></trkpt><trkpt lat="44.7042315108226" lon="0.9722716479051892"><ele>281.2</ele><time>2026-05-01T13:37:31Z</time></trkpt><trkpt lat="44.70429359428716" lon="0.9723632178292749"><ele>281.0</ele><time>2026-05-01T13:37:32Z</time></trkpt><trkpt lat="44.70433584069364" lon="0.972468769050099"><ele>280.83333333333337</ele><time>2026-05-01T13:37:33Z</time></trkpt><trkpt lat="44.70431500819277" lon="0.9725844180018659"><ele>280.6666666666667</ele><time>2026-05-01T13:37:34Z</time></trkpt><trkpt lat="44.704318914430544" lon="0.9727027174865744"><ele>280.5</ele><time>2026-05-01T13:37:35Z</time></trkpt><trkpt lat="44.704337296689964" lon="0.9728367759638027"><ele>280.3333333333333</ele><time>2026-05-01T13:37:36Z</time></trkpt><trkpt lat="44.704340010528895" lon="0.9729664673095422"><ele>280.16666666666663</ele><time>2026-05-01T13:37:37Z</time></trkpt><trkpt lat="44.704336076236636" lon="0.9730909269962986"><ele>280.0</ele><time>2026-05-01T13:37:38Z</time></trkpt><trkpt lat="44.70433962662402" lon="0.9732137543515884"><ele>280.0</ele><time>2026-05-01T13:37:39Z</time></trkpt><trkpt lat="44.70434325391509" lon="0.97335089343818"><ele>280.0</ele><time>2026-05-01T13:37:40Z</time></trkpt><trkpt lat="44.70435230106159" lon="0.9734967732693686"><ele>280.0</ele><time>2026-05-01T13:37:41Z</time></trkpt><trkpt lat="44.70437075138524" lon="0.9736814527949769"><ele>280.0</ele><time>2026-05-01T13:37:42Z</time></trkpt><trkpt lat="44.704392023573746" lon="0.9738527505523982"><ele>280.4</ele><time>2026-05-01T13:37:43Z</time></trkpt><trkpt lat="44.70438246995966" lon="0.9740037022588915"><ele>280.8</ele><time>2026-05-01T13:37:44Z</time></trkpt><trkpt lat="44.7043816785288" lon="0.9741444169024361"><ele>281.2</ele><time>2026-05-01T13:37:45Z</time></trkpt><trkpt lat="44.704387021359985" lon="0.974288982620265"><ele>281.6</ele><time>2026-05-01T13:37:46Z</time></trkpt><trkpt lat="44.704371109633776" lon="0.9744345296606982"><ele>282.0</ele><time>2026-05-01T13:37:47Z</time></trkpt><trkpt lat="44.70435797191588" lon="0.9745934514512199"><ele>282.8</ele><time>2026-05-01T13:37:48Z</time></trkpt><trkpt lat="44.70436083560755" lon="0.97474064364839"><ele>283.6</ele><time>2026-05-01T13:37:49Z</time></trkpt><trkpt lat="44.70434237830473" lon="0.9748638518552459"><ele>284.40000000000003</ele><time>2026-05-01T13:37:50Z</time></trkpt><trkpt lat="44.7043241888378" lon="0.9749898610170018"><ele>285.2</ele><time>2026-05-01T13:37:51Z</time></trkpt><trkpt lat="44.70430278642892" lon="0.9751413179310585"><ele>286.0</ele><time>2026-05-01T13:37:52Z</time></trkpt><trkpt lat="44.704284251625964" lon="0.9752793238785867"><ele>286.2</ele><time>2026-05-01T13:37:53Z</time></trkpt><trkpt lat="44.7042513720776" lon="0.9754371911216992"><ele>286.40000000000003</ele><time>2026-05-01T13:37:54Z</time></trkpt><trkpt lat="44.70420972846458" lon="0.9755804507854857"><ele>286.6</ele><time>2026-05-01T13:37:55Z</time></trkpt><trkpt lat="44.70416729127118" lon="0.9757106113390501"><ele>286.8</ele><time>2026-05-01T13:37:56Z</time></trkpt><trkpt lat="44.70414349621023" lon="0.975817442182501"><ele>287.0</ele><time>2026-05-01T13:37:57Z</time></trkpt><trkpt lat="44.70413132592902" lon="0.9759474727709684"><ele>286.6666666666667</ele><time>2026-05-01T13:37:58Z</time></trkpt><trkpt lat="44.70413422803512" lon="0.9760902997392147"><ele>286.33333333333337</ele><time>2026-05-01T13:37:59Z</time></trkpt><trkpt lat="44.70415962238033" lon="0.9762119321692219"><ele>286.0</ele><time>2026-05-01T13:38:00Z</time></trkpt><trkpt lat="44.70421808598971" lon="0.9763008148938451"><ele>285.6666666666667</ele><time>2026-05-01T13:38:02Z</time></trkpt><trkpt lat="44.70429532977537" lon="0.9762921833749583"><ele>285.3333333333333</ele><time>2026-05-01T13:38:04Z</time></trkpt><trkpt lat="44.7043637215796" lon="0.9762024860340471"><ele>285.0</ele><time>2026-05-01T13:38:06Z</time></trkpt><trkpt lat="44.70440478198362" lon="0.9761268685215269"><ele>284.6</ele><time>2026-05-01T13:38:07Z</time></trkpt><trkpt lat="44.7044559618771" lon="0.976041121439723"><ele>284.2</ele><time>2026-05-01T13:38:08Z</time></trkpt><trkpt lat="44.70454173274113" lon="0.9759417423095367"><ele>283.8</ele><time>2026-05-01T13:38:09Z</time></trkpt><trkpt lat="44.704625774853255" lon="0.975847016911499"><ele>283.4</ele><time>2026-05-01T13:38:10Z</time></trkpt><trkpt lat="44.70472513042748" lon="0.9757423278351036"><ele>283.0</ele><time>2026-05-01T13:38:11Z</time></trkpt><trkpt lat="44.704830810620365" lon="0.9756809281700533"><ele>284.0</ele><time>2026-05-01T13:38:12Z</time></trkpt><trkpt lat="44.70493801592532" lon="0.9756694161827377"><ele>285.0</ele><time>2026-05-01T13:38:13Z</time></trkpt><trkpt lat="44.70503580736934" lon="0.9756760950077257"><ele>286.0</ele><time>2026-05-01T13:38:14Z</time></trkpt><trkpt lat="44.70516167427534" lon="0.9756888000347864"><ele>287.0</ele><time>2026-05-01T13:38:15Z</time></trkpt><trkpt lat="44.70528256243115" lon="0.9757067558664188"><ele>287.75</ele><time>2026-05-01T13:38:16Z</time></trkpt><trkpt lat="44.705428608755376" lon="0.9757170185092947"><ele>288.5</ele><time>2026-05-01T13:38:17Z</time></trkpt><trkpt lat="44.705583944142866" lon="0.9757328690186639"><ele>289.25</ele><time>2026-05-01T13:38:18Z</time></trkpt><trkpt lat="44.70572818456926" lon="0.9757519041061365"><ele>290.0</ele><time>2026-05-01T13:38:19Z</time></trkpt><trkpt lat="44.7058807784438" lon="0.9757689104114584"><ele>290.0</ele><time>2026-05-01T13:38:20Z</time></trkpt><trkpt lat="44.70603379506399" lon="0.9757660163722333"><ele>290.0</ele><time>2026-05-01T13:38:21Z</time></trkpt><trkpt lat="44.70618809989019" lon="0.9757689549988439"><ele>290.0</ele><time>2026-05-01T13:38:22Z</time></trkpt><trkpt lat="44.70633038938651" lon="0.975765156045122"><ele>290.25</ele><time>2026-05-01T13:38:23Z</time></trkpt><trkpt lat="44.706484342156415" lon="0.9757879688591778"><ele>290.5</ele><time>2026-05-01T13:38:24Z</time></trkpt><trkpt lat="44.706634706351856" lon="0.9758066820523039"><ele>290.75</ele><time>2026-05-01T13:38:25Z</time></trkpt><trkpt lat="44.70676882207829" lon="0.9758369583840052"><ele>291.0</ele><time>2026-05-01T13:38:26Z</time></trkpt><trkpt lat="44.70690765667986" lon="0.9758715652428916"><ele>288.0</ele><time>2026-05-01T13:38:27Z</time></trkpt><trkpt lat="44.707052804936" lon="0.9759059705521317"><ele>285.0</ele><time>2026-05-01T13:38:28Z</time></trkpt><trkpt lat="44.70720444087057" lon="0.9759116574028276"><ele>282.0</ele><time>2026-05-01T13:38:29Z</time></trkpt><trkpt lat="44.70736605360264" lon="0.9759282259532646"><ele>282.0</ele><time>2026-05-01T13:38:30Z</time></trkpt><trkpt lat="44.707529712309665" lon="0.9759289368619347"><ele>282.0</ele><time>2026-05-01T13:38:31Z</time></trkpt><trkpt lat="44.707692670293554" lon="0.9759227182572481"><ele>282.0</ele><time>2026-05-01T13:38:32Z</time></trkpt><trkpt lat="44.70784799804554" lon="0.9759289699436864"><ele>281.6666666666667</ele><time>2026-05-01T13:38:33Z</time></trkpt><trkpt lat="44.70800372659299" lon="0.9759145789369257"><ele>281.33333333333337</ele><time>2026-05-01T13:38:34Z</time></trkpt><trkpt lat="44.70814711726779" lon="0.9759007450047192"><ele>281.0</ele><time>2026-05-01T13:38:35Z</time></trkpt><trkpt lat="44.70830641577259" lon="0.9758831115003385"><ele>281.0</ele><time>2026-05-01T13:38:36Z</time></trkpt><trkpt lat="44.70845786702784" lon="0.9758629499208182"><ele>281.0</ele><time>2026-05-01T13:38:37Z</time></trkpt><trkpt lat="44.70861161586706" lon="0.975837987552377"><ele>281.0</ele><time>2026-05-01T13:38:38Z</time></trkpt><trkpt lat="44.708771671417786" lon="0.9757846007510165"><ele>281.33333333333337</ele><time>2026-05-01T13:38:39Z</time></trkpt><trkpt lat="44.70892307676329" lon="0.9757561076095406"><ele>281.6666666666667</ele><time>2026-05-01T13:38:40Z</time></trkpt><trkpt lat="44.70907773518479" lon="0.9757448178602356"><ele>282.0</ele><time>2026-05-01T13:38:41Z</time></trkpt><trkpt lat="44.70922596523294" lon="0.9757128512953251"><ele>282.0</ele><time>2026-05-01T13:38:42Z</time></trkpt><trkpt lat="44.7093745241851" lon="0.9756742481700562"><ele>282.0</ele><time>2026-05-01T13:38:43Z</time></trkpt><trkpt lat="44.7095163465877" lon="0.9756318941726839"><ele>282.0</ele><time>2026-05-01T13:38:44Z</time></trkpt><trkpt lat="44.70965314049786" lon="0.9755872753984461"><ele>282.0</ele><time>2026-05-01T13:38:45Z</time></trkpt><trkpt lat="44.709793239944545" lon="0.9755374067050817"><ele>282.0</ele><time>2026-05-01T13:38:46Z</time></trkpt><trkpt lat="44.7099103931716" lon="0.975491031278754"><ele>282.0</ele><time>2026-05-01T13:38:47Z</time></trkpt><trkpt lat="44.71004365452486" lon="0.9754381410741122"><ele>282.0</ele><time>2026-05-01T13:38:48Z</time></trkpt><trkpt lat="44.71016113364037" lon="0.9753705464036421"><ele>282.0</ele><time>2026-05-01T13:38:49Z</time></trkpt><trkpt lat="44.71029067303982" lon="0.9753199925210966"><ele>282.0</ele><time>2026-05-01T13:38:50Z</time></trkpt><trkpt lat="44.71041439283334" lon="0.975278075936535"><ele>282.0</ele><time>2026-05-01T13:38:51Z</time></trkpt><trkpt lat="44.71053875627726" lon="0.975232428821045"><ele>282.0</ele><time>2026-05-01T13:38:52Z</time></trkpt><trkpt lat="44.710673056170215" lon="0.9752033263512375"><ele>282.0</ele><time>2026-05-01T13:38:53Z</time></trkpt><trkpt lat="44.71080715326707" lon="0.9751663321295925"><ele>282.0</ele><time>2026-05-01T13:38:54Z</time></trkpt><trkpt lat="44.71095191785766" lon="0.9751325013934419"><ele>282.0</ele><time>2026-05-01T13:38:55Z</time></trkpt><trkpt lat="44.711086680107265" lon="0.9751045310225076"><ele>282.0</ele><time>2026-05-01T13:38:56Z</time></trkpt><trkpt lat="44.71121266640831" lon="0.9750830284197198"><ele>282.0</ele><time>2026-05-01T13:38:57Z</time></trkpt><trkpt lat="44.71133522964436" lon="0.9750657301924968"><ele>281.75</ele><time>2026-05-01T13:38:58Z</time></trkpt><trkpt lat="44.711448607157" lon="0.9750503155933331"><ele>281.5</ele><time>2026-05-01T13:38:59Z</time></trkpt><trkpt lat="44.7115578891529" lon="0.9750354578172408"><ele>281.25</ele><time>2026-05-01T13:39:00Z</time></trkpt><trkpt lat="44.7116752716429" lon="0.9749986727911834"><ele>281.0</ele><time>2026-05-01T13:39:01Z</time></trkpt><trkpt lat="44.71179677337758" lon="0.9749654166877415"><ele>279.25</ele><time>2026-05-01T13:39:02Z</time></trkpt><trkpt lat="44.71191108754677" lon="0.974905734696425"><ele>277.5</ele><time>2026-05-01T13:39:03Z</time></trkpt><trkpt lat="44.71202791115772" lon="0.9748169499324085"><ele>275.75</ele><time>2026-05-01T13:39:04Z</time></trkpt><trkpt lat="44.71212823508557" lon="0.9746869043776047"><ele>274.0</ele><time>2026-05-01T13:39:05Z</time></trkpt><trkpt lat="44.7122073420118" lon="0.9745536403954099"><ele>274.0</ele><time>2026-05-01T13:39:06Z</time></trkpt><trkpt lat="44.712304792704444" lon="0.9744255326880094"><ele>274.0</ele><time>2026-05-01T13:39:07Z</time></trkpt><trkpt lat="44.71240552144072" lon="0.9743496317130887"><ele>274.0</ele><time>2026-05-01T13:39:08Z</time></trkpt><trkpt lat="44.71251284998753" lon="0.9742460631665647"><ele>274.0</ele><time>2026-05-01T13:39:09Z</time></trkpt><trkpt lat="44.71263707467572" lon="0.974153948394518"><ele>271.5</ele><time>2026-05-01T13:39:10Z</time></trkpt><trkpt lat="44.71275815111119" lon="0.974074683583304"><ele>269.0</ele><time>2026-05-01T13:39:11Z</time></trkpt><trkpt lat="44.712876811905765" lon="0.973970347969073"><ele>266.5</ele><time>2026-05-01T13:39:12Z</time></trkpt><trkpt lat="44.71299170350744" lon="0.9738758055315079"><ele>264.0</ele><time>2026-05-01T13:39:13Z</time></trkpt><trkpt lat="44.71311533815616" lon="0.973786057994396"><ele>264.0</ele><time>2026-05-01T13:39:14Z</time></trkpt><trkpt lat="44.71322774641229" lon="0.9737020892954058"><ele>264.0</ele><time>2026-05-01T13:39:15Z</time></trkpt><trkpt lat="44.71333070104774" lon="0.9736114278086078"><ele>264.0</ele><time>2026-05-01T13:39:16Z</time></trkpt><trkpt lat="44.71344529924235" lon="0.9735102020490254"><ele>264.0</ele><time>2026-05-01T13:39:17Z</time></trkpt><trkpt lat="44.71356949704086" lon="0.973455238443903"><ele>263.4</ele><time>2026-05-01T13:39:18Z</time></trkpt><trkpt lat="44.71367758956909" lon="0.9733998904034608"><ele>262.79999999999995</ele><time>2026-05-01T13:39:19Z</time></trkpt><trkpt lat="44.713776446278466" lon="0.9733453142641666"><ele>262.20000000000005</ele><time>2026-05-01T13:39:20Z</time></trkpt><trkpt lat="44.71385456564186" lon="0.973324856449287"><ele>261.6</ele><time>2026-05-01T13:39:21Z</time></trkpt><trkpt lat="44.71393702825276" lon="0.9733034032977964"><ele>261.0</ele><time>2026-05-01T13:39:22Z</time></trkpt><trkpt lat="44.714039733268024" lon="0.9733245371750884"><ele>261.0</ele><time>2026-05-01T13:39:23Z</time></trkpt><trkpt lat="44.71413237076134" lon="0.973340798542507"><ele>261.0</ele><time>2026-05-01T13:39:24Z</time></trkpt><trkpt lat="44.7142298387075" lon="0.9733513038311941"><ele>261.0</ele><time>2026-05-01T13:39:25Z</time></trkpt><trkpt lat="44.71432601327098" lon="0.9733909296109001"><ele>261.0</ele><time>2026-05-01T13:39:26Z</time></trkpt><trkpt lat="44.71442491913363" lon="0.9734048097813905"><ele>261.0</ele><time>2026-05-01T13:39:27Z</time></trkpt><trkpt lat="44.714537745046265" lon="0.9734140461750687"><ele>259.8</ele><time>2026-05-01T13:39:28Z</time></trkpt><trkpt lat="44.71465413042043" lon="0.9734348480223146"><ele>258.6</ele><time>2026-05-01T13:39:29Z</time></trkpt><trkpt lat="44.714760572707476" lon="0.9734527334167632"><ele>257.4</ele><time>2026-05-01T13:39:30Z</time></trkpt><trkpt lat="44.714874731699396" lon="0.9734920260909917"><ele>256.2</ele><time>2026-05-01T13:39:31Z</time></trkpt><trkpt lat="44.714972984933205" lon="0.9735100521901986"><ele>255.0</ele><time>2026-05-01T13:39:32Z</time></trkpt><trkpt lat="44.715079239087" lon="0.9735066021561181"><ele>255.0</ele><time>2026-05-01T13:39:33Z</time></trkpt><trkpt lat="44.71516595330084" lon="0.9735452890664541"><ele>255.0</ele><time>2026-05-01T13:39:34Z</time></trkpt><trkpt lat="44.715270127511076" lon="0.973562607091783"><ele>255.0</ele><time>2026-05-01T13:39:35Z</time></trkpt><trkpt lat="44.715416840031345" lon="0.9735659914434327"><ele>255.0</ele><time>2026-05-01T13:39:36Z</time></trkpt><trkpt lat="44.71553070541263" lon="0.9735912253090584"><ele>255.8</ele><time>2026-05-01T13:39:37Z</time></trkpt><trkpt lat="44.71563624222073" lon="0.9735722997825881"><ele>256.6</ele><time>2026-05-01T13:39:38Z</time></trkpt><trkpt lat="44.71574014309799" lon="0.9735655111843292"><ele>257.4</ele><time>2026-05-01T13:39:39Z</time></trkpt><trkpt lat="44.71583361792579" lon="0.9735917984464952"><ele>258.2</ele><time>2026-05-01T13:39:40Z</time></trkpt><trkpt lat="44.71593255570364" lon="0.9735990345899993"><ele>259.0</ele><time>2026-05-01T13:39:41Z</time></trkpt><trkpt lat="44.71602282022354" lon="0.973574166587818"><ele>259.25</ele><time>2026-05-01T13:39:42Z</time></trkpt><trkpt lat="44.71613264271092" lon="0.9735813213588039"><ele>259.5</ele><time>2026-05-01T13:39:43Z</time></trkpt><trkpt lat="44.716229033221296" lon="0.9734955176744233"><ele>259.75</ele><time>2026-05-01T13:39:44Z</time></trkpt><trkpt lat="44.71632228703204" lon="0.9734190294364432"><ele>260.0</ele><time>2026-05-01T13:39:45Z</time></trkpt><trkpt lat="44.716413308027114" lon="0.973310132117227"><ele>260.0</ele><time>2026-05-01T13:39:46Z</time></trkpt><trkpt lat="44.71650552217911" lon="0.9731956126674768"><ele>260.0</ele><time>2026-05-01T13:39:47Z</time></trkpt><trkpt lat="44.71661301333729" lon="0.9731132655759746"><ele>260.0</ele><time>2026-05-01T13:39:48Z</time></trkpt><trkpt lat="44.716731026262224" lon="0.9730695449433926"><ele>260.0</ele><time>2026-05-01T13:39:49Z</time></trkpt><trkpt lat="44.716867000980464" lon="0.9730325457516162"><ele>258.5</ele><time>2026-05-01T13:39:50Z</time></trkpt><trkpt lat="44.71699722668518" lon="0.9729881439735115"><ele>257.0</ele><time>2026-05-01T13:39:51Z</time></trkpt><trkpt lat="44.71715001004848" lon="0.9729346005219108"><ele>255.5</ele><time>2026-05-01T13:39:52Z</time></trkpt><trkpt lat="44.71727530479506" lon="0.9728857767472544"><ele>254.0</ele><time>2026-05-01T13:39:53Z</time></trkpt><trkpt lat="44.71740935762294" lon="0.9728225237892536"><ele>254.0</ele><time>2026-05-01T13:39:54Z</time></trkpt><trkpt lat="44.71754971431634" lon="0.972760292603915"><ele>254.0</ele><time>2026-05-01T13:39:55Z</time></trkpt><trkpt lat="44.71767663812199" lon="0.9726791819084746"><ele>254.0</ele><time>2026-05-01T13:39:56Z</time></trkpt><trkpt lat="44.71779731861272" lon="0.9726120797010972"><ele>254.0</ele><time>2026-05-01T13:39:57Z</time></trkpt><trkpt lat="44.71791614176525" lon="0.9725712826228269"><ele>253.0</ele><time>2026-05-01T13:39:58Z</time></trkpt><trkpt lat="44.7180383035124" lon="0.9725258835846523"><ele>252.0</ele><time>2026-05-01T13:39:59Z</time></trkpt><trkpt lat="44.718160279236464" lon="0.9724781858582141"><ele>251.0</ele><time>2026-05-01T13:40:00Z</time></trkpt><trkpt lat="44.718279473709366" lon="0.9724065050341565"><ele>250.0</ele><time>2026-05-01T13:40:01Z</time></trkpt><trkpt lat="44.71838175703894" lon="0.9723220979197849"><ele>249.0</ele><time>2026-05-01T13:40:02Z</time></trkpt><trkpt lat="44.71846085936992" lon="0.9722062062088338"><ele>248.0</ele><time>2026-05-01T13:40:03Z</time></trkpt><trkpt lat="44.718544519776906" lon="0.9721125674870709"><ele>247.0</ele><time>2026-05-01T13:40:04Z</time></trkpt><trkpt lat="44.7186370732421" lon="0.9720134002751852"><ele>246.0</ele><time>2026-05-01T13:40:05Z</time></trkpt><trkpt lat="44.71873751056428" lon="0.971943435023898"><ele>245.0</ele><time>2026-05-01T13:40:06Z</time></trkpt><trkpt lat="44.718845997398" lon="0.9719416472363632"><ele>244.0</ele><time>2026-05-01T13:40:07Z</time></trkpt><trkpt lat="44.718945174978316" lon="0.9719587045156314"><ele>243.0</ele><time>2026-05-01T13:40:08Z</time></trkpt><trkpt lat="44.71903162835966" lon="0.9720044207262089"><ele>242.0</ele><time>2026-05-01T13:40:09Z</time></trkpt><trkpt lat="44.719146934853434" lon="0.9720563304662828"><ele>241.0</ele><time>2026-05-01T13:40:10Z</time></trkpt><trkpt lat="44.719251980927126" lon="0.9720599846243516"><ele>240.0</ele><time>2026-05-01T13:40:11Z</time></trkpt><trkpt lat="44.7193416114945" lon="0.9720769803416063"><ele>239.2</ele><time>2026-05-01T13:40:12Z</time></trkpt><trkpt lat="44.719452728994" lon="0.9720773252884956"><ele>238.4</ele><time>2026-05-01T13:40:13Z</time></trkpt><trkpt lat="44.71954778402373" lon="0.9720607896300663"><ele>237.60000000000002</ele><time>2026-05-01T13:40:14Z</time></trkpt><trkpt lat="44.719638643420865" lon="0.9720291394739954"><ele>236.8</ele><time>2026-05-01T13:40:15Z</time></trkpt><trkpt lat="44.71974026567767" lon="0.9719683645642441"><ele>236.0</ele><time>2026-05-01T13:40:16Z</time></trkpt><trkpt lat="44.7198299652624" lon="0.971897521879326"><ele>236.0</ele><time>2026-05-01T13:40:17Z</time></trkpt><trkpt lat="44.719926948917376" lon="0.9718201222895354"><ele>236.0</ele><time>2026-05-01T13:40:18Z</time></trkpt><trkpt lat="44.72002952549242" lon="0.9717260639793838"><ele>236.0</ele><time>2026-05-01T13:40:19Z</time></trkpt><trkpt lat="44.72011104980582" lon="0.9716057547692408"><ele>236.0</ele><time>2026-05-01T13:40:20Z</time></trkpt><trkpt lat="44.7202024912896" lon="0.9715009938696758"><ele>236.60000000000002</ele><time>2026-05-01T13:40:21Z</time></trkpt><trkpt lat="44.720274081973756" lon="0.9713942769206808"><ele>237.20000000000002</ele><time>2026-05-01T13:40:22Z</time></trkpt><trkpt lat="44.72035261920116" lon="0.9712882584691569"><ele>237.79999999999998</ele><time>2026-05-01T13:40:23Z</time></trkpt><trkpt lat="44.720434951395994" lon="0.9711787881838033"><ele>238.39999999999998</ele><time>2026-05-01T13:40:24Z</time></trkpt><trkpt lat="44.72052771891857" lon="0.9710937655840178"><ele>239.0</ele><time>2026-05-01T13:40:25Z</time></trkpt><trkpt lat="44.72061472542535" lon="0.9710069377447506"><ele>239.0</ele><time>2026-05-01T13:40:26Z</time></trkpt><trkpt lat="44.72067744149258" lon="0.9708753406218275"><ele>239.0</ele><time>2026-05-01T13:40:27Z</time></trkpt><trkpt lat="44.72075597156213" lon="0.9707609132696006"><ele>239.0</ele><time>2026-05-01T13:40:28Z</time></trkpt><trkpt lat="44.72083740557047" lon="0.9706264231875025"><ele>239.0</ele><time>2026-05-01T13:40:29Z</time></trkpt><trkpt lat="44.72093289090471" lon="0.9705348770735955"><ele>238.25</ele><time>2026-05-01T13:40:30Z</time></trkpt><trkpt lat="44.72101431143208" lon="0.9704063921159156"><ele>237.5</ele><time>2026-05-01T13:40:31Z</time></trkpt><trkpt lat="44.721105504693014" lon="0.9702917499006155"><ele>236.75</ele><time>2026-05-01T13:40:32Z</time></trkpt><trkpt lat="44.7212086372087" lon="0.9701613460334474"><ele>236.0</ele><time>2026-05-01T13:40:33Z</time></trkpt><trkpt lat="44.72130366635354" lon="0.970031547101135"><ele>234.25</ele><time>2026-05-01T13:40:34Z</time></trkpt><trkpt lat="44.7214000454263" lon="0.9698981163165318"><ele>232.5</ele><time>2026-05-01T13:40:35Z</time></trkpt><trkpt lat="44.72149689985217" lon="0.9697721016606763"><ele>230.75</ele><time>2026-05-01T13:40:36Z</time></trkpt><trkpt lat="44.721584586485484" lon="0.9696574011895035"><ele>229.0</ele><time>2026-05-01T13:40:37Z</time></trkpt><trkpt lat="44.72166353002976" lon="0.969539859130079"><ele>229.0</ele><time>2026-05-01T13:40:38Z</time></trkpt><trkpt lat="44.721732432009134" lon="0.9694167812419447"><ele>229.0</ele><time>2026-05-01T13:40:39Z</time></trkpt><trkpt lat="44.72179764065554" lon="0.9692760653243255"><ele>229.0</ele><time>2026-05-01T13:40:40Z</time></trkpt><trkpt lat="44.72185568833396" lon="0.9691346400204017"><ele>229.0</ele><time>2026-05-01T13:40:41Z</time></trkpt><trkpt lat="44.72189824796214" lon="0.9689909585703791"><ele>228.2</ele><time>2026-05-01T13:40:42Z</time></trkpt><trkpt lat="44.721932761727686" lon="0.9688513920384708"><ele>227.39999999999998</ele><time>2026-05-01T13:40:43Z</time></trkpt><trkpt lat="44.721960431625" lon="0.9687226274718973"><ele>226.6</ele><time>2026-05-01T13:40:44Z</time></trkpt><trkpt lat="44.72200866510508" lon="0.9686035322002353"><ele>225.8</ele><time>2026-05-01T13:40:45Z</time></trkpt><trkpt lat="44.72203653377056" lon="0.968476745975239"><ele>225.0</ele><time>2026-05-01T13:40:46Z</time></trkpt><trkpt lat="44.722071241273845" lon="0.9683634159180997"><ele>225.0</ele><time>2026-05-01T13:40:47Z</time></trkpt><trkpt lat="44.72211443751636" lon="0.9682671410173456"><ele>225.0</ele><time>2026-05-01T13:40:48Z</time></trkpt><trkpt lat="44.72213269778301" lon="0.9681753451851128"><ele>225.0</ele><time>2026-05-01T13:40:49Z</time></trkpt><trkpt lat="44.72218093378136" lon="0.9680773721353362"><ele>225.0</ele><time>2026-05-01T13:40:51Z</time></trkpt><trkpt lat="44.7222187058349" lon="0.9681800826488203"><ele>225.0</ele><time>2026-05-01T13:40:56Z</time></trkpt><trkpt lat="44.72224129189882" lon="0.9682780321434628"><ele>225.0</ele><time>2026-05-01T13:40:59Z</time></trkpt><trkpt lat="44.722260875009326" lon="0.9684361244082036"><ele>225.0</ele><time>2026-05-01T13:41:01Z</time></trkpt><trkpt lat="44.72227915058916" lon="0.9685577406995732"><ele>225.0</ele><time>2026-05-01T13:41:02Z</time></trkpt><trkpt lat="44.7223365982745" lon="0.9687097396567561"><ele>225.0</ele><time>2026-05-01T13:41:03Z</time></trkpt><trkpt lat="44.72236858943043" lon="0.9689029546666039"><ele>225.0</ele><time>2026-05-01T13:41:04Z</time></trkpt><trkpt lat="44.72240159812812" lon="0.9690965386315529"><ele>226.33333333333331</ele><time>2026-05-01T13:41:05Z</time></trkpt><trkpt lat="44.72243321642166" lon="0.9693028693789126"><ele>227.66666666666666</ele><time>2026-05-01T13:41:06Z</time></trkpt><trkpt lat="44.7224770071536" lon="0.9695084519917767"><ele>229.0</ele><time>2026-05-01T13:41:07Z</time></trkpt><trkpt lat="44.72252897085588" lon="0.9697063326544728"><ele>229.0</ele><time>2026-05-01T13:41:08Z</time></trkpt><trkpt lat="44.72259277850345" lon="0.9698918059286257"><ele>229.0</ele><time>2026-05-01T13:41:09Z</time></trkpt><trkpt lat="44.722652497896725" lon="0.970035358679885"><ele>229.0</ele><time>2026-05-01T13:41:10Z</time></trkpt><trkpt lat="44.7227083284715" lon="0.9701729047781676"><ele>229.0</ele><time>2026-05-01T13:41:11Z</time></trkpt><trkpt lat="44.722748534689245" lon="0.9703229300614046"><ele>230.5</ele><time>2026-05-01T13:41:12Z</time></trkpt><trkpt lat="44.7228174227985" lon="0.9704828756342041"><ele>232.0</ele><time>2026-05-01T13:41:13Z</time></trkpt><trkpt lat="44.72289819985757" lon="0.9706482855499766"><ele>233.5</ele><time>2026-05-01T13:41:14Z</time></trkpt><trkpt lat="44.72297639009558" lon="0.9708076930953855"><ele>235.0</ele><time>2026-05-01T13:41:15Z</time></trkpt><trkpt lat="44.72305752883256" lon="0.9709921044933403"><ele>235.75</ele><time>2026-05-01T13:41:16Z</time></trkpt><trkpt lat="44.72311002013567" lon="0.9711404563889067"><ele>236.5</ele><time>2026-05-01T13:41:17Z</time></trkpt><trkpt lat="44.72320225624964" lon="0.9712755918770314"><ele>237.25</ele><time>2026-05-01T13:41:18Z</time></trkpt><trkpt lat="44.723242626609355" lon="0.9714250258304795"><ele>238.0</ele><time>2026-05-01T13:41:19Z</time></trkpt><trkpt lat="44.72328386288086" lon="0.9716172677660819"><ele>239.25</ele><time>2026-05-01T13:41:20Z</time></trkpt><trkpt lat="44.72334100767999" lon="0.971776263113411"><ele>240.5</ele><time>2026-05-01T13:41:21Z</time></trkpt><trkpt lat="44.723400956397015" lon="0.9719362119147853"><ele>241.75</ele><time>2026-05-01T13:41:22Z</time></trkpt><trkpt lat="44.72341937666195" lon="0.9721199322675993"><ele>243.0</ele><time>2026-05-01T13:41:23Z</time></trkpt><trkpt lat="44.72347847918018" lon="0.9722914236601738"><ele>243.0</ele><time>2026-05-01T13:41:24Z</time></trkpt><trkpt lat="44.723538126712825" lon="0.9724644964324766"><ele>243.0</ele><time>2026-05-01T13:41:25Z</time></trkpt><trkpt lat="44.723605533289195" lon="0.9726124041821488"><ele>243.0</ele><time>2026-05-01T13:41:26Z</time></trkpt><trkpt lat="44.72365259404092" lon="0.9727781101089276"><ele>243.0</ele><time>2026-05-01T13:41:27Z</time></trkpt><trkpt lat="44.7236879629429" lon="0.9729156612149388"><ele>243.0</ele><time>2026-05-01T13:41:28Z</time></trkpt><trkpt lat="44.72368756128061" lon="0.9730776304456832"><ele>243.0</ele><time>2026-05-01T13:41:29Z</time></trkpt><trkpt lat="44.72367258800465" lon="0.9732329919922235"><ele>243.0</ele><time>2026-05-01T13:41:30Z</time></trkpt><trkpt lat="44.723646557136206" lon="0.9733978264030448"><ele>243.0</ele><time>2026-05-01T13:41:31Z</time></trkpt><trkpt lat="44.72362504271362" lon="0.9735618372892528"><ele>243.0</ele><time>2026-05-01T13:41:32Z</time></trkpt><trkpt lat="44.72362904295905" lon="0.9736788318552314"><ele>243.0</ele><time>2026-05-01T13:41:33Z</time></trkpt><trkpt lat="44.723631179206315" lon="0.9737711205167418"><ele>243.0</ele><time>2026-05-01T13:41:34Z</time></trkpt><trkpt lat="44.72365660771509" lon="0.9738698043393454"><ele>243.0</ele><time>2026-05-01T13:41:35Z</time></trkpt><trkpt lat="44.72371215330393" lon="0.9739336465689977"><ele>243.0</ele><time>2026-05-01T13:41:36Z</time></trkpt><trkpt lat="44.7237983075094" lon="0.9739867857873589"><ele>243.0</ele><time>2026-05-01T13:41:37Z</time></trkpt><trkpt lat="44.72390790537797" lon="0.9740076312875813"><ele>243.0</ele><time>2026-05-01T13:41:38Z</time></trkpt><trkpt lat="44.72405186309894" lon="0.9740506362584893"><ele>243.0</ele><time>2026-05-01T13:41:39Z</time></trkpt><trkpt lat="44.724209023035236" lon="0.9741002905704376"><ele>243.0</ele><time>2026-05-01T13:41:40Z</time></trkpt><trkpt lat="44.724359157579734" lon="0.9741842959106837"><ele>241.33333333333331</ele><time>2026-05-01T13:41:41Z</time></trkpt><trkpt lat="44.724508610190945" lon="0.9742698515617273"><ele>239.66666666666666</ele><time>2026-05-01T13:41:42Z</time></trkpt><trkpt lat="44.724650846827885" lon="0.9743525781162626"><ele>238.0</ele><time>2026-05-01T13:41:43Z</time></trkpt><trkpt lat="44.724793094836976" lon="0.9744358167217569"><ele>238.0</ele><time>2026-05-01T13:41:44Z</time></trkpt><trkpt lat="44.7249386414416" lon="0.974498620838028"><ele>238.0</ele><time>2026-05-01T13:41:45Z</time></trkpt><trkpt lat="44.7250786536766" lon="0.9745588234241747"><ele>238.0</ele><time>2026-05-01T13:41:46Z</time></trkpt><trkpt lat="44.72521186288505" lon="0.9746222831742218"><ele>238.0</ele><time>2026-05-01T13:41:47Z</time></trkpt><trkpt lat="44.72532998499097" lon="0.9746975991703506"><ele>238.0</ele><time>2026-05-01T13:41:48Z</time></trkpt><trkpt lat="44.725427686824816" lon="0.9748091643498527"><ele>238.0</ele><time>2026-05-01T13:41:49Z</time></trkpt><trkpt lat="44.725525375037556" lon="0.9749143059332336"><ele>238.0</ele><time>2026-05-01T13:41:50Z</time></trkpt><trkpt lat="44.72564755059666" lon="0.9749906178640002"><ele>238.0</ele><time>2026-05-01T13:41:51Z</time></trkpt><trkpt lat="44.72576861086308" lon="0.9750683856244763"><ele>237.75</ele><time>2026-05-01T13:41:52Z</time></trkpt><trkpt lat="44.72591167611199" lon="0.975165435215298"><ele>237.5</ele><time>2026-05-01T13:41:53Z</time></trkpt><trkpt lat="44.72603747596365" lon="0.9752652450073379"><ele>237.25</ele><time>2026-05-01T13:41:54Z</time></trkpt><trkpt lat="44.72615291706185" lon="0.9753768318703988"><ele>237.0</ele><time>2026-05-01T13:41:55Z</time></trkpt><trkpt lat="44.72627221880766" lon="0.9754859640630428"><ele>237.0</ele><time>2026-05-01T13:41:56Z</time></trkpt><trkpt lat="44.72641324485744" lon="0.9756058263369665"><ele>237.0</ele><time>2026-05-01T13:41:57Z</time></trkpt><trkpt lat="44.72653727945107" lon="0.9756942059098678"><ele>237.0</ele><time>2026-05-01T13:41:58Z</time></trkpt><trkpt lat="44.72668756914288" lon="0.9757881914047033"><ele>237.0</ele><time>2026-05-01T13:41:59Z</time></trkpt><trkpt lat="44.72683629925422" lon="0.9758814540391657"><ele>237.0</ele><time>2026-05-01T13:42:00Z</time></trkpt><trkpt lat="44.7269746558857" lon="0.9759776359679947"><ele>237.0</ele><time>2026-05-01T13:42:01Z</time></trkpt><trkpt lat="44.72711363250508" lon="0.9760795470486622"><ele>237.0</ele><time>2026-05-01T13:42:02Z</time></trkpt><trkpt lat="44.72726546306799" lon="0.9761527437913812"><ele>237.0</ele><time>2026-05-01T13:42:03Z</time></trkpt><trkpt lat="44.727390369898686" lon="0.9762246595221659"><ele>237.0</ele><time>2026-05-01T13:42:04Z</time></trkpt><trkpt lat="44.72752266432596" lon="0.9762862552133346"><ele>237.0</ele><time>2026-05-01T13:42:05Z</time></trkpt><trkpt lat="44.727655091629735" lon="0.9763446666958457"><ele>237.5</ele><time>2026-05-01T13:42:06Z</time></trkpt><trkpt lat="44.72780129164129" lon="0.9763655042666032"><ele>238.0</ele><time>2026-05-01T13:42:07Z</time></trkpt><trkpt lat="44.72793946999414" lon="0.9764023756124371"><ele>238.5</ele><time>2026-05-01T13:42:08Z</time></trkpt><trkpt lat="44.728083303740654" lon="0.9764365215677224"><ele>239.0</ele><time>2026-05-01T13:42:09Z</time></trkpt><trkpt lat="44.72821383600134" lon="0.9764499850560071"><ele>239.0</ele><time>2026-05-01T13:42:10Z</time></trkpt><trkpt lat="44.728354907002874" lon="0.9764475432766544"><ele>239.0</ele><time>2026-05-01T13:42:11Z</time></trkpt><trkpt lat="44.72849753239928" lon="0.9764148538153811"><ele>239.0</ele><time>2026-05-01T13:42:12Z</time></trkpt><trkpt lat="44.72864328343226" lon="0.9763722131952154"><ele>239.0</ele><time>2026-05-01T13:42:13Z</time></trkpt><trkpt lat="44.72878175477015" lon="0.9763353759186384"><ele>239.5</ele><time>2026-05-01T13:42:14Z</time></trkpt><trkpt lat="44.72891682538399" lon="0.9762797803891912"><ele>240.0</ele><time>2026-05-01T13:42:15Z</time></trkpt><trkpt lat="44.729059144320075" lon="0.9762130684732757"><ele>240.5</ele><time>2026-05-01T13:42:16Z</time></trkpt><trkpt lat="44.72920930832839" lon="0.9761588579724176"><ele>241.0</ele><time>2026-05-01T13:42:17Z</time></trkpt><trkpt lat="44.72935653461104" lon="0.9761007408437458"><ele>241.75</ele><time>2026-05-01T13:42:18Z</time></trkpt><trkpt lat="44.72951095597935" lon="0.9760922837908714"><ele>242.5</ele><time>2026-05-01T13:42:19Z</time></trkpt><trkpt lat="44.72965424646381" lon="0.9760388366483709"><ele>243.25</ele><time>2026-05-01T13:42:20Z</time></trkpt><trkpt lat="44.72977645996789" lon="0.9759679870248871"><ele>244.0</ele><time>2026-05-01T13:42:21Z</time></trkpt><trkpt lat="44.72989334860565" lon="0.9759133407259568"><ele>244.0</ele><time>2026-05-01T13:42:22Z</time></trkpt><trkpt lat="44.73000628481642" lon="0.9758712028784663"><ele>244.0</ele><time>2026-05-01T13:42:23Z</time></trkpt><trkpt lat="44.73012043933219" lon="0.9758440851218562"><ele>244.0</ele><time>2026-05-01T13:42:24Z</time></trkpt><trkpt lat="44.73024550425932" lon="0.975842404647726"><ele>244.0</ele><time>2026-05-01T13:42:25Z</time></trkpt><trkpt lat="44.73038027153148" lon="0.9758532819810299"><ele>243.0</ele><time>2026-05-01T13:42:26Z</time></trkpt><trkpt lat="44.73051281435209" lon="0.9758686537716208"><ele>242.0</ele><time>2026-05-01T13:42:27Z</time></trkpt><trkpt lat="44.730647182737634" lon="0.9758736854666009"><ele>241.0</ele><time>2026-05-01T13:42:28Z</time></trkpt><trkpt lat="44.73081247348973" lon="0.9758701136072097"><ele>240.0</ele><time>2026-05-01T13:42:29Z</time></trkpt><trkpt lat="44.730968367123126" lon="0.9758469837486413"><ele>238.75</ele><time>2026-05-01T13:42:30Z</time></trkpt><trkpt lat="44.731117966422744" lon="0.9758147949809326"><ele>237.5</ele><time>2026-05-01T13:42:31Z</time></trkpt><trkpt lat="44.73126506661682" lon="0.9757929318393389"><ele>236.25</ele><time>2026-05-01T13:42:32Z</time></trkpt><trkpt lat="44.73140282708173" lon="0.9757632023541861"><ele>235.0</ele><time>2026-05-01T13:42:33Z</time></trkpt><trkpt lat="44.73154446190634" lon="0.9757267329233595"><ele>235.0</ele><time>2026-05-01T13:42:34Z</time></trkpt><trkpt lat="44.73166476820523" lon="0.975705089543449"><ele>235.0</ele><time>2026-05-01T13:42:35Z</time></trkpt><trkpt lat="44.73177763886993" lon="0.9756850729120774"><ele>235.0</ele><time>2026-05-01T13:42:36Z</time></trkpt><trkpt lat="44.731879919496464" lon="0.9756602115247907"><ele>235.0</ele><time>2026-05-01T13:42:37Z</time></trkpt><trkpt lat="44.731976501456046" lon="0.9756364889102608"><ele>235.0</ele><time>2026-05-01T13:42:38Z</time></trkpt><trkpt lat="44.73204539909516" lon="0.97562120132588"><ele>233.83333333333331</ele><time>2026-05-01T13:42:39Z</time></trkpt><trkpt lat="44.73211683742497" lon="0.975630516383465"><ele>232.66666666666666</ele><time>2026-05-01T13:42:40Z</time></trkpt><trkpt lat="44.73221494483061" lon="0.9757066383647394"><ele>231.5</ele><time>2026-05-01T13:42:42Z</time></trkpt><trkpt lat="44.73222104847736" lon="0.9758062421904427"><ele>230.33333333333331</ele><time>2026-05-01T13:42:43Z</time></trkpt><trkpt lat="44.732212165202924" lon="0.9759323361709658"><ele>229.16666666666666</ele><time>2026-05-01T13:42:44Z</time></trkpt><trkpt lat="44.73220592594945" lon="0.9760764967895437"><ele>228.0</ele><time>2026-05-01T13:42:45Z</time></trkpt><trkpt lat="44.73220267883591" lon="0.9762489320226982"><ele>227.4</ele><time>2026-05-01T13:42:46Z</time></trkpt><trkpt lat="44.73219645157814" lon="0.9763964204333396"><ele>226.8</ele><time>2026-05-01T13:42:47Z</time></trkpt><trkpt lat="44.73219135291312" lon="0.9765276176571375"><ele>226.2</ele><time>2026-05-01T13:42:48Z</time></trkpt><trkpt lat="44.73220649858023" lon="0.9766485536798051"><ele>225.6</ele><time>2026-05-01T13:42:49Z</time></trkpt><trkpt lat="44.73224017222031" lon="0.9768066745709421"><ele>225.0</ele><time>2026-05-01T13:42:51Z</time></trkpt><trkpt lat="44.73232299161627" lon="0.9768481948372251"><ele>224.8</ele><time>2026-05-01T13:42:53Z</time></trkpt><trkpt lat="44.73241117970423" lon="0.9768213134389797"><ele>224.6</ele><time>2026-05-01T13:42:54Z</time></trkpt><trkpt lat="44.73250293179856" lon="0.9767817344448971"><ele>224.39999999999998</ele><time>2026-05-01T13:42:55Z</time></trkpt><trkpt lat="44.73260729559083" lon="0.9767485905854895"><ele>224.2</ele><time>2026-05-01T13:42:56Z</time></trkpt><trkpt lat="44.73269450239616" lon="0.9766922610071003"><ele>224.0</ele><time>2026-05-01T13:42:57Z</time></trkpt><trkpt lat="44.732793136264675" lon="0.9766691457255046"><ele>223.39999999999998</ele><time>2026-05-01T13:42:58Z</time></trkpt><trkpt lat="44.73288865056729" lon="0.9766657880422259"><ele>222.79999999999998</ele><time>2026-05-01T13:42:59Z</time></trkpt><trkpt lat="44.73298917021359" lon="0.9766613908779609"><ele>222.20000000000002</ele><time>2026-05-01T13:43:00Z</time></trkpt><trkpt lat="44.73308791259692" lon="0.9766506925129814"><ele>221.60000000000002</ele><time>2026-05-01T13:43:01Z</time></trkpt><trkpt lat="44.733204136038786" lon="0.9766474051000115"><ele>221.0</ele><time>2026-05-01T13:43:02Z</time></trkpt><trkpt lat="44.73334304923008" lon="0.9766433767851584"><ele>221.0</ele><time>2026-05-01T13:43:03Z</time></trkpt><trkpt lat="44.733473018843036" lon="0.9766522628946904"><ele>221.0</ele><time>2026-05-01T13:43:04Z</time></trkpt><trkpt lat="44.733617001090515" lon="0.9766397826479398"><ele>221.0</ele><time>2026-05-01T13:43:05Z</time></trkpt><trkpt lat="44.733769450344305" lon="0.9766453418137591"><ele>221.0</ele><time>2026-05-01T13:43:06Z</time></trkpt><trkpt lat="44.733918172306865" lon="0.9766640718630876"><ele>220.0</ele><time>2026-05-01T13:43:07Z</time></trkpt><trkpt lat="44.734070163823944" lon="0.9766789075156947"><ele>219.0</ele><time>2026-05-01T13:43:08Z</time></trkpt><trkpt lat="44.73423603946483" lon="0.9767063924720156"><ele>218.0</ele><time>2026-05-01T13:43:09Z</time></trkpt><trkpt lat="44.73438128083262" lon="0.9767152354146107"><ele>216.33333333333334</ele><time>2026-05-01T13:43:10Z</time></trkpt><trkpt lat="44.73453819804222" lon="0.9767180431604702"><ele>214.66666666666669</ele><time>2026-05-01T13:43:11Z</time></trkpt><trkpt lat="44.73469862549399" lon="0.9767216827532031"><ele>213.0</ele><time>2026-05-01T13:43:12Z</time></trkpt><trkpt lat="44.73483841426348" lon="0.9767308257382257"><ele>213.0</ele><time>2026-05-01T13:43:13Z</time></trkpt><trkpt lat="44.73495301607972" lon="0.9767635392280497"><ele>213.0</ele><time>2026-05-01T13:43:14Z</time></trkpt><trkpt lat="44.735089873300055" lon="0.9767390550078242"><ele>213.0</ele><time>2026-05-01T13:43:15Z</time></trkpt><trkpt lat="44.735217033050525" lon="0.9767252847650169"><ele>213.0</ele><time>2026-05-01T13:43:16Z</time></trkpt><trkpt lat="44.73535601375381" lon="0.9766959797430653"><ele>212.0</ele><time>2026-05-01T13:43:17Z</time></trkpt><trkpt lat="44.73548656616794" lon="0.9766450982238262"><ele>211.0</ele><time>2026-05-01T13:43:18Z</time></trkpt><trkpt lat="44.73560982042823" lon="0.976561127199936"><ele>210.0</ele><time>2026-05-01T13:43:19Z</time></trkpt><trkpt lat="44.73572260455585" lon="0.9764729428710838"><ele>209.0</ele><time>2026-05-01T13:43:20Z</time></trkpt><trkpt lat="44.73584591443375" lon="0.9763612361007413"><ele>209.0</ele><time>2026-05-01T13:43:21Z</time></trkpt><trkpt lat="44.73596045763566" lon="0.9762420018635473"><ele>209.0</ele><time>2026-05-01T13:43:22Z</time></trkpt><trkpt lat="44.73608520319781" lon="0.9761012503824754"><ele>209.0</ele><time>2026-05-01T13:43:23Z</time></trkpt><trkpt lat="44.7362024342976" lon="0.9759368291133713"><ele>209.0</ele><time>2026-05-01T13:43:24Z</time></trkpt><trkpt lat="44.73630574516275" lon="0.9757896341048579"><ele>209.0</ele><time>2026-05-01T13:43:25Z</time></trkpt><trkpt lat="44.736409258321444" lon="0.9756499359782367"><ele>209.0</ele><time>2026-05-01T13:43:26Z</time></trkpt><trkpt lat="44.73650893995261" lon="0.9755215340592871"><ele>209.0</ele><time>2026-05-01T13:43:27Z</time></trkpt><trkpt lat="44.736597436659885" lon="0.9753853029404537"><ele>209.0</ele><time>2026-05-01T13:43:28Z</time></trkpt><trkpt lat="44.736694121926114" lon="0.9752886532883703"><ele>209.0</ele><time>2026-05-01T13:43:29Z</time></trkpt><trkpt lat="44.73678927009949" lon="0.9751977146663519"><ele>209.0</ele><time>2026-05-01T13:43:30Z</time></trkpt><trkpt lat="44.73690226729182" lon="0.9751501983261928"><ele>209.0</ele><time>2026-05-01T13:43:31Z</time></trkpt><trkpt lat="44.73701623605243" lon="0.9751241674848397"><ele>209.5</ele><time>2026-05-01T13:43:32Z</time></trkpt><trkpt lat="44.73715021173972" lon="0.975097706630373"><ele>210.0</ele><time>2026-05-01T13:43:33Z</time></trkpt><trkpt lat="44.737286751198354" lon="0.9750447441804886"><ele>210.5</ele><time>2026-05-01T13:43:34Z</time></trkpt><trkpt lat="44.737411141122536" lon="0.9750032728131333"><ele>211.0</ele><time>2026-05-01T13:43:35Z</time></trkpt><trkpt lat="44.73753783323986" lon="0.9749615915571777"><ele>210.5</ele><time>2026-05-01T13:43:36Z</time></trkpt><trkpt lat="44.737648006823456" lon="0.9749100812867918"><ele>210.0</ele><time>2026-05-01T13:43:37Z</time></trkpt><trkpt lat="44.73775843237652" lon="0.974852337575414"><ele>209.5</ele><time>2026-05-01T13:43:38Z</time></trkpt><trkpt lat="44.73788028916418" lon="0.9748343827482719"><ele>209.0</ele><time>2026-05-01T13:43:39Z</time></trkpt><trkpt lat="44.738011196348204" lon="0.9748176723447688"><ele>209.0</ele><time>2026-05-01T13:43:40Z</time></trkpt><trkpt lat="44.7381303422965" lon="0.9747946276787954"><ele>209.0</ele><time>2026-05-01T13:43:41Z</time></trkpt><trkpt lat="44.73824143665787" lon="0.9747561516308891"><ele>209.0</ele><time>2026-05-01T13:43:42Z</time></trkpt><trkpt lat="44.73836152673796" lon="0.9747346394220852"><ele>209.0</ele><time>2026-05-01T13:43:43Z</time></trkpt><trkpt lat="44.738483505131455" lon="0.9747034012715738"><ele>209.0</ele><time>2026-05-01T13:43:44Z</time></trkpt><trkpt lat="44.738612658337715" lon="0.9746705915303988"><ele>209.0</ele><time>2026-05-01T13:43:45Z</time></trkpt><trkpt lat="44.73873875412093" lon="0.9746424832810903"><ele>209.0</ele><time>2026-05-01T13:43:46Z</time></trkpt><trkpt lat="44.738861222472785" lon="0.9746139298439837"><ele>209.0</ele><time>2026-05-01T13:43:47Z</time></trkpt><trkpt lat="44.73896902880151" lon="0.9745943848862355"><ele>209.0</ele><time>2026-05-01T13:43:48Z</time></trkpt><trkpt lat="44.73904522609775" lon="0.9745641550241912"><ele>209.0</ele><time>2026-05-01T13:43:49Z</time></trkpt><trkpt lat="44.73911191349206" lon="0.9745408846608962"><ele>209.0</ele><time>2026-05-01T13:43:50Z</time></trkpt><trkpt lat="44.73920858858861" lon="0.9745261453192569"><ele>209.0</ele><time>2026-05-01T13:43:52Z</time></trkpt><trkpt lat="44.73924702301313" lon="0.9746826405888113"><ele>209.0</ele><time>2026-05-01T13:43:53Z</time></trkpt><trkpt lat="44.739314561021615" lon="0.9747859843971236"><ele>210.5</ele><time>2026-05-01T13:43:54Z</time></trkpt><trkpt lat="44.739386447154835" lon="0.974894176376984"><ele>212.0</ele><time>2026-05-01T13:43:55Z</time></trkpt><trkpt lat="44.739486606273644" lon="0.97501798787882"><ele>213.5</ele><time>2026-05-01T13:43:56Z</time></trkpt><trkpt lat="44.73958230901858" lon="0.9751633374994266"><ele>215.0</ele><time>2026-05-01T13:43:57Z</time></trkpt><trkpt lat="44.73968080965434" lon="0.9753487384888897"><ele>215.33333333333334</ele><time>2026-05-01T13:43:58Z</time></trkpt><trkpt lat="44.73978866043133" lon="0.9755256213410147"><ele>215.66666666666669</ele><time>2026-05-01T13:43:59Z</time></trkpt><trkpt lat="44.73989046288852" lon="0.9757088177959716"><ele>216.0</ele><time>2026-05-01T13:44:00Z</time></trkpt><trkpt lat="44.73997300594659" lon="0.9758567991407787"><ele>216.5</ele><time>2026-05-01T13:44:01Z</time></trkpt><trkpt lat="44.74005514241154" lon="0.9759674935984866"><ele>217.0</ele><time>2026-05-01T13:44:02Z</time></trkpt><trkpt lat="44.740105666092354" lon="0.9760946292916427"><ele>217.5</ele><time>2026-05-01T13:44:03Z</time></trkpt><trkpt lat="44.74019246199052" lon="0.9762113281111825"><ele>218.0</ele><time>2026-05-01T13:44:04Z</time></trkpt><trkpt lat="44.740279531097194" lon="0.9763308392477894"><ele>218.0</ele><time>2026-05-01T13:44:05Z</time></trkpt><trkpt lat="44.74035759245194" lon="0.9764482379451312"><ele>218.0</ele><time>2026-05-01T13:44:06Z</time></trkpt><trkpt lat="44.740430226808556" lon="0.9765864968262838"><ele>218.0</ele><time>2026-05-01T13:44:07Z</time></trkpt><trkpt lat="44.74052047525681" lon="0.9766862159543556"><ele>218.0</ele><time>2026-05-01T13:44:08Z</time></trkpt><trkpt lat="44.740600600708845" lon="0.9768029770353147"><ele>218.0</ele><time>2026-05-01T13:44:09Z</time></trkpt><trkpt lat="44.7406899426016" lon="0.9769128816579936"><ele>218.0</ele><time>2026-05-01T13:44:10Z</time></trkpt><trkpt lat="44.74076857240724" lon="0.9769649860299943"><ele>218.0</ele><time>2026-05-01T13:44:11Z</time></trkpt><trkpt lat="44.740840013727635" lon="0.9770154087094916"><ele>218.0</ele><time>2026-05-01T13:44:12Z</time></trkpt><trkpt lat="44.74090306126433" lon="0.9770986640711243"><ele>218.0</ele><time>2026-05-01T13:44:13Z</time></trkpt><trkpt lat="44.7409530859022" lon="0.9772038957965136"><ele>218.0</ele><time>2026-05-01T13:44:14Z</time></trkpt><trkpt lat="44.7410076567126" lon="0.9773293767259478"><ele>218.0</ele><time>2026-05-01T13:44:15Z</time></trkpt><trkpt lat="44.74105699953936" lon="0.9774331420837621"><ele>218.0</ele><time>2026-05-01T13:44:16Z</time></trkpt><trkpt lat="44.74111592983107" lon="0.9775388338741443"><ele>218.0</ele><time>2026-05-01T13:44:17Z</time></trkpt><trkpt lat="44.74117542438739" lon="0.9776314692166734"><ele>218.0</ele><time>2026-05-01T13:44:18Z</time></trkpt><trkpt lat="44.74122730911662" lon="0.9777334852314579"><ele>217.4</ele><time>2026-05-01T13:44:19Z</time></trkpt><trkpt lat="44.74126162812427" lon="0.9778134258593406"><ele>216.8</ele><time>2026-05-01T13:44:20Z</time></trkpt><trkpt lat="44.741298140016326" lon="0.9778983205307616"><ele>216.2</ele><time>2026-05-01T13:44:22Z</time></trkpt><trkpt lat="44.74130711425594" lon="0.9780448849172987"><ele>215.6</ele><time>2026-05-01T13:44:33Z</time></trkpt><trkpt lat="44.74136250656152" lon="0.9781644930912472"><ele>215.0</ele><time>2026-05-01T13:44:34Z</time></trkpt><trkpt lat="44.74142971861827" lon="0.9782993337904667"><ele>213.25</ele><time>2026-05-01T13:44:35Z</time></trkpt><trkpt lat="44.741498667908886" lon="0.9784520755956901"><ele>211.5</ele><time>2026-05-01T13:44:36Z</time></trkpt><trkpt lat="44.74157382306799" lon="0.9785765877644425"><ele>209.75</ele><time>2026-05-01T13:44:37Z</time></trkpt><trkpt lat="44.741650713064345" lon="0.9786965042138733"><ele>208.0</ele><time>2026-05-01T13:44:38Z</time></trkpt><trkpt lat="44.74172193662606" lon="0.9788137400765056"><ele>208.0</ele><time>2026-05-01T13:44:39Z</time></trkpt><trkpt lat="44.74180440147003" lon="0.9789538829327771"><ele>208.0</ele><time>2026-05-01T13:44:40Z</time></trkpt><trkpt lat="44.74188394442753" lon="0.9790828342296937"><ele>208.0</ele><time>2026-05-01T13:44:41Z</time></trkpt><trkpt lat="44.74198081442443" lon="0.9791910268337601"><ele>208.0</ele><time>2026-05-01T13:44:42Z</time></trkpt><trkpt lat="44.74207567975224" lon="0.9793094900684064"><ele>203.75</ele><time>2026-05-01T13:44:43Z</time></trkpt><trkpt lat="44.742142357184505" lon="0.9794462815773731"><ele>199.5</ele><time>2026-05-01T13:44:44Z</time></trkpt><trkpt lat="44.742219543488496" lon="0.9795706310119571"><ele>195.25</ele><time>2026-05-01T13:44:45Z</time></trkpt><trkpt lat="44.742302384608394" lon="0.979695369942026"><ele>191.0</ele><time>2026-05-01T13:44:46Z</time></trkpt><trkpt lat="44.742384551020436" lon="0.9797792998305017"><ele>191.0</ele><time>2026-05-01T13:44:47Z</time></trkpt><trkpt lat="44.74245632911052" lon="0.9799077928087503"><ele>191.0</ele><time>2026-05-01T13:44:48Z</time></trkpt><trkpt lat="44.74256429134274" lon="0.9799907886792422"><ele>191.0</ele><time>2026-05-01T13:44:49Z</time></trkpt><trkpt lat="44.742666069377954" lon="0.9800758554998226"><ele>191.0</ele><time>2026-05-01T13:44:50Z</time></trkpt><trkpt lat="44.74278811369828" lon="0.9801640313110443"><ele>188.75</ele><time>2026-05-01T13:44:51Z</time></trkpt><trkpt lat="44.742876139009425" lon="0.9802653627384453"><ele>186.5</ele><time>2026-05-01T13:44:52Z</time></trkpt><trkpt lat="44.74298447445171" lon="0.9803379998170398"><ele>184.25</ele><time>2026-05-01T13:44:53Z</time></trkpt><trkpt lat="44.743096523046006" lon="0.980443940517124"><ele>182.0</ele><time>2026-05-01T13:44:54Z</time></trkpt><trkpt lat="44.74321546768352" lon="0.9805544913999207"><ele>182.0</ele><time>2026-05-01T13:44:55Z</time></trkpt><trkpt lat="44.74333655348026" lon="0.9806896782703263"><ele>182.0</ele><time>2026-05-01T13:44:56Z</time></trkpt><trkpt lat="44.743447073564326" lon="0.9807764305786133"><ele>182.0</ele><time>2026-05-01T13:44:57Z</time></trkpt><trkpt lat="44.74353876559571" lon="0.9808820391687592"><ele>182.0</ele><time>2026-05-01T13:44:58Z</time></trkpt><trkpt lat="44.743642034491685" lon="0.9809949083278089"><ele>179.5</ele><time>2026-05-01T13:44:59Z</time></trkpt><trkpt lat="44.74375690979815" lon="0.9811327722756191"><ele>177.0</ele><time>2026-05-01T13:45:00Z</time></trkpt><trkpt lat="44.743870566723686" lon="0.9812551913676265"><ele>174.5</ele><time>2026-05-01T13:45:01Z</time></trkpt><trkpt lat="44.74397909266688" lon="0.981371959911046"><ele>172.0</ele><time>2026-05-01T13:45:02Z</time></trkpt><trkpt lat="44.74410553868617" lon="0.9814476386259576"><ele>172.0</ele><time>2026-05-01T13:45:03Z</time></trkpt><trkpt lat="44.74422119222706" lon="0.9815808177409803"><ele>172.0</ele><time>2026-05-01T13:45:04Z</time></trkpt><trkpt lat="44.744332085022826" lon="0.9817090410653634"><ele>172.0</ele><time>2026-05-01T13:45:05Z</time></trkpt><trkpt lat="44.744444410705796" lon="0.9818341452568151"><ele>172.0</ele><time>2026-05-01T13:45:06Z</time></trkpt><trkpt lat="44.74455843727992" lon="0.9819642944279502"><ele>171.0</ele><time>2026-05-01T13:45:07Z</time></trkpt><trkpt lat="44.74465708126745" lon="0.9820627186217125"><ele>170.0</ele><time>2026-05-01T13:45:08Z</time></trkpt><trkpt lat="44.744758533721054" lon="0.9821631520602001"><ele>169.0</ele><time>2026-05-01T13:45:09Z</time></trkpt><trkpt lat="44.74485995538482" lon="0.9822533523280406"><ele>168.0</ele><time>2026-05-01T13:45:10Z</time></trkpt><trkpt lat="44.74497100294172" lon="0.9823137807647103"><ele>168.0</ele><time>2026-05-01T13:45:11Z</time></trkpt><trkpt lat="44.745095599826406" lon="0.98238692964847"><ele>168.0</ele><time>2026-05-01T13:45:12Z</time></trkpt><trkpt lat="44.745196196905475" lon="0.9824856942624882"><ele>168.0</ele><time>2026-05-01T13:45:13Z</time></trkpt><trkpt lat="44.745291607276606" lon="0.982585370274492"><ele>168.0</ele><time>2026-05-01T13:45:14Z</time></trkpt><trkpt lat="44.74537674961429" lon="0.9826828219720163"><ele>166.5</ele><time>2026-05-01T13:45:15Z</time></trkpt><trkpt lat="44.745465175238984" lon="0.982808317949174"><ele>165.0</ele><time>2026-05-01T13:45:16Z</time></trkpt><trkpt lat="44.74554096514052" lon="0.9829288505222101"><ele>163.5</ele><time>2026-05-01T13:45:17Z</time></trkpt><trkpt lat="44.745639286764806" lon="0.9830644849209368"><ele>162.0</ele><time>2026-05-01T13:45:18Z</time></trkpt><trkpt lat="44.74573570411263" lon="0.9831524688008236"><ele>162.0</ele><time>2026-05-01T13:45:19Z</time></trkpt><trkpt lat="44.74583681127755" lon="0.9832188487678428"><ele>162.0</ele><time>2026-05-01T13:45:20Z</time></trkpt><trkpt lat="44.745930445686724" lon="0.9833202708608396"><ele>162.0</ele><time>2026-05-01T13:45:21Z</time></trkpt><trkpt lat="44.74600974666397" lon="0.9833982391098215"><ele>162.0</ele><time>2026-05-01T13:45:22Z</time></trkpt><trkpt lat="44.74609002064461" lon="0.9835001294278419"><ele>162.0</ele><time>2026-05-01T13:45:23Z</time></trkpt><trkpt lat="44.74617054943324" lon="0.9836280507382857"><ele>160.75</ele><time>2026-05-01T13:45:24Z</time></trkpt><trkpt lat="44.74625020418882" lon="0.9837621085406969"><ele>159.5</ele><time>2026-05-01T13:45:25Z</time></trkpt><trkpt lat="44.746333472767134" lon="0.9839103503258817"><ele>158.25</ele><time>2026-05-01T13:45:26Z</time></trkpt><trkpt lat="44.74640381209635" lon="0.9840224275840285"><ele>157.0</ele><time>2026-05-01T13:45:27Z</time></trkpt><trkpt lat="44.74647388753069" lon="0.984178027695719"><ele>156.0</ele><time>2026-05-01T13:45:28Z</time></trkpt><trkpt lat="44.74653996903207" lon="0.9843081768898658"><ele>155.0</ele><time>2026-05-01T13:45:29Z</time></trkpt><trkpt lat="44.74660915272482" lon="0.9844109236868858"><ele>154.0</ele><time>2026-05-01T13:45:30Z</time></trkpt><trkpt lat="44.74672185730436" lon="0.9845002629100945"><ele>153.0</ele><time>2026-05-01T13:45:31Z</time></trkpt><trkpt lat="44.74682956898228" lon="0.984599402857103"><ele>153.25</ele><time>2026-05-01T13:45:32Z</time></trkpt><trkpt lat="44.746925693007164" lon="0.984734893641006"><ele>153.5</ele><time>2026-05-01T13:45:33Z</time></trkpt><trkpt lat="44.74702207020872" lon="0.9848146390658119"><ele>153.75</ele><time>2026-05-01T13:45:34Z</time></trkpt><trkpt lat="44.74711874443275" lon="0.9849428159721096"><ele>154.0</ele><time>2026-05-01T13:45:35Z</time></trkpt><trkpt lat="44.74722042957124" lon="0.9850392383478138"><ele>154.0</ele><time>2026-05-01T13:45:36Z</time></trkpt><trkpt lat="44.74733440593707" lon="0.9851260107998595"><ele>154.0</ele><time>2026-05-01T13:45:37Z</time></trkpt><trkpt lat="44.74743573651514" lon="0.98521935538711"><ele>154.0</ele><time>2026-05-01T13:45:38Z</time></trkpt><trkpt lat="44.74751871720496" lon="0.9853606953117179"><ele>154.0</ele><time>2026-05-01T13:45:39Z</time></trkpt><trkpt lat="44.7476225034751" lon="0.9854661827078895"><ele>153.25</ele><time>2026-05-01T13:45:40Z</time></trkpt><trkpt lat="44.747741469059" lon="0.9855910739546573"><ele>152.5</ele><time>2026-05-01T13:45:41Z</time></trkpt><trkpt lat="44.74785442545177" lon="0.9857118889131825"><ele>151.75</ele><time>2026-05-01T13:45:42Z</time></trkpt><trkpt lat="44.74796297789133" lon="0.9858312135552996"><ele>151.0</ele><time>2026-05-01T13:45:43Z</time></trkpt><trkpt lat="44.74806700281774" lon="0.9859762152245106"><ele>151.0</ele><time>2026-05-01T13:45:44Z</time></trkpt><trkpt lat="44.74819123977862" lon="0.9860844333103055"><ele>151.0</ele><time>2026-05-01T13:45:45Z</time></trkpt><trkpt lat="44.74830713482941" lon="0.9862143983722971"><ele>151.0</ele><time>2026-05-01T13:45:46Z</time></trkpt><trkpt lat="44.74842953776219" lon="0.9863506658324985"><ele>151.0</ele><time>2026-05-01T13:45:47Z</time></trkpt><trkpt lat="44.7485423065591" lon="0.9864745847568178"><ele>151.0</ele><time>2026-05-01T13:45:48Z</time></trkpt><trkpt lat="44.74865156262442" lon="0.9866001569543102"><ele>151.0</ele><time>2026-05-01T13:45:49Z</time></trkpt><trkpt lat="44.7487878306837" lon="0.9867480644229177"><ele>150.25</ele><time>2026-05-01T13:45:50Z</time></trkpt><trkpt lat="44.748906071942365" lon="0.9868805603201318"><ele>149.5</ele><time>2026-05-01T13:45:51Z</time></trkpt><trkpt lat="44.74901388928382" lon="0.9870135571855051"><ele>148.75</ele><time>2026-05-01T13:45:52Z</time></trkpt><trkpt lat="44.74912374189419" lon="0.9871351456225002"><ele>148.0</ele><time>2026-05-01T13:45:53Z</time></trkpt><trkpt lat="44.74923290011411" lon="0.9872525858446486"><ele>148.0</ele><time>2026-05-01T13:45:54Z</time></trkpt><trkpt lat="44.749345030762655" lon="0.9873800071522147"><ele>148.0</ele><time>2026-05-01T13:45:55Z</time></trkpt><trkpt lat="44.74946056130146" lon="0.9875102594808068"><ele>148.0</ele><time>2026-05-01T13:45:56Z</time></trkpt><trkpt lat="44.74957332930522" lon="0.987635122122698"><ele>148.0</ele><time>2026-05-01T13:45:57Z</time></trkpt><trkpt lat="44.74968661981823" lon="0.9877541399876757"><ele>147.8</ele><time>2026-05-01T13:45:58Z</time></trkpt><trkpt lat="44.74978234100422" lon="0.9878631807769381"><ele>147.60000000000002</ele><time>2026-05-01T13:45:59Z</time></trkpt><trkpt lat="44.7498672729276" lon="0.9879592547745852"><ele>147.39999999999998</ele><time>2026-05-01T13:46:00Z</time></trkpt><trkpt lat="44.74994541047449" lon="0.9880493196261354"><ele>147.2</ele><time>2026-05-01T13:46:01Z</time></trkpt><trkpt lat="44.750015056412096" lon="0.9881248749623153"><ele>147.0</ele><time>2026-05-01T13:46:02Z</time></trkpt><trkpt lat="44.750088951766934" lon="0.9881774135096487"><ele>147.0</ele><time>2026-05-01T13:46:03Z</time></trkpt><trkpt lat="44.75014671764626" lon="0.9882223259424991"><ele>147.0</ele><time>2026-05-01T13:46:04Z</time></trkpt><trkpt lat="44.75025437433731" lon="0.9882805776715065"><ele>147.0</ele><time>2026-05-01T13:46:06Z</time></trkpt><trkpt lat="44.75018066622023" lon="0.9884249827363338"><ele>147.0</ele><time>2026-05-01T13:46:31Z</time></trkpt><trkpt lat="44.75013040971925" lon="0.988519782970639"><ele>147.0</ele><time>2026-05-01T13:46:32Z</time></trkpt><trkpt lat="44.750056697777424" lon="0.9886108789587387"><ele>148.25</ele><time>2026-05-01T13:46:33Z</time></trkpt><trkpt lat="44.74998445347909" lon="0.9887402877473555"><ele>149.5</ele><time>2026-05-01T13:46:34Z</time></trkpt><trkpt lat="44.74991293319804" lon="0.9888875838216794"><ele>150.75</ele><time>2026-05-01T13:46:35Z</time></trkpt><trkpt lat="44.749856922089165" lon="0.9890353697006001"><ele>152.0</ele><time>2026-05-01T13:46:36Z</time></trkpt><trkpt lat="44.74981386104539" lon="0.9891980647146564"><ele>152.0</ele><time>2026-05-01T13:46:37Z</time></trkpt><trkpt lat="44.749791570129844" lon="0.9893837139070558"><ele>152.0</ele><time>2026-05-01T13:46:38Z</time></trkpt><trkpt lat="44.74974627701719" lon="0.9895847289804414"><ele>152.0</ele><time>2026-05-01T13:46:39Z</time></trkpt><trkpt lat="44.749715941177094" lon="0.9897993191234045"><ele>152.0</ele><time>2026-05-01T13:46:40Z</time></trkpt><trkpt lat="44.74969389311432" lon="0.9900149061106082"><ele>153.0</ele><time>2026-05-01T13:46:41Z</time></trkpt><trkpt lat="44.74968205973406" lon="0.9902263882952383"><ele>154.0</ele><time>2026-05-01T13:46:42Z</time></trkpt><trkpt lat="44.749645399440375" lon="0.9904374205922855"><ele>155.0</ele><time>2026-05-01T13:46:43Z</time></trkpt><trkpt lat="44.74958618003549" lon="0.9906732291324536"><ele>156.0</ele><time>2026-05-01T13:46:44Z</time></trkpt><trkpt lat="44.74953169452516" lon="0.9908873882179465"><ele>157.0</ele><time>2026-05-01T13:46:45Z</time></trkpt><trkpt lat="44.749490968518984" lon="0.9910953253734439"><ele>158.0</ele><time>2026-05-01T13:46:46Z</time></trkpt><trkpt lat="44.74944386821725" lon="0.9913250266671316"><ele>158.0</ele><time>2026-05-01T13:46:47Z</time></trkpt><trkpt lat="44.74939807460008" lon="0.9915400025409797"><ele>158.0</ele><time>2026-05-01T13:46:48Z</time></trkpt><trkpt lat="44.74936631988961" lon="0.9917425467608604"><ele>158.0</ele><time>2026-05-01T13:46:49Z</time></trkpt><trkpt lat="44.74933735612928" lon="0.9919475292408606"><ele>155.5</ele><time>2026-05-01T13:46:50Z</time></trkpt><trkpt lat="44.74930892136615" lon="0.9921424478886657"><ele>153.0</ele><time>2026-05-01T13:46:51Z</time></trkpt><trkpt lat="44.74928568911267" lon="0.9923553236612765"><ele>150.5</ele><time>2026-05-01T13:46:52Z</time></trkpt><trkpt lat="44.74927224796318" lon="0.9925439469203214"><ele>148.0</ele><time>2026-05-01T13:46:53Z</time></trkpt><trkpt lat="44.74926023127092" lon="0.9927413340741149"><ele>146.75</ele><time>2026-05-01T13:46:54Z</time></trkpt><trkpt lat="44.74924265435272" lon="0.9929197674313378"><ele>145.5</ele><time>2026-05-01T13:46:55Z</time></trkpt><trkpt lat="44.74922692210583" lon="0.9930880032875424"><ele>144.25</ele><time>2026-05-01T13:46:56Z</time></trkpt><trkpt lat="44.7492181339045" lon="0.9932423691693412"><ele>143.0</ele><time>2026-05-01T13:46:57Z</time></trkpt><trkpt lat="44.74924566626236" lon="0.9934047851832855"><ele>142.75</ele><time>2026-05-01T13:46:58Z</time></trkpt><trkpt lat="44.749256279264046" lon="0.9935744462478373"><ele>142.5</ele><time>2026-05-01T13:46:59Z</time></trkpt><trkpt lat="44.74927389380692" lon="0.9937549727210075"><ele>142.25</ele><time>2026-05-01T13:47:00Z</time></trkpt><trkpt lat="44.74929476685733" lon="0.9939404994806826"><ele>142.0</ele><time>2026-05-01T13:47:01Z</time></trkpt><trkpt lat="44.74931317862206" lon="0.9941257745845635"><ele>141.5</ele><time>2026-05-01T13:47:02Z</time></trkpt><trkpt lat="44.74933102284264" lon="0.9943129167698594"><ele>141.0</ele><time>2026-05-01T13:47:03Z</time></trkpt><trkpt lat="44.74933308716069" lon="0.9944893465716412"><ele>140.5</ele><time>2026-05-01T13:47:04Z</time></trkpt><trkpt lat="44.74934974703642" lon="0.9946802308002367"><ele>140.0</ele><time>2026-05-01T13:47:05Z</time></trkpt><trkpt lat="44.74936490875307" lon="0.9948644758370622"><ele>141.75</ele><time>2026-05-01T13:47:06Z</time></trkpt><trkpt lat="44.74937894944097" lon="0.9950371793284136"><ele>143.5</ele><time>2026-05-01T13:47:07Z</time></trkpt><trkpt lat="44.749400625145334" lon="0.9952025466139316"><ele>145.25</ele><time>2026-05-01T13:47:08Z</time></trkpt><trkpt lat="44.749403823970404" lon="0.9953640210728439"><ele>147.0</ele><time>2026-05-01T13:47:09Z</time></trkpt><trkpt lat="44.74941934911609" lon="0.9955252054894169"><ele>147.0</ele><time>2026-05-01T13:47:10Z</time></trkpt><trkpt lat="44.74944542442206" lon="0.9956864453145142"><ele>147.0</ele><time>2026-05-01T13:47:11Z</time></trkpt><trkpt lat="44.74948213617114" lon="0.9958370163109355"><ele>147.0</ele><time>2026-05-01T13:47:12Z</time></trkpt><trkpt lat="44.749530617979524" lon="0.9959758121384583"><ele>147.0</ele><time>2026-05-01T13:47:13Z</time></trkpt><trkpt lat="44.74958972176745" lon="0.9961115303496957"><ele>145.25</ele><time>2026-05-01T13:47:14Z</time></trkpt><trkpt lat="44.749657476981014" lon="0.9962529004896016"><ele>143.5</ele><time>2026-05-01T13:47:15Z</time></trkpt><trkpt lat="44.74974389733359" lon="0.9964035544567552"><ele>141.75</ele><time>2026-05-01T13:47:16Z</time></trkpt><trkpt lat="44.74983981019479" lon="0.9965435324363574"><ele>140.0</ele><time>2026-05-01T13:47:17Z</time></trkpt><trkpt lat="44.749923687797114" lon="0.9967059071803458"><ele>139.2</ele><time>2026-05-01T13:47:18Z</time></trkpt><trkpt lat="44.75000222377942" lon="0.996770811898912"><ele>138.4</ele><time>2026-05-01T13:47:19Z</time></trkpt><trkpt lat="44.75007408063047" lon="0.9969048484951472"><ele>137.6</ele><time>2026-05-01T13:47:20Z</time></trkpt><trkpt lat="44.75012622207021" lon="0.9970196084389452"><ele>136.8</ele><time>2026-05-01T13:47:21Z</time></trkpt><trkpt lat="44.75017484824374" lon="0.9971691746285692"><ele>136.0</ele><time>2026-05-01T13:47:22Z</time></trkpt><trkpt lat="44.75021065552262" lon="0.9973139680528845"><ele>138.5</ele><time>2026-05-01T13:47:23Z</time></trkpt><trkpt lat="44.7502384537625" lon="0.9974700199388132"><ele>141.0</ele><time>2026-05-01T13:47:24Z</time></trkpt><trkpt lat="44.75025713579047" lon="0.9976451372798597"><ele>143.5</ele><time>2026-05-01T13:47:25Z</time></trkpt><trkpt lat="44.75023988516632" lon="0.9978096703511582"><ele>146.0</ele><time>2026-05-01T13:47:26Z</time></trkpt><trkpt lat="44.750270308814905" lon="0.9979645008919037"><ele>146.2</ele><time>2026-05-01T13:47:27Z</time></trkpt><trkpt lat="44.75029076850344" lon="0.9981173746427756"><ele>146.39999999999998</ele><time>2026-05-01T13:47:28Z</time></trkpt><trkpt lat="44.75028077270686" lon="0.9982795027938849"><ele>146.6</ele><time>2026-05-01T13:47:29Z</time></trkpt><trkpt lat="44.7502709877846" lon="0.9984087978293744"><ele>146.79999999999998</ele><time>2026-05-01T13:47:30Z</time></trkpt><trkpt lat="44.750273542586946" lon="0.9985199838788353"><ele>147.0</ele><time>2026-05-01T13:47:31Z</time></trkpt><trkpt lat="44.750268675453555" lon="0.9986430412123478"><ele>147.0</ele><time>2026-05-01T13:47:33Z</time></trkpt><trkpt lat="44.75036313235068" lon="0.9989230925553529"><ele>147.0</ele><time>2026-05-01T13:47:48Z</time></trkpt><trkpt lat="44.75035414951717" lon="0.9990373469916277"><ele>147.0</ele><time>2026-05-01T13:47:49Z</time></trkpt><trkpt lat="44.750412583647034" lon="0.999177803410384"><ele>147.0</ele><time>2026-05-01T13:47:51Z</time></trkpt><trkpt lat="44.75048207787267" lon="0.9992594318834082"><ele>147.5</ele><time>2026-05-01T13:47:53Z</time></trkpt><trkpt lat="44.750599945546014" lon="0.9993107473238761"><ele>148.0</ele><time>2026-05-01T13:47:55Z</time></trkpt><trkpt lat="44.750666302523875" lon="0.9993389924617784"><ele>148.5</ele><time>2026-05-01T13:47:56Z</time></trkpt><trkpt lat="44.750818036164766" lon="0.9993902864252724"><ele>149.0</ele><time>2026-05-01T13:47:58Z</time></trkpt><trkpt lat="44.750933191748096" lon="0.9994171307351853"><ele>149.0</ele><time>2026-05-01T13:47:59Z</time></trkpt><trkpt lat="44.75103619761939" lon="0.9994770142861102"><ele>149.0</ele><time>2026-05-01T13:48:01Z</time></trkpt><trkpt lat="44.75115118914113" lon="0.9995065463961844"><ele>149.0</ele><time>2026-05-01T13:48:03Z</time></trkpt><trkpt lat="44.751226855364585" lon="0.9995054664192429"><ele>149.0</ele><time>2026-05-01T13:48:04Z</time></trkpt><trkpt lat="44.7513097932407" lon="0.9995107509994574"><ele>149.0</ele><time>2026-05-01T13:48:05Z</time></trkpt><trkpt lat="44.751385601938786" lon="0.9995030239829649"><ele>150.0</ele><time>2026-05-01T13:48:06Z</time></trkpt><trkpt lat="44.75152638492247" lon="0.9995322937944568"><ele>151.0</ele><time>2026-05-01T13:48:08Z</time></trkpt><trkpt lat="44.75162273741328" lon="0.9995415907309386"><ele>152.0</ele><time>2026-05-01T13:48:09Z</time></trkpt><trkpt lat="44.75168581441742" lon="0.9995579033660776"><ele>153.0</ele><time>2026-05-01T13:48:10Z</time></trkpt><trkpt lat="44.751753635739455" lon="0.999564312413303"><ele>154.0</ele><time>2026-05-01T13:48:11Z</time></trkpt><trkpt lat="44.75181236381864" lon="0.9996332642901591"><ele>155.0</ele><time>2026-05-01T13:48:13Z</time></trkpt><trkpt lat="44.75178278230292" lon="0.9997480304305629"><ele>155.0</ele><time>2026-05-01T13:48:15Z</time></trkpt><trkpt lat="44.751726887225836" lon="0.9998467691960137"><ele>155.0</ele><time>2026-05-01T13:48:16Z</time></trkpt><trkpt lat="44.75166792741457" lon="0.99994387302601"><ele>155.0</ele><time>2026-05-01T13:48:17Z</time></trkpt><trkpt lat="44.751633275477886" lon="1.000056089515769"><ele>155.0</ele><time>2026-05-01T13:48:18Z</time></trkpt><trkpt lat="44.75159865793673" lon="1.000132638647519"><ele>155.0</ele><time>2026-05-01T13:48:19Z</time></trkpt><trkpt lat="44.75158569867458" lon="1.0002762729286314"><ele>155.0</ele><time>2026-05-01T13:48:21Z</time></trkpt><trkpt lat="44.75163658961926" lon="1.0003958055903257"><ele>155.0</ele><time>2026-05-01T13:48:23Z</time></trkpt><trkpt lat="44.75175353531748" lon="1.0004627191221518"><ele>155.0</ele><time>2026-05-01T13:48:25Z</time></trkpt><trkpt lat="44.75183084762727" lon="1.0004912779346085"><ele>155.0</ele><time>2026-05-01T13:48:26Z</time></trkpt><trkpt lat="44.7518924988682" lon="1.0005737932075305"><ele>155.0</ele><time>2026-05-01T13:48:28Z</time></trkpt><trkpt lat="44.75191788194805" lon="1.0006671311398672"><ele>155.0</ele><time>2026-05-01T13:48:29Z</time></trkpt><trkpt lat="44.75184023098367" lon="1.0007725300743184"><ele>155.0</ele><time>2026-05-01T13:48:31Z</time></trkpt><trkpt lat="44.75172021033055" lon="1.000791358995435"><ele>155.0</ele><time>2026-05-01T13:48:33Z</time></trkpt><trkpt lat="44.75166884385981" lon="1.0008431930161175"><ele>155.0</ele><time>2026-05-01T13:48:34Z</time></trkpt><trkpt lat="44.75156794644174" lon="1.0009360212240956"><ele>155.0</ele><time>2026-05-01T13:48:36Z</time></trkpt><trkpt lat="44.75152437284157" lon="1.0010290014734655"><ele>155.0</ele><time>2026-05-01T13:48:37Z</time></trkpt><trkpt lat="44.75146683401339" lon="1.0011078324818663"><ele>158.2</ele><time>2026-05-01T13:48:39Z</time></trkpt><trkpt lat="44.75142043531858" lon="1.0012162543014111"><ele>161.4</ele><time>2026-05-01T13:48:41Z</time></trkpt><trkpt lat="44.751343534865384" lon="1.0012574334416087"><ele>164.60000000000002</ele><time>2026-05-01T13:48:42Z</time></trkpt><trkpt lat="44.7512557697498" lon="1.0013030287180245"><ele>167.8</ele><time>2026-05-01T13:48:44Z</time></trkpt><trkpt lat="44.75119964745828" lon="1.0014238017938213"><ele>171.0</ele><time>2026-05-01T13:48:46Z</time></trkpt><trkpt lat="44.751127743185044" lon="1.0015338097825914"><ele>172.0</ele><time>2026-05-01T13:48:48Z</time></trkpt><trkpt lat="44.75104024229184" lon="1.001628392070521"><ele>173.0</ele><time>2026-05-01T13:48:50Z</time></trkpt><trkpt lat="44.75099830668666" lon="1.0017147731758838"><ele>174.0</ele><time>2026-05-01T13:48:52Z</time></trkpt><trkpt lat="44.75098423155626" lon="1.001806538434917"><ele>175.0</ele><time>2026-05-01T13:48:53Z</time></trkpt><trkpt lat="44.750968949293615" lon="1.001967515726707"><ele>176.0</ele><time>2026-05-01T13:48:55Z</time></trkpt><trkpt lat="44.75095539244278" lon="1.0021263826043527"><ele>176.0</ele><time>2026-05-01T13:48:57Z</time></trkpt><trkpt lat="44.75096587511923" lon="1.0023242514262163"><ele>176.0</ele><time>2026-05-01T13:48:59Z</time></trkpt><trkpt lat="44.75097458382421" lon="1.0024301090038954"><ele>176.0</ele><time>2026-05-01T13:49:00Z</time></trkpt><trkpt lat="44.750983781975165" lon="1.0025205436173716"><ele>176.0</ele><time>2026-05-01T13:49:01Z</time></trkpt><trkpt lat="44.75099382460242" lon="1.002616458673364"><ele>176.0</ele><time>2026-05-01T13:49:02Z</time></trkpt><trkpt lat="44.7510309062775" lon="1.0028236081299784"><ele>179.83333333333331</ele><time>2026-05-01T13:49:04Z</time></trkpt><trkpt lat="44.75106205108745" lon="1.0029125704308437"><ele>183.66666666666666</ele><time>2026-05-01T13:49:05Z</time></trkpt><trkpt lat="44.751087211307215" lon="1.0030148215499415"><ele>187.5</ele><time>2026-05-01T13:49:06Z</time></trkpt><trkpt lat="44.75111645872293" lon="1.003135256405039"><ele>191.33333333333331</ele><time>2026-05-01T13:49:07Z</time></trkpt><trkpt lat="44.751139596085416" lon="1.0032284075598166"><ele>195.16666666666666</ele><time>2026-05-01T13:49:08Z</time></trkpt><trkpt lat="44.75115748141221" lon="1.0033432992517963"><ele>199.0</ele><time>2026-05-01T13:49:09Z</time></trkpt><trkpt lat="44.75118053418578" lon="1.0034580101386328"><ele>200.16666666666666</ele><time>2026-05-01T13:49:10Z</time></trkpt><trkpt lat="44.75120784224118" lon="1.0035640064276397"><ele>201.33333333333331</ele><time>2026-05-01T13:49:11Z</time></trkpt><trkpt lat="44.751231902632576" lon="1.0036692020260045"><ele>202.5</ele><time>2026-05-01T13:49:12Z</time></trkpt><trkpt lat="44.75127532014797" lon="1.0037759541595044"><ele>203.66666666666669</ele><time>2026-05-01T13:49:13Z</time></trkpt><trkpt lat="44.75132005706913" lon="1.0038573028452549"><ele>204.83333333333334</ele><time>2026-05-01T13:49:14Z</time></trkpt><trkpt lat="44.75138938654283" lon="1.0039263380596641"><ele>206.0</ele><time>2026-05-01T13:49:16Z</time></trkpt><trkpt lat="44.751441917449064" lon="1.0039773371587337"><ele>206.0</ele><time>2026-05-01T13:49:17Z</time></trkpt><trkpt lat="44.751540847945115" lon="1.004094066130351"><ele>206.0</ele><time>2026-05-01T13:49:19Z</time></trkpt><trkpt lat="44.75162294333995" lon="1.004153863599703"><ele>206.0</ele><time>2026-05-01T13:49:20Z</time></trkpt><trkpt lat="44.75174426964899" lon="1.0042092518262398"><ele>206.0</ele><time>2026-05-01T13:49:22Z</time></trkpt><trkpt lat="44.75184970264938" lon="1.0042645147916867"><ele>207.20000000000002</ele><time>2026-05-01T13:49:23Z</time></trkpt><trkpt lat="44.75191952576191" lon="1.0043072218108628"><ele>208.4</ele><time>2026-05-01T13:49:24Z</time></trkpt><trkpt lat="44.751993345379205" lon="1.0043591175151476"><ele>209.6</ele><time>2026-05-01T13:49:25Z</time></trkpt><trkpt lat="44.752106524268264" lon="1.0044054508410802"><ele>210.8</ele><time>2026-05-01T13:49:26Z</time></trkpt><trkpt lat="44.75221116249463" lon="1.0044585874094494"><ele>212.0</ele><time>2026-05-01T13:49:27Z</time></trkpt><trkpt lat="44.75232027190805" lon="1.0045200926552393"><ele>212.00000000000003</ele><time>2026-05-01T13:49:28Z</time></trkpt><trkpt lat="44.75240783287323" lon="1.0045616189236781"><ele>212.0</ele><time>2026-05-01T13:49:29Z</time></trkpt><trkpt lat="44.752474007820304" lon="1.0046028619076979"><ele>212.0</ele><time>2026-05-01T13:49:30Z</time></trkpt><trkpt lat="44.752539385487694" lon="1.0046478781675663"><ele>212.0</ele><time>2026-05-01T13:49:31Z</time></trkpt><trkpt lat="44.752605429974984" lon="1.004722580362732"><ele>212.00000000000003</ele><time>2026-05-01T13:49:32Z</time></trkpt><trkpt lat="44.75267050269886" lon="1.004798404562242"><ele>212.0</ele><time>2026-05-01T13:49:33Z</time></trkpt><trkpt lat="44.75272833405866" lon="1.0048525708596543"><ele>211.8</ele><time>2026-05-01T13:49:34Z</time></trkpt><trkpt lat="44.75280217986574" lon="1.0048972855095721"><ele>211.6</ele><time>2026-05-01T13:49:35Z</time></trkpt><trkpt lat="44.75288720724058" lon="1.0049330669159515"><ele>211.4</ele><time>2026-05-01T13:49:36Z</time></trkpt><trkpt lat="44.7529689610701" lon="1.004972802809258"><ele>211.20000000000002</ele><time>2026-05-01T13:49:37Z</time></trkpt><trkpt lat="44.753061704426464" lon="1.005025776113984"><ele>211.0</ele><time>2026-05-01T13:49:38Z</time></trkpt><trkpt lat="44.75315257746616" lon="1.0050901538640493"><ele>211.0</ele><time>2026-05-01T13:49:39Z</time></trkpt><trkpt lat="44.75324692854127" lon="1.0051627238463496"><ele>211.0</ele><time>2026-05-01T13:49:40Z</time></trkpt><trkpt lat="44.75335501652637" lon="1.0052414164649732"><ele>211.0</ele><time>2026-05-01T13:49:41Z</time></trkpt><trkpt lat="44.753463223632224" lon="1.0053252873449383"><ele>211.0</ele><time>2026-05-01T13:49:42Z</time></trkpt><trkpt lat="44.753578317453076" lon="1.005420503612046"><ele>211.0</ele><time>2026-05-01T13:49:43Z</time></trkpt><trkpt lat="44.75368765051751" lon="1.0055228414289246"><ele>211.0</ele><time>2026-05-01T13:49:44Z</time></trkpt><trkpt lat="44.75379380010121" lon="1.0056246268606934"><ele>211.0</ele><time>2026-05-01T13:49:45Z</time></trkpt><trkpt lat="44.75389364508553" lon="1.005734503926394"><ele>211.0</ele><time>2026-05-01T13:49:46Z</time></trkpt><trkpt lat="44.75398076100055" lon="1.0058289620029088"><ele>210.60000000000002</ele><time>2026-05-01T13:49:47Z</time></trkpt><trkpt lat="44.754059626684096" lon="1.0059155838050156"><ele>210.2</ele><time>2026-05-01T13:49:48Z</time></trkpt><trkpt lat="44.75413394726171" lon="1.005998042987962"><ele>209.8</ele><time>2026-05-01T13:49:49Z</time></trkpt><trkpt lat="44.75420732828123" lon="1.0060919199445455"><ele>209.39999999999998</ele><time>2026-05-01T13:49:50Z</time></trkpt><trkpt lat="44.75428847679801" lon="1.0061940506256064"><ele>209.0</ele><time>2026-05-01T13:49:51Z</time></trkpt><trkpt lat="44.75436703261856" lon="1.0062919003554314"><ele>208.79999999999998</ele><time>2026-05-01T13:49:52Z</time></trkpt><trkpt lat="44.754439678229325" lon="1.0063717882384913"><ele>208.6</ele><time>2026-05-01T13:49:53Z</time></trkpt><trkpt lat="44.7545080035915" lon="1.0064143567154265"><ele>208.4</ele><time>2026-05-01T13:49:54Z</time></trkpt><trkpt lat="44.754586702650336" lon="1.0064213820549375"><ele>208.2</ele><time>2026-05-01T13:49:55Z</time></trkpt><trkpt lat="44.75468179816374" lon="1.0064134469168649"><ele>208.0</ele><time>2026-05-01T13:49:56Z</time></trkpt><trkpt lat="44.75479198185448" lon="1.0063936515146377"><ele>208.0</ele><time>2026-05-01T13:49:57Z</time></trkpt><trkpt lat="44.754915635682494" lon="1.0063852281622474"><ele>208.0</ele><time>2026-05-01T13:49:58Z</time></trkpt><trkpt lat="44.755046494710484" lon="1.0063854734672186"><ele>208.0</ele><time>2026-05-01T13:49:59Z</time></trkpt><trkpt lat="44.75518503241559" lon="1.0063958780122007"><ele>208.0</ele><time>2026-05-01T13:50:00Z</time></trkpt><trkpt lat="44.755326222215054" lon="1.0064077147177317"><ele>208.25</ele><time>2026-05-01T13:50:01Z</time></trkpt><trkpt lat="44.75547194017747" lon="1.006411442057196"><ele>208.5</ele><time>2026-05-01T13:50:02Z</time></trkpt><trkpt lat="44.755606435935775" lon="1.006421660533888"><ele>208.75</ele><time>2026-05-01T13:50:03Z</time></trkpt><trkpt lat="44.75573924439972" lon="1.0064296198628506"><ele>209.0</ele><time>2026-05-01T13:50:04Z</time></trkpt><trkpt lat="44.75585242636763" lon="1.0064427959078746"><ele>209.0</ele><time>2026-05-01T13:50:05Z</time></trkpt><trkpt lat="44.75595558255245" lon="1.0064483486453875"><ele>209.0</ele><time>2026-05-01T13:50:06Z</time></trkpt><trkpt lat="44.75604785547549" lon="1.006449439097825"><ele>209.0</ele><time>2026-05-01T13:50:07Z</time></trkpt><trkpt lat="44.75611424570622" lon="1.006432534874"><ele>209.0</ele><time>2026-05-01T13:50:08Z</time></trkpt><trkpt lat="44.756186038245204" lon="1.0064576857342087"><ele>209.0</ele><time>2026-05-01T13:50:10Z</time></trkpt><trkpt lat="44.75621977331908" lon="1.0067375677115764"><ele>209.0</ele><time>2026-05-01T13:50:13Z</time></trkpt><trkpt lat="44.75623502078874" lon="1.0068343639915367"><ele>209.0</ele><time>2026-05-01T13:50:14Z</time></trkpt><trkpt lat="44.75625442937559" lon="1.0069543454611842"><ele>209.0</ele><time>2026-05-01T13:50:15Z</time></trkpt><trkpt lat="44.75627363327979" lon="1.0070755231179889"><ele>209.0</ele><time>2026-05-01T13:50:16Z</time></trkpt><trkpt lat="44.7562954200173" lon="1.0071835289624107"><ele>209.0</ele><time>2026-05-01T13:50:17Z</time></trkpt><trkpt lat="44.756358358593296" lon="1.0073497768690918"><ele>209.0</ele><time>2026-05-01T13:50:19Z</time></trkpt><trkpt lat="44.7564162879575" lon="1.0074299243512594"><ele>209.0</ele><time>2026-05-01T13:50:20Z</time></trkpt><trkpt lat="44.75647993351225" lon="1.00750887546629"><ele>209.0</ele><time>2026-05-01T13:50:21Z</time></trkpt><trkpt lat="44.75654234641545" lon="1.007547014239962"><ele>209.0</ele><time>2026-05-01T13:50:22Z</time></trkpt><trkpt lat="44.75663722744033" lon="1.0076342020392803"><ele>209.0</ele><time>2026-05-01T13:50:23Z</time></trkpt><trkpt lat="44.75673348409421" lon="1.0076966626766464"><ele>208.75</ele><time>2026-05-01T13:50:24Z</time></trkpt><trkpt lat="44.75683877413577" lon="1.007771015594678"><ele>208.5</ele><time>2026-05-01T13:50:25Z</time></trkpt><trkpt lat="44.75694005762878" lon="1.0078126316696885"><ele>208.25</ele><time>2026-05-01T13:50:26Z</time></trkpt><trkpt lat="44.75705198871341" lon="1.0078722122113064"><ele>208.0</ele><time>2026-05-01T13:50:27Z</time></trkpt><trkpt lat="44.757155919005164" lon="1.0079638178570498"><ele>207.99999999999997</ele><time>2026-05-01T13:50:28Z</time></trkpt><trkpt lat="44.75724126058811" lon="1.0080679262608077"><ele>208.0</ele><time>2026-05-01T13:50:29Z</time></trkpt><trkpt lat="44.757311166356516" lon="1.0081550686136953"><ele>208.0</ele><time>2026-05-01T13:50:30Z</time></trkpt><trkpt lat="44.75736603400842" lon="1.008217817564781"><ele>208.0</ele><time>2026-05-01T13:50:31Z</time></trkpt><trkpt lat="44.7574296682241" lon="1.0082389902264848"><ele>207.99999999999997</ele><time>2026-05-01T13:50:32Z</time></trkpt><trkpt lat="44.75751563293814" lon="1.0082784363760464"><ele>208.0</ele><time>2026-05-01T13:50:33Z</time></trkpt><trkpt lat="44.75761007888216" lon="1.0083075175907055"><ele>208.0</ele><time>2026-05-01T13:50:34Z</time></trkpt><trkpt lat="44.75770103018608" lon="1.008322474638895"><ele>208.0</ele><time>2026-05-01T13:50:35Z</time></trkpt><trkpt lat="44.75779536267489" lon="1.0083301812870842"><ele>208.0</ele><time>2026-05-01T13:50:36Z</time></trkpt><trkpt lat="44.75788633376335" lon="1.0083400473507478"><ele>208.0</ele><time>2026-05-01T13:50:37Z</time></trkpt><trkpt lat="44.75797423591565" lon="1.008344164600632"><ele>208.0</ele><time>2026-05-01T13:50:38Z</time></trkpt><trkpt lat="44.758075458539174" lon="1.0083509741128982"><ele>207.49999999999997</ele><time>2026-05-01T13:50:39Z</time></trkpt><trkpt lat="44.758162505145" lon="1.0083455629602074"><ele>207.0</ele><time>2026-05-01T13:50:40Z</time></trkpt><trkpt lat="44.758273767852764" lon="1.0083392609839386"><ele>206.5</ele><time>2026-05-01T13:50:42Z</time></trkpt><trkpt lat="44.75835378381789" lon="1.0083116352702335"><ele>206.0</ele><time>2026-05-01T13:50:43Z</time></trkpt><trkpt lat="44.75842645713184" lon="1.0082767724676809"><ele>205.49999999999997</ele><time>2026-05-01T13:50:44Z</time></trkpt><trkpt lat="44.75849255758784" lon="1.0082402321781896"><ele>205.0</ele><time>2026-05-01T13:50:45Z</time></trkpt><trkpt lat="44.75856215814912" lon="1.0082025268474828"><ele>202.33333333333331</ele><time>2026-05-01T13:50:46Z</time></trkpt><trkpt lat="44.75865756110527" lon="1.0080944492376918"><ele>199.66666666666666</ele><time>2026-05-01T13:50:48Z</time></trkpt><trkpt lat="44.75872250151151" lon="1.0080241649359756"><ele>197.0</ele><time>2026-05-01T13:50:49Z</time></trkpt><trkpt lat="44.75877454518729" lon="1.0079483264466178"><ele>194.33333333333331</ele><time>2026-05-01T13:50:50Z</time></trkpt><trkpt lat="44.75882788941413" lon="1.007882727331993"><ele>191.66666666666666</ele><time>2026-05-01T13:50:51Z</time></trkpt><trkpt lat="44.758887809166545" lon="1.007815140747545"><ele>189.0</ele><time>2026-05-01T13:50:52Z</time></trkpt><trkpt lat="44.75895144941873" lon="1.0077375632544048"><ele>189.0</ele><time>2026-05-01T13:50:53Z</time></trkpt><trkpt lat="44.75902113110126" lon="1.0076673523252286"><ele>189.0</ele><time>2026-05-01T13:50:54Z</time></trkpt><trkpt lat="44.75908742460884" lon="1.0076037902763235"><ele>189.0</ele><time>2026-05-01T13:50:55Z</time></trkpt><trkpt lat="44.75912610267644" lon="1.0075264872167744"><ele>189.0</ele><time>2026-05-01T13:50:56Z</time></trkpt><trkpt lat="44.75918537829731" lon="1.007390304386669"><ele>189.0</ele><time>2026-05-01T13:50:58Z</time></trkpt><trkpt lat="44.75919668338697" lon="1.0072774356008187"><ele>189.0</ele><time>2026-05-01T13:50:59Z</time></trkpt><trkpt lat="44.759209566650554" lon="1.0071535273447112"><ele>189.79999999999998</ele><time>2026-05-01T13:51:00Z</time></trkpt><trkpt lat="44.759236247818784" lon="1.0070490891777122"><ele>190.6</ele><time>2026-05-01T13:51:01Z</time></trkpt><trkpt lat="44.7592816762564" lon="1.006936755108403"><ele>191.4</ele><time>2026-05-01T13:51:03Z</time></trkpt><trkpt lat="44.75934394726014" lon="1.0069208691263143"><ele>192.2</ele><time>2026-05-01T13:51:04Z</time></trkpt><trkpt lat="44.75947441392875" lon="1.0069483637760954"><ele>193.0</ele><time>2026-05-01T13:51:06Z</time></trkpt><trkpt lat="44.7595592193035" lon="1.0069452187649308"><ele>193.2</ele><time>2026-05-01T13:51:07Z</time></trkpt><trkpt lat="44.75964475348831" lon="1.0069564132428848"><ele>193.4</ele><time>2026-05-01T13:51:08Z</time></trkpt><trkpt lat="44.75973785503148" lon="1.0069640898852772"><ele>193.6</ele><time>2026-05-01T13:51:09Z</time></trkpt><trkpt lat="44.759810854868476" lon="1.0070184970347529"><ele>193.79999999999998</ele><time>2026-05-01T13:51:10Z</time></trkpt><trkpt lat="44.75988993445078" lon="1.0070527499806987"><ele>194.0</ele><time>2026-05-01T13:51:11Z</time></trkpt><trkpt lat="44.759978556214534" lon="1.0071402027219853"><ele>194.0</ele><time>2026-05-01T13:51:13Z</time></trkpt><trkpt lat="44.76006871036431" lon="1.0072300829868641"><ele>194.0</ele><time>2026-05-01T13:51:14Z</time></trkpt><trkpt lat="44.760192898252576" lon="1.0073122411271072"><ele>194.0</ele><time>2026-05-01T13:51:15Z</time></trkpt><trkpt lat="44.760290945835244" lon="1.0073872043681484"><ele>194.0</ele><time>2026-05-01T13:51:16Z</time></trkpt><trkpt lat="44.76038681004752" lon="1.00742729484393"><ele>193.75</ele><time>2026-05-01T13:51:17Z</time></trkpt><trkpt lat="44.760482845896405" lon="1.0074635557454514"><ele>193.5</ele><time>2026-05-01T13:51:18Z</time></trkpt><trkpt lat="44.760596422050604" lon="1.0075007843258836"><ele>193.25</ele><time>2026-05-01T13:51:19Z</time></trkpt><trkpt lat="44.76072641351935" lon="1.0075171396242677"><ele>193.0</ele><time>2026-05-01T13:51:20Z</time></trkpt><trkpt lat="44.76084299706785" lon="1.0075432141357339"><ele>193.0</ele><time>2026-05-01T13:51:21Z</time></trkpt><trkpt lat="44.76094485130824" lon="1.007555051509085"><ele>193.0</ele><time>2026-05-01T13:51:22Z</time></trkpt><trkpt lat="44.76103872877823" lon="1.0075736328744271"><ele>193.0</ele><time>2026-05-01T13:51:23Z</time></trkpt><trkpt lat="44.7611092075728" lon="1.0075732592707338"><ele>193.0</ele><time>2026-05-01T13:51:25Z</time></trkpt><trkpt lat="44.7610846643938" lon="1.0074611964398799"><ele>193.0</ele><time>2026-05-01T13:51:28Z</time></trkpt><trkpt lat="44.76099530953654" lon="1.0073106124128903"><ele>193.0</ele><time>2026-05-01T13:51:30Z</time></trkpt><trkpt lat="44.760942339082206" lon="1.007201166994522"><ele>193.0</ele><time>2026-05-01T13:51:31Z</time></trkpt><trkpt lat="44.76089285660998" lon="1.007083106280943"><ele>193.0</ele><time>2026-05-01T13:51:32Z</time></trkpt><trkpt lat="44.760847860018906" lon="1.0069644548843828"><ele>193.0</ele><time>2026-05-01T13:51:33Z</time></trkpt><trkpt lat="44.76078289970991" lon="1.006860995966643"><ele>193.0</ele><time>2026-05-01T13:51:34Z</time></trkpt><trkpt lat="44.760700288069806" lon="1.0067453941104916"><ele>192.4</ele><time>2026-05-01T13:51:35Z</time></trkpt><trkpt lat="44.760617736571746" lon="1.0066344912013785"><ele>191.8</ele><time>2026-05-01T13:51:36Z</time></trkpt><trkpt lat="44.760538495541034" lon="1.0065186156127912"><ele>191.2</ele><time>2026-05-01T13:51:37Z</time></trkpt><trkpt lat="44.76046747691178" lon="1.0064179917592593"><ele>190.6</ele><time>2026-05-01T13:51:38Z</time></trkpt><trkpt lat="44.76040523079993" lon="1.0063206462572662"><ele>190.0</ele><time>2026-05-01T13:51:39Z</time></trkpt><trkpt lat="44.76036919696526" lon="1.006225878543985"><ele>190.0</ele><time>2026-05-01T13:51:40Z</time></trkpt><trkpt lat="44.760381969497615" lon="1.0060649698153612"><ele>190.0</ele><time>2026-05-01T13:51:42Z</time></trkpt><trkpt lat="44.76041669821113" lon="1.005941459636145"><ele>190.0</ele><time>2026-05-01T13:51:44Z</time></trkpt><trkpt lat="44.76044660017864" lon="1.0057689658160835"><ele>190.0</ele><time>2026-05-01T13:51:46Z</time></trkpt><trkpt lat="44.76046045369892" lon="1.0056616385051564"><ele>190.0</ele><time>2026-05-01T13:51:47Z</time></trkpt><trkpt lat="44.76047587621343" lon="1.005535377315383"><ele>190.66666666666669</ele><time>2026-05-01T13:51:48Z</time></trkpt><trkpt lat="44.76049131524219" lon="1.0054095163720576"><ele>191.33333333333334</ele><time>2026-05-01T13:51:49Z</time></trkpt><trkpt lat="44.76050947946421" lon="1.0053006338200348"><ele>192.0</ele><time>2026-05-01T13:51:50Z</time></trkpt><trkpt lat="44.760519483215965" lon="1.0052035699160076"><ele>192.66666666666669</ele><time>2026-05-01T13:51:51Z</time></trkpt><trkpt lat="44.76057442745494" lon="1.0050946916632981"><ele>193.33333333333334</ele><time>2026-05-01T13:51:53Z</time></trkpt><trkpt lat="44.76068852744255" lon="1.0050754143517597"><ele>194.0</ele><time>2026-05-01T13:51:55Z</time></trkpt><trkpt lat="44.76076421658698" lon="1.0050988513220949"><ele>194.0</ele><time>2026-05-01T13:51:56Z</time></trkpt><trkpt lat="44.76087071371777" lon="1.0051252666398516"><ele>194.0</ele><time>2026-05-01T13:51:57Z</time></trkpt><trkpt lat="44.760971546385925" lon="1.0051309965321487"><ele>194.0</ele><time>2026-05-01T13:51:58Z</time></trkpt><trkpt lat="44.76104532357003" lon="1.005115991679662"><ele>194.0</ele><time>2026-05-01T13:51:59Z</time></trkpt><trkpt lat="44.761125527142944" lon="1.005075061376109"><ele>194.0</ele><time>2026-05-01T13:52:00Z</time></trkpt><trkpt lat="44.761193802803035" lon="1.004983483426175"><ele>190.75</ele><time>2026-05-01T13:52:01Z</time></trkpt><trkpt lat="44.76128197231557" lon="1.0048653282526687"><ele>187.5</ele><time>2026-05-01T13:52:02Z</time></trkpt><trkpt lat="44.76136521300909" lon="1.0047331465008176"><ele>184.25</ele><time>2026-05-01T13:52:03Z</time></trkpt><trkpt lat="44.76147149028428" lon="1.0046073978136385"><ele>181.0</ele><time>2026-05-01T13:52:04Z</time></trkpt><trkpt lat="44.761586538510564" lon="1.0044788750095843"><ele>181.0</ele><time>2026-05-01T13:52:05Z</time></trkpt><trkpt lat="44.7616915410202" lon="1.0043576342375358"><ele>181.0</ele><time>2026-05-01T13:52:06Z</time></trkpt><trkpt lat="44.76178973652811" lon="1.004225940384669"><ele>181.0</ele><time>2026-05-01T13:52:07Z</time></trkpt><trkpt lat="44.76189084663237" lon="1.0040941855416432"><ele>181.0</ele><time>2026-05-01T13:52:08Z</time></trkpt><trkpt lat="44.76200775264684" lon="1.0039683476151056"><ele>180.0</ele><time>2026-05-01T13:52:09Z</time></trkpt><trkpt lat="44.76212122075196" lon="1.0038673817199226"><ele>179.0</ele><time>2026-05-01T13:52:10Z</time></trkpt><trkpt lat="44.76223323901527" lon="1.0037770802979122"><ele>178.0</ele><time>2026-05-01T13:52:11Z</time></trkpt><trkpt lat="44.762330351590336" lon="1.0037200432528508"><ele>177.0</ele><time>2026-05-01T13:52:12Z</time></trkpt><trkpt lat="44.76244402157992" lon="1.003650223252536"><ele>177.0</ele><time>2026-05-01T13:52:13Z</time></trkpt><trkpt lat="44.76256970448582" lon="1.0036069024856809"><ele>177.0</ele><time>2026-05-01T13:52:14Z</time></trkpt><trkpt lat="44.76269804878565" lon="1.003575350651808"><ele>177.0</ele><time>2026-05-01T13:52:15Z</time></trkpt><trkpt lat="44.76283204245409" lon="1.0035723903141993"><ele>177.0</ele><time>2026-05-01T13:52:16Z</time></trkpt><trkpt lat="44.76296826784878" lon="1.0035968939458908"><ele>176.0</ele><time>2026-05-01T13:52:17Z</time></trkpt><trkpt lat="44.76310163654917" lon="1.003625351088676"><ele>175.0</ele><time>2026-05-01T13:52:18Z</time></trkpt><trkpt lat="44.76322262644683" lon="1.0036398639371462"><ele>174.0</ele><time>2026-05-01T13:52:19Z</time></trkpt><trkpt lat="44.76334353303007" lon="1.0036486824603266"><ele>173.0</ele><time>2026-05-01T13:52:20Z</time></trkpt><trkpt lat="44.763459428308934" lon="1.0036429694202071"><ele>171.2</ele><time>2026-05-01T13:52:21Z</time></trkpt><trkpt lat="44.76356329657684" lon="1.0036353121782131"><ele>169.4</ele><time>2026-05-01T13:52:22Z</time></trkpt><trkpt lat="44.76366367852296" lon="1.0036280575318337"><ele>167.6</ele><time>2026-05-01T13:52:23Z</time></trkpt><trkpt lat="44.763755420676766" lon="1.003613182449815"><ele>165.79999999999998</ele><time>2026-05-01T13:52:24Z</time></trkpt><trkpt lat="44.76383696465037" lon="1.0035795532789618"><ele>164.0</ele><time>2026-05-01T13:52:25Z</time></trkpt><trkpt lat="44.76390694904181" lon="1.0035387066105539"><ele>164.0</ele><time>2026-05-01T13:52:26Z</time></trkpt><trkpt lat="44.76396719166676" lon="1.0034796264258283"><ele>164.0</ele><time>2026-05-01T13:52:27Z</time></trkpt><trkpt lat="44.76406565439139" lon="1.0034229862024244"><ele>164.0</ele><time>2026-05-01T13:52:29Z</time></trkpt><trkpt lat="44.76414878613133" lon="1.0034432851626571"><ele>164.0</ele><time>2026-05-01T13:52:30Z</time></trkpt><trkpt lat="44.76424222719913" lon="1.003455570942984"><ele>164.0</ele><time>2026-05-01T13:52:31Z</time></trkpt><trkpt lat="44.76434316707228" lon="1.0034443275862082"><ele>162.5</ele><time>2026-05-01T13:52:32Z</time></trkpt><trkpt lat="44.76443724337776" lon="1.0034016085199815"><ele>161.0</ele><time>2026-05-01T13:52:33Z</time></trkpt><trkpt lat="44.76451866114316" lon="1.003383887019338"><ele>159.5</ele><time>2026-05-01T13:52:34Z</time></trkpt><trkpt lat="44.764606767290836" lon="1.0033674983708791"><ele>158.0</ele><time>2026-05-01T13:52:35Z</time></trkpt><trkpt lat="44.76469703068928" lon="1.0033419404739081"><ele>156.5</ele><time>2026-05-01T13:52:36Z</time></trkpt><trkpt lat="44.764776132499044" lon="1.0033005189920077"><ele>155.0</ele><time>2026-05-01T13:52:37Z</time></trkpt><trkpt lat="44.7648624700107" lon="1.0032741460648258"><ele>154.6</ele><time>2026-05-01T13:52:38Z</time></trkpt><trkpt lat="44.7649484719025" lon="1.0032924353063457"><ele>154.2</ele><time>2026-05-01T13:52:39Z</time></trkpt><trkpt lat="44.76504244873926" lon="1.003307764062608"><ele>153.8</ele><time>2026-05-01T13:52:40Z</time></trkpt><trkpt lat="44.76514958560807" lon="1.0033304521590038"><ele>153.4</ele><time>2026-05-01T13:52:41Z</time></trkpt><trkpt lat="44.76527726041777" lon="1.0033383063136476"><ele>153.0</ele><time>2026-05-01T13:52:42Z</time></trkpt><trkpt lat="44.76539621303712" lon="1.0033431380256186"><ele>151.8</ele><time>2026-05-01T13:52:43Z</time></trkpt><trkpt lat="44.765495669800735" lon="1.0033501766317268"><ele>150.60000000000002</ele><time>2026-05-01T13:52:44Z</time></trkpt><trkpt lat="44.76558952383492" lon="1.0033619457987881"><ele>149.39999999999998</ele><time>2026-05-01T13:52:45Z</time></trkpt><trkpt lat="44.76568400837454" lon="1.0033688279814885"><ele>148.2</ele><time>2026-05-01T13:52:46Z</time></trkpt><trkpt lat="44.76578990478321" lon="1.0033888333268466"><ele>147.0</ele><time>2026-05-01T13:52:47Z</time></trkpt><trkpt lat="44.76589404316413" lon="1.0034210428453443"><ele>147.0</ele><time>2026-05-01T13:52:48Z</time></trkpt><trkpt lat="44.765992457304634" lon="1.0034181691469874"><ele>147.0</ele><time>2026-05-01T13:52:49Z</time></trkpt><trkpt lat="44.766095542545614" lon="1.003416928125627"><ele>147.0</ele><time>2026-05-01T13:52:50Z</time></trkpt><trkpt lat="44.76620323061952" lon="1.0034261235622606"><ele>147.0</ele><time>2026-05-01T13:52:51Z</time></trkpt><trkpt lat="44.76631059697684" lon="1.0034622355102265"><ele>147.0</ele><time>2026-05-01T13:52:52Z</time></trkpt><trkpt lat="44.76639954869192" lon="1.003508398179378"><ele>145.2</ele><time>2026-05-01T13:52:53Z</time></trkpt><trkpt lat="44.7664934444948" lon="1.0035481166859352"><ele>143.39999999999998</ele><time>2026-05-01T13:52:54Z</time></trkpt><trkpt lat="44.76658171822987" lon="1.0036009181766923"><ele>141.60000000000002</ele><time>2026-05-01T13:52:55Z</time></trkpt><trkpt lat="44.76667958121328" lon="1.0036708241540337"><ele>139.8</ele><time>2026-05-01T13:52:56Z</time></trkpt><trkpt lat="44.766780171727675" lon="1.0037456705643788"><ele>138.0</ele><time>2026-05-01T13:52:57Z</time></trkpt><trkpt lat="44.76688514677528" lon="1.0038074174279241"><ele>136.20000000000002</ele><time>2026-05-01T13:52:58Z</time></trkpt><trkpt lat="44.766981218680016" lon="1.0038328622626993"><ele>134.4</ele><time>2026-05-01T13:52:59Z</time></trkpt><trkpt lat="44.767079991082696" lon="1.0038431183319476"><ele>132.60000000000002</ele><time>2026-05-01T13:53:00Z</time></trkpt><trkpt lat="44.76717664935886" lon="1.0038255554644304"><ele>130.8</ele><time>2026-05-01T13:53:01Z</time></trkpt><trkpt lat="44.76727260399303" lon="1.0037922161772423"><ele>129.0</ele><time>2026-05-01T13:53:02Z</time></trkpt><trkpt lat="44.767365966711104" lon="1.0037575558704412"><ele>129.0</ele><time>2026-05-01T13:53:03Z</time></trkpt><trkpt lat="44.76744661975667" lon="1.0037242986873207"><ele>129.0</ele><time>2026-05-01T13:53:04Z</time></trkpt><trkpt lat="44.76751000751012" lon="1.0036701492700337"><ele>129.0</ele><time>2026-05-01T13:53:05Z</time></trkpt><trkpt lat="44.76755760523231" lon="1.0035803325820356"><ele>129.0</ele><time>2026-05-01T13:53:06Z</time></trkpt><trkpt lat="44.767583926273716" lon="1.003482194121454"><ele>129.0</ele><time>2026-05-01T13:53:07Z</time></trkpt><trkpt lat="44.7675816103207" lon="1.0033646143052632"><ele>129.0</ele><time>2026-05-01T13:53:08Z</time></trkpt><trkpt lat="44.767582167104706" lon="1.0032346921028605"><ele>128.33333333333334</ele><time>2026-05-01T13:53:09Z</time></trkpt><trkpt lat="44.767593663470066" lon="1.0030941078636246"><ele>127.66666666666666</ele><time>2026-05-01T13:53:10Z</time></trkpt><trkpt lat="44.76761398375419" lon="1.0029628863608744"><ele>127.0</ele><time>2026-05-01T13:53:11Z</time></trkpt><trkpt lat="44.7676357419188" lon="1.0028366064762226"><ele>126.33333333333333</ele><time>2026-05-01T13:53:12Z</time></trkpt><trkpt lat="44.7676559413262" lon="1.0027207043187627"><ele>125.66666666666666</ele><time>2026-05-01T13:53:13Z</time></trkpt><trkpt lat="44.76767539529017" lon="1.002621637490147"><ele>125.0</ele><time>2026-05-01T13:53:14Z</time></trkpt><trkpt lat="44.76773560391458" lon="1.0025156034246294"><ele>123.0</ele><time>2026-05-01T13:53:16Z</time></trkpt><trkpt lat="44.76785003100789" lon="1.0025840005582447"><ele>121.0</ele><time>2026-05-01T13:53:18Z</time></trkpt><trkpt lat="44.76792931564707" lon="1.0026307263101537"><ele>119.0</ele><time>2026-05-01T13:53:19Z</time></trkpt><trkpt lat="44.76802965064022" lon="1.002673995907424"><ele>117.0</ele><time>2026-05-01T13:53:20Z</time></trkpt><trkpt lat="44.76813378283382" lon="1.0027386233881488"><ele>115.0</ele><time>2026-05-01T13:53:21Z</time></trkpt><trkpt lat="44.7682500407685" lon="1.0027966533563502"><ele>115.0</ele><time>2026-05-01T13:53:22Z</time></trkpt><trkpt lat="44.76837135104516" lon="1.002854505350828"><ele>115.0</ele><time>2026-05-01T13:53:23Z</time></trkpt><trkpt lat="44.7685073725498" lon="1.0028991670416192"><ele>115.0</ele><time>2026-05-01T13:53:24Z</time></trkpt><trkpt lat="44.768660661080276" lon="1.0029364399618574"><ele>115.0</ele><time>2026-05-01T13:53:25Z</time></trkpt><trkpt lat="44.76878536285206" lon="1.0029688803091652"><ele>115.0</ele><time>2026-05-01T13:53:26Z</time></trkpt><trkpt lat="44.768904832281535" lon="1.0030093006828598"><ele>115.0</ele><time>2026-05-01T13:53:27Z</time></trkpt><trkpt lat="44.76903258826712" lon="1.0030151370982465"><ele>115.0</ele><time>2026-05-01T13:53:28Z</time></trkpt><trkpt lat="44.76915208433663" lon="1.0029998239791844"><ele>115.0</ele><time>2026-05-01T13:53:29Z</time></trkpt><trkpt lat="44.76926998934765" lon="1.0029865486053902"><ele>116.2</ele><time>2026-05-01T13:53:30Z</time></trkpt><trkpt lat="44.76937925095498" lon="1.0029740563888836"><ele>117.4</ele><time>2026-05-01T13:53:31Z</time></trkpt><trkpt lat="44.76947927392257" lon="1.0029616071680596"><ele>118.6</ele><time>2026-05-01T13:53:32Z</time></trkpt><trkpt lat="44.76957568803049" lon="1.0029578920007047"><ele>119.8</ele><time>2026-05-01T13:53:33Z</time></trkpt><trkpt lat="44.769666948726524" lon="1.0029840567872617"><ele>121.0</ele><time>2026-05-01T13:53:34Z</time></trkpt><trkpt lat="44.76974943621199" lon="1.0030390093885624"><ele>121.0</ele><time>2026-05-01T13:53:35Z</time></trkpt><trkpt lat="44.769840931909826" lon="1.0031086509656388"><ele>121.0</ele><time>2026-05-01T13:53:36Z</time></trkpt><trkpt lat="44.7699333263151" lon="1.00318003782518"><ele>121.0</ele><time>2026-05-01T13:53:37Z</time></trkpt><trkpt lat="44.77002374104113" lon="1.0032463928741941"><ele>121.0</ele><time>2026-05-01T13:53:38Z</time></trkpt><trkpt lat="44.77008561333676" lon="1.0033160461084778"><ele>121.0</ele><time>2026-05-01T13:53:39Z</time></trkpt><trkpt lat="44.770155541932766" lon="1.0033880644034896"><ele>119.83333333333334</ele><time>2026-05-01T13:53:40Z</time></trkpt><trkpt lat="44.77022322507874" lon="1.0034741563230296"><ele>118.66666666666667</ele><time>2026-05-01T13:53:42Z</time></trkpt><trkpt lat="44.770286210061315" lon="1.0035226269106996"><ele>117.5</ele><time>2026-05-01T13:53:47Z</time></trkpt><trkpt lat="44.77035401706287" lon="1.0036122965869259"><ele>116.33333333333334</ele><time>2026-05-01T13:53:49Z</time></trkpt><trkpt lat="44.77042816905052" lon="1.0037257865604712"><ele>115.16666666666667</ele><time>2026-05-01T13:53:51Z</time></trkpt><trkpt lat="44.77047370449142" lon="1.003800490838418"><ele>114.0</ele><time>2026-05-01T13:53:52Z</time></trkpt><trkpt lat="44.77054286827982" lon="1.00389956635017"><ele>114.0</ele><time>2026-05-01T13:53:53Z</time></trkpt><trkpt lat="44.77060903365196" lon="1.0039783428862596"><ele>114.0</ele><time>2026-05-01T13:53:54Z</time></trkpt><trkpt lat="44.770668115938726" lon="1.004039290648871"><ele>114.0</ele><time>2026-05-01T13:53:55Z</time></trkpt><trkpt lat="44.77073001963328" lon="1.0040925113497388"><ele>114.0</ele><time>2026-05-01T13:53:56Z</time></trkpt><trkpt lat="44.77077818517535" lon="1.0041576143928643"><ele>114.0</ele><time>2026-05-01T13:53:57Z</time></trkpt><trkpt lat="44.77086196445021" lon="1.0042717193278428"><ele>114.0</ele><time>2026-05-01T13:53:59Z</time></trkpt><trkpt lat="44.77099532481602" lon="1.0042242679527817"><ele>115.0</ele><time>2026-05-01T13:54:01Z</time></trkpt><trkpt lat="44.77109826335139" lon="1.004157967037169"><ele>116.0</ele><time>2026-05-01T13:54:02Z</time></trkpt><trkpt lat="44.77121442594663" lon="1.0041076158896252"><ele>117.0</ele><time>2026-05-01T13:54:03Z</time></trkpt><trkpt lat="44.77134655189718" lon="1.0040849725770498"><ele>118.0</ele><time>2026-05-01T13:54:04Z</time></trkpt><trkpt lat="44.7714941634114" lon="1.0040793686125584"><ele>118.0</ele><time>2026-05-01T13:54:05Z</time></trkpt><trkpt lat="44.77162972743596" lon="1.004093333534016"><ele>118.0</ele><time>2026-05-01T13:54:06Z</time></trkpt><trkpt lat="44.771759875359" lon="1.0041357859305209"><ele>118.0</ele><time>2026-05-01T13:54:07Z</time></trkpt><trkpt lat="44.7718848645812" lon="1.0042150289817033"><ele>118.0</ele><time>2026-05-01T13:54:08Z</time></trkpt><trkpt lat="44.771994707423076" lon="1.0043214985284632"><ele>121.0</ele><time>2026-05-01T13:54:09Z</time></trkpt><trkpt lat="44.772099801415976" lon="1.0044473902405981"><ele>124.0</ele><time>2026-05-01T13:54:10Z</time></trkpt><trkpt lat="44.77219459252229" lon="1.0046032978618928"><ele>127.0</ele><time>2026-05-01T13:54:11Z</time></trkpt><trkpt lat="44.772259045937545" lon="1.0047795468552316"><ele>130.0</ele><time>2026-05-01T13:54:12Z</time></trkpt><trkpt lat="44.772307306694074" lon="1.0049774329341745"><ele>129.5</ele><time>2026-05-01T13:54:13Z</time></trkpt><trkpt lat="44.772291346691965" lon="1.0051876828271038"><ele>129.0</ele><time>2026-05-01T13:54:14Z</time></trkpt><trkpt lat="44.77231533936724" lon="1.0054014059585659"><ele>128.5</ele><time>2026-05-01T13:54:15Z</time></trkpt><trkpt lat="44.77230141417508" lon="1.0056037003628213"><ele>128.0</ele><time>2026-05-01T13:54:16Z</time></trkpt><trkpt lat="44.77227619522449" lon="1.0058147110539233"><ele>128.66666666666666</ele><time>2026-05-01T13:54:17Z</time></trkpt><trkpt lat="44.772235009874386" lon="1.006023079557043"><ele>129.33333333333334</ele><time>2026-05-01T13:54:18Z</time></trkpt><trkpt lat="44.77217929801893" lon="1.0062333833408144"><ele>130.0</ele><time>2026-05-01T13:54:19Z</time></trkpt><trkpt lat="44.772124819574685" lon="1.006424657069155"><ele>130.0</ele><time>2026-05-01T13:54:20Z</time></trkpt><trkpt lat="44.77208756174502" lon="1.0066440306287978"><ele>130.0</ele><time>2026-05-01T13:54:21Z</time></trkpt><trkpt lat="44.77207773814359" lon="1.006862141019612"><ele>130.0</ele><time>2026-05-01T13:54:22Z</time></trkpt><trkpt lat="44.77208489735555" lon="1.0070727348864195"><ele>131.66666666666669</ele><time>2026-05-01T13:54:23Z</time></trkpt><trkpt lat="44.7721036728656" lon="1.0073011932465825"><ele>133.33333333333334</ele><time>2026-05-01T13:54:24Z</time></trkpt><trkpt lat="44.77211577382594" lon="1.007527183220075"><ele>135.0</ele><time>2026-05-01T13:54:25Z</time></trkpt><trkpt lat="44.77218197632057" lon="1.0077309771366927"><ele>135.0</ele><time>2026-05-01T13:54:26Z</time></trkpt><trkpt lat="44.77221752133234" lon="1.0079507661536227"><ele>135.0</ele><time>2026-05-01T13:54:27Z</time></trkpt><trkpt lat="44.77225426724583" lon="1.008155563598249"><ele>135.0</ele><time>2026-05-01T13:54:28Z</time></trkpt><trkpt lat="44.7722949961652" lon="1.0083591229599564"><ele>135.0</ele><time>2026-05-01T13:54:29Z</time></trkpt><trkpt lat="44.77236532523539" lon="1.0085473400621547"><ele>135.0</ele><time>2026-05-01T13:54:30Z</time></trkpt><trkpt lat="44.77244966269299" lon="1.0087209855880896"><ele>135.0</ele><time>2026-05-01T13:54:31Z</time></trkpt><trkpt lat="44.7725351774227" lon="1.0088680132480314"><ele>135.0</ele><time>2026-05-01T13:54:32Z</time></trkpt><trkpt lat="44.77263576308824" lon="1.008968912789283"><ele>136.0</ele><time>2026-05-01T13:54:33Z</time></trkpt><trkpt lat="44.77276782457834" lon="1.0090099227060223"><ele>137.0</ele><time>2026-05-01T13:54:34Z</time></trkpt><trkpt lat="44.772901590996675" lon="1.008999031189316"><ele>138.0</ele><time>2026-05-01T13:54:35Z</time></trkpt><trkpt lat="44.77302640960271" lon="1.0089336394137418"><ele>139.0</ele><time>2026-05-01T13:54:36Z</time></trkpt><trkpt lat="44.7731232295198" lon="1.008813273413394"><ele>139.0</ele><time>2026-05-01T13:54:37Z</time></trkpt><trkpt lat="44.7731996324211" lon="1.008639531737603"><ele>139.0</ele><time>2026-05-01T13:54:38Z</time></trkpt><trkpt lat="44.77325369039706" lon="1.0084420038106225"><ele>139.0</ele><time>2026-05-01T13:54:39Z</time></trkpt><trkpt lat="44.773301734186596" lon="1.008251084421643"><ele>139.0</ele><time>2026-05-01T13:54:40Z</time></trkpt><trkpt lat="44.77335771122933" lon="1.0080776141856747"><ele>141.75</ele><time>2026-05-01T13:54:41Z</time></trkpt><trkpt lat="44.773415514948645" lon="1.0079031622553936"><ele>144.5</ele><time>2026-05-01T13:54:42Z</time></trkpt><trkpt lat="44.77346816797988" lon="1.007734489592281"><ele>147.25</ele><time>2026-05-01T13:54:43Z</time></trkpt><trkpt lat="44.773520851042704" lon="1.0075504752461206"><ele>150.0</ele><time>2026-05-01T13:54:44Z</time></trkpt><trkpt lat="44.773582165045916" lon="1.0073642891724408"><ele>150.25</ele><time>2026-05-01T13:54:45Z</time></trkpt><trkpt lat="44.77365083827007" lon="1.007183758956538"><ele>150.5</ele><time>2026-05-01T13:54:46Z</time></trkpt><trkpt lat="44.773730225840154" lon="1.0070228071932112"><ele>150.75</ele><time>2026-05-01T13:54:47Z</time></trkpt><trkpt lat="44.7738240596947" lon="1.0068695986749199"><ele>151.0</ele><time>2026-05-01T13:54:48Z</time></trkpt><trkpt lat="44.773918829361705" lon="1.0067397392367432"><ele>152.8</ele><time>2026-05-01T13:54:49Z</time></trkpt><trkpt lat="44.774018949272715" lon="1.0066484386555152"><ele>154.6</ele><time>2026-05-01T13:54:50Z</time></trkpt><trkpt lat="44.774130572578315" lon="1.0066083629500049"><ele>156.4</ele><time>2026-05-01T13:54:51Z</time></trkpt><trkpt lat="44.77423415736463" lon="1.006580197819248"><ele>158.2</ele><time>2026-05-01T13:54:52Z</time></trkpt><trkpt lat="44.77433986548801" lon="1.0065518174047194"><ele>160.0</ele><time>2026-05-01T13:54:53Z</time></trkpt><trkpt lat="44.77445847609621" lon="1.0065262160535924"><ele>161.25</ele><time>2026-05-01T13:54:54Z</time></trkpt><trkpt lat="44.7745731983187" lon="1.0064907393214362"><ele>162.5</ele><time>2026-05-01T13:54:55Z</time></trkpt><trkpt lat="44.77468736753295" lon="1.0064617574012973"><ele>163.75</ele><time>2026-05-01T13:54:56Z</time></trkpt><trkpt lat="44.77481634549783" lon="1.0064533882324125"><ele>165.0</ele><time>2026-05-01T13:54:57Z</time></trkpt><trkpt lat="44.774935701132975" lon="1.0064373662982908"><ele>165.0</ele><time>2026-05-01T13:54:58Z</time></trkpt><trkpt lat="44.77504801747642" lon="1.0064224031813835"><ele>165.0</ele><time>2026-05-01T13:54:59Z</time></trkpt><trkpt lat="44.77515352600895" lon="1.0064482930156513"><ele>165.0</ele><time>2026-05-01T13:55:00Z</time></trkpt><trkpt lat="44.77525232810941" lon="1.006472611473296"><ele>165.0</ele><time>2026-05-01T13:55:01Z</time></trkpt><trkpt lat="44.77534895025585" lon="1.0065009299287193"><ele>165.0</ele><time>2026-05-01T13:55:02Z</time></trkpt><trkpt lat="44.775409708932344" lon="1.0065475866980083"><ele>164.83333333333334</ele><time>2026-05-01T13:55:03Z</time></trkpt><trkpt lat="44.77543291297438" lon="1.0066339619913198"><ele>164.66666666666666</ele><time>2026-05-01T13:55:04Z</time></trkpt><trkpt lat="44.77542896032852" lon="1.0067963074458046"><ele>164.5</ele><time>2026-05-01T13:55:05Z</time></trkpt><trkpt lat="44.77545965606408" lon="1.0069224344922862"><ele>164.33333333333331</ele><time>2026-05-01T13:55:06Z</time></trkpt><trkpt lat="44.77547703724933" lon="1.00702981358848"><ele>164.16666666666666</ele><time>2026-05-01T13:55:07Z</time></trkpt><trkpt lat="44.77548487743443" lon="1.007127661120323"><ele>164.0</ele><time>2026-05-01T13:55:08Z</time></trkpt><trkpt lat="44.77543901182323" lon="1.0071985861876236"><ele>164.0</ele><time>2026-05-01T13:55:09Z</time></trkpt><trkpt lat="44.77539740158674" lon="1.007326364794606"><ele>164.0</ele><time>2026-05-01T13:55:10Z</time></trkpt><trkpt lat="44.77534819178285" lon="1.007476555185151"><ele>164.0</ele><time>2026-05-01T13:55:11Z</time></trkpt><trkpt lat="44.775309797153106" lon="1.0076549544803572"><ele>164.0</ele><time>2026-05-01T13:55:12Z</time></trkpt><trkpt lat="44.775266436077" lon="1.0078207290233316"><ele>165.0</ele><time>2026-05-01T13:55:13Z</time></trkpt><trkpt lat="44.77521706746525" lon="1.007992463147601"><ele>166.0</ele><time>2026-05-01T13:55:14Z</time></trkpt><trkpt lat="44.77521823236314" lon="1.0081921296940355"><ele>167.0</ele><time>2026-05-01T13:55:15Z</time></trkpt><trkpt lat="44.77520972145243" lon="1.008393435628982"><ele>168.0</ele><time>2026-05-01T13:55:16Z</time></trkpt><trkpt lat="44.77520974166646" lon="1.008582435145615"><ele>168.5</ele><time>2026-05-01T13:55:17Z</time></trkpt><trkpt lat="44.77521848527431" lon="1.0087838153423074"><ele>169.0</ele><time>2026-05-01T13:55:18Z</time></trkpt><trkpt lat="44.77523968656728" lon="1.0089808488562304"><ele>169.5</ele><time>2026-05-01T13:55:19Z</time></trkpt><trkpt lat="44.775281529224" lon="1.0091767795560418"><ele>170.0</ele><time>2026-05-01T13:55:20Z</time></trkpt><trkpt lat="44.775331155598714" lon="1.0093418931354259"><ele>170.0</ele><time>2026-05-01T13:55:21Z</time></trkpt><trkpt lat="44.77538221958161" lon="1.0094932596874058"><ele>170.0</ele><time>2026-05-01T13:55:22Z</time></trkpt><trkpt lat="44.77544012618004" lon="1.0096268056511262"><ele>170.0</ele><time>2026-05-01T13:55:23Z</time></trkpt><trkpt lat="44.77551266900627" lon="1.0097462793526335"><ele>170.0</ele><time>2026-05-01T13:55:24Z</time></trkpt><trkpt lat="44.775597753584755" lon="1.0098357860689022"><ele>170.0</ele><time>2026-05-01T13:55:25Z</time></trkpt><trkpt lat="44.77570014769798" lon="1.0098957531811203"><ele>170.0</ele><time>2026-05-01T13:55:26Z</time></trkpt><trkpt lat="44.7758075031477" lon="1.0099301266846366"><ele>170.0</ele><time>2026-05-01T13:55:27Z</time></trkpt><trkpt lat="44.775910094176794" lon="1.0099345212457373"><ele>170.0</ele><time>2026-05-01T13:55:28Z</time></trkpt><trkpt lat="44.77601846850427" lon="1.009960046464883"><ele>170.0</ele><time>2026-05-01T13:55:29Z</time></trkpt><trkpt lat="44.77612714884687" lon="1.0099946677922411"><ele>170.0</ele><time>2026-05-01T13:55:30Z</time></trkpt><trkpt lat="44.77623439136438" lon="1.0100265150337435"><ele>170.25</ele><time>2026-05-01T13:55:31Z</time></trkpt><trkpt lat="44.77634867955376" lon="1.010047834637997"><ele>170.5</ele><time>2026-05-01T13:55:32Z</time></trkpt><trkpt lat="44.77647005632515" lon="1.010053648373017"><ele>170.75</ele><time>2026-05-01T13:55:33Z</time></trkpt><trkpt lat="44.77659418524831" lon="1.0100250621788378"><ele>171.0</ele><time>2026-05-01T13:55:34Z</time></trkpt><trkpt lat="44.77671036445695" lon="1.0099572027128094"><ele>171.0</ele><time>2026-05-01T13:55:35Z</time></trkpt><trkpt lat="44.7768134478524" lon="1.0098619252077432"><ele>171.0</ele><time>2026-05-01T13:55:36Z</time></trkpt><trkpt lat="44.77689581372663" lon="1.0097415939519567"><ele>171.0</ele><time>2026-05-01T13:55:37Z</time></trkpt><trkpt lat="44.77692889385223" lon="1.0096324794106153"><ele>171.0</ele><time>2026-05-01T13:55:38Z</time></trkpt><trkpt lat="44.77694487341709" lon="1.0095453447490539"><ele>171.0</ele><time>2026-05-01T13:55:39Z</time></trkpt><trkpt lat="44.77695470831581" lon="1.0093812512874902"><ele>167.57142857142856</ele><time>2026-05-01T13:55:41Z</time></trkpt><trkpt lat="44.776956553693374" lon="1.0092867923437523"><ele>164.14285714285714</ele><time>2026-05-01T13:55:42Z</time></trkpt><trkpt lat="44.776954280748974" lon="1.0091969528589149"><ele>160.71428571428572</ele><time>2026-05-01T13:55:43Z</time></trkpt><trkpt lat="44.77693560091619" lon="1.0090997371726416"><ele>157.28571428571428</ele><time>2026-05-01T13:55:44Z</time></trkpt><trkpt lat="44.77694099904526" lon="1.0089971615556494"><ele>153.85714285714286</ele><time>2026-05-01T13:55:45Z</time></trkpt><trkpt lat="44.776927831097275" lon="1.008893198941476"><ele>150.42857142857142</ele><time>2026-05-01T13:55:46Z</time></trkpt><trkpt lat="44.77691369269038" lon="1.0087893167975162"><ele>147.0</ele><time>2026-05-01T13:55:47Z</time></trkpt><trkpt lat="44.77690110347899" lon="1.0086981002274913"><ele>146.4</ele><time>2026-05-01T13:55:48Z</time></trkpt><trkpt lat="44.77687876196751" lon="1.0085091012821998"><ele>145.79999999999998</ele><time>2026-05-01T13:55:50Z</time></trkpt><trkpt lat="44.776871982922984" lon="1.008410305844596"><ele>145.2</ele><time>2026-05-01T13:55:51Z</time></trkpt><trkpt lat="44.776846784283016" lon="1.0083274856696234"><ele>144.6</ele><time>2026-05-01T13:55:52Z</time></trkpt><trkpt lat="44.77682760684919" lon="1.0081876841759625"><ele>144.0</ele><time>2026-05-01T13:55:54Z</time></trkpt><trkpt lat="44.77679486375078" lon="1.0080007429438769"><ele>146.8</ele><time>2026-05-01T13:55:56Z</time></trkpt><trkpt lat="44.776798246016014" lon="1.007892430582247"><ele>149.60000000000002</ele><time>2026-05-01T13:55:57Z</time></trkpt><trkpt lat="44.7767951779157" lon="1.0077953717643204"><ele>152.4</ele><time>2026-05-01T13:55:58Z</time></trkpt><trkpt lat="44.77680280570898" lon="1.0076869524761367"><ele>155.20000000000002</ele><time>2026-05-01T13:56:00Z</time></trkpt><trkpt lat="44.776841879442486" lon="1.0074974829522119"><ele>158.0</ele><time>2026-05-01T14:12:49Z</time></trkpt><trkpt lat="44.77687446103242" lon="1.0073650029670163"><ele>158.0</ele><time>2026-05-01T14:12:51Z</time></trkpt><trkpt lat="44.77690570467597" lon="1.0072758953828234"><ele>158.0</ele><time>2026-05-01T14:12:52Z</time></trkpt><trkpt lat="44.776948667123094" lon="1.0071205129198473"><ele>158.0</ele><time>2026-05-01T14:12:54Z</time></trkpt><trkpt lat="44.77698123233466" lon="1.0070366958570982"><ele>158.0</ele><time>2026-05-01T14:12:55Z</time></trkpt><trkpt lat="44.77701613651836" lon="1.006951936654609"><ele>158.0</ele><time>2026-05-01T14:12:56Z</time></trkpt><trkpt lat="44.777055452097095" lon="1.006871468488221"><ele>158.0</ele><time>2026-05-01T14:12:57Z</time></trkpt><trkpt lat="44.77709375947864" lon="1.0067929473112138"><ele>158.0</ele><time>2026-05-01T14:12:58Z</time></trkpt><trkpt lat="44.77714021711273" lon="1.006699768365861"><ele>158.0</ele><time>2026-05-01T14:12:59Z</time></trkpt><trkpt lat="44.77718472902618" lon="1.0066179007585938"><ele>158.0</ele><time>2026-05-01T14:13:00Z</time></trkpt><trkpt lat="44.777230368683625" lon="1.0065357651058415"><ele>158.0</ele><time>2026-05-01T14:13:01Z</time></trkpt><trkpt lat="44.77727009169655" lon="1.0064653305845408"><ele>158.0</ele><time>2026-05-01T14:13:02Z</time></trkpt><trkpt lat="44.77733103112287" lon="1.0063814085515839"><ele>158.0</ele><time>2026-05-01T14:13:04Z</time></trkpt><trkpt lat="44.77738771837154" lon="1.0062842805719698"><ele>160.0</ele><time>2026-05-01T14:13:13Z</time></trkpt><trkpt lat="44.77745931561913" lon="1.0061655962123013"><ele>162.0</ele><time>2026-05-01T14:13:15Z</time></trkpt><trkpt lat="44.77752969911937" lon="1.00604584094081"><ele>164.0</ele><time>2026-05-01T14:13:17Z</time></trkpt><trkpt lat="44.77757764352133" lon="1.0059702987184789"><ele>166.0</ele><time>2026-05-01T14:13:19Z</time></trkpt><trkpt lat="44.77762763314746" lon="1.0059102953531636"><ele>168.0</ele><time>2026-05-01T14:13:21Z</time></trkpt><trkpt lat="44.777662011182905" lon="1.0057704387613222"><ele>166.83333333333334</ele><time>2026-05-01T14:13:23Z</time></trkpt><trkpt lat="44.77765652329424" lon="1.0056705909335588"><ele>165.66666666666666</ele><time>2026-05-01T14:13:24Z</time></trkpt><trkpt lat="44.77768839880288" lon="1.005562388752883"><ele>164.5</ele><time>2026-05-01T14:13:25Z</time></trkpt><trkpt lat="44.77774576781696" lon="1.0054622373596183"><ele>163.33333333333331</ele><time>2026-05-01T14:13:26Z</time></trkpt><trkpt lat="44.77780686348474" lon="1.0053600643827603"><ele>162.16666666666666</ele><time>2026-05-01T14:13:27Z</time></trkpt><trkpt lat="44.777868741439676" lon="1.0052591734978986"><ele>161.0</ele><time>2026-05-01T14:13:28Z</time></trkpt><trkpt lat="44.777938553484454" lon="1.005151375126524"><ele>161.0</ele><time>2026-05-01T14:13:29Z</time></trkpt><trkpt lat="44.77800459457165" lon="1.0050480471339653"><ele>161.0</ele><time>2026-05-01T14:13:30Z</time></trkpt><trkpt lat="44.77807878545777" lon="1.0049399346540975"><ele>161.0</ele><time>2026-05-01T14:13:31Z</time></trkpt><trkpt lat="44.77815429897682" lon="1.0048212682582236"><ele>161.0</ele><time>2026-05-01T14:13:32Z</time></trkpt><trkpt lat="44.77822980620579" lon="1.0046978262057658"><ele>161.0</ele><time>2026-05-01T14:13:33Z</time></trkpt><trkpt lat="44.778304264751924" lon="1.00457520765508"><ele>161.4</ele><time>2026-05-01T14:13:34Z</time></trkpt><trkpt lat="44.77836846737461" lon="1.0044446359359416"><ele>161.8</ele><time>2026-05-01T14:13:35Z</time></trkpt><trkpt lat="44.77842513979355" lon="1.0043110637546362"><ele>162.20000000000002</ele><time>2026-05-01T14:13:36Z</time></trkpt><trkpt lat="44.77847770946448" lon="1.0041754168359143"><ele>162.60000000000002</ele><time>2026-05-01T14:13:37Z</time></trkpt><trkpt lat="44.77852280686094" lon="1.004040538952469"><ele>163.0</ele><time>2026-05-01T14:13:38Z</time></trkpt><trkpt lat="44.77854216697591" lon="1.003908406606825"><ele>163.0</ele><time>2026-05-01T14:13:39Z</time></trkpt><trkpt lat="44.7785250036246" lon="1.0037826635134859"><ele>163.0</ele><time>2026-05-01T14:13:40Z</time></trkpt><trkpt lat="44.77846929177449" lon="1.0036940932231921"><ele>163.0</ele><time>2026-05-01T14:13:41Z</time></trkpt><trkpt lat="44.77840161858345" lon="1.0036402577993069"><ele>163.0</ele><time>2026-05-01T14:13:42Z</time></trkpt><trkpt lat="44.778333590014824" lon="1.0036431201023148"><ele>163.0</ele><time>2026-05-01T14:13:43Z</time></trkpt><trkpt lat="44.778278092136745" lon="1.003711419135649"><ele>163.0</ele><time>2026-05-01T14:13:44Z</time></trkpt><trkpt lat="44.778206567074555" lon="1.0037756670084954"><ele>165.60000000000002</ele><time>2026-05-01T14:13:45Z</time></trkpt><trkpt lat="44.77812054737817" lon="1.0038351437662048"><ele>168.20000000000002</ele><time>2026-05-01T14:13:46Z</time></trkpt><trkpt lat="44.778059031622654" lon="1.0039079711899281"><ele>170.8</ele><time>2026-05-01T14:13:47Z</time></trkpt><trkpt lat="44.77794333699745" lon="1.0039536572181276"><ele>173.4</ele><time>2026-05-01T14:13:49Z</time></trkpt><trkpt lat="44.777821858521406" lon="1.0038415073096965"><ele>176.0</ele><time>2026-05-01T14:13:51Z</time></trkpt><trkpt lat="44.77774669190891" lon="1.003734976131944"><ele>178.20000000000002</ele><time>2026-05-01T14:13:52Z</time></trkpt><trkpt lat="44.77767391523205" lon="1.0036337709831797"><ele>180.4</ele><time>2026-05-01T14:13:53Z</time></trkpt><trkpt lat="44.77761062970292" lon="1.0035149585744654"><ele>182.6</ele><time>2026-05-01T14:13:54Z</time></trkpt><trkpt lat="44.777550504041365" lon="1.003383699003673"><ele>184.8</ele><time>2026-05-01T14:13:55Z</time></trkpt><trkpt lat="44.77749938110678" lon="1.0032413685850314"><ele>187.0</ele><time>2026-05-01T14:13:56Z</time></trkpt><trkpt lat="44.77743850447058" lon="1.0030970474968426"><ele>187.39999999999998</ele><time>2026-05-01T14:13:57Z</time></trkpt><trkpt lat="44.777386705750104" lon="1.0029574088735331"><ele>187.79999999999998</ele><time>2026-05-01T14:13:58Z</time></trkpt><trkpt lat="44.77733861377266" lon="1.0028207886796618"><ele>188.2</ele><time>2026-05-01T14:13:59Z</time></trkpt><trkpt lat="44.77726538772602" lon="1.002750830707389"><ele>188.6</ele><time>2026-05-01T14:14:00Z</time></trkpt><trkpt lat="44.77717912997488" lon="1.0026893078681167"><ele>189.0</ele><time>2026-05-01T14:14:01Z</time></trkpt><trkpt lat="44.777100983169234" lon="1.0026697926241126"><ele>189.0</ele><time>2026-05-01T14:14:02Z</time></trkpt><trkpt lat="44.777028964976914" lon="1.002628930176788"><ele>189.0</ele><time>2026-05-01T14:14:03Z</time></trkpt><trkpt lat="44.77694809083623" lon="1.0025693013134274"><ele>189.0</ele><time>2026-05-01T14:14:04Z</time></trkpt><trkpt lat="44.77686795489007" lon="1.00254283568507"><ele>189.0</ele><time>2026-05-01T14:14:05Z</time></trkpt><trkpt lat="44.77677347132962" lon="1.0025079336188902"><ele>189.0</ele><time>2026-05-01T14:14:06Z</time></trkpt><trkpt lat="44.77667915557121" lon="1.0024614603846094"><ele>189.0</ele><time>2026-05-01T14:14:07Z</time></trkpt><trkpt lat="44.77658708716861" lon="1.0024086744173313"><ele>189.5</ele><time>2026-05-01T14:14:08Z</time></trkpt><trkpt lat="44.77649541444777" lon="1.0023631157223611"><ele>190.0</ele><time>2026-05-01T14:14:09Z</time></trkpt><trkpt lat="44.7764135627248" lon="1.0023224378366145"><ele>190.5</ele><time>2026-05-01T14:14:10Z</time></trkpt><trkpt lat="44.77633341626686" lon="1.0022614405498245"><ele>191.0</ele><time>2026-05-01T14:14:11.999Z</time></trkpt><trkpt lat="44.77634648784702" lon="1.0021443411723157"><ele>191.5</ele><time>2026-05-01T14:14:13.999Z</time></trkpt><trkpt lat="44.77639289660656" lon="1.0020580394450718"><ele>192.0</ele><time>2026-05-01T14:14:14.999Z</time></trkpt><trkpt lat="44.776426558594515" lon="1.0019518001994592"><ele>192.0</ele><time>2026-05-01T14:14:15.999Z</time></trkpt><trkpt lat="44.77647801071792" lon="1.0018348495533995"><ele>192.0</ele><time>2026-05-01T14:14:16.999Z</time></trkpt><trkpt lat="44.776513958819905" lon="1.0017111714938005"><ele>192.0</ele><time>2026-05-01T14:14:17.999Z</time></trkpt><trkpt lat="44.77654202316015" lon="1.0015613095470872"><ele>192.0</ele><time>2026-05-01T14:14:18.999Z</time></trkpt><trkpt lat="44.77659075512408" lon="1.0014104985885326"><ele>192.0</ele><time>2026-05-01T14:14:19.999Z</time></trkpt><trkpt lat="44.776636332961786" lon="1.0012554788025723"><ele>190.75</ele><time>2026-05-01T14:14:20.999Z</time></trkpt><trkpt lat="44.776692194767826" lon="1.0010936397705184"><ele>189.5</ele><time>2026-05-01T14:14:21.999Z</time></trkpt><trkpt lat="44.77674652490004" lon="1.000937172636032"><ele>188.25</ele><time>2026-05-01T14:14:22.999Z</time></trkpt><trkpt lat="44.776806189562095" lon="1.0007758244085345"><ele>187.0</ele><time>2026-05-01T14:14:23.999Z</time></trkpt><trkpt lat="44.77685249314556" lon="1.0006152929894199"><ele>188.5</ele><time>2026-05-01T14:14:24.999Z</time></trkpt><trkpt lat="44.776902812660644" lon="1.0004592969459483"><ele>190.0</ele><time>2026-05-01T14:14:25.999Z</time></trkpt><trkpt lat="44.77695701573675" lon="1.0003052251436384"><ele>191.5</ele><time>2026-05-01T14:14:26.999Z</time></trkpt><trkpt lat="44.777003697327615" lon="1.0001517173544279"><ele>193.0</ele><time>2026-05-01T14:14:27.999Z</time></trkpt><trkpt lat="44.77704611288218" lon="0.9999957340640239"><ele>193.0</ele><time>2026-05-01T14:14:28.999Z</time></trkpt><trkpt lat="44.7770771563249" lon="0.9998367371501015"><ele>193.0</ele><time>2026-05-01T14:14:29.999Z</time></trkpt><trkpt lat="44.77710377451355" lon="0.99968219148522"><ele>193.0</ele><time>2026-05-01T14:14:30.999Z</time></trkpt><trkpt lat="44.77712483727467" lon="0.9995271497326729"><ele>193.0</ele><time>2026-05-01T14:14:31.999Z</time></trkpt><trkpt lat="44.77714416397676" lon="0.9993731962739001"><ele>193.0</ele><time>2026-05-01T14:14:32.999Z</time></trkpt><trkpt lat="44.777156823622505" lon="0.999228753892557"><ele>193.0</ele><time>2026-05-01T14:14:34Z</time></trkpt><trkpt lat="44.777163220606454" lon="0.9990817623823545"><ele>193.0</ele><time>2026-05-01T14:14:35Z</time></trkpt><trkpt lat="44.777161644037726" lon="0.9989171677195887"><ele>193.0</ele><time>2026-05-01T14:14:36Z</time></trkpt><trkpt lat="44.777153606832286" lon="0.9987932522240545"><ele>193.0</ele><time>2026-05-01T14:14:37Z</time></trkpt><trkpt lat="44.777127949184425" lon="0.9986355944806008"><ele>193.25</ele><time>2026-05-01T14:14:38Z</time></trkpt><trkpt lat="44.77710722762987" lon="0.9984690651517184"><ele>193.5</ele><time>2026-05-01T14:14:39Z</time></trkpt><trkpt lat="44.77709247285502" lon="0.998286324534134"><ele>193.75</ele><time>2026-05-01T14:14:40Z</time></trkpt><trkpt lat="44.77709369315987" lon="0.998109139472503"><ele>194.0</ele><time>2026-05-01T14:14:41Z</time></trkpt><trkpt lat="44.77710244139892" lon="0.9979292908091744"><ele>194.25</ele><time>2026-05-01T14:14:42Z</time></trkpt><trkpt lat="44.777116199357984" lon="0.997758332543855"><ele>194.5</ele><time>2026-05-01T14:14:43Z</time></trkpt><trkpt lat="44.77713577731865" lon="0.9975844766031983"><ele>194.75</ele><time>2026-05-01T14:14:44Z</time></trkpt><trkpt lat="44.77716139521712" lon="0.9974144166309159"><ele>195.0</ele><time>2026-05-01T14:14:45Z</time></trkpt><trkpt lat="44.77718387867561" lon="0.99725325284696"><ele>194.6</ele><time>2026-05-01T14:14:46Z</time></trkpt><trkpt lat="44.77721179856877" lon="0.9971182699207531"><ele>194.2</ele><time>2026-05-01T14:14:47Z</time></trkpt><trkpt lat="44.77724387873331" lon="0.9969818533915166"><ele>193.8</ele><time>2026-05-01T14:14:48Z</time></trkpt><trkpt lat="44.7772882206113" lon="0.9968452165548369"><ele>193.4</ele><time>2026-05-01T14:14:49Z</time></trkpt><trkpt lat="44.77735969282866" lon="0.9967138846472007"><ele>193.0</ele><time>2026-05-01T14:14:50Z</time></trkpt><trkpt lat="44.77743645916169" lon="0.9965798721490299"><ele>192.5</ele><time>2026-05-01T14:14:51Z</time></trkpt><trkpt lat="44.77752105441169" lon="0.9964465755243227"><ele>192.0</ele><time>2026-05-01T14:14:52Z</time></trkpt><trkpt lat="44.77758937381358" lon="0.9963004272526002"><ele>191.5</ele><time>2026-05-01T14:14:53Z</time></trkpt><trkpt lat="44.777631509338505" lon="0.9961377601843344"><ele>191.0</ele><time>2026-05-01T14:14:54Z</time></trkpt><trkpt lat="44.777655300363534" lon="0.995946610722432"><ele>190.5</ele><time>2026-05-01T14:14:55Z</time></trkpt><trkpt lat="44.777658252749966" lon="0.9957461847737098"><ele>190.0</ele><time>2026-05-01T14:14:56Z</time></trkpt><trkpt lat="44.77766091970725" lon="0.995559812024574"><ele>189.5</ele><time>2026-05-01T14:14:57Z</time></trkpt><trkpt lat="44.777669067552424" lon="0.9953595060163795"><ele>189.0</ele><time>2026-05-01T14:14:58Z</time></trkpt><trkpt lat="44.77767453484654" lon="0.9951766836646803"><ele>189.75</ele><time>2026-05-01T14:14:59Z</time></trkpt><trkpt lat="44.77767813342013" lon="0.9949812028542493"><ele>190.5</ele><time>2026-05-01T14:15:00Z</time></trkpt><trkpt lat="44.77767350722195" lon="0.99480141215212"><ele>191.25</ele><time>2026-05-01T14:15:01Z</time></trkpt><trkpt lat="44.77764847050008" lon="0.9946309867905024"><ele>192.0</ele><time>2026-05-01T14:15:02Z</time></trkpt><trkpt lat="44.77759238995336" lon="0.9944803823020999"><ele>192.0</ele><time>2026-05-01T14:15:03Z</time></trkpt><trkpt lat="44.77753179315722" lon="0.9943414991807944"><ele>192.0</ele><time>2026-05-01T14:15:04Z</time></trkpt><trkpt lat="44.77749547626301" lon="0.9942227155541514"><ele>192.0</ele><time>2026-05-01T14:15:05Z</time></trkpt><trkpt lat="44.77749175528918" lon="0.9941011482855122"><ele>192.0</ele><time>2026-05-01T14:15:06Z</time></trkpt><trkpt lat="44.777535290184595" lon="0.9939842547291329"><ele>192.0</ele><time>2026-05-01T14:15:07Z</time></trkpt><trkpt lat="44.777607548824314" lon="0.9938814381197111"><ele>191.8</ele><time>2026-05-01T14:15:08Z</time></trkpt><trkpt lat="44.77770298687312" lon="0.9937722955936705"><ele>191.6</ele><time>2026-05-01T14:15:09Z</time></trkpt><trkpt lat="44.777803884827186" lon="0.99365459576313"><ele>191.4</ele><time>2026-05-01T14:15:10Z</time></trkpt><trkpt lat="44.777873674313454" lon="0.9935491808115167"><ele>191.20000000000002</ele><time>2026-05-01T14:15:11Z</time></trkpt><trkpt lat="44.77790815911353" lon="0.9934344958200246"><ele>191.0</ele><time>2026-05-01T14:15:12Z</time></trkpt><trkpt lat="44.777915295838" lon="0.9933086601613945"><ele>192.0</ele><time>2026-05-01T14:15:13Z</time></trkpt><trkpt lat="44.777873591412245" lon="0.9931714078401898"><ele>193.0</ele><time>2026-05-01T14:15:14Z</time></trkpt><trkpt lat="44.77782269458981" lon="0.9930171732763048"><ele>194.0</ele><time>2026-05-01T14:15:15Z</time></trkpt><trkpt lat="44.77778049659166" lon="0.9928385915806462"><ele>195.0</ele><time>2026-05-01T14:15:16Z</time></trkpt><trkpt lat="44.77779767451139" lon="0.9926652849694265"><ele>195.25</ele><time>2026-05-01T14:15:17Z</time></trkpt><trkpt lat="44.77781468184754" lon="0.9924869597543067"><ele>195.5</ele><time>2026-05-01T14:15:18Z</time></trkpt><trkpt lat="44.777863989499615" lon="0.9923168455180744"><ele>195.75</ele><time>2026-05-01T14:15:19Z</time></trkpt><trkpt lat="44.77791524990927" lon="0.9921511211824381"><ele>196.0</ele><time>2026-05-01T14:15:20Z</time></trkpt><trkpt lat="44.77794553346608" lon="0.9919759210910265"><ele>196.0</ele><time>2026-05-01T14:15:21Z</time></trkpt><trkpt lat="44.777959639471504" lon="0.99180113155862"><ele>196.0</ele><time>2026-05-01T14:15:22Z</time></trkpt><trkpt lat="44.77794506811816" lon="0.9916216497128768"><ele>196.0</ele><time>2026-05-01T14:15:23Z</time></trkpt><trkpt lat="44.7779097293602" lon="0.9914504371911697"><ele>196.0</ele><time>2026-05-01T14:15:24Z</time></trkpt><trkpt lat="44.777872651702225" lon="0.9912809598860809"><ele>197.5</ele><time>2026-05-01T14:15:25Z</time></trkpt><trkpt lat="44.77783397750485" lon="0.9911076137608558"><ele>199.0</ele><time>2026-05-01T14:15:26Z</time></trkpt><trkpt lat="44.77778689533597" lon="0.9909364100053237"><ele>200.5</ele><time>2026-05-01T14:15:27Z</time></trkpt><trkpt lat="44.7777412988561" lon="0.9907501776103448"><ele>202.0</ele><time>2026-05-01T14:15:28Z</time></trkpt><trkpt lat="44.777694529876506" lon="0.9905699431738784"><ele>203.0</ele><time>2026-05-01T14:15:29Z</time></trkpt><trkpt lat="44.77765807941868" lon="0.9904226833805038"><ele>204.0</ele><time>2026-05-01T14:15:30Z</time></trkpt><trkpt lat="44.777609092432115" lon="0.9902868516079354"><ele>205.0</ele><time>2026-05-01T14:15:31Z</time></trkpt><trkpt lat="44.77753742766324" lon="0.9902041572974515"><ele>206.0</ele><time>2026-05-01T14:15:32Z</time></trkpt><trkpt lat="44.777448206735535" lon="0.9901714955882952"><ele>207.0</ele><time>2026-05-01T14:15:33Z</time></trkpt><trkpt lat="44.77733573612038" lon="0.990205023424525"><ele>207.0</ele><time>2026-05-01T14:15:34Z</time></trkpt><trkpt lat="44.77722509642892" lon="0.9902979991644489"><ele>207.0</ele><time>2026-05-01T14:15:35Z</time></trkpt><trkpt lat="44.777113040313274" lon="0.9903900035670703"><ele>207.0</ele><time>2026-05-01T14:15:36Z</time></trkpt><trkpt lat="44.7769898233276" lon="0.9904463953531241"><ele>207.0</ele><time>2026-05-01T14:15:37Z</time></trkpt><trkpt lat="44.77687722228833" lon="0.9904949002516197"><ele>205.75</ele><time>2026-05-01T14:15:38Z</time></trkpt><trkpt lat="44.77677058631828" lon="0.9904829101241108"><ele>204.5</ele><time>2026-05-01T14:15:39Z</time></trkpt><trkpt lat="44.77667188246196" lon="0.9904350639320463"><ele>203.25</ele><time>2026-05-01T14:15:40Z</time></trkpt><trkpt lat="44.77658403608859" lon="0.9903124813795102"><ele>202.0</ele><time>2026-05-01T14:15:41Z</time></trkpt><trkpt lat="44.77650898706421" lon="0.9901457498858165"><ele>200.6</ele><time>2026-05-01T14:15:42Z</time></trkpt><trkpt lat="44.77647396501934" lon="0.9899826862501714"><ele>199.2</ele><time>2026-05-01T14:15:43Z</time></trkpt><trkpt lat="44.77644517957809" lon="0.9898765332432659"><ele>197.8</ele><time>2026-05-01T14:15:44Z</time></trkpt><trkpt lat="44.77645696263408" lon="0.9897872449136861"><ele>196.4</ele><time>2026-05-01T14:15:45Z</time></trkpt><trkpt lat="44.776367441251075" lon="0.9897018163718939"><ele>195.0</ele><time>2026-05-01T14:15:46Z</time></trkpt><trkpt lat="44.77627936323619" lon="0.9896165959279635"><ele>195.0</ele><time>2026-05-01T14:15:47Z</time></trkpt><trkpt lat="44.776202815545346" lon="0.9894942960911228"><ele>195.0</ele><time>2026-05-01T14:15:48Z</time></trkpt><trkpt lat="44.77611794010273" lon="0.9893730620167023"><ele>195.0</ele><time>2026-05-01T14:15:49Z</time></trkpt><trkpt lat="44.77602469332729" lon="0.9892574714809862"><ele>195.0</ele><time>2026-05-01T14:15:50Z</time></trkpt><trkpt lat="44.77593483685158" lon="0.9891085597740493"><ele>193.5</ele><time>2026-05-01T14:15:51Z</time></trkpt><trkpt lat="44.77586588507965" lon="0.9889468788515411"><ele>192.0</ele><time>2026-05-01T14:15:52Z</time></trkpt><trkpt lat="44.77578829114225" lon="0.9887897080406564"><ele>190.5</ele><time>2026-05-01T14:15:53Z</time></trkpt><trkpt lat="44.775711732995326" lon="0.9886456605670632"><ele>189.0</ele><time>2026-05-01T14:15:54Z</time></trkpt><trkpt lat="44.775652496935855" lon="0.9885094417741647"><ele>189.0</ele><time>2026-05-01T14:15:55Z</time></trkpt><trkpt lat="44.775587518916375" lon="0.9883898655143101"><ele>189.0</ele><time>2026-05-01T14:15:56Z</time></trkpt><trkpt lat="44.77551861699089" lon="0.9882972664776726"><ele>189.0</ele><time>2026-05-01T14:15:57Z</time></trkpt><trkpt lat="44.77545924704587" lon="0.9882411304381074"><ele>189.0</ele><time>2026-05-01T14:15:58Z</time></trkpt><trkpt lat="44.77533876685441" lon="0.9881967240607913"><ele>189.0</ele><time>2026-05-01T14:16:00Z</time></trkpt><trkpt lat="44.77527406218419" lon="0.9882127661996081"><ele>188.6</ele><time>2026-05-01T14:16:01Z</time></trkpt><trkpt lat="44.77519067184897" lon="0.9882480606745625"><ele>188.2</ele><time>2026-05-01T14:16:02Z</time></trkpt><trkpt lat="44.77509807196622" lon="0.9882690710239173"><ele>187.79999999999998</ele><time>2026-05-01T14:16:03Z</time></trkpt><trkpt lat="44.77499884860995" lon="0.9882873864315309"><ele>187.39999999999998</ele><time>2026-05-01T14:16:04Z</time></trkpt><trkpt lat="44.77489455575225" lon="0.9883113390996122"><ele>187.0</ele><time>2026-05-01T14:16:05Z</time></trkpt><trkpt lat="44.77480333187066" lon="0.9883593218279788"><ele>188.2</ele><time>2026-05-01T14:16:06Z</time></trkpt><trkpt lat="44.774712311965295" lon="0.9884073018902702"><ele>189.39999999999998</ele><time>2026-05-01T14:16:07Z</time></trkpt><trkpt lat="44.77461929026845" lon="0.988460379628205"><ele>190.60000000000002</ele><time>2026-05-01T14:16:08Z</time></trkpt><trkpt lat="44.774530960064034" lon="0.9885068252994127"><ele>191.8</ele><time>2026-05-01T14:16:09Z</time></trkpt><trkpt lat="44.7744442666809" lon="0.9885293515218003"><ele>193.0</ele><time>2026-05-01T14:16:10Z</time></trkpt><trkpt lat="44.77435326816612" lon="0.988534128216503"><ele>194.0</ele><time>2026-05-01T14:16:11Z</time></trkpt><trkpt lat="44.774258818087354" lon="0.9885162914244793"><ele>195.0</ele><time>2026-05-01T14:16:12Z</time></trkpt><trkpt lat="44.77416295891591" lon="0.988502218652529"><ele>196.0</ele><time>2026-05-01T14:16:13Z</time></trkpt><trkpt lat="44.774081667079194" lon="0.988505265813446"><ele>197.0</ele><time>2026-05-01T14:16:14Z</time></trkpt><trkpt lat="44.77397353149463" lon="0.9885009054537823"><ele>198.0</ele><time>2026-05-01T14:16:16Z</time></trkpt><trkpt lat="44.77390261958447" lon="0.9884707076168437"><ele>196.60000000000002</ele><time>2026-05-01T14:16:17.999Z</time></trkpt><trkpt lat="44.773888877061744" lon="0.9883395437284016"><ele>195.20000000000002</ele><time>2026-05-01T14:16:18.999Z</time></trkpt><trkpt lat="44.77387953633238" lon="0.9882062529236728"><ele>193.8</ele><time>2026-05-01T14:16:19.999Z</time></trkpt><trkpt lat="44.773860660800224" lon="0.9880582257500091"><ele>192.4</ele><time>2026-05-01T14:16:20.999Z</time></trkpt><trkpt lat="44.77384981229911" lon="0.9879147319507071"><ele>191.0</ele><time>2026-05-01T14:16:21.999Z</time></trkpt><trkpt lat="44.77382904266228" lon="0.9877653510827944"><ele>191.0</ele><time>2026-05-01T14:16:22.999Z</time></trkpt><trkpt lat="44.77380562421341" lon="0.9876075630678652"><ele>191.0</ele><time>2026-05-01T14:16:23.999Z</time></trkpt><trkpt lat="44.77378718967823" lon="0.9874408768258783"><ele>191.0</ele><time>2026-05-01T14:16:24.999Z</time></trkpt><trkpt lat="44.77377836181652" lon="0.9872653155408649"><ele>191.0</ele><time>2026-05-01T14:16:25.999Z</time></trkpt><trkpt lat="44.773777397328764" lon="0.9870888788796626"><ele>190.0</ele><time>2026-05-01T14:16:26.999Z</time></trkpt><trkpt lat="44.773787053857525" lon="0.9869221546966448"><ele>189.0</ele><time>2026-05-01T14:16:27.999Z</time></trkpt><trkpt lat="44.77380658190887" lon="0.9867447767177857"><ele>188.0</ele><time>2026-05-01T14:16:28.999Z</time></trkpt><trkpt lat="44.77382419654741" lon="0.9865757345929737"><ele>187.0</ele><time>2026-05-01T14:16:29.999Z</time></trkpt><trkpt lat="44.77383874110226" lon="0.986411994544838"><ele>186.8</ele><time>2026-05-01T14:16:30.999Z</time></trkpt><trkpt lat="44.77384093962467" lon="0.9862641539791881"><ele>186.6</ele><time>2026-05-01T14:16:32Z</time></trkpt><trkpt lat="44.77383136748131" lon="0.9861260528128691"><ele>186.4</ele><time>2026-05-01T14:16:33Z</time></trkpt><trkpt lat="44.77382632014445" lon="0.9859884264493871"><ele>186.20000000000002</ele><time>2026-05-01T14:16:34Z</time></trkpt><trkpt lat="44.77382143702366" lon="0.9858454827469443"><ele>186.0</ele><time>2026-05-01T14:16:35Z</time></trkpt><trkpt lat="44.77382933919825" lon="0.9856833885174386"><ele>185.5</ele><time>2026-05-01T14:16:36Z</time></trkpt><trkpt lat="44.77384198542371" lon="0.9855204961681776"><ele>185.0</ele><time>2026-05-01T14:16:37Z</time></trkpt><trkpt lat="44.773868106032296" lon="0.9853599148333068"><ele>184.5</ele><time>2026-05-01T14:16:38Z</time></trkpt><trkpt lat="44.77390160670938" lon="0.9851872631456824"><ele>184.0</ele><time>2026-05-01T14:16:39Z</time></trkpt><trkpt lat="44.77393745707092" lon="0.9850140699069225"><ele>184.0</ele><time>2026-05-01T14:16:40Z</time></trkpt><trkpt lat="44.773959796278085" lon="0.9848215545277909"><ele>184.0</ele><time>2026-05-01T14:16:41Z</time></trkpt><trkpt lat="44.77397762321664" lon="0.9846470045602433"><ele>184.0</ele><time>2026-05-01T14:16:42Z</time></trkpt><trkpt lat="44.773994498345225" lon="0.9844395260093862"><ele>184.0</ele><time>2026-05-01T14:16:43Z</time></trkpt><trkpt lat="44.77401047004136" lon="0.9842323238265"><ele>182.75</ele><time>2026-05-01T14:16:44Z</time></trkpt><trkpt lat="44.774010881279054" lon="0.98404221194413"><ele>181.5</ele><time>2026-05-01T14:16:45Z</time></trkpt><trkpt lat="44.77400946550821" lon="0.9838562091432094"><ele>180.25</ele><time>2026-05-01T14:16:46Z</time></trkpt><trkpt lat="44.774018820018796" lon="0.9836825097542011"><ele>179.0</ele><time>2026-05-01T14:16:47Z</time></trkpt><trkpt lat="44.77402677823982" lon="0.9835208062362741"><ele>179.0</ele><time>2026-05-01T14:16:48Z</time></trkpt><trkpt lat="44.774023706431784" lon="0.9833690312843294"><ele>179.0</ele><time>2026-05-01T14:16:49Z</time></trkpt><trkpt lat="44.77402346666502" lon="0.9832408247381248"><ele>179.0</ele><time>2026-05-01T14:16:50Z</time></trkpt><trkpt lat="44.77401515195216" lon="0.9831428507059135"><ele>179.0</ele><time>2026-05-01T14:16:51Z</time></trkpt><trkpt lat="44.77399483528634" lon="0.9830343925511996"><ele>179.0</ele><time>2026-05-01T14:16:52Z</time></trkpt><trkpt lat="44.773963919082014" lon="0.982905351658626"><ele>179.0</ele><time>2026-05-01T14:16:53Z</time></trkpt><trkpt lat="44.77391070570037" lon="0.982759565139719"><ele>178.2</ele><time>2026-05-01T14:16:54Z</time></trkpt><trkpt lat="44.77385225104001" lon="0.98265042376075"><ele>177.39999999999998</ele><time>2026-05-01T14:16:55Z</time></trkpt><trkpt lat="44.773761492340626" lon="0.9825586573000044"><ele>176.6</ele><time>2026-05-01T14:16:56Z</time></trkpt><trkpt lat="44.773672130558914" lon="0.9824733273671551"><ele>175.8</ele><time>2026-05-01T14:16:57Z</time></trkpt><trkpt lat="44.77358691775123" lon="0.9823969855816636"><ele>175.0</ele><time>2026-05-01T14:16:58Z</time></trkpt><trkpt lat="44.7735040227616" lon="0.9823460793599215"><ele>174.66666666666669</ele><time>2026-05-01T14:16:59Z</time></trkpt><trkpt lat="44.77341730007961" lon="0.9823377853942057"><ele>174.33333333333334</ele><time>2026-05-01T14:17:00Z</time></trkpt><trkpt lat="44.77332572209669" lon="0.9823565626688744"><ele>174.0</ele><time>2026-05-01T14:17:01Z</time></trkpt><trkpt lat="44.773246217824344" lon="0.9823819705731901"><ele>173.66666666666666</ele><time>2026-05-01T14:17:02Z</time></trkpt><trkpt lat="44.77318129504441" lon="0.9824633371256476"><ele>173.33333333333331</ele><time>2026-05-01T14:17:03Z</time></trkpt><trkpt lat="44.77312917921176" lon="0.9825834498696072"><ele>173.0</ele><time>2026-05-01T14:17:04Z</time></trkpt><trkpt lat="44.77305667521121" lon="0.9827213076015827"><ele>173.0</ele><time>2026-05-01T14:17:05Z</time></trkpt><trkpt lat="44.772951530836785" lon="0.9828242917326836"><ele>173.0</ele><time>2026-05-01T14:17:06Z</time></trkpt><trkpt lat="44.77282236283123" lon="0.9828702057607547"><ele>173.0</ele><time>2026-05-01T14:17:07Z</time></trkpt><trkpt lat="44.772749637918444" lon="0.98289053812705"><ele>173.0</ele><time>2026-05-01T14:17:08Z</time></trkpt><trkpt lat="44.7726271108678" lon="0.9828061989086324"><ele>170.25</ele><time>2026-05-01T14:17:09Z</time></trkpt><trkpt lat="44.77251140938502" lon="0.9827541971074716"><ele>167.5</ele><time>2026-05-01T14:17:10Z</time></trkpt><trkpt lat="44.77239824152468" lon="0.9826966280440893"><ele>164.75</ele><time>2026-05-01T14:17:11Z</time></trkpt><trkpt lat="44.77228218669648" lon="0.9826442081380712"><ele>162.0</ele><time>2026-05-01T14:17:12Z</time></trkpt><trkpt lat="44.77217700440555" lon="0.982590874268545"><ele>162.0</ele><time>2026-05-01T14:17:13Z</time></trkpt><trkpt lat="44.77208139684964" lon="0.9825432369369987"><ele>162.0</ele><time>2026-05-01T14:17:14Z</time></trkpt><trkpt lat="44.77198973059866" lon="0.9824798060098382"><ele>162.0</ele><time>2026-05-01T14:17:15Z</time></trkpt><trkpt lat="44.77192306262164" lon="0.9823821842454473"><ele>162.0</ele><time>2026-05-01T14:17:16Z</time></trkpt><trkpt lat="44.77190970792588" lon="0.982230092119396"><ele>162.0</ele><time>2026-05-01T14:17:17Z</time></trkpt><trkpt lat="44.77187184002013" lon="0.9820865224019021"><ele>161.5</ele><time>2026-05-01T14:17:18Z</time></trkpt><trkpt lat="44.77188577114042" lon="0.9819182026312911"><ele>161.0</ele><time>2026-05-01T14:17:19Z</time></trkpt><trkpt lat="44.771874829763924" lon="0.981757390581941"><ele>160.5</ele><time>2026-05-01T14:17:20Z</time></trkpt><trkpt lat="44.771847976709125" lon="0.9815768067956921"><ele>160.0</ele><time>2026-05-01T14:17:21Z</time></trkpt><trkpt lat="44.77184387891507" lon="0.9813914964348224"><ele>158.75</ele><time>2026-05-01T14:17:22Z</time></trkpt><trkpt lat="44.771830175339126" lon="0.9811893123356277"><ele>157.5</ele><time>2026-05-01T14:17:23Z</time></trkpt><trkpt lat="44.771821750845255" lon="0.9809979791752255"><ele>156.25</ele><time>2026-05-01T14:17:24Z</time></trkpt><trkpt lat="44.77181753353127" lon="0.9808095787868032"><ele>155.0</ele><time>2026-05-01T14:17:25Z</time></trkpt><trkpt lat="44.7718297500907" lon="0.9806253252231364"><ele>154.5</ele><time>2026-05-01T14:17:26Z</time></trkpt><trkpt lat="44.77184958343939" lon="0.9804775683500886"><ele>154.0</ele><time>2026-05-01T14:17:27Z</time></trkpt><trkpt lat="44.77188639759992" lon="0.9803040153993398"><ele>153.5</ele><time>2026-05-01T14:17:28Z</time></trkpt><trkpt lat="44.77192649808234" lon="0.9801547527238385"><ele>153.0</ele><time>2026-05-01T14:17:29Z</time></trkpt><trkpt lat="44.77197943795418" lon="0.9800072564673992"><ele>152.5</ele><time>2026-05-01T14:17:30Z</time></trkpt><trkpt lat="44.77201145736157" lon="0.9798778618337586"><ele>152.0</ele><time>2026-05-01T14:17:31Z</time></trkpt><trkpt lat="44.772014588753024" lon="0.9797832130939705"><ele>151.5</ele><time>2026-05-01T14:17:32Z</time></trkpt><trkpt lat="44.771940704384136" lon="0.979645750094324"><ele>151.0</ele><time>2026-05-01T14:17:34Z</time></trkpt><trkpt lat="44.77187370808803" lon="0.9796348950440277"><ele>150.5</ele><time>2026-05-01T14:17:35Z</time></trkpt><trkpt lat="44.771800485275335" lon="0.9796140700844359"><ele>150.0</ele><time>2026-05-01T14:17:37Z</time></trkpt><trkpt lat="44.77190330531979" lon="0.9793099349725862"><ele>148.33333333333334</ele><time>2026-05-01T14:17:42Z</time></trkpt><trkpt lat="44.77193954842925" lon="0.9791957836836804"><ele>146.66666666666666</ele><time>2026-05-01T14:17:43Z</time></trkpt><trkpt lat="44.77197752402037" lon="0.9790967790952113"><ele>145.0</ele><time>2026-05-01T14:17:44Z</time></trkpt><trkpt lat="44.77200883766506" lon="0.9789862438829137"><ele>143.33333333333331</ele><time>2026-05-01T14:17:45Z</time></trkpt><trkpt lat="44.77203802044896" lon="0.9788851216141088"><ele>141.66666666666666</ele><time>2026-05-01T14:17:46Z</time></trkpt><trkpt lat="44.772094269593595" lon="0.9787422050120547"><ele>140.0</ele><time>2026-05-01T14:17:48Z</time></trkpt><trkpt lat="44.772112947693465" lon="0.9786162488805299"><ele>138.4</ele><time>2026-05-01T14:17:49Z</time></trkpt><trkpt lat="44.772136498240684" lon="0.978492125169832"><ele>136.8</ele><time>2026-05-01T14:17:51Z</time></trkpt><trkpt lat="44.77216415428817" lon="0.9783354327916561"><ele>135.2</ele><time>2026-05-01T14:17:53Z</time></trkpt><trkpt lat="44.77218385179116" lon="0.978231858447121"><ele>133.6</ele><time>2026-05-01T14:17:54Z</time></trkpt><trkpt lat="44.772225068378795" lon="0.9781202691197215"><ele>132.0</ele><time>2026-05-01T14:17:56Z</time></trkpt><trkpt lat="44.77224830086985" lon="0.9780038125984868"><ele>131.79999999999998</ele><time>2026-05-01T14:17:57Z</time></trkpt><trkpt lat="44.772298784474415" lon="0.9778825552963757"><ele>131.6</ele><time>2026-05-01T14:17:59Z</time></trkpt><trkpt lat="44.772315956155424" lon="0.9777211239017906"><ele>131.39999999999998</ele><time>2026-05-01T14:18:03Z</time></trkpt><trkpt lat="44.77233294230833" lon="0.9776015237420609"><ele>131.2</ele><time>2026-05-01T14:18:05Z</time></trkpt><trkpt lat="44.772413536135865" lon="0.9774855925068239"><ele>131.0</ele><time>2026-05-01T14:18:07Z</time></trkpt><trkpt lat="44.772478948317065" lon="0.9774143729543601"><ele>131.0</ele><time>2026-05-01T14:18:08Z</time></trkpt><trkpt lat="44.77259552129647" lon="0.9773724158117346"><ele>131.0</ele><time>2026-05-01T14:18:10Z</time></trkpt><trkpt lat="44.77267426804121" lon="0.9773661871703682"><ele>131.0</ele><time>2026-05-01T14:18:11Z</time></trkpt><trkpt lat="44.77278980096816" lon="0.977317922767481"><ele>131.0</ele><time>2026-05-01T14:18:13Z</time></trkpt><trkpt lat="44.77285657641574" lon="0.977236181251812"><ele>131.0</ele><time>2026-05-01T14:18:14Z</time></trkpt><trkpt lat="44.77294588084268" lon="0.9771384627692286"><ele>131.83333333333331</ele><time>2026-05-01T14:18:15Z</time></trkpt><trkpt lat="44.77302610489006" lon="0.9770611976910091"><ele>132.66666666666666</ele><time>2026-05-01T14:18:16Z</time></trkpt><trkpt lat="44.77309450285256" lon="0.976999115503385"><ele>133.5</ele><time>2026-05-01T14:18:17Z</time></trkpt><trkpt lat="44.77314522158484" lon="0.9769178798018016"><ele>134.33333333333334</ele><time>2026-05-01T14:18:18Z</time></trkpt><trkpt lat="44.773198591072834" lon="0.9768134588810339"><ele>135.16666666666669</ele><time>2026-05-01T14:18:20Z</time></trkpt><trkpt lat="44.7732896155052" lon="0.9767536062407967"><ele>136.0</ele><time>2026-05-01T14:18:21Z</time></trkpt><trkpt lat="44.77335077702883" lon="0.9766502066807633"><ele>140.6</ele><time>2026-05-01T14:18:22Z</time></trkpt><trkpt lat="44.77340443391227" lon="0.9765430236557119"><ele>145.2</ele><time>2026-05-01T14:18:23Z</time></trkpt><trkpt lat="44.77348295872444" lon="0.9764255907393701"><ele>149.8</ele><time>2026-05-01T14:18:25Z</time></trkpt><trkpt lat="44.77355601267592" lon="0.9763095856295149"><ele>154.4</ele><time>2026-05-01T14:18:27Z</time></trkpt><trkpt lat="44.77362685249757" lon="0.9762596958540706"><ele>159.0</ele><time>2026-05-01T14:18:29Z</time></trkpt><trkpt lat="44.773674371902196" lon="0.9761978410294573"><ele>159.4</ele><time>2026-05-01T14:18:30Z</time></trkpt><trkpt lat="44.77375170058475" lon="0.9760853576416048"><ele>159.8</ele><time>2026-05-01T14:18:32Z</time></trkpt><trkpt lat="44.77374556770522" lon="0.975977348698657"><ele>160.20000000000002</ele><time>2026-05-01T14:18:34Z</time></trkpt><trkpt lat="44.773647388371074" lon="0.9759236813652479"><ele>160.60000000000002</ele><time>2026-05-01T14:18:36Z</time></trkpt><trkpt lat="44.77364323287211" lon="0.9757962138893734"><ele>161.0</ele><time>2026-05-01T14:18:38Z</time></trkpt><trkpt lat="44.773665623229775" lon="0.9756908119270086"><ele>163.33333333333331</ele><time>2026-05-01T14:18:39Z</time></trkpt><trkpt lat="44.77367235764127" lon="0.9755942077522187"><ele>165.66666666666666</ele><time>2026-05-01T14:18:40Z</time></trkpt><trkpt lat="44.77366092714225" lon="0.9754865814646088"><ele>168.0</ele><time>2026-05-01T14:18:41Z</time></trkpt><trkpt lat="44.77364091804722" lon="0.9753522875302036"><ele>170.33333333333334</ele><time>2026-05-01T14:18:42Z</time></trkpt><trkpt lat="44.77363735856481" lon="0.9752313042393045"><ele>172.66666666666669</ele><time>2026-05-01T14:18:43Z</time></trkpt><trkpt lat="44.773646627520044" lon="0.9751236992884886"><ele>175.0</ele><time>2026-05-01T14:18:44Z</time></trkpt><trkpt lat="44.77366433530195" lon="0.9749818754399442"><ele>177.66666666666669</ele><time>2026-05-01T14:18:46Z</time></trkpt><trkpt lat="44.77367347576148" lon="0.9748863376137599"><ele>180.33333333333334</ele><time>2026-05-01T14:18:47Z</time></trkpt><trkpt lat="44.773654516452666" lon="0.974768608447037"><ele>183.0</ele><time>2026-05-01T14:18:49Z</time></trkpt><trkpt lat="44.77367185294463" lon="0.9746127597540994"><ele>185.66666666666666</ele><time>2026-05-01T14:18:51Z</time></trkpt><trkpt lat="44.773665163956736" lon="0.9745070488297223"><ele>188.33333333333331</ele><time>2026-05-01T14:18:52Z</time></trkpt><trkpt lat="44.773650455467696" lon="0.9744166790332488"><ele>191.0</ele><time>2026-05-01T14:18:53Z</time></trkpt><trkpt lat="44.77364865698619" lon="0.9742180779534697"><ele>191.60000000000002</ele><time>2026-05-01T14:18:55Z</time></trkpt><trkpt lat="44.77364268181912" lon="0.9741158726249491"><ele>192.2</ele><time>2026-05-01T14:18:56Z</time></trkpt><trkpt lat="44.77362881848404" lon="0.9739791724437279"><ele>192.8</ele><time>2026-05-01T14:18:58Z</time></trkpt><trkpt lat="44.77359633122647" lon="0.9738378773629468"><ele>193.39999999999998</ele><time>2026-05-01T14:19:00Z</time></trkpt><trkpt lat="44.77361098892278" lon="0.9736318182399759"><ele>194.0</ele><time>2026-05-01T14:19:02Z</time></trkpt><trkpt lat="44.77362470997947" lon="0.9735390860350931"><ele>194.0</ele><time>2026-05-01T14:19:03Z</time></trkpt><trkpt lat="44.77364082827076" lon="0.973373801357588"><ele>194.0</ele><time>2026-05-01T14:19:05Z</time></trkpt><trkpt lat="44.77368063274797" lon="0.9732302238456332"><ele>194.0</ele><time>2026-05-01T14:19:06Z</time></trkpt><trkpt lat="44.77370752607369" lon="0.9730921255897336"><ele>194.0</ele><time>2026-05-01T14:19:07Z</time></trkpt><trkpt lat="44.773740110690674" lon="0.9729866136927977"><ele>194.0</ele><time>2026-05-01T14:19:08Z</time></trkpt><trkpt lat="44.77376921161384" lon="0.9728667690799742"><ele>194.00000000000003</ele><time>2026-05-01T14:19:09Z</time></trkpt><trkpt lat="44.773788851360074" lon="0.9727445543541994"><ele>194.0</ele><time>2026-05-01T14:19:10Z</time></trkpt><trkpt lat="44.77381322782089" lon="0.9726317873633519"><ele>194.0</ele><time>2026-05-01T14:19:11Z</time></trkpt><trkpt lat="44.773819757163416" lon="0.9725228026495455"><ele>194.0</ele><time>2026-05-01T14:19:12Z</time></trkpt><trkpt lat="44.77381921740244" lon="0.9723924100235682"><ele>194.00000000000003</ele><time>2026-05-01T14:19:13Z</time></trkpt><trkpt lat="44.77381349540441" lon="0.9722753784936575"><ele>194.0</ele><time>2026-05-01T14:19:14Z</time></trkpt><trkpt lat="44.77381996709614" lon="0.9721618173799381"><ele>194.39999999999998</ele><time>2026-05-01T14:19:15Z</time></trkpt><trkpt lat="44.77382433461062" lon="0.9720528385533824"><ele>194.8</ele><time>2026-05-01T14:19:16Z</time></trkpt><trkpt lat="44.773852886941576" lon="0.9719378095980645"><ele>195.2</ele><time>2026-05-01T14:19:17Z</time></trkpt><trkpt lat="44.77389563475425" lon="0.971809245960566"><ele>195.60000000000002</ele><time>2026-05-01T14:19:18Z</time></trkpt><trkpt lat="44.77390562091537" lon="0.971669351502553"><ele>196.0</ele><time>2026-05-01T14:19:19Z</time></trkpt><trkpt lat="44.773896104603665" lon="0.9715372709807925"><ele>196.49999999999997</ele><time>2026-05-01T14:19:20Z</time></trkpt><trkpt lat="44.773892543474076" lon="0.9714291922241841"><ele>197.0</ele><time>2026-05-01T14:19:21Z</time></trkpt><trkpt lat="44.77389336722736" lon="0.9713257924605203"><ele>197.5</ele><time>2026-05-01T14:19:22Z</time></trkpt><trkpt lat="44.77387731385624" lon="0.9711742993717712"><ele>198.0</ele><time>2026-05-01T14:19:24Z</time></trkpt><trkpt lat="44.77387490802145" lon="0.9710703281290431"><ele>198.49999999999997</ele><time>2026-05-01T14:19:25Z</time></trkpt><trkpt lat="44.773852398002546" lon="0.9709457577706434"><ele>199.0</ele><time>2026-05-01T14:19:26Z</time></trkpt><trkpt lat="44.77383660508621" lon="0.9708469393498753"><ele>199.33333333333331</ele><time>2026-05-01T14:19:27Z</time></trkpt><trkpt lat="44.77383317537974" lon="0.970733398887767"><ele>199.66666666666666</ele><time>2026-05-01T14:19:28Z</time></trkpt><trkpt lat="44.773815661968115" lon="0.9706424566183995"><ele>200.0</ele><time>2026-05-01T14:19:29Z</time></trkpt><trkpt lat="44.77379273754385" lon="0.9704646629161136"><ele>200.33333333333331</ele><time>2026-05-01T14:19:31Z</time></trkpt><trkpt lat="44.77381132941909" lon="0.9703611814934867"><ele>200.66666666666666</ele><time>2026-05-01T14:19:32Z</time></trkpt><trkpt lat="44.773813692880125" lon="0.9702436983886434"><ele>201.0</ele><time>2026-05-01T14:19:33Z</time></trkpt><trkpt lat="44.773803272379865" lon="0.9701247365241233"><ele>201.8</ele><time>2026-05-01T14:19:34Z</time></trkpt><trkpt lat="44.773822256072435" lon="0.9699930414104735"><ele>202.60000000000002</ele><time>2026-05-01T14:19:35Z</time></trkpt><trkpt lat="44.773849560391696" lon="0.9698718984415785"><ele>203.4</ele><time>2026-05-01T14:19:37Z</time></trkpt><trkpt lat="44.773900045304146" lon="0.9697752837208155"><ele>204.2</ele><time>2026-05-01T14:19:39Z</time></trkpt><trkpt lat="44.773968089254346" lon="0.96969917071169"><ele>205.0</ele><time>2026-05-01T14:19:42Z</time></trkpt><trkpt lat="44.77401391969204" lon="0.9695428304551396"><ele>204.99999999999997</ele><time>2026-05-01T14:19:44Z</time></trkpt><trkpt lat="44.774050486973884" lon="0.9694496830945939"><ele>205.0</ele><time>2026-05-01T14:19:45Z</time></trkpt><trkpt lat="44.774076590909836" lon="0.9693486570174604"><ele>205.0</ele><time>2026-05-01T14:19:46Z</time></trkpt><trkpt lat="44.774119219512976" lon="0.9691952029585352"><ele>205.0</ele><time>2026-05-01T14:19:48Z</time></trkpt><trkpt lat="44.77415522300432" lon="0.9690747377800841"><ele>204.99999999999997</ele><time>2026-05-01T14:19:49Z</time></trkpt><trkpt lat="44.77415632683125" lon="0.9689530060261601"><ele>205.0</ele><time>2026-05-01T14:19:50Z</time></trkpt><trkpt lat="44.7742402889635" lon="0.9687901449584831"><ele>205.8</ele><time>2026-05-01T14:19:52Z</time></trkpt><trkpt lat="44.774279017211924" lon="0.9686888905553428"><ele>206.6</ele><time>2026-05-01T14:19:53Z</time></trkpt><trkpt lat="44.77428454271096" lon="0.9685520613081735"><ele>207.39999999999998</ele><time>2026-05-01T14:19:54Z</time></trkpt><trkpt lat="44.77427972346169" lon="0.9684016038089882"><ele>208.2</ele><time>2026-05-01T14:19:55Z</time></trkpt><trkpt lat="44.77425471561403" lon="0.9682625297054319"><ele>209.0</ele><time>2026-05-01T14:19:56Z</time></trkpt><trkpt lat="44.77422223670496" lon="0.9681350718569294"><ele>209.39999999999998</ele><time>2026-05-01T14:19:57Z</time></trkpt><trkpt lat="44.77420594047504" lon="0.9680114744795603"><ele>209.8</ele><time>2026-05-01T14:19:58Z</time></trkpt><trkpt lat="44.77421329181339" lon="0.9678841747949523"><ele>210.2</ele><time>2026-05-01T14:19:59Z</time></trkpt><trkpt lat="44.77424425800618" lon="0.9677478901463384"><ele>210.60000000000002</ele><time>2026-05-01T14:20:00Z</time></trkpt><trkpt lat="44.774239318805236" lon="0.9676122637645533"><ele>211.0</ele><time>2026-05-01T14:20:01Z</time></trkpt><trkpt lat="44.774235688427055" lon="0.967481350595957"><ele>211.16666666666666</ele><time>2026-05-01T14:20:02Z</time></trkpt><trkpt lat="44.77424237078805" lon="0.967347784699992"><ele>211.33333333333331</ele><time>2026-05-01T14:20:03Z</time></trkpt><trkpt lat="44.774227988817515" lon="0.967233566046001"><ele>211.5</ele><time>2026-05-01T14:20:04Z</time></trkpt><trkpt lat="44.77420368624182" lon="0.9670928711688221"><ele>211.66666666666669</ele><time>2026-05-01T14:20:06Z</time></trkpt><trkpt lat="44.774234036114976" lon="0.9670062877795712"><ele>211.83333333333334</ele><time>2026-05-01T14:20:07Z</time></trkpt><trkpt lat="44.77428201388284" lon="0.9668831556780074"><ele>212.0</ele><time>2026-05-01T14:20:09.001Z</time></trkpt><trkpt lat="44.774234645937476" lon="0.9667795599122407"><ele>212.00000000000003</ele><time>2026-05-01T14:20:11.001Z</time></trkpt><trkpt lat="44.77418608217717" lon="0.9667058592597908"><ele>212.0</ele><time>2026-05-01T14:20:12.001Z</time></trkpt><trkpt lat="44.774154056549115" lon="0.9666279511458379"><ele>212.0</ele><time>2026-05-01T14:20:13.001Z</time></trkpt><trkpt lat="44.774135244281176" lon="0.9665058322875689"><ele>212.0</ele><time>2026-05-01T14:20:14.001Z</time></trkpt><trkpt lat="44.77411170674653" lon="0.9663832874072119"><ele>212.00000000000003</ele><time>2026-05-01T14:20:15.001Z</time></trkpt><trkpt lat="44.774096940651674" lon="0.9662458720314204"><ele>212.0</ele><time>2026-05-01T14:20:16.001Z</time></trkpt><trkpt lat="44.77408761049363" lon="0.9660833801156875"><ele>211.25</ele><time>2026-05-01T14:20:17.001Z</time></trkpt><trkpt lat="44.77406572786074" lon="0.9659305711215279"><ele>210.5</ele><time>2026-05-01T14:20:18.001Z</time></trkpt><trkpt lat="44.77403549444927" lon="0.9657568921978305"><ele>209.75</ele><time>2026-05-01T14:20:19.001Z</time></trkpt><trkpt lat="44.77401817923286" lon="0.9655987414546512"><ele>209.0</ele><time>2026-05-01T14:20:20.001Z</time></trkpt><trkpt lat="44.77399754845207" lon="0.9654528800447647"><ele>209.0</ele><time>2026-05-01T14:20:21.001Z</time></trkpt><trkpt lat="44.7739808456628" lon="0.965336678463413"><ele>209.0</ele><time>2026-05-01T14:20:22.001Z</time></trkpt><trkpt lat="44.773947316852734" lon="0.9652184367040966"><ele>209.0</ele><time>2026-05-01T14:20:23.001Z</time></trkpt><trkpt lat="44.773884561998095" lon="0.9650619885951576"><ele>209.0</ele><time>2026-05-01T14:20:24.001Z</time></trkpt><trkpt lat="44.773827554182354" lon="0.964935178358295"><ele>209.0</ele><time>2026-05-01T14:20:25.001Z</time></trkpt><trkpt lat="44.77377242926246" lon="0.9647956503798948"><ele>209.0</ele><time>2026-05-01T14:20:26.001Z</time></trkpt><trkpt lat="44.773759911076226" lon="0.964665851894911"><ele>209.0</ele><time>2026-05-01T14:20:27.001Z</time></trkpt><trkpt lat="44.77375560574677" lon="0.964517547624277"><ele>209.0</ele><time>2026-05-01T14:20:28.001Z</time></trkpt><trkpt lat="44.7737357039272" lon="0.9643840470520164"><ele>209.0</ele><time>2026-05-01T14:20:29.001Z</time></trkpt><trkpt lat="44.77374455655059" lon="0.9642371910557354"><ele>209.0</ele><time>2026-05-01T14:20:30.001Z</time></trkpt><trkpt lat="44.77373632546815" lon="0.9640783983857927"><ele>209.33333333333334</ele><time>2026-05-01T14:20:31.001Z</time></trkpt><trkpt lat="44.77372800687581" lon="0.963951525882812"><ele>209.66666666666669</ele><time>2026-05-01T14:20:32.001Z</time></trkpt><trkpt lat="44.77371828234659" lon="0.963863835324425"><ele>210.0</ele><time>2026-05-01T14:20:33.001Z</time></trkpt><trkpt lat="44.77371285213945" lon="0.9637407293867594"><ele>210.33333333333331</ele><time>2026-05-01T14:20:34.001Z</time></trkpt><trkpt lat="44.77370996586367" lon="0.9636438905689511"><ele>210.66666666666666</ele><time>2026-05-01T14:20:35.001Z</time></trkpt><trkpt lat="44.77376634643348" lon="0.9634939711271135"><ele>211.0</ele><time>2026-05-01T14:20:37.001Z</time></trkpt><trkpt lat="44.773818862002095" lon="0.9633929654901174"><ele>211.60000000000002</ele><time>2026-05-01T14:20:38.001Z</time></trkpt><trkpt lat="44.77387107261931" lon="0.9632564772649167"><ele>212.2</ele><time>2026-05-01T14:20:39.001Z</time></trkpt><trkpt lat="44.77390131056256" lon="0.9631508855421287"><ele>212.79999999999998</ele><time>2026-05-01T14:20:40Z</time></trkpt><trkpt lat="44.77392474467793" lon="0.9630525233482735"><ele>213.39999999999998</ele><time>2026-05-01T14:20:41Z</time></trkpt><trkpt lat="44.77392648702296" lon="0.9628911131268941"><ele>214.0</ele><time>2026-05-01T14:20:43Z</time></trkpt><trkpt lat="44.7738961608806" lon="0.9627016265914226"><ele>213.99999999999997</ele><time>2026-05-01T14:20:45Z</time></trkpt><trkpt lat="44.77385675791243" lon="0.9626103691012935"><ele>214.0</ele><time>2026-05-01T14:20:46Z</time></trkpt><trkpt lat="44.77383638931024" lon="0.9624942904462545"><ele>214.0</ele><time>2026-05-01T14:20:47Z</time></trkpt><trkpt lat="44.773823158471764" lon="0.9623758856173383"><ele>214.0</ele><time>2026-05-01T14:20:48Z</time></trkpt><trkpt lat="44.77381912608365" lon="0.9622708205607408"><ele>213.99999999999997</ele><time>2026-05-01T14:20:49Z</time></trkpt><trkpt lat="44.77381612091703" lon="0.9621590733366074"><ele>214.0</ele><time>2026-05-01T14:20:50Z</time></trkpt><trkpt lat="44.77378235185195" lon="0.9619336487042324"><ele>215.16666666666666</ele><time>2026-05-01T14:20:52Z</time></trkpt><trkpt lat="44.77374855184089" lon="0.9618124277173618"><ele>216.33333333333331</ele><time>2026-05-01T14:20:54Z</time></trkpt><trkpt lat="44.773683100624424" lon="0.9617511220225142"><ele>217.5</ele><time>2026-05-01T14:20:56Z</time></trkpt><trkpt lat="44.7737111114381" lon="0.9616325000175793"><ele>218.66666666666669</ele><time>2026-05-01T14:20:58Z</time></trkpt><trkpt lat="44.773763994671164" lon="0.9615763112809769"><ele>219.83333333333334</ele><time>2026-05-01T14:20:59Z</time></trkpt><trkpt lat="44.77382315529152" lon="0.9614841278540324"><ele>221.0</ele><time>2026-05-01T14:21:00Z</time></trkpt><trkpt lat="44.773858250166946" lon="0.9613929817339695"><ele>222.4</ele><time>2026-05-01T14:21:01Z</time></trkpt><trkpt lat="44.77382231235529" lon="0.9612385227219841"><ele>223.8</ele><time>2026-05-01T14:21:03Z</time></trkpt><trkpt lat="44.77377000615362" lon="0.9611501155057792"><ele>225.20000000000002</ele><time>2026-05-01T14:21:04Z</time></trkpt><trkpt lat="44.773714158642555" lon="0.9610341149517363"><ele>226.60000000000002</ele><time>2026-05-01T14:21:05Z</time></trkpt><trkpt lat="44.77366233671365" lon="0.9609140728754763"><ele>228.0</ele><time>2026-05-01T14:21:06Z</time></trkpt><trkpt lat="44.7736280022693" lon="0.9607896072593637"><ele>229.4</ele><time>2026-05-01T14:21:07Z</time></trkpt><trkpt lat="44.77361189574248" lon="0.960664553235083"><ele>230.8</ele><time>2026-05-01T14:21:08Z</time></trkpt><trkpt lat="44.7736113036636" lon="0.9605450292688805"><ele>232.2</ele><time>2026-05-01T14:21:09Z</time></trkpt><trkpt lat="44.773640983295614" lon="0.9604145388325469"><ele>233.6</ele><time>2026-05-01T14:21:10Z</time></trkpt><trkpt lat="44.77366492199623" lon="0.9602738605489489"><ele>235.0</ele><time>2026-05-01T14:21:11Z</time></trkpt><trkpt lat="44.77367138620776" lon="0.9601154261291646"><ele>235.8</ele><time>2026-05-01T14:21:12Z</time></trkpt><trkpt lat="44.773670180542574" lon="0.9599512231041876"><ele>236.6</ele><time>2026-05-01T14:21:13Z</time></trkpt><trkpt lat="44.77366576815482" lon="0.9598240367434724"><ele>237.39999999999998</ele><time>2026-05-01T14:21:14Z</time></trkpt><trkpt lat="44.77364786572665" lon="0.9596879243647504"><ele>238.2</ele><time>2026-05-01T14:21:15Z</time></trkpt><trkpt lat="44.773623420616346" lon="0.9595469676498806"><ele>239.0</ele><time>2026-05-01T14:21:16Z</time></trkpt><trkpt lat="44.77359264018195" lon="0.9593778965184321"><ele>239.0</ele><time>2026-05-01T14:21:17Z</time></trkpt><trkpt lat="44.773562813313355" lon="0.9592325006984085"><ele>238.99999999999997</ele><time>2026-05-01T14:21:18Z</time></trkpt><trkpt lat="44.77353402058469" lon="0.9590812192152118"><ele>238.99999999999997</ele><time>2026-05-01T14:21:19Z</time></trkpt><trkpt lat="44.773520814099726" lon="0.9589577071698124"><ele>239.0</ele><time>2026-05-01T14:21:20Z</time></trkpt><trkpt lat="44.77349044550518" lon="0.9588241430893136"><ele>239.0</ele><time>2026-05-01T14:21:21Z</time></trkpt><trkpt lat="44.773464614966414" lon="0.9586625281691287"><ele>239.2</ele><time>2026-05-01T14:21:22Z</time></trkpt><trkpt lat="44.773442549287594" lon="0.9585339938308468"><ele>239.39999999999998</ele><time>2026-05-01T14:21:23Z</time></trkpt><trkpt lat="44.77343082058097" lon="0.9584040543338134"><ele>239.6</ele><time>2026-05-01T14:21:24Z</time></trkpt><trkpt lat="44.77342641495151" lon="0.9582699886199126"><ele>239.8</ele><time>2026-05-01T14:21:25Z</time></trkpt><trkpt lat="44.773434116364655" lon="0.958144407087136"><ele>240.0</ele><time>2026-05-01T14:21:26Z</time></trkpt><trkpt lat="44.77344184489962" lon="0.9580317595839702"><ele>240.5</ele><time>2026-05-01T14:21:27Z</time></trkpt><trkpt lat="44.77342136856104" lon="0.9579268040017865"><ele>241.0</ele><time>2026-05-01T14:21:28Z</time></trkpt><trkpt lat="44.77339819781807" lon="0.9577874666222768"><ele>241.5</ele><time>2026-05-01T14:21:29Z</time></trkpt><trkpt lat="44.77337157437393" lon="0.9576733035956526"><ele>242.0</ele><time>2026-05-01T14:21:30Z</time></trkpt><trkpt lat="44.773376937504125" lon="0.9575591334944824"><ele>242.5</ele><time>2026-05-01T14:21:31Z</time></trkpt><trkpt lat="44.77335930137901" lon="0.9574346920408694"><ele>243.0</ele><time>2026-05-01T14:21:32Z</time></trkpt><trkpt lat="44.773316251287106" lon="0.957317424310102"><ele>243.2</ele><time>2026-05-01T14:21:33Z</time></trkpt><trkpt lat="44.77329424516927" lon="0.957194661038996"><ele>243.4</ele><time>2026-05-01T14:21:34Z</time></trkpt><trkpt lat="44.77328806006859" lon="0.9570556976350142"><ele>243.59999999999997</ele><time>2026-05-01T14:21:35Z</time></trkpt><trkpt lat="44.77330211648834" lon="0.956926283778362"><ele>243.79999999999998</ele><time>2026-05-01T14:21:36Z</time></trkpt><trkpt lat="44.773320262689005" lon="0.9567703675029788"><ele>244.0</ele><time>2026-05-01T14:21:37Z</time></trkpt><trkpt lat="44.773336396311144" lon="0.9566317521152945"><ele>243.0</ele><time>2026-05-01T14:21:38Z</time></trkpt><trkpt lat="44.773339397273965" lon="0.9564220268409965"><ele>242.0</ele><time>2026-05-01T14:21:39Z</time></trkpt><trkpt lat="44.77330539652771" lon="0.9562748286222299"><ele>241.0</ele><time>2026-05-01T14:21:40Z</time></trkpt><trkpt lat="44.77327951416375" lon="0.9561189620390526"><ele>240.0</ele><time>2026-05-01T14:21:42Z</time></trkpt><trkpt lat="44.77327299147229" lon="0.9559965183018972"><ele>240.0</ele><time>2026-05-01T14:21:43Z</time></trkpt><trkpt lat="44.77326983243901" lon="0.9559004301681316"><ele>240.0</ele><time>2026-05-01T14:21:44Z</time></trkpt><trkpt lat="44.773239733294275" lon="0.9557927507496221"><ele>240.0</ele><time>2026-05-01T14:21:45Z</time></trkpt><trkpt lat="44.773183199035245" lon="0.9557326927262775"><ele>240.0</ele><time>2026-05-01T14:21:46Z</time></trkpt><trkpt lat="44.77310733377613" lon="0.9556623913371413"><ele>240.0</ele><time>2026-05-01T14:21:47Z</time></trkpt><trkpt lat="44.77303644058228" lon="0.9555717740230316"><ele>240.0</ele><time>2026-05-01T14:21:49.001Z</time></trkpt><trkpt lat="44.773062463884365" lon="0.955456170472891"><ele>239.6</ele><time>2026-05-01T14:21:51Z</time></trkpt><trkpt lat="44.77308447174025" lon="0.9553671267230662"><ele>239.2</ele><time>2026-05-01T14:21:52Z</time></trkpt><trkpt lat="44.77309472153604" lon="0.9552560897333958"><ele>238.8</ele><time>2026-05-01T14:21:53Z</time></trkpt><trkpt lat="44.7730955758264" lon="0.955128947648876"><ele>238.4</ele><time>2026-05-01T14:21:54Z</time></trkpt><trkpt lat="44.77308959090322" lon="0.9549616553233073"><ele>238.0</ele><time>2026-05-01T14:21:55Z</time></trkpt><trkpt lat="44.773094156460765" lon="0.954777081521049"><ele>238.0</ele><time>2026-05-01T14:21:56Z</time></trkpt><trkpt lat="44.773093255235736" lon="0.9545511843960223"><ele>238.0</ele><time>2026-05-01T14:21:57Z</time></trkpt><trkpt lat="44.773102411145516" lon="0.9543179998614082"><ele>238.0</ele><time>2026-05-01T14:21:58Z</time></trkpt><trkpt lat="44.77310746246369" lon="0.9541205014418546"><ele>237.75</ele><time>2026-05-01T14:21:59Z</time></trkpt><trkpt lat="44.77311420272569" lon="0.9539148964659044"><ele>237.5</ele><time>2026-05-01T14:22:00Z</time></trkpt><trkpt lat="44.77311863323182" lon="0.9537157435957662"><ele>237.25</ele><time>2026-05-01T14:22:01Z</time></trkpt><trkpt lat="44.77312540583042" lon="0.9535227356046517"><ele>237.0</ele><time>2026-05-01T14:22:02Z</time></trkpt><trkpt lat="44.77312020303465" lon="0.9533446235779613"><ele>237.0</ele><time>2026-05-01T14:22:03Z</time></trkpt><trkpt lat="44.77311067687432" lon="0.953155580228412"><ele>237.0</ele><time>2026-05-01T14:22:04.001Z</time></trkpt><trkpt lat="44.77311141929424" lon="0.9529978764594638"><ele>237.0</ele><time>2026-05-01T14:22:05.001Z</time></trkpt><trkpt lat="44.77311641221223" lon="0.9528699351285338"><ele>237.0</ele><time>2026-05-01T14:22:06.001Z</time></trkpt><trkpt lat="44.77312271988006" lon="0.9527505468682257"><ele>237.0</ele><time>2026-05-01T14:22:07.001Z</time></trkpt><trkpt lat="44.773132695071716" lon="0.9526170690241879"><ele>237.2</ele><time>2026-05-01T14:22:08.001Z</time></trkpt><trkpt lat="44.773158589234086" lon="0.9525001447816581"><ele>237.39999999999998</ele><time>2026-05-01T14:22:09.001Z</time></trkpt><trkpt lat="44.77319537675205" lon="0.9523569082010825"><ele>237.60000000000002</ele><time>2026-05-01T14:22:10.001Z</time></trkpt><trkpt lat="44.77321786241163" lon="0.9522081586267792"><ele>237.8</ele><time>2026-05-01T14:22:11.001Z</time></trkpt><trkpt lat="44.77324085235349" lon="0.9520475621088418"><ele>238.0</ele><time>2026-05-01T14:22:12.001Z</time></trkpt><trkpt lat="44.77325571180554" lon="0.9519081537377676"><ele>238.0</ele><time>2026-05-01T14:22:13.001Z</time></trkpt><trkpt lat="44.77327772603859" lon="0.951757683815611"><ele>238.0</ele><time>2026-05-01T14:22:14.001Z</time></trkpt><trkpt lat="44.773301840860455" lon="0.9516033391565417"><ele>238.0</ele><time>2026-05-01T14:22:15.001Z</time></trkpt><trkpt lat="44.77332548349327" lon="0.9514478336598235"><ele>238.0</ele><time>2026-05-01T14:22:16.001Z</time></trkpt><trkpt lat="44.77334753646077" lon="0.9512928411548548"><ele>238.0</ele><time>2026-05-01T14:22:17.001Z</time></trkpt><trkpt lat="44.77336601892121" lon="0.9511286290563602"><ele>238.0</ele><time>2026-05-01T14:22:18.001Z</time></trkpt><trkpt lat="44.773384325411925" lon="0.9509718968853672"><ele>238.0</ele><time>2026-05-01T14:22:19.001Z</time></trkpt><trkpt lat="44.7734017050981" lon="0.9508148652371676"><ele>238.0</ele><time>2026-05-01T14:22:20.001Z</time></trkpt><trkpt lat="44.77342394902015" lon="0.950659397285025"><ele>238.0</ele><time>2026-05-01T14:22:21.001Z</time></trkpt><trkpt lat="44.773448469992" lon="0.9504966680205608"><ele>238.0</ele><time>2026-05-01T14:22:22.001Z</time></trkpt><trkpt lat="44.77346756819058" lon="0.9503394120027163"><ele>238.0</ele><time>2026-05-01T14:22:23.001Z</time></trkpt><trkpt lat="44.773486298748786" lon="0.9501810773237405"><ele>238.0</ele><time>2026-05-01T14:22:24.001Z</time></trkpt><trkpt lat="44.77350537564783" lon="0.9500051795755703"><ele>238.0</ele><time>2026-05-01T14:22:25.001Z</time></trkpt><trkpt lat="44.773533192623624" lon="0.9498231915169676"><ele>238.5</ele><time>2026-05-01T14:22:26.001Z</time></trkpt><trkpt lat="44.77355880545098" lon="0.9496512099532525"><ele>239.0</ele><time>2026-05-01T14:22:27.001Z</time></trkpt><trkpt lat="44.77357930346979" lon="0.94946445103125"><ele>239.5</ele><time>2026-05-01T14:22:28.001Z</time></trkpt><trkpt lat="44.77360180552463" lon="0.9493070287789644"><ele>240.0</ele><time>2026-05-01T14:22:29.001Z</time></trkpt><trkpt lat="44.77361889503005" lon="0.9491267900937356"><ele>240.0</ele><time>2026-05-01T14:22:30.001Z</time></trkpt><trkpt lat="44.77363539925933" lon="0.9489500477521556"><ele>240.0</ele><time>2026-05-01T14:22:31.001Z</time></trkpt><trkpt lat="44.77364771823439" lon="0.9488274860665095"><ele>240.0</ele><time>2026-05-01T14:22:32.001Z</time></trkpt><trkpt lat="44.77366491534645" lon="0.9487279533561509"><ele>240.0</ele><time>2026-05-01T14:22:33.001Z</time></trkpt><trkpt lat="44.77369187497145" lon="0.9486448285127667"><ele>240.0</ele><time>2026-05-01T14:22:34.001Z</time></trkpt><trkpt lat="44.77372105160495" lon="0.9485531191681095"><ele>240.0</ele><time>2026-05-01T14:22:35.001Z</time></trkpt><trkpt lat="44.773741907682606" lon="0.9484432369523462"><ele>239.83333333333334</ele><time>2026-05-01T14:22:36.001Z</time></trkpt><trkpt lat="44.773770489860304" lon="0.9483312779978958"><ele>239.66666666666669</ele><time>2026-05-01T14:22:37.001Z</time></trkpt><trkpt lat="44.773802470188315" lon="0.9482496078880179"><ele>239.5</ele><time>2026-05-01T14:22:38.001Z</time></trkpt><trkpt lat="44.77383298725325" lon="0.9481332704155235"><ele>239.33333333333334</ele><time>2026-05-01T14:22:39.001Z</time></trkpt><trkpt lat="44.77387816247733" lon="0.9480085208620433"><ele>239.16666666666669</ele><time>2026-05-01T14:22:40.001Z</time></trkpt><trkpt lat="44.77391634372385" lon="0.9478840958154438"><ele>239.0</ele><time>2026-05-01T14:22:41.001Z</time></trkpt><trkpt lat="44.773969771812" lon="0.9477292877136284"><ele>239.0</ele><time>2026-05-01T14:22:42.001Z</time></trkpt><trkpt lat="44.77402882289943" lon="0.9475641458564179"><ele>239.0</ele><time>2026-05-01T14:22:43.001Z</time></trkpt><trkpt lat="44.77408851435658" lon="0.9473866423878061"><ele>239.0</ele><time>2026-05-01T14:22:44.001Z</time></trkpt><trkpt lat="44.77415064852823" lon="0.9472141851844893"><ele>239.0</ele><time>2026-05-01T14:22:45.001Z</time></trkpt><trkpt lat="44.77421078741304" lon="0.9470471214727578"><ele>238.75</ele><time>2026-05-01T14:22:46.001Z</time></trkpt><trkpt lat="44.77428116126259" lon="0.9468667044151079"><ele>238.5</ele><time>2026-05-01T14:22:47.001Z</time></trkpt><trkpt lat="44.774346429506906" lon="0.9466784383057841"><ele>238.25</ele><time>2026-05-01T14:22:48.001Z</time></trkpt><trkpt lat="44.774406291475266" lon="0.9465039279544895"><ele>238.0</ele><time>2026-05-01T14:22:49.001Z</time></trkpt><trkpt lat="44.77447498436371" lon="0.9463211922181654"><ele>238.0</ele><time>2026-05-01T14:22:50.001Z</time></trkpt><trkpt lat="44.774540332021246" lon="0.9461442721636775"><ele>238.0</ele><time>2026-05-01T14:22:51.001Z</time></trkpt><trkpt lat="44.774611292376136" lon="0.9459661929087749"><ele>238.0</ele><time>2026-05-01T14:22:52.001Z</time></trkpt><trkpt lat="44.77468047412333" lon="0.9457813195452305"><ele>238.0</ele><time>2026-05-01T14:22:53.001Z</time></trkpt><trkpt lat="44.77474473082111" lon="0.9456247295145598"><ele>237.8</ele><time>2026-05-01T14:22:54.001Z</time></trkpt><trkpt lat="44.774796860949124" lon="0.9454774971738685"><ele>237.60000000000002</ele><time>2026-05-01T14:22:55Z</time></trkpt><trkpt lat="44.77484634746742" lon="0.9453393533863133"><ele>237.39999999999998</ele><time>2026-05-01T14:22:56Z</time></trkpt><trkpt lat="44.774874941194575" lon="0.945214282331317"><ele>237.2</ele><time>2026-05-01T14:22:57Z</time></trkpt><trkpt lat="44.77490712405047" lon="0.9450927066580395"><ele>237.0</ele><time>2026-05-01T14:22:58Z</time></trkpt><trkpt lat="44.77498363453672" lon="0.9449583605016642"><ele>237.39999999999998</ele><time>2026-05-01T14:22:59Z</time></trkpt><trkpt lat="44.77503424914817" lon="0.9448538036448506"><ele>237.79999999999998</ele><time>2026-05-01T14:23:00Z</time></trkpt><trkpt lat="44.775085216365426" lon="0.9447411251196132"><ele>238.2</ele><time>2026-05-01T14:23:01Z</time></trkpt><trkpt lat="44.77512075986895" lon="0.9445764713074081"><ele>238.6</ele><time>2026-05-01T14:23:02Z</time></trkpt><trkpt lat="44.77517858315274" lon="0.9444359489938202"><ele>239.0</ele><time>2026-05-01T14:23:03Z</time></trkpt><trkpt lat="44.775245689272204" lon="0.944300311445165"><ele>238.5</ele><time>2026-05-01T14:23:04Z</time></trkpt><trkpt lat="44.77530010885253" lon="0.9441450787071092"><ele>238.0</ele><time>2026-05-01T14:23:05Z</time></trkpt><trkpt lat="44.77536322039604" lon="0.9439947862684268"><ele>237.5</ele><time>2026-05-01T14:23:06Z</time></trkpt><trkpt lat="44.775415456384614" lon="0.9438546865307665"><ele>237.0</ele><time>2026-05-01T14:23:07Z</time></trkpt><trkpt lat="44.77545952569914" lon="0.9436798005175077"><ele>237.0</ele><time>2026-05-01T14:23:08Z</time></trkpt><trkpt lat="44.7755227858058" lon="0.9435358787111617"><ele>237.0</ele><time>2026-05-01T14:23:09Z</time></trkpt><trkpt lat="44.775579104604006" lon="0.9433975392444033"><ele>237.0</ele><time>2026-05-01T14:23:10Z</time></trkpt><trkpt lat="44.775630853401296" lon="0.9432585526601088"><ele>237.0</ele><time>2026-05-01T14:23:11Z</time></trkpt><trkpt lat="44.77568553952619" lon="0.9431151872567504"><ele>236.2</ele><time>2026-05-01T14:23:12Z</time></trkpt><trkpt lat="44.77574070677211" lon="0.9429768297708936"><ele>235.39999999999998</ele><time>2026-05-01T14:23:13Z</time></trkpt><trkpt lat="44.77580436273631" lon="0.9428511706610022"><ele>234.60000000000002</ele><time>2026-05-01T14:23:14Z</time></trkpt><trkpt lat="44.77585727836381" lon="0.9427170115124273"><ele>233.8</ele><time>2026-05-01T14:23:15Z</time></trkpt><trkpt lat="44.775896691277296" lon="0.9425701832029851"><ele>233.0</ele><time>2026-05-01T14:23:16Z</time></trkpt><trkpt lat="44.77595487494694" lon="0.9424561598043527"><ele>232.8</ele><time>2026-05-01T14:23:17Z</time></trkpt><trkpt lat="44.77599994670601" lon="0.9423491233861786"><ele>232.60000000000002</ele><time>2026-05-01T14:23:18Z</time></trkpt><trkpt lat="44.77604573926519" lon="0.942228273612263"><ele>232.39999999999998</ele><time>2026-05-01T14:23:19Z</time></trkpt><trkpt lat="44.77608922407962" lon="0.9421074293832102"><ele>232.2</ele><time>2026-05-01T14:23:20Z</time></trkpt><trkpt lat="44.776142224336795" lon="0.9419770544446192"><ele>232.0</ele><time>2026-05-01T14:23:21Z</time></trkpt><trkpt lat="44.7762020351867" lon="0.9418471361131409"><ele>232.0</ele><time>2026-05-01T14:23:22Z</time></trkpt><trkpt lat="44.77624905188927" lon="0.9417611597913937"><ele>232.0</ele><time>2026-05-01T14:23:23Z</time></trkpt><trkpt lat="44.776302325935525" lon="0.9416298048790752"><ele>232.0</ele><time>2026-05-01T14:23:24Z</time></trkpt><trkpt lat="44.776369704657256" lon="0.9414902766788873"><ele>232.0</ele><time>2026-05-01T14:23:25Z</time></trkpt><trkpt lat="44.776437178945045" lon="0.9413418869471887"><ele>232.0</ele><time>2026-05-01T14:23:26Z</time></trkpt><trkpt lat="44.77650381848991" lon="0.9412348972138309"><ele>232.16666666666666</ele><time>2026-05-01T14:23:27Z</time></trkpt><trkpt lat="44.77654941826568" lon="0.9411387194785806"><ele>232.33333333333331</ele><time>2026-05-01T14:23:28Z</time></trkpt><trkpt lat="44.7765986232213" lon="0.941044042780275"><ele>232.5</ele><time>2026-05-01T14:23:29Z</time></trkpt><trkpt lat="44.776626193810586" lon="0.9409533607503859"><ele>232.66666666666669</ele><time>2026-05-01T14:23:30Z</time></trkpt><trkpt lat="44.776676000024594" lon="0.9408759032792754"><ele>232.83333333333334</ele><time>2026-05-01T14:23:31Z</time></trkpt><trkpt lat="44.776710669943874" lon="0.9407768063281328"><ele>233.0</ele><time>2026-05-01T14:23:32Z</time></trkpt><trkpt lat="44.7767671060758" lon="0.9406702331656779"><ele>233.25</ele><time>2026-05-01T14:23:33Z</time></trkpt><trkpt lat="44.77683303745221" lon="0.9405279768778295"><ele>233.5</ele><time>2026-05-01T14:23:34Z</time></trkpt><trkpt lat="44.776893761508155" lon="0.9403835702170567"><ele>233.75</ele><time>2026-05-01T14:23:35Z</time></trkpt><trkpt lat="44.77697565005966" lon="0.9402395597990336"><ele>234.0</ele><time>2026-05-01T14:23:36Z</time></trkpt><trkpt lat="44.77703847197925" lon="0.9400986516256351"><ele>234.0</ele><time>2026-05-01T14:23:37Z</time></trkpt><trkpt lat="44.77710432174447" lon="0.9399540963302279"><ele>234.0</ele><time>2026-05-01T14:23:38Z</time></trkpt><trkpt lat="44.777174913984055" lon="0.9398100485590857"><ele>234.0</ele><time>2026-05-01T14:23:39Z</time></trkpt><trkpt lat="44.77726367846032" lon="0.9396696494561627"><ele>234.0</ele><time>2026-05-01T14:23:40Z</time></trkpt><trkpt lat="44.777340822916294" lon="0.9395188684076475"><ele>234.0</ele><time>2026-05-01T14:23:41Z</time></trkpt><trkpt lat="44.77740606965977" lon="0.9393637882122851"><ele>234.0</ele><time>2026-05-01T14:23:42Z</time></trkpt><trkpt lat="44.77746823615484" lon="0.9392202875730464"><ele>234.0</ele><time>2026-05-01T14:23:43Z</time></trkpt><trkpt lat="44.7775385195494" lon="0.9390699353279052"><ele>234.0</ele><time>2026-05-01T14:23:44Z</time></trkpt><trkpt lat="44.77761427695192" lon="0.9389186345220956"><ele>233.75</ele><time>2026-05-01T14:23:45Z</time></trkpt><trkpt lat="44.77765900704074" lon="0.9387621670095354"><ele>233.5</ele><time>2026-05-01T14:23:46Z</time></trkpt><trkpt lat="44.77774420246671" lon="0.9386070479227365"><ele>233.25</ele><time>2026-05-01T14:23:47Z</time></trkpt><trkpt lat="44.7778204243676" lon="0.938488118563886"><ele>233.0</ele><time>2026-05-01T14:23:48Z</time></trkpt><trkpt lat="44.77790377578848" lon="0.938337888644945"><ele>232.25</ele><time>2026-05-01T14:23:49Z</time></trkpt><trkpt lat="44.77798769240688" lon="0.9381838988233753"><ele>231.5</ele><time>2026-05-01T14:23:50Z</time></trkpt><trkpt lat="44.77806294700477" lon="0.9380403844907201"><ele>230.75</ele><time>2026-05-01T14:23:51Z</time></trkpt><trkpt lat="44.77811675343395" lon="0.9378846713312333"><ele>230.0</ele><time>2026-05-01T14:23:52Z</time></trkpt><trkpt lat="44.77819300613657" lon="0.937791415775217"><ele>230.0</ele><time>2026-05-01T14:23:53Z</time></trkpt><trkpt lat="44.77828698658194" lon="0.9376706591257403"><ele>230.0</ele><time>2026-05-01T14:23:54Z</time></trkpt><trkpt lat="44.7783397900206" lon="0.9375119949585947"><ele>230.0</ele><time>2026-05-01T14:23:55Z</time></trkpt><trkpt lat="44.77840443106043" lon="0.9373645189419135"><ele>230.0</ele><time>2026-05-01T14:23:56Z</time></trkpt><trkpt lat="44.77846199600739" lon="0.9372132744008873"><ele>229.75</ele><time>2026-05-01T14:23:57Z</time></trkpt><trkpt lat="44.77852705383122" lon="0.937061555489998"><ele>229.5</ele><time>2026-05-01T14:23:58Z</time></trkpt><trkpt lat="44.77858970701359" lon="0.9369352153038403"><ele>229.25</ele><time>2026-05-01T14:23:59Z</time></trkpt><trkpt lat="44.778658386148265" lon="0.9368081002416423"><ele>229.0</ele><time>2026-05-01T14:24:00Z</time></trkpt><trkpt lat="44.77872406533828" lon="0.9366809109034433"><ele>228.6</ele><time>2026-05-01T14:24:01Z</time></trkpt><trkpt lat="44.77878121154249" lon="0.9365569450863881"><ele>228.2</ele><time>2026-05-01T14:24:02Z</time></trkpt><trkpt lat="44.778870351765654" lon="0.9364657914194113"><ele>227.79999999999998</ele><time>2026-05-01T14:24:03Z</time></trkpt><trkpt lat="44.778913905469416" lon="0.9363536439953571"><ele>227.39999999999998</ele><time>2026-05-01T14:24:04Z</time></trkpt><trkpt lat="44.77896212132832" lon="0.9362206762267863"><ele>227.0</ele><time>2026-05-01T14:24:05Z</time></trkpt><trkpt lat="44.77902076956744" lon="0.9361040811115819"><ele>227.0</ele><time>2026-05-01T14:24:06Z</time></trkpt><trkpt lat="44.77908089583225" lon="0.9359488391909545"><ele>227.0</ele><time>2026-05-01T14:24:07Z</time></trkpt><trkpt lat="44.779130926431115" lon="0.9358255668355268"><ele>227.0</ele><time>2026-05-01T14:24:08Z</time></trkpt><trkpt lat="44.779174307039895" lon="0.9357100809767905"><ele>227.0</ele><time>2026-05-01T14:24:09Z</time></trkpt><trkpt lat="44.77923082573897" lon="0.9356071455464339"><ele>227.0</ele><time>2026-05-01T14:24:10Z</time></trkpt><trkpt lat="44.77927760704833" lon="0.9354894965879565"><ele>227.0</ele><time>2026-05-01T14:24:11Z</time></trkpt><trkpt lat="44.7793246704547" lon="0.9353990715856888"><ele>227.0</ele><time>2026-05-01T14:24:12Z</time></trkpt><trkpt lat="44.77939591732806" lon="0.9352804826768852"><ele>227.0</ele><time>2026-05-01T14:24:13Z</time></trkpt><trkpt lat="44.77947684180506" lon="0.9351499468544421"><ele>227.0</ele><time>2026-05-01T14:24:14Z</time></trkpt><trkpt lat="44.779557064310154" lon="0.9350257758354846"><ele>227.0</ele><time>2026-05-01T14:24:15Z</time></trkpt><trkpt lat="44.779620078688545" lon="0.9348982806722386"><ele>226.5</ele><time>2026-05-01T14:24:16Z</time></trkpt><trkpt lat="44.779684066071795" lon="0.9347749168007536"><ele>226.0</ele><time>2026-05-01T14:24:17Z</time></trkpt><trkpt lat="44.7797669645822" lon="0.9346450720204214"><ele>225.5</ele><time>2026-05-01T14:24:18Z</time></trkpt><trkpt lat="44.77984647259506" lon="0.934519494827283"><ele>225.0</ele><time>2026-05-01T14:24:19Z</time></trkpt><trkpt lat="44.779924788152286" lon="0.9344075971844723"><ele>225.0</ele><time>2026-05-01T14:24:20Z</time></trkpt><trkpt lat="44.78000160773332" lon="0.9342921611933737"><ele>225.0</ele><time>2026-05-01T14:24:21Z</time></trkpt><trkpt lat="44.78008439156235" lon="0.9341769231700969"><ele>225.0</ele><time>2026-05-01T14:24:22Z</time></trkpt><trkpt lat="44.78016035325599" lon="0.9340673931660374"><ele>225.0</ele><time>2026-05-01T14:24:23Z</time></trkpt><trkpt lat="44.78023150824457" lon="0.9339660601528823"><ele>225.0</ele><time>2026-05-01T14:24:24Z</time></trkpt><trkpt lat="44.78030310077221" lon="0.9338744339348407"><ele>225.0</ele><time>2026-05-01T14:24:25Z</time></trkpt><trkpt lat="44.78036583095957" lon="0.9337736585708644"><ele>225.0</ele><time>2026-05-01T14:24:26Z</time></trkpt><trkpt lat="44.78045454212547" lon="0.9336310723086744"><ele>225.0</ele><time>2026-05-01T14:24:27Z</time></trkpt><trkpt lat="44.780526871199775" lon="0.933463783913045"><ele>225.0</ele><time>2026-05-01T14:24:28Z</time></trkpt><trkpt lat="44.78059693172304" lon="0.933283692561016"><ele>225.0</ele><time>2026-05-01T14:24:29Z</time></trkpt><trkpt lat="44.78064957818905" lon="0.9330982183779281"><ele>225.0</ele><time>2026-05-01T14:24:30Z</time></trkpt><trkpt lat="44.780715861662465" lon="0.932911053695755"><ele>225.0</ele><time>2026-05-01T14:24:31Z</time></trkpt><trkpt lat="44.78078017557104" lon="0.932718339410422"><ele>225.0</ele><time>2026-05-01T14:24:32Z</time></trkpt><trkpt lat="44.78083978109644" lon="0.9325459166848139"><ele>225.0</ele><time>2026-05-01T14:24:33Z</time></trkpt><trkpt lat="44.780891898916444" lon="0.9323990912334161"><ele>225.0</ele><time>2026-05-01T14:24:34Z</time></trkpt><trkpt lat="44.78094044975789" lon="0.9322604959867292"><ele>225.0</ele><time>2026-05-01T14:24:35Z</time></trkpt><trkpt lat="44.78098477287608" lon="0.9321553016662969"><ele>225.0</ele><time>2026-05-01T14:24:36Z</time></trkpt><trkpt lat="44.78101569239154" lon="0.9320368953975793"><ele>225.0</ele><time>2026-05-01T14:24:37Z</time></trkpt><trkpt lat="44.781041079958456" lon="0.9319412196966187"><ele>225.0</ele><time>2026-05-01T14:24:38Z</time></trkpt><trkpt lat="44.781026554074536" lon="0.9318100220780519"><ele>225.0</ele><time>2026-05-01T14:24:40Z</time></trkpt><trkpt lat="44.780921043534924" lon="0.9317352671787972"><ele>225.0</ele><time>2026-05-01T14:24:42.001Z</time></trkpt><trkpt lat="44.7808341412983" lon="0.9317133412176605"><ele>225.0</ele><time>2026-05-01T14:24:43.001Z</time></trkpt><trkpt lat="44.780710259384556" lon="0.9317440968707816"><ele>225.0</ele><time>2026-05-01T14:24:44.001Z</time></trkpt><trkpt lat="44.78058067282489" lon="0.9317310566564001"><ele>225.0</ele><time>2026-05-01T14:24:45.001Z</time></trkpt><trkpt lat="44.78043773426239" lon="0.9317055804007405"><ele>225.0</ele><time>2026-05-01T14:24:46.001Z</time></trkpt><trkpt lat="44.780284933350146" lon="0.9316638322709873"><ele>225.0</ele><time>2026-05-01T14:24:47.001Z</time></trkpt><trkpt lat="44.780133172033054" lon="0.9316333244384603"><ele>224.5</ele><time>2026-05-01T14:24:48.001Z</time></trkpt><trkpt lat="44.7799975577722" lon="0.9315896187443657"><ele>224.0</ele><time>2026-05-01T14:24:49.001Z</time></trkpt><trkpt lat="44.77984700829329" lon="0.9315435090341111"><ele>223.5</ele><time>2026-05-01T14:24:50.001Z</time></trkpt><trkpt lat="44.77970417381337" lon="0.9315196538026159"><ele>223.0</ele><time>2026-05-01T14:24:51.001Z</time></trkpt><trkpt lat="44.77957007473641" lon="0.9314730204205021"><ele>223.0</ele><time>2026-05-01T14:24:52.001Z</time></trkpt><trkpt lat="44.77943944146243" lon="0.9314257461820312"><ele>223.0</ele><time>2026-05-01T14:24:53.001Z</time></trkpt><trkpt lat="44.779291493314744" lon="0.9313921797987764"><ele>223.0</ele><time>2026-05-01T14:24:54Z</time></trkpt><trkpt lat="44.77914211111576" lon="0.9313446343277365"><ele>223.0</ele><time>2026-05-01T14:24:55Z</time></trkpt><trkpt lat="44.77899990348497" lon="0.9312846232187328"><ele>222.75</ele><time>2026-05-01T14:24:56Z</time></trkpt><trkpt lat="44.77886995513093" lon="0.9312024314018628"><ele>222.5</ele><time>2026-05-01T14:24:57Z</time></trkpt><trkpt lat="44.77873679179747" lon="0.9311365133144197"><ele>222.25</ele><time>2026-05-01T14:24:58Z</time></trkpt><trkpt lat="44.77859652318481" lon="0.9310595686579534"><ele>222.0</ele><time>2026-05-01T14:24:59Z</time></trkpt><trkpt lat="44.77845149628689" lon="0.9310320806959625"><ele>222.0</ele><time>2026-05-01T14:25:00Z</time></trkpt><trkpt lat="44.77827127135099" lon="0.9309749416671725"><ele>222.0</ele><time>2026-05-01T14:25:01Z</time></trkpt><trkpt lat="44.7780949699096" lon="0.9309015099934821"><ele>222.0</ele><time>2026-05-01T14:25:02Z</time></trkpt><trkpt lat="44.77792277545536" lon="0.9308198920210475"><ele>222.0</ele><time>2026-05-01T14:25:03Z</time></trkpt><trkpt lat="44.77774402111301" lon="0.9307591085976041"><ele>222.0</ele><time>2026-05-01T14:25:04Z</time></trkpt><trkpt lat="44.777590186885526" lon="0.9306359769286232"><ele>222.0</ele><time>2026-05-01T14:25:05Z</time></trkpt><trkpt lat="44.77742467191577" lon="0.9305575058038054"><ele>223.0</ele><time>2026-05-01T14:25:06Z</time></trkpt><trkpt lat="44.777243061143466" lon="0.9304737197707762"><ele>224.0</ele><time>2026-05-01T14:25:07Z</time></trkpt><trkpt lat="44.77707604692936" lon="0.9304023422664351"><ele>225.0</ele><time>2026-05-01T14:25:08Z</time></trkpt><trkpt lat="44.77688778036352" lon="0.9303306991705158"><ele>225.0</ele><time>2026-05-01T14:25:09Z</time></trkpt><trkpt lat="44.776711838038985" lon="0.9302733901712559"><ele>225.0</ele><time>2026-05-01T14:25:10Z</time></trkpt><trkpt lat="44.77654291364355" lon="0.9302186218764783"><ele>225.0</ele><time>2026-05-01T14:25:11Z</time></trkpt><trkpt lat="44.7763810485111" lon="0.9301623232959956"><ele>225.0</ele><time>2026-05-01T14:25:12Z</time></trkpt><trkpt lat="44.77621437468517" lon="0.9301054077364841"><ele>225.0</ele><time>2026-05-01T14:25:13Z</time></trkpt><trkpt lat="44.77604957368038" lon="0.9300519624479681"><ele>225.0</ele><time>2026-05-01T14:25:14Z</time></trkpt><trkpt lat="44.77589697517421" lon="0.930003554121192"><ele>225.66666666666669</ele><time>2026-05-01T14:25:15Z</time></trkpt><trkpt lat="44.77573452389532" lon="0.9299545648685229"><ele>226.33333333333334</ele><time>2026-05-01T14:25:16Z</time></trkpt><trkpt lat="44.77556490420604" lon="0.929913511476913"><ele>227.0</ele><time>2026-05-01T14:25:17Z</time></trkpt><trkpt lat="44.77539897989785" lon="0.9298763100089469"><ele>227.0</ele><time>2026-05-01T14:25:18Z</time></trkpt><trkpt lat="44.77524846074177" lon="0.9298432230989087"><ele>227.0</ele><time>2026-05-01T14:25:19Z</time></trkpt><trkpt lat="44.77510664912614" lon="0.9298097503582399"><ele>227.0</ele><time>2026-05-01T14:25:20Z</time></trkpt><trkpt lat="44.77495417365146" lon="0.9297574893194522"><ele>227.5</ele><time>2026-05-01T14:25:21Z</time></trkpt><trkpt lat="44.77481735971688" lon="0.9297061177445961"><ele>228.0</ele><time>2026-05-01T14:25:22Z</time></trkpt><trkpt lat="44.77468646950549" lon="0.9296540511227891"><ele>228.5</ele><time>2026-05-01T14:25:23Z</time></trkpt><trkpt lat="44.77453990307193" lon="0.9295766649297539"><ele>229.0</ele><time>2026-05-01T14:25:24Z</time></trkpt><trkpt lat="44.774392861677676" lon="0.9294594483677648"><ele>229.33333333333331</ele><time>2026-05-01T14:25:25Z</time></trkpt><trkpt lat="44.77425006463467" lon="0.9293341158580279"><ele>229.66666666666669</ele><time>2026-05-01T14:25:26Z</time></trkpt><trkpt lat="44.77410481683729" lon="0.9292026070599888"><ele>230.0</ele><time>2026-05-01T14:25:27Z</time></trkpt><trkpt lat="44.77396898809267" lon="0.9291006705635005"><ele>228.75</ele><time>2026-05-01T14:25:28Z</time></trkpt><trkpt lat="44.77383602073838" lon="0.9289968021854315"><ele>227.5</ele><time>2026-05-01T14:25:29Z</time></trkpt><trkpt lat="44.77373229982609" lon="0.9289364433269007"><ele>226.25</ele><time>2026-05-01T14:25:30Z</time></trkpt><trkpt lat="44.77362060727437" lon="0.9288910026763513"><ele>225.0</ele><time>2026-05-01T14:25:31Z</time></trkpt><trkpt lat="44.773522696673346" lon="0.9288444778173893"><ele>225.16666666666666</ele><time>2026-05-01T14:25:32Z</time></trkpt><trkpt lat="44.773440571494895" lon="0.9288114981184163"><ele>225.33333333333331</ele><time>2026-05-01T14:25:33Z</time></trkpt><trkpt lat="44.77337931122025" lon="0.9287904051929838"><ele>225.5</ele><time>2026-05-01T14:25:34Z</time></trkpt><trkpt lat="44.77331498953179" lon="0.9287480475991156"><ele>225.66666666666666</ele><time>2026-05-01T14:25:49Z</time></trkpt><trkpt lat="44.77323839287307" lon="0.9287255084796031"><ele>225.83333333333331</ele><time>2026-05-01T14:25:52Z</time></trkpt><trkpt lat="44.7731141986934" lon="0.9286886862826175"><ele>226.0</ele><time>2026-05-01T14:25:54Z</time></trkpt><trkpt lat="44.77305033223513" lon="0.9286337058348255"><ele>226.0</ele><time>2026-05-01T14:25:56Z</time></trkpt><trkpt lat="44.7729404717299" lon="0.928588601353594"><ele>226.0</ele><time>2026-05-01T14:25:58Z</time></trkpt><trkpt lat="44.772837836593666" lon="0.9285994277669075"><ele>226.0</ele><time>2026-05-01T14:26:00Z</time></trkpt><trkpt lat="44.772907733547" lon="0.9280022496837298"><ele>225.4</ele><time>2026-05-01T14:26:01Z</time></trkpt><trkpt lat="44.772893777950244" lon="0.9278960832297434"><ele>224.8</ele><time>2026-05-01T14:26:02Z</time></trkpt><trkpt lat="44.77286868398614" lon="0.9277935430227878"><ele>224.20000000000002</ele><time>2026-05-01T14:26:03Z</time></trkpt><trkpt lat="44.77281862761922" lon="0.9276828995791744"><ele>223.60000000000002</ele><time>2026-05-01T14:26:04Z</time></trkpt><trkpt lat="44.77276760490204" lon="0.9275640001686148"><ele>223.0</ele><time>2026-05-01T14:26:05Z</time></trkpt><trkpt lat="44.77272342331371" lon="0.92743011341419"><ele>223.16666666666666</ele><time>2026-05-01T14:26:06Z</time></trkpt><trkpt lat="44.77269133016641" lon="0.9273227551158649"><ele>223.33333333333331</ele><time>2026-05-01T14:26:07Z</time></trkpt><trkpt lat="44.77264911124186" lon="0.9272171081298705"><ele>223.5</ele><time>2026-05-01T14:26:08Z</time></trkpt><trkpt lat="44.77261469084799" lon="0.927109576229708"><ele>223.66666666666669</ele><time>2026-05-01T14:26:09Z</time></trkpt><trkpt lat="44.77258988470747" lon="0.9270034836503617"><ele>223.83333333333334</ele><time>2026-05-01T14:26:10Z</time></trkpt><trkpt lat="44.77255697405082" lon="0.9269228262435515"><ele>224.0</ele><time>2026-05-01T14:26:11Z</time></trkpt><trkpt lat="44.772498915770434" lon="0.9267827394726733"><ele>223.2</ele><time>2026-05-01T14:26:13Z</time></trkpt><trkpt lat="44.772481587523345" lon="0.9266605132572613"><ele>222.39999999999998</ele><time>2026-05-01T14:26:15Z</time></trkpt><trkpt lat="44.772412637574085" lon="0.9265333269116941"><ele>221.6</ele><time>2026-05-01T14:26:17Z</time></trkpt><trkpt lat="44.772374907023874" lon="0.9264477161043047"><ele>220.8</ele><time>2026-05-01T14:26:18Z</time></trkpt><trkpt lat="44.772319677246905" lon="0.9263403119248049"><ele>220.0</ele><time>2026-05-01T14:26:21Z</time></trkpt><trkpt lat="44.77231463905713" lon="0.9262023763106274"><ele>219.99999999999997</ele><time>2026-05-01T14:26:22Z</time></trkpt><trkpt lat="44.772265263581794" lon="0.926071101226101"><ele>220.0</ele><time>2026-05-01T14:26:24Z</time></trkpt><trkpt lat="44.77220323314624" lon="0.9260354773939574"><ele>220.0</ele><time>2026-05-01T14:26:25Z</time></trkpt><trkpt lat="44.77216899455739" lon="0.9259472071578037"><ele>220.0</ele><time>2026-05-01T14:26:26Z</time></trkpt><trkpt lat="44.77213210426257" lon="0.9258541662681665"><ele>219.99999999999997</ele><time>2026-05-01T14:26:27Z</time></trkpt><trkpt lat="44.77207114309056" lon="0.9257199582469392"><ele>220.0</ele><time>2026-05-01T14:26:29Z</time></trkpt><trkpt lat="44.77203299038204" lon="0.9255718897078395"><ele>219.7142857142857</ele><time>2026-05-01T14:26:31Z</time></trkpt><trkpt lat="44.77198755777467" lon="0.9254679494589568"><ele>219.42857142857142</ele><time>2026-05-01T14:26:32Z</time></trkpt><trkpt lat="44.771950315548175" lon="0.9253624540284237"><ele>219.14285714285714</ele><time>2026-05-01T14:26:34Z</time></trkpt><trkpt lat="44.771913283960075" lon="0.9252853430700231"><ele>218.85714285714283</ele><time>2026-05-01T14:26:37Z</time></trkpt><trkpt lat="44.77188219693662" lon="0.9252074059876293"><ele>218.57142857142858</ele><time>2026-05-01T14:26:39Z</time></trkpt><trkpt lat="44.7718487859238" lon="0.9251189327318902"><ele>218.28571428571428</ele><time>2026-05-01T14:26:42Z</time></trkpt><trkpt lat="44.77184648825041" lon="0.9250167875885684"><ele>218.0</ele><time>2026-05-01T14:26:47Z</time></trkpt><trkpt lat="44.7718581866578" lon="0.9248845224740548"><ele>217.8</ele><time>2026-05-01T14:26:51Z</time></trkpt><trkpt lat="44.77185148653997" lon="0.9247755481733274"><ele>217.60000000000002</ele><time>2026-05-01T14:27:06Z</time></trkpt><trkpt lat="44.771855379786516" lon="0.9246144761461078"><ele>217.39999999999998</ele><time>2026-05-01T14:27:08Z</time></trkpt><trkpt lat="44.77186025502437" lon="0.9245214077069404"><ele>217.2</ele><time>2026-05-01T14:27:09Z</time></trkpt><trkpt lat="44.771877242804365" lon="0.9243287840085572"><ele>217.0</ele><time>2026-05-01T14:27:11Z</time></trkpt><trkpt lat="44.77189044261277" lon="0.9241917782121557"><ele>216.33333333333331</ele><time>2026-05-01T14:27:12Z</time></trkpt><trkpt lat="44.7719031338707" lon="0.9240509995108734"><ele>215.66666666666666</ele><time>2026-05-01T14:27:13Z</time></trkpt><trkpt lat="44.77191139513594" lon="0.9239105416483888"><ele>215.0</ele><time>2026-05-01T14:27:14Z</time></trkpt><trkpt lat="44.77191302083066" lon="0.9238005103361489"><ele>214.33333333333331</ele><time>2026-05-01T14:27:15Z</time></trkpt><trkpt lat="44.771912024545685" lon="0.9236915742074352"><ele>213.66666666666666</ele><time>2026-05-01T14:27:16Z</time></trkpt><trkpt lat="44.77191657156628" lon="0.9235721965736442"><ele>213.0</ele><time>2026-05-01T14:27:17Z</time></trkpt><trkpt lat="44.77192588002783" lon="0.9234642729321427"><ele>212.0</ele><time>2026-05-01T14:27:18Z</time></trkpt><trkpt lat="44.771932982956486" lon="0.9233323598000246"><ele>211.0</ele><time>2026-05-01T14:27:19Z</time></trkpt><trkpt lat="44.77193598370676" lon="0.92319712439551"><ele>210.0</ele><time>2026-05-01T14:27:20Z</time></trkpt><trkpt lat="44.7719285349697" lon="0.9230507986781048"><ele>209.0</ele><time>2026-05-01T14:27:21Z</time></trkpt><trkpt lat="44.77193059254066" lon="0.9229044691049331"><ele>208.0</ele><time>2026-05-01T14:27:22Z</time></trkpt><trkpt lat="44.77191942411569" lon="0.9227757477045808"><ele>208.0</ele><time>2026-05-01T14:27:23Z</time></trkpt><trkpt lat="44.77191629061873" lon="0.9226493862438143"><ele>208.0</ele><time>2026-05-01T14:27:24Z</time></trkpt><trkpt lat="44.77191121395256" lon="0.9225386011728411"><ele>208.0</ele><time>2026-05-01T14:27:25Z</time></trkpt><trkpt lat="44.771902257282626" lon="0.9224053857674376"><ele>208.0</ele><time>2026-05-01T14:27:26Z</time></trkpt><trkpt lat="44.771894655220194" lon="0.9222797307324061"><ele>208.0</ele><time>2026-05-01T14:27:27Z</time></trkpt><trkpt lat="44.77189751593896" lon="0.9221318634312716"><ele>207.4</ele><time>2026-05-01T14:27:28Z</time></trkpt><trkpt lat="44.77190157262696" lon="0.9219828700548001"><ele>206.8</ele><time>2026-05-01T14:27:29Z</time></trkpt><trkpt lat="44.77189724740148" lon="0.921827175898965"><ele>206.2</ele><time>2026-05-01T14:27:30Z</time></trkpt><trkpt lat="44.77188930817536" lon="0.9216809502568942"><ele>205.6</ele><time>2026-05-01T14:27:31Z</time></trkpt><trkpt lat="44.77186990008001" lon="0.9215203062689852"><ele>205.0</ele><time>2026-05-01T14:27:32Z</time></trkpt><trkpt lat="44.77185088692307" lon="0.9213538551810949"><ele>205.0</ele><time>2026-05-01T14:27:33Z</time></trkpt><trkpt lat="44.77183046503198" lon="0.9211821086418244"><ele>205.0</ele><time>2026-05-01T14:27:34Z</time></trkpt><trkpt lat="44.771801255846796" lon="0.9210082883419867"><ele>205.0</ele><time>2026-05-01T14:27:35Z</time></trkpt><trkpt lat="44.77177392577859" lon="0.9208425645878655"><ele>205.0</ele><time>2026-05-01T14:27:36Z</time></trkpt><trkpt lat="44.77174120630023" lon="0.92067495971842"><ele>204.25</ele><time>2026-05-01T14:27:37Z</time></trkpt><trkpt lat="44.77170367064063" lon="0.9205239280969206"><ele>203.5</ele><time>2026-05-01T14:27:38Z</time></trkpt><trkpt lat="44.77166781702977" lon="0.9203796915356998"><ele>202.75</ele><time>2026-05-01T14:27:39Z</time></trkpt><trkpt lat="44.7716378487723" lon="0.9202276382301491"><ele>202.0</ele><time>2026-05-01T14:27:40Z</time></trkpt><trkpt lat="44.77164654703996" lon="0.920051239662757"><ele>201.0</ele><time>2026-05-01T14:27:41Z</time></trkpt><trkpt lat="44.77164291660974" lon="0.9198782750790634"><ele>200.0</ele><time>2026-05-01T14:27:42Z</time></trkpt><trkpt lat="44.77169138703001" lon="0.9197159710638669"><ele>199.0</ele><time>2026-05-01T14:27:43Z</time></trkpt><trkpt lat="44.771720939247174" lon="0.9195402621569932"><ele>198.0</ele><time>2026-05-01T14:27:44Z</time></trkpt><trkpt lat="44.77175854034941" lon="0.9193848121566804"><ele>197.0</ele><time>2026-05-01T14:27:45Z</time></trkpt><trkpt lat="44.77178961960845" lon="0.9192113150302933"><ele>196.0</ele><time>2026-05-01T14:27:46Z</time></trkpt><trkpt lat="44.771771221942565" lon="0.919041304900848"><ele>195.0</ele><time>2026-05-01T14:27:47Z</time></trkpt><trkpt lat="44.77175896284248" lon="0.9188689850083643"><ele>194.0</ele><time>2026-05-01T14:27:48Z</time></trkpt><trkpt lat="44.771751079594225" lon="0.9187051750889833"><ele>194.0</ele><time>2026-05-01T14:27:49Z</time></trkpt><trkpt lat="44.77175140750525" lon="0.918555594585818"><ele>194.0</ele><time>2026-05-01T14:27:50Z</time></trkpt><trkpt lat="44.77175287066802" lon="0.9184423527534875"><ele>194.0</ele><time>2026-05-01T14:27:51Z</time></trkpt><trkpt lat="44.77176482838561" lon="0.9183430488386295"><ele>194.0</ele><time>2026-05-01T14:27:52Z</time></trkpt><trkpt lat="44.77176254864834" lon="0.9182408207741288"><ele>194.0</ele><time>2026-05-01T14:27:54Z</time></trkpt><trkpt lat="44.771613744392205" lon="0.9182084522648642"><ele>193.16666666666669</ele><time>2026-05-01T14:27:58Z</time></trkpt><trkpt lat="44.771531599432" lon="0.9181947242427236"><ele>192.33333333333334</ele><time>2026-05-01T14:28:00Z</time></trkpt><trkpt lat="44.77143313343194" lon="0.9181929293682715"><ele>191.5</ele><time>2026-05-01T14:28:02Z</time></trkpt><trkpt lat="44.771370007962524" lon="0.9181818637832537"><ele>190.66666666666669</ele><time>2026-05-01T14:28:03Z</time></trkpt><trkpt lat="44.771302632225805" lon="0.9181683631671889"><ele>189.83333333333334</ele><time>2026-05-01T14:28:04Z</time></trkpt><trkpt lat="44.77122711385392" lon="0.9181551997822527"><ele>189.0</ele><time>2026-05-01T14:28:05Z</time></trkpt><trkpt lat="44.7711411621462" lon="0.918145617374837"><ele>189.0</ele><time>2026-05-01T14:28:06Z</time></trkpt><trkpt lat="44.77105406031114" lon="0.9181254219471372"><ele>189.0</ele><time>2026-05-01T14:28:07Z</time></trkpt><trkpt lat="44.770957644465945" lon="0.9181111592065591"><ele>189.0</ele><time>2026-05-01T14:28:08Z</time></trkpt><trkpt lat="44.77085638462651" lon="0.9180892355719008"><ele>189.0</ele><time>2026-05-01T14:28:09Z</time></trkpt><trkpt lat="44.77074547560306" lon="0.9180749770297822"><ele>189.0</ele><time>2026-05-01T14:28:10Z</time></trkpt><trkpt lat="44.77063412088123" lon="0.918058329968841"><ele>191.5</ele><time>2026-05-01T14:28:11Z</time></trkpt><trkpt lat="44.770521859145866" lon="0.9180365415834172"><ele>194.0</ele><time>2026-05-01T14:28:12Z</time></trkpt><trkpt lat="44.77039746611091" lon="0.9180201847316529"><ele>196.5</ele><time>2026-05-01T14:28:13Z</time></trkpt><trkpt lat="44.770277781532265" lon="0.9180049347211164"><ele>199.0</ele><time>2026-05-01T14:28:14Z</time></trkpt><trkpt lat="44.770148248210575" lon="0.9179848941766142"><ele>200.0</ele><time>2026-05-01T14:28:15Z</time></trkpt><trkpt lat="44.77002550176424" lon="0.9179545716966879"><ele>201.0</ele><time>2026-05-01T14:28:16Z</time></trkpt><trkpt lat="44.769893515311885" lon="0.917939319165795"><ele>202.0</ele><time>2026-05-01T14:28:17Z</time></trkpt><trkpt lat="44.76976917710759" lon="0.91792168084168"><ele>203.0</ele><time>2026-05-01T14:28:18Z</time></trkpt><trkpt lat="44.76963940391728" lon="0.9179043933614156"><ele>203.0</ele><time>2026-05-01T14:28:19Z</time></trkpt><trkpt lat="44.7695043197975" lon="0.9178859330012349"><ele>203.0</ele><time>2026-05-01T14:28:20Z</time></trkpt><trkpt lat="44.76937169727068" lon="0.91786964073428"><ele>203.0</ele><time>2026-05-01T14:28:21Z</time></trkpt><trkpt lat="44.76924997640802" lon="0.9178690717784794"><ele>203.0</ele><time>2026-05-01T14:28:22Z</time></trkpt><trkpt lat="44.769129675236066" lon="0.9178677655219795"><ele>204.00000000000003</ele><time>2026-05-01T14:28:23Z</time></trkpt><trkpt lat="44.76902509810689" lon="0.9178459095908366"><ele>205.0</ele><time>2026-05-01T14:28:24Z</time></trkpt><trkpt lat="44.7689415691109" lon="0.9178435474057189"><ele>206.0</ele><time>2026-05-01T14:28:25Z</time></trkpt><trkpt lat="44.76887259891418" lon="0.9178415969617577"><ele>207.0</ele><time>2026-05-01T14:28:26Z</time></trkpt><trkpt lat="44.768806772530986" lon="0.9178397354179259"><ele>208.00000000000003</ele><time>2026-05-01T14:28:27Z</time></trkpt><trkpt lat="44.768757805793165" lon="0.9177437949063378"><ele>209.0</ele><time>2026-05-01T14:28:41Z</time></trkpt><trkpt lat="44.76875942794603" lon="0.9176487443919541"><ele>208.39999999999998</ele><time>2026-05-01T14:28:42Z</time></trkpt><trkpt lat="44.76876899022028" lon="0.9175453045558958"><ele>207.8</ele><time>2026-05-01T14:28:43Z</time></trkpt><trkpt lat="44.76877234604606" lon="0.9174220268083206"><ele>207.2</ele><time>2026-05-01T14:28:44Z</time></trkpt><trkpt lat="44.76878290100653" lon="0.9172988748385206"><ele>206.60000000000002</ele><time>2026-05-01T14:28:45Z</time></trkpt><trkpt lat="44.76878354799245" lon="0.9171563294772196"><ele>206.0</ele><time>2026-05-01T14:28:46Z</time></trkpt><trkpt lat="44.768810530851944" lon="0.9169704032244271"><ele>206.0</ele><time>2026-05-01T14:28:47Z</time></trkpt><trkpt lat="44.76883651415339" lon="0.9168357163725822"><ele>206.0</ele><time>2026-05-01T14:28:48Z</time></trkpt><trkpt lat="44.76885630667979" lon="0.9166749139492401"><ele>206.0</ele><time>2026-05-01T14:28:49Z</time></trkpt><trkpt lat="44.76887332491536" lon="0.9165227833996922"><ele>206.0</ele><time>2026-05-01T14:28:50Z</time></trkpt><trkpt lat="44.76888236107438" lon="0.916346913270688"><ele>206.0</ele><time>2026-05-01T14:28:51Z</time></trkpt><trkpt lat="44.76888137191635" lon="0.9161913528944069"><ele>205.5</ele><time>2026-05-01T14:28:52Z</time></trkpt><trkpt lat="44.76889409111504" lon="0.9160121518438145"><ele>205.0</ele><time>2026-05-01T14:28:53Z</time></trkpt><trkpt lat="44.76889754150163" lon="0.9158473556997636"><ele>204.5</ele><time>2026-05-01T14:28:54Z</time></trkpt><trkpt lat="44.76891415605828" lon="0.9156588706792013"><ele>204.0</ele><time>2026-05-01T14:28:55Z</time></trkpt><trkpt lat="44.76892958521895" lon="0.9155082205872527"><ele>204.0</ele><time>2026-05-01T14:28:56Z</time></trkpt><trkpt lat="44.76894111077617" lon="0.9153523839412916"><ele>204.0</ele><time>2026-05-01T14:28:57Z</time></trkpt><trkpt lat="44.76894064900767" lon="0.9151866580704834"><ele>204.0</ele><time>2026-05-01T14:28:58Z</time></trkpt><trkpt lat="44.76893906401482" lon="0.9150318365972062"><ele>204.0</ele><time>2026-05-01T14:28:59Z</time></trkpt><trkpt lat="44.76893519126096" lon="0.9148667178544945"><ele>204.0</ele><time>2026-05-01T14:29:00Z</time></trkpt><trkpt lat="44.76891696781963" lon="0.9147108340632293"><ele>204.0</ele><time>2026-05-01T14:29:01Z</time></trkpt><trkpt lat="44.768879311519385" lon="0.9144998980792424"><ele>204.0</ele><time>2026-05-01T14:29:02Z</time></trkpt><trkpt lat="44.76886585548835" lon="0.9143462767144802"><ele>204.0</ele><time>2026-05-01T14:29:03Z</time></trkpt><trkpt lat="44.76885931908575" lon="0.9141928623795016"><ele>204.79999999999998</ele><time>2026-05-01T14:29:04Z</time></trkpt><trkpt lat="44.768858924321734" lon="0.9140683351207688"><ele>205.6</ele><time>2026-05-01T14:29:05Z</time></trkpt><trkpt lat="44.76886840407581" lon="0.9139573273568803"><ele>206.4</ele><time>2026-05-01T14:29:06Z</time></trkpt><trkpt lat="44.768879381079394" lon="0.9138186120721956"><ele>207.2</ele><time>2026-05-01T14:29:07Z</time></trkpt><trkpt lat="44.768911208925104" lon="0.9136834001143614"><ele>208.0</ele><time>2026-05-01T14:29:08Z</time></trkpt><trkpt lat="44.76894845388743" lon="0.9135685241529244"><ele>207.99999999999997</ele><time>2026-05-01T14:29:09Z</time></trkpt><trkpt lat="44.76896362538038" lon="0.9134732184962847"><ele>208.0</ele><time>2026-05-01T14:29:10Z</time></trkpt><trkpt lat="44.76894089462394" lon="0.9133431375926028"><ele>208.0</ele><time>2026-05-01T14:29:11Z</time></trkpt><trkpt lat="44.768940905418084" lon="0.9132084839445515"><ele>208.0</ele><time>2026-05-01T14:29:12Z</time></trkpt><trkpt lat="44.76894835698294" lon="0.9131014258124264"><ele>207.99999999999997</ele><time>2026-05-01T14:29:13Z</time></trkpt><trkpt lat="44.76895402096501" lon="0.9129484201992679"><ele>208.0</ele><time>2026-05-01T14:29:14Z</time></trkpt><trkpt lat="44.76895786884324" lon="0.9127986118611235"><ele>209.60000000000002</ele><time>2026-05-01T14:29:15Z</time></trkpt><trkpt lat="44.768953899913825" lon="0.9126532909971377"><ele>211.20000000000002</ele><time>2026-05-01T14:29:16Z</time></trkpt><trkpt lat="44.76895334770267" lon="0.9124993277075345"><ele>212.8</ele><time>2026-05-01T14:29:17Z</time></trkpt><trkpt lat="44.76894121290402" lon="0.9123528342729917"><ele>214.4</ele><time>2026-05-01T14:29:18Z</time></trkpt><trkpt lat="44.768938691737475" lon="0.9121924919515794"><ele>216.0</ele><time>2026-05-01T14:29:19Z</time></trkpt><trkpt lat="44.76894794634767" lon="0.912003646685912"><ele>216.5</ele><time>2026-05-01T14:29:20Z</time></trkpt><trkpt lat="44.76894784871626" lon="0.9118437020018281"><ele>217.0</ele><time>2026-05-01T14:29:21Z</time></trkpt><trkpt lat="44.76895212431959" lon="0.9117279043296175"><ele>217.5</ele><time>2026-05-01T14:29:22Z</time></trkpt><trkpt lat="44.76894803534842" lon="0.9116258119242715"><ele>218.0</ele><time>2026-05-01T14:29:23Z</time></trkpt><trkpt lat="44.768944201757414" lon="0.9115237074534984"><ele>218.5</ele><time>2026-05-01T14:29:24Z</time></trkpt><trkpt lat="44.76893067483152" lon="0.9114187067337708"><ele>219.0</ele><time>2026-05-01T14:29:25Z</time></trkpt><trkpt lat="44.768889314744115" lon="0.911314046953967"><ele>219.0</ele><time>2026-05-01T14:29:26Z</time></trkpt><trkpt lat="44.768832387350855" lon="0.9112279649078284"><ele>219.0</ele><time>2026-05-01T14:29:27Z</time></trkpt><trkpt lat="44.76879904144889" lon="0.91112616929297"><ele>219.0</ele><time>2026-05-01T14:29:28Z</time></trkpt><trkpt lat="44.768762970375256" lon="0.9110145938548572"><ele>219.0</ele><time>2026-05-01T14:29:29Z</time></trkpt><trkpt lat="44.768732047447614" lon="0.9109208439947778"><ele>219.0</ele><time>2026-05-01T14:29:30Z</time></trkpt><trkpt lat="44.76866440694825" lon="0.9108406941692316"><ele>219.0</ele><time>2026-05-01T14:29:31Z</time></trkpt><trkpt lat="44.76857677625651" lon="0.9107233627775867"><ele>218.66666666666666</ele><time>2026-05-01T14:29:33Z</time></trkpt><trkpt lat="44.76853305847762" lon="0.9106529940572606"><ele>218.33333333333331</ele><time>2026-05-01T14:29:34Z</time></trkpt><trkpt lat="44.76846486922646" lon="0.9105924596558478"><ele>218.0</ele><time>2026-05-01T14:29:36Z</time></trkpt><trkpt lat="44.76847503533327" lon="0.9104475559183074"><ele>217.66666666666666</ele><time>2026-05-01T14:29:38Z</time></trkpt><trkpt lat="44.76846043951401" lon="0.9103515764654189"><ele>217.33333333333331</ele><time>2026-05-01T14:29:39Z</time></trkpt><trkpt lat="44.76845690070187" lon="0.9102607584089146"><ele>217.0</ele><time>2026-05-01T14:29:40Z</time></trkpt><trkpt lat="44.768457184748904" lon="0.9101635881039172"><ele>215.16666666666666</ele><time>2026-05-01T14:29:41Z</time></trkpt><trkpt lat="44.76844416399637" lon="0.9100530777420597"><ele>213.33333333333331</ele><time>2026-05-01T14:29:42Z</time></trkpt><trkpt lat="44.76840354850661" lon="0.909955739010977"><ele>211.5</ele><time>2026-05-01T14:29:43Z</time></trkpt><trkpt lat="44.76838627389642" lon="0.9098374682229005"><ele>209.66666666666669</ele><time>2026-05-01T14:29:44Z</time></trkpt><trkpt lat="44.7683770346111" lon="0.9096895787632074"><ele>207.83333333333334</ele><time>2026-05-01T14:29:45Z</time></trkpt><trkpt lat="44.76837854312377" lon="0.9095532943947522"><ele>206.0</ele><time>2026-05-01T14:29:46Z</time></trkpt><trkpt lat="44.76838513784935" lon="0.909451682543106"><ele>206.00000000000003</ele><time>2026-05-01T14:29:47Z</time></trkpt><trkpt lat="44.76838967983607" lon="0.909340463257859"><ele>206.0</ele><time>2026-05-01T14:29:48Z</time></trkpt><trkpt lat="44.768420133978616" lon="0.909238880245908"><ele>206.0</ele><time>2026-05-01T14:29:50Z</time></trkpt><trkpt lat="44.76851867467715" lon="0.9091609058025393"><ele>206.0</ele><time>2026-05-01T14:29:52Z</time></trkpt><trkpt lat="44.76858356603557" lon="0.9090957935420287"><ele>206.00000000000003</ele><time>2026-05-01T14:29:53Z</time></trkpt><trkpt lat="44.768638080587344" lon="0.9090460810305866"><ele>206.0</ele><time>2026-05-01T14:29:54Z</time></trkpt><trkpt lat="44.768730966396014" lon="0.9090471129097636"><ele>205.8</ele><time>2026-05-01T14:29:56Z</time></trkpt><trkpt lat="44.76883461676048" lon="0.9090587850948473"><ele>205.60000000000002</ele><time>2026-05-01T14:29:58Z</time></trkpt><trkpt lat="44.768949809157235" lon="0.9091231482586608"><ele>205.4</ele><time>2026-05-01T14:30:00Z</time></trkpt><trkpt lat="44.76901578938373" lon="0.9091284254316606"><ele>205.2</ele><time>2026-05-01T14:30:01Z</time></trkpt><trkpt lat="44.76911574975026" lon="0.9091308610207299"><ele>205.0</ele><time>2026-05-01T14:30:03Z</time></trkpt><trkpt lat="44.769242316131724" lon="0.9091620133691385"><ele>204.0</ele><time>2026-05-01T14:30:05Z</time></trkpt><trkpt lat="44.76936283814233" lon="0.9092266875151978"><ele>203.0</ele><time>2026-05-01T14:30:07Z</time></trkpt><trkpt lat="44.76945355426882" lon="0.909252537855649"><ele>202.0</ele><time>2026-05-01T14:30:09Z</time></trkpt><trkpt lat="44.76957194976751" lon="0.9092673505124359"><ele>201.0</ele><time>2026-05-01T14:30:11Z</time></trkpt><trkpt lat="44.76973157599043" lon="0.9092651160440433"><ele>201.0</ele><time>2026-05-01T14:30:13Z</time></trkpt><trkpt lat="44.769825680158995" lon="0.9092457425030844"><ele>201.0</ele><time>2026-05-01T14:30:14Z</time></trkpt><trkpt lat="44.76990683163774" lon="0.9092338035408152"><ele>201.0</ele><time>2026-05-01T14:30:15Z</time></trkpt><trkpt lat="44.77000516933399" lon="0.9092437570400254"><ele>201.0</ele><time>2026-05-01T14:30:17Z</time></trkpt><trkpt lat="44.77009118590306" lon="0.9092741297548571"><ele>201.0</ele><time>2026-05-01T14:30:18Z</time></trkpt><trkpt lat="44.770185537087954" lon="0.9092948994162656"><ele>202.0</ele><time>2026-05-01T14:30:19Z</time></trkpt><trkpt lat="44.77027340325292" lon="0.9093022514209942"><ele>203.0</ele><time>2026-05-01T14:30:20Z</time></trkpt><trkpt lat="44.770353455867046" lon="0.9092734807907416"><ele>204.0</ele><time>2026-05-01T14:30:21Z</time></trkpt><trkpt lat="44.770449917258496" lon="0.9092931810699414"><ele>205.0</ele><time>2026-05-01T14:30:22Z</time></trkpt><trkpt lat="44.77055312465839" lon="0.9093397299367534"><ele>206.0</ele><time>2026-05-01T14:30:23Z</time></trkpt><trkpt lat="44.77062726529032" lon="0.9093743617682374"><ele>206.00000000000003</ele><time>2026-05-01T14:30:24Z</time></trkpt><trkpt lat="44.770708219072624" lon="0.9094068619806116"><ele>206.0</ele><time>2026-05-01T14:30:25Z</time></trkpt><trkpt lat="44.77079934689543" lon="0.9094516155145961"><ele>206.0</ele><time>2026-05-01T14:30:26Z</time></trkpt><trkpt lat="44.77086418511351" lon="0.9094895138130032"><ele>206.0</ele><time>2026-05-01T14:30:27Z</time></trkpt><trkpt lat="44.77093050232358" lon="0.9095124394703589"><ele>206.00000000000003</ele><time>2026-05-01T14:30:28Z</time></trkpt><trkpt lat="44.77099866814883" lon="0.9095399842681078"><ele>206.0</ele><time>2026-05-01T14:30:29Z</time></trkpt><trkpt lat="44.77106750340076" lon="0.909541537798983"><ele>204.16666666666669</ele><time>2026-05-01T14:30:30Z</time></trkpt><trkpt lat="44.771151305997286" lon="0.9095224530246433"><ele>202.33333333333334</ele><time>2026-05-01T14:30:31Z</time></trkpt><trkpt lat="44.77124078189715" lon="0.9095303520309052"><ele>200.5</ele><time>2026-05-01T14:30:32Z</time></trkpt><trkpt lat="44.771306420247576" lon="0.9095166583031262"><ele>198.66666666666669</ele><time>2026-05-01T14:30:33Z</time></trkpt><trkpt lat="44.77140042280151" lon="0.909510639290365"><ele>196.83333333333334</ele><time>2026-05-01T14:30:34Z</time></trkpt><trkpt lat="44.7714814645581" lon="0.9095214395320266"><ele>195.0</ele><time>2026-05-01T14:30:35Z</time></trkpt><trkpt lat="44.77156232983283" lon="0.909548156538586"><ele>195.0</ele><time>2026-05-01T14:30:36Z</time></trkpt><trkpt lat="44.77164068147863" lon="0.9095755598656028"><ele>195.0</ele><time>2026-05-01T14:30:37Z</time></trkpt><trkpt lat="44.77171296213318" lon="0.9095945491856072"><ele>195.0</ele><time>2026-05-01T14:30:38Z</time></trkpt><trkpt lat="44.77179002610195" lon="0.9095964340195324"><ele>195.0</ele><time>2026-05-01T14:30:39Z</time></trkpt><trkpt lat="44.77187790435687" lon="0.9096316153952134"><ele>195.0</ele><time>2026-05-01T14:30:40Z</time></trkpt><trkpt lat="44.77200525813595" lon="0.9096699476213327"><ele>193.66666666666666</ele><time>2026-05-01T14:30:42Z</time></trkpt><trkpt lat="44.77206747942581" lon="0.9096965227598287"><ele>192.33333333333334</ele><time>2026-05-01T14:30:43Z</time></trkpt><trkpt lat="44.77212195109438" lon="0.9097448403702706"><ele>191.0</ele><time>2026-05-01T14:30:44Z</time></trkpt><trkpt lat="44.77219890042598" lon="0.9097875194441772"><ele>189.66666666666669</ele><time>2026-05-01T14:30:45Z</time></trkpt><trkpt lat="44.77232226495043" lon="0.9098224765940404"><ele>188.33333333333334</ele><time>2026-05-01T14:30:47Z</time></trkpt><trkpt lat="44.772421200305445" lon="0.909814645225213"><ele>187.0</ele><time>2026-05-01T14:30:49Z</time></trkpt><trkpt lat="44.77251085425289" lon="0.9098623307003373"><ele>187.0</ele><time>2026-05-01T14:30:50Z</time></trkpt><trkpt lat="44.77262892818652" lon="0.9098642006340192"><ele>187.0</ele><time>2026-05-01T14:30:52Z</time></trkpt><trkpt lat="44.77271362403978" lon="0.9098361367457264"><ele>187.0</ele><time>2026-05-01T14:30:54Z</time></trkpt><trkpt lat="44.77279939893752" lon="0.909778974281193"><ele>187.0</ele><time>2026-05-01T14:30:56Z</time></trkpt><trkpt lat="44.772894637851586" lon="0.9097255679857075"><ele>187.0</ele><time>2026-05-01T14:30:58Z</time></trkpt><trkpt lat="44.77296629028935" lon="0.909683370184554"><ele>184.8</ele><time>2026-05-01T14:31:00Z</time></trkpt><trkpt lat="44.77303433030374" lon="0.9096556966537466"><ele>182.6</ele><time>2026-05-01T14:31:01Z</time></trkpt><trkpt lat="44.77312963706057" lon="0.9096150476349465"><ele>180.4</ele><time>2026-05-01T14:31:03Z</time></trkpt><trkpt lat="44.77322538011463" lon="0.9095875895368392"><ele>178.20000000000002</ele><time>2026-05-01T14:31:05Z</time></trkpt><trkpt lat="44.773323173676616" lon="0.9095449326215381"><ele>176.0</ele><time>2026-05-01T14:31:07Z</time></trkpt><trkpt lat="44.77340449681298" lon="0.9094724114518165"><ele>176.0</ele><time>2026-05-01T14:31:09Z</time></trkpt><trkpt lat="44.77346103702843" lon="0.9093876748558982"><ele>176.0</ele><time>2026-05-01T14:31:11Z</time></trkpt><trkpt lat="44.77354426697247" lon="0.9093270635283203"><ele>176.0</ele><time>2026-05-01T14:31:13Z</time></trkpt><trkpt lat="44.773612511633" lon="0.9092502734168716"><ele>176.0</ele><time>2026-05-01T14:31:15Z</time></trkpt><trkpt lat="44.77366940598827" lon="0.9091643641718056"><ele>176.0</ele><time>2026-05-01T14:31:17Z</time></trkpt><trkpt lat="44.77366530715728" lon="0.909066573606962"><ele>176.0</ele><time>2026-05-01T14:31:19Z</time></trkpt><trkpt lat="44.773704976562286" lon="0.9089760623521462"><ele>172.83333333333331</ele><time>2026-05-01T14:31:20Z</time></trkpt><trkpt lat="44.77375259806349" lon="0.9088613210617033"><ele>169.66666666666666</ele><time>2026-05-01T14:31:21Z</time></trkpt><trkpt lat="44.77380042239961" lon="0.9087773023877133"><ele>166.5</ele><time>2026-05-01T14:31:22Z</time></trkpt><trkpt lat="44.77384282858878" lon="0.9087060319417529"><ele>163.33333333333334</ele><time>2026-05-01T14:31:23Z</time></trkpt><trkpt lat="44.773890575783014" lon="0.908593431538282"><ele>160.16666666666669</ele><time>2026-05-01T14:31:25Z</time></trkpt><trkpt lat="44.77394265238524" lon="0.9084841155838429"><ele>157.0</ele><time>2026-05-01T14:31:27Z</time></trkpt><trkpt lat="44.77403013263147" lon="0.908358673279326"><ele>156.99999999999997</ele><time>2026-05-01T14:31:29Z</time></trkpt><trkpt lat="44.7740991209206" lon="0.9083039322216689"><ele>157.0</ele><time>2026-05-01T14:31:30Z</time></trkpt><trkpt lat="44.77417686677452" lon="0.9082753902338327"><ele>157.0</ele><time>2026-05-01T14:31:31Z</time></trkpt><trkpt lat="44.77423626852976" lon="0.9082375469417379"><ele>157.0</ele><time>2026-05-01T14:31:32Z</time></trkpt><trkpt lat="44.774299525447525" lon="0.9082187669006684"><ele>157.0</ele><time>2026-05-01T14:31:33Z</time></trkpt><trkpt lat="44.77437954864833" lon="0.908188867813441"><ele>156.99999999999997</ele><time>2026-05-01T14:31:35Z</time></trkpt><trkpt lat="44.77440936565126" lon="0.9081091081762869"><ele>157.0</ele><time>2026-05-01T14:31:43Z</time></trkpt><trkpt lat="44.77448024007326" lon="0.9079985704763643"><ele>158.83333333333334</ele><time>2026-05-01T14:31:45Z</time></trkpt><trkpt lat="44.77453419567975" lon="0.9079194953037306"><ele>160.66666666666669</ele><time>2026-05-01T14:31:46Z</time></trkpt><trkpt lat="44.7745869052349" lon="0.9078454211401928"><ele>162.5</ele><time>2026-05-01T14:31:47Z</time></trkpt><trkpt lat="44.77465106060187" lon="0.9077708913518027"><ele>164.33333333333334</ele><time>2026-05-01T14:31:48Z</time></trkpt><trkpt lat="44.77471697787468" lon="0.907721927265227"><ele>166.16666666666666</ele><time>2026-05-01T14:31:49Z</time></trkpt><trkpt lat="44.774789470054934" lon="0.9076746110939599"><ele>168.0</ele><time>2026-05-01T14:31:51Z</time></trkpt><trkpt lat="44.77485536685714" lon="0.9076119758616237"><ele>167.66666666666666</ele><time>2026-05-01T14:31:53Z</time></trkpt><trkpt lat="44.77495026029335" lon="0.9075260934358691"><ele>167.33333333333334</ele><time>2026-05-01T14:31:55Z</time></trkpt><trkpt lat="44.77502112886486" lon="0.9074664795430821"><ele>167.0</ele><time>2026-05-01T14:31:57Z</time></trkpt><trkpt lat="44.77508235028962" lon="0.9074139635358288"><ele>166.66666666666669</ele><time>2026-05-01T14:31:58Z</time></trkpt><trkpt lat="44.77516708986839" lon="0.9073688983072875"><ele>166.33333333333334</ele><time>2026-05-01T14:31:59Z</time></trkpt><trkpt lat="44.77523790034292" lon="0.9072913706607528"><ele>166.0</ele><time>2026-05-01T14:32:00Z</time></trkpt><trkpt lat="44.77530637468978" lon="0.9071967512840476"><ele>167.83333333333334</ele><time>2026-05-01T14:32:01Z</time></trkpt><trkpt lat="44.775364476853674" lon="0.9071238081650136"><ele>169.66666666666669</ele><time>2026-05-01T14:32:02Z</time></trkpt><trkpt lat="44.775443943627174" lon="0.9070806000791671"><ele>171.5</ele><time>2026-05-01T14:32:03Z</time></trkpt><trkpt lat="44.77552295336887" lon="0.9070706057724316"><ele>173.33333333333334</ele><time>2026-05-01T14:32:04Z</time></trkpt><trkpt lat="44.77560500781636" lon="0.9070354695218608"><ele>175.16666666666666</ele><time>2026-05-01T14:32:05Z</time></trkpt><trkpt lat="44.77567677543008" lon="0.9069838460755648"><ele>177.0</ele><time>2026-05-01T14:32:06Z</time></trkpt><trkpt lat="44.7757560101315" lon="0.9069176335889945"><ele>177.0</ele><time>2026-05-01T14:32:07Z</time></trkpt><trkpt lat="44.77582853969136" lon="0.9068727289394858"><ele>177.0</ele><time>2026-05-01T14:32:08Z</time></trkpt><trkpt lat="44.775886271059136" lon="0.906822590780417"><ele>177.0</ele><time>2026-05-01T14:32:09Z</time></trkpt><trkpt lat="44.77598407585414" lon="0.9067485323425256"><ele>177.0</ele><time>2026-05-01T14:32:11Z</time></trkpt><trkpt lat="44.77611367288935" lon="0.9067135979806086"><ele>177.0</ele><time>2026-05-01T14:32:13Z</time></trkpt><trkpt lat="44.776209367487425" lon="0.9066494956340884"><ele>178.6</ele><time>2026-05-01T14:32:15Z</time></trkpt><trkpt lat="44.77633478413091" lon="0.9065674734396101"><ele>180.2</ele><time>2026-05-01T14:32:17Z</time></trkpt><trkpt lat="44.77640854564272" lon="0.9065122726977273"><ele>181.8</ele><time>2026-05-01T14:32:18Z</time></trkpt><trkpt lat="44.776476378144956" lon="0.9064409280097463"><ele>183.4</ele><time>2026-05-01T14:32:19Z</time></trkpt><trkpt lat="44.77655555494293" lon="0.9064133559003664"><ele>185.0</ele><time>2026-05-01T14:32:20Z</time></trkpt><trkpt lat="44.776693289582155" lon="0.9064054431511734"><ele>185.0</ele><time>2026-05-01T14:32:22Z</time></trkpt><trkpt lat="44.7767777792988" lon="0.9064001535949945"><ele>185.0</ele><time>2026-05-01T14:32:23Z</time></trkpt><trkpt lat="44.776870953225256" lon="0.9063927116031217"><ele>185.0</ele><time>2026-05-01T14:32:24Z</time></trkpt><trkpt lat="44.77701775039493" lon="0.9063567524906215"><ele>185.0</ele><time>2026-05-01T14:32:26Z</time></trkpt><trkpt lat="44.77710326541329" lon="0.9063295282027777"><ele>185.0</ele><time>2026-05-01T14:32:27Z</time></trkpt><trkpt lat="44.777188814543074" lon="0.9063133991546888"><ele>186.0</ele><time>2026-05-01T14:32:28Z</time></trkpt><trkpt lat="44.77723827097902" lon="0.9062527906976832"><ele>187.0</ele><time>2026-05-01T14:32:30Z</time></trkpt><trkpt lat="44.777304127747804" lon="0.9062777749409784"><ele>188.0</ele><time>2026-05-01T14:32:31Z</time></trkpt><trkpt lat="44.77738610281352" lon="0.9063478849375135"><ele>189.0</ele><time>2026-05-01T14:32:33Z</time></trkpt><trkpt lat="44.77745576227252" lon="0.9063469374595824"><ele>190.0</ele><time>2026-05-01T14:32:34Z</time></trkpt><trkpt lat="44.777566521773224" lon="0.9063024109207"><ele>191.0</ele><time>2026-05-01T14:32:36Z</time></trkpt><trkpt lat="44.77764974086241" lon="0.9062463061974654"><ele>192.8</ele><time>2026-05-01T14:32:37Z</time></trkpt><trkpt lat="44.77771586654885" lon="0.9062177321510722"><ele>194.60000000000002</ele><time>2026-05-01T14:32:38Z</time></trkpt><trkpt lat="44.77779256772826" lon="0.9061138528483746"><ele>196.4</ele><time>2026-05-01T14:32:40Z</time></trkpt><trkpt lat="44.77789935702876" lon="0.9060650555957811"><ele>198.2</ele><time>2026-05-01T14:32:41Z</time></trkpt><trkpt lat="44.7779695836448" lon="0.90607110242857"><ele>200.0</ele><time>2026-05-01T14:32:42Z</time></trkpt><trkpt lat="44.77804489639831" lon="0.906224058091176"><ele>200.00000000000003</ele><time>2026-05-01T14:32:44Z</time></trkpt><trkpt lat="44.77812979786791" lon="0.906309214765458"><ele>200.0</ele><time>2026-05-01T14:32:46Z</time></trkpt><trkpt lat="44.77819690996178" lon="0.9063278249471555"><ele>200.0</ele><time>2026-05-01T14:32:47Z</time></trkpt><trkpt lat="44.77827801084818" lon="0.9063601139233591"><ele>200.0</ele><time>2026-05-01T14:32:48Z</time></trkpt><trkpt lat="44.77835956407654" lon="0.9063762524011004"><ele>200.00000000000003</ele><time>2026-05-01T14:32:49Z</time></trkpt><trkpt lat="44.77844706448762" lon="0.9063776288651939"><ele>200.0</ele><time>2026-05-01T14:32:50Z</time></trkpt><trkpt lat="44.778515845000875" lon="0.9063686527462269"><ele>201.0</ele><time>2026-05-01T14:32:51Z</time></trkpt><trkpt lat="44.77857651512731" lon="0.9063931680934553"><ele>202.0</ele><time>2026-05-01T14:32:52Z</time></trkpt><trkpt lat="44.778673255360495" lon="0.9064423497084023"><ele>203.0</ele><time>2026-05-01T14:32:54Z</time></trkpt><trkpt lat="44.77882231953995" lon="0.9063961720966223"><ele>204.0</ele><time>2026-05-01T14:32:56Z</time></trkpt><trkpt lat="44.778897019404006" lon="0.9063867472985524"><ele>205.0</ele><time>2026-05-01T14:32:57Z</time></trkpt><trkpt lat="44.778981135193604" lon="0.9063567985802229"><ele>204.99999999999997</ele><time>2026-05-01T14:32:59Z</time></trkpt><trkpt lat="44.77902600467943" lon="0.9062689850408575"><ele>205.0</ele><time>2026-05-01T14:33:00Z</time></trkpt><trkpt lat="44.77908416986727" lon="0.9062229112078866"><ele>205.0</ele><time>2026-05-01T14:33:01Z</time></trkpt><trkpt lat="44.77921859964848" lon="0.9062439210935772"><ele>205.0</ele><time>2026-05-01T14:33:03Z</time></trkpt><trkpt lat="44.77928950895202" lon="0.9062895192198264"><ele>204.99999999999997</ele><time>2026-05-01T14:33:04Z</time></trkpt><trkpt lat="44.779352688136065" lon="0.9062960756406614"><ele>205.0</ele><time>2026-05-01T14:33:05Z</time></trkpt><trkpt lat="44.77942345622595" lon="0.9062594143998656"><ele>205.33333333333331</ele><time>2026-05-01T14:33:06Z</time></trkpt><trkpt lat="44.77950884920034" lon="0.9062320875870832"><ele>205.66666666666666</ele><time>2026-05-01T14:33:07Z</time></trkpt><trkpt lat="44.77957113092235" lon="0.9062146064872139"><ele>206.0</ele><time>2026-05-01T14:33:08Z</time></trkpt><trkpt lat="44.77965285500292" lon="0.9062374058617355"><ele>206.33333333333331</ele><time>2026-05-01T14:33:09Z</time></trkpt><trkpt lat="44.779724040812866" lon="0.9062821210705252"><ele>206.66666666666666</ele><time>2026-05-01T14:33:10Z</time></trkpt><trkpt lat="44.77979902981625" lon="0.9063209503166141"><ele>207.0</ele><time>2026-05-01T14:33:11Z</time></trkpt><trkpt lat="44.779877999568846" lon="0.9063530073004582"><ele>207.0</ele><time>2026-05-01T14:33:12Z</time></trkpt><trkpt lat="44.779966681257946" lon="0.9063495060230984"><ele>207.0</ele><time>2026-05-01T14:33:13Z</time></trkpt><trkpt lat="44.78003568619697" lon="0.9063310850598747"><ele>207.0</ele><time>2026-05-01T14:33:14Z</time></trkpt><trkpt lat="44.78012454990186" lon="0.9063347490168934"><ele>207.0</ele><time>2026-05-01T14:33:15Z</time></trkpt><trkpt lat="44.78019256578143" lon="0.9063626744153143"><ele>207.0</ele><time>2026-05-01T14:33:16Z</time></trkpt><trkpt lat="44.780265589120575" lon="0.9063842203374173"><ele>207.0</ele><time>2026-05-01T14:33:17Z</time></trkpt><trkpt lat="44.78034224819739" lon="0.9064065023783324"><ele>206.39999999999998</ele><time>2026-05-01T14:33:18Z</time></trkpt><trkpt lat="44.78042093601208" lon="0.9064294528958291"><ele>205.79999999999998</ele><time>2026-05-01T14:33:19Z</time></trkpt><trkpt lat="44.7804924667271" lon="0.9064381722706182"><ele>205.2</ele><time>2026-05-01T14:33:20Z</time></trkpt><trkpt lat="44.78062343918619" lon="0.9063963980453337"><ele>204.6</ele><time>2026-05-01T14:33:22Z</time></trkpt><trkpt lat="44.78074032745933" lon="0.9063413126385992"><ele>204.0</ele><time>2026-05-01T14:33:24Z</time></trkpt><trkpt lat="44.78080666391747" lon="0.9062707429892326"><ele>204.0</ele><time>2026-05-01T14:33:25Z</time></trkpt><trkpt lat="44.78087415732454" lon="0.9061943504512232"><ele>204.0</ele><time>2026-05-01T14:33:26Z</time></trkpt><trkpt lat="44.7809446710073" lon="0.9061591833947754"><ele>204.0</ele><time>2026-05-01T14:33:27Z</time></trkpt><trkpt lat="44.78101557399013" lon="0.9061463192031458"><ele>204.0</ele><time>2026-05-01T14:33:28Z</time></trkpt><trkpt lat="44.78110759107951" lon="0.906138281882774"><ele>204.0</ele><time>2026-05-01T14:33:29Z</time></trkpt><trkpt lat="44.78120917639259" lon="0.9061284433940198"><ele>204.0</ele><time>2026-05-01T14:33:30Z</time></trkpt><trkpt lat="44.781299542891375" lon="0.9061284599353583"><ele>204.0</ele><time>2026-05-01T14:33:31Z</time></trkpt><trkpt lat="44.781370513469525" lon="0.9061076252767153"><ele>204.0</ele><time>2026-05-01T14:33:32Z</time></trkpt><trkpt lat="44.78143723873414" lon="0.906125840393034"><ele>204.0</ele><time>2026-05-01T14:33:33Z</time></trkpt><trkpt lat="44.78151759895361" lon="0.9061380897667901"><ele>204.0</ele><time>2026-05-01T14:33:34Z</time></trkpt><trkpt lat="44.781624053174056" lon="0.9061487016566017"><ele>204.0</ele><time>2026-05-01T14:33:36Z</time></trkpt><trkpt lat="44.781683784346754" lon="0.9062523906817656"><ele>204.0</ele><time>2026-05-01T14:33:38Z</time></trkpt><trkpt lat="44.78171315768298" lon="0.9063332283168158"><ele>204.0</ele><time>2026-05-01T14:33:39Z</time></trkpt><trkpt lat="44.78171723159912" lon="0.9065055431420443"><ele>204.0</ele><time>2026-05-01T14:33:41Z</time></trkpt><trkpt lat="44.781667349350855" lon="0.9066494705189518"><ele>204.0</ele><time>2026-05-01T14:33:43Z</time></trkpt><trkpt lat="44.78162823012874" lon="0.906729891373794"><ele>204.0</ele><time>2026-05-01T14:33:44Z</time></trkpt><trkpt lat="44.78159113675053" lon="0.9068454478073922"><ele>204.0</ele><time>2026-05-01T14:33:45Z</time></trkpt><trkpt lat="44.78159855830394" lon="0.9070066882182123"><ele>204.2</ele><time>2026-05-01T14:33:47Z</time></trkpt><trkpt lat="44.78163356527715" lon="0.9071323400856317"><ele>204.39999999999998</ele><time>2026-05-01T14:33:49Z</time></trkpt><trkpt lat="44.781692191178614" lon="0.9072215839579142"><ele>204.6</ele><time>2026-05-01T14:33:50Z</time></trkpt><trkpt lat="44.781749139029984" lon="0.9072838682867176"><ele>204.8</ele><time>2026-05-01T14:33:51Z</time></trkpt><trkpt lat="44.78182424991481" lon="0.9073794619083128"><ele>205.0</ele><time>2026-05-01T14:33:53Z</time></trkpt><trkpt lat="44.78187738325168" lon="0.9075160084131675"><ele>204.99999999999997</ele><time>2026-05-01T14:33:55Z</time></trkpt><trkpt lat="44.78192737120304" lon="0.9075707001967073"><ele>205.0</ele><time>2026-05-01T14:33:56Z</time></trkpt><trkpt lat="44.781938726351484" lon="0.9076736935828815"><ele>205.0</ele><time>2026-05-01T14:33:59Z</time></trkpt><trkpt lat="44.78203652826946" lon="0.907696745166156"><ele>205.0</ele><time>2026-05-01T14:34:02Z</time></trkpt><trkpt lat="44.78210461431747" lon="0.907679860702014"><ele>204.99999999999997</ele><time>2026-05-01T14:34:03Z</time></trkpt><trkpt lat="44.78218750179987" lon="0.9076645627370313"><ele>205.0</ele><time>2026-05-01T14:34:04Z</time></trkpt><trkpt lat="44.782267095323796" lon="0.9076341560267978"><ele>205.0</ele><time>2026-05-01T14:34:05Z</time></trkpt><trkpt lat="44.78234506778641" lon="0.9075791697560007"><ele>205.0</ele><time>2026-05-01T14:34:06Z</time></trkpt><trkpt lat="44.78241980207187" lon="0.9075155837064081"><ele>205.0</ele><time>2026-05-01T14:34:07Z</time></trkpt><trkpt lat="44.78248324503996" lon="0.9074176837868272"><ele>205.0</ele><time>2026-05-01T14:34:08Z</time></trkpt><trkpt lat="44.78254731500364" lon="0.9073148982472319"><ele>205.0</ele><time>2026-05-01T14:34:09Z</time></trkpt><trkpt lat="44.78261712521718" lon="0.9072073803527421"><ele>205.6</ele><time>2026-05-01T14:34:10Z</time></trkpt><trkpt lat="44.78268620095778" lon="0.9071045376138757"><ele>206.2</ele><time>2026-05-01T14:34:11Z</time></trkpt><trkpt lat="44.78275349095623" lon="0.9070034474563337"><ele>206.8</ele><time>2026-05-01T14:34:12Z</time></trkpt><trkpt lat="44.78281510692387" lon="0.906895421425021"><ele>207.4</ele><time>2026-05-01T14:34:13Z</time></trkpt><trkpt lat="44.78288291634585" lon="0.9067836831531874"><ele>208.0</ele><time>2026-05-01T14:34:14Z</time></trkpt><trkpt lat="44.78295683364543" lon="0.9066844386121435"><ele>209.0</ele><time>2026-05-01T14:34:15Z</time></trkpt><trkpt lat="44.78302120746844" lon="0.906589521011458"><ele>210.0</ele><time>2026-05-01T14:34:16Z</time></trkpt><trkpt lat="44.783083825813456" lon="0.90648367631663"><ele>211.0</ele><time>2026-05-01T14:34:17Z</time></trkpt><trkpt lat="44.783147341944975" lon="0.9063779572477046"><ele>212.0</ele><time>2026-05-01T14:34:18Z</time></trkpt><trkpt lat="44.78322849736476" lon="0.9062848965446191"><ele>213.0</ele><time>2026-05-01T14:34:19Z</time></trkpt><trkpt lat="44.783338731329415" lon="0.9062119986192142"><ele>213.0</ele><time>2026-05-01T14:34:20Z</time></trkpt><trkpt lat="44.783451156474776" lon="0.9061405088828767"><ele>213.0</ele><time>2026-05-01T14:34:21Z</time></trkpt><trkpt lat="44.78358333356763" lon="0.9060872503113865"><ele>213.0</ele><time>2026-05-01T14:34:22Z</time></trkpt><trkpt lat="44.78370961634457" lon="0.9060553190250479"><ele>213.0</ele><time>2026-05-01T14:34:23Z</time></trkpt><trkpt lat="44.783847006604965" lon="0.9060264865537297"><ele>213.2</ele><time>2026-05-01T14:34:24Z</time></trkpt><trkpt lat="44.7839685491236" lon="0.9059910221124027"><ele>213.4</ele><time>2026-05-01T14:34:25Z</time></trkpt><trkpt lat="44.78406710306584" lon="0.9059636779464092"><ele>213.59999999999997</ele><time>2026-05-01T14:34:26Z</time></trkpt><trkpt lat="44.784157963045566" lon="0.9059396639111336"><ele>213.79999999999998</ele><time>2026-05-01T14:34:27Z</time></trkpt><trkpt lat="44.784238818901834" lon="0.905924951494698"><ele>214.0</ele><time>2026-05-01T14:34:28Z</time></trkpt><trkpt lat="44.78431210394626" lon="0.9059075257736501"><ele>215.39999999999998</ele><time>2026-05-01T14:34:29Z</time></trkpt><trkpt lat="44.78437616145171" lon="0.905890536308291"><ele>216.79999999999998</ele><time>2026-05-01T14:34:30Z</time></trkpt><trkpt lat="44.784441617171105" lon="0.9058805051273381"><ele>218.20000000000002</ele><time>2026-05-01T14:34:32Z</time></trkpt><trkpt lat="44.78441828642777" lon="0.9056562306279387"><ele>219.60000000000002</ele><time>2026-05-01T14:34:34Z</time></trkpt><trkpt lat="44.78438996341924" lon="0.905535129813159"><ele>221.0</ele><time>2026-05-01T14:34:36Z</time></trkpt><trkpt lat="44.78437160781189" lon="0.9054101889034708"><ele>219.83333333333334</ele><time>2026-05-01T14:34:38Z</time></trkpt><trkpt lat="44.784324947532966" lon="0.9053175368674438"><ele>218.66666666666669</ele><time>2026-05-01T14:34:40Z</time></trkpt><trkpt lat="44.78429564268998" lon="0.9052274706640558"><ele>217.5</ele><time>2026-05-01T14:34:43Z</time></trkpt><trkpt lat="44.78427647777884" lon="0.9051386466170381"><ele>216.33333333333331</ele><time>2026-05-01T14:34:44Z</time></trkpt><trkpt lat="44.784251538058236" lon="0.9049597198618117"><ele>215.16666666666666</ele><time>2026-05-01T14:34:46Z</time></trkpt><trkpt lat="44.78422909142329" lon="0.9048441220405528"><ele>214.0</ele><time>2026-05-01T14:34:47Z</time></trkpt><trkpt lat="44.78421014865075" lon="0.9047257857036771"><ele>213.79999999999998</ele><time>2026-05-01T14:34:48Z</time></trkpt><trkpt lat="44.78419139522518" lon="0.9046070853584517"><ele>213.59999999999997</ele><time>2026-05-01T14:34:49Z</time></trkpt><trkpt lat="44.784170147005824" lon="0.9044913746816173"><ele>213.4</ele><time>2026-05-01T14:34:50Z</time></trkpt><trkpt lat="44.78414536085386" lon="0.90436899857845"><ele>213.2</ele><time>2026-05-01T14:34:51Z</time></trkpt><trkpt lat="44.784112168612715" lon="0.9042174269034163"><ele>213.0</ele><time>2026-05-01T14:34:52Z</time></trkpt><trkpt lat="44.78406812469048" lon="0.9040643172889878"><ele>212.60000000000002</ele><time>2026-05-01T14:34:53Z</time></trkpt><trkpt lat="44.7840343286363" lon="0.903919962533687"><ele>212.20000000000002</ele><time>2026-05-01T14:34:54Z</time></trkpt><trkpt lat="44.78399492767863" lon="0.9037821447442606"><ele>211.8</ele><time>2026-05-01T14:34:55Z</time></trkpt><trkpt lat="44.783967889647386" lon="0.9036620282821722"><ele>211.4</ele><time>2026-05-01T14:34:56Z</time></trkpt><trkpt lat="44.78394396077136" lon="0.9035286750403629"><ele>211.0</ele><time>2026-05-01T14:34:57Z</time></trkpt><trkpt lat="44.78390689495202" lon="0.9033866355284002"><ele>210.33333333333331</ele><time>2026-05-01T14:34:58Z</time></trkpt><trkpt lat="44.78386768000178" lon="0.903257345273032"><ele>209.66666666666666</ele><time>2026-05-01T14:34:59Z</time></trkpt><trkpt lat="44.78383141030446" lon="0.9031208291958672"><ele>209.0</ele><time>2026-05-01T14:35:00Z</time></trkpt><trkpt lat="44.78380508127792" lon="0.903008722821553"><ele>208.33333333333331</ele><time>2026-05-01T14:35:01Z</time></trkpt><trkpt lat="44.78377304473406" lon="0.9029021037262968"><ele>207.66666666666666</ele><time>2026-05-01T14:35:02Z</time></trkpt><trkpt lat="44.783749976581205" lon="0.9028107418506659"><ele>207.0</ele><time>2026-05-01T14:35:03Z</time></trkpt><trkpt lat="44.78370573194798" lon="0.9026529187760842"><ele>206.2</ele><time>2026-05-01T14:35:05Z</time></trkpt><trkpt lat="44.78367824712022" lon="0.9025722024131535"><ele>205.39999999999998</ele><time>2026-05-01T14:35:06Z</time></trkpt><trkpt lat="44.78360146491897" lon="0.9024050967544124"><ele>204.60000000000002</ele><time>2026-05-01T14:35:08Z</time></trkpt><trkpt lat="44.783565978165086" lon="0.9023036735422862"><ele>203.8</ele><time>2026-05-01T14:35:09Z</time></trkpt><trkpt lat="44.78352651340535" lon="0.9021599641580579"><ele>203.0</ele><time>2026-05-01T14:35:10Z</time></trkpt><trkpt lat="44.783488596245704" lon="0.9020129161758538"><ele>202.2</ele><time>2026-05-01T14:35:11Z</time></trkpt><trkpt lat="44.78345175333649" lon="0.9018873639106918"><ele>201.4</ele><time>2026-05-01T14:35:12Z</time></trkpt><trkpt lat="44.7834033826522" lon="0.901763980147381"><ele>200.6</ele><time>2026-05-01T14:35:13Z</time></trkpt><trkpt lat="44.78336925947051" lon="0.9016149651284859"><ele>199.79999999999998</ele><time>2026-05-01T14:35:14Z</time></trkpt><trkpt lat="44.783333721067216" lon="0.901482999525031"><ele>199.0</ele><time>2026-05-01T14:35:15Z</time></trkpt><trkpt lat="44.7832901172844" lon="0.9013769514837388"><ele>198.0</ele><time>2026-05-01T14:35:16Z</time></trkpt><trkpt lat="44.78325679587058" lon="0.9012255505128816"><ele>197.0</ele><time>2026-05-01T14:35:17Z</time></trkpt><trkpt lat="44.78321545933328" lon="0.9010950713290979"><ele>196.0</ele><time>2026-05-01T14:35:18Z</time></trkpt><trkpt lat="44.783173686732006" lon="0.9009675070295409"><ele>195.0</ele><time>2026-05-01T14:35:19Z</time></trkpt><trkpt lat="44.78313112006688" lon="0.900835248184049"><ele>194.0</ele><time>2026-05-01T14:35:20Z</time></trkpt><trkpt lat="44.78310192702331" lon="0.9007321913767141"><ele>192.50000000000003</ele><time>2026-05-01T14:35:21Z</time></trkpt><trkpt lat="44.78306531919582" lon="0.9006143835522515"><ele>191.0</ele><time>2026-05-01T14:35:22Z</time></trkpt><trkpt lat="44.78304098286142" lon="0.9004935600122244"><ele>189.5</ele><time>2026-05-01T14:35:23Z</time></trkpt><trkpt lat="44.783016846770344" lon="0.9003906196611107"><ele>188.0</ele><time>2026-05-01T14:35:24Z</time></trkpt><trkpt lat="44.78298857206161" lon="0.9002641623564337"><ele>186.5</ele><time>2026-05-01T14:35:25Z</time></trkpt><trkpt lat="44.78294627735429" lon="0.9001537688766355"><ele>185.0</ele><time>2026-05-01T14:35:26Z</time></trkpt><trkpt lat="44.78292206187986" lon="0.9000689960709342"><ele>184.66666666666666</ele><time>2026-05-01T14:35:27Z</time></trkpt><trkpt lat="44.78288379341095" lon="0.8999541376385832"><ele>184.33333333333331</ele><time>2026-05-01T14:35:28Z</time></trkpt><trkpt lat="44.78284709055642" lon="0.8998264549181585"><ele>184.0</ele><time>2026-05-01T14:35:29Z</time></trkpt><trkpt lat="44.782810017313196" lon="0.8997199493676388"><ele>183.66666666666666</ele><time>2026-05-01T14:35:30Z</time></trkpt><trkpt lat="44.78278541650533" lon="0.8996234274360492"><ele>183.33333333333334</ele><time>2026-05-01T14:35:31Z</time></trkpt><trkpt lat="44.78274930286414" lon="0.8995397448620254"><ele>183.0</ele><time>2026-05-01T14:35:32Z</time></trkpt><trkpt lat="44.78270875398955" lon="0.899434528385977"><ele>182.8</ele><time>2026-05-01T14:35:33Z</time></trkpt><trkpt lat="44.782672804347634" lon="0.8993363120653607"><ele>182.60000000000002</ele><time>2026-05-01T14:35:34Z</time></trkpt><trkpt lat="44.782647740668935" lon="0.8992533465308492"><ele>182.39999999999998</ele><time>2026-05-01T14:35:35Z</time></trkpt><trkpt lat="44.7827297418524" lon="0.8991964409816157"><ele>182.2</ele><time>2026-05-01T14:35:39Z</time></trkpt><trkpt lat="44.782829554701024" lon="0.8990942791241363"><ele>182.0</ele><time>2026-05-01T14:35:41Z</time></trkpt><trkpt lat="44.782954356440634" lon="0.8990281106621638"><ele>182.0</ele><time>2026-05-01T14:35:42Z</time></trkpt><trkpt lat="44.783041374518156" lon="0.8989921373426764"><ele>182.0</ele><time>2026-05-01T14:35:43Z</time></trkpt><trkpt lat="44.783137075582935" lon="0.8989646995663187"><ele>182.0</ele><time>2026-05-01T14:35:44Z</time></trkpt><trkpt lat="44.78324573258061" lon="0.8989208352248154"><ele>182.0</ele><time>2026-05-01T14:35:45Z</time></trkpt><trkpt lat="44.783350858735496" lon="0.8989116473512001"><ele>182.0</ele><time>2026-05-01T14:35:46Z</time></trkpt><trkpt lat="44.78343473893677" lon="0.8989055674899394"><ele>182.25</ele><time>2026-05-01T14:35:47Z</time></trkpt><trkpt lat="44.78355031032923" lon="0.8989083204691422"><ele>182.5</ele><time>2026-05-01T14:35:48Z</time></trkpt><trkpt lat="44.78367818091662" lon="0.8989290299027385"><ele>182.75</ele><time>2026-05-01T14:35:49Z</time></trkpt><trkpt lat="44.78377937569696" lon="0.8989110936741853"><ele>183.0</ele><time>2026-05-01T14:35:50Z</time></trkpt><trkpt lat="44.78388507373274" lon="0.8988481369795699"><ele>183.0</ele><time>2026-05-01T14:35:51Z</time></trkpt><trkpt lat="44.78399843605252" lon="0.8987862460700032"><ele>183.0</ele><time>2026-05-01T14:35:52Z</time></trkpt><trkpt lat="44.78411830362117" lon="0.898710499081865"><ele>183.0</ele><time>2026-05-01T14:35:53Z</time></trkpt><trkpt lat="44.784236332625795" lon="0.8985997091305413"><ele>183.0</ele><time>2026-05-01T14:35:54Z</time></trkpt><trkpt lat="44.78435298619726" lon="0.8985088114852949"><ele>183.25</ele><time>2026-05-01T14:35:55Z</time></trkpt><trkpt lat="44.7844578842448" lon="0.8984307695679907"><ele>183.5</ele><time>2026-05-01T14:35:56Z</time></trkpt><trkpt lat="44.78456884380387" lon="0.8983621222037491"><ele>183.75</ele><time>2026-05-01T14:35:57Z</time></trkpt><trkpt lat="44.78468265280354" lon="0.898312746246632"><ele>184.0</ele><time>2026-05-01T14:35:58Z</time></trkpt><trkpt lat="44.78478804681548" lon="0.8982594076786156"><ele>184.25</ele><time>2026-05-01T14:35:59Z</time></trkpt><trkpt lat="44.78489976481412" lon="0.8981825717909876"><ele>184.5</ele><time>2026-05-01T14:36:00Z</time></trkpt><trkpt lat="44.78501258442771" lon="0.8980897174780295"><ele>184.75</ele><time>2026-05-01T14:36:01Z</time></trkpt><trkpt lat="44.785101346101285" lon="0.8980046747578286"><ele>185.0</ele><time>2026-05-01T14:36:02Z</time></trkpt><trkpt lat="44.78515129082873" lon="0.8978753369887625"><ele>185.75</ele><time>2026-05-01T14:36:03Z</time></trkpt><trkpt lat="44.78522784137979" lon="0.897756330736261"><ele>186.5</ele><time>2026-05-01T14:36:04Z</time></trkpt><trkpt lat="44.785303580346145" lon="0.8976078428388664"><ele>187.25</ele><time>2026-05-01T14:36:05Z</time></trkpt><trkpt lat="44.78536141827758" lon="0.8974836063262132"><ele>188.0</ele><time>2026-05-01T14:36:06Z</time></trkpt><trkpt lat="44.78544900609065" lon="0.8973646092421733"><ele>189.0</ele><time>2026-05-01T14:36:07Z</time></trkpt><trkpt lat="44.78553340410787" lon="0.8972641918071029"><ele>190.0</ele><time>2026-05-01T14:36:08Z</time></trkpt><trkpt lat="44.78562377140606" lon="0.8971690159434812"><ele>191.0</ele><time>2026-05-01T14:36:09Z</time></trkpt><trkpt lat="44.785711150549034" lon="0.8970929620757573"><ele>192.0</ele><time>2026-05-01T14:36:10Z</time></trkpt><trkpt lat="44.78580524199299" lon="0.8970384216060088"><ele>193.0</ele><time>2026-05-01T14:36:11Z</time></trkpt><trkpt lat="44.7858893035761" lon="0.8970022147976461"><ele>192.99999999999997</ele><time>2026-05-01T14:36:12Z</time></trkpt><trkpt lat="44.78595757852668" lon="0.8969700402509806"><ele>193.0</ele><time>2026-05-01T14:36:13Z</time></trkpt><trkpt lat="44.78602901681657" lon="0.8968979412418047"><ele>193.0</ele><time>2026-05-01T14:36:15Z</time></trkpt><trkpt lat="44.786030056643725" lon="0.8967894236729408"><ele>193.0</ele><time>2026-05-01T14:36:17Z</time></trkpt><trkpt lat="44.785984196120744" lon="0.8966485089609496"><ele>192.99999999999997</ele><time>2026-05-01T14:36:19Z</time></trkpt><trkpt lat="44.78597416754883" lon="0.8965413840925044"><ele>193.0</ele><time>2026-05-01T14:36:20Z</time></trkpt><trkpt lat="44.78596204197444" lon="0.8964335137322131"><ele>194.4</ele><time>2026-05-01T14:36:21Z</time></trkpt><trkpt lat="44.78593411387653" lon="0.8962118826234193"><ele>195.8</ele><time>2026-05-01T14:36:23Z</time></trkpt><trkpt lat="44.78591402632451" lon="0.8960703757938752"><ele>197.2</ele><time>2026-05-01T14:36:24Z</time></trkpt><trkpt lat="44.78588457449367" lon="0.8959503188820175"><ele>198.6</ele><time>2026-05-01T14:36:25Z</time></trkpt><trkpt lat="44.78586994141878" lon="0.8958544294436491"><ele>200.0</ele><time>2026-05-01T14:36:26Z</time></trkpt><trkpt lat="44.78587275181596" lon="0.8957451001020177"><ele>200.50000000000003</ele><time>2026-05-01T14:36:28Z</time></trkpt><trkpt lat="44.7859130813785" lon="0.8956339613990728"><ele>201.0</ele><time>2026-05-01T14:36:30Z</time></trkpt><trkpt lat="44.786040869447255" lon="0.8955870239443752"><ele>201.5</ele><time>2026-05-01T14:36:32Z</time></trkpt><trkpt lat="44.78611519151758" lon="0.8955665895648324"><ele>202.0</ele><time>2026-05-01T14:36:33Z</time></trkpt><trkpt lat="44.78617232840255" lon="0.8955287545986362"><ele>202.50000000000003</ele><time>2026-05-01T14:36:34Z</time></trkpt><trkpt lat="44.78622623425543" lon="0.8954828151092225"><ele>203.0</ele><time>2026-05-01T14:36:37Z</time></trkpt><trkpt lat="44.786328267646255" lon="0.895479784599003"><ele>203.00000000000003</ele><time>2026-05-01T14:36:42Z</time></trkpt><trkpt lat="44.78639908042058" lon="0.895458856806327"><ele>203.0</ele><time>2026-05-01T14:36:43Z</time></trkpt><trkpt lat="44.78649824645151" lon="0.8954476834228589"><ele>203.0</ele><time>2026-05-01T14:36:44Z</time></trkpt><trkpt lat="44.786585024038565" lon="0.8954240896831795"><ele>203.0</ele><time>2026-05-01T14:36:45Z</time></trkpt><trkpt lat="44.78667673194156" lon="0.8953945467994775"><ele>203.00000000000003</ele><time>2026-05-01T14:36:46Z</time></trkpt><trkpt lat="44.78674067682374" lon="0.8953694522771004"><ele>203.0</ele><time>2026-05-01T14:36:47Z</time></trkpt><trkpt lat="44.786810229356725" lon="0.8953229729691201"><ele>202.8</ele><time>2026-05-01T14:36:48Z</time></trkpt><trkpt lat="44.786881170644925" lon="0.8952644579013408"><ele>202.60000000000002</ele><time>2026-05-01T14:36:49Z</time></trkpt><trkpt lat="44.78698201589056" lon="0.8951866196050445"><ele>202.39999999999998</ele><time>2026-05-01T14:36:51Z</time></trkpt><trkpt lat="44.78710755072239" lon="0.8951537768433281"><ele>202.2</ele><time>2026-05-01T14:36:53Z</time></trkpt><trkpt lat="44.78720701255918" lon="0.8950958212680072"><ele>202.0</ele><time>2026-05-01T14:36:55Z</time></trkpt><trkpt lat="44.787267998886094" lon="0.8950029394667932"><ele>202.0</ele><time>2026-05-01T14:36:57Z</time></trkpt><trkpt lat="44.78723626681199" lon="0.8948805181686549"><ele>202.0</ele><time>2026-05-01T14:36:59Z</time></trkpt><trkpt lat="44.78715505025177" lon="0.8947105094107931"><ele>202.0</ele><time>2026-05-01T14:37:01Z</time></trkpt><trkpt lat="44.7871064873646" lon="0.8945889996994153"><ele>202.0</ele><time>2026-05-01T14:37:02Z</time></trkpt><trkpt lat="44.78703717699614" lon="0.8944454584658024"><ele>202.0</ele><time>2026-05-01T14:37:03Z</time></trkpt><trkpt lat="44.78697246039075" lon="0.8942808243653968"><ele>202.0</ele><time>2026-05-01T14:37:04Z</time></trkpt><trkpt lat="44.78692749614179" lon="0.8941297540208304"><ele>202.0</ele><time>2026-05-01T14:37:05Z</time></trkpt><trkpt lat="44.78688771377373" lon="0.8939824014151606"><ele>202.0</ele><time>2026-05-01T14:37:06Z</time></trkpt><trkpt lat="44.78683331490506" lon="0.8938402135766692"><ele>203.5</ele><time>2026-05-01T14:37:07Z</time></trkpt><trkpt lat="44.78678121924739" lon="0.8936969237743262"><ele>205.0</ele><time>2026-05-01T14:37:08Z</time></trkpt><trkpt lat="44.78673434232896" lon="0.8935586579613628"><ele>206.5</ele><time>2026-05-01T14:37:09Z</time></trkpt><trkpt lat="44.78671067242142" lon="0.893375706551794"><ele>208.0</ele><time>2026-05-01T14:37:10Z</time></trkpt><trkpt lat="44.78665848586023" lon="0.8932550745445587"><ele>208.25</ele><time>2026-05-01T14:37:11Z</time></trkpt><trkpt lat="44.7866093942257" lon="0.8931089955618334"><ele>208.5</ele><time>2026-05-01T14:37:12Z</time></trkpt><trkpt lat="44.78656267783277" lon="0.892955975392347"><ele>208.75</ele><time>2026-05-01T14:37:13Z</time></trkpt><trkpt lat="44.78650852432443" lon="0.8927861611495974"><ele>209.0</ele><time>2026-05-01T14:37:14Z</time></trkpt><trkpt lat="44.78645325311729" lon="0.8926283831356948"><ele>209.25</ele><time>2026-05-01T14:37:15Z</time></trkpt><trkpt lat="44.78639883738793" lon="0.8924552235915164"><ele>209.5</ele><time>2026-05-01T14:37:16Z</time></trkpt><trkpt lat="44.786344477800924" lon="0.8922938742268246"><ele>209.75</ele><time>2026-05-01T14:37:17Z</time></trkpt><trkpt lat="44.78629535420935" lon="0.8921507873424875"><ele>210.0</ele><time>2026-05-01T14:37:18Z</time></trkpt><trkpt lat="44.78624969036156" lon="0.8920217154821973"><ele>210.0</ele><time>2026-05-01T14:37:19Z</time></trkpt><trkpt lat="44.78622496524195" lon="0.8919004446151688"><ele>210.0</ele><time>2026-05-01T14:37:20Z</time></trkpt><trkpt lat="44.78622541103246" lon="0.891777746215221"><ele>210.0</ele><time>2026-05-01T14:37:21Z</time></trkpt><trkpt lat="44.78627287666697" lon="0.8916677573457025"><ele>210.0</ele><time>2026-05-01T14:37:22Z</time></trkpt><trkpt lat="44.786360326925994" lon="0.8914357105419014"><ele>210.6</ele><time>2026-05-01T14:37:24Z</time></trkpt><trkpt lat="44.78641130611226" lon="0.8912968468449374"><ele>211.2</ele><time>2026-05-01T14:37:25Z</time></trkpt><trkpt lat="44.78648648714282" lon="0.8911427518755264"><ele>211.8</ele><time>2026-05-01T14:37:26Z</time></trkpt><trkpt lat="44.786532543348244" lon="0.8910098642905521"><ele>212.4</ele><time>2026-05-01T14:37:27Z</time></trkpt><trkpt lat="44.78658503161284" lon="0.8908969176693942"><ele>213.0</ele><time>2026-05-01T14:37:28Z</time></trkpt><trkpt lat="44.786626550880555" lon="0.8907856179551137"><ele>213.8</ele><time>2026-05-01T14:37:29Z</time></trkpt><trkpt lat="44.78666265086623" lon="0.8906724227833134"><ele>214.60000000000002</ele><time>2026-05-01T14:37:30Z</time></trkpt><trkpt lat="44.786681035874444" lon="0.8905310983370619"><ele>215.39999999999998</ele><time>2026-05-01T14:37:31Z</time></trkpt><trkpt lat="44.786655124262744" lon="0.890372711485702"><ele>216.2</ele><time>2026-05-01T14:37:32Z</time></trkpt><trkpt lat="44.786640230097234" lon="0.8902004111144256"><ele>217.0</ele><time>2026-05-01T14:37:33Z</time></trkpt><trkpt lat="44.786619409722675" lon="0.8900444988790362"><ele>218.75</ele><time>2026-05-01T14:37:34Z</time></trkpt><trkpt lat="44.78658499348945" lon="0.8898983813039703"><ele>220.5</ele><time>2026-05-01T14:37:35Z</time></trkpt><trkpt lat="44.78656416836529" lon="0.8897279094709929"><ele>222.25</ele><time>2026-05-01T14:37:36Z</time></trkpt><trkpt lat="44.786546769898116" lon="0.8895724188790158"><ele>224.0</ele><time>2026-05-01T14:37:37Z</time></trkpt><trkpt lat="44.78653156104019" lon="0.8894124976790704"><ele>224.75</ele><time>2026-05-01T14:37:38Z</time></trkpt><trkpt lat="44.786535169657796" lon="0.8892427820577444"><ele>225.5</ele><time>2026-05-01T14:37:39Z</time></trkpt><trkpt lat="44.786537476515505" lon="0.8890779969348653"><ele>226.25</ele><time>2026-05-01T14:37:40Z</time></trkpt><trkpt lat="44.78654456934232" lon="0.8889080855298643"><ele>227.0</ele><time>2026-05-01T14:37:41Z</time></trkpt><trkpt lat="44.78655238166081" lon="0.8887449262145655"><ele>227.0</ele><time>2026-05-01T14:37:42Z</time></trkpt><trkpt lat="44.78654287011849" lon="0.8885831438086819"><ele>227.0</ele><time>2026-05-01T14:37:43Z</time></trkpt><trkpt lat="44.78654772769213" lon="0.8884423932889802"><ele>227.0</ele><time>2026-05-01T14:37:44Z</time></trkpt><trkpt lat="44.78656983286977" lon="0.8882591740431425"><ele>227.0</ele><time>2026-05-01T14:37:45Z</time></trkpt><trkpt lat="44.78661430569709" lon="0.8880676765726565"><ele>227.39999999999998</ele><time>2026-05-01T14:37:46Z</time></trkpt><trkpt lat="44.786636809897466" lon="0.8879162068892824"><ele>227.79999999999998</ele><time>2026-05-01T14:37:47Z</time></trkpt><trkpt lat="44.786640655923144" lon="0.887757097862855"><ele>228.2</ele><time>2026-05-01T14:37:48Z</time></trkpt><trkpt lat="44.78665136160877" lon="0.8875878772347235"><ele>228.6</ele><time>2026-05-01T14:37:49Z</time></trkpt><trkpt lat="44.78666784123542" lon="0.8874482115366575"><ele>229.0</ele><time>2026-05-01T14:37:50Z</time></trkpt><trkpt lat="44.786672226340706" lon="0.8873109038617553"><ele>229.33333333333331</ele><time>2026-05-01T14:37:51Z</time></trkpt><trkpt lat="44.78667654979081" lon="0.8871783484553525"><ele>229.66666666666666</ele><time>2026-05-01T14:37:52Z</time></trkpt><trkpt lat="44.78668996097605" lon="0.8870444388067312"><ele>230.0</ele><time>2026-05-01T14:37:53Z</time></trkpt><trkpt lat="44.78671270848325" lon="0.8869434363632875"><ele>230.33333333333331</ele><time>2026-05-01T14:37:54Z</time></trkpt><trkpt lat="44.78675771812938" lon="0.8868423391423181"><ele>230.66666666666666</ele><time>2026-05-01T14:37:55Z</time></trkpt><trkpt lat="44.78682406059162" lon="0.8867399178616984"><ele>231.0</ele><time>2026-05-01T14:37:56Z</time></trkpt><trkpt lat="44.786895899869144" lon="0.8866336528886113"><ele>231.25</ele><time>2026-05-01T14:37:57Z</time></trkpt><trkpt lat="44.78696540604874" lon="0.886503184354651"><ele>231.5</ele><time>2026-05-01T14:37:58Z</time></trkpt><trkpt lat="44.78703339849703" lon="0.8863735979255449"><ele>231.75</ele><time>2026-05-01T14:37:59Z</time></trkpt><trkpt lat="44.787107996413354" lon="0.8862297276842702"><ele>232.0</ele><time>2026-05-01T14:38:00Z</time></trkpt><trkpt lat="44.78719142854606" lon="0.8860786679522552"><ele>232.0</ele><time>2026-05-01T14:38:01Z</time></trkpt><trkpt lat="44.787277850460654" lon="0.8859385172690207"><ele>232.0</ele><time>2026-05-01T14:38:02Z</time></trkpt><trkpt lat="44.78735677070771" lon="0.8857948198257776"><ele>232.0</ele><time>2026-05-01T14:38:03Z</time></trkpt><trkpt lat="44.78743837543698" lon="0.8856635586678331"><ele>232.0</ele><time>2026-05-01T14:38:04Z</time></trkpt><trkpt lat="44.78752376271917" lon="0.885532204670541"><ele>232.0</ele><time>2026-05-01T14:38:05Z</time></trkpt><trkpt lat="44.787604108237915" lon="0.8854119860034791"><ele>232.0</ele><time>2026-05-01T14:38:06Z</time></trkpt><trkpt lat="44.78767488803299" lon="0.885327582274991"><ele>232.0</ele><time>2026-05-01T14:38:07Z</time></trkpt><trkpt lat="44.78762777841785" lon="0.885264585235003"><ele>232.0</ele><time>2026-05-01T14:38:19Z</time></trkpt><trkpt lat="44.7876151745369" lon="0.8851494260565534"><ele>232.0</ele><time>2026-05-01T14:38:21Z</time></trkpt><trkpt lat="44.787675510136836" lon="0.884980899590594"><ele>232.49999999999997</ele><time>2026-05-01T14:38:23Z</time></trkpt><trkpt lat="44.7877111000813" lon="0.8848974997538651"><ele>233.0</ele><time>2026-05-01T14:38:24Z</time></trkpt><trkpt lat="44.78774200381262" lon="0.8847833245559974"><ele>233.5</ele><time>2026-05-01T14:38:25Z</time></trkpt><trkpt lat="44.787777093817986" lon="0.8846672014489658"><ele>234.0</ele><time>2026-05-01T14:38:26Z</time></trkpt><trkpt lat="44.787801448687624" lon="0.8845481810498432"><ele>234.49999999999997</ele><time>2026-05-01T14:38:27Z</time></trkpt><trkpt lat="44.78783353290263" lon="0.8844012350028876"><ele>235.0</ele><time>2026-05-01T14:38:28Z</time></trkpt><trkpt lat="44.78786518094916" lon="0.8842481106823151"><ele>235.0</ele><time>2026-05-01T14:38:29Z</time></trkpt><trkpt lat="44.78789001514766" lon="0.8840901528354604"><ele>235.0</ele><time>2026-05-01T14:38:30Z</time></trkpt><trkpt lat="44.78792677919499" lon="0.8839189484696311"><ele>235.0</ele><time>2026-05-01T14:38:31Z</time></trkpt><trkpt lat="44.7879651102779" lon="0.8837512544507874"><ele>235.0</ele><time>2026-05-01T14:38:32Z</time></trkpt><trkpt lat="44.787975245515305" lon="0.8836287625395352"><ele>235.0</ele><time>2026-05-01T14:38:33Z</time></trkpt><trkpt lat="44.787990936017785" lon="0.8835309599649256"><ele>235.0</ele><time>2026-05-01T14:38:34Z</time></trkpt><trkpt lat="44.788028073696516" lon="0.8833805025497806"><ele>235.0</ele><time>2026-05-01T14:38:35Z</time></trkpt><trkpt lat="44.788063955738174" lon="0.8832169656228201"><ele>235.0</ele><time>2026-05-01T14:38:36Z</time></trkpt><trkpt lat="44.788155962391244" lon="0.883113867596793"><ele>235.0</ele><time>2026-05-01T14:38:37Z</time></trkpt><trkpt lat="44.7881895651799" lon="0.8829072686844773"><ele>235.5</ele><time>2026-05-01T14:38:38Z</time></trkpt><trkpt lat="44.78822290872461" lon="0.8827530821196549"><ele>236.0</ele><time>2026-05-01T14:38:39Z</time></trkpt><trkpt lat="44.78824560631656" lon="0.8826101575357294"><ele>236.5</ele><time>2026-05-01T14:38:40Z</time></trkpt><trkpt lat="44.78827182666848" lon="0.8823466761356275"><ele>237.0</ele><time>2026-05-01T14:38:42Z</time></trkpt><trkpt lat="44.78829076469712" lon="0.8821892308901975"><ele>237.5</ele><time>2026-05-01T14:38:43Z</time></trkpt><trkpt lat="44.788297406290106" lon="0.8820741686030326"><ele>238.0</ele><time>2026-05-01T14:38:44Z</time></trkpt><trkpt lat="44.78836913559405" lon="0.8820267936493339"><ele>238.5</ele><time>2026-05-01T14:38:46Z</time></trkpt><trkpt lat="44.78847810889837" lon="0.8820014134180886"><ele>239.0</ele><time>2026-05-01T14:38:48Z</time></trkpt><trkpt lat="44.78854539334126" lon="0.8820282843155764"><ele>239.5</ele><time>2026-05-01T14:38:49Z</time></trkpt><trkpt lat="44.78861811849146" lon="0.8820681540131313"><ele>240.0</ele><time>2026-05-01T14:38:50Z</time></trkpt><trkpt lat="44.78870855859136" lon="0.882101095547054"><ele>240.2</ele><time>2026-05-01T14:38:51Z</time></trkpt><trkpt lat="44.78878837722449" lon="0.8821297747825366"><ele>240.4</ele><time>2026-05-01T14:38:52Z</time></trkpt><trkpt lat="44.78890845485124" lon="0.8821683147372483"><ele>240.60000000000002</ele><time>2026-05-01T14:38:54Z</time></trkpt><trkpt lat="44.78900003092436" lon="0.8821911432895911"><ele>240.8</ele><time>2026-05-01T14:38:55Z</time></trkpt><trkpt lat="44.78908216536581" lon="0.8822108695841966"><ele>241.0</ele><time>2026-05-01T14:38:56Z</time></trkpt><trkpt lat="44.78919219709009" lon="0.8822321183824529"><ele>241.0</ele><time>2026-05-01T14:38:57Z</time></trkpt><trkpt lat="44.789276991203" lon="0.8822581651094461"><ele>241.00000000000003</ele><time>2026-05-01T14:38:58Z</time></trkpt><trkpt lat="44.78937020816774" lon="0.8822847085535438"><ele>241.00000000000003</ele><time>2026-05-01T14:38:59Z</time></trkpt><trkpt lat="44.789494525908424" lon="0.8823276301094177"><ele>241.0</ele><time>2026-05-01T14:39:00Z</time></trkpt><trkpt lat="44.789619017567865" lon="0.8823637251577362"><ele>241.0</ele><time>2026-05-01T14:39:01Z</time></trkpt><trkpt lat="44.78972383983378" lon="0.8824058987185903"><ele>240.99999999999997</ele><time>2026-05-01T14:39:02Z</time></trkpt><trkpt lat="44.789802745037846" lon="0.8824223585953644"><ele>241.0</ele><time>2026-05-01T14:39:03Z</time></trkpt><trkpt lat="44.789875781726856" lon="0.8824367770811334"><ele>241.0</ele><time>2026-05-01T14:39:04Z</time></trkpt><trkpt lat="44.789952502678574" lon="0.8824299932856146"><ele>241.0</ele><time>2026-05-01T14:39:06Z</time></trkpt><trkpt lat="44.79002737833004" lon="0.8823716928666963"><ele>240.99999999999997</ele><time>2026-05-01T14:39:08Z</time></trkpt><trkpt lat="44.790075797564036" lon="0.8822670709534857"><ele>241.0</ele><time>2026-05-01T14:39:09Z</time></trkpt><trkpt lat="44.790125342376676" lon="0.8821556722430343"><ele>241.0</ele><time>2026-05-01T14:39:10Z</time></trkpt><trkpt lat="44.790193987136476" lon="0.8820469101218563"><ele>241.00000000000003</ele><time>2026-05-01T14:39:11Z</time></trkpt><trkpt lat="44.7902688458609" lon="0.8819311314595233"><ele>241.00000000000003</ele><time>2026-05-01T14:39:12Z</time></trkpt><trkpt lat="44.79034805150918" lon="0.8818204818452763"><ele>241.0</ele><time>2026-05-01T14:39:13Z</time></trkpt><trkpt lat="44.79040710298685" lon="0.8817020822106132"><ele>241.0</ele><time>2026-05-01T14:39:14Z</time></trkpt><trkpt lat="44.79047830495701" lon="0.8815657957911996"><ele>241.20000000000002</ele><time>2026-05-01T14:39:15Z</time></trkpt><trkpt lat="44.79054741947875" lon="0.8814648652910092"><ele>241.40000000000003</ele><time>2026-05-01T14:39:16Z</time></trkpt><trkpt lat="44.79059925520325" lon="0.8813621953531228"><ele>241.6</ele><time>2026-05-01T14:39:17Z</time></trkpt><trkpt lat="44.79064099220793" lon="0.8812780010610898"><ele>241.8</ele><time>2026-05-01T14:39:18Z</time></trkpt><trkpt lat="44.79073034476797" lon="0.881179073874204"><ele>242.0</ele><time>2026-05-01T14:39:20Z</time></trkpt><trkpt lat="44.79081049594939" lon="0.8811352065467036"><ele>242.0</ele><time>2026-05-01T14:39:21Z</time></trkpt><trkpt lat="44.79089044884346" lon="0.8810654940197538"><ele>242.0</ele><time>2026-05-01T14:39:22Z</time></trkpt><trkpt lat="44.79095718853447" lon="0.8809643536806252"><ele>242.0</ele><time>2026-05-01T14:39:23Z</time></trkpt><trkpt lat="44.79107015394246" lon="0.8808531581316449"><ele>242.0</ele><time>2026-05-01T14:39:24Z</time></trkpt><trkpt lat="44.79115195812231" lon="0.8808096927679779"><ele>242.0</ele><time>2026-05-01T14:39:25Z</time></trkpt><trkpt lat="44.79121536799921" lon="0.8807184139916747"><ele>241.8</ele><time>2026-05-01T14:39:26Z</time></trkpt><trkpt lat="44.791279453084684" lon="0.8806864304057926"><ele>241.6</ele><time>2026-05-01T14:39:27Z</time></trkpt><trkpt lat="44.79139768482584" lon="0.880623571738825"><ele>241.40000000000003</ele><time>2026-05-01T14:39:28Z</time></trkpt><trkpt lat="44.79150391750507" lon="0.8805810706039165"><ele>241.20000000000002</ele><time>2026-05-01T14:39:29Z</time></trkpt><trkpt lat="44.79161272781366" lon="0.8805142598797973"><ele>241.0</ele><time>2026-05-01T14:39:30Z</time></trkpt><trkpt lat="44.791728322741136" lon="0.8804432731989266"><ele>240.99999999999997</ele><time>2026-05-01T14:39:31Z</time></trkpt><trkpt lat="44.79179527857531" lon="0.8803833363315652"><ele>241.0</ele><time>2026-05-01T14:39:32Z</time></trkpt><trkpt lat="44.79187926906241" lon="0.8802985021620804"><ele>241.0</ele><time>2026-05-01T14:39:33Z</time></trkpt><trkpt lat="44.79196487053543" lon="0.8802740081602669"><ele>241.0</ele><time>2026-05-01T14:39:34Z</time></trkpt><trkpt lat="44.79204152423691" lon="0.8802422188839675"><ele>240.99999999999997</ele><time>2026-05-01T14:39:35Z</time></trkpt><trkpt lat="44.79209779040207" lon="0.8801525185548648"><ele>241.0</ele><time>2026-05-01T14:39:36Z</time></trkpt><trkpt lat="44.792149643284425" lon="0.8800500814377181"><ele>241.8</ele><time>2026-05-01T14:39:37Z</time></trkpt><trkpt lat="44.7922458704039" lon="0.8800045156572722"><ele>242.60000000000002</ele><time>2026-05-01T14:39:39Z</time></trkpt><trkpt lat="44.79231687102164" lon="0.8800062270515903"><ele>243.4</ele><time>2026-05-01T14:39:40Z</time></trkpt><trkpt lat="44.79242010447193" lon="0.8799956740338646"><ele>244.2</ele><time>2026-05-01T14:39:41Z</time></trkpt><trkpt lat="44.79254788750014" lon="0.8799953716213302"><ele>245.0</ele><time>2026-05-01T14:39:42Z</time></trkpt><trkpt lat="44.79266566512149" lon="0.8799585304222507"><ele>245.0</ele><time>2026-05-01T14:39:43Z</time></trkpt><trkpt lat="44.79276952488855" lon="0.8799345939011215"><ele>245.0</ele><time>2026-05-01T14:39:44Z</time></trkpt><trkpt lat="44.792871560740544" lon="0.8799136856665452"><ele>245.0</ele><time>2026-05-01T14:39:45Z</time></trkpt><trkpt lat="44.79295812513559" lon="0.8799034775889297"><ele>245.0</ele><time>2026-05-01T14:39:46Z</time></trkpt><trkpt lat="44.793034272420435" lon="0.8798926612819806"><ele>245.0</ele><time>2026-05-01T14:39:47Z</time></trkpt><trkpt lat="44.793095369921176" lon="0.880030812680299"><ele>245.00000000000003</ele><time>2026-05-01T14:39:51Z</time></trkpt><trkpt lat="44.79306674979165" lon="0.880148781163988"><ele>245.0</ele><time>2026-05-01T14:39:52Z</time></trkpt><trkpt lat="44.793043769341715" lon="0.8802580283372617"><ele>245.0</ele><time>2026-05-01T14:39:53Z</time></trkpt><trkpt lat="44.79301154160774" lon="0.8803739153092172"><ele>245.0</ele><time>2026-05-01T14:39:54Z</time></trkpt><trkpt lat="44.792990521314216" lon="0.8804634261248997"><ele>245.00000000000003</ele><time>2026-05-01T14:39:55Z</time></trkpt><trkpt lat="44.79300427667505" lon="0.8805647961411931"><ele>245.0</ele><time>2026-05-01T14:39:56Z</time></trkpt><trkpt lat="44.79303347709568" lon="0.8806711072657953"><ele>245.00000000000003</ele><time>2026-05-01T14:39:57Z</time></trkpt><trkpt lat="44.793028608743036" lon="0.880789927758735"><ele>245.0</ele><time>2026-05-01T14:39:58Z</time></trkpt><trkpt lat="44.79301537470492" lon="0.8808890365662119"><ele>245.0</ele><time>2026-05-01T14:39:59Z</time></trkpt><trkpt lat="44.7929976186795" lon="0.8809854541542423"><ele>245.0</ele><time>2026-05-01T14:40:00Z</time></trkpt><trkpt lat="44.79292927195321" lon="0.8811000246826438"><ele>245.00000000000003</ele><time>2026-05-01T14:40:02Z</time></trkpt><trkpt lat="44.7929516428011" lon="0.8812554201352713"><ele>245.0</ele><time>2026-05-01T14:40:04Z</time></trkpt><trkpt lat="44.792946258728485" lon="0.8814129326414369"><ele>244.66666666666669</ele><time>2026-05-01T14:40:06Z</time></trkpt><trkpt lat="44.79293440747235" lon="0.8815298787747329"><ele>244.33333333333334</ele><time>2026-05-01T14:40:07Z</time></trkpt><trkpt lat="44.79292864612592" lon="0.8816649411521155"><ele>244.0</ele><time>2026-05-01T14:40:08Z</time></trkpt><trkpt lat="44.7929126522276" lon="0.8817832035113294"><ele>243.66666666666669</ele><time>2026-05-01T14:40:09Z</time></trkpt><trkpt lat="44.792881901571654" lon="0.8819123935749285"><ele>243.33333333333334</ele><time>2026-05-01T14:40:10Z</time></trkpt><trkpt lat="44.79287536031497" lon="0.8820163690858377"><ele>243.0</ele><time>2026-05-01T14:40:11Z</time></trkpt><trkpt lat="44.792862267997485" lon="0.8821140623400429"><ele>242.25</ele><time>2026-05-01T14:40:12Z</time></trkpt><trkpt lat="44.79286207070485" lon="0.8822116954089165"><ele>241.5</ele><time>2026-05-01T14:40:13Z</time></trkpt><trkpt lat="44.79284151149677" lon="0.8824038195892788"><ele>240.75</ele><time>2026-05-01T14:40:14Z</time></trkpt><trkpt lat="44.792844125101624" lon="0.8825869847405439"><ele>240.0</ele><time>2026-05-01T14:40:15Z</time></trkpt><trkpt lat="44.7928407383706" lon="0.8827627391056134"><ele>239.33333333333334</ele><time>2026-05-01T14:40:16Z</time></trkpt><trkpt lat="44.79284041646004" lon="0.8829170161347549"><ele>238.66666666666669</ele><time>2026-05-01T14:40:17Z</time></trkpt><trkpt lat="44.792823270910645" lon="0.8830543791465634"><ele>238.0</ele><time>2026-05-01T14:40:18Z</time></trkpt><trkpt lat="44.79279323765805" lon="0.8831758301129691"><ele>237.33333333333334</ele><time>2026-05-01T14:40:19Z</time></trkpt><trkpt lat="44.79277436462666" lon="0.8832772281487673"><ele>236.66666666666669</ele><time>2026-05-01T14:40:20Z</time></trkpt><trkpt lat="44.79278137625314" lon="0.8833747664706163"><ele>236.0</ele><time>2026-05-01T14:40:21Z</time></trkpt><trkpt lat="44.79284696898639" lon="0.8835333657150636"><ele>235.8</ele><time>2026-05-01T14:40:23Z</time></trkpt><trkpt lat="44.79285135204418" lon="0.8837001323112094"><ele>235.60000000000002</ele><time>2026-05-01T14:40:25Z</time></trkpt><trkpt lat="44.792863151665664" lon="0.8838109012521135"><ele>235.4</ele><time>2026-05-01T14:40:26Z</time></trkpt><trkpt lat="44.792866457697734" lon="0.8839347023525418"><ele>235.2</ele><time>2026-05-01T14:40:27Z</time></trkpt><trkpt lat="44.79286071944026" lon="0.8840812373864647"><ele>235.0</ele><time>2026-05-01T14:40:28Z</time></trkpt><trkpt lat="44.79285374522075" lon="0.8842274532255993"><ele>234.75</ele><time>2026-05-01T14:40:29Z</time></trkpt><trkpt lat="44.792844603848465" lon="0.8843866909975103"><ele>234.5</ele><time>2026-05-01T14:40:30Z</time></trkpt><trkpt lat="44.79284524729582" lon="0.8845118573969789"><ele>234.25</ele><time>2026-05-01T14:40:31Z</time></trkpt><trkpt lat="44.792829347352864" lon="0.8847135232177056"><ele>234.0</ele><time>2026-05-01T14:40:32Z</time></trkpt><trkpt lat="44.792826508066206" lon="0.8848924205407656"><ele>234.0</ele><time>2026-05-01T14:40:33Z</time></trkpt><trkpt lat="44.7928194395383" lon="0.8850475509298448"><ele>233.99999999999997</ele><time>2026-05-01T14:40:34Z</time></trkpt><trkpt lat="44.79281739276914" lon="0.8851915618120304"><ele>233.99999999999997</ele><time>2026-05-01T14:40:35Z</time></trkpt><trkpt lat="44.79282535741053" lon="0.885343929405718"><ele>234.0</ele><time>2026-05-01T14:40:36Z</time></trkpt><trkpt lat="44.79283615218209" lon="0.8855147289540701"><ele>234.0</ele><time>2026-05-01T14:40:37Z</time></trkpt><trkpt lat="44.79285526388065" lon="0.8856325324394229"><ele>234.16666666666666</ele><time>2026-05-01T14:40:38Z</time></trkpt><trkpt lat="44.79288731593762" lon="0.8857489390817179"><ele>234.33333333333331</ele><time>2026-05-01T14:40:39Z</time></trkpt><trkpt lat="44.79290741670916" lon="0.885842685927668"><ele>234.5</ele><time>2026-05-01T14:40:40Z</time></trkpt><trkpt lat="44.792916288907" lon="0.8859374123304861"><ele>234.66666666666666</ele><time>2026-05-01T14:40:41Z</time></trkpt><trkpt lat="44.792938965626426" lon="0.8860590336998628"><ele>234.83333333333331</ele><time>2026-05-01T14:40:43Z</time></trkpt><trkpt lat="44.7930310686825" lon="0.8860938867458942"><ele>235.0</ele><time>2026-05-01T14:40:45Z</time></trkpt><trkpt lat="44.793111694339395" lon="0.8860844989121776"><ele>235.4</ele><time>2026-05-01T14:40:46Z</time></trkpt><trkpt lat="44.793205790637906" lon="0.886053427856699"><ele>235.8</ele><time>2026-05-01T14:40:47Z</time></trkpt><trkpt lat="44.793301086592514" lon="0.8860229373273625"><ele>236.2</ele><time>2026-05-01T14:40:48Z</time></trkpt><trkpt lat="44.79338709240328" lon="0.8860041060225402"><ele>236.6</ele><time>2026-05-01T14:40:49Z</time></trkpt><trkpt lat="44.79345163468886" lon="0.8860018665384685"><ele>237.0</ele><time>2026-05-01T14:40:50Z</time></trkpt><trkpt lat="44.79356314864636" lon="0.8859954397556304"><ele>237.0</ele><time>2026-05-01T14:40:52Z</time></trkpt><trkpt lat="44.79367580699947" lon="0.8859680658546544"><ele>237.0</ele><time>2026-05-01T14:40:54Z</time></trkpt><trkpt lat="44.79375649166821" lon="0.8859707728820151"><ele>237.0</ele><time>2026-05-01T14:40:55Z</time></trkpt><trkpt lat="44.79382124657423" lon="0.8859738560485044"><ele>237.0</ele><time>2026-05-01T14:40:56Z</time></trkpt><trkpt lat="44.793910809611916" lon="0.8859721014378505"><ele>237.0</ele><time>2026-05-01T14:40:58Z</time></trkpt><trkpt lat="44.79397132721636" lon="0.8860189192871345"><ele>237.0</ele><time>2026-05-01T14:40:59Z</time></trkpt><trkpt lat="44.79403147672899" lon="0.8862041877146749"><ele>237.0</ele><time>2026-05-01T14:41:01Z</time></trkpt><trkpt lat="44.79408595917735" lon="0.8863005802612134"><ele>237.0</ele><time>2026-05-01T14:41:02Z</time></trkpt><trkpt lat="44.79417129113845" lon="0.8863460472616062"><ele>237.0</ele><time>2026-05-01T14:41:03Z</time></trkpt><trkpt lat="44.794261012206846" lon="0.8864072559357665"><ele>237.0</ele><time>2026-05-01T14:41:04Z</time></trkpt><trkpt lat="44.794328345439844" lon="0.8864817231085873"><ele>237.0</ele><time>2026-05-01T14:41:05Z</time></trkpt><trkpt lat="44.794377690955585" lon="0.8866036707767936"><ele>237.16666666666666</ele><time>2026-05-01T14:41:06Z</time></trkpt><trkpt lat="44.794437600944086" lon="0.8866964615301595"><ele>237.33333333333331</ele><time>2026-05-01T14:41:07Z</time></trkpt><trkpt lat="44.79449626133121" lon="0.8867748853987043"><ele>237.5</ele><time>2026-05-01T14:41:08Z</time></trkpt><trkpt lat="44.79457456828003" lon="0.8868518820570704"><ele>237.66666666666666</ele><time>2026-05-01T14:41:09Z</time></trkpt><trkpt lat="44.794654524933755" lon="0.8869154809816644"><ele>237.83333333333331</ele><time>2026-05-01T14:41:10Z</time></trkpt><trkpt lat="44.79472287709907" lon="0.886989587947805"><ele>238.0</ele><time>2026-05-01T14:41:11Z</time></trkpt><trkpt lat="44.79476898091497" lon="0.8870598605259707"><ele>236.60000000000002</ele><time>2026-05-01T14:41:12Z</time></trkpt><trkpt lat="44.79483190465328" lon="0.8871215163407082"><ele>235.20000000000002</ele><time>2026-05-01T14:41:13Z</time></trkpt><trkpt lat="44.794914077236776" lon="0.8871818268004303"><ele>233.8</ele><time>2026-05-01T14:41:14Z</time></trkpt><trkpt lat="44.79498841964482" lon="0.8872702830867304"><ele>232.4</ele><time>2026-05-01T14:41:15Z</time></trkpt><trkpt lat="44.795104141673804" lon="0.8873372537609443"><ele>231.0</ele><time>2026-05-01T14:41:17Z</time></trkpt><trkpt lat="44.795180388276734" lon="0.8873868439742026"><ele>231.0</ele><time>2026-05-01T14:41:18Z</time></trkpt><trkpt lat="44.79525533011935" lon="0.8874088306794536"><ele>231.0</ele><time>2026-05-01T14:41:19Z</time></trkpt><trkpt lat="44.79532614837925" lon="0.8874643076558258"><ele>231.0</ele><time>2026-05-01T14:41:20Z</time></trkpt><trkpt lat="44.79539295175089" lon="0.8874984186479594"><ele>231.0</ele><time>2026-05-01T14:41:21Z</time></trkpt><trkpt lat="44.79542791852111" lon="0.8875887486912404"><ele>231.0</ele><time>2026-05-01T14:41:22Z</time></trkpt><trkpt lat="44.79553305742007" lon="0.8876928802222592"><ele>231.0</ele><time>2026-05-01T14:41:24Z</time></trkpt><trkpt lat="44.79560408712842" lon="0.887734478845873"><ele>230.16666666666666</ele><time>2026-05-01T14:41:25Z</time></trkpt><trkpt lat="44.795662324312325" lon="0.8878055576648307"><ele>229.33333333333331</ele><time>2026-05-01T14:41:26Z</time></trkpt><trkpt lat="44.795716500170094" lon="0.8878621199367599"><ele>228.5</ele><time>2026-05-01T14:41:27Z</time></trkpt><trkpt lat="44.79580327759805" lon="0.8879389266185169"><ele>227.66666666666666</ele><time>2026-05-01T14:41:28Z</time></trkpt><trkpt lat="44.79587186083331" lon="0.887992064858871"><ele>226.83333333333331</ele><time>2026-05-01T14:41:28.999Z</time></trkpt><trkpt lat="44.795929766592316" lon="0.8880887860048254"><ele>226.0</ele><time>2026-05-01T14:41:29.999Z</time></trkpt><trkpt lat="44.79599463634453" lon="0.888169576510918"><ele>226.4</ele><time>2026-05-01T14:41:30.999Z</time></trkpt><trkpt lat="44.79607450318718" lon="0.888232349657797"><ele>226.8</ele><time>2026-05-01T14:41:31.999Z</time></trkpt><trkpt lat="44.79616094230426" lon="0.8883531878827945"><ele>227.20000000000002</ele><time>2026-05-01T14:41:32.999Z</time></trkpt><trkpt lat="44.796232259767" lon="0.8884336578381534"><ele>227.60000000000002</ele><time>2026-05-01T14:41:33.999Z</time></trkpt><trkpt lat="44.796279205092084" lon="0.888505609135003"><ele>228.0</ele><time>2026-05-01T14:41:34.999Z</time></trkpt><trkpt lat="44.79631027645645" lon="0.8886275060569553"><ele>226.83333333333334</ele><time>2026-05-01T14:41:36.999Z</time></trkpt><trkpt lat="44.796360810580836" lon="0.8886851367770587"><ele>225.66666666666669</ele><time>2026-05-01T14:41:38.999Z</time></trkpt><trkpt lat="44.79644092060509" lon="0.8887639887145024"><ele>224.5</ele><time>2026-05-01T14:41:48.999Z</time></trkpt><trkpt lat="44.79651436974059" lon="0.8888039165443933"><ele>223.33333333333334</ele><time>2026-05-01T14:41:49.999Z</time></trkpt><trkpt lat="44.796572740596396" lon="0.888890376090264"><ele>222.16666666666669</ele><time>2026-05-01T14:41:50.999Z</time></trkpt><trkpt lat="44.796663896230285" lon="0.8889444574169213"><ele>221.0</ele><time>2026-05-01T14:41:51.999Z</time></trkpt><trkpt lat="44.79672236982012" lon="0.8890185412939671"><ele>221.0</ele><time>2026-05-01T14:41:53Z</time></trkpt><trkpt lat="44.796794327713165" lon="0.8891413101396916"><ele>221.00000000000003</ele><time>2026-05-01T14:41:55Z</time></trkpt><trkpt lat="44.796854017708284" lon="0.8892110232628613"><ele>221.00000000000003</ele><time>2026-05-01T14:41:56Z</time></trkpt><trkpt lat="44.796907939249884" lon="0.8892676747980648"><ele>221.0</ele><time>2026-05-01T14:41:57Z</time></trkpt><trkpt lat="44.796972914302245" lon="0.8893903364546579"><ele>221.0</ele><time>2026-05-01T14:41:59Z</time></trkpt><trkpt lat="44.79708237420849" lon="0.8894527664186652"><ele>220.0</ele><time>2026-05-01T14:42:01Z</time></trkpt><trkpt lat="44.79715245558701" lon="0.8894792280999635"><ele>219.00000000000003</ele><time>2026-05-01T14:42:02Z</time></trkpt><trkpt lat="44.79720280877465" lon="0.8896132265773428"><ele>218.00000000000003</ele><time>2026-05-01T14:42:04Z</time></trkpt><trkpt lat="44.79729385577353" lon="0.8897285836718996"><ele>217.0</ele><time>2026-05-01T14:42:06Z</time></trkpt><trkpt lat="44.797377930404366" lon="0.8898492497267637"><ele>216.0</ele><time>2026-05-01T14:42:08Z</time></trkpt><trkpt lat="44.79746546192955" lon="0.8899023620001155"><ele>216.0</ele><time>2026-05-01T14:42:09Z</time></trkpt><trkpt lat="44.79756372925858" lon="0.8899736653935204"><ele>216.00000000000003</ele><time>2026-05-01T14:42:10Z</time></trkpt><trkpt lat="44.79764305950124" lon="0.8900487445075804"><ele>216.00000000000003</ele><time>2026-05-01T14:42:11Z</time></trkpt><trkpt lat="44.79771998154606" lon="0.8900724298193508"><ele>216.0</ele><time>2026-05-01T14:42:13Z</time></trkpt><trkpt lat="44.79781286492449" lon="0.8900366272410397"><ele>216.0</ele><time>2026-05-01T14:42:15Z</time></trkpt><trkpt lat="44.79788906234645" lon="0.8900166914251173"><ele>216.20000000000002</ele><time>2026-05-01T14:42:16Z</time></trkpt><trkpt lat="44.79797474103139" lon="0.8899853945735396"><ele>216.40000000000003</ele><time>2026-05-01T14:42:17Z</time></trkpt><trkpt lat="44.79807361042487" lon="0.8899414351705537"><ele>216.6</ele><time>2026-05-01T14:42:18Z</time></trkpt><trkpt lat="44.798189951339666" lon="0.8898828186250994"><ele>216.8</ele><time>2026-05-01T14:42:19Z</time></trkpt><trkpt lat="44.79829504422735" lon="0.8898236578974664"><ele>217.0</ele><time>2026-05-01T14:42:20Z</time></trkpt><trkpt lat="44.7983977655142" lon="0.88973220011175"><ele>217.0</ele><time>2026-05-01T14:42:21Z</time></trkpt><trkpt lat="44.79847849119068" lon="0.889629993463399"><ele>217.0</ele><time>2026-05-01T14:42:22Z</time></trkpt><trkpt lat="44.79855922051252" lon="0.8895354576944657"><ele>217.0</ele><time>2026-05-01T14:42:23Z</time></trkpt><trkpt lat="44.79862799979539" lon="0.8894726662072384"><ele>217.0</ele><time>2026-05-01T14:42:24Z</time></trkpt><trkpt lat="44.798701476737826" lon="0.889419953865417"><ele>217.0</ele><time>2026-05-01T14:42:25Z</time></trkpt><trkpt lat="44.79876240741724" lon="0.889349190647573"><ele>216.83333333333331</ele><time>2026-05-01T14:42:26Z</time></trkpt><trkpt lat="44.79881812541189" lon="0.8892771573216082"><ele>216.66666666666666</ele><time>2026-05-01T14:42:27Z</time></trkpt><trkpt lat="44.79888139650906" lon="0.8892017070893881"><ele>216.5</ele><time>2026-05-01T14:42:28Z</time></trkpt><trkpt lat="44.798963709987284" lon="0.8891175233818824"><ele>216.33333333333331</ele><time>2026-05-01T14:42:29Z</time></trkpt><trkpt lat="44.79903975480949" lon="0.8890184071581946"><ele>216.16666666666666</ele><time>2026-05-01T14:42:30Z</time></trkpt><trkpt lat="44.79900632411436" lon="0.8891285454990034"><ele>216.0</ele><time>2026-05-01T14:42:43Z</time></trkpt><trkpt lat="44.79906474721847" lon="0.8892033284352345"><ele>214.60000000000002</ele><time>2026-05-01T14:42:45Z</time></trkpt><trkpt lat="44.79916128746596" lon="0.8892148838541868"><ele>213.20000000000002</ele><time>2026-05-01T14:42:51Z</time></trkpt><trkpt lat="44.79923013938314" lon="0.8892039577569463"><ele>211.8</ele><time>2026-05-01T14:42:52Z</time></trkpt><trkpt lat="44.79930932168339" lon="0.8892328677358302"><ele>210.39999999999998</ele><time>2026-05-01T14:42:53Z</time></trkpt><trkpt lat="44.799438329009" lon="0.8893235214838306"><ele>209.0</ele><time>2026-05-01T14:42:55Z</time></trkpt><trkpt lat="44.79951318204898" lon="0.8893938469785996"><ele>209.0</ele><time>2026-05-01T14:42:56Z</time></trkpt><trkpt lat="44.799571885465404" lon="0.8894776007706852"><ele>209.0</ele><time>2026-05-01T14:42:57Z</time></trkpt><trkpt lat="44.79962961810947" lon="0.8895710592378908"><ele>209.0</ele><time>2026-05-01T14:42:58Z</time></trkpt><trkpt lat="44.7997019013305" lon="0.8896840135141731"><ele>209.0</ele><time>2026-05-01T14:42:59Z</time></trkpt><trkpt lat="44.79977784833577" lon="0.8898026052549317"><ele>209.0</ele><time>2026-05-01T14:43:00Z</time></trkpt><trkpt lat="44.799865444205714" lon="0.8899159608208999"><ele>209.0</ele><time>2026-05-01T14:43:01Z</time></trkpt><trkpt lat="44.799952753896875" lon="0.8900438315155806"><ele>209.0</ele><time>2026-05-01T14:43:02Z</time></trkpt><trkpt lat="44.800045709503394" lon="0.8902023584159335"><ele>209.0</ele><time>2026-05-01T14:43:03Z</time></trkpt><trkpt lat="44.80013559346381" lon="0.8903376844747494"><ele>209.0</ele><time>2026-05-01T14:43:04Z</time></trkpt><trkpt lat="44.80023635578583" lon="0.8904774954322012"><ele>211.5</ele><time>2026-05-01T14:43:05Z</time></trkpt><trkpt lat="44.80032556600544" lon="0.8906220335016535"><ele>214.0</ele><time>2026-05-01T14:43:06Z</time></trkpt><trkpt lat="44.80041518960773" lon="0.890748222377473"><ele>216.5</ele><time>2026-05-01T14:43:07Z</time></trkpt><trkpt lat="44.80050358402184" lon="0.8908650144107119"><ele>219.0</ele><time>2026-05-01T14:43:08Z</time></trkpt><trkpt lat="44.800562282702714" lon="0.8909606462819094"><ele>221.0</ele><time>2026-05-01T14:43:09Z</time></trkpt><trkpt lat="44.80063605213584" lon="0.891071097695996"><ele>222.99999999999997</ele><time>2026-05-01T14:43:10Z</time></trkpt><trkpt lat="44.800707857898246" lon="0.8911658011734372"><ele>224.99999999999997</ele><time>2026-05-01T14:43:11Z</time></trkpt><trkpt lat="44.80078054553342" lon="0.8912612876861116"><ele>227.0</ele><time>2026-05-01T14:43:12Z</time></trkpt><trkpt lat="44.800831334768255" lon="0.8913212432423557"><ele>229.0</ele><time>2026-05-01T14:43:13Z</time></trkpt><trkpt lat="44.800918877855025" lon="0.891319764778027"><ele>228.99999999999997</ele><time>2026-05-01T14:43:15Z</time></trkpt><trkpt lat="44.80099087580675" lon="0.8912780762025323"><ele>229.0</ele><time>2026-05-01T14:43:16Z</time></trkpt><trkpt lat="44.801063525452975" lon="0.8912723583811284"><ele>229.0</ele><time>2026-05-01T14:43:17Z</time></trkpt><trkpt lat="44.80113313858095" lon="0.8912971001527148"><ele>229.0</ele><time>2026-05-01T14:43:18Z</time></trkpt><trkpt lat="44.8012378265" lon="0.8914065133250474"><ele>228.99999999999997</ele><time>2026-05-01T14:43:20Z</time></trkpt><trkpt lat="44.80126924214041" lon="0.8915156781205827"><ele>229.0</ele><time>2026-05-01T14:43:21Z</time></trkpt><trkpt lat="44.801301985311646" lon="0.8916295405889675"><ele>229.49999999999997</ele><time>2026-05-01T14:43:22Z</time></trkpt><trkpt lat="44.801322061138364" lon="0.8917299627265296"><ele>230.0</ele><time>2026-05-01T14:43:23Z</time></trkpt><trkpt lat="44.80135525213786" lon="0.8918229262121549"><ele>230.5</ele><time>2026-05-01T14:43:24Z</time></trkpt><trkpt lat="44.801349101340264" lon="0.8919514334423881"><ele>231.0</ele><time>2026-05-01T14:43:26Z</time></trkpt><trkpt lat="44.80129945245031" lon="0.892015189190115"><ele>231.49999999999997</ele><time>2026-05-01T14:43:27Z</time></trkpt><trkpt lat="44.80122998697768" lon="0.8920835910285068"><ele>232.0</ele><time>2026-05-01T14:43:28Z</time></trkpt><trkpt lat="44.80118788562265" lon="0.8921499237997028"><ele>232.99999999999997</ele><time>2026-05-01T14:43:29Z</time></trkpt><trkpt lat="44.80118884527398" lon="0.8922635612664642"><ele>234.0</ele><time>2026-05-01T14:43:31Z</time></trkpt><trkpt lat="44.80126493417856" lon="0.8923435186951538"><ele>235.0</ele><time>2026-05-01T14:43:33Z</time></trkpt><trkpt lat="44.80132289354375" lon="0.8924109149181364"><ele>236.0</ele><time>2026-05-01T14:43:34Z</time></trkpt><trkpt lat="44.80138258354703" lon="0.8924934872117465"><ele>236.99999999999997</ele><time>2026-05-01T14:43:35Z</time></trkpt><trkpt lat="44.80144488887985" lon="0.8925968275792843"><ele>238.0</ele><time>2026-05-01T14:43:36Z</time></trkpt><trkpt lat="44.80151106671532" lon="0.8926859589389882"><ele>238.4</ele><time>2026-05-01T14:43:37Z</time></trkpt><trkpt lat="44.80157782342518" lon="0.892769142395879"><ele>238.8</ele><time>2026-05-01T14:43:38Z</time></trkpt><trkpt lat="44.80165055258744" lon="0.8928358853713463"><ele>239.2</ele><time>2026-05-01T14:43:39Z</time></trkpt><trkpt lat="44.80175548464237" lon="0.8929041515781946"><ele>239.6</ele><time>2026-05-01T14:43:40Z</time></trkpt><trkpt lat="44.80184294645557" lon="0.8929952714199173"><ele>240.0</ele><time>2026-05-01T14:43:41Z</time></trkpt><trkpt lat="44.801909590542074" lon="0.893086969477958"><ele>240.33333333333334</ele><time>2026-05-01T14:43:42Z</time></trkpt><trkpt lat="44.801976866418684" lon="0.8931486583575219"><ele>240.66666666666669</ele><time>2026-05-01T14:43:43Z</time></trkpt><trkpt lat="44.80206183655191" lon="0.893188755778197"><ele>241.0</ele><time>2026-05-01T14:43:44Z</time></trkpt><trkpt lat="44.80214920476321" lon="0.8932044671737904"><ele>241.33333333333334</ele><time>2026-05-01T14:43:45Z</time></trkpt><trkpt lat="44.802233542626645" lon="0.8932283121703284"><ele>241.66666666666669</ele><time>2026-05-01T14:43:46Z</time></trkpt><trkpt lat="44.80230812659221" lon="0.8932119586885112"><ele>242.0</ele><time>2026-05-01T14:43:47Z</time></trkpt><trkpt lat="44.80235536927317" lon="0.8931407907244847"><ele>242.0</ele><time>2026-05-01T14:43:49Z</time></trkpt><trkpt lat="44.80238778655303" lon="0.8930563198376777"><ele>242.0</ele><time>2026-05-01T14:43:50Z</time></trkpt><trkpt lat="44.802424770411506" lon="0.8929271369189768"><ele>242.0</ele><time>2026-05-01T14:43:51Z</time></trkpt><trkpt lat="44.802480633590264" lon="0.8927945646881755"><ele>242.0</ele><time>2026-05-01T14:43:52Z</time></trkpt><trkpt lat="44.80255559431905" lon="0.8926695895754513"><ele>242.0</ele><time>2026-05-01T14:43:53Z</time></trkpt><trkpt lat="44.802628013750585" lon="0.892534783792703"><ele>242.25</ele><time>2026-05-01T14:43:54Z</time></trkpt><trkpt lat="44.80270329010821" lon="0.8924125208792132"><ele>242.5</ele><time>2026-05-01T14:43:55Z</time></trkpt><trkpt lat="44.802780756356505" lon="0.892275562306586"><ele>242.75</ele><time>2026-05-01T14:43:56Z</time></trkpt><trkpt lat="44.80286529624514" lon="0.8921293969459774"><ele>243.0</ele><time>2026-05-01T14:43:57Z</time></trkpt><trkpt lat="44.80294165486867" lon="0.8919997749861925"><ele>243.0</ele><time>2026-05-01T14:43:58Z</time></trkpt><trkpt lat="44.8030082789616" lon="0.8918398482264606"><ele>243.0</ele><time>2026-05-01T14:43:59Z</time></trkpt><trkpt lat="44.80307591778298" lon="0.8916743870196413"><ele>243.0</ele><time>2026-05-01T14:44:00Z</time></trkpt><trkpt lat="44.803128201673054" lon="0.8915518797764401"><ele>243.0</ele><time>2026-05-01T14:44:01Z</time></trkpt><trkpt lat="44.8031845816192" lon="0.8914300810169202"><ele>243.0</ele><time>2026-05-01T14:44:02Z</time></trkpt><trkpt lat="44.80324033735059" lon="0.8913284206332533"><ele>243.0</ele><time>2026-05-01T14:44:03Z</time></trkpt><trkpt lat="44.80334321114194" lon="0.8911630257768443"><ele>243.0</ele><time>2026-05-01T14:44:04Z</time></trkpt><trkpt lat="44.803445887650696" lon="0.8910083316568023"><ele>243.0</ele><time>2026-05-01T14:44:05Z</time></trkpt><trkpt lat="44.80351351563514" lon="0.8908564895610076"><ele>243.0</ele><time>2026-05-01T14:44:06Z</time></trkpt><trkpt lat="44.8035684997312" lon="0.8907186949553432"><ele>243.0</ele><time>2026-05-01T14:44:07Z</time></trkpt><trkpt lat="44.80361909231796" lon="0.8905565628590705"><ele>243.0</ele><time>2026-05-01T14:44:08Z</time></trkpt><trkpt lat="44.80368770709659" lon="0.8903923350067131"><ele>243.0</ele><time>2026-05-01T14:44:09Z</time></trkpt><trkpt lat="44.80377315703071" lon="0.8902315427660268"><ele>243.0</ele><time>2026-05-01T14:44:10Z</time></trkpt><trkpt lat="44.80385111741896" lon="0.8901061270949817"><ele>243.0</ele><time>2026-05-01T14:44:11Z</time></trkpt><trkpt lat="44.80392587229671" lon="0.8899810288521534"><ele>243.0</ele><time>2026-05-01T14:44:12Z</time></trkpt><trkpt lat="44.80401900651278" lon="0.8898478179164234"><ele>243.0</ele><time>2026-05-01T14:44:13Z</time></trkpt><trkpt lat="44.80411207554083" lon="0.8897451675425985"><ele>242.75</ele><time>2026-05-01T14:44:14Z</time></trkpt><trkpt lat="44.80421398677142" lon="0.8896416371766158"><ele>242.5</ele><time>2026-05-01T14:44:15Z</time></trkpt><trkpt lat="44.80431558643589" lon="0.8895632922588745"><ele>242.25</ele><time>2026-05-01T14:44:16Z</time></trkpt><trkpt lat="44.804429315904684" lon="0.8894843070087461"><ele>242.0</ele><time>2026-05-01T14:44:17Z</time></trkpt><trkpt lat="44.80454651484838" lon="0.8894191714600783"><ele>242.25</ele><time>2026-05-01T14:44:18Z</time></trkpt><trkpt lat="44.80465944259466" lon="0.8893454174932973"><ele>242.5</ele><time>2026-05-01T14:44:19Z</time></trkpt><trkpt lat="44.804770174477625" lon="0.8892908441086413"><ele>242.75</ele><time>2026-05-01T14:44:20Z</time></trkpt><trkpt lat="44.8048443694194" lon="0.8891992737318706"><ele>243.0</ele><time>2026-05-01T14:44:21Z</time></trkpt><trkpt lat="44.80492902801646" lon="0.8891021061015616"><ele>243.0</ele><time>2026-05-01T14:44:22Z</time></trkpt><trkpt lat="44.80504748751605" lon="0.8889635198442566"><ele>243.0</ele><time>2026-05-01T14:44:23Z</time></trkpt><trkpt lat="44.80512610496679" lon="0.8888311411684889"><ele>243.0</ele><time>2026-05-01T14:44:24Z</time></trkpt><trkpt lat="44.8052215653367" lon="0.8887419593249721"><ele>243.0</ele><time>2026-05-01T14:44:25Z</time></trkpt><trkpt lat="44.80530721438377" lon="0.8886538442227637"><ele>243.0</ele><time>2026-05-01T14:44:26Z</time></trkpt><trkpt lat="44.80538016829242" lon="0.8885966841642923"><ele>243.0</ele><time>2026-05-01T14:44:27Z</time></trkpt><trkpt lat="44.80546044162669" lon="0.8885525277783436"><ele>243.0</ele><time>2026-05-01T14:44:28Z</time></trkpt><trkpt lat="44.805505222021196" lon="0.8884824393160083"><ele>243.0</ele><time>2026-05-01T14:44:29Z</time></trkpt><trkpt lat="44.80556314226694" lon="0.8883472405318632"><ele>243.0</ele><time>2026-05-01T14:44:30Z</time></trkpt><trkpt lat="44.80558967677661" lon="0.8882375791223796"><ele>243.0</ele><time>2026-05-01T14:44:31Z</time></trkpt><trkpt lat="44.80560506681045" lon="0.8881511451368631"><ele>243.0</ele><time>2026-05-01T14:44:32Z</time></trkpt><trkpt lat="44.80566957573472" lon="0.8880177114520365"><ele>243.0</ele><time>2026-05-01T14:44:34Z</time></trkpt><trkpt lat="44.80571519066912" lon="0.8879287225754746"><ele>243.0</ele><time>2026-05-01T14:44:35Z</time></trkpt><trkpt lat="44.80575126327121" lon="0.8878523630936439"><ele>243.0</ele><time>2026-05-01T14:44:36Z</time></trkpt><trkpt lat="44.80583525861221" lon="0.8877504254369961"><ele>243.0</ele><time>2026-05-01T14:44:37Z</time></trkpt><trkpt lat="44.80592849775988" lon="0.8876809932607175"><ele>242.66666666666666</ele><time>2026-05-01T14:44:38Z</time></trkpt><trkpt lat="44.805976460266656" lon="0.8875933272166054"><ele>242.33333333333331</ele><time>2026-05-01T14:44:39Z</time></trkpt><trkpt lat="44.80601615739678" lon="0.8875211145105065"><ele>242.0</ele><time>2026-05-01T14:44:40Z</time></trkpt><trkpt lat="44.80608837613033" lon="0.887441304380205"><ele>241.66666666666666</ele><time>2026-05-01T14:44:41Z</time></trkpt><trkpt lat="44.80616158539109" lon="0.8873763267666108"><ele>241.33333333333331</ele><time>2026-05-01T14:44:42Z</time></trkpt><trkpt lat="44.80622012621985" lon="0.8873094748406758"><ele>241.0</ele><time>2026-05-01T14:44:43Z</time></trkpt><trkpt lat="44.80626205336106" lon="0.8872319776393092"><ele>241.0</ele><time>2026-05-01T14:44:44Z</time></trkpt><trkpt lat="44.806300001028504" lon="0.8870393747188167"><ele>241.00000000000003</ele><time>2026-05-01T14:44:46Z</time></trkpt><trkpt lat="44.80627772152233" lon="0.8869408020317623"><ele>241.00000000000003</ele><time>2026-05-01T14:44:47Z</time></trkpt><trkpt lat="44.80625722889426" lon="0.8868082301111523"><ele>241.0</ele><time>2026-05-01T14:44:49Z</time></trkpt><trkpt lat="44.806247139310585" lon="0.8866363696849103"><ele>241.0</ele><time>2026-05-01T14:44:51Z</time></trkpt><trkpt lat="44.80627320675638" lon="0.8864417602587187"><ele>240.0</ele><time>2026-05-01T14:44:53Z</time></trkpt><trkpt lat="44.8063370342293" lon="0.8862995622832854"><ele>239.0</ele><time>2026-05-01T14:44:55Z</time></trkpt><trkpt lat="44.806412914045644" lon="0.8861988728599323"><ele>238.0</ele><time>2026-05-01T14:44:57Z</time></trkpt><trkpt lat="44.80652537575304" lon="0.8861923752950057"><ele>237.0</ele><time>2026-05-01T14:44:59Z</time></trkpt><trkpt lat="44.806637266364596" lon="0.886241545661286"><ele>237.0</ele><time>2026-05-01T14:45:01Z</time></trkpt><trkpt lat="44.80669274192488" lon="0.8862869270396826"><ele>237.0</ele><time>2026-05-01T14:45:02Z</time></trkpt><trkpt lat="44.80684508779919" lon="0.8863271819768926"><ele>237.0</ele><time>2026-05-01T14:45:04Z</time></trkpt><trkpt lat="44.80694330896716" lon="0.8863730168809982"><ele>237.0</ele><time>2026-05-01T14:45:05Z</time></trkpt><trkpt lat="44.80701182436605" lon="0.8863844088121241"><ele>237.0</ele><time>2026-05-01T14:45:06Z</time></trkpt><trkpt lat="44.80705210710251" lon="0.8863117395202511"><ele>236.0</ele><time>2026-05-01T14:45:08Z</time></trkpt><trkpt lat="44.80701586296575" lon="0.8861544550553294"><ele>235.0</ele><time>2026-05-01T14:45:10Z</time></trkpt><trkpt lat="44.80699921199385" lon="0.886050604200814"><ele>234.0</ele><time>2026-05-01T14:45:11Z</time></trkpt><trkpt lat="44.806983177924245" lon="0.8859100420704873"><ele>233.0</ele><time>2026-05-01T14:45:12Z</time></trkpt><trkpt lat="44.80696909884717" lon="0.8857804984470865"><ele>232.0</ele><time>2026-05-01T14:45:13Z</time></trkpt><trkpt lat="44.806942811274126" lon="0.8856398370715916"><ele>231.49999999999997</ele><time>2026-05-01T14:45:14Z</time></trkpt><trkpt lat="44.80692000389087" lon="0.8855233061452125"><ele>231.0</ele><time>2026-05-01T14:45:15Z</time></trkpt><trkpt lat="44.80688463161835" lon="0.8854051775790411"><ele>230.5</ele><time>2026-05-01T14:45:16Z</time></trkpt><trkpt lat="44.80684685289721" lon="0.8852821468685116"><ele>230.0</ele><time>2026-05-01T14:45:17Z</time></trkpt><trkpt lat="44.806803235083315" lon="0.8851736836772139"><ele>229.49999999999997</ele><time>2026-05-01T14:45:18Z</time></trkpt><trkpt lat="44.80676576476069" lon="0.8850943216238074"><ele>229.0</ele><time>2026-05-01T14:45:19Z</time></trkpt><trkpt lat="44.80670178207694" lon="0.885013971160915"><ele>226.79999999999998</ele><time>2026-05-01T14:45:20Z</time></trkpt><trkpt lat="44.80661914731424" lon="0.8849524943680888"><ele>224.59999999999997</ele><time>2026-05-01T14:45:21Z</time></trkpt><trkpt lat="44.80653058134459" lon="0.8848726783026476"><ele>222.4</ele><time>2026-05-01T14:45:22Z</time></trkpt><trkpt lat="44.80643192929886" lon="0.8848307137891707"><ele>220.2</ele><time>2026-05-01T14:45:23Z</time></trkpt><trkpt lat="44.80634597050141" lon="0.8848088766323708"><ele>218.0</ele><time>2026-05-01T14:45:24Z</time></trkpt><trkpt lat="44.80627207962442" lon="0.8847804977892103"><ele>218.00000000000003</ele><time>2026-05-01T14:45:25Z</time></trkpt><trkpt lat="44.8062028435353" lon="0.8847401451361732"><ele>218.0</ele><time>2026-05-01T14:45:26Z</time></trkpt><trkpt lat="44.80614606804707" lon="0.8846871966282942"><ele>218.0</ele><time>2026-05-01T14:45:27Z</time></trkpt><trkpt lat="44.806113706322414" lon="0.8845904077118961"><ele>218.0</ele><time>2026-05-01T14:45:28Z</time></trkpt><trkpt lat="44.80609735904953" lon="0.8844472705970071"><ele>218.00000000000003</ele><time>2026-05-01T14:45:29Z</time></trkpt><trkpt lat="44.80610356030364" lon="0.884303719323824"><ele>218.0</ele><time>2026-05-01T14:45:30Z</time></trkpt><trkpt lat="44.806081403075424" lon="0.8841609893380833"><ele>217.00000000000003</ele><time>2026-05-01T14:45:31Z</time></trkpt><trkpt lat="44.806048163267604" lon="0.8840211097061372"><ele>216.0</ele><time>2026-05-01T14:45:32Z</time></trkpt><trkpt lat="44.806018972529024" lon="0.8839127708365272"><ele>215.0</ele><time>2026-05-01T14:45:33Z</time></trkpt><trkpt lat="44.80600366881748" lon="0.8837953821759693"><ele>214.0</ele><time>2026-05-01T14:45:34Z</time></trkpt><trkpt lat="44.805986650951844" lon="0.8836582574155528"><ele>213.00000000000003</ele><time>2026-05-01T14:45:35Z</time></trkpt><trkpt lat="44.80597572072082" lon="0.8835532166266946"><ele>212.0</ele><time>2026-05-01T14:45:36Z</time></trkpt><trkpt lat="44.805985749279216" lon="0.8834325391044685"><ele>210.8</ele><time>2026-05-01T14:45:37Z</time></trkpt><trkpt lat="44.806015540606744" lon="0.8833149311448486"><ele>209.6</ele><time>2026-05-01T14:45:38Z</time></trkpt><trkpt lat="44.806051681607066" lon="0.8831817645651564"><ele>208.4</ele><time>2026-05-01T14:45:39Z</time></trkpt><trkpt lat="44.80608048296238" lon="0.883044250578451"><ele>207.20000000000002</ele><time>2026-05-01T14:45:40Z</time></trkpt><trkpt lat="44.80609744207092" lon="0.882936967630428"><ele>206.0</ele><time>2026-05-01T14:45:41Z</time></trkpt><trkpt lat="44.806086708277725" lon="0.8828140875807198"><ele>206.00000000000003</ele><time>2026-05-01T14:45:42Z</time></trkpt><trkpt lat="44.80609220450201" lon="0.8827054794662292"><ele>206.0</ele><time>2026-05-01T14:45:43Z</time></trkpt><trkpt lat="44.80610931431997" lon="0.882611860602101"><ele>206.0</ele><time>2026-05-01T14:45:44Z</time></trkpt><trkpt lat="44.806139804663715" lon="0.8824893135230123"><ele>206.0</ele><time>2026-05-01T14:45:45Z</time></trkpt><trkpt lat="44.80619984973186" lon="0.8823681960214215"><ele>206.00000000000003</ele><time>2026-05-01T14:45:46Z</time></trkpt><trkpt lat="44.806251586968116" lon="0.882248406461921"><ele>206.0</ele><time>2026-05-01T14:45:47Z</time></trkpt><trkpt lat="44.80629750875154" lon="0.8821172320229586"><ele>204.4</ele><time>2026-05-01T14:45:48Z</time></trkpt><trkpt lat="44.806323217921204" lon="0.8820360977683696"><ele>202.8</ele><time>2026-05-01T14:45:49Z</time></trkpt><trkpt lat="44.80633063900993" lon="0.8819041110943672"><ele>201.20000000000002</ele><time>2026-05-01T14:45:50Z</time></trkpt><trkpt lat="44.80633377727262" lon="0.881753548952527"><ele>199.60000000000002</ele><time>2026-05-01T14:45:51Z</time></trkpt><trkpt lat="44.806338426087635" lon="0.8815837722186574"><ele>198.0</ele><time>2026-05-01T14:45:52Z</time></trkpt><trkpt lat="44.806346179439814" lon="0.881406451831556"><ele>196.4</ele><time>2026-05-01T14:45:53Z</time></trkpt><trkpt lat="44.80635033732611" lon="0.8812563513238414"><ele>194.8</ele><time>2026-05-01T14:45:54Z</time></trkpt><trkpt lat="44.80635148732206" lon="0.8811099890869595"><ele>193.2</ele><time>2026-05-01T14:45:55Z</time></trkpt><trkpt lat="44.80636778851122" lon="0.8810108516002192"><ele>191.6</ele><time>2026-05-01T14:45:56Z</time></trkpt><trkpt lat="44.80637154822153" lon="0.8809033465943436"><ele>190.0</ele><time>2026-05-01T14:45:57Z</time></trkpt><trkpt lat="44.80637777067086" lon="0.8807389804264817"><ele>188.0</ele><time>2026-05-01T14:45:59Z</time></trkpt><trkpt lat="44.8064063241664" lon="0.8806553863041224"><ele>186.0</ele><time>2026-05-01T14:46:00Z</time></trkpt><trkpt lat="44.80645295497452" lon="0.8805455700852891"><ele>184.0</ele><time>2026-05-01T14:46:01Z</time></trkpt><trkpt lat="44.80653302459391" lon="0.8804391800420416"><ele>182.0</ele><time>2026-05-01T14:46:02Z</time></trkpt><trkpt lat="44.806604453430644" lon="0.8803586031414515"><ele>180.0</ele><time>2026-05-01T14:46:03Z</time></trkpt><trkpt lat="44.80667524929801" lon="0.8802615225048728"><ele>180.0</ele><time>2026-05-01T14:46:04Z</time></trkpt><trkpt lat="44.80673008290284" lon="0.8801725229357175"><ele>180.0</ele><time>2026-05-01T14:46:05Z</time></trkpt><trkpt lat="44.806783963210336" lon="0.8800890081681626"><ele>180.0</ele><time>2026-05-01T14:46:06Z</time></trkpt><trkpt lat="44.80682256644817" lon="0.8800048210999253"><ele>180.0</ele><time>2026-05-01T14:46:07Z</time></trkpt><trkpt lat="44.80686311860116" lon="0.8799201355919991"><ele>180.0</ele><time>2026-05-01T14:46:08Z</time></trkpt><trkpt lat="44.80690532490893" lon="0.8798309853397883"><ele>180.0</ele><time>2026-05-01T14:46:09Z</time></trkpt><trkpt lat="44.8069557694073" lon="0.8796994464234486"><ele>178.6</ele><time>2026-05-01T14:46:11Z</time></trkpt><trkpt lat="44.8070258490293" lon="0.8796051252428797"><ele>177.2</ele><time>2026-05-01T14:46:13Z</time></trkpt><trkpt lat="44.807044493346396" lon="0.8794992031679378"><ele>175.8</ele><time>2026-05-01T14:46:15Z</time></trkpt><trkpt lat="44.807164200550176" lon="0.879424128035611"><ele>174.4</ele><time>2026-05-01T14:46:17Z</time></trkpt><trkpt lat="44.8072457578818" lon="0.8794004849374214"><ele>173.0</ele><time>2026-05-01T14:46:18Z</time></trkpt><trkpt lat="44.807323502478305" lon="0.879374976077079"><ele>173.0</ele><time>2026-05-01T14:46:19Z</time></trkpt><trkpt lat="44.807386605120506" lon="0.8793256219771738"><ele>173.0</ele><time>2026-05-01T14:46:20Z</time></trkpt><trkpt lat="44.8074553970092" lon="0.8792528737880466"><ele>173.0</ele><time>2026-05-01T14:46:21Z</time></trkpt><trkpt lat="44.80751060936715" lon="0.8791945273282028"><ele>173.0</ele><time>2026-05-01T14:46:22Z</time></trkpt><trkpt lat="44.80756828530378" lon="0.8791481609716052"><ele>173.0</ele><time>2026-05-01T14:46:23Z</time></trkpt><trkpt lat="44.807666552177565" lon="0.8790608121777784"><ele>173.0</ele><time>2026-05-01T14:46:25Z</time></trkpt><trkpt lat="44.807751708119646" lon="0.8790061888165849"><ele>169.4</ele><time>2026-05-01T14:46:27Z</time></trkpt><trkpt lat="44.807807242568394" lon="0.8789557190794934"><ele>165.8</ele><time>2026-05-01T14:46:29Z</time></trkpt><trkpt lat="44.807916339328465" lon="0.878919808190147"><ele>162.2</ele><time>2026-05-01T14:46:32Z</time></trkpt><trkpt lat="44.808045687564224" lon="0.8789339420574781"><ele>158.6</ele><time>2026-05-01T14:46:34Z</time></trkpt><trkpt lat="44.80811420744579" lon="0.8789228693254144"><ele>155.0</ele><time>2026-05-01T14:46:35Z</time></trkpt><trkpt lat="44.80819524244869" lon="0.8789140152803855"><ele>155.0</ele><time>2026-05-01T14:46:36Z</time></trkpt><trkpt lat="44.8082829847873" lon="0.8789041634234588"><ele>155.0</ele><time>2026-05-01T14:46:37Z</time></trkpt><trkpt lat="44.80836320357209" lon="0.8788967276324458"><ele>155.0</ele><time>2026-05-01T14:46:38Z</time></trkpt><trkpt lat="44.808436566633716" lon="0.8788814939519501"><ele>155.0</ele><time>2026-05-01T14:46:39Z</time></trkpt><trkpt lat="44.808519300545214" lon="0.8788603032846068"><ele>155.0</ele><time>2026-05-01T14:46:40Z</time></trkpt><trkpt lat="44.8086012305662" lon="0.8788359535448775"><ele>155.0</ele><time>2026-05-01T14:46:41Z</time></trkpt><trkpt lat="44.80869521373089" lon="0.8788183847712954"><ele>155.83333333333331</ele><time>2026-05-01T14:46:42Z</time></trkpt><trkpt lat="44.80878019177172" lon="0.8787953570176679"><ele>156.66666666666666</ele><time>2026-05-01T14:46:43Z</time></trkpt><trkpt lat="44.8088599875141" lon="0.8787680713849645"><ele>157.5</ele><time>2026-05-01T14:46:44Z</time></trkpt><trkpt lat="44.8089256617609" lon="0.8787448406976949"><ele>158.33333333333334</ele><time>2026-05-01T14:46:45Z</time></trkpt><trkpt lat="44.80899684152895" lon="0.8786955010264417"><ele>159.16666666666669</ele><time>2026-05-01T14:46:46Z</time></trkpt><trkpt lat="44.80906285634455" lon="0.8786111770735422"><ele>160.0</ele><time>2026-05-01T14:46:47Z</time></trkpt><trkpt lat="44.80913720169459" lon="0.8785241133018511"><ele>160.0</ele><time>2026-05-01T14:46:48Z</time></trkpt><trkpt lat="44.80921099775098" lon="0.8784430739872098"><ele>160.0</ele><time>2026-05-01T14:46:49Z</time></trkpt><trkpt lat="44.80928257409468" lon="0.8783542512034209"><ele>160.0</ele><time>2026-05-01T14:46:50Z</time></trkpt><trkpt lat="44.809364038264576" lon="0.878257516894725"><ele>160.0</ele><time>2026-05-01T14:46:51Z</time></trkpt><trkpt lat="44.80944186333992" lon="0.8781629174718085"><ele>160.0</ele><time>2026-05-01T14:46:52Z</time></trkpt><trkpt lat="44.809521364482855" lon="0.878070143061611"><ele>159.33333333333334</ele><time>2026-05-01T14:46:53Z</time></trkpt><trkpt lat="44.80958707089513" lon="0.8779782892642625"><ele>158.66666666666669</ele><time>2026-05-01T14:46:54Z</time></trkpt><trkpt lat="44.809648181198554" lon="0.8778982333575682"><ele>158.0</ele><time>2026-05-01T14:46:55Z</time></trkpt><trkpt lat="44.809706082793106" lon="0.8778288411295293"><ele>157.33333333333334</ele><time>2026-05-01T14:46:56Z</time></trkpt><trkpt lat="44.80975828991359" lon="0.8777511361341569"><ele>156.66666666666666</ele><time>2026-05-01T14:46:57Z</time></trkpt><trkpt lat="44.80981198958924" lon="0.8776620595073662"><ele>156.0</ele><time>2026-05-01T14:46:58Z</time></trkpt><trkpt lat="44.8098721729995" lon="0.8775715923498411"><ele>156.0</ele><time>2026-05-01T14:46:59Z</time></trkpt><trkpt lat="44.809936485974305" lon="0.8774764867512506"><ele>156.0</ele><time>2026-05-01T14:47:00Z</time></trkpt><trkpt lat="44.81000203900048" lon="0.8773813272423429"><ele>156.0</ele><time>2026-05-01T14:47:01Z</time></trkpt><trkpt lat="44.810051975512465" lon="0.8772683437820347"><ele>156.0</ele><time>2026-05-01T14:47:02Z</time></trkpt><trkpt lat="44.81010340969737" lon="0.8771541655673893"><ele>156.0</ele><time>2026-05-01T14:47:03Z</time></trkpt><trkpt lat="44.81015796356597" lon="0.8770404650898428"><ele>156.5</ele><time>2026-05-01T14:47:04Z</time></trkpt><trkpt lat="44.810205861889166" lon="0.8769310829378146"><ele>157.0</ele><time>2026-05-01T14:47:05Z</time></trkpt><trkpt lat="44.810245366943555" lon="0.8768214713339673"><ele>157.5</ele><time>2026-05-01T14:47:06Z</time></trkpt><trkpt lat="44.81028513620257" lon="0.8767155124139377"><ele>158.0</ele><time>2026-05-01T14:47:07Z</time></trkpt><trkpt lat="44.81033238451595" lon="0.8766143882972539"><ele>158.5</ele><time>2026-05-01T14:47:08Z</time></trkpt><trkpt lat="44.81037200669221" lon="0.8765202756842524"><ele>159.0</ele><time>2026-05-01T14:47:09Z</time></trkpt><trkpt lat="44.81041045617276" lon="0.876422259439823"><ele>159.0</ele><time>2026-05-01T14:47:10Z</time></trkpt><trkpt lat="44.81044568966509" lon="0.8763259648248947"><ele>159.0</ele><time>2026-05-01T14:47:11Z</time></trkpt><trkpt lat="44.81047359634075" lon="0.876246240603633"><ele>159.0</ele><time>2026-05-01T14:47:12Z</time></trkpt><trkpt lat="44.81049270102784" lon="0.8761546998225811"><ele>159.0</ele><time>2026-05-01T14:47:13Z</time></trkpt><trkpt lat="44.81050699189081" lon="0.8760601865925105"><ele>159.0</ele><time>2026-05-01T14:47:14Z</time></trkpt><trkpt lat="44.81052200924437" lon="0.8759694130691422"><ele>159.0</ele><time>2026-05-01T14:47:15Z</time></trkpt><trkpt lat="44.810531135581336" lon="0.8758657195151551"><ele>159.0</ele><time>2026-05-01T14:47:16Z</time></trkpt><trkpt lat="44.81053544137778" lon="0.8757683854243942"><ele>157.57142857142856</ele><time>2026-05-01T14:47:17Z</time></trkpt><trkpt lat="44.81054295994442" lon="0.8756663691441999"><ele>156.14285714285717</ele><time>2026-05-01T14:47:18Z</time></trkpt><trkpt lat="44.81053201568228" lon="0.875563504799245"><ele>154.71428571428572</ele><time>2026-05-01T14:47:19Z</time></trkpt><trkpt lat="44.81055001104869" lon="0.8754665006313672"><ele>153.28571428571428</ele><time>2026-05-01T14:47:20Z</time></trkpt><trkpt lat="44.81053864920522" lon="0.8753628964306861"><ele>151.85714285714283</ele><time>2026-05-01T14:47:21Z</time></trkpt><trkpt lat="44.81055199134089" lon="0.8752653723482291"><ele>150.42857142857142</ele><time>2026-05-01T14:47:22Z</time></trkpt><trkpt lat="44.81058248474624" lon="0.8751868603000268"><ele>149.0</ele><time>2026-05-01T14:47:23Z</time></trkpt><trkpt lat="44.81069891148099" lon="0.8751229434325645"><ele>147.83333333333331</ele><time>2026-05-01T14:47:25Z</time></trkpt><trkpt lat="44.810811633649315" lon="0.8750431730942763"><ele>146.66666666666666</ele><time>2026-05-01T14:47:27Z</time></trkpt><trkpt lat="44.810906482334225" lon="0.87497524451151"><ele>145.5</ele><time>2026-05-01T14:47:29Z</time></trkpt><trkpt lat="44.810979022819936" lon="0.8749399438424137"><ele>144.33333333333334</ele><time>2026-05-01T14:47:32Z</time></trkpt><trkpt lat="44.8110541791924" lon="0.8749283048252132"><ele>143.16666666666669</ele><time>2026-05-01T14:48:57Z</time></trkpt><trkpt lat="44.8111081923665" lon="0.8749760112873827"><ele>142.0</ele><time>2026-05-01T14:48:59Z</time></trkpt><trkpt lat="44.81116957173213" lon="0.8750390981581297"><ele>142.33333333333334</ele><time>2026-05-01T14:49:01Z</time></trkpt><trkpt lat="44.8112574747634" lon="0.8751411513113976"><ele>142.66666666666669</ele><time>2026-05-01T14:49:03Z</time></trkpt><trkpt lat="44.81130837220796" lon="0.8752000183264945"><ele>143.0</ele><time>2026-05-01T14:49:04Z</time></trkpt><trkpt lat="44.81137883829674" lon="0.8752664403634887"><ele>143.33333333333334</ele><time>2026-05-01T14:49:05Z</time></trkpt><trkpt lat="44.81144584973222" lon="0.8752829418074654"><ele>143.66666666666666</ele><time>2026-05-01T14:49:06Z</time></trkpt><trkpt lat="44.81151370185426" lon="0.8753186905640203"><ele>144.0</ele><time>2026-05-01T14:49:07Z</time></trkpt><trkpt lat="44.81163303624817" lon="0.8753449322680678"><ele>144.0</ele><time>2026-05-01T14:49:09Z</time></trkpt><trkpt lat="44.81175447475298" lon="0.875303034866061"><ele>144.0</ele><time>2026-05-01T14:49:11Z</time></trkpt><trkpt lat="44.81184963776532" lon="0.8752757334986072"><ele>144.0</ele><time>2026-05-01T14:49:13Z</time></trkpt><trkpt lat="44.81192042590047" lon="0.8753142109979885"><ele>144.0</ele><time>2026-05-01T14:49:18Z</time></trkpt><trkpt lat="44.81188048826649" lon="0.8754838704002391"><ele>144.0</ele><time>2026-05-01T14:49:19Z</time></trkpt><trkpt lat="44.811896788212024" lon="0.8755792333379301"><ele>145.66666666666666</ele><time>2026-05-01T14:49:20Z</time></trkpt><trkpt lat="44.81189506696626" lon="0.8756882406089845"><ele>147.33333333333334</ele><time>2026-05-01T14:49:21Z</time></trkpt><trkpt lat="44.811895417490085" lon="0.8757907671621066"><ele>149.0</ele><time>2026-05-01T14:49:22Z</time></trkpt><trkpt lat="44.81189699433607" lon="0.8758986390065797"><ele>150.66666666666669</ele><time>2026-05-01T14:49:23Z</time></trkpt><trkpt lat="44.81189896079409" lon="0.876014509542801"><ele>152.33333333333334</ele><time>2026-05-01T14:49:24Z</time></trkpt><trkpt lat="44.811899585321434" lon="0.8761376467513543"><ele>154.0</ele><time>2026-05-01T14:49:25Z</time></trkpt><trkpt lat="44.811900015996684" lon="0.8762622526859439"><ele>154.2</ele><time>2026-05-01T14:49:26Z</time></trkpt><trkpt lat="44.81189966821879" lon="0.8763900193664069"><ele>154.4</ele><time>2026-05-01T14:49:27Z</time></trkpt><trkpt lat="44.81189885315052" lon="0.8765238126597064"><ele>154.6</ele><time>2026-05-01T14:49:28Z</time></trkpt><trkpt lat="44.811899190233675" lon="0.8766531054604787"><ele>154.8</ele><time>2026-05-01T14:49:29Z</time></trkpt><trkpt lat="44.811899554511065" lon="0.8767955287196637"><ele>155.0</ele><time>2026-05-01T14:49:30Z</time></trkpt><trkpt lat="44.811900501385665" lon="0.87693630634489"><ele>155.6</ele><time>2026-05-01T14:49:31Z</time></trkpt><trkpt lat="44.81190590869184" lon="0.8770854722047621"><ele>156.2</ele><time>2026-05-01T14:49:32Z</time></trkpt><trkpt lat="44.81191061585412" lon="0.8772444589880596"><ele>156.8</ele><time>2026-05-01T14:49:33Z</time></trkpt><trkpt lat="44.81193141254018" lon="0.8774016962994469"><ele>157.4</ele><time>2026-05-01T14:49:34Z</time></trkpt><trkpt lat="44.81193706406307" lon="0.8775378322175995"><ele>158.0</ele><time>2026-05-01T14:49:35Z</time></trkpt><trkpt lat="44.811972254802384" lon="0.8776336071901603"><ele>158.16666666666666</ele><time>2026-05-01T14:49:36Z</time></trkpt><trkpt lat="44.81199184101661" lon="0.8777218329874823"><ele>158.33333333333331</ele><time>2026-05-01T14:49:37Z</time></trkpt><trkpt lat="44.812008560057144" lon="0.8778287215557985"><ele>158.5</ele><time>2026-05-01T14:49:39Z</time></trkpt><trkpt lat="44.812095831888215" lon="0.8777842001797085"><ele>158.66666666666666</ele><time>2026-05-01T14:49:42Z</time></trkpt><trkpt lat="44.81216316310368" lon="0.8777519566632063"><ele>158.83333333333334</ele><time>2026-05-01T14:49:43Z</time></trkpt><trkpt lat="44.81223534302086" lon="0.8777148907010782"><ele>159.0</ele><time>2026-05-01T14:49:44Z</time></trkpt><trkpt lat="44.81230901277103" lon="0.8777010384599871"><ele>159.0</ele><time>2026-05-01T14:49:45Z</time></trkpt><trkpt lat="44.812370611663205" lon="0.8776617821879656"><ele>159.0</ele><time>2026-05-01T14:49:46Z</time></trkpt><trkpt lat="44.81243684285272" lon="0.8776611532305765"><ele>159.0</ele><time>2026-05-01T14:49:47Z</time></trkpt><trkpt lat="44.8125428041161" lon="0.8777062885500244"><ele>159.0</ele><time>2026-05-01T14:49:49Z</time></trkpt><trkpt lat="44.812531536354754" lon="0.8778635931043958"><ele>159.0</ele><time>2026-05-01T14:49:51Z</time></trkpt><trkpt lat="44.81254703590001" lon="0.8780307817230433"><ele>159.0</ele><time>2026-05-01T14:49:53Z</time></trkpt><trkpt lat="44.812571126586725" lon="0.8781290997869412"><ele>159.0</ele><time>2026-05-01T14:49:54Z</time></trkpt><trkpt lat="44.81258014796224" lon="0.8782315603018582"><ele>159.0</ele><time>2026-05-01T14:49:55Z</time></trkpt><trkpt lat="44.812572869891795" lon="0.8783421625182606"><ele>159.0</ele><time>2026-05-01T14:49:56Z</time></trkpt><trkpt lat="44.81258527654637" lon="0.8784676553275304"><ele>159.0</ele><time>2026-05-01T14:49:57Z</time></trkpt><trkpt lat="44.812624505147596" lon="0.8786100681735057"><ele>159.0</ele><time>2026-05-01T14:49:58Z</time></trkpt><trkpt lat="44.812651923640985" lon="0.8787657076075374"><ele>162.2</ele><time>2026-05-01T14:49:59Z</time></trkpt><trkpt lat="44.81268436217606" lon="0.8789140272418844"><ele>165.4</ele><time>2026-05-01T14:50:00Z</time></trkpt><trkpt lat="44.81273643460632" lon="0.8790510930730734"><ele>168.6</ele><time>2026-05-01T14:50:01Z</time></trkpt><trkpt lat="44.81278970497757" lon="0.8791900293580277"><ele>171.8</ele><time>2026-05-01T14:50:02Z</time></trkpt><trkpt lat="44.81285522908068" lon="0.8793155993188381"><ele>175.0</ele><time>2026-05-01T14:50:03Z</time></trkpt><trkpt lat="44.81291497348259" lon="0.8794480315715243"><ele>175.0</ele><time>2026-05-01T14:50:04Z</time></trkpt><trkpt lat="44.81296914491912" lon="0.8795687128185155"><ele>175.0</ele><time>2026-05-01T14:50:05Z</time></trkpt><trkpt lat="44.81299286984289" lon="0.8796541612990171"><ele>175.0</ele><time>2026-05-01T14:50:06Z</time></trkpt><trkpt lat="44.81303161789067" lon="0.8798209446476379"><ele>175.0</ele><time>2026-05-01T14:50:08Z</time></trkpt><trkpt lat="44.81305236810182" lon="0.8799082931241526"><ele>175.0</ele><time>2026-05-01T14:50:09Z</time></trkpt><trkpt lat="44.81310326653332" lon="0.8800673296810982"><ele>175.0</ele><time>2026-05-01T14:50:11Z</time></trkpt><trkpt lat="44.81347158497874" lon="0.8800069484042807"><ele>175.0</ele><time>2026-05-01T14:50:13Z</time></trkpt><trkpt lat="44.81354765003853" lon="0.8799869167238106"><ele>175.0</ele><time>2026-05-01T14:50:14Z</time></trkpt><trkpt lat="44.81363305389581" lon="0.8800033939041254"><ele>177.4</ele><time>2026-05-01T14:50:15Z</time></trkpt><trkpt lat="44.813709391907985" lon="0.8800119208761149"><ele>179.8</ele><time>2026-05-01T14:50:16Z</time></trkpt><trkpt lat="44.813772000827996" lon="0.8800249393719155"><ele>182.2</ele><time>2026-05-01T14:50:17Z</time></trkpt><trkpt lat="44.81384238658801" lon="0.8800205342055238"><ele>184.6</ele><time>2026-05-01T14:50:18Z</time></trkpt><trkpt lat="44.813939293745364" lon="0.8800354196801985"><ele>187.0</ele><time>2026-05-01T14:50:20Z</time></trkpt><trkpt lat="44.81409743179147" lon="0.8800832079055827"><ele>187.0</ele><time>2026-05-01T14:50:22Z</time></trkpt><trkpt lat="44.81416904198066" lon="0.880123766120513"><ele>187.0</ele><time>2026-05-01T14:50:23Z</time></trkpt><trkpt lat="44.81426967645269" lon="0.8801493348359863"><ele>187.0</ele><time>2026-05-01T14:50:25Z</time></trkpt><trkpt lat="44.814344959804814" lon="0.8801640651469269"><ele>187.0</ele><time>2026-05-01T14:50:27Z</time></trkpt><trkpt lat="44.814449452369075" lon="0.8802238819604478"><ele>187.0</ele><time>2026-05-01T14:50:29Z</time></trkpt><trkpt lat="44.81451597266417" lon="0.8802567205817269"><ele>187.0</ele><time>2026-05-01T14:50:30Z</time></trkpt><trkpt lat="44.81463463078007" lon="0.8803446862242734"><ele>187.0</ele><time>2026-05-01T14:50:32Z</time></trkpt><trkpt lat="44.81469193954839" lon="0.8803927150242099"><ele>187.0</ele><time>2026-05-01T14:50:33Z</time></trkpt><trkpt lat="44.81475729941827" lon="0.8804552006031866"><ele>187.0</ele><time>2026-05-01T14:50:34Z</time></trkpt><trkpt lat="44.81481097800774" lon="0.8805127429133512"><ele>187.0</ele><time>2026-05-01T14:50:35Z</time></trkpt><trkpt lat="44.8148616397138" lon="0.8806068179255208"><ele>187.0</ele><time>2026-05-01T14:50:36Z</time></trkpt><trkpt lat="44.81495460635615" lon="0.8807299319682356"><ele>187.0</ele><time>2026-05-01T14:50:38Z</time></trkpt><trkpt lat="44.815017160594174" lon="0.8807733003799371"><ele>187.0</ele><time>2026-05-01T14:50:39Z</time></trkpt><trkpt lat="44.81508347835662" lon="0.8808146330495211"><ele>187.0</ele><time>2026-05-01T14:50:40Z</time></trkpt><trkpt lat="44.81515117442079" lon="0.8808690591616092"><ele>187.0</ele><time>2026-05-01T14:50:41Z</time></trkpt><trkpt lat="44.81522357023252" lon="0.8809026404057928"><ele>187.0</ele><time>2026-05-01T14:50:42Z</time></trkpt><trkpt lat="44.81529575630008" lon="0.8809275402601713"><ele>187.0</ele><time>2026-05-01T14:50:43Z</time></trkpt><trkpt lat="44.81536014250376" lon="0.880959297242224"><ele>187.0</ele><time>2026-05-01T14:50:44Z</time></trkpt><trkpt lat="44.81543963526286" lon="0.8809816440121467"><ele>189.39999999999998</ele><time>2026-05-01T14:50:45Z</time></trkpt><trkpt lat="44.81550450513848" lon="0.8810170806718557"><ele>191.79999999999998</ele><time>2026-05-01T14:50:46Z</time></trkpt><trkpt lat="44.81561252258292" lon="0.881056786020519"><ele>194.2</ele><time>2026-05-01T14:50:48Z</time></trkpt><trkpt lat="44.81571384997066" lon="0.881094547430292"><ele>196.6</ele><time>2026-05-01T14:50:50Z</time></trkpt><trkpt lat="44.81581583377473" lon="0.8810933625298156"><ele>199.0</ele><time>2026-05-01T14:50:52Z</time></trkpt><trkpt lat="44.81590482704571" lon="0.8810840277242776"><ele>199.2</ele><time>2026-05-01T14:50:53Z</time></trkpt><trkpt lat="44.815997980457" lon="0.8811045286186008"><ele>199.39999999999998</ele><time>2026-05-01T14:50:54Z</time></trkpt><trkpt lat="44.816076019653664" lon="0.8811400589405282"><ele>199.6</ele><time>2026-05-01T14:50:55Z</time></trkpt><trkpt lat="44.81615573417521" lon="0.8811441267444522"><ele>199.8</ele><time>2026-05-01T14:50:56Z</time></trkpt><trkpt lat="44.81627088940703" lon="0.881082771242977"><ele>200.0</ele><time>2026-05-01T14:50:58Z</time></trkpt><trkpt lat="44.81635570501704" lon="0.881054105078001"><ele>200.0</ele><time>2026-05-01T14:50:59Z</time></trkpt><trkpt lat="44.81645553359475" lon="0.8810460378038043"><ele>200.0</ele><time>2026-05-01T14:51:00Z</time></trkpt><trkpt lat="44.81655553048723" lon="0.8810243823121591"><ele>200.0</ele><time>2026-05-01T14:51:01Z</time></trkpt><trkpt lat="44.816680405516365" lon="0.8810081163900202"><ele>200.0</ele><time>2026-05-01T14:51:02Z</time></trkpt><trkpt lat="44.816797107728874" lon="0.8809868174423522"><ele>200.0</ele><time>2026-05-01T14:51:03Z</time></trkpt><trkpt lat="44.81686575336406" lon="0.8809718915955034"><ele>200.4</ele><time>2026-05-01T14:51:04Z</time></trkpt><trkpt lat="44.81695357147235" lon="0.8809805584919225"><ele>200.8</ele><time>2026-05-01T14:51:05Z</time></trkpt><trkpt lat="44.81705810070722" lon="0.8810112819205221"><ele>201.2</ele><time>2026-05-01T14:51:06Z</time></trkpt><trkpt lat="44.81715948522886" lon="0.8810403526882852"><ele>201.6</ele><time>2026-05-01T14:51:07Z</time></trkpt><trkpt lat="44.8172487004655" lon="0.8810934963585121"><ele>202.0</ele><time>2026-05-01T14:51:08Z</time></trkpt><trkpt lat="44.81736530575921" lon="0.8811644645888402"><ele>202.0</ele><time>2026-05-01T14:51:09Z</time></trkpt><trkpt lat="44.817476832359276" lon="0.8812431460155057"><ele>202.0</ele><time>2026-05-01T14:51:10Z</time></trkpt><trkpt lat="44.817565700705245" lon="0.8813216250155305"><ele>202.0</ele><time>2026-05-01T14:51:11Z</time></trkpt><trkpt lat="44.81762589926538" lon="0.8813971404963504"><ele>202.0</ele><time>2026-05-01T14:51:12Z</time></trkpt><trkpt lat="44.81768355134465" lon="0.8814912362776568"><ele>202.0</ele><time>2026-05-01T14:51:13Z</time></trkpt><trkpt lat="44.81773677422322" lon="0.8815561586175822"><ele>201.66666666666666</ele><time>2026-05-01T14:51:14Z</time></trkpt><trkpt lat="44.8177858056743" lon="0.881623528678677"><ele>201.33333333333331</ele><time>2026-05-01T14:51:15Z</time></trkpt><trkpt lat="44.817859605956926" lon="0.8817305586594929"><ele>201.0</ele><time>2026-05-01T14:51:16Z</time></trkpt><trkpt lat="44.81792912498202" lon="0.881808756164907"><ele>200.66666666666669</ele><time>2026-05-01T14:51:17Z</time></trkpt><trkpt lat="44.817978225706646" lon="0.8818757395677419"><ele>200.33333333333334</ele><time>2026-05-01T14:51:18Z</time></trkpt><trkpt lat="44.81804083895599" lon="0.8819921904709335"><ele>200.0</ele><time>2026-05-01T14:51:20Z</time></trkpt><trkpt lat="44.818131845797275" lon="0.8820957341698927"><ele>199.00000000000003</ele><time>2026-05-01T14:51:22Z</time></trkpt><trkpt lat="44.818189613805984" lon="0.8821445318181304"><ele>198.0</ele><time>2026-05-01T14:51:23Z</time></trkpt><trkpt lat="44.818244598909956" lon="0.8821988290444107"><ele>197.0</ele><time>2026-05-01T14:51:24Z</time></trkpt><trkpt lat="44.818336804535384" lon="0.8822769352888762"><ele>196.0</ele><time>2026-05-01T14:51:26Z</time></trkpt><trkpt lat="44.818446780760375" lon="0.8823640816069483"><ele>195.00000000000003</ele><time>2026-05-01T14:51:28Z</time></trkpt><trkpt lat="44.818506423963846" lon="0.8824086236680798"><ele>194.0</ele><time>2026-05-01T14:51:29Z</time></trkpt><trkpt lat="44.81861896867726" lon="0.8825241017484121"><ele>192.50000000000003</ele><time>2026-05-01T14:51:31Z</time></trkpt><trkpt lat="44.818661030594754" lon="0.8825928185180397"><ele>191.0</ele><time>2026-05-01T14:51:32Z</time></trkpt><trkpt lat="44.81871105344856" lon="0.8826644483291687"><ele>189.5</ele><time>2026-05-01T14:51:33Z</time></trkpt><trkpt lat="44.81881509215004" lon="0.882783257004365"><ele>188.0</ele><time>2026-05-01T14:51:35Z</time></trkpt><trkpt lat="44.81887573361553" lon="0.8828242871415553"><ele>186.5</ele><time>2026-05-01T14:51:36Z</time></trkpt><trkpt lat="44.81894967478281" lon="0.8829291450647556"><ele>185.0</ele><time>2026-05-01T14:51:38Z</time></trkpt><trkpt lat="44.819014097114305" lon="0.8830127775276382"><ele>184.16666666666666</ele><time>2026-05-01T14:51:39Z</time></trkpt><trkpt lat="44.819083817676336" lon="0.8830917133811728"><ele>183.33333333333331</ele><time>2026-05-01T14:51:40Z</time></trkpt><trkpt lat="44.81913325742702" lon="0.8831726084189456"><ele>182.5</ele><time>2026-05-01T14:51:41Z</time></trkpt><trkpt lat="44.81920710119147" lon="0.8831934768399965"><ele>181.66666666666666</ele><time>2026-05-01T14:51:42Z</time></trkpt><trkpt lat="44.819265106243805" lon="0.8832602565580723"><ele>180.83333333333334</ele><time>2026-05-01T14:51:43Z</time></trkpt><trkpt lat="44.8193634602852" lon="0.883345137964464"><ele>180.0</ele><time>2026-05-01T14:51:45Z</time></trkpt><trkpt lat="44.81943560396649" lon="0.8833758849998549"><ele>178.33333333333334</ele><time>2026-05-01T14:51:46Z</time></trkpt><trkpt lat="44.81950139232343" lon="0.8834072781035338"><ele>176.66666666666666</ele><time>2026-05-01T14:51:47Z</time></trkpt><trkpt lat="44.819570897017684" lon="0.8834525022731943"><ele>175.0</ele><time>2026-05-01T14:51:48Z</time></trkpt><trkpt lat="44.819639815061024" lon="0.8834762416476277"><ele>173.33333333333331</ele><time>2026-05-01T14:51:49Z</time></trkpt><trkpt lat="44.8197046855612" lon="0.8834867813450795"><ele>171.66666666666666</ele><time>2026-05-01T14:51:50Z</time></trkpt><trkpt lat="44.8197765046271" lon="0.8834789849056999"><ele>170.0</ele><time>2026-05-01T14:51:51Z</time></trkpt><trkpt lat="44.81987265565375" lon="0.8834915504195565"><ele>169.83333333333331</ele><time>2026-05-01T14:51:52Z</time></trkpt><trkpt lat="44.81993628321435" lon="0.8835203273563355"><ele>169.66666666666666</ele><time>2026-05-01T14:51:53Z</time></trkpt><trkpt lat="44.82002668683862" lon="0.8835613884308349"><ele>169.5</ele><time>2026-05-01T14:51:55Z</time></trkpt><trkpt lat="44.82009080359124" lon="0.8835977691366854"><ele>169.33333333333334</ele><time>2026-05-01T14:51:56Z</time></trkpt><trkpt lat="44.820162490994825" lon="0.8836204412616285"><ele>169.16666666666669</ele><time>2026-05-01T14:51:57Z</time></trkpt><trkpt lat="44.82024437079782" lon="0.8836556038342208"><ele>169.0</ele><time>2026-05-01T14:51:58Z</time></trkpt><trkpt lat="44.82031921979488" lon="0.8836916623017563"><ele>168.0</ele><time>2026-05-01T14:51:59Z</time></trkpt><trkpt lat="44.820388842509324" lon="0.8837478136340197"><ele>167.0</ele><time>2026-05-01T14:52:00Z</time></trkpt><trkpt lat="44.82045753809493" lon="0.8837880295405319"><ele>166.0</ele><time>2026-05-01T14:52:01Z</time></trkpt><trkpt lat="44.820523676152376" lon="0.8838175398728634"><ele>165.0</ele><time>2026-05-01T14:52:02Z</time></trkpt><trkpt lat="44.820664188092934" lon="0.8838685201797877"><ele>164.0</ele><time>2026-05-01T14:52:04Z</time></trkpt><trkpt lat="44.82074773116765" lon="0.8838561098918115"><ele>164.0</ele><time>2026-05-01T14:52:05Z</time></trkpt><trkpt lat="44.82082203547386" lon="0.8838229008908558"><ele>164.0</ele><time>2026-05-01T14:52:06Z</time></trkpt><trkpt lat="44.82090530346295" lon="0.8837763916237619"><ele>164.0</ele><time>2026-05-01T14:52:07Z</time></trkpt><trkpt lat="44.82097573319573" lon="0.8837397580620798"><ele>164.0</ele><time>2026-05-01T14:52:08Z</time></trkpt><trkpt lat="44.82106007358871" lon="0.8837442315351183"><ele>164.0</ele><time>2026-05-01T14:52:09Z</time></trkpt><trkpt lat="44.821139356911544" lon="0.8836889938378174"><ele>164.0</ele><time>2026-05-01T14:52:10Z</time></trkpt><trkpt lat="44.821241066227984" lon="0.8836849431042142"><ele>162.6</ele><time>2026-05-01T14:52:11Z</time></trkpt><trkpt lat="44.82134448681517" lon="0.8836940770187708"><ele>161.2</ele><time>2026-05-01T14:52:12Z</time></trkpt><trkpt lat="44.821435194611865" lon="0.883685373443472"><ele>159.79999999999998</ele><time>2026-05-01T14:52:13Z</time></trkpt><trkpt lat="44.82154711873374" lon="0.8837218303685411"><ele>158.39999999999998</ele><time>2026-05-01T14:52:14Z</time></trkpt><trkpt lat="44.82164091954063" lon="0.8837445433982754"><ele>157.0</ele><time>2026-05-01T14:52:15Z</time></trkpt><trkpt lat="44.82173507051224" lon="0.8837349174650481"><ele>155.4</ele><time>2026-05-01T14:52:16Z</time></trkpt><trkpt lat="44.82184029524354" lon="0.8837674238717065"><ele>153.79999999999998</ele><time>2026-05-01T14:52:17Z</time></trkpt><trkpt lat="44.82195480511949" lon="0.8837789757656442"><ele>152.2</ele><time>2026-05-01T14:52:18Z</time></trkpt><trkpt lat="44.82205259957824" lon="0.8837967217822769"><ele>150.6</ele><time>2026-05-01T14:52:19Z</time></trkpt><trkpt lat="44.82216448435624" lon="0.8837968772092425"><ele>149.0</ele><time>2026-05-01T14:52:20Z</time></trkpt><trkpt lat="44.82228360521011" lon="0.8837943262086722"><ele>149.0</ele><time>2026-05-01T14:52:21Z</time></trkpt><trkpt lat="44.822393088066754" lon="0.8837875195144643"><ele>149.0</ele><time>2026-05-01T14:52:22Z</time></trkpt><trkpt lat="44.822494373957824" lon="0.8837782884105185"><ele>149.0</ele><time>2026-05-01T14:52:23Z</time></trkpt><trkpt lat="44.82259413623077" lon="0.8837490889588022"><ele>149.0</ele><time>2026-05-01T14:52:24Z</time></trkpt><trkpt lat="44.82268768493308" lon="0.8837170099762492"><ele>149.0</ele><time>2026-05-01T14:52:25Z</time></trkpt><trkpt lat="44.82278485420453" lon="0.8836894416369028"><ele>148.4</ele><time>2026-05-01T14:52:26Z</time></trkpt><trkpt lat="44.822896255596255" lon="0.8836948380658961"><ele>147.8</ele><time>2026-05-01T14:52:27Z</time></trkpt><trkpt lat="44.82298369496131" lon="0.8837383996414925"><ele>147.2</ele><time>2026-05-01T14:52:28Z</time></trkpt><trkpt lat="44.82307259802518" lon="0.8837744879369182"><ele>146.6</ele><time>2026-05-01T14:52:29Z</time></trkpt><trkpt lat="44.8231769077331" lon="0.8838513656496304"><ele>146.0</ele><time>2026-05-01T14:52:30Z</time></trkpt><trkpt lat="44.8232607939681" lon="0.8838593968380524"><ele>146.0</ele><time>2026-05-01T14:52:31Z</time></trkpt><trkpt lat="44.82334251820303" lon="0.8839139881122507"><ele>146.0</ele><time>2026-05-01T14:52:32Z</time></trkpt><trkpt lat="44.82343219692382" lon="0.8839517301811468"><ele>146.0</ele><time>2026-05-01T14:52:33Z</time></trkpt><trkpt lat="44.823531294887424" lon="0.8840058962867214"><ele>146.0</ele><time>2026-05-01T14:52:34Z</time></trkpt><trkpt lat="44.82362596672082" lon="0.8840723164484886"><ele>146.0</ele><time>2026-05-01T14:52:35Z</time></trkpt><trkpt lat="44.82371653362949" lon="0.8841379784719979"><ele>145.33333333333331</ele><time>2026-05-01T14:52:36Z</time></trkpt><trkpt lat="44.82379876165589" lon="0.8841856456497743"><ele>144.66666666666666</ele><time>2026-05-01T14:52:37Z</time></trkpt><trkpt lat="44.82385324077531" lon="0.8842327580698838"><ele>144.0</ele><time>2026-05-01T14:52:38Z</time></trkpt><trkpt lat="44.82394724580152" lon="0.8842875200601406"><ele>143.33333333333334</ele><time>2026-05-01T14:52:40Z</time></trkpt><trkpt lat="44.82401522774961" lon="0.8843558620357438"><ele>142.66666666666669</ele><time>2026-05-01T14:52:43Z</time></trkpt><trkpt lat="44.82407446983718" lon="0.8844041162127094"><ele>142.0</ele><time>2026-05-01T14:52:46Z</time></trkpt><trkpt lat="44.824169131265535" lon="0.8845085350466652"><ele>142.0</ele><time>2026-05-01T14:52:49Z</time></trkpt><trkpt lat="44.82425893219323" lon="0.8845996913212606"><ele>142.0</ele><time>2026-05-01T14:52:51Z</time></trkpt><trkpt lat="44.82431536008482" lon="0.8846643573583386"><ele>142.0</ele><time>2026-05-01T14:52:53Z</time></trkpt><trkpt lat="44.82440626263398" lon="0.8847563450896087"><ele>142.0</ele><time>2026-05-01T14:52:55Z</time></trkpt><trkpt lat="44.82445474851152" lon="0.8848283726554543"><ele>142.0</ele><time>2026-05-01T14:52:56Z</time></trkpt><trkpt lat="44.824516371358385" lon="0.8848713226310191"><ele>142.0</ele><time>2026-05-01T14:52:57Z</time></trkpt><trkpt lat="44.824562488935214" lon="0.884942843426111"><ele>141.0</ele><time>2026-05-01T14:52:59Z</time></trkpt><trkpt lat="44.82462308156568" lon="0.8850453758384454"><ele>140.0</ele><time>2026-05-01T14:53:01Z</time></trkpt><trkpt lat="44.82469540964762" lon="0.885104103939949"><ele>139.0</ele><time>2026-05-01T14:53:03Z</time></trkpt><trkpt lat="44.82475382371857" lon="0.8851772189124409"><ele>138.0</ele><time>2026-05-01T14:53:05Z</time></trkpt><trkpt lat="44.824846398075195" lon="0.8852197746810666"><ele>137.0</ele><time>2026-05-01T14:53:08Z</time></trkpt><trkpt lat="44.82491668717318" lon="0.8852745220531897"><ele>136.0</ele><time>2026-05-01T14:53:09Z</time></trkpt><trkpt lat="44.82500997439958" lon="0.8853910744370627"><ele>136.0</ele><time>2026-05-01T14:53:11Z</time></trkpt><trkpt lat="44.82506816321394" lon="0.8854647135418128"><ele>136.0</ele><time>2026-05-01T14:53:13Z</time></trkpt><trkpt lat="44.82515034085455" lon="0.8855345160659572"><ele>136.0</ele><time>2026-05-01T14:53:15Z</time></trkpt><trkpt lat="44.825258534329464" lon="0.8856029910027109"><ele>136.0</ele><time>2026-05-01T14:53:17Z</time></trkpt><trkpt lat="44.82534958951786" lon="0.8856547786011569"><ele>136.0</ele><time>2026-05-01T14:53:18Z</time></trkpt><trkpt lat="44.82545626925984" lon="0.8857438076204771"><ele>135.33333333333334</ele><time>2026-05-01T14:53:20Z</time></trkpt><trkpt lat="44.82552319008624" lon="0.8857921133518569"><ele>134.66666666666669</ele><time>2026-05-01T14:53:21Z</time></trkpt><trkpt lat="44.8255791672905" lon="0.8858671709122022"><ele>134.0</ele><time>2026-05-01T14:53:22Z</time></trkpt><trkpt lat="44.8256473010167" lon="0.8859248990467218"><ele>133.33333333333334</ele><time>2026-05-01T14:53:23Z</time></trkpt><trkpt lat="44.82570672156354" lon="0.885974126762326"><ele>132.66666666666666</ele><time>2026-05-01T14:53:24Z</time></trkpt><trkpt lat="44.82580214390312" lon="0.8860601719528169"><ele>132.0</ele><time>2026-05-01T14:53:26Z</time></trkpt><trkpt lat="44.82585299822104" lon="0.8861230015882442"><ele>132.0</ele><time>2026-05-01T14:53:27Z</time></trkpt><trkpt lat="44.825941593951804" lon="0.8862216995702503"><ele>132.0</ele><time>2026-05-01T14:53:28Z</time></trkpt><trkpt lat="44.826020708494745" lon="0.8863114989382639"><ele>132.0</ele><time>2026-05-01T14:53:29Z</time></trkpt><trkpt lat="44.82610414239343" lon="0.8864005122427476"><ele>132.0</ele><time>2026-05-01T14:53:30Z</time></trkpt><trkpt lat="44.82615108599697" lon="0.8864791691133785"><ele>132.0</ele><time>2026-05-01T14:53:31Z</time></trkpt><trkpt lat="44.82622766402539" lon="0.8865438034592625"><ele>131.16666666666666</ele><time>2026-05-01T14:53:32Z</time></trkpt><trkpt lat="44.82627684150943" lon="0.8866341639625224"><ele>130.33333333333334</ele><time>2026-05-01T14:53:33Z</time></trkpt><trkpt lat="44.82632728391293" lon="0.8867471675256082"><ele>129.5</ele><time>2026-05-01T14:53:34Z</time></trkpt><trkpt lat="44.82640968376325" lon="0.8868313794966747"><ele>128.66666666666669</ele><time>2026-05-01T14:53:35Z</time></trkpt><trkpt lat="44.82646308174129" lon="0.8869249281119119"><ele>127.83333333333334</ele><time>2026-05-01T14:53:36Z</time></trkpt><trkpt lat="44.82650942040557" lon="0.8869923050618"><ele>127.0</ele><time>2026-05-01T14:53:37Z</time></trkpt><trkpt lat="44.826554067837385" lon="0.8870727942264194"><ele>126.8</ele><time>2026-05-01T14:53:38Z</time></trkpt><trkpt lat="44.82659937302087" lon="0.8871598304651659"><ele>126.6</ele><time>2026-05-01T14:53:39Z</time></trkpt><trkpt lat="44.82666588162955" lon="0.8872649511936248"><ele>126.39999999999999</ele><time>2026-05-01T14:53:40Z</time></trkpt><trkpt lat="44.8267548460624" lon="0.8873936925941437"><ele>126.19999999999999</ele><time>2026-05-01T14:53:41Z</time></trkpt><trkpt lat="44.82682970129571" lon="0.8875247056622415"><ele>126.0</ele><time>2026-05-01T14:53:42Z</time></trkpt><trkpt lat="44.82688330927094" lon="0.8876102104667031"><ele>125.4</ele><time>2026-05-01T14:53:43Z</time></trkpt><trkpt lat="44.82694588273052" lon="0.8876930095154492"><ele>124.8</ele><time>2026-05-01T14:53:44Z</time></trkpt><trkpt lat="44.827000663275456" lon="0.8877753890053409"><ele>124.20000000000002</ele><time>2026-05-01T14:53:45Z</time></trkpt><trkpt lat="44.82705365367537" lon="0.8878632761730834"><ele>123.60000000000001</ele><time>2026-05-01T14:53:46Z</time></trkpt><trkpt lat="44.82713018712821" lon="0.8880152059718324"><ele>123.0</ele><time>2026-05-01T14:53:48Z</time></trkpt><trkpt lat="44.82717485994552" lon="0.8880909964380018"><ele>123.0</ele><time>2026-05-01T14:53:49Z</time></trkpt><trkpt lat="44.82720242327139" lon="0.8881986866257657"><ele>123.00000000000001</ele><time>2026-05-01T14:53:51Z</time></trkpt><trkpt lat="44.82732940171595" lon="0.8882057121359137"><ele>123.00000000000001</ele><time>2026-05-01T14:54:10Z</time></trkpt><trkpt lat="44.8274674975946" lon="0.8882234570607624"><ele>123.0</ele><time>2026-05-01T14:54:12Z</time></trkpt><trkpt lat="44.827549243901196" lon="0.8882724518245708"><ele>123.0</ele><time>2026-05-01T14:54:13Z</time></trkpt><trkpt lat="44.827620217390624" lon="0.8883437669717267"><ele>123.4</ele><time>2026-05-01T14:54:14Z</time></trkpt><trkpt lat="44.82768193305176" lon="0.8884353558633568"><ele>123.80000000000001</ele><time>2026-05-01T14:54:15Z</time></trkpt><trkpt lat="44.82772681220443" lon="0.88854803713953"><ele>124.2</ele><time>2026-05-01T14:54:16Z</time></trkpt><trkpt lat="44.82776562249487" lon="0.8886728559414789"><ele>124.6</ele><time>2026-05-01T14:54:17Z</time></trkpt><trkpt lat="44.82781329271166" lon="0.888785901960538"><ele>125.0</ele><time>2026-05-01T14:54:18Z</time></trkpt><trkpt lat="44.8278665508094" lon="0.8888839597309902"><ele>125.0</ele><time>2026-05-01T14:54:19Z</time></trkpt><trkpt lat="44.827901720077506" lon="0.8889805989029291"><ele>125.0</ele><time>2026-05-01T14:54:20Z</time></trkpt><trkpt lat="44.82793888244743" lon="0.8890621555728806"><ele>125.0</ele><time>2026-05-01T14:54:21Z</time></trkpt><trkpt lat="44.827987868387645" lon="0.88921383495708"><ele>125.0</ele><time>2026-05-01T14:54:23Z</time></trkpt><trkpt lat="44.82801328630935" lon="0.8893475390580305"><ele>125.0</ele><time>2026-05-01T14:54:24Z</time></trkpt><trkpt lat="44.82804313670093" lon="0.8894716139794905"><ele>124.33333333333333</ele><time>2026-05-01T14:54:25Z</time></trkpt><trkpt lat="44.82807450336966" lon="0.8895930194516509"><ele>123.66666666666666</ele><time>2026-05-01T14:54:26Z</time></trkpt><trkpt lat="44.82809508719445" lon="0.8897099425938634"><ele>123.0</ele><time>2026-05-01T14:54:27Z</time></trkpt><trkpt lat="44.828124325422536" lon="0.8898157489273678"><ele>122.33333333333334</ele><time>2026-05-01T14:54:28Z</time></trkpt><trkpt lat="44.82814702091467" lon="0.8899187978623028"><ele>121.66666666666667</ele><time>2026-05-01T14:54:29Z</time></trkpt><trkpt lat="44.8281600712515" lon="0.8900384930146321"><ele>121.0</ele><time>2026-05-01T14:54:30Z</time></trkpt><trkpt lat="44.82816567275963" lon="0.8901564023244836"><ele>120.50000000000001</ele><time>2026-05-01T14:54:31Z</time></trkpt><trkpt lat="44.828169993306005" lon="0.8902569719656986"><ele>120.0</ele><time>2026-05-01T14:54:32Z</time></trkpt><trkpt lat="44.82818101354609" lon="0.8903643423831875"><ele>119.5</ele><time>2026-05-01T14:54:33Z</time></trkpt><trkpt lat="44.828206738271135" lon="0.8904865943639246"><ele>119.0</ele><time>2026-05-01T14:54:34Z</time></trkpt><trkpt lat="44.828245595198034" lon="0.8905688505501327"><ele>118.50000000000001</ele><time>2026-05-01T14:54:35Z</time></trkpt><trkpt lat="44.828256432818996" lon="0.890688200423307"><ele>118.0</ele><time>2026-05-01T14:54:36Z</time></trkpt><trkpt lat="44.82828775728274" lon="0.8907692486145892"><ele>117.25</ele><time>2026-05-01T14:54:37Z</time></trkpt><trkpt lat="44.82834491319957" lon="0.8909350873155095"><ele>116.5</ele><time>2026-05-01T14:54:39Z</time></trkpt><trkpt lat="44.82842333376064" lon="0.8911194838279157"><ele>115.75</ele><time>2026-05-01T14:54:41Z</time></trkpt><trkpt lat="44.82847284612715" lon="0.8912384087955043"><ele>115.0</ele><time>2026-05-01T14:54:42Z</time></trkpt><trkpt lat="44.82850299852197" lon="0.8913324889848351"><ele>114.83333333333334</ele><time>2026-05-01T14:54:43Z</time></trkpt><trkpt lat="44.82852425452263" lon="0.8914218272139695"><ele>114.66666666666667</ele><time>2026-05-01T14:54:44Z</time></trkpt><trkpt lat="44.828561741940646" lon="0.8915374091231554"><ele>114.5</ele><time>2026-05-01T14:54:45Z</time></trkpt><trkpt lat="44.82860009658531" lon="0.8916275654992273"><ele>114.33333333333334</ele><time>2026-05-01T14:54:46Z</time></trkpt><trkpt lat="44.82863362999242" lon="0.8917114114403164"><ele>114.16666666666667</ele><time>2026-05-01T14:54:47Z</time></trkpt><trkpt lat="44.828653431458186" lon="0.8917958656031153"><ele>114.0</ele><time>2026-05-01T14:54:48Z</time></trkpt><trkpt lat="44.828735089911845" lon="0.8919727526161391"><ele>114.0</ele><time>2026-05-01T14:54:50Z</time></trkpt><trkpt lat="44.82877630627804" lon="0.8920698354922807"><ele>114.0</ele><time>2026-05-01T14:54:51Z</time></trkpt><trkpt lat="44.828817859518885" lon="0.8921665152337309"><ele>114.0</ele><time>2026-05-01T14:54:52Z</time></trkpt><trkpt lat="44.82884849727623" lon="0.8922476846498317"><ele>114.0</ele><time>2026-05-01T14:54:53Z</time></trkpt><trkpt lat="44.82892425023552" lon="0.8924446074303869"><ele>114.0</ele><time>2026-05-01T14:54:55Z</time></trkpt><trkpt lat="44.82895733738581" lon="0.8925519832834448"><ele>112.6</ele><time>2026-05-01T14:54:56Z</time></trkpt><trkpt lat="44.8290092867296" lon="0.8926522874697527"><ele>111.2</ele><time>2026-05-01T14:54:57Z</time></trkpt><trkpt lat="44.829068910752866" lon="0.8927291137847148"><ele>109.79999999999998</ele><time>2026-05-01T14:54:58Z</time></trkpt><trkpt lat="44.829116672400176" lon="0.8928453314362254"><ele>108.39999999999999</ele><time>2026-05-01T14:54:59Z</time></trkpt><trkpt lat="44.82917941466327" lon="0.8929541321698125"><ele>107.0</ele><time>2026-05-01T14:55:00Z</time></trkpt><trkpt lat="44.829243129635955" lon="0.8930733729194636"><ele>107.0</ele><time>2026-05-01T14:55:01Z</time></trkpt><trkpt lat="44.82930708152272" lon="0.8931830938651797"><ele>106.99999999999999</ele><time>2026-05-01T14:55:02Z</time></trkpt><trkpt lat="44.82935736352068" lon="0.893272681668747"><ele>106.99999999999999</ele><time>2026-05-01T14:55:03Z</time></trkpt><trkpt lat="44.82939463057007" lon="0.8933672858669196"><ele>107.0</ele><time>2026-05-01T14:55:04Z</time></trkpt><trkpt lat="44.82944828718752" lon="0.8934949701836697"><ele>107.0</ele><time>2026-05-01T14:55:05Z</time></trkpt><trkpt lat="44.82950366774974" lon="0.8936154965767553"><ele>107.66666666666666</ele><time>2026-05-01T14:55:06Z</time></trkpt><trkpt lat="44.82954627066558" lon="0.8937208000800118"><ele>108.33333333333333</ele><time>2026-05-01T14:55:07Z</time></trkpt><trkpt lat="44.829589175008046" lon="0.8938253008343134"><ele>109.0</ele><time>2026-05-01T14:55:08Z</time></trkpt><trkpt lat="44.82961522404173" lon="0.8939295529799486"><ele>109.66666666666666</ele><time>2026-05-01T14:55:09Z</time></trkpt><trkpt lat="44.82963253603676" lon="0.8940279247590994"><ele>110.33333333333333</ele><time>2026-05-01T14:55:10Z</time></trkpt><trkpt lat="44.82962785070931" lon="0.8941281273697351"><ele>111.0</ele><time>2026-05-01T14:55:11Z</time></trkpt><trkpt lat="44.829617542929554" lon="0.8942657703103"><ele>111.0</ele><time>2026-05-01T14:55:12Z</time></trkpt><trkpt lat="44.829605251944564" lon="0.8943830481230287"><ele>111.0</ele><time>2026-05-01T14:55:13Z</time></trkpt><trkpt lat="44.82960714421115" lon="0.8944785469399293"><ele>111.0</ele><time>2026-05-01T14:55:14Z</time></trkpt><trkpt lat="44.82960246946191" lon="0.894607090813539"><ele>111.0</ele><time>2026-05-01T14:55:15Z</time></trkpt><trkpt lat="44.82960261792839" lon="0.8947329712771095"><ele>111.0</ele><time>2026-05-01T14:55:16Z</time></trkpt><trkpt lat="44.82957976497312" lon="0.8948309471544289"><ele>111.0</ele><time>2026-05-01T14:55:17Z</time></trkpt><trkpt lat="44.829591704936476" lon="0.8949630396710692"><ele>111.0</ele><time>2026-05-01T14:55:18Z</time></trkpt><trkpt lat="44.82958559664129" lon="0.8950584319444276"><ele>111.0</ele><time>2026-05-01T14:55:19Z</time></trkpt><trkpt lat="44.829619391736365" lon="0.8952405871208446"><ele>111.0</ele><time>2026-05-01T14:55:21Z</time></trkpt><trkpt lat="44.829636051189915" lon="0.8953412122089774"><ele>111.0</ele><time>2026-05-01T14:55:22Z</time></trkpt><trkpt lat="44.82964569564637" lon="0.8954424003034807"><ele>111.0</ele><time>2026-05-01T14:55:23Z</time></trkpt><trkpt lat="44.829680492393656" lon="0.8955636399594581"><ele>111.0</ele><time>2026-05-01T14:55:24Z</time></trkpt><trkpt lat="44.82970877791949" lon="0.8956646526199807"><ele>110.57142857142857</ele><time>2026-05-01T14:55:25Z</time></trkpt><trkpt lat="44.82972185706663" lon="0.8957667858128872"><ele>110.14285714285715</ele><time>2026-05-01T14:55:26Z</time></trkpt><trkpt lat="44.82971730864193" lon="0.8958652260842305"><ele>109.71428571428572</ele><time>2026-05-01T14:55:27Z</time></trkpt><trkpt lat="44.829762078999046" lon="0.8959712369878815"><ele>109.28571428571428</ele><time>2026-05-01T14:55:28Z</time></trkpt><trkpt lat="44.82979251377116" lon="0.896067815326497"><ele>108.85714285714286</ele><time>2026-05-01T14:55:29Z</time></trkpt><trkpt lat="44.82981867876282" lon="0.8961551878031551"><ele>108.42857142857143</ele><time>2026-05-01T14:55:30Z</time></trkpt><trkpt lat="44.82983936163475" lon="0.8962397574314023"><ele>108.0</ele><time>2026-05-01T14:55:31Z</time></trkpt><trkpt lat="44.82986541414228" lon="0.8963378524998512"><ele>106.60000000000001</ele><time>2026-05-01T14:55:32Z</time></trkpt><trkpt lat="44.82990255855302" lon="0.8964664437706035"><ele>105.20000000000002</ele><time>2026-05-01T14:55:34Z</time></trkpt><trkpt lat="44.82994732922954" lon="0.8965349057790872"><ele>103.8</ele><time>2026-05-01T14:55:35Z</time></trkpt><trkpt lat="44.83001156698623" lon="0.8966685853394404"><ele>102.4</ele><time>2026-05-01T14:55:37Z</time></trkpt><trkpt lat="44.83007449744344" lon="0.8967739573547164"><ele>101.0</ele><time>2026-05-01T14:55:39Z</time></trkpt><trkpt lat="44.830179459027484" lon="0.8968737444925798"><ele>100.33333333333333</ele><time>2026-05-01T14:55:41Z</time></trkpt><trkpt lat="44.83024737173254" lon="0.8969500096265897"><ele>99.66666666666666</ele><time>2026-05-01T14:55:42Z</time></trkpt><trkpt lat="44.830319935548324" lon="0.8970205727832871"><ele>99.0</ele><time>2026-05-01T14:55:43Z</time></trkpt><trkpt lat="44.8304003645531" lon="0.8970894466773253"><ele>98.33333333333334</ele><time>2026-05-01T14:55:44Z</time></trkpt><trkpt lat="44.83046941654984" lon="0.8971672527407578"><ele>97.66666666666667</ele><time>2026-05-01T14:55:45Z</time></trkpt><trkpt lat="44.83052355370707" lon="0.8972189449771184"><ele>97.0</ele><time>2026-05-01T14:55:46Z</time></trkpt><trkpt lat="44.8305917683484" lon="0.8972866669618139"><ele>97.00000000000001</ele><time>2026-05-01T14:55:47Z</time></trkpt><trkpt lat="44.83065278067275" lon="0.8973149749995643"><ele>97.0</ele><time>2026-05-01T14:55:48Z</time></trkpt><trkpt lat="44.830724932847176" lon="0.8973528115958926"><ele>97.0</ele><time>2026-05-01T14:55:49Z</time></trkpt><trkpt lat="44.830793991489" lon="0.8973494399077"><ele>97.0</ele><time>2026-05-01T14:55:50Z</time></trkpt><trkpt lat="44.830864837031925" lon="0.8973720294421113"><ele>97.00000000000001</ele><time>2026-05-01T14:55:51Z</time></trkpt><trkpt lat="44.8309553307273" lon="0.8974189336186327"><ele>97.0</ele><time>2026-05-01T14:55:52Z</time></trkpt><trkpt lat="44.831062672815165" lon="0.8974246902753282"><ele>96.5</ele><time>2026-05-01T14:55:53Z</time></trkpt><trkpt lat="44.83123236064476" lon="0.8974558368434611"><ele>96.0</ele><time>2026-05-01T14:55:54Z</time></trkpt><trkpt lat="44.831361020144726" lon="0.8975033593289455"><ele>95.5</ele><time>2026-05-01T14:55:55Z</time></trkpt><trkpt lat="44.831485346352345" lon="0.8974492873533261"><ele>95.0</ele><time>2026-05-01T14:55:57Z</time></trkpt><trkpt lat="44.83155233812429" lon="0.8974476944769935"><ele>95.0</ele><time>2026-05-01T14:55:58Z</time></trkpt><trkpt lat="44.83165791834694" lon="0.897464158076163"><ele>95.0</ele><time>2026-05-01T14:55:59Z</time></trkpt><trkpt lat="44.83173548247122" lon="0.8974922431998612"><ele>95.0</ele><time>2026-05-01T14:56:00Z</time></trkpt><trkpt lat="44.83180974189951" lon="0.897515667488518"><ele>95.0</ele><time>2026-05-01T14:56:01Z</time></trkpt><trkpt lat="44.83188868709964" lon="0.8975330051125092"><ele>95.0</ele><time>2026-05-01T14:56:02Z</time></trkpt><trkpt lat="44.83195790911488" lon="0.8975441998146381"><ele>95.0</ele><time>2026-05-01T14:56:03Z</time></trkpt><trkpt lat="44.83204763509473" lon="0.897554798356754"><ele>94.6</ele><time>2026-05-01T14:56:04Z</time></trkpt><trkpt lat="44.83213830412882" lon="0.8975795870261961"><ele>94.2</ele><time>2026-05-01T14:56:05Z</time></trkpt><trkpt lat="44.83224240059715" lon="0.8975526117873623"><ele>93.80000000000001</ele><time>2026-05-01T14:56:06Z</time></trkpt><trkpt lat="44.8323305227045" lon="0.8975431151748676"><ele>93.4</ele><time>2026-05-01T14:56:07Z</time></trkpt><trkpt lat="44.83242352778976" lon="0.8975299369766987"><ele>93.0</ele><time>2026-05-01T14:56:08Z</time></trkpt><trkpt lat="44.832516696711124" lon="0.897524759776013"><ele>93.0</ele><time>2026-05-01T14:56:09Z</time></trkpt><trkpt lat="44.832604313152395" lon="0.8975168873853209"><ele>93.0</ele><time>2026-05-01T14:56:10Z</time></trkpt><trkpt lat="44.832684856349964" lon="0.8975170299239478"><ele>93.0</ele><time>2026-05-01T14:56:11Z</time></trkpt><trkpt lat="44.832778594966335" lon="0.8975118437451949"><ele>93.0</ele><time>2026-05-01T14:56:12Z</time></trkpt><trkpt lat="44.832856418560226" lon="0.8975311943390408"><ele>93.0</ele><time>2026-05-01T14:56:13Z</time></trkpt><trkpt lat="44.83291973482312" lon="0.8975449090352065"><ele>93.0</ele><time>2026-05-01T14:56:14Z</time></trkpt><trkpt lat="44.83300863106038" lon="0.8975661253062283"><ele>93.16666666666667</ele><time>2026-05-01T14:56:15Z</time></trkpt><trkpt lat="44.83310154856351" lon="0.8975629057500435"><ele>93.33333333333333</ele><time>2026-05-01T14:56:16Z</time></trkpt><trkpt lat="44.83318183456763" lon="0.8975373766100477"><ele>93.5</ele><time>2026-05-01T14:56:17Z</time></trkpt><trkpt lat="44.83327946403454" lon="0.8976075123512148"><ele>93.66666666666666</ele><time>2026-05-01T14:56:19Z</time></trkpt><trkpt lat="44.833355638897245" lon="0.897635009678427"><ele>93.83333333333333</ele><time>2026-05-01T14:56:20Z</time></trkpt><trkpt lat="44.83342216321041" lon="0.8976701698671904"><ele>94.0</ele><time>2026-05-01T14:56:21Z</time></trkpt><trkpt lat="44.83349860222201" lon="0.8977004413879561"><ele>92.2</ele><time>2026-05-01T14:56:22Z</time></trkpt><trkpt lat="44.833580526426495" lon="0.8977455169044792"><ele>90.4</ele><time>2026-05-01T14:56:23Z</time></trkpt><trkpt lat="44.83370024686017" lon="0.8977940533521809"><ele>88.6</ele><time>2026-05-01T14:56:25Z</time></trkpt><trkpt lat="44.83377613097417" lon="0.8978232277777884"><ele>86.8</ele><time>2026-05-01T14:56:26Z</time></trkpt><trkpt lat="44.83385633572509" lon="0.8978627369153727"><ele>85.0</ele><time>2026-05-01T14:56:27Z</time></trkpt><trkpt lat="44.83394592133618" lon="0.8978962057641159"><ele>85.0</ele><time>2026-05-01T14:56:28Z</time></trkpt><trkpt lat="44.83403907594133" lon="0.8979202598485249"><ele>85.0</ele><time>2026-05-01T14:56:29Z</time></trkpt><trkpt lat="44.83413376357513" lon="0.8979478335026652"><ele>85.0</ele><time>2026-05-01T14:56:30Z</time></trkpt><trkpt lat="44.83422856909422" lon="0.8979688064168837"><ele>85.0</ele><time>2026-05-01T14:56:31Z</time></trkpt><trkpt lat="44.83433666651415" lon="0.8979820475571253"><ele>85.0</ele><time>2026-05-01T14:56:32Z</time></trkpt><trkpt lat="44.83443784277236" lon="0.8979741037936347"><ele>85.4</ele><time>2026-05-01T14:56:33Z</time></trkpt><trkpt lat="44.834545461788714" lon="0.8979719761257584"><ele>85.8</ele><time>2026-05-01T14:56:34Z</time></trkpt><trkpt lat="44.834653752560605" lon="0.8979703537198438"><ele>86.19999999999999</ele><time>2026-05-01T14:56:35Z</time></trkpt><trkpt lat="44.834746827341014" lon="0.8979651010791468"><ele>86.6</ele><time>2026-05-01T14:56:36Z</time></trkpt><trkpt lat="44.834839702954696" lon="0.8979571184563482"><ele>87.0</ele><time>2026-05-01T14:56:37Z</time></trkpt><trkpt lat="44.83495369711486" lon="0.897973420951563"><ele>87.0</ele><time>2026-05-01T14:56:38Z</time></trkpt><trkpt lat="44.835053205756616" lon="0.8979860055341232"><ele>87.0</ele><time>2026-05-01T14:56:39Z</time></trkpt><trkpt lat="44.83514453991465" lon="0.8979705271635976"><ele>87.0</ele><time>2026-05-01T14:56:40Z</time></trkpt><trkpt lat="44.83524782394625" lon="0.8979505879855308"><ele>87.0</ele><time>2026-05-01T14:56:41Z</time></trkpt><trkpt lat="44.835354626802754" lon="0.8979869167850882"><ele>87.0</ele><time>2026-05-01T14:56:42Z</time></trkpt><trkpt lat="44.83545719443547" lon="0.898023789392354"><ele>87.5</ele><time>2026-05-01T14:56:43Z</time></trkpt><trkpt lat="44.83555741634482" lon="0.8980718280730647"><ele>88.0</ele><time>2026-05-01T14:56:44Z</time></trkpt><trkpt lat="44.835626742750506" lon="0.8981136480238567"><ele>88.5</ele><time>2026-05-01T14:56:45Z</time></trkpt><trkpt lat="44.83569001981257" lon="0.8981684206477201"><ele>89.0</ele><time>2026-05-01T14:56:46Z</time></trkpt><trkpt lat="44.835779252628356" lon="0.8982117509492321"><ele>89.5</ele><time>2026-05-01T14:56:48Z</time></trkpt><trkpt lat="44.83584720976175" lon="0.8981965055885907"><ele>90.0</ele><time>2026-05-01T14:59:37Z</time></trkpt><trkpt lat="44.83585917124701" lon="0.8982912878564763"><ele>90.0</ele><time>2026-05-01T15:00:47Z</time></trkpt><trkpt lat="44.83593200517657" lon="0.8983535489327951"><ele>90.0</ele><time>2026-05-01T15:00:49Z</time></trkpt><trkpt lat="44.83597736251407" lon="0.898424954580679"><ele>90.0</ele><time>2026-05-01T15:00:50Z</time></trkpt><trkpt lat="44.836030485586946" lon="0.8984961644697628"><ele>90.0</ele><time>2026-05-01T15:00:51Z</time></trkpt><trkpt lat="44.83607743977543" lon="0.8985800431246938"><ele>90.0</ele><time>2026-05-01T15:00:52Z</time></trkpt><trkpt lat="44.83612429810026" lon="0.8986495799553544"><ele>90.0</ele><time>2026-05-01T15:00:53Z</time></trkpt><trkpt lat="44.836185945029044" lon="0.8987338472662295"><ele>90.66666666666667</ele><time>2026-05-01T15:00:54Z</time></trkpt><trkpt lat="44.83625074936637" lon="0.8988019325827981"><ele>91.33333333333333</ele><time>2026-05-01T15:00:55Z</time></trkpt><trkpt lat="44.836312795988626" lon="0.8988951357430626"><ele>92.0</ele><time>2026-05-01T15:00:56Z</time></trkpt><trkpt lat="44.836380401224794" lon="0.8989873686568575"><ele>92.66666666666666</ele><time>2026-05-01T15:00:57Z</time></trkpt><trkpt lat="44.836439792532936" lon="0.8990758610681923"><ele>93.33333333333333</ele><time>2026-05-01T15:00:58Z</time></trkpt><trkpt lat="44.836485629157686" lon="0.8991390729895649"><ele>94.0</ele><time>2026-05-01T15:00:59Z</time></trkpt><trkpt lat="44.8365231718522" lon="0.8992211424102138"><ele>93.5</ele><time>2026-05-01T15:01:00Z</time></trkpt><trkpt lat="44.83657914555979" lon="0.8992737084607366"><ele>93.0</ele><time>2026-05-01T15:01:01Z</time></trkpt><trkpt lat="44.83664279663714" lon="0.8993281521605252"><ele>92.5</ele><time>2026-05-01T15:01:02Z</time></trkpt><trkpt lat="44.836710698374425" lon="0.899408345079084"><ele>92.0</ele><time>2026-05-01T15:01:03Z</time></trkpt><trkpt lat="44.83680126497993" lon="0.8994610303526281"><ele>91.5</ele><time>2026-05-01T15:01:04Z</time></trkpt><trkpt lat="44.83690646127969" lon="0.8995253146608106"><ele>91.0</ele><time>2026-05-01T15:01:05Z</time></trkpt><trkpt lat="44.83700367100887" lon="0.8996024640704092"><ele>91.0</ele><time>2026-05-01T15:01:06Z</time></trkpt><trkpt lat="44.837105268549934" lon="0.8996617609544051"><ele>91.0</ele><time>2026-05-01T15:01:07Z</time></trkpt><trkpt lat="44.837210718838776" lon="0.8997263233690261"><ele>91.0</ele><time>2026-05-01T15:01:08Z</time></trkpt><trkpt lat="44.83730869368263" lon="0.8997798902695983"><ele>91.0</ele><time>2026-05-01T15:01:09Z</time></trkpt><trkpt lat="44.83740549192049" lon="0.8998358273302469"><ele>91.0</ele><time>2026-05-01T15:01:10Z</time></trkpt><trkpt lat="44.837481758821085" lon="0.899852277693433"><ele>91.0</ele><time>2026-05-01T15:01:11Z</time></trkpt><trkpt lat="44.837548718680665" lon="0.8998745664056469"><ele>91.0</ele><time>2026-05-01T15:01:12Z</time></trkpt><trkpt lat="44.83759637279332" lon="0.8999651981159773"><ele>91.0</ele><time>2026-05-01T15:01:13Z</time></trkpt><trkpt lat="44.8376605246261" lon="0.9000492064206055"><ele>91.0</ele><time>2026-05-01T15:01:14Z</time></trkpt><trkpt lat="44.837762159136695" lon="0.9001679187907393"><ele>91.0</ele><time>2026-05-01T15:01:15Z</time></trkpt><trkpt lat="44.83785636240718" lon="0.9002684388825444"><ele>90.5</ele><time>2026-05-01T15:01:16Z</time></trkpt><trkpt lat="44.83792440519503" lon="0.9003646775156897"><ele>90.0</ele><time>2026-05-01T15:01:17Z</time></trkpt><trkpt lat="44.837978968542735" lon="0.9004637489590175"><ele>89.5</ele><time>2026-05-01T15:01:18Z</time></trkpt><trkpt lat="44.838033309788415" lon="0.900540069081918"><ele>89.0</ele><time>2026-05-01T15:01:19Z</time></trkpt><trkpt lat="44.83811350097178" lon="0.9006196093963668"><ele>88.5</ele><time>2026-05-01T15:01:20Z</time></trkpt><trkpt lat="44.83817259846561" lon="0.900690247472499"><ele>88.0</ele><time>2026-05-01T15:01:21Z</time></trkpt><trkpt lat="44.83823524274047" lon="0.9007159800335659"><ele>88.0</ele><time>2026-05-01T15:01:22Z</time></trkpt><trkpt lat="44.83831592977963" lon="0.9007584628073523"><ele>88.0</ele><time>2026-05-01T15:01:23Z</time></trkpt><trkpt lat="44.83839993815826" lon="0.9008123543654515"><ele>88.0</ele><time>2026-05-01T15:01:24Z</time></trkpt><trkpt lat="44.83849487904485" lon="0.9008766260967082"><ele>88.0</ele><time>2026-05-01T15:01:25Z</time></trkpt><trkpt lat="44.83860052569497" lon="0.9009292751148308"><ele>88.0</ele><time>2026-05-01T15:01:26Z</time></trkpt><trkpt lat="44.838694074089155" lon="0.9009720516541979"><ele>86.80000000000001</ele><time>2026-05-01T15:01:27Z</time></trkpt><trkpt lat="44.83878211974555" lon="0.9010318307547487"><ele>85.6</ele><time>2026-05-01T15:01:28Z</time></trkpt><trkpt lat="44.838871648217236" lon="0.9010653772331304"><ele>84.4</ele><time>2026-05-01T15:01:29Z</time></trkpt><trkpt lat="44.838956315023374" lon="0.9010846728348979"><ele>83.19999999999999</ele><time>2026-05-01T15:01:30Z</time></trkpt><trkpt lat="44.83903567705287" lon="0.9011084530087069"><ele>82.0</ele><time>2026-05-01T15:01:31Z</time></trkpt><trkpt lat="44.83914183477353" lon="0.9011653980179747"><ele>82.0</ele><time>2026-05-01T15:01:32Z</time></trkpt><trkpt lat="44.83926490916744" lon="0.9011913765336231"><ele>82.0</ele><time>2026-05-01T15:01:33Z</time></trkpt><trkpt lat="44.83941134740652" lon="0.9012433904024157"><ele>82.0</ele><time>2026-05-01T15:01:34Z</time></trkpt><trkpt lat="44.83952172987049" lon="0.9012899269467127"><ele>82.0</ele><time>2026-05-01T15:01:35Z</time></trkpt><trkpt lat="44.8396313727611" lon="0.9013354418444625"><ele>81.19999999999999</ele><time>2026-05-01T15:01:36Z</time></trkpt><trkpt lat="44.83973577765939" lon="0.9013700408826641"><ele>80.39999999999999</ele><time>2026-05-01T15:01:37Z</time></trkpt><trkpt lat="44.83983864791685" lon="0.9013781119348929"><ele>79.6</ele><time>2026-05-01T15:01:38Z</time></trkpt><trkpt lat="44.839933672515656" lon="0.9014158635373363"><ele>78.8</ele><time>2026-05-01T15:01:39Z</time></trkpt><trkpt lat="44.84002054013046" lon="0.9014646621109689"><ele>78.0</ele><time>2026-05-01T15:01:40Z</time></trkpt><trkpt lat="44.84010815411446" lon="0.9014913762421146"><ele>78.8</ele><time>2026-05-01T15:01:41Z</time></trkpt><trkpt lat="44.840196988158354" lon="0.9014968889661765"><ele>79.6</ele><time>2026-05-01T15:01:42Z</time></trkpt><trkpt lat="44.84026333487171" lon="0.9014865205382582"><ele>80.39999999999999</ele><time>2026-05-01T15:01:43Z</time></trkpt><trkpt lat="44.84038077405814" lon="0.9014809428761994"><ele>81.19999999999999</ele><time>2026-05-01T15:01:44Z</time></trkpt><trkpt lat="44.84049518705625" lon="0.9014680426340176"><ele>82.0</ele><time>2026-05-01T15:01:45Z</time></trkpt><trkpt lat="44.8405991482617" lon="0.9014466675342945"><ele>82.0</ele><time>2026-05-01T15:01:46Z</time></trkpt><trkpt lat="44.84069936787526" lon="0.9014415284988562"><ele>82.0</ele><time>2026-05-01T15:01:47Z</time></trkpt><trkpt lat="44.84081760688238" lon="0.9014701544639995"><ele>82.0</ele><time>2026-05-01T15:01:48Z</time></trkpt><trkpt lat="44.840932294334245" lon="0.9014914565003401"><ele>82.0</ele><time>2026-05-01T15:01:49Z</time></trkpt><trkpt lat="44.84103218389174" lon="0.9015587456129196"><ele>82.0</ele><time>2026-05-01T15:01:50Z</time></trkpt><trkpt lat="44.841141023205005" lon="0.9015976586644306"><ele>82.25</ele><time>2026-05-01T15:01:51Z</time></trkpt><trkpt lat="44.841257245818056" lon="0.9016571475057562"><ele>82.5</ele><time>2026-05-01T15:01:52Z</time></trkpt><trkpt lat="44.841351377310446" lon="0.9017018465993181"><ele>82.75</ele><time>2026-05-01T15:01:53Z</time></trkpt><trkpt lat="44.841456562132024" lon="0.9017278227767028"><ele>83.0</ele><time>2026-05-01T15:01:54Z</time></trkpt><trkpt lat="44.84158082255346" lon="0.9017466582139299"><ele>81.0</ele><time>2026-05-01T15:01:55Z</time></trkpt><trkpt lat="44.84170928938987" lon="0.9017586815582663"><ele>79.0</ele><time>2026-05-01T15:01:56Z</time></trkpt><trkpt lat="44.84182906095043" lon="0.90177617721508"><ele>77.0</ele><time>2026-05-01T15:01:57Z</time></trkpt><trkpt lat="44.84193075226738" lon="0.901802981157217"><ele>75.0</ele><time>2026-05-01T15:01:58Z</time></trkpt><trkpt lat="44.84203949344338" lon="0.9018054315030248"><ele>75.0</ele><time>2026-05-01T15:01:59Z</time></trkpt><trkpt lat="44.842152997700374" lon="0.9017832676410678"><ele>75.0</ele><time>2026-05-01T15:02:00Z</time></trkpt><trkpt lat="44.84225803998312" lon="0.9017565136191829"><ele>75.0</ele><time>2026-05-01T15:02:01Z</time></trkpt><trkpt lat="44.84236968426038" lon="0.901716163565258"><ele>75.0</ele><time>2026-05-01T15:02:02Z</time></trkpt><trkpt lat="44.84250017407302" lon="0.9016925968109596"><ele>75.66666666666667</ele><time>2026-05-01T15:02:03Z</time></trkpt><trkpt lat="44.842606763195874" lon="0.9016911574378581"><ele>76.33333333333333</ele><time>2026-05-01T15:02:04Z</time></trkpt><trkpt lat="44.84268257461949" lon="0.9016629290470437"><ele>77.0</ele><time>2026-05-01T15:02:05Z</time></trkpt><trkpt lat="44.8427190333642" lon="0.9015875347978884"><ele>77.66666666666666</ele><time>2026-05-01T15:02:06Z</time></trkpt><trkpt lat="44.842749768774816" lon="0.9014930608683754"><ele>78.33333333333333</ele><time>2026-05-01T15:02:07Z</time></trkpt><trkpt lat="44.8427852131613" lon="0.9014094446824734"><ele>79.0</ele><time>2026-05-01T15:02:08Z</time></trkpt><trkpt lat="44.842827895859784" lon="0.9013258271835894"><ele>79.0</ele><time>2026-05-01T15:02:09Z</time></trkpt><trkpt lat="44.84288377933161" lon="0.9011907603333982"><ele>79.0</ele><time>2026-05-01T15:02:11Z</time></trkpt><trkpt lat="44.84293304641397" lon="0.9010723016345994"><ele>79.0</ele><time>2026-05-01T15:02:12Z</time></trkpt><trkpt lat="44.8429901148907" lon="0.9009497583810728"><ele>79.0</ele><time>2026-05-01T15:02:13Z</time></trkpt><trkpt lat="44.84303358142805" lon="0.9008308033265229"><ele>79.0</ele><time>2026-05-01T15:02:14Z</time></trkpt><trkpt lat="44.84308955163053" lon="0.9007118386235483"><ele>79.0</ele><time>2026-05-01T15:02:15Z</time></trkpt><trkpt lat="44.84312139805992" lon="0.9006064620461968"><ele>79.0</ele><time>2026-05-01T15:02:17Z</time></trkpt><trkpt lat="44.84318710929314" lon="0.9006423553254841"><ele>79.0</ele><time>2026-05-01T15:02:20Z</time></trkpt><trkpt lat="44.843192985550246" lon="0.9007502771165978"><ele>79.0</ele><time>2026-05-01T15:02:22Z</time></trkpt><trkpt lat="44.84318546869687" lon="0.9008673573944644"><ele>79.0</ele><time>2026-05-01T15:02:24Z</time></trkpt><trkpt lat="44.84322274044419" lon="0.9010596606175036"><ele>79.0</ele><time>2026-05-01T15:02:26Z</time></trkpt><trkpt lat="44.84327307867974" lon="0.9011727351212458"><ele>79.0</ele><time>2026-05-01T15:02:27Z</time></trkpt><trkpt lat="44.8433264689071" lon="0.9012537236392069"><ele>79.0</ele><time>2026-05-01T15:02:28Z</time></trkpt><trkpt lat="44.84339823640348" lon="0.9013075132793938"><ele>79.0</ele><time>2026-05-01T15:02:29Z</time></trkpt><trkpt lat="44.843479788377046" lon="0.9013528734115845"><ele>79.0</ele><time>2026-05-01T15:02:30Z</time></trkpt><trkpt lat="44.84357584690843" lon="0.9013804639358819"><ele>79.0</ele><time>2026-05-01T15:02:31Z</time></trkpt><trkpt lat="44.84368183042603" lon="0.9013904098323146"><ele>78.4</ele><time>2026-05-01T15:02:32Z</time></trkpt><trkpt lat="44.8437942675474" lon="0.901399887744911"><ele>77.80000000000001</ele><time>2026-05-01T15:02:33Z</time></trkpt><trkpt lat="44.84388815050319" lon="0.9014135939263902"><ele>77.19999999999999</ele><time>2026-05-01T15:02:34Z</time></trkpt><trkpt lat="44.84397874964129" lon="0.9014297497557386"><ele>76.6</ele><time>2026-05-01T15:02:35Z</time></trkpt><trkpt lat="44.84407485378146" lon="0.901450787111371"><ele>76.0</ele><time>2026-05-01T15:02:36Z</time></trkpt><trkpt lat="44.844175900608015" lon="0.9014760549529484"><ele>76.0</ele><time>2026-05-01T15:02:37Z</time></trkpt><trkpt lat="44.84429328472476" lon="0.9014931682024743"><ele>76.0</ele><time>2026-05-01T15:02:38Z</time></trkpt><trkpt lat="44.84441651224268" lon="0.9015279655684502"><ele>76.0</ele><time>2026-05-01T15:02:39Z</time></trkpt><trkpt lat="44.84453294572804" lon="0.9015876740474543"><ele>76.0</ele><time>2026-05-01T15:02:40Z</time></trkpt><trkpt lat="44.84464450841029" lon="0.9016660890865812"><ele>75.0</ele><time>2026-05-01T15:02:41Z</time></trkpt><trkpt lat="44.8447482428665" lon="0.901756166293387"><ele>74.0</ele><time>2026-05-01T15:02:42Z</time></trkpt><trkpt lat="44.84485129641422" lon="0.9018625597687675"><ele>73.0</ele><time>2026-05-01T15:02:43Z</time></trkpt><trkpt lat="44.84495602286085" lon="0.9019539253523683"><ele>72.0</ele><time>2026-05-01T15:02:44Z</time></trkpt><trkpt lat="44.8450656556102" lon="0.9020386669215036"><ele>71.75</ele><time>2026-05-01T15:02:45Z</time></trkpt><trkpt lat="44.845176713396185" lon="0.9021293795231896"><ele>71.5</ele><time>2026-05-01T15:02:46Z</time></trkpt><trkpt lat="44.84528411867344" lon="0.9022180765158558"><ele>71.25</ele><time>2026-05-01T15:02:47Z</time></trkpt><trkpt lat="44.84537998837728" lon="0.9022923470268946"><ele>71.0</ele><time>2026-05-01T15:02:48Z</time></trkpt><trkpt lat="44.84546520173091" lon="0.9023571806044642"><ele>71.0</ele><time>2026-05-01T15:02:49Z</time></trkpt><trkpt lat="44.84554947056342" lon="0.9024177976867268"><ele>71.0</ele><time>2026-05-01T15:02:50Z</time></trkpt><trkpt lat="44.84561669265554" lon="0.9024828424823578"><ele>71.0</ele><time>2026-05-01T15:02:51Z</time></trkpt><trkpt lat="44.84569396393762" lon="0.9025306536099095"><ele>71.0</ele><time>2026-05-01T15:02:52Z</time></trkpt><trkpt lat="44.84579038265113" lon="0.902600700140607"><ele>71.0</ele><time>2026-05-01T15:02:53Z</time></trkpt><trkpt lat="44.84590524480812" lon="0.9026784196313522"><ele>70.75</ele><time>2026-05-01T15:02:54Z</time></trkpt><trkpt lat="44.84602780682813" lon="0.9027502733371479"><ele>70.5</ele><time>2026-05-01T15:02:55Z</time></trkpt><trkpt lat="44.84615450195831" lon="0.90282390799554"><ele>70.25</ele><time>2026-05-01T15:02:56Z</time></trkpt><trkpt lat="44.846265975240435" lon="0.9028951039747751"><ele>70.0</ele><time>2026-05-01T15:02:57Z</time></trkpt><trkpt lat="44.84636346358197" lon="0.9029588499524409"><ele>70.0</ele><time>2026-05-01T15:02:58Z</time></trkpt><trkpt lat="44.84645159546215" lon="0.9030143810378412"><ele>70.0</ele><time>2026-05-01T15:02:59Z</time></trkpt><trkpt lat="44.846530269717256" lon="0.9030635529748916"><ele>70.0</ele><time>2026-05-01T15:03:00Z</time></trkpt><trkpt lat="44.846606129462124" lon="0.903109145378976"><ele>70.0</ele><time>2026-05-01T15:03:01Z</time></trkpt><trkpt lat="44.846676637842876" lon="0.903159744150089"><ele>70.0</ele><time>2026-05-01T15:03:02Z</time></trkpt><trkpt lat="44.846744640105406" lon="0.9032096255878066"><ele>70.0</ele><time>2026-05-01T15:03:03Z</time></trkpt><trkpt lat="44.846822101580976" lon="0.9032631269621811"><ele>69.33333333333333</ele><time>2026-05-01T15:03:04Z</time></trkpt><trkpt lat="44.84690971118356" lon="0.9033269818331979"><ele>68.66666666666666</ele><time>2026-05-01T15:03:05Z</time></trkpt><trkpt lat="44.84698746546853" lon="0.9033843984860144"><ele>68.0</ele><time>2026-05-01T15:03:06Z</time></trkpt><trkpt lat="44.847050529187065" lon="0.9034380696418189"><ele>67.33333333333333</ele><time>2026-05-01T15:03:07Z</time></trkpt><trkpt lat="44.84710785532417" lon="0.9034841965441233"><ele>66.66666666666667</ele><time>2026-05-01T15:03:08Z</time></trkpt><trkpt lat="44.84716028870983" lon="0.9035488476306472"><ele>66.0</ele><time>2026-05-01T15:03:10Z</time></trkpt><trkpt lat="44.84721634299158" lon="0.9035937315108142"><ele>65.25</ele><time>2026-05-01T15:03:17Z</time></trkpt><trkpt lat="44.847148856623086" lon="0.9039399537195559"><ele>64.5</ele><time>2026-05-01T15:03:30Z</time></trkpt><trkpt lat="44.847112702457984" lon="0.9040412196011093"><ele>63.75</ele><time>2026-05-01T15:03:32Z</time></trkpt><trkpt lat="44.84707390029258" lon="0.904148637959839"><ele>63.0</ele><time>2026-05-01T15:03:34Z</time></trkpt><trkpt lat="44.84702863688578" lon="0.9042580103310948"><ele>63.0</ele><time>2026-05-01T15:03:36Z</time></trkpt><trkpt lat="44.8469880782223" lon="0.9044029273615155"><ele>63.0</ele><time>2026-05-01T15:03:38Z</time></trkpt><trkpt lat="44.84692389513182" lon="0.9045374836399998"><ele>63.0</ele><time>2026-05-01T15:03:40Z</time></trkpt><trkpt lat="44.84688660773138" lon="0.9046853653490182"><ele>63.0</ele><time>2026-05-01T15:03:42Z</time></trkpt><trkpt lat="44.84681344983692" lon="0.9048318049682375"><ele>62.85714285714286</ele><time>2026-05-01T15:03:44Z</time></trkpt><trkpt lat="44.84677837041436" lon="0.9049250933256712"><ele>62.714285714285715</ele><time>2026-05-01T15:03:45Z</time></trkpt><trkpt lat="44.8467427189221" lon="0.9050220362537051"><ele>62.57142857142857</ele><time>2026-05-01T15:03:46Z</time></trkpt><trkpt lat="44.84671035392841" lon="0.9051133086640389"><ele>62.42857142857143</ele><time>2026-05-01T15:03:47Z</time></trkpt><trkpt lat="44.846692763615565" lon="0.9052057529753951"><ele>62.28571428571429</ele><time>2026-05-01T15:03:48Z</time></trkpt><trkpt lat="44.84666883662656" lon="0.9052939194589901"><ele>62.142857142857146</ele><time>2026-05-01T15:03:49Z</time></trkpt><trkpt lat="44.846631343276655" lon="0.9053666344926286"><ele>62.0</ele><time>2026-05-01T15:03:50Z</time></trkpt><trkpt lat="44.84659014680477" lon="0.9055177550962907"><ele>62.0</ele><time>2026-05-01T15:03:52Z</time></trkpt><trkpt lat="44.8465533390339" lon="0.9056661084355353"><ele>62.0</ele><time>2026-05-01T15:03:54Z</time></trkpt><trkpt lat="44.84652459962794" lon="0.9058103795877158"><ele>62.0</ele><time>2026-05-01T15:03:56Z</time></trkpt><trkpt lat="44.846518766697066" lon="0.9059489170418116"><ele>62.0</ele><time>2026-05-01T15:03:58Z</time></trkpt><trkpt lat="44.84649627633704" lon="0.9060601905712986"><ele>62.0</ele><time>2026-05-01T15:04:00Z</time></trkpt><trkpt lat="44.84648273803335" lon="0.9061477711074362"><ele>62.0</ele><time>2026-05-01T15:04:02Z</time></trkpt><trkpt lat="44.84646347320089" lon="0.9062663855286838"><ele>62.0</ele><time>2026-05-01T15:04:05Z</time></trkpt><trkpt lat="44.84645297126314" lon="0.9063539507686895"><ele>62.0</ele><time>2026-05-01T15:04:07Z</time></trkpt><trkpt lat="44.846439699819854" lon="0.9065031004857524"><ele>62.0</ele><time>2026-05-01T15:04:09Z</time></trkpt><trkpt lat="44.84642860775022" lon="0.9066475883166895"><ele>62.0</ele><time>2026-05-01T15:04:11Z</time></trkpt><trkpt lat="44.8464106649447" lon="0.9067860915690159"><ele>62.2</ele><time>2026-05-01T15:04:13Z</time></trkpt><trkpt lat="44.84639329290962" lon="0.9069171549340351"><ele>62.400000000000006</ele><time>2026-05-01T15:04:15Z</time></trkpt><trkpt lat="44.846358682935126" lon="0.9070737471314455"><ele>62.599999999999994</ele><time>2026-05-01T15:04:17Z</time></trkpt><trkpt lat="44.846322741433546" lon="0.9072272904886884"><ele>62.8</ele><time>2026-05-01T15:04:19Z</time></trkpt><trkpt lat="44.84629984503503" lon="0.9073252985436808"><ele>63.0</ele><time>2026-05-01T15:04:20Z</time></trkpt><trkpt lat="44.846278064012324" lon="0.9074317628918496"><ele>63.0</ele><time>2026-05-01T15:04:21Z</time></trkpt><trkpt lat="44.846244675865044" lon="0.9075286365101594"><ele>63.0</ele><time>2026-05-01T15:04:22Z</time></trkpt><trkpt lat="44.84620924556551" lon="0.9076239393703686"><ele>63.0</ele><time>2026-05-01T15:04:23Z</time></trkpt><trkpt lat="44.846178050910126" lon="0.9077199476039874"><ele>63.0</ele><time>2026-05-01T15:04:24Z</time></trkpt><trkpt lat="44.84615410823198" lon="0.9078191066021933"><ele>63.0</ele><time>2026-05-01T15:04:25Z</time></trkpt><trkpt lat="44.846139117603116" lon="0.9079293734041067"><ele>63.0</ele><time>2026-05-01T15:04:26Z</time></trkpt><trkpt lat="44.84611855862035" lon="0.9080166746500692"><ele>63.0</ele><time>2026-05-01T15:04:27Z</time></trkpt><trkpt lat="44.84608677235476" lon="0.9081537369970933"><ele>63.0</ele><time>2026-05-01T15:04:29Z</time></trkpt><trkpt lat="44.846074272241445" lon="0.9082524659647744"><ele>63.0</ele><time>2026-05-01T15:04:31Z</time></trkpt><trkpt lat="44.84604488850358" lon="0.9083368196098403"><ele>63.0</ele><time>2026-05-01T15:04:35Z</time></trkpt><trkpt lat="44.84604486563829" lon="0.9084328061758177"><ele>63.0</ele><time>2026-05-01T15:04:42Z</time></trkpt><trkpt lat="44.84608564006535" lon="0.9085307030515398"><ele>63.0</ele><time>2026-05-01T15:04:44Z</time></trkpt><trkpt lat="44.84607289314883" lon="0.9086586014719225"><ele>63.0</ele><time>2026-05-01T15:04:49Z</time></trkpt><trkpt lat="44.8460300558267" lon="0.9087883688824608"><ele>63.0</ele><time>2026-05-01T15:04:52Z</time></trkpt><trkpt lat="44.84602743366218" lon="0.9089006502347317"><ele>63.0</ele><time>2026-05-01T15:04:54Z</time></trkpt><trkpt lat="44.846025210530286" lon="0.9090627049415566"><ele>63.0</ele><time>2026-05-01T15:04:56Z</time></trkpt><trkpt lat="44.84602396632124" lon="0.9091534011718556"><ele>63.0</ele><time>2026-05-01T15:04:57Z</time></trkpt><trkpt lat="44.8460389879183" lon="0.9092575938697378"><ele>63.0</ele><time>2026-05-01T15:04:58Z</time></trkpt><trkpt lat="44.846033885685365" lon="0.9093719312391204"><ele>63.0</ele><time>2026-05-01T15:04:59Z</time></trkpt><trkpt lat="44.846023826514326" lon="0.9094881787284977"><ele>63.166666666666664</ele><time>2026-05-01T15:05:00Z</time></trkpt><trkpt lat="44.846029640972176" lon="0.9096049568138803"><ele>63.33333333333333</ele><time>2026-05-01T15:05:01Z</time></trkpt><trkpt lat="44.84601777783728" lon="0.9097310484292211"><ele>63.5</ele><time>2026-05-01T15:05:02Z</time></trkpt><trkpt lat="44.84601694593124" lon="0.9098578225180006"><ele>63.666666666666664</ele><time>2026-05-01T15:05:03Z</time></trkpt><trkpt lat="44.84601608489289" lon="0.9099826276801193"><ele>63.83333333333333</ele><time>2026-05-01T15:05:04Z</time></trkpt><trkpt lat="44.84601526598062" lon="0.910101326770439"><ele>64.0</ele><time>2026-05-01T15:05:05Z</time></trkpt><trkpt lat="44.84601455846768" lon="0.9102038788169999"><ele>64.0</ele><time>2026-05-01T15:05:06Z</time></trkpt><trkpt lat="44.84601345938134" lon="0.9103631882842325"><ele>64.0</ele><time>2026-05-01T15:05:08Z</time></trkpt></trkseg></trk></gpx>